<?xml version='1.0' encoding='UTF-8'?><gpx version="1.1" creator="JPX - https://github.com/jenetics/jpx" xmlns="http://www.topografix.com/GPX/1/1"><trk><trkseg><trkpt lat="43.1423587" lon="12.2251268"><ele>237.0</ele><time>2026-05-03T06:35:16.532Z</time></trkpt><trkpt lat="43.1423266" lon="12.2250505"><ele>237.0</ele><time>2026-05-03T06:35:35.541Z</time></trkpt><trkpt lat="43.1423271" lon="12.2249494"><ele>237.0</ele><time>2026-05-03T06:37:30.192Z</time></trkpt><trkpt lat="43.1422287" lon="12.2248552"><ele>237.0</ele><time>2026-05-03T06:37:34.181Z</time></trkpt><trkpt lat="43.1421627" lon="12.2247678"><ele>237.0</ele><time>2026-05-03T06:37:37.179Z</time></trkpt><trkpt lat="43.1421109" lon="12.2247069"><ele>237.0</ele><time>2026-05-03T06:37:40.088Z</time></trkpt><trkpt lat="43.141982" lon="12.2247584"><ele>237.0</ele><time>2026-05-03T06:37:42.182Z</time></trkpt><trkpt lat="43.141913" lon="12.2248493"><ele>237.0</ele><time>2026-05-03T06:37:43.175Z</time></trkpt><trkpt lat="43.1418656" lon="12.2249608"><ele>237.0</ele><time>2026-05-03T06:37:44.167Z</time></trkpt><trkpt lat="43.1418314" lon="12.2250789"><ele>237.0</ele><time>2026-05-03T06:37:45.176Z</time></trkpt><trkpt lat="43.1418036" lon="12.2251975"><ele>237.0</ele><time>2026-05-03T06:37:46.177Z</time></trkpt><trkpt lat="43.14178" lon="12.2253123"><ele>237.0</ele><time>2026-05-03T06:37:47.178Z</time></trkpt><trkpt lat="43.1417526" lon="12.2254283"><ele>237.0</ele><time>2026-05-03T06:37:48.176Z</time></trkpt><trkpt lat="43.1417204" lon="12.2255645"><ele>237.0</ele><time>2026-05-03T06:37:49.192Z</time></trkpt><trkpt lat="43.1416895" lon="12.2257155"><ele>237.0</ele><time>2026-05-03T06:37:50.173Z</time></trkpt><trkpt lat="43.141656" lon="12.2258611"><ele>237.0</ele><time>2026-05-03T06:37:51.177Z</time></trkpt><trkpt lat="43.1416237" lon="12.2259911"><ele>237.16666666666666</ele><time>2026-05-03T06:37:52.177Z</time></trkpt><trkpt lat="43.1415962" lon="12.2260997"><ele>237.33333333333331</ele><time>2026-05-03T06:37:53.167Z</time></trkpt><trkpt lat="43.1415722" lon="12.2261877"><ele>237.5</ele><time>2026-05-03T06:37:54.17Z</time></trkpt><trkpt lat="43.1415208" lon="12.2263249"><ele>237.66666666666666</ele><time>2026-05-03T06:37:56.171Z</time></trkpt><trkpt lat="43.1414788" lon="12.2263895"><ele>237.83333333333331</ele><time>2026-05-03T06:37:57.174Z</time></trkpt><trkpt lat="43.1414326" lon="12.226456"><ele>238.0</ele><time>2026-05-03T06:37:58.175Z</time></trkpt><trkpt lat="43.1413871" lon="12.2265364"><ele>237.66666666666666</ele><time>2026-05-03T06:37:59.174Z</time></trkpt><trkpt lat="43.1413455" lon="12.2266311"><ele>237.33333333333331</ele><time>2026-05-03T06:38:00.169Z</time></trkpt><trkpt lat="43.1413227" lon="12.2267337"><ele>237.0</ele><time>2026-05-03T06:38:01.171Z</time></trkpt><trkpt lat="43.1413196" lon="12.2268363"><ele>236.66666666666669</ele><time>2026-05-03T06:38:02.172Z</time></trkpt><trkpt lat="43.1413243" lon="12.2269514"><ele>236.33333333333334</ele><time>2026-05-03T06:38:03.171Z</time></trkpt><trkpt lat="43.141322" lon="12.2270843"><ele>236.0</ele><time>2026-05-03T06:38:04.173Z</time></trkpt><trkpt lat="43.1413002" lon="12.2272315"><ele>236.0</ele><time>2026-05-03T06:38:05.175Z</time></trkpt><trkpt lat="43.1412657" lon="12.2273858"><ele>236.0</ele><time>2026-05-03T06:38:06.174Z</time></trkpt><trkpt lat="43.1412181" lon="12.2275432"><ele>236.0</ele><time>2026-05-03T06:38:07.173Z</time></trkpt><trkpt lat="43.1411673" lon="12.2277191"><ele>236.0</ele><time>2026-05-03T06:38:08.176Z</time></trkpt><trkpt lat="43.1411165" lon="12.2278935"><ele>236.0</ele><time>2026-05-03T06:38:09.174Z</time></trkpt><trkpt lat="43.1410698" lon="12.2280679"><ele>236.0</ele><time>2026-05-03T06:38:10.172Z</time></trkpt><trkpt lat="43.1410227" lon="12.2282517"><ele>236.0</ele><time>2026-05-03T06:38:11.172Z</time></trkpt><trkpt lat="43.1409727" lon="12.228444"><ele>236.0</ele><time>2026-05-03T06:38:12.173Z</time></trkpt><trkpt lat="43.1409211" lon="12.2286445"><ele>236.33333333333334</ele><time>2026-05-03T06:38:13.17Z</time></trkpt><trkpt lat="43.1408727" lon="12.2288633"><ele>236.66666666666669</ele><time>2026-05-03T06:38:14.173Z</time></trkpt><trkpt lat="43.1408266" lon="12.22908"><ele>237.0</ele><time>2026-05-03T06:38:15.18Z</time></trkpt><trkpt lat="43.1407829" lon="12.2292605"><ele>236.75</ele><time>2026-05-03T06:38:16.175Z</time></trkpt><trkpt lat="43.1407346" lon="12.2294416"><ele>236.5</ele><time>2026-05-03T06:38:17.175Z</time></trkpt><trkpt lat="43.1406861" lon="12.2296327"><ele>236.25</ele><time>2026-05-03T06:38:18.173Z</time></trkpt><trkpt lat="43.1406358" lon="12.2298413"><ele>236.0</ele><time>2026-05-03T06:38:19.172Z</time></trkpt><trkpt lat="43.1405882" lon="12.2300575"><ele>236.0</ele><time>2026-05-03T06:38:20.188Z</time></trkpt><trkpt lat="43.140543" lon="12.2302595"><ele>236.0</ele><time>2026-05-03T06:38:21.168Z</time></trkpt><trkpt lat="43.1404983" lon="12.2304443"><ele>236.0</ele><time>2026-05-03T06:38:22.178Z</time></trkpt><trkpt lat="43.1404554" lon="12.2306212"><ele>236.0</ele><time>2026-05-03T06:38:23.178Z</time></trkpt><trkpt lat="43.1404099" lon="12.2308071"><ele>235.75</ele><time>2026-05-03T06:38:24.175Z</time></trkpt><trkpt lat="43.1403645" lon="12.2309907"><ele>235.5</ele><time>2026-05-03T06:38:25.171Z</time></trkpt><trkpt lat="43.1403277" lon="12.2311574"><ele>235.25</ele><time>2026-05-03T06:38:26.175Z</time></trkpt><trkpt lat="43.1402926" lon="12.2312977"><ele>235.0</ele><time>2026-05-03T06:38:27.172Z</time></trkpt><trkpt lat="43.1402615" lon="12.2314279"><ele>235.16666666666666</ele><time>2026-05-03T06:38:28.17Z</time></trkpt><trkpt lat="43.140236" lon="12.231535"><ele>235.33333333333331</ele><time>2026-05-03T06:38:29.175Z</time></trkpt><trkpt lat="43.1401959" lon="12.2316096"><ele>235.5</ele><time>2026-05-03T06:38:30.17Z</time></trkpt><trkpt lat="43.1400716" lon="12.2316654"><ele>235.66666666666669</ele><time>2026-05-03T06:38:32.171Z</time></trkpt><trkpt lat="43.1399992" lon="12.2316557"><ele>235.83333333333334</ele><time>2026-05-03T06:38:33.172Z</time></trkpt><trkpt lat="43.1399312" lon="12.2316138"><ele>236.0</ele><time>2026-05-03T06:38:34.174Z</time></trkpt><trkpt lat="43.1398591" lon="12.2315385"><ele>236.0</ele><time>2026-05-03T06:38:35.17Z</time></trkpt><trkpt lat="43.1397772" lon="12.231454"><ele>236.00000000000003</ele><time>2026-05-03T06:38:36.17Z</time></trkpt><trkpt lat="43.1396848" lon="12.2313702"><ele>236.00000000000003</ele><time>2026-05-03T06:38:37.173Z</time></trkpt><trkpt lat="43.1395988" lon="12.2312887"><ele>236.0</ele><time>2026-05-03T06:38:38.17Z</time></trkpt><trkpt lat="43.1395145" lon="12.231213"><ele>236.0</ele><time>2026-05-03T06:38:39.172Z</time></trkpt><trkpt lat="43.1394302" lon="12.2311324"><ele>236.0</ele><time>2026-05-03T06:38:40.17Z</time></trkpt><trkpt lat="43.1393443" lon="12.2310542"><ele>236.0</ele><time>2026-05-03T06:38:41.165Z</time></trkpt><trkpt lat="43.1392516" lon="12.2309718"><ele>236.0</ele><time>2026-05-03T06:38:42.168Z</time></trkpt><trkpt lat="43.1391521" lon="12.2308875"><ele>236.0</ele><time>2026-05-03T06:38:43.167Z</time></trkpt><trkpt lat="43.1390467" lon="12.2307979"><ele>235.5</ele><time>2026-05-03T06:38:44.166Z</time></trkpt><trkpt lat="43.1389349" lon="12.2307074"><ele>235.0</ele><time>2026-05-03T06:38:45.173Z</time></trkpt><trkpt lat="43.1388309" lon="12.2306232"><ele>234.5</ele><time>2026-05-03T06:38:46.166Z</time></trkpt><trkpt lat="43.1387364" lon="12.2305479"><ele>234.0</ele><time>2026-05-03T06:38:47.17Z</time></trkpt><trkpt lat="43.1386473" lon="12.2304754"><ele>234.0</ele><time>2026-05-03T06:38:48.172Z</time></trkpt><trkpt lat="43.1385546" lon="12.2304006"><ele>234.0</ele><time>2026-05-03T06:38:49.17Z</time></trkpt><trkpt lat="43.1384556" lon="12.2303198"><ele>234.0</ele><time>2026-05-03T06:38:50.171Z</time></trkpt><trkpt lat="43.1383426" lon="12.230238"><ele>234.0</ele><time>2026-05-03T06:38:51.196Z</time></trkpt><trkpt lat="43.1382161" lon="12.2301613"><ele>233.75</ele><time>2026-05-03T06:38:52.175Z</time></trkpt><trkpt lat="43.1380761" lon="12.2300935"><ele>233.5</ele><time>2026-05-03T06:38:53.171Z</time></trkpt><trkpt lat="43.1379341" lon="12.2300517"><ele>233.25</ele><time>2026-05-03T06:38:54.166Z</time></trkpt><trkpt lat="43.1378038" lon="12.2300333"><ele>233.0</ele><time>2026-05-03T06:38:55.169Z</time></trkpt><trkpt lat="43.1377042" lon="12.2300428"><ele>233.00000000000003</ele><time>2026-05-03T06:38:56.164Z</time></trkpt><trkpt lat="43.1376308" lon="12.2300656"><ele>233.0</ele><time>2026-05-03T06:38:57.168Z</time></trkpt><trkpt lat="43.1375415" lon="12.230157"><ele>233.0</ele><time>2026-05-03T06:38:59.169Z</time></trkpt><trkpt lat="43.1375315" lon="12.2302536"><ele>233.0</ele><time>2026-05-03T06:39:00.175Z</time></trkpt><trkpt lat="43.1375294" lon="12.2303686"><ele>233.00000000000003</ele><time>2026-05-03T06:39:01.173Z</time></trkpt><trkpt lat="43.1375174" lon="12.2304961"><ele>233.0</ele><time>2026-05-03T06:39:02.178Z</time></trkpt><trkpt lat="43.1374812" lon="12.2306451"><ele>233.0</ele><time>2026-05-03T06:39:03.18Z</time></trkpt><trkpt lat="43.1374168" lon="12.2308194"><ele>233.0</ele><time>2026-05-03T06:39:04.174Z</time></trkpt><trkpt lat="43.1373369" lon="12.230992"><ele>233.0</ele><time>2026-05-03T06:39:05.176Z</time></trkpt><trkpt lat="43.1372429" lon="12.2311633"><ele>233.0</ele><time>2026-05-03T06:39:06.181Z</time></trkpt><trkpt lat="43.137143" lon="12.2313406"><ele>232.66666666666669</ele><time>2026-05-03T06:39:07.175Z</time></trkpt><trkpt lat="43.1370403" lon="12.2315203"><ele>232.33333333333331</ele><time>2026-05-03T06:39:08.18Z</time></trkpt><trkpt lat="43.1369458" lon="12.2316876"><ele>232.0</ele><time>2026-05-03T06:39:09.178Z</time></trkpt><trkpt lat="43.136874" lon="12.2318489"><ele>232.0</ele><time>2026-05-03T06:39:10.178Z</time></trkpt><trkpt lat="43.1368143" lon="12.2320232"><ele>232.0</ele><time>2026-05-03T06:39:11.175Z</time></trkpt><trkpt lat="43.1367613" lon="12.2322013"><ele>232.0</ele><time>2026-05-03T06:39:12.179Z</time></trkpt><trkpt lat="43.1367176" lon="12.2323885"><ele>232.0</ele><time>2026-05-03T06:39:13.18Z</time></trkpt><trkpt lat="43.1366841" lon="12.2325897"><ele>232.0</ele><time>2026-05-03T06:39:14.181Z</time></trkpt><trkpt lat="43.1366577" lon="12.2328074"><ele>232.0</ele><time>2026-05-03T06:39:15.184Z</time></trkpt><trkpt lat="43.1366341" lon="12.2330204"><ele>232.0</ele><time>2026-05-03T06:39:16.179Z</time></trkpt><trkpt lat="43.1366102" lon="12.2332308"><ele>232.0</ele><time>2026-05-03T06:39:17.18Z</time></trkpt><trkpt lat="43.1365842" lon="12.2334444"><ele>232.0</ele><time>2026-05-03T06:39:18.174Z</time></trkpt><trkpt lat="43.1365404" lon="12.233666"><ele>232.0</ele><time>2026-05-03T06:39:19.176Z</time></trkpt><trkpt lat="43.1364804" lon="12.2339115"><ele>232.66666666666666</ele><time>2026-05-03T06:39:20.173Z</time></trkpt><trkpt lat="43.1363959" lon="12.2341725"><ele>233.33333333333331</ele><time>2026-05-03T06:39:21.184Z</time></trkpt><trkpt lat="43.1363041" lon="12.2344413"><ele>234.0</ele><time>2026-05-03T06:39:22.171Z</time></trkpt><trkpt lat="43.1362213" lon="12.2346829"><ele>233.0</ele><time>2026-05-03T06:39:23.168Z</time></trkpt><trkpt lat="43.1361432" lon="12.2348881"><ele>232.0</ele><time>2026-05-03T06:39:24.174Z</time></trkpt><trkpt lat="43.1360756" lon="12.2350891"><ele>231.0</ele><time>2026-05-03T06:39:25.175Z</time></trkpt><trkpt lat="43.1360086" lon="12.235286"><ele>231.0</ele><time>2026-05-03T06:39:26.169Z</time></trkpt><trkpt lat="43.1359454" lon="12.2354646"><ele>231.0</ele><time>2026-05-03T06:39:27.171Z</time></trkpt><trkpt lat="43.1358911" lon="12.2356272"><ele>231.0</ele><time>2026-05-03T06:39:28.178Z</time></trkpt><trkpt lat="43.1358445" lon="12.2357767"><ele>231.0</ele><time>2026-05-03T06:39:29.174Z</time></trkpt><trkpt lat="43.1358001" lon="12.2359186"><ele>231.0</ele><time>2026-05-03T06:39:30.176Z</time></trkpt><trkpt lat="43.1357569" lon="12.2360506"><ele>231.0</ele><time>2026-05-03T06:39:31.176Z</time></trkpt><trkpt lat="43.1357103" lon="12.2361615"><ele>231.0</ele><time>2026-05-03T06:39:32.174Z</time></trkpt><trkpt lat="43.135659" lon="12.2362499"><ele>231.0</ele><time>2026-05-03T06:39:33.176Z</time></trkpt><trkpt lat="43.1356019" lon="12.2363137"><ele>231.0</ele><time>2026-05-03T06:39:34.172Z</time></trkpt><trkpt lat="43.1355364" lon="12.236351"><ele>231.0</ele><time>2026-05-03T06:39:35.178Z</time></trkpt><trkpt lat="43.1354576" lon="12.2363553"><ele>231.0</ele><time>2026-05-03T06:39:36.177Z</time></trkpt><trkpt lat="43.1353632" lon="12.2363253"><ele>231.0</ele><time>2026-05-03T06:39:37.176Z</time></trkpt><trkpt lat="43.1352527" lon="12.2362592"><ele>231.0</ele><time>2026-05-03T06:39:38.17Z</time></trkpt><trkpt lat="43.1351238" lon="12.2361755"><ele>231.0</ele><time>2026-05-03T06:39:39.168Z</time></trkpt><trkpt lat="43.1349753" lon="12.2360847"><ele>230.66666666666669</ele><time>2026-05-03T06:39:40.175Z</time></trkpt><trkpt lat="43.134814" lon="12.2359828"><ele>230.33333333333334</ele><time>2026-05-03T06:39:41.176Z</time></trkpt><trkpt lat="43.1346344" lon="12.2358833"><ele>230.0</ele><time>2026-05-03T06:39:42.175Z</time></trkpt><trkpt lat="43.1344428" lon="12.2357796"><ele>230.0</ele><time>2026-05-03T06:39:43.176Z</time></trkpt><trkpt lat="43.1342621" lon="12.2356889"><ele>230.0</ele><time>2026-05-03T06:39:44.175Z</time></trkpt><trkpt lat="43.1340919" lon="12.2355968"><ele>230.0</ele><time>2026-05-03T06:39:45.182Z</time></trkpt><trkpt lat="43.1339169" lon="12.2355067"><ele>229.66666666666669</ele><time>2026-05-03T06:39:46.174Z</time></trkpt><trkpt lat="43.133736" lon="12.2354046"><ele>229.33333333333331</ele><time>2026-05-03T06:39:47.174Z</time></trkpt><trkpt lat="43.1335397" lon="12.2352953"><ele>229.0</ele><time>2026-05-03T06:39:48.178Z</time></trkpt><trkpt lat="43.1333421" lon="12.2351835"><ele>229.33333333333331</ele><time>2026-05-03T06:39:49.179Z</time></trkpt><trkpt lat="43.1331683" lon="12.2350902"><ele>229.66666666666669</ele><time>2026-05-03T06:39:50.178Z</time></trkpt><trkpt lat="43.1330215" lon="12.2350076"><ele>230.0</ele><time>2026-05-03T06:39:51.178Z</time></trkpt><trkpt lat="43.1328779" lon="12.2349289"><ele>230.0</ele><time>2026-05-03T06:39:52.191Z</time></trkpt><trkpt lat="43.1327384" lon="12.2348463"><ele>230.0</ele><time>2026-05-03T06:39:53.179Z</time></trkpt><trkpt lat="43.1326064" lon="12.2347597"><ele>230.0</ele><time>2026-05-03T06:39:54.173Z</time></trkpt><trkpt lat="43.1324854" lon="12.2346843"><ele>230.0</ele><time>2026-05-03T06:39:55.176Z</time></trkpt><trkpt lat="43.1323728" lon="12.2346026"><ele>230.0</ele><time>2026-05-03T06:39:56.174Z</time></trkpt><trkpt lat="43.1322543" lon="12.2345241"><ele>230.0</ele><time>2026-05-03T06:39:57.174Z</time></trkpt><trkpt lat="43.1321242" lon="12.2344354"><ele>230.0</ele><time>2026-05-03T06:39:58.179Z</time></trkpt><trkpt lat="43.1319933" lon="12.2343555"><ele>230.0</ele><time>2026-05-03T06:39:59.172Z</time></trkpt><trkpt lat="43.1318695" lon="12.2343021"><ele>230.0</ele><time>2026-05-03T06:40:00.174Z</time></trkpt><trkpt lat="43.1317582" lon="12.2342914"><ele>230.0</ele><time>2026-05-03T06:40:01.175Z</time></trkpt><trkpt lat="43.1316506" lon="12.2343267"><ele>230.0</ele><time>2026-05-03T06:40:02.175Z</time></trkpt><trkpt lat="43.1315517" lon="12.2344103"><ele>230.0</ele><time>2026-05-03T06:40:03.177Z</time></trkpt><trkpt lat="43.1314644" lon="12.2345167"><ele>230.25</ele><time>2026-05-03T06:40:04.168Z</time></trkpt><trkpt lat="43.1313708" lon="12.2346353"><ele>230.5</ele><time>2026-05-03T06:40:05.173Z</time></trkpt><trkpt lat="43.1312707" lon="12.2347549"><ele>230.75</ele><time>2026-05-03T06:40:06.178Z</time></trkpt><trkpt lat="43.1311636" lon="12.2348774"><ele>231.0</ele><time>2026-05-03T06:40:07.172Z</time></trkpt><trkpt lat="43.1310397" lon="12.2349924"><ele>231.0</ele><time>2026-05-03T06:40:08.174Z</time></trkpt><trkpt lat="43.1309053" lon="12.2351144"><ele>231.0</ele><time>2026-05-03T06:40:09.168Z</time></trkpt><trkpt lat="43.1307601" lon="12.2352575"><ele>231.0</ele><time>2026-05-03T06:40:10.168Z</time></trkpt><trkpt lat="43.130597" lon="12.235421"><ele>231.0</ele><time>2026-05-03T06:40:11.172Z</time></trkpt><trkpt lat="43.1304227" lon="12.2356046"><ele>231.0</ele><time>2026-05-03T06:40:12.173Z</time></trkpt><trkpt lat="43.1302471" lon="12.2357769"><ele>231.0</ele><time>2026-05-03T06:40:13.171Z</time></trkpt><trkpt lat="43.130089" lon="12.2359237"><ele>231.0</ele><time>2026-05-03T06:40:14.17Z</time></trkpt><trkpt lat="43.1299485" lon="12.2360543"><ele>231.0</ele><time>2026-05-03T06:40:15.175Z</time></trkpt><trkpt lat="43.1298146" lon="12.2361786"><ele>231.0</ele><time>2026-05-03T06:40:16.175Z</time></trkpt><trkpt lat="43.1296788" lon="12.2363012"><ele>231.0</ele><time>2026-05-03T06:40:17.177Z</time></trkpt><trkpt lat="43.129543" lon="12.23643"><ele>231.0</ele><time>2026-05-03T06:40:18.175Z</time></trkpt><trkpt lat="43.1293999" lon="12.2365614"><ele>231.0</ele><time>2026-05-03T06:40:19.176Z</time></trkpt><trkpt lat="43.1292563" lon="12.236701"><ele>230.66666666666669</ele><time>2026-05-03T06:40:20.175Z</time></trkpt><trkpt lat="43.1291236" lon="12.2368336"><ele>230.33333333333334</ele><time>2026-05-03T06:40:21.18Z</time></trkpt><trkpt lat="43.1289987" lon="12.2369581"><ele>230.0</ele><time>2026-05-03T06:40:22.181Z</time></trkpt><trkpt lat="43.1288716" lon="12.2370896"><ele>230.0</ele><time>2026-05-03T06:40:23.196Z</time></trkpt><trkpt lat="43.1287404" lon="12.2372168"><ele>230.0</ele><time>2026-05-03T06:40:24.181Z</time></trkpt><trkpt lat="43.1286112" lon="12.237348"><ele>230.0</ele><time>2026-05-03T06:40:25.183Z</time></trkpt><trkpt lat="43.1284783" lon="12.2374747"><ele>230.0</ele><time>2026-05-03T06:40:26.181Z</time></trkpt><trkpt lat="43.1283547" lon="12.2375906"><ele>230.0</ele><time>2026-05-03T06:40:27.182Z</time></trkpt><trkpt lat="43.1282489" lon="12.2376891"><ele>230.0</ele><time>2026-05-03T06:40:28.181Z</time></trkpt><trkpt lat="43.1281553" lon="12.2377846"><ele>230.0</ele><time>2026-05-03T06:40:29.182Z</time></trkpt><trkpt lat="43.1280687" lon="12.2378667"><ele>230.00000000000003</ele><time>2026-05-03T06:40:30.186Z</time></trkpt><trkpt lat="43.1279902" lon="12.2379365"><ele>230.0</ele><time>2026-05-03T06:40:31.186Z</time></trkpt><trkpt lat="43.1279264" lon="12.2379843"><ele>230.0</ele><time>2026-05-03T06:40:32.184Z</time></trkpt><trkpt lat="43.1278056" lon="12.2379748"><ele>230.0</ele><time>2026-05-03T06:40:34.185Z</time></trkpt><trkpt lat="43.12775" lon="12.2379135"><ele>230.00000000000003</ele><time>2026-05-03T06:40:35.179Z</time></trkpt><trkpt lat="43.1277091" lon="12.237834"><ele>230.0</ele><time>2026-05-03T06:40:36.191Z</time></trkpt><trkpt lat="43.1276757" lon="12.2377424"><ele>230.0</ele><time>2026-05-03T06:40:37.18Z</time></trkpt><trkpt lat="43.1276373" lon="12.2376311"><ele>230.0</ele><time>2026-05-03T06:40:38.188Z</time></trkpt><trkpt lat="43.1275906" lon="12.2374968"><ele>230.0</ele><time>2026-05-03T06:40:39.18Z</time></trkpt><trkpt lat="43.1275429" lon="12.2373504"><ele>230.0</ele><time>2026-05-03T06:40:40.18Z</time></trkpt><trkpt lat="43.1274878" lon="12.2372041"><ele>230.0</ele><time>2026-05-03T06:40:41.18Z</time></trkpt><trkpt lat="43.1274303" lon="12.2370718"><ele>230.0</ele><time>2026-05-03T06:40:42.183Z</time></trkpt><trkpt lat="43.1273801" lon="12.236965"><ele>230.0</ele><time>2026-05-03T06:40:43.177Z</time></trkpt><trkpt lat="43.1273297" lon="12.236872"><ele>230.0</ele><time>2026-05-03T06:40:44.185Z</time></trkpt><trkpt lat="43.1272844" lon="12.236796"><ele>230.0</ele><time>2026-05-03T06:40:45.183Z</time></trkpt><trkpt lat="43.1272056" lon="12.2366797"><ele>230.0</ele><time>2026-05-03T06:40:47.186Z</time></trkpt><trkpt lat="43.1271172" lon="12.2365527"><ele>230.00000000000003</ele><time>2026-05-03T06:40:49.183Z</time></trkpt><trkpt lat="43.1270732" lon="12.2364781"><ele>230.0</ele><time>2026-05-03T06:40:50.187Z</time></trkpt><trkpt lat="43.127032" lon="12.2363959"><ele>230.0</ele><time>2026-05-03T06:40:51.185Z</time></trkpt><trkpt lat="43.1269957" lon="12.2363013"><ele>230.0</ele><time>2026-05-03T06:40:52.185Z</time></trkpt><trkpt lat="43.1269586" lon="12.2361885"><ele>230.00000000000003</ele><time>2026-05-03T06:40:53.186Z</time></trkpt><trkpt lat="43.1269177" lon="12.2360609"><ele>230.0</ele><time>2026-05-03T06:40:54.191Z</time></trkpt><trkpt lat="43.1268691" lon="12.2359272"><ele>230.5</ele><time>2026-05-03T06:40:55.189Z</time></trkpt><trkpt lat="43.1268136" lon="12.2357755"><ele>231.0</ele><time>2026-05-03T06:40:56.185Z</time></trkpt><trkpt lat="43.1267571" lon="12.2356263"><ele>231.5</ele><time>2026-05-03T06:40:57.183Z</time></trkpt><trkpt lat="43.1267049" lon="12.2354931"><ele>232.0</ele><time>2026-05-03T06:40:58.183Z</time></trkpt><trkpt lat="43.1266568" lon="12.2353817"><ele>232.0</ele><time>2026-05-03T06:40:59.181Z</time></trkpt><trkpt lat="43.1266112" lon="12.2352737"><ele>232.0</ele><time>2026-05-03T06:41:00.186Z</time></trkpt><trkpt lat="43.1265648" lon="12.2351637"><ele>232.0</ele><time>2026-05-03T06:41:01.183Z</time></trkpt><trkpt lat="43.1265188" lon="12.2350501"><ele>232.0</ele><time>2026-05-03T06:41:02.185Z</time></trkpt><trkpt lat="43.126477" lon="12.2349419"><ele>232.0</ele><time>2026-05-03T06:41:03.186Z</time></trkpt><trkpt lat="43.1264362" lon="12.2348422"><ele>232.49999999999997</ele><time>2026-05-03T06:41:04.184Z</time></trkpt><trkpt lat="43.1263994" lon="12.2347518"><ele>233.0</ele><time>2026-05-03T06:41:05.185Z</time></trkpt><trkpt lat="43.126366" lon="12.234675"><ele>233.5</ele><time>2026-05-03T06:41:06.185Z</time></trkpt><trkpt lat="43.1263054" lon="12.2345407"><ele>234.0</ele><time>2026-05-03T06:41:08.181Z</time></trkpt><trkpt lat="43.1262409" lon="12.2344436"><ele>234.49999999999997</ele><time>2026-05-03T06:41:10.183Z</time></trkpt><trkpt lat="43.1261718" lon="12.2343677"><ele>235.0</ele><time>2026-05-03T06:41:12.184Z</time></trkpt><trkpt lat="43.1260868" lon="12.2343389"><ele>235.0</ele><time>2026-05-03T06:41:14.181Z</time></trkpt><trkpt lat="43.1259831" lon="12.2344119"><ele>235.0</ele><time>2026-05-03T06:41:16.176Z</time></trkpt><trkpt lat="43.1258715" lon="12.2344277"><ele>235.0</ele><time>2026-05-03T06:41:18.177Z</time></trkpt><trkpt lat="43.1257918" lon="12.234325"><ele>235.0</ele><time>2026-05-03T06:41:20.173Z</time></trkpt><trkpt lat="43.1257455" lon="12.2342094"><ele>235.0</ele><time>2026-05-03T06:41:22.191Z</time></trkpt><trkpt lat="43.1257269" lon="12.2341104"><ele>234.66666666666666</ele><time>2026-05-03T06:41:24.186Z</time></trkpt><trkpt lat="43.1256967" lon="12.2340283"><ele>234.33333333333331</ele><time>2026-05-03T06:41:26.186Z</time></trkpt><trkpt lat="43.1256194" lon="12.2339793"><ele>234.0</ele><time>2026-05-03T06:41:28.18Z</time></trkpt><trkpt lat="43.1255582" lon="12.2339515"><ele>233.66666666666669</ele><time>2026-05-03T06:41:29.176Z</time></trkpt><trkpt lat="43.1254991" lon="12.2339181"><ele>233.33333333333334</ele><time>2026-05-03T06:41:30.175Z</time></trkpt><trkpt lat="43.1254081" lon="12.2338041"><ele>233.0</ele><time>2026-05-03T06:41:32.173Z</time></trkpt><trkpt lat="43.1253934" lon="12.2337154"><ele>234.16666666666669</ele><time>2026-05-03T06:41:33.167Z</time></trkpt><trkpt lat="43.1253881" lon="12.2336198"><ele>235.33333333333334</ele><time>2026-05-03T06:41:34.171Z</time></trkpt><trkpt lat="43.1253887" lon="12.2335225"><ele>236.5</ele><time>2026-05-03T06:41:35.172Z</time></trkpt><trkpt lat="43.1253954" lon="12.2334291"><ele>237.66666666666669</ele><time>2026-05-03T06:41:36.168Z</time></trkpt><trkpt lat="43.1254077" lon="12.2333387"><ele>238.83333333333334</ele><time>2026-05-03T06:41:37.171Z</time></trkpt><trkpt lat="43.1254204" lon="12.2332513"><ele>240.0</ele><time>2026-05-03T06:41:38.17Z</time></trkpt><trkpt lat="43.1254114" lon="12.2330749"><ele>241.5</ele><time>2026-05-03T06:41:40.168Z</time></trkpt><trkpt lat="43.125383" lon="12.2329686"><ele>243.0</ele><time>2026-05-03T06:41:41.169Z</time></trkpt><trkpt lat="43.1253556" lon="12.2328599"><ele>244.5</ele><time>2026-05-03T06:41:42.167Z</time></trkpt><trkpt lat="43.1253219" lon="12.232745"><ele>246.0</ele><time>2026-05-03T06:41:43.169Z</time></trkpt><trkpt lat="43.1252878" lon="12.2326285"><ele>247.5</ele><time>2026-05-03T06:41:44.17Z</time></trkpt><trkpt lat="43.1252543" lon="12.2325096"><ele>249.0</ele><time>2026-05-03T06:41:45.167Z</time></trkpt><trkpt lat="43.1252286" lon="12.2323934"><ele>251.16666666666666</ele><time>2026-05-03T06:41:46.166Z</time></trkpt><trkpt lat="43.125209" lon="12.2322829"><ele>253.33333333333331</ele><time>2026-05-03T06:41:47.169Z</time></trkpt><trkpt lat="43.1251949" lon="12.2321843"><ele>255.5</ele><time>2026-05-03T06:41:48.169Z</time></trkpt><trkpt lat="43.1251746" lon="12.232084"><ele>257.66666666666663</ele><time>2026-05-03T06:41:49.169Z</time></trkpt><trkpt lat="43.1251455" lon="12.2319852"><ele>259.8333333333333</ele><time>2026-05-03T06:41:50.171Z</time></trkpt><trkpt lat="43.1251097" lon="12.2318894"><ele>262.0</ele><time>2026-05-03T06:41:51.173Z</time></trkpt><trkpt lat="43.1250675" lon="12.2317926"><ele>262.0</ele><time>2026-05-03T06:41:52.178Z</time></trkpt><trkpt lat="43.1250231" lon="12.2316986"><ele>262.0</ele><time>2026-05-03T06:41:53.176Z</time></trkpt><trkpt lat="43.1249735" lon="12.2315975"><ele>262.0</ele><time>2026-05-03T06:41:54.175Z</time></trkpt><trkpt lat="43.124917" lon="12.2314876"><ele>262.0</ele><time>2026-05-03T06:41:55.175Z</time></trkpt><trkpt lat="43.1248583" lon="12.2313703"><ele>262.0</ele><time>2026-05-03T06:41:56.189Z</time></trkpt><trkpt lat="43.1247956" lon="12.2312582"><ele>264.0</ele><time>2026-05-03T06:41:57.173Z</time></trkpt><trkpt lat="43.1247242" lon="12.2311608"><ele>266.0</ele><time>2026-05-03T06:41:58.17Z</time></trkpt><trkpt lat="43.1246476" lon="12.231077"><ele>268.0</ele><time>2026-05-03T06:41:59.168Z</time></trkpt><trkpt lat="43.1245696" lon="12.2310094"><ele>270.0</ele><time>2026-05-03T06:42:00.169Z</time></trkpt><trkpt lat="43.1244911" lon="12.2309581"><ele>272.0</ele><time>2026-05-03T06:42:01.164Z</time></trkpt><trkpt lat="43.1244069" lon="12.2309106"><ele>272.0</ele><time>2026-05-03T06:42:02.168Z</time></trkpt><trkpt lat="43.1243225" lon="12.2308604"><ele>272.0</ele><time>2026-05-03T06:42:03.17Z</time></trkpt><trkpt lat="43.1242468" lon="12.2307984"><ele>272.0</ele><time>2026-05-03T06:42:04.166Z</time></trkpt><trkpt lat="43.1241761" lon="12.2307225"><ele>272.0</ele><time>2026-05-03T06:42:05.167Z</time></trkpt><trkpt lat="43.1241099" lon="12.2306359"><ele>272.0</ele><time>2026-05-03T06:42:06.167Z</time></trkpt><trkpt lat="43.1240464" lon="12.2305455"><ele>273.1666666666667</ele><time>2026-05-03T06:42:07.167Z</time></trkpt><trkpt lat="43.1239867" lon="12.2304517"><ele>274.33333333333337</ele><time>2026-05-03T06:42:08.169Z</time></trkpt><trkpt lat="43.123934" lon="12.2303564"><ele>275.5</ele><time>2026-05-03T06:42:09.168Z</time></trkpt><trkpt lat="43.1238828" lon="12.2302664"><ele>276.6666666666667</ele><time>2026-05-03T06:42:10.162Z</time></trkpt><trkpt lat="43.1238298" lon="12.2301799"><ele>277.8333333333333</ele><time>2026-05-03T06:42:11.17Z</time></trkpt><trkpt lat="43.1237762" lon="12.2300992"><ele>279.0</ele><time>2026-05-03T06:42:12.168Z</time></trkpt><trkpt lat="43.1237249" lon="12.2300114"><ele>279.0</ele><time>2026-05-03T06:42:13.169Z</time></trkpt><trkpt lat="43.1236796" lon="12.2299192"><ele>279.0</ele><time>2026-05-03T06:42:14.17Z</time></trkpt><trkpt lat="43.1236431" lon="12.2298241"><ele>279.0</ele><time>2026-05-03T06:42:15.17Z</time></trkpt><trkpt lat="43.1236188" lon="12.2297221"><ele>279.0</ele><time>2026-05-03T06:42:16.17Z</time></trkpt><trkpt lat="43.1236062" lon="12.2296171"><ele>279.0</ele><time>2026-05-03T06:42:17.171Z</time></trkpt><trkpt lat="43.1236008" lon="12.2295147"><ele>279.0</ele><time>2026-05-03T06:42:18.171Z</time></trkpt><trkpt lat="43.1235858" lon="12.2294177"><ele>282.6666666666667</ele><time>2026-05-03T06:42:19.169Z</time></trkpt><trkpt lat="43.1235622" lon="12.2293226"><ele>286.3333333333333</ele><time>2026-05-03T06:42:20.166Z</time></trkpt><trkpt lat="43.1235312" lon="12.2292309"><ele>290.0</ele><time>2026-05-03T06:42:21.167Z</time></trkpt><trkpt lat="43.1235083" lon="12.2291442"><ele>293.66666666666663</ele><time>2026-05-03T06:42:22.17Z</time></trkpt><trkpt lat="43.1234962" lon="12.2290561"><ele>297.3333333333333</ele><time>2026-05-03T06:42:23.17Z</time></trkpt><trkpt lat="43.123478" lon="12.2289108"><ele>301.0</ele><time>2026-05-03T06:42:25.163Z</time></trkpt><trkpt lat="43.1234317" lon="12.2288426"><ele>303.6</ele><time>2026-05-03T06:42:28.174Z</time></trkpt><trkpt lat="43.123368" lon="12.2288072"><ele>306.20000000000005</ele><time>2026-05-03T06:42:30.175Z</time></trkpt><trkpt lat="43.1232834" lon="12.2287169"><ele>308.79999999999995</ele><time>2026-05-03T06:42:32.164Z</time></trkpt><trkpt lat="43.1232025" lon="12.2286006"><ele>311.4</ele><time>2026-05-03T06:42:34.163Z</time></trkpt><trkpt lat="43.1231415" lon="12.2284704"><ele>314.0</ele><time>2026-05-03T06:42:36.157Z</time></trkpt><trkpt lat="43.123122" lon="12.2283299"><ele>314.0</ele><time>2026-05-03T06:42:38.165Z</time></trkpt><trkpt lat="43.1230915" lon="12.2282121"><ele>314.0</ele><time>2026-05-03T06:42:40.16Z</time></trkpt><trkpt lat="43.1229962" lon="12.2281587"><ele>314.0</ele><time>2026-05-03T06:42:42.162Z</time></trkpt><trkpt lat="43.1229161" lon="12.2281454"><ele>314.0</ele><time>2026-05-03T06:42:43.164Z</time></trkpt><trkpt lat="43.1228286" lon="12.2281318"><ele>314.0</ele><time>2026-05-03T06:42:44.164Z</time></trkpt><trkpt lat="43.1227327" lon="12.2281108"><ele>314.0</ele><time>2026-05-03T06:42:45.173Z</time></trkpt><trkpt lat="43.1226385" lon="12.2280736"><ele>314.0</ele><time>2026-05-03T06:42:46.176Z</time></trkpt><trkpt lat="43.1225621" lon="12.2280221"><ele>314.0</ele><time>2026-05-03T06:42:47.18Z</time></trkpt><trkpt lat="43.1225054" lon="12.2279571"><ele>314.0</ele><time>2026-05-03T06:42:48.177Z</time></trkpt><trkpt lat="43.1224668" lon="12.2278798"><ele>314.0</ele><time>2026-05-03T06:42:49.176Z</time></trkpt><trkpt lat="43.1224346" lon="12.2277631"><ele>314.0</ele><time>2026-05-03T06:42:51.18Z</time></trkpt><trkpt lat="43.1224246" lon="12.2276623"><ele>314.1666666666667</ele><time>2026-05-03T06:43:06.204Z</time></trkpt><trkpt lat="43.1223891" lon="12.2275455"><ele>314.33333333333337</ele><time>2026-05-03T06:43:07.196Z</time></trkpt><trkpt lat="43.1223496" lon="12.2274291"><ele>314.5</ele><time>2026-05-03T06:43:08.183Z</time></trkpt><trkpt lat="43.1223087" lon="12.2273315"><ele>314.6666666666667</ele><time>2026-05-03T06:43:09.184Z</time></trkpt><trkpt lat="43.1222673" lon="12.22725"><ele>314.8333333333333</ele><time>2026-05-03T06:43:10.191Z</time></trkpt><trkpt lat="43.1222299" lon="12.2271759"><ele>315.0</ele><time>2026-05-03T06:43:11.181Z</time></trkpt><trkpt lat="43.1221898" lon="12.2271033"><ele>315.0</ele><time>2026-05-03T06:43:12.181Z</time></trkpt><trkpt lat="43.1221463" lon="12.2270328"><ele>315.0</ele><time>2026-05-03T06:43:13.186Z</time></trkpt><trkpt lat="43.1221017" lon="12.226966"><ele>315.0</ele><time>2026-05-03T06:43:14.184Z</time></trkpt><trkpt lat="43.1220512" lon="12.2268971"><ele>315.0</ele><time>2026-05-03T06:43:15.187Z</time></trkpt><trkpt lat="43.1219867" lon="12.2268247"><ele>315.0</ele><time>2026-05-03T06:43:16.183Z</time></trkpt><trkpt lat="43.1219204" lon="12.2267535"><ele>315.0</ele><time>2026-05-03T06:43:17.19Z</time></trkpt><trkpt lat="43.1218561" lon="12.2266918"><ele>315.0</ele><time>2026-05-03T06:43:18.181Z</time></trkpt><trkpt lat="43.1217978" lon="12.226645"><ele>315.0</ele><time>2026-05-03T06:43:19.181Z</time></trkpt><trkpt lat="43.1216759" lon="12.2265861"><ele>315.0</ele><time>2026-05-03T06:43:21.183Z</time></trkpt><trkpt lat="43.1216137" lon="12.2265555"><ele>315.0</ele><time>2026-05-03T06:43:22.181Z</time></trkpt><trkpt lat="43.1215503" lon="12.2265272"><ele>315.0</ele><time>2026-05-03T06:43:23.185Z</time></trkpt><trkpt lat="43.1214902" lon="12.2264928"><ele>315.0</ele><time>2026-05-03T06:43:24.182Z</time></trkpt><trkpt lat="43.1214281" lon="12.2264541"><ele>314.6666666666667</ele><time>2026-05-03T06:43:25.182Z</time></trkpt><trkpt lat="43.1213633" lon="12.2264072"><ele>314.3333333333333</ele><time>2026-05-03T06:43:26.18Z</time></trkpt><trkpt lat="43.1212992" lon="12.2263627"><ele>314.0</ele><time>2026-05-03T06:43:27.176Z</time></trkpt><trkpt lat="43.1212418" lon="12.2263173"><ele>313.66666666666663</ele><time>2026-05-03T06:43:28.178Z</time></trkpt><trkpt lat="43.1211836" lon="12.226274"><ele>313.3333333333333</ele><time>2026-05-03T06:43:29.201Z</time></trkpt><trkpt lat="43.121103" lon="12.2261869"><ele>313.0</ele><time>2026-05-03T06:43:31.171Z</time></trkpt><trkpt lat="43.1210602" lon="12.2260394"><ele>313.0</ele><time>2026-05-03T06:43:33.17Z</time></trkpt><trkpt lat="43.1209817" lon="12.2259221"><ele>313.0</ele><time>2026-05-03T06:43:35.17Z</time></trkpt><trkpt lat="43.1208832" lon="12.2258626"><ele>313.0</ele><time>2026-05-03T06:43:37.168Z</time></trkpt><trkpt lat="43.1207863" lon="12.2258361"><ele>313.0</ele><time>2026-05-03T06:43:39.164Z</time></trkpt><trkpt lat="43.1207131" lon="12.2257606"><ele>313.0</ele><time>2026-05-03T06:43:41.167Z</time></trkpt><trkpt lat="43.1206786" lon="12.2256162"><ele>311.0</ele><time>2026-05-03T06:43:43.168Z</time></trkpt><trkpt lat="43.120671" lon="12.2254455"><ele>309.0</ele><time>2026-05-03T06:43:45.173Z</time></trkpt><trkpt lat="43.1206757" lon="12.2253591"><ele>307.0</ele><time>2026-05-03T06:43:46.161Z</time></trkpt><trkpt lat="43.12069" lon="12.2252733"><ele>305.0</ele><time>2026-05-03T06:43:47.163Z</time></trkpt><trkpt lat="43.1207299" lon="12.2251194"><ele>303.0</ele><time>2026-05-03T06:43:49.162Z</time></trkpt><trkpt lat="43.120779" lon="12.224987"><ele>303.0</ele><time>2026-05-03T06:43:51.161Z</time></trkpt><trkpt lat="43.1208194" lon="12.224861"><ele>303.0</ele><time>2026-05-03T06:43:53.177Z</time></trkpt><trkpt lat="43.1208524" lon="12.2247246"><ele>303.0</ele><time>2026-05-03T06:43:55.171Z</time></trkpt><trkpt lat="43.1208814" lon="12.224629"><ele>303.0</ele><time>2026-05-03T06:43:56.169Z</time></trkpt><trkpt lat="43.1209256" lon="12.2245252"><ele>303.0</ele><time>2026-05-03T06:43:57.161Z</time></trkpt><trkpt lat="43.1209731" lon="12.2244251"><ele>303.4</ele><time>2026-05-03T06:43:58.173Z</time></trkpt><trkpt lat="43.1210357" lon="12.2243324"><ele>303.8</ele><time>2026-05-03T06:43:59.191Z</time></trkpt><trkpt lat="43.1210969" lon="12.2242406"><ele>304.2</ele><time>2026-05-03T06:44:00.177Z</time></trkpt><trkpt lat="43.1211594" lon="12.2241373"><ele>304.6</ele><time>2026-05-03T06:44:01.177Z</time></trkpt><trkpt lat="43.1212143" lon="12.224023"><ele>305.0</ele><time>2026-05-03T06:44:02.18Z</time></trkpt><trkpt lat="43.1212585" lon="12.2238963"><ele>304.1666666666667</ele><time>2026-05-03T06:44:03.176Z</time></trkpt><trkpt lat="43.1212889" lon="12.2237698"><ele>303.33333333333337</ele><time>2026-05-03T06:44:04.185Z</time></trkpt><trkpt lat="43.1213049" lon="12.2236558"><ele>302.5</ele><time>2026-05-03T06:44:05.183Z</time></trkpt><trkpt lat="43.121313" lon="12.2235462"><ele>301.6666666666667</ele><time>2026-05-03T06:44:06.182Z</time></trkpt><trkpt lat="43.121316" lon="12.2234314"><ele>300.8333333333333</ele><time>2026-05-03T06:44:07.188Z</time></trkpt><trkpt lat="43.1213177" lon="12.2233108"><ele>300.0</ele><time>2026-05-03T06:44:08.187Z</time></trkpt><trkpt lat="43.1213175" lon="12.2231922"><ele>298.1428571428571</ele><time>2026-05-03T06:44:09.186Z</time></trkpt><trkpt lat="43.1213189" lon="12.2230796"><ele>296.2857142857143</ele><time>2026-05-03T06:44:10.186Z</time></trkpt><trkpt lat="43.1213144" lon="12.2229767"><ele>294.42857142857144</ele><time>2026-05-03T06:44:11.189Z</time></trkpt><trkpt lat="43.1212968" lon="12.2228835"><ele>292.57142857142856</ele><time>2026-05-03T06:44:12.186Z</time></trkpt><trkpt lat="43.1212629" lon="12.2228007"><ele>290.7142857142857</ele><time>2026-05-03T06:44:13.186Z</time></trkpt><trkpt lat="43.1212161" lon="12.2227361"><ele>288.85714285714283</ele><time>2026-05-03T06:44:14.186Z</time></trkpt><trkpt lat="43.1211649" lon="12.2226839"><ele>287.0</ele><time>2026-05-03T06:44:15.187Z</time></trkpt><trkpt lat="43.1211037" lon="12.2226451"><ele>287.0</ele><time>2026-05-03T06:44:16.185Z</time></trkpt><trkpt lat="43.1210428" lon="12.222604"><ele>287.0</ele><time>2026-05-03T06:44:17.183Z</time></trkpt><trkpt lat="43.1209817" lon="12.2224819"><ele>287.0</ele><time>2026-05-03T06:44:19.181Z</time></trkpt><trkpt lat="43.1210241" lon="12.2223257"><ele>287.0</ele><time>2026-05-03T06:44:21.181Z</time></trkpt><trkpt lat="43.1210609" lon="12.2222531"><ele>287.0</ele><time>2026-05-03T06:44:22.182Z</time></trkpt><trkpt lat="43.1211442" lon="12.2221263"><ele>284.2</ele><time>2026-05-03T06:44:24.177Z</time></trkpt><trkpt lat="43.1212282" lon="12.2220201"><ele>281.4</ele><time>2026-05-03T06:44:26.182Z</time></trkpt><trkpt lat="43.1212982" lon="12.2219503"><ele>278.6</ele><time>2026-05-03T06:44:28.195Z</time></trkpt><trkpt lat="43.121358" lon="12.2218532"><ele>275.8</ele><time>2026-05-03T06:44:30.197Z</time></trkpt><trkpt lat="43.1214041" lon="12.2217097"><ele>273.0</ele><time>2026-05-03T06:44:32.182Z</time></trkpt><trkpt lat="43.1214465" lon="12.2215742"><ele>270.8</ele><time>2026-05-03T06:44:34.184Z</time></trkpt><trkpt lat="43.1214667" lon="12.2214596"><ele>268.6</ele><time>2026-05-03T06:44:36.184Z</time></trkpt><trkpt lat="43.1214562" lon="12.2212949"><ele>266.4</ele><time>2026-05-03T06:44:39.197Z</time></trkpt><trkpt lat="43.1213919" lon="12.2211994"><ele>264.2</ele><time>2026-05-03T06:44:41.196Z</time></trkpt><trkpt lat="43.1213046" lon="12.2211231"><ele>262.0</ele><time>2026-05-03T06:44:43.185Z</time></trkpt><trkpt lat="43.1212266" lon="12.221096"><ele>262.0</ele><time>2026-05-03T06:44:44.182Z</time></trkpt><trkpt lat="43.1211333" lon="12.2210676"><ele>262.0</ele><time>2026-05-03T06:44:45.18Z</time></trkpt><trkpt lat="43.1210298" lon="12.2210386"><ele>262.0</ele><time>2026-05-03T06:44:46.173Z</time></trkpt><trkpt lat="43.1209251" lon="12.2210197"><ele>262.0</ele><time>2026-05-03T06:44:47.182Z</time></trkpt><trkpt lat="43.1208309" lon="12.2210018"><ele>262.0</ele><time>2026-05-03T06:44:48.18Z</time></trkpt><trkpt lat="43.1207439" lon="12.2209717"><ele>264.4</ele><time>2026-05-03T06:44:49.174Z</time></trkpt><trkpt lat="43.1206685" lon="12.2209229"><ele>266.79999999999995</ele><time>2026-05-03T06:44:50.18Z</time></trkpt><trkpt lat="43.1206106" lon="12.2208547"><ele>269.2</ele><time>2026-05-03T06:44:51.18Z</time></trkpt><trkpt lat="43.1205654" lon="12.2207839"><ele>271.59999999999997</ele><time>2026-05-03T06:44:52.181Z</time></trkpt><trkpt lat="43.1205104" lon="12.2206391"><ele>274.0</ele><time>2026-05-03T06:44:54.182Z</time></trkpt><trkpt lat="43.1204996" lon="12.2204568"><ele>274.0</ele><time>2026-05-03T06:44:56.182Z</time></trkpt><trkpt lat="43.1204774" lon="12.2203308"><ele>274.0</ele><time>2026-05-03T06:44:57.178Z</time></trkpt><trkpt lat="43.1204487" lon="12.2202083"><ele>274.0</ele><time>2026-05-03T06:44:58.175Z</time></trkpt><trkpt lat="43.1204089" lon="12.2201075"><ele>274.0</ele><time>2026-05-03T06:44:59.176Z</time></trkpt><trkpt lat="43.1203576" lon="12.2200193"><ele>274.0</ele><time>2026-05-03T06:45:00.181Z</time></trkpt><trkpt lat="43.1202983" lon="12.2199311"><ele>274.0</ele><time>2026-05-03T06:45:01.174Z</time></trkpt><trkpt lat="43.1202327" lon="12.2198526"><ele>272.8333333333333</ele><time>2026-05-03T06:45:02.157Z</time></trkpt><trkpt lat="43.1201717" lon="12.2197904"><ele>271.66666666666663</ele><time>2026-05-03T06:45:03.161Z</time></trkpt><trkpt lat="43.1201066" lon="12.2197512"><ele>270.5</ele><time>2026-05-03T06:45:04.16Z</time></trkpt><trkpt lat="43.12003" lon="12.2197253"><ele>269.3333333333333</ele><time>2026-05-03T06:45:05.156Z</time></trkpt><trkpt lat="43.1199491" lon="12.219702"><ele>268.1666666666667</ele><time>2026-05-03T06:45:06.154Z</time></trkpt><trkpt lat="43.1198765" lon="12.2196578"><ele>267.0</ele><time>2026-05-03T06:45:07.16Z</time></trkpt><trkpt lat="43.1198126" lon="12.2195917"><ele>270.4</ele><time>2026-05-03T06:45:08.156Z</time></trkpt><trkpt lat="43.1197466" lon="12.2194935"><ele>273.79999999999995</ele><time>2026-05-03T06:45:09.16Z</time></trkpt><trkpt lat="43.1196787" lon="12.2193537"><ele>277.2</ele><time>2026-05-03T06:45:10.161Z</time></trkpt><trkpt lat="43.1196168" lon="12.2192275"><ele>280.59999999999997</ele><time>2026-05-03T06:45:11.16Z</time></trkpt><trkpt lat="43.1195551" lon="12.2191205"><ele>284.0</ele><time>2026-05-03T06:45:12.158Z</time></trkpt><trkpt lat="43.1194936" lon="12.2190309"><ele>282.5</ele><time>2026-05-03T06:45:13.158Z</time></trkpt><trkpt lat="43.1194263" lon="12.2189652"><ele>281.0</ele><time>2026-05-03T06:45:14.158Z</time></trkpt><trkpt lat="43.119349" lon="12.2189181"><ele>279.5</ele><time>2026-05-03T06:45:15.157Z</time></trkpt><trkpt lat="43.1192648" lon="12.2188851"><ele>278.0</ele><time>2026-05-03T06:45:16.155Z</time></trkpt><trkpt lat="43.1191735" lon="12.2188674"><ele>276.5</ele><time>2026-05-03T06:45:17.156Z</time></trkpt><trkpt lat="43.119072" lon="12.2188601"><ele>275.0</ele><time>2026-05-03T06:45:18.155Z</time></trkpt><trkpt lat="43.1189621" lon="12.218851"><ele>275.0</ele><time>2026-05-03T06:45:19.153Z</time></trkpt><trkpt lat="43.1188518" lon="12.2188322"><ele>275.0</ele><time>2026-05-03T06:45:20.153Z</time></trkpt><trkpt lat="43.1187457" lon="12.2188012"><ele>275.0</ele><time>2026-05-03T06:45:21.156Z</time></trkpt><trkpt lat="43.1186436" lon="12.2187547"><ele>275.0</ele><time>2026-05-03T06:45:22.151Z</time></trkpt><trkpt lat="43.1185491" lon="12.2187059"><ele>275.0</ele><time>2026-05-03T06:45:23.151Z</time></trkpt><trkpt lat="43.1184579" lon="12.2186609"><ele>275.0</ele><time>2026-05-03T06:45:24.151Z</time></trkpt><trkpt lat="43.1183592" lon="12.2186186"><ele>275.0</ele><time>2026-05-03T06:45:25.154Z</time></trkpt><trkpt lat="43.1182536" lon="12.2185861"><ele>275.0</ele><time>2026-05-03T06:45:26.147Z</time></trkpt><trkpt lat="43.1181475" lon="12.2185684"><ele>275.0</ele><time>2026-05-03T06:45:27.151Z</time></trkpt><trkpt lat="43.118053" lon="12.2185549"><ele>275.0</ele><time>2026-05-03T06:45:28.152Z</time></trkpt><trkpt lat="43.1179694" lon="12.2185436"><ele>276.1666666666667</ele><time>2026-05-03T06:45:29.147Z</time></trkpt><trkpt lat="43.1178979" lon="12.2184749"><ele>277.33333333333337</ele><time>2026-05-03T06:45:31.143Z</time></trkpt><trkpt lat="43.117916" lon="12.2183727"><ele>278.5</ele><time>2026-05-03T06:45:33.158Z</time></trkpt><trkpt lat="43.1179356" lon="12.2182532"><ele>279.6666666666667</ele><time>2026-05-03T06:45:35.16Z</time></trkpt><trkpt lat="43.1179526" lon="12.2181528"><ele>280.8333333333333</ele><time>2026-05-03T06:45:37.16Z</time></trkpt><trkpt lat="43.1179661" lon="12.2180147"><ele>282.0</ele><time>2026-05-03T06:45:39.166Z</time></trkpt><trkpt lat="43.1179582" lon="12.2179138"><ele>282.2</ele><time>2026-05-03T06:45:40.155Z</time></trkpt><trkpt lat="43.1179016" lon="12.2177539"><ele>282.4</ele><time>2026-05-03T06:45:42.16Z</time></trkpt><trkpt lat="43.1178517" lon="12.2176585"><ele>282.6</ele><time>2026-05-03T06:45:43.158Z</time></trkpt><trkpt lat="43.117811" lon="12.217569"><ele>282.8</ele><time>2026-05-03T06:45:44.159Z</time></trkpt><trkpt lat="43.1177855" lon="12.2174862"><ele>283.0</ele><time>2026-05-03T06:45:45.167Z</time></trkpt><trkpt lat="43.1177614" lon="12.2173312"><ele>282.16666666666663</ele><time>2026-05-03T06:45:47.162Z</time></trkpt><trkpt lat="43.1177169" lon="12.2171761"><ele>281.3333333333333</ele><time>2026-05-03T06:45:49.164Z</time></trkpt><trkpt lat="43.1176766" lon="12.2171034"><ele>280.5</ele><time>2026-05-03T06:45:50.161Z</time></trkpt><trkpt lat="43.1176269" lon="12.2170406"><ele>279.6666666666667</ele><time>2026-05-03T06:45:51.158Z</time></trkpt><trkpt lat="43.117567" lon="12.216984"><ele>278.83333333333337</ele><time>2026-05-03T06:45:52.163Z</time></trkpt><trkpt lat="43.1174976" lon="12.2169558"><ele>278.0</ele><time>2026-05-03T06:45:53.16Z</time></trkpt><trkpt lat="43.1174343" lon="12.2169406"><ele>281.0</ele><time>2026-05-03T06:45:54.158Z</time></trkpt><trkpt lat="43.1173546" lon="12.2168863"><ele>284.0</ele><time>2026-05-03T06:45:56.165Z</time></trkpt><trkpt lat="43.1173248" lon="12.2167806"><ele>287.0</ele><time>2026-05-03T06:45:58.181Z</time></trkpt><trkpt lat="43.1172902" lon="12.2166716"><ele>290.0</ele><time>2026-05-03T06:46:00.172Z</time></trkpt><trkpt lat="43.1172671" lon="12.2165434"><ele>293.0</ele><time>2026-05-03T06:46:02.178Z</time></trkpt><trkpt lat="43.1172855" lon="12.2163622"><ele>293.0</ele><time>2026-05-03T06:46:04.171Z</time></trkpt><trkpt lat="43.1173004" lon="12.2162462"><ele>293.0</ele><time>2026-05-03T06:46:05.162Z</time></trkpt><trkpt lat="43.1173187" lon="12.2161324"><ele>293.0</ele><time>2026-05-03T06:46:06.167Z</time></trkpt><trkpt lat="43.1173256" lon="12.216026"><ele>293.0</ele><time>2026-05-03T06:46:07.16Z</time></trkpt><trkpt lat="43.1173254" lon="12.215922"><ele>293.0</ele><time>2026-05-03T06:46:08.163Z</time></trkpt><trkpt lat="43.1173176" lon="12.2158242"><ele>293.0</ele><time>2026-05-03T06:46:09.163Z</time></trkpt><trkpt lat="43.1173078" lon="12.2157373"><ele>290.4</ele><time>2026-05-03T06:46:10.165Z</time></trkpt><trkpt lat="43.1172572" lon="12.2156041"><ele>287.8</ele><time>2026-05-03T06:46:12.164Z</time></trkpt><trkpt lat="43.1171657" lon="12.215531"><ele>285.2</ele><time>2026-05-03T06:46:14.165Z</time></trkpt><trkpt lat="43.1170659" lon="12.215481"><ele>282.6</ele><time>2026-05-03T06:46:16.165Z</time></trkpt><trkpt lat="43.1170053" lon="12.2154528"><ele>280.0</ele><time>2026-05-03T06:46:17.166Z</time></trkpt><trkpt lat="43.1169361" lon="12.2154397"><ele>280.0</ele><time>2026-05-03T06:46:18.162Z</time></trkpt><trkpt lat="43.1168615" lon="12.2154483"><ele>280.0</ele><time>2026-05-03T06:46:19.159Z</time></trkpt><trkpt lat="43.1167862" lon="12.2154822"><ele>280.0</ele><time>2026-05-03T06:46:20.154Z</time></trkpt><trkpt lat="43.116715" lon="12.2155159"><ele>280.0</ele><time>2026-05-03T06:46:21.159Z</time></trkpt><trkpt lat="43.1166448" lon="12.2155528"><ele>280.0</ele><time>2026-05-03T06:46:22.161Z</time></trkpt><trkpt lat="43.1165747" lon="12.2155935"><ele>280.0</ele><time>2026-05-03T06:46:23.166Z</time></trkpt><trkpt lat="43.1165029" lon="12.2156277"><ele>280.66666666666663</ele><time>2026-05-03T06:46:24.162Z</time></trkpt><trkpt lat="43.1164379" lon="12.215647"><ele>281.3333333333333</ele><time>2026-05-03T06:46:25.167Z</time></trkpt><trkpt lat="43.1163275" lon="12.2155857"><ele>282.0</ele><time>2026-05-03T06:46:27.161Z</time></trkpt><trkpt lat="43.1162684" lon="12.2155205"><ele>282.6666666666667</ele><time>2026-05-03T06:46:28.163Z</time></trkpt><trkpt lat="43.1162139" lon="12.2154525"><ele>283.33333333333337</ele><time>2026-05-03T06:46:29.158Z</time></trkpt><trkpt lat="43.1161681" lon="12.2153872"><ele>284.0</ele><time>2026-05-03T06:46:30.164Z</time></trkpt><trkpt lat="43.1161234" lon="12.2153262"><ele>284.0</ele><time>2026-05-03T06:46:31.167Z</time></trkpt><trkpt lat="43.1160361" lon="12.2152206"><ele>284.0</ele><time>2026-05-03T06:46:33.159Z</time></trkpt><trkpt lat="43.11598" lon="12.2151644"><ele>284.0</ele><time>2026-05-03T06:46:34.177Z</time></trkpt><trkpt lat="43.1159215" lon="12.2151075"><ele>284.0</ele><time>2026-05-03T06:46:35.164Z</time></trkpt><trkpt lat="43.1158611" lon="12.2150503"><ele>284.0</ele><time>2026-05-03T06:46:36.166Z</time></trkpt><trkpt lat="43.1158043" lon="12.2149951"><ele>284.0</ele><time>2026-05-03T06:46:37.16Z</time></trkpt><trkpt lat="43.1157515" lon="12.2149423"><ele>284.6666666666667</ele><time>2026-05-03T06:46:38.159Z</time></trkpt><trkpt lat="43.1156579" lon="12.2148317"><ele>285.33333333333337</ele><time>2026-05-03T06:46:40.161Z</time></trkpt><trkpt lat="43.1156026" lon="12.2147664"><ele>286.0</ele><time>2026-05-03T06:46:41.159Z</time></trkpt><trkpt lat="43.1155444" lon="12.2146894"><ele>286.6666666666667</ele><time>2026-05-03T06:46:42.16Z</time></trkpt><trkpt lat="43.1155002" lon="12.2146077"><ele>287.3333333333333</ele><time>2026-05-03T06:46:43.156Z</time></trkpt><trkpt lat="43.1154723" lon="12.2145206"><ele>288.0</ele><time>2026-05-03T06:46:44.161Z</time></trkpt><trkpt lat="43.1154686" lon="12.2144203"><ele>288.0</ele><time>2026-05-03T06:46:45.164Z</time></trkpt><trkpt lat="43.1154719" lon="12.2143334"><ele>288.0</ele><time>2026-05-03T06:46:46.162Z</time></trkpt><trkpt lat="43.1154666" lon="12.2142155"><ele>288.0</ele><time>2026-05-03T06:46:48.162Z</time></trkpt><trkpt lat="43.1153882" lon="12.2141806"><ele>288.0</ele><time>2026-05-03T06:46:51.175Z</time></trkpt><trkpt lat="43.1153268" lon="12.2142639"><ele>288.0</ele><time>2026-05-03T06:46:53.179Z</time></trkpt><trkpt lat="43.1152869" lon="12.2143596"><ele>288.0</ele><time>2026-05-03T06:46:55.18Z</time></trkpt><trkpt lat="43.1152545" lon="12.2144854"><ele>288.0</ele><time>2026-05-03T06:46:57.173Z</time></trkpt><trkpt lat="43.1152187" lon="12.2145947"><ele>288.0</ele><time>2026-05-03T06:46:59.173Z</time></trkpt><trkpt lat="43.1151572" lon="12.2146714"><ele>288.0</ele><time>2026-05-03T06:47:01.171Z</time></trkpt><trkpt lat="43.1150759" lon="12.2147299"><ele>288.0</ele><time>2026-05-03T06:47:03.174Z</time></trkpt><trkpt lat="43.1149835" lon="12.2147864"><ele>288.0</ele><time>2026-05-03T06:47:05.175Z</time></trkpt><trkpt lat="43.1149019" lon="12.2148456"><ele>291.8</ele><time>2026-05-03T06:47:07.174Z</time></trkpt><trkpt lat="43.1148328" lon="12.2149103"><ele>295.6</ele><time>2026-05-03T06:47:09.179Z</time></trkpt><trkpt lat="43.1147717" lon="12.2149937"><ele>299.4</ele><time>2026-05-03T06:47:11.178Z</time></trkpt><trkpt lat="43.1147191" lon="12.2150662"><ele>303.2</ele><time>2026-05-03T06:47:13.176Z</time></trkpt><trkpt lat="43.1146306" lon="12.2151379"><ele>307.0</ele><time>2026-05-03T06:47:15.176Z</time></trkpt><trkpt lat="43.1145461" lon="12.2152216"><ele>307.0</ele><time>2026-05-03T06:47:17.164Z</time></trkpt><trkpt lat="43.11445" lon="12.2153053"><ele>307.0</ele><time>2026-05-03T06:47:19.165Z</time></trkpt><trkpt lat="43.1143582" lon="12.2153423"><ele>307.0</ele><time>2026-05-03T06:47:21.162Z</time></trkpt><trkpt lat="43.1142726" lon="12.2153775"><ele>307.0</ele><time>2026-05-03T06:47:23.177Z</time></trkpt><trkpt lat="43.1141643" lon="12.2153954"><ele>307.0</ele><time>2026-05-03T06:47:25.161Z</time></trkpt><trkpt lat="43.1140558" lon="12.2153532"><ele>307.3333333333333</ele><time>2026-05-03T06:47:27.16Z</time></trkpt><trkpt lat="43.1139869" lon="12.2153572"><ele>307.66666666666663</ele><time>2026-05-03T06:47:29.165Z</time></trkpt><trkpt lat="43.1138871" lon="12.2153488"><ele>308.0</ele><time>2026-05-03T06:47:31.089Z</time></trkpt><trkpt lat="43.1138205" lon="12.2154389"><ele>308.3333333333333</ele><time>2026-05-03T06:47:32.161Z</time></trkpt><trkpt lat="43.1137699" lon="12.2154904"><ele>308.6666666666667</ele><time>2026-05-03T06:47:33.16Z</time></trkpt><trkpt lat="43.1136794" lon="12.2155738"><ele>309.0</ele><time>2026-05-03T06:47:35.163Z</time></trkpt><trkpt lat="43.1136018" lon="12.215652"><ele>311.0</ele><time>2026-05-03T06:47:37.167Z</time></trkpt><trkpt lat="43.1135144" lon="12.215752"><ele>313.0</ele><time>2026-05-03T06:47:39.167Z</time></trkpt><trkpt lat="43.1134573" lon="12.2158216"><ele>315.0</ele><time>2026-05-03T06:47:40.172Z</time></trkpt><trkpt lat="43.1134115" lon="12.2159073"><ele>317.0</ele><time>2026-05-03T06:47:41.168Z</time></trkpt><trkpt lat="43.1133736" lon="12.2159968"><ele>319.0</ele><time>2026-05-03T06:47:42.167Z</time></trkpt><trkpt lat="43.1133422" lon="12.216074"><ele>321.0</ele><time>2026-05-03T06:47:43.169Z</time></trkpt><trkpt lat="43.1132821" lon="12.2162002"><ele>322.20000000000005</ele><time>2026-05-03T06:47:45.171Z</time></trkpt><trkpt lat="43.1132127" lon="12.2163369"><ele>323.40000000000003</ele><time>2026-05-03T06:47:47.172Z</time></trkpt><trkpt lat="43.1131793" lon="12.2164135"><ele>324.6</ele><time>2026-05-03T06:47:48.167Z</time></trkpt><trkpt lat="43.1131054" lon="12.2165335"><ele>325.8</ele><time>2026-05-03T06:47:50.162Z</time></trkpt><trkpt lat="43.1130133" lon="12.2165677"><ele>327.0</ele><time>2026-05-03T06:47:52.178Z</time></trkpt><trkpt lat="43.1129" lon="12.2165586"><ele>330.5</ele><time>2026-05-03T06:47:54.175Z</time></trkpt><trkpt lat="43.1127787" lon="12.2165664"><ele>334.0</ele><time>2026-05-03T06:47:56.162Z</time></trkpt><trkpt lat="43.1126682" lon="12.2165974"><ele>337.5</ele><time>2026-05-03T06:47:58.162Z</time></trkpt><trkpt lat="43.1126033" lon="12.2166524"><ele>341.0</ele><time>2026-05-03T06:48:00.171Z</time></trkpt><trkpt lat="43.1125337" lon="12.2168234"><ele>341.0</ele><time>2026-05-03T06:48:02.157Z</time></trkpt><trkpt lat="43.1124889" lon="12.2169186"><ele>341.0</ele><time>2026-05-03T06:48:03.156Z</time></trkpt><trkpt lat="43.1124414" lon="12.2169996"><ele>341.0</ele><time>2026-05-03T06:48:04.157Z</time></trkpt><trkpt lat="43.1123906" lon="12.2170546"><ele>341.0</ele><time>2026-05-03T06:48:05.157Z</time></trkpt><trkpt lat="43.1122942" lon="12.217136"><ele>341.0</ele><time>2026-05-03T06:48:07.171Z</time></trkpt><trkpt lat="43.112196" lon="12.2172137"><ele>344.0</ele><time>2026-05-03T06:48:09.155Z</time></trkpt><trkpt lat="43.1120923" lon="12.2172811"><ele>347.0</ele><time>2026-05-03T06:48:11.16Z</time></trkpt><trkpt lat="43.1119922" lon="12.2173454"><ele>350.0</ele><time>2026-05-03T06:48:13.158Z</time></trkpt><trkpt lat="43.1118802" lon="12.2174115"><ele>353.0</ele><time>2026-05-03T06:48:15.16Z</time></trkpt><trkpt lat="43.1117741" lon="12.2175011"><ele>355.59999999999997</ele><time>2026-05-03T06:48:17.15Z</time></trkpt><trkpt lat="43.111689" lon="12.2175867"><ele>358.2</ele><time>2026-05-03T06:48:19.151Z</time></trkpt><trkpt lat="43.1116188" lon="12.2176625"><ele>360.8</ele><time>2026-05-03T06:48:21.169Z</time></trkpt><trkpt lat="43.1115423" lon="12.2177381"><ele>363.4</ele><time>2026-05-03T06:48:23.168Z</time></trkpt><trkpt lat="43.1114781" lon="12.2178159"><ele>366.0</ele><time>2026-05-03T06:48:25.161Z</time></trkpt><trkpt lat="43.1113844" lon="12.2178087"><ele>366.6666666666667</ele><time>2026-05-03T06:48:28.172Z</time></trkpt><trkpt lat="43.1113352" lon="12.2177522"><ele>367.3333333333333</ele><time>2026-05-03T06:48:30.151Z</time></trkpt><trkpt lat="43.1113053" lon="12.2176382"><ele>368.0</ele><time>2026-05-03T06:48:33.165Z</time></trkpt><trkpt lat="43.1113316" lon="12.2175404"><ele>368.66666666666663</ele><time>2026-05-03T06:48:35.168Z</time></trkpt><trkpt lat="43.1113684" lon="12.2174391"><ele>369.3333333333333</ele><time>2026-05-03T06:48:37.169Z</time></trkpt><trkpt lat="43.1113852" lon="12.2173215"><ele>370.0</ele><time>2026-05-03T06:48:39.172Z</time></trkpt><trkpt lat="43.1113936" lon="12.2172013"><ele>370.0</ele><time>2026-05-03T06:48:41.176Z</time></trkpt><trkpt lat="43.1113469" lon="12.2170986"><ele>370.0</ele><time>2026-05-03T06:48:43.172Z</time></trkpt><trkpt lat="43.1112811" lon="12.2170205"><ele>370.0</ele><time>2026-05-03T06:48:45.173Z</time></trkpt><trkpt lat="43.111195" lon="12.2169927"><ele>370.0</ele><time>2026-05-03T06:48:47.174Z</time></trkpt><trkpt lat="43.1111201" lon="12.2169746"><ele>370.0</ele><time>2026-05-03T06:48:49.171Z</time></trkpt><trkpt lat="43.1110477" lon="12.2169482"><ele>370.0</ele><time>2026-05-03T06:48:52.168Z</time></trkpt><trkpt lat="43.1109845" lon="12.2169372"><ele>370.0</ele><time>2026-05-03T06:50:13.192Z</time></trkpt><trkpt lat="43.1109265" lon="12.2170101"><ele>370.0</ele><time>2026-05-03T06:50:34.182Z</time></trkpt><trkpt lat="43.1109635" lon="12.216931"><ele>370.0</ele><time>2026-05-03T06:51:05.185Z</time></trkpt><trkpt lat="43.1110414" lon="12.2169045"><ele>370.0</ele><time>2026-05-03T06:51:09.186Z</time></trkpt><trkpt lat="43.1110075" lon="12.2168104"><ele>370.0</ele><time>2026-05-03T06:51:20.186Z</time></trkpt><trkpt lat="43.1109637" lon="12.2167076"><ele>370.0</ele><time>2026-05-03T06:51:23.184Z</time></trkpt><trkpt lat="43.1109004" lon="12.2166219"><ele>369.99999999999994</ele><time>2026-05-03T06:51:26.182Z</time></trkpt><trkpt lat="43.1108455" lon="12.2165637"><ele>370.0</ele><time>2026-05-03T06:51:30.191Z</time></trkpt><trkpt lat="43.1108025" lon="12.2164885"><ele>370.0</ele><time>2026-05-03T06:51:47.184Z</time></trkpt><trkpt lat="43.1108071" lon="12.2163839"><ele>370.0</ele><time>2026-05-03T06:51:53.179Z</time></trkpt><trkpt lat="43.1108608" lon="12.2162969"><ele>370.0</ele><time>2026-05-03T06:51:56.174Z</time></trkpt><trkpt lat="43.1108559" lon="12.2161861"><ele>369.99999999999994</ele><time>2026-05-03T06:51:59.186Z</time></trkpt><trkpt lat="43.1108509" lon="12.2160964"><ele>370.0</ele><time>2026-05-03T06:52:48.191Z</time></trkpt><trkpt lat="43.1108557" lon="12.216004"><ele>370.0</ele><time>2026-05-03T06:53:08.199Z</time></trkpt><trkpt lat="43.1108443" lon="12.2158785"><ele>370.0</ele><time>2026-05-03T06:54:04.191Z</time></trkpt><trkpt lat="43.1108782" lon="12.2157371"><ele>370.0</ele><time>2026-05-03T06:54:06.183Z</time></trkpt><trkpt lat="43.1109082" lon="12.2156459"><ele>370.0</ele><time>2026-05-03T06:54:07.166Z</time></trkpt><trkpt lat="43.1109396" lon="12.2155552"><ele>370.0</ele><time>2026-05-03T06:54:08.177Z</time></trkpt><trkpt lat="43.1109745" lon="12.2154727"><ele>370.0</ele><time>2026-05-03T06:54:09.174Z</time></trkpt><trkpt lat="43.111008" lon="12.2153983"><ele>370.0</ele><time>2026-05-03T06:54:10.174Z</time></trkpt><trkpt lat="43.1110432" lon="12.2152517"><ele>370.0</ele><time>2026-05-03T06:54:12.174Z</time></trkpt><trkpt lat="43.1110709" lon="12.2151141"><ele>370.0</ele><time>2026-05-03T06:54:14.179Z</time></trkpt><trkpt lat="43.111125" lon="12.2149919"><ele>370.0</ele><time>2026-05-03T06:54:16.17Z</time></trkpt><trkpt lat="43.1111735" lon="12.214859"><ele>370.0</ele><time>2026-05-03T06:54:18.182Z</time></trkpt><trkpt lat="43.1111659" lon="12.2147462"><ele>368.3333333333333</ele><time>2026-05-03T06:54:24.181Z</time></trkpt><trkpt lat="43.1111335" lon="12.2146537"><ele>366.66666666666663</ele><time>2026-05-03T06:54:26.183Z</time></trkpt><trkpt lat="43.111105" lon="12.2145369"><ele>365.0</ele><time>2026-05-03T06:54:28.183Z</time></trkpt><trkpt lat="43.1110652" lon="12.2144279"><ele>363.3333333333333</ele><time>2026-05-03T06:54:30.149Z</time></trkpt><trkpt lat="43.1110058" lon="12.2143162"><ele>361.6666666666667</ele><time>2026-05-03T06:54:32.18Z</time></trkpt><trkpt lat="43.1109534" lon="12.2142088"><ele>360.0</ele><time>2026-05-03T06:54:34.183Z</time></trkpt><trkpt lat="43.1109094" lon="12.2141155"><ele>360.0</ele><time>2026-05-03T06:54:36.18Z</time></trkpt><trkpt lat="43.1108647" lon="12.2140359"><ele>360.0</ele><time>2026-05-03T06:54:38.182Z</time></trkpt><trkpt lat="43.1108224" lon="12.2139632"><ele>360.0</ele><time>2026-05-03T06:54:40.189Z</time></trkpt><trkpt lat="43.1107516" lon="12.2139257"><ele>360.0</ele><time>2026-05-03T06:54:43.131Z</time></trkpt><trkpt lat="43.1106803" lon="12.2139165"><ele>360.0</ele><time>2026-05-03T06:54:46.195Z</time></trkpt><trkpt lat="43.1105938" lon="12.2138417"><ele>360.0</ele><time>2026-05-03T06:54:49.194Z</time></trkpt><trkpt lat="43.1105218" lon="12.2138046"><ele>360.3333333333333</ele><time>2026-05-03T06:54:51.089Z</time></trkpt><trkpt lat="43.1104399" lon="12.2137533"><ele>360.6666666666667</ele><time>2026-05-03T06:54:53.153Z</time></trkpt><trkpt lat="43.1103643" lon="12.2137234"><ele>361.0</ele><time>2026-05-03T06:54:55.18Z</time></trkpt><trkpt lat="43.1103102" lon="12.2136626"><ele>361.33333333333337</ele><time>2026-05-03T06:54:58.193Z</time></trkpt><trkpt lat="43.1103333" lon="12.2135399"><ele>361.6666666666667</ele><time>2026-05-03T06:55:02.171Z</time></trkpt><trkpt lat="43.1103367" lon="12.2134077"><ele>362.0</ele><time>2026-05-03T06:55:04.185Z</time></trkpt><trkpt lat="43.1103327" lon="12.2132581"><ele>361.20000000000005</ele><time>2026-05-03T06:55:06.189Z</time></trkpt><trkpt lat="43.1103589" lon="12.2130915"><ele>360.4</ele><time>2026-05-03T06:55:08.196Z</time></trkpt><trkpt lat="43.1103819" lon="12.2129353"><ele>359.6</ele><time>2026-05-03T06:55:10.194Z</time></trkpt><trkpt lat="43.1103997" lon="12.2127967"><ele>358.79999999999995</ele><time>2026-05-03T06:55:12.191Z</time></trkpt><trkpt lat="43.1103649" lon="12.2127035"><ele>358.0</ele><time>2026-05-03T06:55:14.171Z</time></trkpt><trkpt lat="43.1103305" lon="12.2126138"><ele>358.0</ele><time>2026-05-03T06:55:16.191Z</time></trkpt><trkpt lat="43.1102824" lon="12.212552"><ele>358.0</ele><time>2026-05-03T06:55:19.212Z</time></trkpt><trkpt lat="43.1102351" lon="12.2126385"><ele>358.0</ele><time>2026-05-03T06:55:25.195Z</time></trkpt><trkpt lat="43.1102007" lon="12.212739"><ele>358.0</ele><time>2026-05-03T06:55:27.199Z</time></trkpt><trkpt lat="43.1101522" lon="12.2128272"><ele>358.0</ele><time>2026-05-03T06:55:29.19Z</time></trkpt><trkpt lat="43.1101129" lon="12.2128952"><ele>358.0</ele><time>2026-05-03T06:55:31.189Z</time></trkpt><trkpt lat="43.1100591" lon="12.2129849"><ele>358.0</ele><time>2026-05-03T06:55:34.19Z</time></trkpt><trkpt lat="43.1100142" lon="12.2130613"><ele>358.0</ele><time>2026-05-03T06:55:36.114Z</time></trkpt><trkpt lat="43.1099684" lon="12.2131349"><ele>358.0</ele><time>2026-05-03T06:55:38.187Z</time></trkpt><trkpt lat="43.1099061" lon="12.21323"><ele>358.0</ele><time>2026-05-03T06:55:41.192Z</time></trkpt><trkpt lat="43.1098617" lon="12.2132978"><ele>358.0</ele><time>2026-05-03T06:55:43.194Z</time></trkpt><trkpt lat="43.1098158" lon="12.2133964"><ele>358.0</ele><time>2026-05-03T06:55:46.195Z</time></trkpt><trkpt lat="43.1097808" lon="12.2134857"><ele>358.0</ele><time>2026-05-03T06:55:49.193Z</time></trkpt><trkpt lat="43.1097893" lon="12.2133926"><ele>358.0</ele><time>2026-05-03T06:57:43.207Z</time></trkpt><trkpt lat="43.109817" lon="12.2132859"><ele>358.0</ele><time>2026-05-03T06:57:47.196Z</time></trkpt><trkpt lat="43.1098713" lon="12.2132092"><ele>358.0</ele><time>2026-05-03T06:57:50.192Z</time></trkpt><trkpt lat="43.1099304" lon="12.2131109"><ele>358.0</ele><time>2026-05-03T06:57:53.197Z</time></trkpt><trkpt lat="43.1100014" lon="12.2130095"><ele>358.0</ele><time>2026-05-03T06:57:56.189Z</time></trkpt><trkpt lat="43.1100518" lon="12.2129516"><ele>358.0</ele><time>2026-05-03T06:57:58.203Z</time></trkpt><trkpt lat="43.1101057" lon="12.2128582"><ele>358.0</ele><time>2026-05-03T06:58:01.199Z</time></trkpt><trkpt lat="43.1101556" lon="12.2127757"><ele>358.0</ele><time>2026-05-03T06:58:03.197Z</time></trkpt><trkpt lat="43.1102007" lon="12.2126721"><ele>358.0</ele><time>2026-05-03T06:58:05.194Z</time></trkpt><trkpt lat="43.1102464" lon="12.2125893"><ele>358.0</ele><time>2026-05-03T06:58:07.196Z</time></trkpt><trkpt lat="43.1102921" lon="12.2125081"><ele>358.0</ele><time>2026-05-03T06:58:10.198Z</time></trkpt><trkpt lat="43.1103781" lon="12.2124454"><ele>358.0</ele><time>2026-05-03T06:59:45.2Z</time></trkpt><trkpt lat="43.1104697" lon="12.2124101"><ele>358.0</ele><time>2026-05-03T06:59:47.189Z</time></trkpt><trkpt lat="43.1105633" lon="12.2123672"><ele>358.0</ele><time>2026-05-03T06:59:49.196Z</time></trkpt><trkpt lat="43.1106744" lon="12.2123452"><ele>358.0</ele><time>2026-05-03T06:59:51.191Z</time></trkpt><trkpt lat="43.110772" lon="12.2123447"><ele>358.0</ele><time>2026-05-03T06:59:53.153Z</time></trkpt><trkpt lat="43.1108688" lon="12.2123044"><ele>354.8571428571429</ele><time>2026-05-03T06:59:55.135Z</time></trkpt><trkpt lat="43.1109196" lon="12.2122404"><ele>351.7142857142857</ele><time>2026-05-03T06:59:57.182Z</time></trkpt><trkpt lat="43.1109274" lon="12.2121372"><ele>348.57142857142856</ele><time>2026-05-03T07:00:00.188Z</time></trkpt><trkpt lat="43.1109116" lon="12.212032"><ele>345.42857142857144</ele><time>2026-05-03T07:00:03.193Z</time></trkpt><trkpt lat="43.1108976" lon="12.2119378"><ele>342.2857142857143</ele><time>2026-05-03T07:00:05.188Z</time></trkpt><trkpt lat="43.1108919" lon="12.2118374"><ele>339.14285714285717</ele><time>2026-05-03T07:00:07.194Z</time></trkpt><trkpt lat="43.110887" lon="12.2117321"><ele>336.0</ele><time>2026-05-03T07:00:09.197Z</time></trkpt><trkpt lat="43.1108733" lon="12.2116241"><ele>336.0</ele><time>2026-05-03T07:00:11.195Z</time></trkpt><trkpt lat="43.1108409" lon="12.2115424"><ele>336.0</ele><time>2026-05-03T07:00:13.185Z</time></trkpt><trkpt lat="43.110799" lon="12.2114635"><ele>336.0</ele><time>2026-05-03T07:00:15.095Z</time></trkpt><trkpt lat="43.1107537" lon="12.2113696"><ele>336.0</ele><time>2026-05-03T07:00:17.191Z</time></trkpt><trkpt lat="43.1107056" lon="12.211277"><ele>336.0</ele><time>2026-05-03T07:00:19.189Z</time></trkpt><trkpt lat="43.1106389" lon="12.2112239"><ele>336.0</ele><time>2026-05-03T07:00:21.185Z</time></trkpt><trkpt lat="43.1105757" lon="12.2112162"><ele>336.0</ele><time>2026-05-03T07:00:23.191Z</time></trkpt><trkpt lat="43.1104953" lon="12.2111932"><ele>335.1666666666667</ele><time>2026-05-03T07:00:27.185Z</time></trkpt><trkpt lat="43.1104603" lon="12.2110867"><ele>334.3333333333333</ele><time>2026-05-03T07:00:31.188Z</time></trkpt><trkpt lat="43.1104217" lon="12.2109127"><ele>333.5</ele><time>2026-05-03T07:00:34.187Z</time></trkpt><trkpt lat="43.1104359" lon="12.2108112"><ele>332.66666666666663</ele><time>2026-05-03T07:00:36.188Z</time></trkpt><trkpt lat="43.1104492" lon="12.2107255"><ele>331.8333333333333</ele><time>2026-05-03T07:00:38.189Z</time></trkpt><trkpt lat="43.11045" lon="12.2106044"><ele>331.0</ele><time>2026-05-03T07:00:40.191Z</time></trkpt><trkpt lat="43.1104656" lon="12.2104652"><ele>331.0</ele><time>2026-05-03T07:00:42.193Z</time></trkpt><trkpt lat="43.1104878" lon="12.2103234"><ele>331.0</ele><time>2026-05-03T07:00:44.194Z</time></trkpt><trkpt lat="43.110524" lon="12.2102026"><ele>331.0</ele><time>2026-05-03T07:00:46.194Z</time></trkpt><trkpt lat="43.1105257" lon="12.2101147"><ele>331.0</ele><time>2026-05-03T07:00:48.194Z</time></trkpt><trkpt lat="43.1104386" lon="12.2101679"><ele>331.0</ele><time>2026-05-03T07:01:02.198Z</time></trkpt><trkpt lat="43.1103766" lon="12.2102031"><ele>331.0</ele><time>2026-05-03T07:01:03.198Z</time></trkpt><trkpt lat="43.1103121" lon="12.2102422"><ele>331.0</ele><time>2026-05-03T07:01:04.187Z</time></trkpt><trkpt lat="43.1102434" lon="12.2102942"><ele>331.0</ele><time>2026-05-03T07:01:05.183Z</time></trkpt><trkpt lat="43.1101816" lon="12.2103569"><ele>331.0</ele><time>2026-05-03T07:01:06.177Z</time></trkpt><trkpt lat="43.1101269" lon="12.2104439"><ele>331.0</ele><time>2026-05-03T07:01:07.172Z</time></trkpt><trkpt lat="43.1100746" lon="12.2105485"><ele>331.0</ele><time>2026-05-03T07:01:08.176Z</time></trkpt><trkpt lat="43.1100288" lon="12.210666"><ele>331.0</ele><time>2026-05-03T07:01:09.178Z</time></trkpt><trkpt lat="43.1099871" lon="12.210795"><ele>333.20000000000005</ele><time>2026-05-03T07:01:10.166Z</time></trkpt><trkpt lat="43.109949" lon="12.2109293"><ele>335.40000000000003</ele><time>2026-05-03T07:01:11.179Z</time></trkpt><trkpt lat="43.1099152" lon="12.2110626"><ele>337.6</ele><time>2026-05-03T07:01:12.175Z</time></trkpt><trkpt lat="43.1098965" lon="12.2111815"><ele>339.8</ele><time>2026-05-03T07:01:13.175Z</time></trkpt><trkpt lat="43.1098942" lon="12.2112894"><ele>342.0</ele><time>2026-05-03T07:01:14.181Z</time></trkpt><trkpt lat="43.1098816" lon="12.2114427"><ele>347.0</ele><time>2026-05-03T07:01:16.177Z</time></trkpt><trkpt lat="43.1098053" lon="12.2115599"><ele>352.0</ele><time>2026-05-03T07:01:18.177Z</time></trkpt><trkpt lat="43.1097453" lon="12.2116258"><ele>357.0</ele><time>2026-05-03T07:01:19.178Z</time></trkpt><trkpt lat="43.1096798" lon="12.2117032"><ele>362.0</ele><time>2026-05-03T07:01:20.181Z</time></trkpt><trkpt lat="43.1096067" lon="12.2117853"><ele>367.0</ele><time>2026-05-03T07:01:21.175Z</time></trkpt><trkpt lat="43.109528" lon="12.2118683"><ele>367.0</ele><time>2026-05-03T07:01:22.171Z</time></trkpt><trkpt lat="43.1094451" lon="12.2119382"><ele>367.0</ele><time>2026-05-03T07:01:23.18Z</time></trkpt><trkpt lat="43.1093628" lon="12.2119864"><ele>367.0</ele><time>2026-05-03T07:01:24.183Z</time></trkpt><trkpt lat="43.1092858" lon="12.2120055"><ele>367.0</ele><time>2026-05-03T07:01:25.179Z</time></trkpt><trkpt lat="43.109219" lon="12.2119838"><ele>367.0</ele><time>2026-05-03T07:01:26.172Z</time></trkpt><trkpt lat="43.1091666" lon="12.2119305"><ele>367.0</ele><time>2026-05-03T07:01:27.171Z</time></trkpt><trkpt lat="43.1091128" lon="12.2118645"><ele>369.20000000000005</ele><time>2026-05-03T07:01:28.176Z</time></trkpt><trkpt lat="43.1090508" lon="12.2117902"><ele>371.4</ele><time>2026-05-03T07:01:29.167Z</time></trkpt><trkpt lat="43.1089793" lon="12.2117192"><ele>373.6</ele><time>2026-05-03T07:01:30.173Z</time></trkpt><trkpt lat="43.1088962" lon="12.2116501"><ele>375.79999999999995</ele><time>2026-05-03T07:01:31.192Z</time></trkpt><trkpt lat="43.1088131" lon="12.2115991"><ele>378.0</ele><time>2026-05-03T07:01:32.172Z</time></trkpt><trkpt lat="43.1087217" lon="12.2115676"><ele>378.0</ele><time>2026-05-03T07:01:33.178Z</time></trkpt><trkpt lat="43.1086232" lon="12.2115603"><ele>378.0</ele><time>2026-05-03T07:01:34.182Z</time></trkpt><trkpt lat="43.1085198" lon="12.211568"><ele>378.0</ele><time>2026-05-03T07:01:35.185Z</time></trkpt><trkpt lat="43.1084134" lon="12.2115842"><ele>378.0</ele><time>2026-05-03T07:01:36.185Z</time></trkpt><trkpt lat="43.1083072" lon="12.2116097"><ele>378.0</ele><time>2026-05-03T07:01:37.18Z</time></trkpt><trkpt lat="43.1082041" lon="12.2116508"><ele>379.4</ele><time>2026-05-03T07:01:38.188Z</time></trkpt><trkpt lat="43.1081128" lon="12.2117134"><ele>380.79999999999995</ele><time>2026-05-03T07:01:39.197Z</time></trkpt><trkpt lat="43.1080308" lon="12.2118029"><ele>382.2</ele><time>2026-05-03T07:01:40.183Z</time></trkpt><trkpt lat="43.1079595" lon="12.2119065"><ele>383.6</ele><time>2026-05-03T07:01:41.185Z</time></trkpt><trkpt lat="43.1078854" lon="12.2120127"><ele>385.0</ele><time>2026-05-03T07:01:42.191Z</time></trkpt><trkpt lat="43.1078043" lon="12.2121044"><ele>385.0</ele><time>2026-05-03T07:01:43.188Z</time></trkpt><trkpt lat="43.1077087" lon="12.2121857"><ele>385.0</ele><time>2026-05-03T07:01:44.193Z</time></trkpt><trkpt lat="43.1076097" lon="12.2122672"><ele>385.0</ele><time>2026-05-03T07:01:45.186Z</time></trkpt><trkpt lat="43.1075164" lon="12.2123578"><ele>385.0</ele><time>2026-05-03T07:01:46.182Z</time></trkpt><trkpt lat="43.1074315" lon="12.2124578"><ele>386.00000000000006</ele><time>2026-05-03T07:01:47.187Z</time></trkpt><trkpt lat="43.1073582" lon="12.2125552"><ele>387.0</ele><time>2026-05-03T07:01:48.184Z</time></trkpt><trkpt lat="43.1072909" lon="12.2126317"><ele>388.0</ele><time>2026-05-03T07:01:49.189Z</time></trkpt><trkpt lat="43.1072233" lon="12.2126841"><ele>389.0</ele><time>2026-05-03T07:01:50.183Z</time></trkpt><trkpt lat="43.1071559" lon="12.2127218"><ele>390.00000000000006</ele><time>2026-05-03T07:01:51.187Z</time></trkpt><trkpt lat="43.1070932" lon="12.2127464"><ele>391.0</ele><time>2026-05-03T07:01:52.187Z</time></trkpt><trkpt lat="43.1069877" lon="12.2127643"><ele>391.0</ele><time>2026-05-03T07:01:54.185Z</time></trkpt><trkpt lat="43.1069022" lon="12.212718"><ele>391.0</ele><time>2026-05-03T07:01:56.188Z</time></trkpt><trkpt lat="43.1068165" lon="12.2126612"><ele>391.0</ele><time>2026-05-03T07:01:58.187Z</time></trkpt><trkpt lat="43.1067056" lon="12.2126307"><ele>391.0</ele><time>2026-05-03T07:02:00.185Z</time></trkpt><trkpt lat="43.1066126" lon="12.2126476"><ele>391.0</ele><time>2026-05-03T07:02:02.212Z</time></trkpt><trkpt lat="43.1065336" lon="12.2126826"><ele>390.20000000000005</ele><time>2026-05-03T07:02:04.195Z</time></trkpt><trkpt lat="43.1064295" lon="12.2127083"><ele>389.40000000000003</ele><time>2026-05-03T07:02:06.182Z</time></trkpt><trkpt lat="43.1063143" lon="12.2126823"><ele>388.6</ele><time>2026-05-03T07:02:08.184Z</time></trkpt><trkpt lat="43.1062035" lon="12.2126115"><ele>387.8</ele><time>2026-05-03T07:02:10.183Z</time></trkpt><trkpt lat="43.1061412" lon="12.2125664"><ele>387.0</ele><time>2026-05-03T07:02:11.183Z</time></trkpt><trkpt lat="43.1060848" lon="12.2125184"><ele>387.0</ele><time>2026-05-03T07:02:12.179Z</time></trkpt><trkpt lat="43.1060392" lon="12.2124586"><ele>387.0</ele><time>2026-05-03T07:02:13.178Z</time></trkpt><trkpt lat="43.1060133" lon="12.2123241"><ele>387.0</ele><time>2026-05-03T07:02:15.176Z</time></trkpt><trkpt lat="43.1060345" lon="12.2122285"><ele>387.0</ele><time>2026-05-03T07:02:17.195Z</time></trkpt><trkpt lat="43.106124" lon="12.2121503"><ele>387.0</ele><time>2026-05-03T07:02:19.194Z</time></trkpt><trkpt lat="43.1061894" lon="12.2120568"><ele>387.0</ele><time>2026-05-03T07:02:21.189Z</time></trkpt><trkpt lat="43.1062344" lon="12.2119811"><ele>384.7142857142857</ele><time>2026-05-03T07:02:23.196Z</time></trkpt><trkpt lat="43.1062786" lon="12.2118942"><ele>382.42857142857144</ele><time>2026-05-03T07:02:25.2Z</time></trkpt><trkpt lat="43.1063079" lon="12.2117764"><ele>380.1428571428571</ele><time>2026-05-03T07:02:27.196Z</time></trkpt><trkpt lat="43.1063219" lon="12.2116782"><ele>377.8571428571429</ele><time>2026-05-03T07:02:29.096Z</time></trkpt><trkpt lat="43.1063005" lon="12.2115968"><ele>375.57142857142856</ele><time>2026-05-03T07:02:31.191Z</time></trkpt><trkpt lat="43.1062488" lon="12.2115327"><ele>373.2857142857143</ele><time>2026-05-03T07:02:33.193Z</time></trkpt><trkpt lat="43.1061863" lon="12.2114888"><ele>371.0</ele><time>2026-05-03T07:02:35.195Z</time></trkpt><trkpt lat="43.106121" lon="12.2114632"><ele>369.14285714285717</ele><time>2026-05-03T07:02:37.134Z</time></trkpt><trkpt lat="43.1060565" lon="12.2114321"><ele>367.2857142857143</ele><time>2026-05-03T07:02:39.191Z</time></trkpt><trkpt lat="43.1060043" lon="12.2113812"><ele>365.42857142857144</ele><time>2026-05-03T07:02:41.191Z</time></trkpt><trkpt lat="43.1059411" lon="12.2113359"><ele>363.57142857142856</ele><time>2026-05-03T07:02:43.188Z</time></trkpt><trkpt lat="43.1058748" lon="12.2113065"><ele>361.7142857142857</ele><time>2026-05-03T07:02:45.189Z</time></trkpt><trkpt lat="43.1058056" lon="12.2112863"><ele>359.8571428571429</ele><time>2026-05-03T07:02:47.19Z</time></trkpt><trkpt lat="43.1057289" lon="12.2112799"><ele>358.0</ele><time>2026-05-03T07:02:49.192Z</time></trkpt><trkpt lat="43.1056602" lon="12.2112927"><ele>356.0</ele><time>2026-05-03T07:02:51.058Z</time></trkpt><trkpt lat="43.1055878" lon="12.2112739"><ele>354.0</ele><time>2026-05-03T07:02:54.193Z</time></trkpt><trkpt lat="43.1055504" lon="12.2111687"><ele>352.0</ele><time>2026-05-03T07:02:57.113Z</time></trkpt><trkpt lat="43.1055666" lon="12.211044"><ele>350.0</ele><time>2026-05-03T07:03:00.194Z</time></trkpt><trkpt lat="43.1055579" lon="12.2109423"><ele>348.0</ele><time>2026-05-03T07:03:02.191Z</time></trkpt><trkpt lat="43.1055539" lon="12.2108532"><ele>346.0</ele><time>2026-05-03T07:03:04.185Z</time></trkpt><trkpt lat="43.1055577" lon="12.2107547"><ele>346.0</ele><time>2026-05-03T07:03:06.188Z</time></trkpt><trkpt lat="43.1055752" lon="12.2106646"><ele>346.0</ele><time>2026-05-03T07:03:08.185Z</time></trkpt><trkpt lat="43.1055837" lon="12.210534"><ele>346.0</ele><time>2026-05-03T07:03:11.193Z</time></trkpt><trkpt lat="43.1055795" lon="12.2104444"><ele>346.0</ele><time>2026-05-03T07:03:13.19Z</time></trkpt><trkpt lat="43.1055752" lon="12.2103226"><ele>346.0</ele><time>2026-05-03T07:03:16.143Z</time></trkpt><trkpt lat="43.1055765" lon="12.2102143"><ele>346.0</ele><time>2026-05-03T07:03:19.135Z</time></trkpt><trkpt lat="43.1055795" lon="12.2101232"><ele>344.66666666666663</ele><time>2026-05-03T07:03:21.185Z</time></trkpt><trkpt lat="43.1055149" lon="12.2100533"><ele>343.3333333333333</ele><time>2026-05-03T07:03:24.182Z</time></trkpt><trkpt lat="43.1054493" lon="12.2100293"><ele>342.0</ele><time>2026-05-03T07:03:26.194Z</time></trkpt><trkpt lat="43.1053892" lon="12.2100574"><ele>340.6666666666667</ele><time>2026-05-03T07:03:28.178Z</time></trkpt><trkpt lat="43.1053313" lon="12.2101607"><ele>339.33333333333337</ele><time>2026-05-03T07:03:31.189Z</time></trkpt><trkpt lat="43.1053106" lon="12.2102743"><ele>338.0</ele><time>2026-05-03T07:03:33.186Z</time></trkpt><trkpt lat="43.1052971" lon="12.2103842"><ele>338.0</ele><time>2026-05-03T07:03:35.161Z</time></trkpt><trkpt lat="43.1053023" lon="12.2105201"><ele>338.0</ele><time>2026-05-03T07:03:37.189Z</time></trkpt><trkpt lat="43.1052877" lon="12.2106412"><ele>338.0</ele><time>2026-05-03T07:03:39.19Z</time></trkpt><trkpt lat="43.1052674" lon="12.2107582"><ele>338.0</ele><time>2026-05-03T07:03:41.19Z</time></trkpt><trkpt lat="43.10524" lon="12.2108841"><ele>338.0</ele><time>2026-05-03T07:03:43.187Z</time></trkpt><trkpt lat="43.1052186" lon="12.210999"><ele>339.59999999999997</ele><time>2026-05-03T07:03:45.187Z</time></trkpt><trkpt lat="43.1051661" lon="12.2111053"><ele>341.2</ele><time>2026-05-03T07:03:47.191Z</time></trkpt><trkpt lat="43.1050977" lon="12.2112221"><ele>342.8</ele><time>2026-05-03T07:03:49.173Z</time></trkpt><trkpt lat="43.1050302" lon="12.2113354"><ele>344.4</ele><time>2026-05-03T07:03:51.168Z</time></trkpt><trkpt lat="43.1049603" lon="12.2114223"><ele>346.0</ele><time>2026-05-03T07:03:53.179Z</time></trkpt><trkpt lat="43.1048903" lon="12.2114881"><ele>348.16666666666663</ele><time>2026-05-03T07:03:55.183Z</time></trkpt><trkpt lat="43.1048318" lon="12.2115479"><ele>350.3333333333333</ele><time>2026-05-03T07:03:57.18Z</time></trkpt><trkpt lat="43.1047684" lon="12.2116307"><ele>352.5</ele><time>2026-05-03T07:04:00.18Z</time></trkpt><trkpt lat="43.1047014" lon="12.2116756"><ele>354.6666666666667</ele><time>2026-05-03T07:04:03.175Z</time></trkpt><trkpt lat="43.1046393" lon="12.2116161"><ele>356.83333333333337</ele><time>2026-05-03T07:04:06.176Z</time></trkpt><trkpt lat="43.1045919" lon="12.2115367"><ele>359.0</ele><time>2026-05-03T07:04:08.113Z</time></trkpt><trkpt lat="43.1045435" lon="12.2114379"><ele>359.0</ele><time>2026-05-03T07:04:10.154Z</time></trkpt><trkpt lat="43.1044981" lon="12.211327"><ele>359.0</ele><time>2026-05-03T07:04:12.178Z</time></trkpt><trkpt lat="43.1044311" lon="12.2111896"><ele>359.0</ele><time>2026-05-03T07:04:14.179Z</time></trkpt><trkpt lat="43.1043413" lon="12.2110898"><ele>359.0</ele><time>2026-05-03T07:04:16.172Z</time></trkpt><trkpt lat="43.1042697" lon="12.2110032"><ele>359.0</ele><time>2026-05-03T07:04:18.189Z</time></trkpt><trkpt lat="43.1042434" lon="12.210905"><ele>359.0</ele><time>2026-05-03T07:04:26.19Z</time></trkpt><trkpt lat="43.1042054" lon="12.2107533"><ele>359.0</ele><time>2026-05-03T07:04:29.186Z</time></trkpt><trkpt lat="43.1041815" lon="12.2106437"><ele>359.0</ele><time>2026-05-03T07:04:31.176Z</time></trkpt><trkpt lat="43.1041731" lon="12.2105265"><ele>359.0</ele><time>2026-05-03T07:04:33.198Z</time></trkpt><trkpt lat="43.1041319" lon="12.2104097"><ele>359.0</ele><time>2026-05-03T07:04:35.2Z</time></trkpt><trkpt lat="43.10407" lon="12.2103601"><ele>359.6</ele><time>2026-05-03T07:04:37.191Z</time></trkpt><trkpt lat="43.1039382" lon="12.2104514"><ele>360.2</ele><time>2026-05-03T07:04:40.195Z</time></trkpt><trkpt lat="43.103875" lon="12.2105115"><ele>360.8</ele><time>2026-05-03T07:04:42.191Z</time></trkpt><trkpt lat="43.103805" lon="12.2105988"><ele>361.40000000000003</ele><time>2026-05-03T07:04:44.185Z</time></trkpt><trkpt lat="43.103738" lon="12.210662"><ele>362.0</ele><time>2026-05-03T07:04:45.173Z</time></trkpt><trkpt lat="43.1036656" lon="12.2107258"><ele>362.0</ele><time>2026-05-03T07:04:46.172Z</time></trkpt><trkpt lat="43.1035875" lon="12.2107968"><ele>362.0</ele><time>2026-05-03T07:04:47.174Z</time></trkpt><trkpt lat="43.10351" lon="12.2108672"><ele>362.0</ele><time>2026-05-03T07:04:48.173Z</time></trkpt><trkpt lat="43.1034391" lon="12.2109243"><ele>362.0</ele><time>2026-05-03T07:04:49.172Z</time></trkpt><trkpt lat="43.1033746" lon="12.210983"><ele>362.0</ele><time>2026-05-03T07:04:50.164Z</time></trkpt><trkpt lat="43.1033103" lon="12.2110394"><ele>362.0</ele><time>2026-05-03T07:04:51.167Z</time></trkpt><trkpt lat="43.1032474" lon="12.2110906"><ele>364.83333333333337</ele><time>2026-05-03T07:04:52.164Z</time></trkpt><trkpt lat="43.1031512" lon="12.2111683"><ele>367.6666666666667</ele><time>2026-05-03T07:04:54.162Z</time></trkpt><trkpt lat="43.1030922" lon="12.2112355"><ele>370.5</ele><time>2026-05-03T07:04:56.166Z</time></trkpt><trkpt lat="43.1030446" lon="12.211295"><ele>373.3333333333333</ele><time>2026-05-03T07:05:01.172Z</time></trkpt><trkpt lat="43.1029901" lon="12.2113595"><ele>376.16666666666663</ele><time>2026-05-03T07:05:04.078Z</time></trkpt><trkpt lat="43.1029167" lon="12.211378"><ele>379.0</ele><time>2026-05-03T07:05:06.171Z</time></trkpt><trkpt lat="43.1028381" lon="12.2112608"><ele>379.0</ele><time>2026-05-03T07:05:08.177Z</time></trkpt><trkpt lat="43.1028234" lon="12.2111349"><ele>379.0</ele><time>2026-05-03T07:05:09.177Z</time></trkpt><trkpt lat="43.102827" lon="12.210995"><ele>379.0</ele><time>2026-05-03T07:05:10.164Z</time></trkpt><trkpt lat="43.1028354" lon="12.2108567"><ele>379.0</ele><time>2026-05-03T07:05:11.16Z</time></trkpt><trkpt lat="43.102828" lon="12.2107389"><ele>379.0</ele><time>2026-05-03T07:05:12.162Z</time></trkpt><trkpt lat="43.1028012" lon="12.2106349"><ele>378.5</ele><time>2026-05-03T07:05:13.163Z</time></trkpt><trkpt lat="43.1027707" lon="12.2105273"><ele>378.0</ele><time>2026-05-03T07:05:14.164Z</time></trkpt><trkpt lat="43.1027485" lon="12.2104146"><ele>377.5</ele><time>2026-05-03T07:05:15.166Z</time></trkpt><trkpt lat="43.1027366" lon="12.210303"><ele>377.0</ele><time>2026-05-03T07:05:16.165Z</time></trkpt><trkpt lat="43.1027338" lon="12.2101868"><ele>376.5</ele><time>2026-05-03T07:05:17.167Z</time></trkpt><trkpt lat="43.102727" lon="12.210073"><ele>376.0</ele><time>2026-05-03T07:05:18.164Z</time></trkpt><trkpt lat="43.102718" lon="12.209967"><ele>376.0</ele><time>2026-05-03T07:05:19.173Z</time></trkpt><trkpt lat="43.1026984" lon="12.2098815"><ele>376.0</ele><time>2026-05-03T07:05:20.167Z</time></trkpt><trkpt lat="43.1026218" lon="12.2097327"><ele>376.0</ele><time>2026-05-03T07:05:22.169Z</time></trkpt><trkpt lat="43.1025849" lon="12.2096449"><ele>376.0</ele><time>2026-05-03T07:05:23.168Z</time></trkpt><trkpt lat="43.1025592" lon="12.2095422"><ele>376.0</ele><time>2026-05-03T07:05:24.168Z</time></trkpt><trkpt lat="43.1025393" lon="12.2094305"><ele>376.0</ele><time>2026-05-03T07:05:25.168Z</time></trkpt><trkpt lat="43.1025188" lon="12.2093181"><ele>374.8</ele><time>2026-05-03T07:05:26.168Z</time></trkpt><trkpt lat="43.1024933" lon="12.2092002"><ele>373.6</ele><time>2026-05-03T07:05:27.166Z</time></trkpt><trkpt lat="43.1024698" lon="12.2090759"><ele>372.4</ele><time>2026-05-03T07:05:28.165Z</time></trkpt><trkpt lat="43.1024487" lon="12.2089449"><ele>371.2</ele><time>2026-05-03T07:05:29.168Z</time></trkpt><trkpt lat="43.1024378" lon="12.2088124"><ele>370.0</ele><time>2026-05-03T07:05:30.167Z</time></trkpt><trkpt lat="43.1024387" lon="12.2086798"><ele>369.8</ele><time>2026-05-03T07:05:31.17Z</time></trkpt><trkpt lat="43.1024601" lon="12.2085322"><ele>369.6</ele><time>2026-05-03T07:05:32.167Z</time></trkpt><trkpt lat="43.1024888" lon="12.2083815"><ele>369.4</ele><time>2026-05-03T07:05:33.164Z</time></trkpt><trkpt lat="43.1025087" lon="12.2082437"><ele>369.2</ele><time>2026-05-03T07:05:34.171Z</time></trkpt><trkpt lat="43.1025062" lon="12.2081272"><ele>369.0</ele><time>2026-05-03T07:05:35.169Z</time></trkpt><trkpt lat="43.1024846" lon="12.2080159"><ele>367.1666666666667</ele><time>2026-05-03T07:05:36.172Z</time></trkpt><trkpt lat="43.1024541" lon="12.2079198"><ele>365.3333333333333</ele><time>2026-05-03T07:05:37.174Z</time></trkpt><trkpt lat="43.1024104" lon="12.2078411"><ele>363.5</ele><time>2026-05-03T07:05:38.19Z</time></trkpt><trkpt lat="43.1023514" lon="12.2077866"><ele>361.66666666666663</ele><time>2026-05-03T07:05:39.175Z</time></trkpt><trkpt lat="43.1022728" lon="12.207754"><ele>359.8333333333333</ele><time>2026-05-03T07:05:40.174Z</time></trkpt><trkpt lat="43.1021712" lon="12.2077567"><ele>358.0</ele><time>2026-05-03T07:05:41.169Z</time></trkpt><trkpt lat="43.1020608" lon="12.2077937"><ele>357.59999999999997</ele><time>2026-05-03T07:05:42.17Z</time></trkpt><trkpt lat="43.1019395" lon="12.2078424"><ele>357.2</ele><time>2026-05-03T07:05:43.168Z</time></trkpt><trkpt lat="43.1018203" lon="12.2078779"><ele>356.8</ele><time>2026-05-03T07:05:44.164Z</time></trkpt><trkpt lat="43.101717" lon="12.2078925"><ele>356.4</ele><time>2026-05-03T07:05:45.16Z</time></trkpt><trkpt lat="43.1016271" lon="12.2078961"><ele>356.0</ele><time>2026-05-03T07:05:46.161Z</time></trkpt><trkpt lat="43.1015464" lon="12.2078999"><ele>358.0</ele><time>2026-05-03T07:05:47.164Z</time></trkpt><trkpt lat="43.1014691" lon="12.2079224"><ele>360.0</ele><time>2026-05-03T07:05:48.164Z</time></trkpt><trkpt lat="43.1013915" lon="12.2079643"><ele>362.0</ele><time>2026-05-03T07:05:49.166Z</time></trkpt><trkpt lat="43.1013171" lon="12.2080217"><ele>364.0</ele><time>2026-05-03T07:05:50.162Z</time></trkpt><trkpt lat="43.1012457" lon="12.2080773"><ele>366.0</ele><time>2026-05-03T07:05:51.165Z</time></trkpt><trkpt lat="43.1011882" lon="12.2081343"><ele>368.0</ele><time>2026-05-03T07:05:52.165Z</time></trkpt><trkpt lat="43.1010886" lon="12.2082002"><ele>368.0</ele><time>2026-05-03T07:05:54.154Z</time></trkpt><trkpt lat="43.1010317" lon="12.2081077"><ele>368.0</ele><time>2026-05-03T07:05:56.173Z</time></trkpt><trkpt lat="43.1010316" lon="12.2080114"><ele>368.0</ele><time>2026-05-03T07:05:57.165Z</time></trkpt><trkpt lat="43.1010537" lon="12.2078988"><ele>368.0</ele><time>2026-05-03T07:05:58.165Z</time></trkpt><trkpt lat="43.1010941" lon="12.2077769"><ele>368.0</ele><time>2026-05-03T07:05:59.168Z</time></trkpt><trkpt lat="43.1011346" lon="12.2076514"><ele>368.0</ele><time>2026-05-03T07:06:00.166Z</time></trkpt><trkpt lat="43.1011614" lon="12.2075398"><ele>368.0</ele><time>2026-05-03T07:06:01.162Z</time></trkpt><trkpt lat="43.1011736" lon="12.2074193"><ele>368.0</ele><time>2026-05-03T07:06:02.165Z</time></trkpt><trkpt lat="43.1011674" lon="12.2072808"><ele>368.0</ele><time>2026-05-03T07:06:03.161Z</time></trkpt><trkpt lat="43.1011498" lon="12.2071262"><ele>368.0</ele><time>2026-05-03T07:06:04.164Z</time></trkpt><trkpt lat="43.1011185" lon="12.2069491"><ele>368.0</ele><time>2026-05-03T07:06:05.165Z</time></trkpt><trkpt lat="43.1010907" lon="12.2067777"><ele>366.5</ele><time>2026-05-03T07:06:06.165Z</time></trkpt><trkpt lat="43.1010723" lon="12.2066098"><ele>365.0</ele><time>2026-05-03T07:06:07.164Z</time></trkpt><trkpt lat="43.1010636" lon="12.2064424"><ele>363.5</ele><time>2026-05-03T07:06:08.167Z</time></trkpt><trkpt lat="43.1010624" lon="12.2062721"><ele>362.0</ele><time>2026-05-03T07:06:09.179Z</time></trkpt><trkpt lat="43.1010675" lon="12.2060987"><ele>361.0</ele><time>2026-05-03T07:06:10.168Z</time></trkpt><trkpt lat="43.1010825" lon="12.2059298"><ele>360.0</ele><time>2026-05-03T07:06:11.168Z</time></trkpt><trkpt lat="43.1010971" lon="12.2057744"><ele>359.0</ele><time>2026-05-03T07:06:12.168Z</time></trkpt><trkpt lat="43.1011139" lon="12.2056315"><ele>358.0</ele><time>2026-05-03T07:06:13.17Z</time></trkpt><trkpt lat="43.1011299" lon="12.205507"><ele>357.0</ele><time>2026-05-03T07:06:14.171Z</time></trkpt><trkpt lat="43.101142" lon="12.2054069"><ele>355.0</ele><time>2026-05-03T07:06:15.173Z</time></trkpt><trkpt lat="43.1011436" lon="12.2053012"><ele>353.0</ele><time>2026-05-03T07:06:17.17Z</time></trkpt><trkpt lat="43.1010606" lon="12.205323"><ele>351.0</ele><time>2026-05-03T07:06:20.189Z</time></trkpt><trkpt lat="43.1009799" lon="12.2053858"><ele>349.0</ele><time>2026-05-03T07:06:22.192Z</time></trkpt><trkpt lat="43.100837" lon="12.2053774"><ele>347.0</ele><time>2026-05-03T07:06:25.178Z</time></trkpt><trkpt lat="43.1007161" lon="12.2053616"><ele>346.83333333333337</ele><time>2026-05-03T07:06:27.181Z</time></trkpt><trkpt lat="43.1006454" lon="12.2053739"><ele>346.6666666666667</ele><time>2026-05-03T07:06:28.174Z</time></trkpt><trkpt lat="43.1005724" lon="12.2054004"><ele>346.5</ele><time>2026-05-03T07:06:29.178Z</time></trkpt><trkpt lat="43.1004978" lon="12.2054259"><ele>346.3333333333333</ele><time>2026-05-03T07:06:30.174Z</time></trkpt><trkpt lat="43.1004198" lon="12.205442"><ele>346.16666666666663</ele><time>2026-05-03T07:06:31.168Z</time></trkpt><trkpt lat="43.1003352" lon="12.2054461"><ele>346.0</ele><time>2026-05-03T07:06:32.173Z</time></trkpt><trkpt lat="43.1002438" lon="12.2054361"><ele>346.0</ele><time>2026-05-03T07:06:33.163Z</time></trkpt><trkpt lat="43.1001521" lon="12.2054194"><ele>346.0</ele><time>2026-05-03T07:06:34.168Z</time></trkpt><trkpt lat="43.1000647" lon="12.2054121"><ele>346.0</ele><time>2026-05-03T07:06:35.16Z</time></trkpt><trkpt lat="43.0999852" lon="12.2054171"><ele>346.0</ele><time>2026-05-03T07:06:36.16Z</time></trkpt><trkpt lat="43.099919" lon="12.2054196"><ele>346.0</ele><time>2026-05-03T07:06:37.159Z</time></trkpt><trkpt lat="43.0998137" lon="12.2054383"><ele>346.0</ele><time>2026-05-03T07:06:39.165Z</time></trkpt><trkpt lat="43.0997514" lon="12.2054691"><ele>345.66666666666663</ele><time>2026-05-03T07:06:40.17Z</time></trkpt><trkpt lat="43.0996892" lon="12.2054932"><ele>345.3333333333333</ele><time>2026-05-03T07:06:41.163Z</time></trkpt><trkpt lat="43.0995717" lon="12.2055738"><ele>345.0</ele><time>2026-05-03T07:06:43.159Z</time></trkpt><trkpt lat="43.0995094" lon="12.2056331"><ele>344.6666666666667</ele><time>2026-05-03T07:06:44.164Z</time></trkpt><trkpt lat="43.0994569" lon="12.2057034"><ele>344.33333333333337</ele><time>2026-05-03T07:06:45.163Z</time></trkpt><trkpt lat="43.0994154" lon="12.205795"><ele>344.0</ele><time>2026-05-03T07:06:46.162Z</time></trkpt><trkpt lat="43.0993857" lon="12.2059116"><ele>344.0</ele><time>2026-05-03T07:06:47.165Z</time></trkpt><trkpt lat="43.0993705" lon="12.2060315"><ele>344.0</ele><time>2026-05-03T07:06:48.164Z</time></trkpt><trkpt lat="43.0993566" lon="12.2061415"><ele>344.0</ele><time>2026-05-03T07:06:49.167Z</time></trkpt><trkpt lat="43.0993381" lon="12.2062465"><ele>344.0</ele><time>2026-05-03T07:06:50.161Z</time></trkpt><trkpt lat="43.0993182" lon="12.2063394"><ele>344.0</ele><time>2026-05-03T07:06:51.162Z</time></trkpt><trkpt lat="43.0992471" lon="12.2064696"><ele>344.0</ele><time>2026-05-03T07:06:53.157Z</time></trkpt><trkpt lat="43.0991922" lon="12.2065322"><ele>345.00000000000006</ele><time>2026-05-03T07:06:54.156Z</time></trkpt><trkpt lat="43.0991323" lon="12.2065954"><ele>346.0</ele><time>2026-05-03T07:06:55.155Z</time></trkpt><trkpt lat="43.0990671" lon="12.2066532"><ele>347.0</ele><time>2026-05-03T07:06:56.157Z</time></trkpt><trkpt lat="43.0990014" lon="12.2067036"><ele>348.0</ele><time>2026-05-03T07:06:57.155Z</time></trkpt><trkpt lat="43.0989358" lon="12.2067542"><ele>349.0</ele><time>2026-05-03T07:06:58.16Z</time></trkpt><trkpt lat="43.0988725" lon="12.206801"><ele>350.00000000000006</ele><time>2026-05-03T07:06:59.162Z</time></trkpt><trkpt lat="43.0988121" lon="12.2068407"><ele>351.0</ele><time>2026-05-03T07:07:00.162Z</time></trkpt><trkpt lat="43.0986982" lon="12.206908"><ele>351.00000000000006</ele><time>2026-05-03T07:07:02.166Z</time></trkpt><trkpt lat="43.0986311" lon="12.206929"><ele>351.0</ele><time>2026-05-03T07:07:03.171Z</time></trkpt><trkpt lat="43.0985598" lon="12.206947"><ele>351.0</ele><time>2026-05-03T07:07:04.157Z</time></trkpt><trkpt lat="43.0984892" lon="12.2069518"><ele>351.0</ele><time>2026-05-03T07:07:05.171Z</time></trkpt><trkpt lat="43.098427" lon="12.2069333"><ele>351.0</ele><time>2026-05-03T07:07:06.163Z</time></trkpt><trkpt lat="43.0983602" lon="12.2069023"><ele>351.00000000000006</ele><time>2026-05-03T07:07:07.163Z</time></trkpt><trkpt lat="43.0982973" lon="12.2068662"><ele>351.0</ele><time>2026-05-03T07:07:08.164Z</time></trkpt><trkpt lat="43.0981954" lon="12.2068553"><ele>350.8</ele><time>2026-05-03T07:07:10.163Z</time></trkpt><trkpt lat="43.0981036" lon="12.2068978"><ele>350.6</ele><time>2026-05-03T07:07:12.175Z</time></trkpt><trkpt lat="43.0980306" lon="12.2069988"><ele>350.4</ele><time>2026-05-03T07:07:14.177Z</time></trkpt><trkpt lat="43.0979637" lon="12.2071243"><ele>350.2</ele><time>2026-05-03T07:07:16.163Z</time></trkpt><trkpt lat="43.0978913" lon="12.207228"><ele>350.0</ele><time>2026-05-03T07:07:18.16Z</time></trkpt><trkpt lat="43.0978087" lon="12.2073049"><ele>352.33333333333337</ele><time>2026-05-03T07:07:20.163Z</time></trkpt><trkpt lat="43.0977415" lon="12.2073697"><ele>354.6666666666667</ele><time>2026-05-03T07:07:22.174Z</time></trkpt><trkpt lat="43.0976496" lon="12.2074768"><ele>357.0</ele><time>2026-05-03T07:07:24.159Z</time></trkpt><trkpt lat="43.0976025" lon="12.207557"><ele>359.3333333333333</ele><time>2026-05-03T07:07:25.159Z</time></trkpt><trkpt lat="43.0975543" lon="12.2076402"><ele>361.66666666666663</ele><time>2026-05-03T07:07:26.159Z</time></trkpt><trkpt lat="43.0975061" lon="12.2076995"><ele>364.0</ele><time>2026-05-03T07:07:27.165Z</time></trkpt><trkpt lat="43.0974184" lon="12.2077662"><ele>366.0</ele><time>2026-05-03T07:07:29.16Z</time></trkpt><trkpt lat="43.0973104" lon="12.2078561"><ele>368.0</ele><time>2026-05-03T07:07:31.162Z</time></trkpt><trkpt lat="43.0972511" lon="12.2079172"><ele>370.0</ele><time>2026-05-03T07:07:32.155Z</time></trkpt><trkpt lat="43.0971948" lon="12.2079744"><ele>372.0</ele><time>2026-05-03T07:07:33.161Z</time></trkpt><trkpt lat="43.0971092" lon="12.208076"><ele>374.0</ele><time>2026-05-03T07:07:35.164Z</time></trkpt><trkpt lat="43.0970492" lon="12.2081385"><ele>374.0</ele><time>2026-05-03T07:07:38.168Z</time></trkpt><trkpt lat="43.0969769" lon="12.2080733"><ele>374.0</ele><time>2026-05-03T07:07:42.188Z</time></trkpt><trkpt lat="43.0969291" lon="12.2079855"><ele>374.0</ele><time>2026-05-03T07:07:44.173Z</time></trkpt><trkpt lat="43.0968742" lon="12.2079073"><ele>374.0</ele><time>2026-05-03T07:07:46.176Z</time></trkpt><trkpt lat="43.0968946" lon="12.2078045"><ele>374.0</ele><time>2026-05-03T07:07:47.174Z</time></trkpt><trkpt lat="43.0968921" lon="12.2076721"><ele>374.0</ele><time>2026-05-03T07:07:49.09Z</time></trkpt><trkpt lat="43.0968578" lon="12.207524"><ele>374.0</ele><time>2026-05-03T07:07:51.173Z</time></trkpt><trkpt lat="43.0968285" lon="12.2074358"><ele>374.0</ele><time>2026-05-03T07:07:52.167Z</time></trkpt><trkpt lat="43.0968043" lon="12.2073329"><ele>374.0</ele><time>2026-05-03T07:07:53.17Z</time></trkpt><trkpt lat="43.0967892" lon="12.2072332"><ele>374.0</ele><time>2026-05-03T07:07:54.161Z</time></trkpt><trkpt lat="43.0967802" lon="12.2071359"><ele>374.0</ele><time>2026-05-03T07:07:55.16Z</time></trkpt><trkpt lat="43.0967783" lon="12.2070436"><ele>374.0</ele><time>2026-05-03T07:07:56.159Z</time></trkpt><trkpt lat="43.0967899" lon="12.2068795"><ele>372.0</ele><time>2026-05-03T07:07:58.164Z</time></trkpt><trkpt lat="43.0968112" lon="12.2067151"><ele>370.0</ele><time>2026-05-03T07:08:00.164Z</time></trkpt><trkpt lat="43.0968516" lon="12.2065585"><ele>368.0</ele><time>2026-05-03T07:08:02.163Z</time></trkpt><trkpt lat="43.0969019" lon="12.2064225"><ele>366.0</ele><time>2026-05-03T07:08:04.164Z</time></trkpt><trkpt lat="43.0969128" lon="12.2062774"><ele>364.6</ele><time>2026-05-03T07:08:06.164Z</time></trkpt><trkpt lat="43.0968919" lon="12.2061706"><ele>363.20000000000005</ele><time>2026-05-03T07:08:07.163Z</time></trkpt><trkpt lat="43.0968522" lon="12.2060384"><ele>361.79999999999995</ele><time>2026-05-03T07:08:08.163Z</time></trkpt><trkpt lat="43.0968088" lon="12.2058962"><ele>360.4</ele><time>2026-05-03T07:08:09.164Z</time></trkpt><trkpt lat="43.0967692" lon="12.2057618"><ele>359.0</ele><time>2026-05-03T07:08:10.17Z</time></trkpt><trkpt lat="43.0967322" lon="12.205636"><ele>357.6666666666667</ele><time>2026-05-03T07:08:11.166Z</time></trkpt><trkpt lat="43.0966988" lon="12.2055262"><ele>356.33333333333337</ele><time>2026-05-03T07:08:12.168Z</time></trkpt><trkpt lat="43.0966661" lon="12.2054285"><ele>355.0</ele><time>2026-05-03T07:08:13.181Z</time></trkpt><trkpt lat="43.0966252" lon="12.2052848"><ele>353.6666666666667</ele><time>2026-05-03T07:08:15.172Z</time></trkpt><trkpt lat="43.0965728" lon="12.2052246"><ele>352.3333333333333</ele><time>2026-05-03T07:08:18.178Z</time></trkpt><trkpt lat="43.0964955" lon="12.2052648"><ele>351.0</ele><time>2026-05-03T07:08:21.184Z</time></trkpt><trkpt lat="43.0964362" lon="12.205298"><ele>351.0</ele><time>2026-05-03T07:08:23.184Z</time></trkpt><trkpt lat="43.0963308" lon="12.2053828"><ele>351.0</ele><time>2026-05-03T07:08:25.17Z</time></trkpt><trkpt lat="43.0962587" lon="12.2055025"><ele>351.0</ele><time>2026-05-03T07:08:28.174Z</time></trkpt><trkpt lat="43.0962167" lon="12.2055854"><ele>351.0</ele><time>2026-05-03T07:08:29.167Z</time></trkpt><trkpt lat="43.096164" lon="12.205669"><ele>351.0</ele><time>2026-05-03T07:08:30.16Z</time></trkpt><trkpt lat="43.0961059" lon="12.205736"><ele>353.8333333333333</ele><time>2026-05-03T07:08:31.161Z</time></trkpt><trkpt lat="43.0960468" lon="12.2057773"><ele>356.6666666666667</ele><time>2026-05-03T07:08:32.163Z</time></trkpt><trkpt lat="43.0959498" lon="12.2058381"><ele>359.5</ele><time>2026-05-03T07:08:34.16Z</time></trkpt><trkpt lat="43.0958942" lon="12.2059525"><ele>362.33333333333337</ele><time>2026-05-03T07:08:36.163Z</time></trkpt><trkpt lat="43.0958765" lon="12.2060378"><ele>365.1666666666667</ele><time>2026-05-03T07:08:37.162Z</time></trkpt><trkpt lat="43.0958633" lon="12.2061365"><ele>368.0</ele><time>2026-05-03T07:08:38.161Z</time></trkpt><trkpt lat="43.0958474" lon="12.2062225"><ele>368.0</ele><time>2026-05-03T07:08:39.163Z</time></trkpt><trkpt lat="43.0957937" lon="12.2063502"><ele>368.0</ele><time>2026-05-03T07:08:41.163Z</time></trkpt><trkpt lat="43.0957048" lon="12.2064601"><ele>368.0</ele><time>2026-05-03T07:08:43.164Z</time></trkpt><trkpt lat="43.0956208" lon="12.2065706"><ele>368.0</ele><time>2026-05-03T07:08:45.166Z</time></trkpt><trkpt lat="43.0955651" lon="12.2067226"><ele>371.33333333333337</ele><time>2026-05-03T07:08:47.165Z</time></trkpt><trkpt lat="43.0955137" lon="12.2068532"><ele>374.6666666666667</ele><time>2026-05-03T07:08:49.164Z</time></trkpt><trkpt lat="43.0954448" lon="12.2069391"><ele>378.0</ele><time>2026-05-03T07:08:51.16Z</time></trkpt><trkpt lat="43.0953732" lon="12.2069892"><ele>381.33333333333337</ele><time>2026-05-03T07:08:53.17Z</time></trkpt><trkpt lat="43.0952986" lon="12.2070539"><ele>384.6666666666667</ele><time>2026-05-03T07:08:56.171Z</time></trkpt><trkpt lat="43.0952281" lon="12.2070988"><ele>388.0</ele><time>2026-05-03T07:08:58.173Z</time></trkpt><trkpt lat="43.0951504" lon="12.2070859"><ele>388.0</ele><time>2026-05-03T07:09:00.174Z</time></trkpt><trkpt lat="43.0950864" lon="12.2070705"><ele>388.0</ele><time>2026-05-03T07:09:01.173Z</time></trkpt><trkpt lat="43.0949605" lon="12.2069441"><ele>388.0</ele><time>2026-05-03T07:09:04.174Z</time></trkpt><trkpt lat="43.0948509" lon="12.2068557"><ele>388.0</ele><time>2026-05-03T07:09:07.173Z</time></trkpt><trkpt lat="43.0947802" lon="12.2067956"><ele>388.0</ele><time>2026-05-03T07:09:09.172Z</time></trkpt><trkpt lat="43.0947229" lon="12.2067324"><ele>390.6666666666667</ele><time>2026-05-03T07:09:11.176Z</time></trkpt><trkpt lat="43.0946482" lon="12.2067105"><ele>393.33333333333337</ele><time>2026-05-03T07:09:13.174Z</time></trkpt><trkpt lat="43.0945799" lon="12.2066644"><ele>396.0</ele><time>2026-05-03T07:09:15.192Z</time></trkpt><trkpt lat="43.0945054" lon="12.2066535"><ele>398.66666666666663</ele><time>2026-05-03T07:09:17.174Z</time></trkpt><trkpt lat="43.0944409" lon="12.2066685"><ele>401.3333333333333</ele><time>2026-05-03T07:09:19.129Z</time></trkpt><trkpt lat="43.0943688" lon="12.2066719"><ele>404.0</ele><time>2026-05-03T07:09:21.173Z</time></trkpt><trkpt lat="43.0942835" lon="12.20665"><ele>404.0</ele><time>2026-05-03T07:09:24.174Z</time></trkpt><trkpt lat="43.0942" lon="12.206582"><ele>404.0</ele><time>2026-05-03T07:09:27.173Z</time></trkpt><trkpt lat="43.0941373" lon="12.2065492"><ele>404.0</ele><time>2026-05-03T07:09:29.149Z</time></trkpt><trkpt lat="43.0940614" lon="12.206474"><ele>404.0</ele><time>2026-05-03T07:09:31.151Z</time></trkpt><trkpt lat="43.0939726" lon="12.2063908"><ele>404.0</ele><time>2026-05-03T07:09:33.175Z</time></trkpt><trkpt lat="43.0938928" lon="12.2062949"><ele>400.49999999999994</ele><time>2026-05-03T07:09:35.173Z</time></trkpt><trkpt lat="43.0938182" lon="12.2061967"><ele>397.0</ele><time>2026-05-03T07:09:37.173Z</time></trkpt><trkpt lat="43.0937335" lon="12.2061694"><ele>393.5</ele><time>2026-05-03T07:09:39.176Z</time></trkpt><trkpt lat="43.0936632" lon="12.2061682"><ele>390.0</ele><time>2026-05-03T07:09:41.174Z</time></trkpt><trkpt lat="43.0935909" lon="12.2062424"><ele>386.5</ele><time>2026-05-03T07:10:27.09Z</time></trkpt><trkpt lat="43.0935219" lon="12.2063211"><ele>383.0</ele><time>2026-05-03T07:10:29.181Z</time></trkpt><trkpt lat="43.0934584" lon="12.2063783"><ele>383.0</ele><time>2026-05-03T07:10:31.184Z</time></trkpt><trkpt lat="43.0933744" lon="12.2064113"><ele>383.0</ele><time>2026-05-03T07:10:33.176Z</time></trkpt><trkpt lat="43.0933045" lon="12.2065015"><ele>383.0</ele><time>2026-05-03T07:10:35.163Z</time></trkpt><trkpt lat="43.0932302" lon="12.2065937"><ele>383.0</ele><time>2026-05-03T07:10:36.161Z</time></trkpt><trkpt lat="43.0931759" lon="12.206696"><ele>383.0</ele><time>2026-05-03T07:10:37.157Z</time></trkpt><trkpt lat="43.0931384" lon="12.2067912"><ele>385.79999999999995</ele><time>2026-05-03T07:10:38.159Z</time></trkpt><trkpt lat="43.0931145" lon="12.2068874"><ele>388.6</ele><time>2026-05-03T07:10:39.163Z</time></trkpt><trkpt lat="43.0930943" lon="12.2069783"><ele>391.4</ele><time>2026-05-03T07:10:40.164Z</time></trkpt><trkpt lat="43.0930382" lon="12.2071203"><ele>394.20000000000005</ele><time>2026-05-03T07:10:42.159Z</time></trkpt><trkpt lat="43.0929573" lon="12.2071767"><ele>397.0</ele><time>2026-05-03T07:10:44.165Z</time></trkpt><trkpt lat="43.092848" lon="12.2071264"><ele>397.0</ele><time>2026-05-03T07:10:46.157Z</time></trkpt><trkpt lat="43.0927493" lon="12.2070432"><ele>397.0</ele><time>2026-05-03T07:10:48.174Z</time></trkpt><trkpt lat="43.092661" lon="12.2069631"><ele>397.0</ele><time>2026-05-03T07:10:50.17Z</time></trkpt><trkpt lat="43.0925867" lon="12.2068813"><ele>397.0</ele><time>2026-05-03T07:10:52.173Z</time></trkpt><trkpt lat="43.0925393" lon="12.2067798"><ele>397.0</ele><time>2026-05-03T07:10:54.173Z</time></trkpt><trkpt lat="43.092457" lon="12.2066531"><ele>395.8</ele><time>2026-05-03T07:10:56.16Z</time></trkpt><trkpt lat="43.0924131" lon="12.2065908"><ele>394.6</ele><time>2026-05-03T07:10:57.159Z</time></trkpt><trkpt lat="43.0923454" lon="12.2064867"><ele>393.40000000000003</ele><time>2026-05-03T07:10:59.162Z</time></trkpt><trkpt lat="43.092306" lon="12.2063652"><ele>392.20000000000005</ele><time>2026-05-03T07:11:01.176Z</time></trkpt><trkpt lat="43.0922842" lon="12.2062153"><ele>391.0</ele><time>2026-05-03T07:11:03.163Z</time></trkpt><trkpt lat="43.0922543" lon="12.2060717"><ele>391.0</ele><time>2026-05-03T07:11:05.163Z</time></trkpt><trkpt lat="43.0921936" lon="12.2059558"><ele>391.0</ele><time>2026-05-03T07:11:07.171Z</time></trkpt><trkpt lat="43.092079" lon="12.205863"><ele>391.0</ele><time>2026-05-03T07:11:09.165Z</time></trkpt><trkpt lat="43.0920188" lon="12.205818"><ele>391.0</ele><time>2026-05-03T07:11:10.163Z</time></trkpt><trkpt lat="43.0919199" lon="12.2057678"><ele>391.0</ele><time>2026-05-03T07:11:12.163Z</time></trkpt><trkpt lat="43.0917961" lon="12.2057299"><ele>391.00000000000006</ele><time>2026-05-03T07:11:14.166Z</time></trkpt><trkpt lat="43.0917259" lon="12.20571"><ele>391.0</ele><time>2026-05-03T07:11:15.164Z</time></trkpt><trkpt lat="43.0916553" lon="12.2056776"><ele>391.0</ele><time>2026-05-03T07:11:16.16Z</time></trkpt><trkpt lat="43.0915923" lon="12.2056392"><ele>391.0</ele><time>2026-05-03T07:11:17.159Z</time></trkpt><trkpt lat="43.0915059" lon="12.2055138"><ele>391.00000000000006</ele><time>2026-05-03T07:11:19.196Z</time></trkpt><trkpt lat="43.0914659" lon="12.2054216"><ele>391.0</ele><time>2026-05-03T07:11:20.161Z</time></trkpt><trkpt lat="43.0914211" lon="12.2053089"><ele>391.6</ele><time>2026-05-03T07:11:21.165Z</time></trkpt><trkpt lat="43.0913682" lon="12.2051848"><ele>392.20000000000005</ele><time>2026-05-03T07:11:22.167Z</time></trkpt><trkpt lat="43.0913117" lon="12.2050632"><ele>392.79999999999995</ele><time>2026-05-03T07:11:23.166Z</time></trkpt><trkpt lat="43.0912599" lon="12.2049574"><ele>393.4</ele><time>2026-05-03T07:11:24.168Z</time></trkpt><trkpt lat="43.0912029" lon="12.204861"><ele>394.0</ele><time>2026-05-03T07:11:25.166Z</time></trkpt><trkpt lat="43.0911441" lon="12.2047849"><ele>392.57142857142856</ele><time>2026-05-03T07:11:26.163Z</time></trkpt><trkpt lat="43.0910848" lon="12.2047317"><ele>391.14285714285717</ele><time>2026-05-03T07:11:27.168Z</time></trkpt><trkpt lat="43.0910192" lon="12.2046985"><ele>389.71428571428567</ele><time>2026-05-03T07:11:28.165Z</time></trkpt><trkpt lat="43.0909418" lon="12.2046753"><ele>388.2857142857143</ele><time>2026-05-03T07:11:29.164Z</time></trkpt><trkpt lat="43.0908614" lon="12.2046487"><ele>386.85714285714283</ele><time>2026-05-03T07:11:30.168Z</time></trkpt><trkpt lat="43.0907875" lon="12.204629"><ele>385.4285714285714</ele><time>2026-05-03T07:11:31.167Z</time></trkpt><trkpt lat="43.0907234" lon="12.2046001"><ele>384.0</ele><time>2026-05-03T07:11:32.162Z</time></trkpt><trkpt lat="43.0906629" lon="12.2045662"><ele>383.99999999999994</ele><time>2026-05-03T07:11:33.159Z</time></trkpt><trkpt lat="43.0906007" lon="12.2045292"><ele>384.0</ele><time>2026-05-03T07:11:34.156Z</time></trkpt><trkpt lat="43.0905348" lon="12.204493"><ele>384.0</ele><time>2026-05-03T07:11:35.158Z</time></trkpt><trkpt lat="43.0904727" lon="12.2044561"><ele>384.0</ele><time>2026-05-03T07:11:36.16Z</time></trkpt><trkpt lat="43.0904127" lon="12.2044186"><ele>384.0</ele><time>2026-05-03T07:11:37.16Z</time></trkpt><trkpt lat="43.0903484" lon="12.2043793"><ele>383.99999999999994</ele><time>2026-05-03T07:11:38.159Z</time></trkpt><trkpt lat="43.0902756" lon="12.2043363"><ele>384.0</ele><time>2026-05-03T07:11:39.161Z</time></trkpt><trkpt lat="43.0902061" lon="12.2042806"><ele>384.0</ele><time>2026-05-03T07:11:40.164Z</time></trkpt><trkpt lat="43.090134" lon="12.2041974"><ele>384.0</ele><time>2026-05-03T07:11:41.167Z</time></trkpt><trkpt lat="43.0900598" lon="12.2040791"><ele>384.0</ele><time>2026-05-03T07:11:42.168Z</time></trkpt><trkpt lat="43.0899994" lon="12.2039699"><ele>384.0</ele><time>2026-05-03T07:11:43.168Z</time></trkpt><trkpt lat="43.0899522" lon="12.2038841"><ele>384.0</ele><time>2026-05-03T07:11:44.169Z</time></trkpt><trkpt lat="43.0899105" lon="12.2038129"><ele>382.5</ele><time>2026-05-03T07:11:45.168Z</time></trkpt><trkpt lat="43.0898658" lon="12.2037432"><ele>381.0</ele><time>2026-05-03T07:11:46.167Z</time></trkpt><trkpt lat="43.0898085" lon="12.203672"><ele>379.5</ele><time>2026-05-03T07:11:47.167Z</time></trkpt><trkpt lat="43.0897495" lon="12.2035951"><ele>378.0</ele><time>2026-05-03T07:11:48.162Z</time></trkpt><trkpt lat="43.0896872" lon="12.2035238"><ele>376.5</ele><time>2026-05-03T07:11:49.18Z</time></trkpt><trkpt lat="43.0896234" lon="12.2034548"><ele>375.0</ele><time>2026-05-03T07:11:50.171Z</time></trkpt><trkpt lat="43.0895581" lon="12.2033797"><ele>375.0</ele><time>2026-05-03T07:11:51.157Z</time></trkpt><trkpt lat="43.0894905" lon="12.2033083"><ele>375.0</ele><time>2026-05-03T07:11:52.175Z</time></trkpt><trkpt lat="43.0894183" lon="12.2032501"><ele>375.0</ele><time>2026-05-03T07:11:53.171Z</time></trkpt><trkpt lat="43.0893444" lon="12.2032111"><ele>375.0</ele><time>2026-05-03T07:11:54.162Z</time></trkpt><trkpt lat="43.0892599" lon="12.2031777"><ele>375.0</ele><time>2026-05-03T07:11:55.162Z</time></trkpt><trkpt lat="43.0891762" lon="12.2031456"><ele>375.0</ele><time>2026-05-03T07:11:56.16Z</time></trkpt><trkpt lat="43.0890891" lon="12.2031197"><ele>375.6666666666667</ele><time>2026-05-03T07:11:57.155Z</time></trkpt><trkpt lat="43.0890054" lon="12.2031056"><ele>376.3333333333333</ele><time>2026-05-03T07:11:58.158Z</time></trkpt><trkpt lat="43.0889305" lon="12.2031067"><ele>377.0</ele><time>2026-05-03T07:11:59.158Z</time></trkpt><trkpt lat="43.0888634" lon="12.2031304"><ele>377.66666666666663</ele><time>2026-05-03T07:12:00.161Z</time></trkpt><trkpt lat="43.0888" lon="12.2031675"><ele>378.3333333333333</ele><time>2026-05-03T07:12:01.156Z</time></trkpt><trkpt lat="43.0886937" lon="12.2032385"><ele>379.0</ele><time>2026-05-03T07:12:03.161Z</time></trkpt><trkpt lat="43.088618" lon="12.2031902"><ele>376.2</ele><time>2026-05-03T07:12:05.161Z</time></trkpt><trkpt lat="43.0885633" lon="12.2030332"><ele>373.4</ele><time>2026-05-03T07:12:07.161Z</time></trkpt><trkpt lat="43.0885357" lon="12.2029228"><ele>370.6</ele><time>2026-05-03T07:12:08.157Z</time></trkpt><trkpt lat="43.088505" lon="12.2028041"><ele>367.8</ele><time>2026-05-03T07:12:09.158Z</time></trkpt><trkpt lat="43.0884748" lon="12.2026886"><ele>365.0</ele><time>2026-05-03T07:12:10.159Z</time></trkpt><trkpt lat="43.0884426" lon="12.2025761"><ele>365.0</ele><time>2026-05-03T07:12:11.162Z</time></trkpt><trkpt lat="43.0884093" lon="12.2024669"><ele>365.0</ele><time>2026-05-03T07:12:12.164Z</time></trkpt><trkpt lat="43.0883767" lon="12.2023742"><ele>365.0</ele><time>2026-05-03T07:12:13.16Z</time></trkpt><trkpt lat="43.0883166" lon="12.2022476"><ele>365.0</ele><time>2026-05-03T07:12:15.165Z</time></trkpt><trkpt lat="43.0882967" lon="12.2021076"><ele>365.0</ele><time>2026-05-03T07:12:17.165Z</time></trkpt><trkpt lat="43.0882834" lon="12.2019492"><ele>364.0</ele><time>2026-05-03T07:12:19.169Z</time></trkpt><trkpt lat="43.0882387" lon="12.2018048"><ele>363.0</ele><time>2026-05-03T07:12:21.166Z</time></trkpt><trkpt lat="43.0881915" lon="12.2017455"><ele>362.0</ele><time>2026-05-03T07:12:22.169Z</time></trkpt><trkpt lat="43.0881205" lon="12.2016863"><ele>361.0</ele><time>2026-05-03T07:12:23.173Z</time></trkpt><trkpt lat="43.0880482" lon="12.2016265"><ele>360.0</ele><time>2026-05-03T07:12:24.175Z</time></trkpt><trkpt lat="43.087988" lon="12.2015565"><ele>359.0</ele><time>2026-05-03T07:12:25.173Z</time></trkpt><trkpt lat="43.0879443" lon="12.2014816"><ele>359.0</ele><time>2026-05-03T07:12:26.172Z</time></trkpt><trkpt lat="43.0879134" lon="12.2013932"><ele>359.0</ele><time>2026-05-03T07:12:27.17Z</time></trkpt><trkpt lat="43.0879028" lon="12.2012971"><ele>359.0</ele><time>2026-05-03T07:12:28.172Z</time></trkpt><trkpt lat="43.0879113" lon="12.2011875"><ele>359.0</ele><time>2026-05-03T07:12:29.169Z</time></trkpt><trkpt lat="43.0879305" lon="12.2010739"><ele>359.0</ele><time>2026-05-03T07:12:30.17Z</time></trkpt><trkpt lat="43.0879467" lon="12.2009584"><ele>359.0</ele><time>2026-05-03T07:12:31.172Z</time></trkpt><trkpt lat="43.087947" lon="12.2008327"><ele>359.0</ele><time>2026-05-03T07:12:32.168Z</time></trkpt><trkpt lat="43.0879267" lon="12.2006834"><ele>359.0</ele><time>2026-05-03T07:12:33.165Z</time></trkpt><trkpt lat="43.0879043" lon="12.2005145"><ele>359.0</ele><time>2026-05-03T07:12:34.162Z</time></trkpt><trkpt lat="43.0878887" lon="12.2003525"><ele>359.0</ele><time>2026-05-03T07:12:35.164Z</time></trkpt><trkpt lat="43.0878768" lon="12.2002133"><ele>357.79999999999995</ele><time>2026-05-03T07:12:36.166Z</time></trkpt><trkpt lat="43.0878703" lon="12.2001015"><ele>356.59999999999997</ele><time>2026-05-03T07:12:37.163Z</time></trkpt><trkpt lat="43.0878747" lon="12.1999447"><ele>355.4</ele><time>2026-05-03T07:12:39.163Z</time></trkpt><trkpt lat="43.0879428" lon="12.1998316"><ele>354.2</ele><time>2026-05-03T07:12:41.164Z</time></trkpt><trkpt lat="43.0880078" lon="12.1997284"><ele>353.0</ele><time>2026-05-03T07:12:43.167Z</time></trkpt><trkpt lat="43.0879961" lon="12.1996272"><ele>352.0</ele><time>2026-05-03T07:12:45.179Z</time></trkpt><trkpt lat="43.0878956" lon="12.1995281"><ele>351.0</ele><time>2026-05-03T07:12:47.167Z</time></trkpt><trkpt lat="43.0878394" lon="12.1994828"><ele>350.0</ele><time>2026-05-03T07:12:48.164Z</time></trkpt><trkpt lat="43.0877821" lon="12.1994337"><ele>349.0</ele><time>2026-05-03T07:12:49.16Z</time></trkpt><trkpt lat="43.0877295" lon="12.1993699"><ele>348.0</ele><time>2026-05-03T07:12:50.16Z</time></trkpt><trkpt lat="43.0876874" lon="12.1992926"><ele>347.0</ele><time>2026-05-03T07:12:51.173Z</time></trkpt><trkpt lat="43.0876592" lon="12.1991965"><ele>347.0</ele><time>2026-05-03T07:12:52.162Z</time></trkpt><trkpt lat="43.0876352" lon="12.1991095"><ele>347.0</ele><time>2026-05-03T07:12:53.161Z</time></trkpt><trkpt lat="43.0875629" lon="12.1990057"><ele>347.0</ele><time>2026-05-03T07:12:55.17Z</time></trkpt><trkpt lat="43.0874935" lon="12.1989953"><ele>347.0</ele><time>2026-05-03T07:12:56.168Z</time></trkpt><trkpt lat="43.0874099" lon="12.1989995"><ele>347.0</ele><time>2026-05-03T07:12:57.162Z</time></trkpt><trkpt lat="43.0873232" lon="12.1990147"><ele>347.0</ele><time>2026-05-03T07:12:58.172Z</time></trkpt><trkpt lat="43.0872411" lon="12.1990325"><ele>344.40000000000003</ele><time>2026-05-03T07:12:59.16Z</time></trkpt><trkpt lat="43.0871551" lon="12.1990496"><ele>341.8</ele><time>2026-05-03T07:13:00.162Z</time></trkpt><trkpt lat="43.0870667" lon="12.199063"><ele>339.2</ele><time>2026-05-03T07:13:01.157Z</time></trkpt><trkpt lat="43.08697" lon="12.1990739"><ele>336.6</ele><time>2026-05-03T07:13:02.16Z</time></trkpt><trkpt lat="43.0868552" lon="12.1990844"><ele>334.0</ele><time>2026-05-03T07:13:03.158Z</time></trkpt><trkpt lat="43.0867335" lon="12.1990912"><ele>334.0</ele><time>2026-05-03T07:13:04.154Z</time></trkpt><trkpt lat="43.0866042" lon="12.1990956"><ele>334.0</ele><time>2026-05-03T07:13:05.161Z</time></trkpt><trkpt lat="43.0864758" lon="12.1991047"><ele>334.0</ele><time>2026-05-03T07:13:06.156Z</time></trkpt><trkpt lat="43.0863457" lon="12.1991089"><ele>334.0</ele><time>2026-05-03T07:13:07.16Z</time></trkpt><trkpt lat="43.0862184" lon="12.1991019"><ele>330.25</ele><time>2026-05-03T07:13:08.16Z</time></trkpt><trkpt lat="43.0860903" lon="12.1990862"><ele>326.5</ele><time>2026-05-03T07:13:09.161Z</time></trkpt><trkpt lat="43.0859666" lon="12.1990681"><ele>322.75</ele><time>2026-05-03T07:13:10.16Z</time></trkpt><trkpt lat="43.0858424" lon="12.1990499"><ele>319.0</ele><time>2026-05-03T07:13:11.161Z</time></trkpt><trkpt lat="43.0857228" lon="12.1990322"><ele>316.8</ele><time>2026-05-03T07:13:12.162Z</time></trkpt><trkpt lat="43.0856092" lon="12.1990138"><ele>314.59999999999997</ele><time>2026-05-03T07:13:13.162Z</time></trkpt><trkpt lat="43.0855021" lon="12.1989915"><ele>312.4</ele><time>2026-05-03T07:13:14.164Z</time></trkpt><trkpt lat="43.085396" lon="12.1989666"><ele>310.2</ele><time>2026-05-03T07:13:15.17Z</time></trkpt><trkpt lat="43.0853014" lon="12.1989488"><ele>308.0</ele><time>2026-05-03T07:13:16.163Z</time></trkpt><trkpt lat="43.085214" lon="12.1989352"><ele>308.0</ele><time>2026-05-03T07:13:17.166Z</time></trkpt><trkpt lat="43.0851364" lon="12.1989202"><ele>308.0</ele><time>2026-05-03T07:13:18.165Z</time></trkpt><trkpt lat="43.0850335" lon="12.1988526"><ele>308.0</ele><time>2026-05-03T07:13:20.167Z</time></trkpt><trkpt lat="43.0850222" lon="12.198678"><ele>308.0</ele><time>2026-05-03T07:13:22.177Z</time></trkpt><trkpt lat="43.0850407" lon="12.1985755"><ele>308.0</ele><time>2026-05-03T07:13:23.161Z</time></trkpt><trkpt lat="43.085063" lon="12.1984665"><ele>308.0</ele><time>2026-05-03T07:13:24.162Z</time></trkpt><trkpt lat="43.085083" lon="12.1983595"><ele>308.0</ele><time>2026-05-03T07:13:25.162Z</time></trkpt><trkpt lat="43.0851009" lon="12.1982588"><ele>308.0</ele><time>2026-05-03T07:13:26.164Z</time></trkpt><trkpt lat="43.0851201" lon="12.1981679"><ele>308.0</ele><time>2026-05-03T07:13:27.164Z</time></trkpt><trkpt lat="43.0851401" lon="12.1980829"><ele>308.0</ele><time>2026-05-03T07:13:28.164Z</time></trkpt><trkpt lat="43.0851702" lon="12.1979512"><ele>308.0</ele><time>2026-05-03T07:13:30.163Z</time></trkpt><trkpt lat="43.0851802" lon="12.197866"><ele>310.6</ele><time>2026-05-03T07:13:32.175Z</time></trkpt><trkpt lat="43.0850941" lon="12.1978849"><ele>313.20000000000005</ele><time>2026-05-03T07:18:03.171Z</time></trkpt><trkpt lat="43.0849423" lon="12.1978763"><ele>315.8</ele><time>2026-05-03T07:18:05.172Z</time></trkpt><trkpt lat="43.0848769" lon="12.1978786"><ele>318.40000000000003</ele><time>2026-05-03T07:18:06.153Z</time></trkpt><trkpt lat="43.0848137" lon="12.197886"><ele>321.0</ele><time>2026-05-03T07:18:07.154Z</time></trkpt><trkpt lat="43.0846961" lon="12.1978874"><ele>321.0</ele><time>2026-05-03T07:18:09.157Z</time></trkpt><trkpt lat="43.0845801" lon="12.1978695"><ele>321.0</ele><time>2026-05-03T07:18:11.156Z</time></trkpt><trkpt lat="43.0844714" lon="12.197813"><ele>321.0</ele><time>2026-05-03T07:18:13.158Z</time></trkpt><trkpt lat="43.0843967" lon="12.1977517"><ele>321.0</ele><time>2026-05-03T07:18:14.151Z</time></trkpt><trkpt lat="43.0843153" lon="12.1976838"><ele>321.0</ele><time>2026-05-03T07:18:15.156Z</time></trkpt><trkpt lat="43.0842408" lon="12.1976225"><ele>321.0</ele><time>2026-05-03T07:18:16.152Z</time></trkpt><trkpt lat="43.0841723" lon="12.1975672"><ele>321.0</ele><time>2026-05-03T07:18:17.158Z</time></trkpt><trkpt lat="43.0841083" lon="12.1975187"><ele>321.0</ele><time>2026-05-03T07:18:18.153Z</time></trkpt><trkpt lat="43.0840008" lon="12.1974412"><ele>321.0</ele><time>2026-05-03T07:18:20.156Z</time></trkpt><trkpt lat="43.0839108" lon="12.1973746"><ele>321.0</ele><time>2026-05-03T07:18:22.155Z</time></trkpt><trkpt lat="43.0838148" lon="12.1973332"><ele>321.5</ele><time>2026-05-03T07:18:24.154Z</time></trkpt><trkpt lat="43.0836914" lon="12.1972763"><ele>322.0</ele><time>2026-05-03T07:18:26.154Z</time></trkpt><trkpt lat="43.0836343" lon="12.1972287"><ele>322.5</ele><time>2026-05-03T07:18:27.156Z</time></trkpt><trkpt lat="43.0835924" lon="12.1971643"><ele>323.0</ele><time>2026-05-03T07:18:28.161Z</time></trkpt><trkpt lat="43.0835738" lon="12.1970775"><ele>323.5</ele><time>2026-05-03T07:18:29.158Z</time></trkpt><trkpt lat="43.0835741" lon="12.1969837"><ele>324.0</ele><time>2026-05-03T07:18:30.163Z</time></trkpt><trkpt lat="43.0835859" lon="12.1968909"><ele>324.0</ele><time>2026-05-03T07:18:31.172Z</time></trkpt><trkpt lat="43.0836132" lon="12.1968119"><ele>324.0</ele><time>2026-05-03T07:18:32.157Z</time></trkpt><trkpt lat="43.0837225" lon="12.1967236"><ele>324.0</ele><time>2026-05-03T07:18:34.158Z</time></trkpt><trkpt lat="43.083809" lon="12.196703"><ele>324.0</ele><time>2026-05-03T07:18:35.156Z</time></trkpt><trkpt lat="43.0839003" lon="12.1966722"><ele>324.0</ele><time>2026-05-03T07:18:36.156Z</time></trkpt><trkpt lat="43.0839739" lon="12.1966311"><ele>324.0</ele><time>2026-05-03T07:18:37.156Z</time></trkpt><trkpt lat="43.0840247" lon="12.1965666"><ele>324.0</ele><time>2026-05-03T07:18:38.152Z</time></trkpt><trkpt lat="43.0840754" lon="12.1964724"><ele>324.0</ele><time>2026-05-03T07:18:39.156Z</time></trkpt><trkpt lat="43.0841323" lon="12.196392"><ele>324.0</ele><time>2026-05-03T07:18:40.157Z</time></trkpt><trkpt lat="43.0841953" lon="12.1963379"><ele>324.0</ele><time>2026-05-03T07:18:41.158Z</time></trkpt><trkpt lat="43.0843153" lon="12.196368"><ele>324.0</ele><time>2026-05-03T07:18:43.157Z</time></trkpt><trkpt lat="43.0843657" lon="12.1964584"><ele>326.3333333333333</ele><time>2026-05-03T07:18:44.155Z</time></trkpt><trkpt lat="43.0844009" lon="12.1965741"><ele>328.6666666666667</ele><time>2026-05-03T07:18:45.159Z</time></trkpt><trkpt lat="43.0844402" lon="12.1966433"><ele>331.0</ele><time>2026-05-03T07:18:46.157Z</time></trkpt><trkpt lat="43.0845386" lon="12.1966294"><ele>333.33333333333337</ele><time>2026-05-03T07:18:48.156Z</time></trkpt><trkpt lat="43.0845975" lon="12.1965759"><ele>335.6666666666667</ele><time>2026-05-03T07:18:49.165Z</time></trkpt><trkpt lat="43.0846499" lon="12.1965038"><ele>338.0</ele><time>2026-05-03T07:18:50.161Z</time></trkpt><trkpt lat="43.0846879" lon="12.1963396"><ele>340.2</ele><time>2026-05-03T07:18:52.164Z</time></trkpt><trkpt lat="43.0846712" lon="12.1962269"><ele>342.4</ele><time>2026-05-03T07:18:53.158Z</time></trkpt><trkpt lat="43.0846302" lon="12.1961081"><ele>344.59999999999997</ele><time>2026-05-03T07:18:54.156Z</time></trkpt><trkpt lat="43.0845723" lon="12.1959817"><ele>346.79999999999995</ele><time>2026-05-03T07:18:55.156Z</time></trkpt><trkpt lat="43.0845033" lon="12.1958502"><ele>349.0</ele><time>2026-05-03T07:18:56.153Z</time></trkpt><trkpt lat="43.0844331" lon="12.1957337"><ele>348.75</ele><time>2026-05-03T07:18:57.16Z</time></trkpt><trkpt lat="43.0843593" lon="12.1956226"><ele>348.5</ele><time>2026-05-03T07:18:58.159Z</time></trkpt><trkpt lat="43.0842734" lon="12.1955043"><ele>348.25</ele><time>2026-05-03T07:18:59.153Z</time></trkpt><trkpt lat="43.0841771" lon="12.1953785"><ele>348.0</ele><time>2026-05-03T07:19:00.156Z</time></trkpt><trkpt lat="43.0840799" lon="12.195261"><ele>348.0</ele><time>2026-05-03T07:19:01.152Z</time></trkpt><trkpt lat="43.0839875" lon="12.1951574"><ele>348.0</ele><time>2026-05-03T07:19:02.167Z</time></trkpt><trkpt lat="43.0839141" lon="12.1950707"><ele>348.0</ele><time>2026-05-03T07:19:03.15Z</time></trkpt><trkpt lat="43.0838468" lon="12.1949988"><ele>348.0</ele><time>2026-05-03T07:19:04.151Z</time></trkpt><trkpt lat="43.0837823" lon="12.1949354"><ele>348.0</ele><time>2026-05-03T07:19:05.156Z</time></trkpt><trkpt lat="43.0837317" lon="12.1948688"><ele>349.6666666666667</ele><time>2026-05-03T07:19:06.159Z</time></trkpt><trkpt lat="43.0836923" lon="12.19479"><ele>351.3333333333333</ele><time>2026-05-03T07:19:07.162Z</time></trkpt><trkpt lat="43.0836737" lon="12.1946712"><ele>353.0</ele><time>2026-05-03T07:19:08.161Z</time></trkpt><trkpt lat="43.0836815" lon="12.1945366"><ele>354.66666666666663</ele><time>2026-05-03T07:19:09.156Z</time></trkpt><trkpt lat="43.0837037" lon="12.1944087"><ele>356.3333333333333</ele><time>2026-05-03T07:19:10.155Z</time></trkpt><trkpt lat="43.0837278" lon="12.1943042"><ele>358.0</ele><time>2026-05-03T07:19:11.154Z</time></trkpt><trkpt lat="43.0837517" lon="12.194202"><ele>358.0</ele><time>2026-05-03T07:19:12.155Z</time></trkpt><trkpt lat="43.0837677" lon="12.1940863"><ele>358.0</ele><time>2026-05-03T07:19:13.155Z</time></trkpt><trkpt lat="43.0837761" lon="12.1939605"><ele>358.0</ele><time>2026-05-03T07:19:14.153Z</time></trkpt><trkpt lat="43.0837861" lon="12.1938387"><ele>358.0</ele><time>2026-05-03T07:19:15.155Z</time></trkpt><trkpt lat="43.0837993" lon="12.1937183"><ele>358.0</ele><time>2026-05-03T07:19:16.152Z</time></trkpt><trkpt lat="43.0838156" lon="12.1935911"><ele>360.0</ele><time>2026-05-03T07:19:17.151Z</time></trkpt><trkpt lat="43.0838318" lon="12.1934695"><ele>362.0</ele><time>2026-05-03T07:19:18.151Z</time></trkpt><trkpt lat="43.0838381" lon="12.1933632"><ele>364.0</ele><time>2026-05-03T07:19:19.16Z</time></trkpt><trkpt lat="43.0838407" lon="12.1932714"><ele>366.0</ele><time>2026-05-03T07:19:20.16Z</time></trkpt><trkpt lat="43.0838318" lon="12.1931827"><ele>368.0</ele><time>2026-05-03T07:19:21.159Z</time></trkpt><trkpt lat="43.0838042" lon="12.1930889"><ele>370.0</ele><time>2026-05-03T07:19:22.165Z</time></trkpt><trkpt lat="43.0837636" lon="12.1929853"><ele>371.8333333333333</ele><time>2026-05-03T07:19:23.161Z</time></trkpt><trkpt lat="43.0837273" lon="12.1928891"><ele>373.66666666666663</ele><time>2026-05-03T07:19:24.161Z</time></trkpt><trkpt lat="43.0836982" lon="12.1928034"><ele>375.5</ele><time>2026-05-03T07:19:25.161Z</time></trkpt><trkpt lat="43.0836335" lon="12.1926762"><ele>377.3333333333333</ele><time>2026-05-03T07:19:27.158Z</time></trkpt><trkpt lat="43.0835856" lon="12.1926044"><ele>379.1666666666667</ele><time>2026-05-03T07:19:28.162Z</time></trkpt><trkpt lat="43.0835459" lon="12.1925347"><ele>381.0</ele><time>2026-05-03T07:19:29.159Z</time></trkpt><trkpt lat="43.0835066" lon="12.1924646"><ele>381.0</ele><time>2026-05-03T07:19:30.16Z</time></trkpt><trkpt lat="43.0834642" lon="12.1923837"><ele>381.0</ele><time>2026-05-03T07:19:31.168Z</time></trkpt><trkpt lat="43.0834192" lon="12.1922888"><ele>381.0</ele><time>2026-05-03T07:19:32.161Z</time></trkpt><trkpt lat="43.0833687" lon="12.1922002"><ele>381.0</ele><time>2026-05-03T07:19:33.176Z</time></trkpt><trkpt lat="43.0833056" lon="12.1921169"><ele>381.0</ele><time>2026-05-03T07:19:34.164Z</time></trkpt><trkpt lat="43.0832354" lon="12.1920409"><ele>381.0</ele><time>2026-05-03T07:19:35.163Z</time></trkpt><trkpt lat="43.0831636" lon="12.1919842"><ele>382.4285714285714</ele><time>2026-05-03T07:19:36.164Z</time></trkpt><trkpt lat="43.0830912" lon="12.191941"><ele>383.8571428571429</ele><time>2026-05-03T07:19:37.166Z</time></trkpt><trkpt lat="43.0830287" lon="12.1919001"><ele>385.2857142857143</ele><time>2026-05-03T07:19:38.165Z</time></trkpt><trkpt lat="43.0829708" lon="12.1918606"><ele>386.71428571428567</ele><time>2026-05-03T07:19:39.165Z</time></trkpt><trkpt lat="43.0829116" lon="12.191824"><ele>388.1428571428571</ele><time>2026-05-03T07:19:40.162Z</time></trkpt><trkpt lat="43.0828494" lon="12.1917967"><ele>389.57142857142856</ele><time>2026-05-03T07:19:41.164Z</time></trkpt><trkpt lat="43.0827891" lon="12.1917686"><ele>391.0</ele><time>2026-05-03T07:19:42.163Z</time></trkpt><trkpt lat="43.0827272" lon="12.1917388"><ele>390.99999999999994</ele><time>2026-05-03T07:19:43.166Z</time></trkpt><trkpt lat="43.0826616" lon="12.1917081"><ele>391.0</ele><time>2026-05-03T07:19:44.165Z</time></trkpt><trkpt lat="43.0825951" lon="12.191671"><ele>391.0</ele><time>2026-05-03T07:19:45.167Z</time></trkpt><trkpt lat="43.0825325" lon="12.1916232"><ele>391.0</ele><time>2026-05-03T07:19:46.17Z</time></trkpt><trkpt lat="43.0824662" lon="12.1915685"><ele>391.0</ele><time>2026-05-03T07:19:47.173Z</time></trkpt><trkpt lat="43.0824007" lon="12.1915197"><ele>390.99999999999994</ele><time>2026-05-03T07:19:48.168Z</time></trkpt><trkpt lat="43.082334" lon="12.1914885"><ele>391.0</ele><time>2026-05-03T07:19:49.172Z</time></trkpt><trkpt lat="43.0822713" lon="12.1914615"><ele>391.6</ele><time>2026-05-03T07:19:50.166Z</time></trkpt><trkpt lat="43.0821833" lon="12.1913718"><ele>392.20000000000005</ele><time>2026-05-03T07:19:52.167Z</time></trkpt><trkpt lat="43.0821397" lon="12.1912446"><ele>392.79999999999995</ele><time>2026-05-03T07:19:54.172Z</time></trkpt><trkpt lat="43.0821065" lon="12.1911425"><ele>393.4</ele><time>2026-05-03T07:19:56.185Z</time></trkpt><trkpt lat="43.0820664" lon="12.1910048"><ele>394.0</ele><time>2026-05-03T07:19:58.172Z</time></trkpt><trkpt lat="43.0820402" lon="12.1909176"><ele>394.0</ele><time>2026-05-03T07:19:59.173Z</time></trkpt><trkpt lat="43.0820123" lon="12.1908293"><ele>394.0</ele><time>2026-05-03T07:20:00.176Z</time></trkpt><trkpt lat="43.0819809" lon="12.1907355"><ele>394.0</ele><time>2026-05-03T07:20:01.172Z</time></trkpt><trkpt lat="43.0819493" lon="12.1906457"><ele>394.0</ele><time>2026-05-03T07:20:02.17Z</time></trkpt><trkpt lat="43.081919" lon="12.190562"><ele>394.0</ele><time>2026-05-03T07:20:03.168Z</time></trkpt><trkpt lat="43.0818891" lon="12.1904812"><ele>394.0</ele><time>2026-05-03T07:20:04.185Z</time></trkpt><trkpt lat="43.0818578" lon="12.1904057"><ele>394.0</ele><time>2026-05-03T07:20:05.171Z</time></trkpt><trkpt lat="43.0818239" lon="12.1903329"><ele>395.0</ele><time>2026-05-03T07:20:06.169Z</time></trkpt><trkpt lat="43.0817725" lon="12.1901886"><ele>396.0</ele><time>2026-05-03T07:20:08.167Z</time></trkpt><trkpt lat="43.0817335" lon="12.1900436"><ele>397.0</ele><time>2026-05-03T07:20:10.164Z</time></trkpt><trkpt lat="43.0816651" lon="12.1898979"><ele>398.0</ele><time>2026-05-03T07:20:12.168Z</time></trkpt><trkpt lat="43.0816382" lon="12.1898144"><ele>399.0</ele><time>2026-05-03T07:20:13.171Z</time></trkpt><trkpt lat="43.0816123" lon="12.189725"><ele>401.3333333333333</ele><time>2026-05-03T07:20:14.17Z</time></trkpt><trkpt lat="43.0815822" lon="12.1896207"><ele>403.66666666666663</ele><time>2026-05-03T07:20:15.172Z</time></trkpt><trkpt lat="43.0815531" lon="12.1895257"><ele>406.0</ele><time>2026-05-03T07:20:16.171Z</time></trkpt><trkpt lat="43.081519" lon="12.189439"><ele>408.3333333333333</ele><time>2026-05-03T07:20:17.174Z</time></trkpt><trkpt lat="43.0814721" lon="12.1893053"><ele>410.66666666666663</ele><time>2026-05-03T07:20:19.179Z</time></trkpt><trkpt lat="43.0815082" lon="12.1892227"><ele>413.0</ele><time>2026-05-03T07:20:53.097Z</time></trkpt><trkpt lat="43.0814931" lon="12.1891116"><ele>413.4</ele><time>2026-05-03T07:20:55.18Z</time></trkpt><trkpt lat="43.0814809" lon="12.1889837"><ele>413.79999999999995</ele><time>2026-05-03T07:20:57.18Z</time></trkpt><trkpt lat="43.0814599" lon="12.1888515"><ele>414.2</ele><time>2026-05-03T07:20:59.179Z</time></trkpt><trkpt lat="43.0814156" lon="12.1887105"><ele>414.6</ele><time>2026-05-03T07:21:01.168Z</time></trkpt><trkpt lat="43.0813422" lon="12.188568"><ele>415.0</ele><time>2026-05-03T07:21:03.167Z</time></trkpt><trkpt lat="43.0812917" lon="12.1884263"><ele>415.0</ele><time>2026-05-03T07:21:05.164Z</time></trkpt><trkpt lat="43.0812638" lon="12.188342"><ele>415.0</ele><time>2026-05-03T07:21:06.176Z</time></trkpt><trkpt lat="43.0812424" lon="12.1882505"><ele>415.0</ele><time>2026-05-03T07:21:07.163Z</time></trkpt><trkpt lat="43.0812298" lon="12.1881595"><ele>415.0</ele><time>2026-05-03T07:21:08.167Z</time></trkpt><trkpt lat="43.0812187" lon="12.1880653"><ele>415.0</ele><time>2026-05-03T07:21:09.164Z</time></trkpt><trkpt lat="43.0812085" lon="12.1879655"><ele>415.0</ele><time>2026-05-03T07:21:10.165Z</time></trkpt><trkpt lat="43.0812015" lon="12.1878644"><ele>415.0</ele><time>2026-05-03T07:21:11.17Z</time></trkpt><trkpt lat="43.0811974" lon="12.1877754"><ele>412.6</ele><time>2026-05-03T07:21:12.168Z</time></trkpt><trkpt lat="43.0811999" lon="12.1876187"><ele>410.2</ele><time>2026-05-03T07:21:14.173Z</time></trkpt><trkpt lat="43.0812112" lon="12.1874733"><ele>407.79999999999995</ele><time>2026-05-03T07:21:16.181Z</time></trkpt><trkpt lat="43.081221" lon="12.1873157"><ele>405.4</ele><time>2026-05-03T07:21:18.168Z</time></trkpt><trkpt lat="43.0812345" lon="12.1871793"><ele>403.0</ele><time>2026-05-03T07:21:20.163Z</time></trkpt><trkpt lat="43.0812306" lon="12.1870729"><ele>401.83333333333337</ele><time>2026-05-03T07:21:22.179Z</time></trkpt><trkpt lat="43.0811743" lon="12.18702"><ele>400.6666666666667</ele><time>2026-05-03T07:21:24.173Z</time></trkpt><trkpt lat="43.0810862" lon="12.1869702"><ele>399.5</ele><time>2026-05-03T07:21:26.175Z</time></trkpt><trkpt lat="43.0810151" lon="12.1868984"><ele>398.33333333333337</ele><time>2026-05-03T07:21:35.119Z</time></trkpt><trkpt lat="43.080992" lon="12.1867945"><ele>397.1666666666667</ele><time>2026-05-03T07:21:37.181Z</time></trkpt><trkpt lat="43.0809991" lon="12.1866858"><ele>396.0</ele><time>2026-05-03T07:21:38.165Z</time></trkpt><trkpt lat="43.0810077" lon="12.1865983"><ele>396.75</ele><time>2026-05-03T07:21:39.17Z</time></trkpt><trkpt lat="43.0810572" lon="12.1864291"><ele>397.5</ele><time>2026-05-03T07:21:41.158Z</time></trkpt><trkpt lat="43.0811148" lon="12.1862836"><ele>398.25</ele><time>2026-05-03T07:21:44.171Z</time></trkpt><trkpt lat="43.0811418" lon="12.1861898"><ele>399.0</ele><time>2026-05-03T07:21:46.14Z</time></trkpt><trkpt lat="43.0812044" lon="12.1859569"><ele>399.0</ele><time>2026-05-03T07:21:49.164Z</time></trkpt><trkpt lat="43.0812329" lon="12.1858683"><ele>399.0</ele><time>2026-05-03T07:21:50.162Z</time></trkpt><trkpt lat="43.0812621" lon="12.1857918"><ele>399.0</ele><time>2026-05-03T07:21:51.163Z</time></trkpt><trkpt lat="43.0813252" lon="12.1856745"><ele>399.0</ele><time>2026-05-03T07:21:53.157Z</time></trkpt><trkpt lat="43.0813622" lon="12.1855677"><ele>399.0</ele><time>2026-05-03T07:21:55.158Z</time></trkpt><trkpt lat="43.0813641" lon="12.185472"><ele>399.0</ele><time>2026-05-03T07:21:57.166Z</time></trkpt><trkpt lat="43.0813456" lon="12.1853753"><ele>399.8333333333333</ele><time>2026-05-03T07:21:59.176Z</time></trkpt><trkpt lat="43.0813052" lon="12.1852791"><ele>400.66666666666663</ele><time>2026-05-03T07:22:01.172Z</time></trkpt><trkpt lat="43.0812895" lon="12.1851743"><ele>401.5</ele><time>2026-05-03T07:22:03.168Z</time></trkpt><trkpt lat="43.081278" lon="12.1850809"><ele>402.3333333333333</ele><time>2026-05-03T07:22:04.16Z</time></trkpt><trkpt lat="43.0812675" lon="12.1849942"><ele>403.16666666666663</ele><time>2026-05-03T07:22:05.159Z</time></trkpt><trkpt lat="43.0812637" lon="12.184852"><ele>404.0</ele><time>2026-05-03T07:22:07.16Z</time></trkpt><trkpt lat="43.08128" lon="12.1847084"><ele>404.79999999999995</ele><time>2026-05-03T07:22:09.168Z</time></trkpt><trkpt lat="43.0813179" lon="12.1845585"><ele>405.59999999999997</ele><time>2026-05-03T07:22:11.16Z</time></trkpt><trkpt lat="43.0813503" lon="12.1844173"><ele>406.4</ele><time>2026-05-03T07:22:13.173Z</time></trkpt><trkpt lat="43.0814158" lon="12.1842648"><ele>407.2</ele><time>2026-05-03T07:22:16.109Z</time></trkpt><trkpt lat="43.0814649" lon="12.1841602"><ele>408.0</ele><time>2026-05-03T07:22:18.152Z</time></trkpt><trkpt lat="43.0814993" lon="12.1840722"><ele>408.0</ele><time>2026-05-03T07:22:20.175Z</time></trkpt><trkpt lat="43.0815061" lon="12.1839668"><ele>408.0</ele><time>2026-05-03T07:22:22.171Z</time></trkpt><trkpt lat="43.0814708" lon="12.1838438"><ele>408.0</ele><time>2026-05-03T07:22:24.172Z</time></trkpt><trkpt lat="43.0814072" lon="12.1837103"><ele>408.0</ele><time>2026-05-03T07:22:26.161Z</time></trkpt><trkpt lat="43.0813429" lon="12.1835889"><ele>408.0</ele><time>2026-05-03T07:22:28.161Z</time></trkpt><trkpt lat="43.0812797" lon="12.1834649"><ele>408.0</ele><time>2026-05-03T07:22:30.166Z</time></trkpt><trkpt lat="43.0812421" lon="12.1833644"><ele>408.0</ele><time>2026-05-03T07:22:32.174Z</time></trkpt><trkpt lat="43.0812453" lon="12.1832522"><ele>408.0</ele><time>2026-05-03T07:22:34.175Z</time></trkpt><trkpt lat="43.0812962" lon="12.1831465"><ele>408.0</ele><time>2026-05-03T07:22:36.174Z</time></trkpt><trkpt lat="43.081355" lon="12.1830968"><ele>408.0</ele><time>2026-05-03T07:22:38.174Z</time></trkpt><trkpt lat="43.0814556" lon="12.1830391"><ele>408.0</ele><time>2026-05-03T07:22:40.169Z</time></trkpt><trkpt lat="43.0815077" lon="12.1829781"><ele>407.79999999999995</ele><time>2026-05-03T07:22:41.159Z</time></trkpt><trkpt lat="43.0815855" lon="12.1828607"><ele>407.6</ele><time>2026-05-03T07:22:43.158Z</time></trkpt><trkpt lat="43.0816621" lon="12.1827638"><ele>407.4</ele><time>2026-05-03T07:22:45.161Z</time></trkpt><trkpt lat="43.0817336" lon="12.1826722"><ele>407.20000000000005</ele><time>2026-05-03T07:22:47.167Z</time></trkpt><trkpt lat="43.0817916" lon="12.1825762"><ele>407.0</ele><time>2026-05-03T07:22:49.177Z</time></trkpt><trkpt lat="43.0818712" lon="12.18246"><ele>403.0</ele><time>2026-05-03T07:22:52.171Z</time></trkpt><trkpt lat="43.0819442" lon="12.1823726"><ele>399.0</ele><time>2026-05-03T07:22:54.173Z</time></trkpt><trkpt lat="43.0820188" lon="12.1823008"><ele>395.0</ele><time>2026-05-03T07:22:56.174Z</time></trkpt><trkpt lat="43.0821007" lon="12.1822025"><ele>391.0</ele><time>2026-05-03T07:22:58.162Z</time></trkpt><trkpt lat="43.0821885" lon="12.1821232"><ele>387.0</ele><time>2026-05-03T07:23:00.164Z</time></trkpt><trkpt lat="43.0822848" lon="12.18205"><ele>385.8</ele><time>2026-05-03T07:23:02.161Z</time></trkpt><trkpt lat="43.0823696" lon="12.1819808"><ele>384.6</ele><time>2026-05-03T07:23:04.164Z</time></trkpt><trkpt lat="43.0824477" lon="12.1819416"><ele>383.40000000000003</ele><time>2026-05-03T07:23:06.174Z</time></trkpt><trkpt lat="43.0825365" lon="12.1819152"><ele>382.20000000000005</ele><time>2026-05-03T07:23:08.174Z</time></trkpt><trkpt lat="43.0826234" lon="12.1818757"><ele>381.0</ele><time>2026-05-03T07:23:10.186Z</time></trkpt><trkpt lat="43.0827017" lon="12.1818072"><ele>378.6</ele><time>2026-05-03T07:23:13.176Z</time></trkpt><trkpt lat="43.0827306" lon="12.1817099"><ele>376.20000000000005</ele><time>2026-05-03T07:23:15.178Z</time></trkpt><trkpt lat="43.0828169" lon="12.181722"><ele>373.79999999999995</ele><time>2026-05-03T07:23:18.175Z</time></trkpt><trkpt lat="43.0828912" lon="12.1817005"><ele>371.4</ele><time>2026-05-03T07:23:23.127Z</time></trkpt><trkpt lat="43.0830203" lon="12.181693"><ele>369.0</ele><time>2026-05-03T07:23:24.163Z</time></trkpt><trkpt lat="43.0831037" lon="12.1816854"><ele>369.0</ele><time>2026-05-03T07:23:25.165Z</time></trkpt><trkpt lat="43.0831808" lon="12.1816776"><ele>369.0</ele><time>2026-05-03T07:23:26.168Z</time></trkpt><trkpt lat="43.0832502" lon="12.1816657"><ele>369.0</ele><time>2026-05-03T07:23:27.17Z</time></trkpt><trkpt lat="43.0833131" lon="12.1816509"><ele>369.0</ele><time>2026-05-03T07:23:28.171Z</time></trkpt><trkpt lat="43.0834336" lon="12.1816183"><ele>369.0</ele><time>2026-05-03T07:23:30.172Z</time></trkpt><trkpt lat="43.0835478" lon="12.181567"><ele>366.2</ele><time>2026-05-03T07:23:32.164Z</time></trkpt><trkpt lat="43.0836571" lon="12.1815211"><ele>363.4</ele><time>2026-05-03T07:23:34.168Z</time></trkpt><trkpt lat="43.0837605" lon="12.1814599"><ele>360.6</ele><time>2026-05-03T07:23:36.167Z</time></trkpt><trkpt lat="43.0838578" lon="12.1813745"><ele>357.8</ele><time>2026-05-03T07:23:38.166Z</time></trkpt><trkpt lat="43.0839491" lon="12.1812986"><ele>355.0</ele><time>2026-05-03T07:23:40.168Z</time></trkpt><trkpt lat="43.0840502" lon="12.1812465"><ele>351.6</ele><time>2026-05-03T07:23:42.167Z</time></trkpt><trkpt lat="43.0841523" lon="12.1811852"><ele>348.2</ele><time>2026-05-03T07:23:44.167Z</time></trkpt><trkpt lat="43.0842566" lon="12.181119"><ele>344.79999999999995</ele><time>2026-05-03T07:23:46.165Z</time></trkpt><trkpt lat="43.0843409" lon="12.1810823"><ele>341.4</ele><time>2026-05-03T07:23:48.167Z</time></trkpt><trkpt lat="43.0843761" lon="12.1809594"><ele>338.0</ele><time>2026-05-03T07:23:52.183Z</time></trkpt><trkpt lat="43.0843856" lon="12.1808538"><ele>338.0</ele><time>2026-05-03T07:23:54.178Z</time></trkpt><trkpt lat="43.0843511" lon="12.1807687"><ele>338.0</ele><time>2026-05-03T07:23:57.175Z</time></trkpt><trkpt lat="43.0842663" lon="12.1807509"><ele>338.0</ele><time>2026-05-03T07:24:00.178Z</time></trkpt><trkpt lat="43.0842036" lon="12.1807615"><ele>338.0</ele><time>2026-05-03T07:24:01.177Z</time></trkpt><trkpt lat="43.0841278" lon="12.1807615"><ele>338.0</ele><time>2026-05-03T07:24:02.158Z</time></trkpt><trkpt lat="43.0840509" lon="12.1807537"><ele>338.0</ele><time>2026-05-03T07:24:03.162Z</time></trkpt><trkpt lat="43.0839742" lon="12.1807501"><ele>340.2</ele><time>2026-05-03T07:24:04.164Z</time></trkpt><trkpt lat="43.083893" lon="12.1807458"><ele>342.4</ele><time>2026-05-03T07:24:05.162Z</time></trkpt><trkpt lat="43.0838032" lon="12.1807379"><ele>344.59999999999997</ele><time>2026-05-03T07:24:06.169Z</time></trkpt><trkpt lat="43.0837074" lon="12.1807349"><ele>346.79999999999995</ele><time>2026-05-03T07:24:07.162Z</time></trkpt><trkpt lat="43.0836071" lon="12.1807335"><ele>349.0</ele><time>2026-05-03T07:24:08.165Z</time></trkpt><trkpt lat="43.0835059" lon="12.1807308"><ele>349.0</ele><time>2026-05-03T07:24:09.169Z</time></trkpt><trkpt lat="43.083415" lon="12.1807241"><ele>349.0</ele><time>2026-05-03T07:24:10.164Z</time></trkpt><trkpt lat="43.0833353" lon="12.1807117"><ele>349.0</ele><time>2026-05-03T07:24:11.167Z</time></trkpt><trkpt lat="43.0832649" lon="12.1806904"><ele>349.0</ele><time>2026-05-03T07:24:12.175Z</time></trkpt><trkpt lat="43.0831833" lon="12.180665"><ele>349.0</ele><time>2026-05-03T07:24:13.16Z</time></trkpt><trkpt lat="43.0830956" lon="12.1806346"><ele>349.0</ele><time>2026-05-03T07:24:14.161Z</time></trkpt><trkpt lat="43.0830146" lon="12.1806044"><ele>347.0</ele><time>2026-05-03T07:24:15.166Z</time></trkpt><trkpt lat="43.0829503" lon="12.1805757"><ele>345.0</ele><time>2026-05-03T07:24:16.156Z</time></trkpt><trkpt lat="43.0828442" lon="12.1805333"><ele>343.0</ele><time>2026-05-03T07:24:18.157Z</time></trkpt><trkpt lat="43.0827744" lon="12.1805078"><ele>341.0</ele><time>2026-05-03T07:24:20.148Z</time></trkpt><trkpt lat="43.0826837" lon="12.1804696"><ele>339.0</ele><time>2026-05-03T07:24:23.165Z</time></trkpt><trkpt lat="43.0825593" lon="12.1804304"><ele>339.0</ele><time>2026-05-03T07:24:25.153Z</time></trkpt><trkpt lat="43.0824796" lon="12.1804228"><ele>339.0</ele><time>2026-05-03T07:24:26.155Z</time></trkpt><trkpt lat="43.0823924" lon="12.1804164"><ele>339.0</ele><time>2026-05-03T07:24:27.153Z</time></trkpt><trkpt lat="43.0823025" lon="12.1804057"><ele>339.0</ele><time>2026-05-03T07:24:28.156Z</time></trkpt><trkpt lat="43.0822124" lon="12.180401"><ele>339.0</ele><time>2026-05-03T07:24:29.156Z</time></trkpt><trkpt lat="43.0821346" lon="12.1804038"><ele>339.0</ele><time>2026-05-03T07:24:30.153Z</time></trkpt><trkpt lat="43.0820638" lon="12.180399"><ele>342.4</ele><time>2026-05-03T07:24:31.152Z</time></trkpt><trkpt lat="43.0819624" lon="12.180357"><ele>345.79999999999995</ele><time>2026-05-03T07:24:33.157Z</time></trkpt><trkpt lat="43.0818888" lon="12.1802479"><ele>349.20000000000005</ele><time>2026-05-03T07:24:41.165Z</time></trkpt><trkpt lat="43.0818047" lon="12.1802347"><ele>352.6</ele><time>2026-05-03T07:24:43.182Z</time></trkpt><trkpt lat="43.08174" lon="12.1802337"><ele>356.0</ele><time>2026-05-03T07:24:47.168Z</time></trkpt><trkpt lat="43.0816318" lon="12.1802069"><ele>359.1428571428571</ele><time>2026-05-03T07:24:50.165Z</time></trkpt><trkpt lat="43.0815469" lon="12.1802109"><ele>362.2857142857143</ele><time>2026-05-03T07:24:52.167Z</time></trkpt><trkpt lat="43.0814758" lon="12.1801988"><ele>365.42857142857144</ele><time>2026-05-03T07:24:54.17Z</time></trkpt><trkpt lat="43.0814203" lon="12.1801308"><ele>368.57142857142856</ele><time>2026-05-03T07:25:44.186Z</time></trkpt><trkpt lat="43.0813945" lon="12.1800453"><ele>371.7142857142857</ele><time>2026-05-03T07:25:47.186Z</time></trkpt><trkpt lat="43.0814643" lon="12.1800626"><ele>374.85714285714283</ele><time>2026-05-03T07:26:32.176Z</time></trkpt><trkpt lat="43.081497" lon="12.180151"><ele>378.0</ele><time>2026-05-03T07:26:36.178Z</time></trkpt><trkpt lat="43.0814052" lon="12.180271"><ele>378.0</ele><time>2026-05-03T07:26:54.186Z</time></trkpt><trkpt lat="43.0813166" lon="12.1803265"><ele>378.0</ele><time>2026-05-03T07:26:55.179Z</time></trkpt><trkpt lat="43.0812461" lon="12.1803674"><ele>378.0</ele><time>2026-05-03T07:26:56.172Z</time></trkpt><trkpt lat="43.0811854" lon="12.1804041"><ele>378.0</ele><time>2026-05-03T07:26:57.17Z</time></trkpt><trkpt lat="43.0811289" lon="12.1804447"><ele>378.0</ele><time>2026-05-03T07:26:58.17Z</time></trkpt><trkpt lat="43.0810722" lon="12.1804914"><ele>378.0</ele><time>2026-05-03T07:26:59.168Z</time></trkpt><trkpt lat="43.0810117" lon="12.1805278"><ele>378.0</ele><time>2026-05-03T07:27:00.17Z</time></trkpt><trkpt lat="43.080896" lon="12.1805645"><ele>378.0</ele><time>2026-05-03T07:27:02.167Z</time></trkpt><trkpt lat="43.080802" lon="12.1806027"><ele>378.0</ele><time>2026-05-03T07:27:04.172Z</time></trkpt><trkpt lat="43.0807209" lon="12.1806642"><ele>378.0</ele><time>2026-05-03T07:27:06.168Z</time></trkpt><trkpt lat="43.080634" lon="12.180736"><ele>378.0</ele><time>2026-05-03T07:27:08.17Z</time></trkpt><trkpt lat="43.0805364" lon="12.1807975"><ele>378.0</ele><time>2026-05-03T07:27:10.171Z</time></trkpt><trkpt lat="43.0804494" lon="12.1808586"><ele>381.8333333333333</ele><time>2026-05-03T07:27:12.171Z</time></trkpt><trkpt lat="43.0803949" lon="12.1809283"><ele>385.66666666666663</ele><time>2026-05-03T07:27:14.18Z</time></trkpt><trkpt lat="43.0803544" lon="12.1809983"><ele>389.5</ele><time>2026-05-03T07:27:16.184Z</time></trkpt><trkpt lat="43.0803033" lon="12.1810494"><ele>393.3333333333333</ele><time>2026-05-03T07:27:18.181Z</time></trkpt><trkpt lat="43.0802179" lon="12.1810816"><ele>397.16666666666663</ele><time>2026-05-03T07:27:23.178Z</time></trkpt><trkpt lat="43.0801261" lon="12.1811107"><ele>401.0</ele><time>2026-05-03T07:27:25.175Z</time></trkpt><trkpt lat="43.0800239" lon="12.1811582"><ele>406.4</ele><time>2026-05-03T07:27:27.168Z</time></trkpt><trkpt lat="43.0799132" lon="12.1811786"><ele>411.8</ele><time>2026-05-03T07:27:29.159Z</time></trkpt><trkpt lat="43.0797908" lon="12.1811535"><ele>417.19999999999993</ele><time>2026-05-03T07:27:31.169Z</time></trkpt><trkpt lat="43.0797264" lon="12.1811389"><ele>422.59999999999997</ele><time>2026-05-03T07:27:32.168Z</time></trkpt><trkpt lat="43.0796155" lon="12.1811275"><ele>428.0</ele><time>2026-05-03T07:27:34.179Z</time></trkpt><trkpt lat="43.0795519" lon="12.1811312"><ele>427.99999999999994</ele><time>2026-05-03T07:27:37.18Z</time></trkpt><trkpt lat="43.0794939" lon="12.1810707"><ele>428.0</ele><time>2026-05-03T07:28:08.184Z</time></trkpt><trkpt lat="43.0794196" lon="12.1810449"><ele>428.0</ele><time>2026-05-03T07:28:10.176Z</time></trkpt><trkpt lat="43.0793281" lon="12.1810124"><ele>428.0</ele><time>2026-05-03T07:28:12.183Z</time></trkpt><trkpt lat="43.0792336" lon="12.1810129"><ele>427.99999999999994</ele><time>2026-05-03T07:28:14.183Z</time></trkpt><trkpt lat="43.0791542" lon="12.1810062"><ele>428.0</ele><time>2026-05-03T07:28:16.184Z</time></trkpt><trkpt lat="43.0790706" lon="12.1809958"><ele>427.99999999999994</ele><time>2026-05-03T07:28:18.185Z</time></trkpt><trkpt lat="43.0790018" lon="12.1809794"><ele>428.0</ele><time>2026-05-03T07:28:23.189Z</time></trkpt><trkpt lat="43.0790657" lon="12.1809935"><ele>428.0</ele><time>2026-05-03T07:30:41.177Z</time></trkpt><trkpt lat="43.0791095" lon="12.1810808"><ele>428.0</ele><time>2026-05-03T07:30:46.171Z</time></trkpt><trkpt lat="43.0791302" lon="12.1809861"><ele>427.99999999999994</ele><time>2026-05-03T07:32:22.175Z</time></trkpt><trkpt lat="43.0791536" lon="12.1808834"><ele>428.0</ele><time>2026-05-03T07:32:26.181Z</time></trkpt><trkpt lat="43.0792348" lon="12.1808359"><ele>428.00000000000006</ele><time>2026-05-03T07:32:30.169Z</time></trkpt><trkpt lat="43.079301" lon="12.180838"><ele>428.0</ele><time>2026-05-03T07:32:32.166Z</time></trkpt><trkpt lat="43.0793782" lon="12.1808562"><ele>428.0</ele><time>2026-05-03T07:32:34.169Z</time></trkpt><trkpt lat="43.079456" lon="12.1808763"><ele>428.0</ele><time>2026-05-03T07:32:36.169Z</time></trkpt><trkpt lat="43.0795208" lon="12.1808923"><ele>428.0</ele><time>2026-05-03T07:32:38.168Z</time></trkpt><trkpt lat="43.0795936" lon="12.1809383"><ele>428.00000000000006</ele><time>2026-05-03T07:32:41.172Z</time></trkpt><trkpt lat="43.0796594" lon="12.1809831"><ele>428.0</ele><time>2026-05-03T07:32:44.106Z</time></trkpt><trkpt lat="43.0797304" lon="12.1810294"><ele>427.99999999999994</ele><time>2026-05-03T07:32:48.172Z</time></trkpt><trkpt lat="43.0798045" lon="12.181018"><ele>428.0</ele><time>2026-05-03T07:32:54.171Z</time></trkpt><trkpt lat="43.079872" lon="12.1810264"><ele>428.0</ele><time>2026-05-03T07:32:58.168Z</time></trkpt><trkpt lat="43.0799517" lon="12.181049"><ele>428.0</ele><time>2026-05-03T07:33:01.167Z</time></trkpt><trkpt lat="43.0800206" lon="12.1810407"><ele>427.99999999999994</ele><time>2026-05-03T07:33:04.166Z</time></trkpt><trkpt lat="43.0800821" lon="12.1810012"><ele>428.0</ele><time>2026-05-03T07:33:07.166Z</time></trkpt><trkpt lat="43.0801631" lon="12.1809378"><ele>424.3333333333333</ele><time>2026-05-03T07:33:10.166Z</time></trkpt><trkpt lat="43.080248" lon="12.1809124"><ele>420.66666666666663</ele><time>2026-05-03T07:33:13.169Z</time></trkpt><trkpt lat="43.0803344" lon="12.1808887"><ele>417.0</ele><time>2026-05-03T07:33:16.172Z</time></trkpt><trkpt lat="43.0804072" lon="12.1808357"><ele>413.33333333333337</ele><time>2026-05-03T07:33:19.171Z</time></trkpt><trkpt lat="43.0804522" lon="12.1807649"><ele>409.6666666666667</ele><time>2026-05-03T07:33:22.166Z</time></trkpt><trkpt lat="43.0804838" lon="12.1806827"><ele>406.0</ele><time>2026-05-03T07:33:25.167Z</time></trkpt><trkpt lat="43.0805393" lon="12.1806166"><ele>406.0</ele><time>2026-05-03T07:33:28.183Z</time></trkpt><trkpt lat="43.0806244" lon="12.1806096"><ele>406.0</ele><time>2026-05-03T07:33:31.165Z</time></trkpt><trkpt lat="43.0806834" lon="12.1805714"><ele>406.0</ele><time>2026-05-03T07:33:33.161Z</time></trkpt><trkpt lat="43.0807431" lon="12.1805229"><ele>406.0</ele><time>2026-05-03T07:33:35.163Z</time></trkpt><trkpt lat="43.0808051" lon="12.1804811"><ele>406.0</ele><time>2026-05-03T07:33:37.162Z</time></trkpt><trkpt lat="43.0808691" lon="12.1804545"><ele>406.0</ele><time>2026-05-03T07:33:39.166Z</time></trkpt><trkpt lat="43.0809349" lon="12.1804356"><ele>406.0</ele><time>2026-05-03T07:33:41.165Z</time></trkpt><trkpt lat="43.0810027" lon="12.1804019"><ele>401.33333333333337</ele><time>2026-05-03T07:33:43.166Z</time></trkpt><trkpt lat="43.0810648" lon="12.1803656"><ele>396.6666666666667</ele><time>2026-05-03T07:33:45.173Z</time></trkpt><trkpt lat="43.0811252" lon="12.1803304"><ele>392.0</ele><time>2026-05-03T07:33:47.171Z</time></trkpt><trkpt lat="43.0811851" lon="12.1802717"><ele>387.33333333333337</ele><time>2026-05-03T07:33:49.167Z</time></trkpt><trkpt lat="43.0812545" lon="12.1802202"><ele>382.6666666666667</ele><time>2026-05-03T07:33:51.071Z</time></trkpt><trkpt lat="43.0813364" lon="12.1801854"><ele>378.0</ele><time>2026-05-03T07:33:53.081Z</time></trkpt><trkpt lat="43.0814227" lon="12.1801595"><ele>378.0</ele><time>2026-05-03T07:33:55.165Z</time></trkpt><trkpt lat="43.081492" lon="12.1801013"><ele>378.0</ele><time>2026-05-03T07:33:57.164Z</time></trkpt><trkpt lat="43.0815574" lon="12.1801029"><ele>378.0</ele><time>2026-05-03T07:33:59.181Z</time></trkpt><trkpt lat="43.0816437" lon="12.1800983"><ele>378.0</ele><time>2026-05-03T07:34:02.165Z</time></trkpt><trkpt lat="43.0817196" lon="12.1801185"><ele>378.0</ele><time>2026-05-03T07:34:04.169Z</time></trkpt><trkpt lat="43.0818011" lon="12.1801117"><ele>378.0</ele><time>2026-05-03T07:34:06.168Z</time></trkpt><trkpt lat="43.0818784" lon="12.1801445"><ele>374.3333333333333</ele><time>2026-05-03T07:34:08.166Z</time></trkpt><trkpt lat="43.0819531" lon="12.1802057"><ele>370.6666666666667</ele><time>2026-05-03T07:34:10.166Z</time></trkpt><trkpt lat="43.082021" lon="12.1802369"><ele>367.0</ele><time>2026-05-03T07:34:12.162Z</time></trkpt><trkpt lat="43.0820678" lon="12.1801609"><ele>363.33333333333337</ele><time>2026-05-03T07:34:15.144Z</time></trkpt><trkpt lat="43.0820105" lon="12.1801155"><ele>359.6666666666667</ele><time>2026-05-03T07:34:44.171Z</time></trkpt><trkpt lat="43.0819329" lon="12.1800348"><ele>356.0</ele><time>2026-05-03T07:34:46.167Z</time></trkpt><trkpt lat="43.0818638" lon="12.1799287"><ele>356.5</ele><time>2026-05-03T07:34:48.174Z</time></trkpt><trkpt lat="43.0818126" lon="12.1798179"><ele>357.0</ele><time>2026-05-03T07:34:50.167Z</time></trkpt><trkpt lat="43.0817761" lon="12.1797027"><ele>357.5</ele><time>2026-05-03T07:34:52.169Z</time></trkpt><trkpt lat="43.0817327" lon="12.1795931"><ele>358.0</ele><time>2026-05-03T07:34:54.172Z</time></trkpt><trkpt lat="43.0816831" lon="12.1794975"><ele>358.5</ele><time>2026-05-03T07:34:56.16Z</time></trkpt><trkpt lat="43.081625" lon="12.1794349"><ele>359.0</ele><time>2026-05-03T07:34:58.165Z</time></trkpt><trkpt lat="43.0815554" lon="12.1794991"><ele>365.0</ele><time>2026-05-03T07:35:01.176Z</time></trkpt><trkpt lat="43.0814847" lon="12.1795794"><ele>371.0</ele><time>2026-05-03T07:35:03.16Z</time></trkpt><trkpt lat="43.0814346" lon="12.1796331"><ele>377.0</ele><time>2026-05-03T07:35:04.163Z</time></trkpt><trkpt lat="43.0813228" lon="12.1797017"><ele>383.0</ele><time>2026-05-03T07:35:06.154Z</time></trkpt><trkpt lat="43.0812022" lon="12.1797532"><ele>389.0</ele><time>2026-05-03T07:35:08.153Z</time></trkpt><trkpt lat="43.0811403" lon="12.1797819"><ele>389.0</ele><time>2026-05-03T07:35:09.152Z</time></trkpt><trkpt lat="43.0810675" lon="12.1798117"><ele>389.0</ele><time>2026-05-03T07:35:10.153Z</time></trkpt><trkpt lat="43.0809899" lon="12.1798452"><ele>389.0</ele><time>2026-05-03T07:35:11.152Z</time></trkpt><trkpt lat="43.0809248" lon="12.179885"><ele>389.0</ele><time>2026-05-03T07:35:12.15Z</time></trkpt><trkpt lat="43.0808624" lon="12.179926"><ele>389.0</ele><time>2026-05-03T07:35:13.152Z</time></trkpt><trkpt lat="43.0807957" lon="12.179967"><ele>389.0</ele><time>2026-05-03T07:35:14.151Z</time></trkpt><trkpt lat="43.0807219" lon="12.1799992"><ele>389.0</ele><time>2026-05-03T07:35:15.15Z</time></trkpt><trkpt lat="43.0806493" lon="12.1800175"><ele>391.8333333333333</ele><time>2026-05-03T07:35:16.153Z</time></trkpt><trkpt lat="43.080583" lon="12.1800299"><ele>394.66666666666663</ele><time>2026-05-03T07:35:17.152Z</time></trkpt><trkpt lat="43.0804878" lon="12.1800547"><ele>397.5</ele><time>2026-05-03T07:35:19.156Z</time></trkpt><trkpt lat="43.0804083" lon="12.1801043"><ele>400.33333333333337</ele><time>2026-05-03T07:35:21.153Z</time></trkpt><trkpt lat="43.0803111" lon="12.1801297"><ele>403.1666666666667</ele><time>2026-05-03T07:35:23.154Z</time></trkpt><trkpt lat="43.0802152" lon="12.1801233"><ele>406.0</ele><time>2026-05-03T07:35:25.152Z</time></trkpt><trkpt lat="43.0801007" lon="12.1800673"><ele>406.0</ele><time>2026-05-03T07:35:27.151Z</time></trkpt><trkpt lat="43.0800394" lon="12.1800289"><ele>406.0</ele><time>2026-05-03T07:35:28.152Z</time></trkpt><trkpt lat="43.0799296" lon="12.1800195"><ele>406.0</ele><time>2026-05-03T07:35:30.153Z</time></trkpt><trkpt lat="43.0798365" lon="12.1800451"><ele>406.0</ele><time>2026-05-03T07:35:32.157Z</time></trkpt><trkpt lat="43.0797278" lon="12.1800915"><ele>406.0</ele><time>2026-05-03T07:35:34.145Z</time></trkpt><trkpt lat="43.0796657" lon="12.1801164"><ele>411.00000000000006</ele><time>2026-05-03T07:35:35.147Z</time></trkpt><trkpt lat="43.0795982" lon="12.1801412"><ele>416.0</ele><time>2026-05-03T07:35:36.151Z</time></trkpt><trkpt lat="43.0795273" lon="12.1801642"><ele>421.0</ele><time>2026-05-03T07:35:37.147Z</time></trkpt><trkpt lat="43.0794474" lon="12.1801721"><ele>426.0</ele><time>2026-05-03T07:35:38.149Z</time></trkpt><trkpt lat="43.0793672" lon="12.1801774"><ele>431.00000000000006</ele><time>2026-05-03T07:35:39.147Z</time></trkpt><trkpt lat="43.0792921" lon="12.1801862"><ele>436.0</ele><time>2026-05-03T07:35:40.151Z</time></trkpt><trkpt lat="43.0791836" lon="12.1801895"><ele>436.0</ele><time>2026-05-03T07:35:42.153Z</time></trkpt><trkpt lat="43.0791333" lon="12.1801309"><ele>436.0</ele><time>2026-05-03T07:36:03.185Z</time></trkpt><trkpt lat="43.0790676" lon="12.1800819"><ele>436.0</ele><time>2026-05-03T07:36:06.163Z</time></trkpt><trkpt lat="43.0789956" lon="12.1800918"><ele>436.0</ele><time>2026-05-03T07:36:08.158Z</time></trkpt><trkpt lat="43.0789331" lon="12.1800556"><ele>436.0</ele><time>2026-05-03T07:36:10.158Z</time></trkpt><trkpt lat="43.0789204" lon="12.1801767"><ele>436.0</ele><time>2026-05-03T07:36:11.162Z</time></trkpt><trkpt lat="43.0788496" lon="12.1802107"><ele>436.0</ele><time>2026-05-03T07:36:13.165Z</time></trkpt><trkpt lat="43.0787893" lon="12.1801609"><ele>442.50000000000006</ele><time>2026-05-03T07:36:17.171Z</time></trkpt><trkpt lat="43.0787846" lon="12.1800497"><ele>449.0</ele><time>2026-05-03T07:37:10.163Z</time></trkpt><trkpt lat="43.0788238" lon="12.1799743"><ele>455.5</ele><time>2026-05-03T07:37:14.168Z</time></trkpt><trkpt lat="43.0788566" lon="12.1798948"><ele>462.0</ele><time>2026-05-03T07:37:33.108Z</time></trkpt><trkpt lat="43.0789082" lon="12.1798034"><ele>468.50000000000006</ele><time>2026-05-03T07:37:34.165Z</time></trkpt><trkpt lat="43.0789551" lon="12.1797379"><ele>475.0</ele><time>2026-05-03T07:37:35.162Z</time></trkpt><trkpt lat="43.0790574" lon="12.1796245"><ele>471.1666666666667</ele><time>2026-05-03T07:37:38.163Z</time></trkpt><trkpt lat="43.0791087" lon="12.1795699"><ele>467.33333333333337</ele><time>2026-05-03T07:37:39.162Z</time></trkpt><trkpt lat="43.0791625" lon="12.1794561"><ele>463.5</ele><time>2026-05-03T07:37:41.166Z</time></trkpt><trkpt lat="43.0791962" lon="12.1793508"><ele>459.66666666666663</ele><time>2026-05-03T07:37:43.107Z</time></trkpt><trkpt lat="43.0792254" lon="12.1792624"><ele>455.8333333333333</ele><time>2026-05-03T07:37:45.166Z</time></trkpt><trkpt lat="43.0792643" lon="12.1791768"><ele>452.0</ele><time>2026-05-03T07:37:48.165Z</time></trkpt><trkpt lat="43.0792829" lon="12.1790912"><ele>452.99999999999994</ele><time>2026-05-03T07:37:49.172Z</time></trkpt><trkpt lat="43.0792994" lon="12.1790067"><ele>454.0</ele><time>2026-05-03T07:37:50.167Z</time></trkpt><trkpt lat="43.0793313" lon="12.1789228"><ele>455.0</ele><time>2026-05-03T07:37:52.145Z</time></trkpt><trkpt lat="43.0794135" lon="12.1788595"><ele>456.0</ele><time>2026-05-03T07:37:53.157Z</time></trkpt><trkpt lat="43.0794747" lon="12.1788167"><ele>456.99999999999994</ele><time>2026-05-03T07:37:54.157Z</time></trkpt><trkpt lat="43.0795772" lon="12.1787491"><ele>458.0</ele><time>2026-05-03T07:37:56.157Z</time></trkpt><trkpt lat="43.0796614" lon="12.1786534"><ele>458.0</ele><time>2026-05-03T07:37:58.158Z</time></trkpt><trkpt lat="43.0797333" lon="12.1785221"><ele>457.99999999999994</ele><time>2026-05-03T07:38:00.158Z</time></trkpt><trkpt lat="43.0797622" lon="12.1784433"><ele>457.99999999999994</ele><time>2026-05-03T07:38:01.16Z</time></trkpt><trkpt lat="43.0797653" lon="12.1782936"><ele>458.0</ele><time>2026-05-03T07:38:03.16Z</time></trkpt><trkpt lat="43.0797216" lon="12.1781426"><ele>458.0</ele><time>2026-05-03T07:38:05.157Z</time></trkpt><trkpt lat="43.0796885" lon="12.1780459"><ele>456.2</ele><time>2026-05-03T07:38:07.17Z</time></trkpt><trkpt lat="43.0797662" lon="12.1779517"><ele>454.4</ele><time>2026-05-03T07:38:10.174Z</time></trkpt><trkpt lat="43.0798589" lon="12.1778585"><ele>452.59999999999997</ele><time>2026-05-03T07:38:12.156Z</time></trkpt><trkpt lat="43.0799162" lon="12.1777687"><ele>450.79999999999995</ele><time>2026-05-03T07:38:14.166Z</time></trkpt><trkpt lat="43.0799625" lon="12.1776537"><ele>449.0</ele><time>2026-05-03T07:38:16.157Z</time></trkpt><trkpt lat="43.0800206" lon="12.1775344"><ele>447.4</ele><time>2026-05-03T07:38:18.162Z</time></trkpt><trkpt lat="43.0800725" lon="12.177399"><ele>445.79999999999995</ele><time>2026-05-03T07:38:20.168Z</time></trkpt><trkpt lat="43.0800921" lon="12.1772703"><ele>444.20000000000005</ele><time>2026-05-03T07:38:22.166Z</time></trkpt><trkpt lat="43.0800906" lon="12.1771534"><ele>442.6</ele><time>2026-05-03T07:38:24.172Z</time></trkpt><trkpt lat="43.0801103" lon="12.1770355"><ele>441.0</ele><time>2026-05-03T07:38:26.177Z</time></trkpt><trkpt lat="43.0801469" lon="12.1769101"><ele>439.0</ele><time>2026-05-03T07:38:28.174Z</time></trkpt><trkpt lat="43.0801629" lon="12.1767819"><ele>437.0</ele><time>2026-05-03T07:38:30.16Z</time></trkpt><trkpt lat="43.0802354" lon="12.176674"><ele>435.0</ele><time>2026-05-03T07:38:32.16Z</time></trkpt><trkpt lat="43.0803299" lon="12.1765993"><ele>433.0</ele><time>2026-05-03T07:38:34.158Z</time></trkpt><trkpt lat="43.0804177" lon="12.1764829"><ele>431.0</ele><time>2026-05-03T07:38:36.154Z</time></trkpt><trkpt lat="43.0804565" lon="12.1764116"><ele>427.0</ele><time>2026-05-03T07:38:37.151Z</time></trkpt><trkpt lat="43.0804976" lon="12.1763462"><ele>423.0</ele><time>2026-05-03T07:38:38.168Z</time></trkpt><trkpt lat="43.0805865" lon="12.1762326"><ele>419.0</ele><time>2026-05-03T07:38:40.153Z</time></trkpt><trkpt lat="43.0806809" lon="12.1761769"><ele>415.0</ele><time>2026-05-03T07:38:42.151Z</time></trkpt><trkpt lat="43.080777" lon="12.176121"><ele>411.0</ele><time>2026-05-03T07:38:44.153Z</time></trkpt><trkpt lat="43.0808815" lon="12.1760399"><ele>410.6</ele><time>2026-05-03T07:38:46.158Z</time></trkpt><trkpt lat="43.0809806" lon="12.1759684"><ele>410.20000000000005</ele><time>2026-05-03T07:38:48.157Z</time></trkpt><trkpt lat="43.0810763" lon="12.1759033"><ele>409.79999999999995</ele><time>2026-05-03T07:38:50.16Z</time></trkpt><trkpt lat="43.0811535" lon="12.1758319"><ele>409.4</ele><time>2026-05-03T07:38:52.159Z</time></trkpt><trkpt lat="43.0811991" lon="12.1757567"><ele>409.0</ele><time>2026-05-03T07:38:54.163Z</time></trkpt><trkpt lat="43.0812221" lon="12.175659"><ele>406.1666666666667</ele><time>2026-05-03T07:38:56.164Z</time></trkpt><trkpt lat="43.0812353" lon="12.175544"><ele>403.33333333333337</ele><time>2026-05-03T07:38:58.17Z</time></trkpt><trkpt lat="43.0812321" lon="12.1754283"><ele>400.5</ele><time>2026-05-03T07:39:01.169Z</time></trkpt><trkpt lat="43.0812389" lon="12.1753389"><ele>397.66666666666663</ele><time>2026-05-03T07:39:02.169Z</time></trkpt><trkpt lat="43.0812694" lon="12.1751896"><ele>394.8333333333333</ele><time>2026-05-03T07:39:04.147Z</time></trkpt><trkpt lat="43.0813152" lon="12.1750764"><ele>392.0</ele><time>2026-05-03T07:39:06.163Z</time></trkpt><trkpt lat="43.0813479" lon="12.1749838"><ele>391.99999999999994</ele><time>2026-05-03T07:39:08.17Z</time></trkpt><trkpt lat="43.0813895" lon="12.1749029"><ele>392.0</ele><time>2026-05-03T07:39:10.164Z</time></trkpt><trkpt lat="43.0814087" lon="12.17482"><ele>392.0</ele><time>2026-05-03T07:39:13.067Z</time></trkpt><trkpt lat="43.0814217" lon="12.1747045"><ele>392.0</ele><time>2026-05-03T07:39:15.077Z</time></trkpt><trkpt lat="43.0814149" lon="12.1746169"><ele>391.99999999999994</ele><time>2026-05-03T07:39:17.04Z</time></trkpt><trkpt lat="43.0813956" lon="12.1745171"><ele>392.0</ele><time>2026-05-03T07:39:18.921Z</time></trkpt><trkpt lat="43.0813671" lon="12.1743906"><ele>389.99999999999994</ele><time>2026-05-03T07:39:21.159Z</time></trkpt><trkpt lat="43.0813831" lon="12.1742764"><ele>388.0</ele><time>2026-05-03T07:39:23.161Z</time></trkpt><trkpt lat="43.0814525" lon="12.1742101"><ele>386.0</ele><time>2026-05-03T07:39:25.079Z</time></trkpt><trkpt lat="43.0815225" lon="12.1741509"><ele>384.0</ele><time>2026-05-03T07:39:27.156Z</time></trkpt><trkpt lat="43.0814485" lon="12.1742113"><ele>382.0</ele><time>2026-05-03T07:39:30.165Z</time></trkpt><trkpt lat="43.0815135" lon="12.1742405"><ele>380.0</ele><time>2026-05-03T07:39:36.16Z</time></trkpt><trkpt lat="43.0814323" lon="12.1742019"><ele>380.0</ele><time>2026-05-03T07:39:48.172Z</time></trkpt><trkpt lat="43.0813308" lon="12.1742407"><ele>380.0</ele><time>2026-05-03T07:39:49.167Z</time></trkpt><trkpt lat="43.0812282" lon="12.1742761"><ele>380.0</ele><time>2026-05-03T07:39:50.156Z</time></trkpt><trkpt lat="43.0811311" lon="12.1742837"><ele>380.0</ele><time>2026-05-03T07:39:51.154Z</time></trkpt><trkpt lat="43.0810429" lon="12.1742614"><ele>380.0</ele><time>2026-05-03T07:39:52.159Z</time></trkpt><trkpt lat="43.0809534" lon="12.1742305"><ele>380.0</ele><time>2026-05-03T07:39:53.159Z</time></trkpt><trkpt lat="43.080859" lon="12.1742143"><ele>380.0</ele><time>2026-05-03T07:39:54.159Z</time></trkpt><trkpt lat="43.0807592" lon="12.1742124"><ele>380.0</ele><time>2026-05-03T07:39:55.159Z</time></trkpt><trkpt lat="43.0806652" lon="12.1742208"><ele>380.0</ele><time>2026-05-03T07:39:56.157Z</time></trkpt><trkpt lat="43.0805823" lon="12.1742355"><ele>380.0</ele><time>2026-05-03T07:39:57.157Z</time></trkpt><trkpt lat="43.0805103" lon="12.1742554"><ele>380.0</ele><time>2026-05-03T07:39:58.16Z</time></trkpt><trkpt lat="43.0804432" lon="12.1742915"><ele>380.6666666666667</ele><time>2026-05-03T07:39:59.159Z</time></trkpt><trkpt lat="43.0803826" lon="12.1743465"><ele>381.33333333333337</ele><time>2026-05-03T07:40:00.156Z</time></trkpt><trkpt lat="43.0803328" lon="12.1744296"><ele>382.0</ele><time>2026-05-03T07:40:01.155Z</time></trkpt><trkpt lat="43.0802895" lon="12.1745309"><ele>382.6666666666667</ele><time>2026-05-03T07:40:02.153Z</time></trkpt><trkpt lat="43.08024" lon="12.174629"><ele>383.3333333333333</ele><time>2026-05-03T07:40:03.15Z</time></trkpt><trkpt lat="43.0801825" lon="12.1747123"><ele>384.0</ele><time>2026-05-03T07:40:04.149Z</time></trkpt><trkpt lat="43.0801116" lon="12.1747609"><ele>384.0</ele><time>2026-05-03T07:40:05.157Z</time></trkpt><trkpt lat="43.0800303" lon="12.1747773"><ele>384.0</ele><time>2026-05-03T07:40:06.155Z</time></trkpt><trkpt lat="43.0799389" lon="12.1747805"><ele>384.0</ele><time>2026-05-03T07:40:07.152Z</time></trkpt><trkpt lat="43.0798375" lon="12.1747801"><ele>384.0</ele><time>2026-05-03T07:40:08.156Z</time></trkpt><trkpt lat="43.0797356" lon="12.174786"><ele>384.0</ele><time>2026-05-03T07:40:09.155Z</time></trkpt><trkpt lat="43.0796412" lon="12.174791"><ele>385.1666666666667</ele><time>2026-05-03T07:40:10.165Z</time></trkpt><trkpt lat="43.0795496" lon="12.1747949"><ele>386.33333333333337</ele><time>2026-05-03T07:40:11.153Z</time></trkpt><trkpt lat="43.0794628" lon="12.1747982"><ele>387.5</ele><time>2026-05-03T07:40:12.159Z</time></trkpt><trkpt lat="43.0793824" lon="12.1747888"><ele>388.6666666666667</ele><time>2026-05-03T07:40:13.156Z</time></trkpt><trkpt lat="43.0792992" lon="12.1747562"><ele>389.83333333333337</ele><time>2026-05-03T07:40:14.158Z</time></trkpt><trkpt lat="43.0792173" lon="12.1747089"><ele>391.0</ele><time>2026-05-03T07:40:15.159Z</time></trkpt><trkpt lat="43.0791339" lon="12.1746698"><ele>393.33333333333337</ele><time>2026-05-03T07:40:16.156Z</time></trkpt><trkpt lat="43.0790503" lon="12.1746398"><ele>395.6666666666667</ele><time>2026-05-03T07:40:17.161Z</time></trkpt><trkpt lat="43.0789644" lon="12.1746199"><ele>398.0</ele><time>2026-05-03T07:40:18.159Z</time></trkpt><trkpt lat="43.0788789" lon="12.1746114"><ele>400.33333333333337</ele><time>2026-05-03T07:40:19.163Z</time></trkpt><trkpt lat="43.0787986" lon="12.1746177"><ele>402.6666666666667</ele><time>2026-05-03T07:40:20.159Z</time></trkpt><trkpt lat="43.0787199" lon="12.1746432"><ele>405.0</ele><time>2026-05-03T07:40:21.161Z</time></trkpt><trkpt lat="43.0786465" lon="12.1746854"><ele>405.0</ele><time>2026-05-03T07:40:22.161Z</time></trkpt><trkpt lat="43.0785785" lon="12.1747319"><ele>405.0</ele><time>2026-05-03T07:40:23.162Z</time></trkpt><trkpt lat="43.0785057" lon="12.174776"><ele>405.0</ele><time>2026-05-03T07:40:24.16Z</time></trkpt><trkpt lat="43.0784333" lon="12.1748125"><ele>405.0</ele><time>2026-05-03T07:40:25.16Z</time></trkpt><trkpt lat="43.0783637" lon="12.1748351"><ele>405.0</ele><time>2026-05-03T07:40:26.16Z</time></trkpt><trkpt lat="43.0782477" lon="12.1748661"><ele>405.0</ele><time>2026-05-03T07:40:28.161Z</time></trkpt><trkpt lat="43.078136" lon="12.1748998"><ele>408.0</ele><time>2026-05-03T07:40:30.16Z</time></trkpt><trkpt lat="43.0780152" lon="12.1749574"><ele>411.0</ele><time>2026-05-03T07:40:32.159Z</time></trkpt><trkpt lat="43.0779524" lon="12.1750052"><ele>414.0</ele><time>2026-05-03T07:40:33.159Z</time></trkpt><trkpt lat="43.0778906" lon="12.1750626"><ele>417.0</ele><time>2026-05-03T07:40:34.159Z</time></trkpt><trkpt lat="43.0778246" lon="12.1751164"><ele>420.0</ele><time>2026-05-03T07:40:35.159Z</time></trkpt><trkpt lat="43.0777552" lon="12.1751563"><ele>423.0</ele><time>2026-05-03T07:40:36.157Z</time></trkpt><trkpt lat="43.0776823" lon="12.1751857"><ele>423.0</ele><time>2026-05-03T07:40:37.156Z</time></trkpt><trkpt lat="43.0776026" lon="12.1752016"><ele>423.0</ele><time>2026-05-03T07:40:38.158Z</time></trkpt><trkpt lat="43.077515" lon="12.1752033"><ele>423.0</ele><time>2026-05-03T07:40:39.157Z</time></trkpt><trkpt lat="43.0774243" lon="12.175203"><ele>423.0</ele><time>2026-05-03T07:40:40.157Z</time></trkpt><trkpt lat="43.0773277" lon="12.175212"><ele>423.0</ele><time>2026-05-03T07:40:41.17Z</time></trkpt><trkpt lat="43.0772331" lon="12.1752309"><ele>425.4</ele><time>2026-05-03T07:40:42.158Z</time></trkpt><trkpt lat="43.0771392" lon="12.1752558"><ele>427.79999999999995</ele><time>2026-05-03T07:40:43.159Z</time></trkpt><trkpt lat="43.0770462" lon="12.1752839"><ele>430.2</ele><time>2026-05-03T07:40:44.158Z</time></trkpt><trkpt lat="43.0769561" lon="12.1753024"><ele>432.6</ele><time>2026-05-03T07:40:45.159Z</time></trkpt><trkpt lat="43.0768695" lon="12.1753024"><ele>435.0</ele><time>2026-05-03T07:40:46.158Z</time></trkpt><trkpt lat="43.0767826" lon="12.1752898"><ele>435.0</ele><time>2026-05-03T07:40:47.166Z</time></trkpt><trkpt lat="43.0766956" lon="12.1752742"><ele>435.0</ele><time>2026-05-03T07:40:48.162Z</time></trkpt><trkpt lat="43.0766039" lon="12.1752646"><ele>435.0</ele><time>2026-05-03T07:40:49.166Z</time></trkpt><trkpt lat="43.0765151" lon="12.1752736"><ele>435.0</ele><time>2026-05-03T07:40:50.164Z</time></trkpt><trkpt lat="43.0764317" lon="12.1752957"><ele>435.0</ele><time>2026-05-03T07:40:51.16Z</time></trkpt><trkpt lat="43.076344" lon="12.1753278"><ele>435.0</ele><time>2026-05-03T07:40:52.163Z</time></trkpt><trkpt lat="43.0762487" lon="12.1753591"><ele>438.8</ele><time>2026-05-03T07:40:53.163Z</time></trkpt><trkpt lat="43.0761491" lon="12.1753885"><ele>442.6</ele><time>2026-05-03T07:40:54.163Z</time></trkpt><trkpt lat="43.0760455" lon="12.1754149"><ele>446.4</ele><time>2026-05-03T07:40:55.164Z</time></trkpt><trkpt lat="43.0759486" lon="12.1754446"><ele>450.2</ele><time>2026-05-03T07:40:56.162Z</time></trkpt><trkpt lat="43.0758644" lon="12.175486"><ele>454.0</ele><time>2026-05-03T07:40:57.16Z</time></trkpt><trkpt lat="43.0757854" lon="12.1755417"><ele>452.6</ele><time>2026-05-03T07:40:58.161Z</time></trkpt><trkpt lat="43.0757203" lon="12.1756072"><ele>451.2</ele><time>2026-05-03T07:40:59.157Z</time></trkpt><trkpt lat="43.0756635" lon="12.1756676"><ele>449.80000000000007</ele><time>2026-05-03T07:41:00.158Z</time></trkpt><trkpt lat="43.0755653" lon="12.1757148"><ele>448.40000000000003</ele><time>2026-05-03T07:41:02.156Z</time></trkpt><trkpt lat="43.0756936" lon="12.1756072"><ele>447.0</ele><time>2026-05-03T07:49:57.168Z</time></trkpt><trkpt lat="43.0757645" lon="12.1755576"><ele>448.40000000000003</ele><time>2026-05-03T07:49:58.183Z</time></trkpt><trkpt lat="43.0758278" lon="12.1755064"><ele>449.80000000000007</ele><time>2026-05-03T07:49:59.158Z</time></trkpt><trkpt lat="43.0758882" lon="12.1754632"><ele>451.2</ele><time>2026-05-03T07:50:00.158Z</time></trkpt><trkpt lat="43.0759877" lon="12.1753772"><ele>452.6</ele><time>2026-05-03T07:50:02.158Z</time></trkpt><trkpt lat="43.0760722" lon="12.1752678"><ele>454.0</ele><time>2026-05-03T07:50:04.162Z</time></trkpt><trkpt lat="43.0761605" lon="12.1751652"><ele>454.0</ele><time>2026-05-03T07:50:06.157Z</time></trkpt><trkpt lat="43.0762547" lon="12.1750776"><ele>454.0</ele><time>2026-05-03T07:50:08.152Z</time></trkpt><trkpt lat="43.0763298" lon="12.1750228"><ele>454.0</ele><time>2026-05-03T07:50:10.155Z</time></trkpt><trkpt lat="43.0763215" lon="12.1749198"><ele>454.0</ele><time>2026-05-03T07:50:13.165Z</time></trkpt><trkpt lat="43.0763261" lon="12.1748161"><ele>454.0</ele><time>2026-05-03T07:50:15.168Z</time></trkpt><trkpt lat="43.0763611" lon="12.1746137"><ele>455.28571428571433</ele><time>2026-05-03T07:50:19.169Z</time></trkpt><trkpt lat="43.0763756" lon="12.1744829"><ele>456.5714285714286</ele><time>2026-05-03T07:50:21.168Z</time></trkpt><trkpt lat="43.07642" lon="12.1744003"><ele>457.8571428571429</ele><time>2026-05-03T07:50:23.167Z</time></trkpt><trkpt lat="43.076468" lon="12.1743383"><ele>459.1428571428571</ele><time>2026-05-03T07:50:25.072Z</time></trkpt><trkpt lat="43.0765188" lon="12.1742852"><ele>460.4285714285714</ele><time>2026-05-03T07:50:27.162Z</time></trkpt><trkpt lat="43.0765707" lon="12.1742246"><ele>461.71428571428567</ele><time>2026-05-03T07:50:29.177Z</time></trkpt><trkpt lat="43.0766474" lon="12.1741974"><ele>463.0</ele><time>2026-05-03T07:50:31.067Z</time></trkpt><trkpt lat="43.0767478" lon="12.1741272"><ele>461.79999999999995</ele><time>2026-05-03T07:50:33.161Z</time></trkpt><trkpt lat="43.0768269" lon="12.1740518"><ele>460.59999999999997</ele><time>2026-05-03T07:50:35.164Z</time></trkpt><trkpt lat="43.076895" lon="12.1740213"><ele>459.40000000000003</ele><time>2026-05-03T07:50:37.074Z</time></trkpt><trkpt lat="43.0769683" lon="12.1739486"><ele>458.20000000000005</ele><time>2026-05-03T07:50:39.164Z</time></trkpt><trkpt lat="43.0770435" lon="12.1738751"><ele>457.0</ele><time>2026-05-03T07:50:41.128Z</time></trkpt><trkpt lat="43.0771359" lon="12.1737795"><ele>457.0</ele><time>2026-05-03T07:50:43.165Z</time></trkpt><trkpt lat="43.0772283" lon="12.1736853"><ele>457.00000000000006</ele><time>2026-05-03T07:50:45.154Z</time></trkpt><trkpt lat="43.0772926" lon="12.1735631"><ele>457.00000000000006</ele><time>2026-05-03T07:50:47.156Z</time></trkpt><trkpt lat="43.0773381" lon="12.1734505"><ele>457.0</ele><time>2026-05-03T07:50:49.155Z</time></trkpt><trkpt lat="43.0773814" lon="12.1733787"><ele>457.0</ele><time>2026-05-03T07:50:51.163Z</time></trkpt><trkpt lat="43.0774601" lon="12.1733197"><ele>454.8</ele><time>2026-05-03T07:50:53.167Z</time></trkpt><trkpt lat="43.0775498" lon="12.1732367"><ele>452.6</ele><time>2026-05-03T07:50:55.153Z</time></trkpt><trkpt lat="43.0776446" lon="12.173126"><ele>450.40000000000003</ele><time>2026-05-03T07:50:57.161Z</time></trkpt><trkpt lat="43.0776922" lon="12.173062"><ele>448.20000000000005</ele><time>2026-05-03T07:50:58.16Z</time></trkpt><trkpt lat="43.0777594" lon="12.1729391"><ele>446.0</ele><time>2026-05-03T07:51:00.173Z</time></trkpt><trkpt lat="43.0777985" lon="12.1728227"><ele>446.0</ele><time>2026-05-03T07:51:02.157Z</time></trkpt><trkpt lat="43.0778136" lon="12.1727375"><ele>446.0</ele><time>2026-05-03T07:51:04.166Z</time></trkpt><trkpt lat="43.0778178" lon="12.1726471"><ele>446.0</ele><time>2026-05-03T07:51:06.17Z</time></trkpt><trkpt lat="43.077839" lon="12.1725501"><ele>446.0</ele><time>2026-05-03T07:51:08.177Z</time></trkpt><trkpt lat="43.0778649" lon="12.1724529"><ele>446.0</ele><time>2026-05-03T07:51:10.174Z</time></trkpt><trkpt lat="43.0778994" lon="12.1723574"><ele>446.0</ele><time>2026-05-03T07:51:12.177Z</time></trkpt><trkpt lat="43.0779501" lon="12.1722775"><ele>446.0</ele><time>2026-05-03T07:51:14.175Z</time></trkpt><trkpt lat="43.0780018" lon="12.172166"><ele>449.20000000000005</ele><time>2026-05-03T07:51:16.174Z</time></trkpt><trkpt lat="43.0780605" lon="12.1720852"><ele>452.40000000000003</ele><time>2026-05-03T07:51:18.166Z</time></trkpt><trkpt lat="43.0781207" lon="12.1720233"><ele>455.6</ele><time>2026-05-03T07:51:20.169Z</time></trkpt><trkpt lat="43.0781966" lon="12.1719177"><ele>458.8</ele><time>2026-05-03T07:51:22.153Z</time></trkpt><trkpt lat="43.0782798" lon="12.1717987"><ele>462.0</ele><time>2026-05-03T07:51:24.154Z</time></trkpt><trkpt lat="43.0783616" lon="12.1716777"><ele>456.40000000000003</ele><time>2026-05-03T07:51:26.15Z</time></trkpt><trkpt lat="43.0784375" lon="12.1715756"><ele>450.80000000000007</ele><time>2026-05-03T07:51:28.159Z</time></trkpt><trkpt lat="43.0785172" lon="12.1714697"><ele>445.2</ele><time>2026-05-03T07:51:30.156Z</time></trkpt><trkpt lat="43.0785903" lon="12.1713546"><ele>439.6</ele><time>2026-05-03T07:51:32.156Z</time></trkpt><trkpt lat="43.0786688" lon="12.1712374"><ele>434.0</ele><time>2026-05-03T07:51:34.158Z</time></trkpt><trkpt lat="43.0787477" lon="12.1711124"><ele>434.0</ele><time>2026-05-03T07:51:36.158Z</time></trkpt><trkpt lat="43.0788302" lon="12.170995"><ele>434.0</ele><time>2026-05-03T07:51:38.159Z</time></trkpt><trkpt lat="43.0789016" lon="12.1708894"><ele>434.0</ele><time>2026-05-03T07:51:40.159Z</time></trkpt><trkpt lat="43.0789363" lon="12.170775"><ele>434.0</ele><time>2026-05-03T07:51:42.167Z</time></trkpt><trkpt lat="43.078943" lon="12.1706471"><ele>434.0</ele><time>2026-05-03T07:51:44.163Z</time></trkpt><trkpt lat="43.0789518" lon="12.1705259"><ele>431.79999999999995</ele><time>2026-05-03T07:51:46.169Z</time></trkpt><trkpt lat="43.0789707" lon="12.1704023"><ele>429.59999999999997</ele><time>2026-05-03T07:51:48.168Z</time></trkpt><trkpt lat="43.0789762" lon="12.170258"><ele>427.4</ele><time>2026-05-03T07:51:50.17Z</time></trkpt><trkpt lat="43.0789438" lon="12.1701127"><ele>425.2</ele><time>2026-05-03T07:51:52.17Z</time></trkpt><trkpt lat="43.0789057" lon="12.1699923"><ele>423.0</ele><time>2026-05-03T07:51:54.171Z</time></trkpt><trkpt lat="43.0788945" lon="12.1698814"><ele>420.1666666666667</ele><time>2026-05-03T07:51:56.182Z</time></trkpt><trkpt lat="43.0789531" lon="12.1698313"><ele>417.33333333333337</ele><time>2026-05-03T07:51:58.176Z</time></trkpt><trkpt lat="43.079046" lon="12.1698377"><ele>414.5</ele><time>2026-05-03T07:52:00.178Z</time></trkpt><trkpt lat="43.0791366" lon="12.1698345"><ele>411.6666666666667</ele><time>2026-05-03T07:52:02.188Z</time></trkpt><trkpt lat="43.07921" lon="12.1698751"><ele>408.83333333333337</ele><time>2026-05-03T07:52:04.174Z</time></trkpt><trkpt lat="43.0792859" lon="12.1698571"><ele>406.0</ele><time>2026-05-03T07:52:07.176Z</time></trkpt><trkpt lat="43.0793213" lon="12.1697404"><ele>404.00000000000006</ele><time>2026-05-03T07:52:10.171Z</time></trkpt><trkpt lat="43.0793527" lon="12.1696561"><ele>402.0</ele><time>2026-05-03T07:52:12.174Z</time></trkpt><trkpt lat="43.0794179" lon="12.1696094"><ele>400.0</ele><time>2026-05-03T07:52:14.171Z</time></trkpt><trkpt lat="43.0794981" lon="12.1696214"><ele>398.0</ele><time>2026-05-03T07:52:16.169Z</time></trkpt><trkpt lat="43.0795788" lon="12.1696562"><ele>396.00000000000006</ele><time>2026-05-03T07:52:18.171Z</time></trkpt><trkpt lat="43.0796579" lon="12.1696813"><ele>394.0</ele><time>2026-05-03T07:52:20.179Z</time></trkpt><trkpt lat="43.0797126" lon="12.16963"><ele>394.00000000000006</ele><time>2026-05-03T07:52:22.174Z</time></trkpt><trkpt lat="43.0797518" lon="12.1695613"><ele>394.0</ele><time>2026-05-03T07:52:24.139Z</time></trkpt><trkpt lat="43.0798268" lon="12.1695316"><ele>394.0</ele><time>2026-05-03T07:52:26.172Z</time></trkpt><trkpt lat="43.0798669" lon="12.1694548"><ele>394.0</ele><time>2026-05-03T07:52:28.177Z</time></trkpt><trkpt lat="43.0799057" lon="12.1693751"><ele>394.00000000000006</ele><time>2026-05-03T07:52:30.096Z</time></trkpt><trkpt lat="43.079963" lon="12.1693037"><ele>394.0</ele><time>2026-05-03T07:52:32.18Z</time></trkpt><trkpt lat="43.0800115" lon="12.1691958"><ele>392.33333333333337</ele><time>2026-05-03T07:52:34.175Z</time></trkpt><trkpt lat="43.0800808" lon="12.1690848"><ele>390.6666666666667</ele><time>2026-05-03T07:52:36.167Z</time></trkpt><trkpt lat="43.0801383" lon="12.1690002"><ele>389.0</ele><time>2026-05-03T07:52:38.172Z</time></trkpt><trkpt lat="43.0802057" lon="12.168945"><ele>387.33333333333337</ele><time>2026-05-03T07:52:41.175Z</time></trkpt><trkpt lat="43.0802728" lon="12.1689201"><ele>385.6666666666667</ele><time>2026-05-03T07:52:44.174Z</time></trkpt><trkpt lat="43.0803018" lon="12.1688169"><ele>384.0</ele><time>2026-05-03T07:52:47.012Z</time></trkpt><trkpt lat="43.0802966" lon="12.1686938"><ele>382.0</ele><time>2026-05-03T07:52:49.178Z</time></trkpt><trkpt lat="43.0802937" lon="12.1685785"><ele>380.0</ele><time>2026-05-03T07:52:51.175Z</time></trkpt><trkpt lat="43.0802969" lon="12.1684786"><ele>378.0</ele><time>2026-05-03T07:52:53.138Z</time></trkpt><trkpt lat="43.0802846" lon="12.1683874"><ele>376.0</ele><time>2026-05-03T07:52:55.172Z</time></trkpt><trkpt lat="43.0802606" lon="12.1682875"><ele>374.0</ele><time>2026-05-03T07:52:57.177Z</time></trkpt><trkpt lat="43.0802206" lon="12.1681573"><ele>372.0</ele><time>2026-05-03T07:52:59.165Z</time></trkpt><trkpt lat="43.0802046" lon="12.1680011"><ele>369.0</ele><time>2026-05-03T07:53:01.159Z</time></trkpt><trkpt lat="43.0802048" lon="12.1678634"><ele>366.0</ele><time>2026-05-03T07:53:03.166Z</time></trkpt><trkpt lat="43.0802312" lon="12.1677106"><ele>363.0</ele><time>2026-05-03T07:53:05.159Z</time></trkpt><trkpt lat="43.0802891" lon="12.1675942"><ele>360.0</ele><time>2026-05-03T07:53:07.162Z</time></trkpt><trkpt lat="43.0803687" lon="12.1675347"><ele>357.0</ele><time>2026-05-03T07:53:09.171Z</time></trkpt><trkpt lat="43.0804202" lon="12.1674635"><ele>357.0</ele><time>2026-05-03T07:53:11.176Z</time></trkpt><trkpt lat="43.0803591" lon="12.1674231"><ele>357.0</ele><time>2026-05-03T07:53:13.179Z</time></trkpt><trkpt lat="43.0802744" lon="12.1673728"><ele>357.0</ele><time>2026-05-03T07:53:16.178Z</time></trkpt><trkpt lat="43.0801597" lon="12.167384"><ele>357.0</ele><time>2026-05-03T07:53:18.163Z</time></trkpt><trkpt lat="43.0800991" lon="12.1674077"><ele>357.0</ele><time>2026-05-03T07:53:19.157Z</time></trkpt><trkpt lat="43.0800254" lon="12.1674317"><ele>357.0</ele><time>2026-05-03T07:53:20.164Z</time></trkpt><trkpt lat="43.0799472" lon="12.167451"><ele>356.8</ele><time>2026-05-03T07:53:21.159Z</time></trkpt><trkpt lat="43.0798658" lon="12.1674517"><ele>356.6</ele><time>2026-05-03T07:53:22.163Z</time></trkpt><trkpt lat="43.0797926" lon="12.1674321"><ele>356.40000000000003</ele><time>2026-05-03T07:53:23.162Z</time></trkpt><trkpt lat="43.0797305" lon="12.1673955"><ele>356.20000000000005</ele><time>2026-05-03T07:53:24.163Z</time></trkpt><trkpt lat="43.0796749" lon="12.1672809"><ele>356.0</ele><time>2026-05-03T07:53:26.161Z</time></trkpt><trkpt lat="43.0797531" lon="12.1671449"><ele>354.33333333333337</ele><time>2026-05-03T07:53:28.166Z</time></trkpt><trkpt lat="43.0798229" lon="12.1670559"><ele>352.6666666666667</ele><time>2026-05-03T07:53:29.16Z</time></trkpt><trkpt lat="43.0798953" lon="12.1669641"><ele>351.0</ele><time>2026-05-03T07:53:30.159Z</time></trkpt><trkpt lat="43.0799673" lon="12.1668818"><ele>349.3333333333333</ele><time>2026-05-03T07:53:31.159Z</time></trkpt><trkpt lat="43.0800384" lon="12.1668165"><ele>347.66666666666663</ele><time>2026-05-03T07:53:32.154Z</time></trkpt><trkpt lat="43.0801106" lon="12.1667871"><ele>346.0</ele><time>2026-05-03T07:53:33.155Z</time></trkpt><trkpt lat="43.080186" lon="12.1667748"><ele>345.20000000000005</ele><time>2026-05-03T07:53:34.169Z</time></trkpt><trkpt lat="43.0802729" lon="12.1667666"><ele>344.40000000000003</ele><time>2026-05-03T07:53:35.157Z</time></trkpt><trkpt lat="43.0803681" lon="12.1667502"><ele>343.6</ele><time>2026-05-03T07:53:36.157Z</time></trkpt><trkpt lat="43.0804635" lon="12.1667258"><ele>342.8</ele><time>2026-05-03T07:53:37.153Z</time></trkpt><trkpt lat="43.0805606" lon="12.1667018"><ele>342.0</ele><time>2026-05-03T07:53:38.159Z</time></trkpt><trkpt lat="43.0806461" lon="12.1666766"><ele>342.0</ele><time>2026-05-03T07:53:39.159Z</time></trkpt><trkpt lat="43.0807288" lon="12.1666463"><ele>342.0</ele><time>2026-05-03T07:53:40.158Z</time></trkpt><trkpt lat="43.0808092" lon="12.1666248"><ele>342.0</ele><time>2026-05-03T07:53:41.159Z</time></trkpt><trkpt lat="43.0808918" lon="12.1666094"><ele>342.0</ele><time>2026-05-03T07:53:42.158Z</time></trkpt><trkpt lat="43.080974" lon="12.1666001"><ele>342.0</ele><time>2026-05-03T07:53:43.156Z</time></trkpt><trkpt lat="43.081057" lon="12.1665998"><ele>342.0</ele><time>2026-05-03T07:53:44.159Z</time></trkpt><trkpt lat="43.0811354" lon="12.166595"><ele>340.6666666666667</ele><time>2026-05-03T07:53:45.157Z</time></trkpt><trkpt lat="43.0812106" lon="12.1665997"><ele>339.3333333333333</ele><time>2026-05-03T07:53:46.158Z</time></trkpt><trkpt lat="43.0812837" lon="12.1666082"><ele>338.0</ele><time>2026-05-03T07:53:47.163Z</time></trkpt><trkpt lat="43.081358" lon="12.1666069"><ele>336.66666666666663</ele><time>2026-05-03T07:53:48.155Z</time></trkpt><trkpt lat="43.0814302" lon="12.1665922"><ele>335.3333333333333</ele><time>2026-05-03T07:53:49.154Z</time></trkpt><trkpt lat="43.0815067" lon="12.166565"><ele>334.0</ele><time>2026-05-03T07:53:50.156Z</time></trkpt><trkpt lat="43.0815854" lon="12.1665224"><ele>328.0</ele><time>2026-05-03T07:53:51.161Z</time></trkpt><trkpt lat="43.0816628" lon="12.166486"><ele>322.0</ele><time>2026-05-03T07:53:52.157Z</time></trkpt><trkpt lat="43.0817354" lon="12.1664573"><ele>316.0</ele><time>2026-05-03T07:53:53.163Z</time></trkpt><trkpt lat="43.0818" lon="12.1664334"><ele>310.0</ele><time>2026-05-03T07:53:54.158Z</time></trkpt><trkpt lat="43.0819027" lon="12.1663704"><ele>304.0</ele><time>2026-05-03T07:53:56.165Z</time></trkpt><trkpt lat="43.081966" lon="12.1662309"><ele>304.0</ele><time>2026-05-03T07:53:58.161Z</time></trkpt><trkpt lat="43.0819951" lon="12.1661455"><ele>304.0</ele><time>2026-05-03T07:53:59.164Z</time></trkpt><trkpt lat="43.0820111" lon="12.1660598"><ele>304.0</ele><time>2026-05-03T07:54:00.159Z</time></trkpt><trkpt lat="43.082014" lon="12.1659715"><ele>304.0</ele><time>2026-05-03T07:54:01.158Z</time></trkpt><trkpt lat="43.0820083" lon="12.1658788"><ele>304.0</ele><time>2026-05-03T07:54:02.155Z</time></trkpt><trkpt lat="43.0820066" lon="12.1657893"><ele>304.0</ele><time>2026-05-03T07:54:03.158Z</time></trkpt><trkpt lat="43.0820179" lon="12.1656468"><ele>304.0</ele><time>2026-05-03T07:54:05.174Z</time></trkpt><trkpt lat="43.0819574" lon="12.1655887"><ele>303.8</ele><time>2026-05-03T07:54:07.171Z</time></trkpt><trkpt lat="43.0818375" lon="12.1655675"><ele>303.59999999999997</ele><time>2026-05-03T07:54:09.157Z</time></trkpt><trkpt lat="43.0817538" lon="12.1655504"><ele>303.4</ele><time>2026-05-03T07:54:10.159Z</time></trkpt><trkpt lat="43.0816672" lon="12.1655192"><ele>303.2</ele><time>2026-05-03T07:54:11.155Z</time></trkpt><trkpt lat="43.0815887" lon="12.1654727"><ele>303.0</ele><time>2026-05-03T07:54:12.154Z</time></trkpt><trkpt lat="43.081524" lon="12.1654133"><ele>303.0</ele><time>2026-05-03T07:54:13.159Z</time></trkpt><trkpt lat="43.081495" lon="12.1653315"><ele>303.0</ele><time>2026-05-03T07:54:14.159Z</time></trkpt><trkpt lat="43.0815168" lon="12.1652253"><ele>303.0</ele><time>2026-05-03T07:54:15.157Z</time></trkpt><trkpt lat="43.0815705" lon="12.165105"><ele>303.0</ele><time>2026-05-03T07:54:16.152Z</time></trkpt><trkpt lat="43.0816392" lon="12.1649842"><ele>303.0</ele><time>2026-05-03T07:54:17.153Z</time></trkpt><trkpt lat="43.0817138" lon="12.1648531"><ele>303.0</ele><time>2026-05-03T07:54:18.153Z</time></trkpt><trkpt lat="43.0817938" lon="12.1647064"><ele>303.0</ele><time>2026-05-03T07:54:19.152Z</time></trkpt><trkpt lat="43.0818755" lon="12.1645483"><ele>303.0</ele><time>2026-05-03T07:54:20.154Z</time></trkpt><trkpt lat="43.0819453" lon="12.1643955"><ele>303.0</ele><time>2026-05-03T07:54:21.157Z</time></trkpt><trkpt lat="43.0819975" lon="12.1642532"><ele>303.0</ele><time>2026-05-03T07:54:22.164Z</time></trkpt><trkpt lat="43.0820398" lon="12.1641217"><ele>303.0</ele><time>2026-05-03T07:54:23.163Z</time></trkpt><trkpt lat="43.0820741" lon="12.1640047"><ele>303.0</ele><time>2026-05-03T07:54:24.162Z</time></trkpt><trkpt lat="43.0821034" lon="12.1639048"><ele>303.0</ele><time>2026-05-03T07:54:25.161Z</time></trkpt><trkpt lat="43.0821283" lon="12.1638246"><ele>303.0</ele><time>2026-05-03T07:54:26.158Z</time></trkpt><trkpt lat="43.0821427" lon="12.1637098"><ele>303.0</ele><time>2026-05-03T07:54:28.164Z</time></trkpt><trkpt lat="43.0821117" lon="12.1635706"><ele>302.0</ele><time>2026-05-03T07:54:30.167Z</time></trkpt><trkpt lat="43.0820875" lon="12.1634848"><ele>301.0</ele><time>2026-05-03T07:54:31.162Z</time></trkpt><trkpt lat="43.0820548" lon="12.1633927"><ele>300.0</ele><time>2026-05-03T07:54:32.168Z</time></trkpt><trkpt lat="43.0820088" lon="12.1633119"><ele>299.0</ele><time>2026-05-03T07:54:33.164Z</time></trkpt><trkpt lat="43.0819525" lon="12.1632529"><ele>298.0</ele><time>2026-05-03T07:54:34.16Z</time></trkpt><trkpt lat="43.0818865" lon="12.1632156"><ele>297.0</ele><time>2026-05-03T07:54:35.167Z</time></trkpt><trkpt lat="43.0818119" lon="12.1631963"><ele>296.0</ele><time>2026-05-03T07:54:36.174Z</time></trkpt><trkpt lat="43.0817312" lon="12.1631939"><ele>296.1666666666667</ele><time>2026-05-03T07:54:37.167Z</time></trkpt><trkpt lat="43.081651" lon="12.1631946"><ele>296.33333333333337</ele><time>2026-05-03T07:54:38.164Z</time></trkpt><trkpt lat="43.0815703" lon="12.1631937"><ele>296.5</ele><time>2026-05-03T07:54:39.164Z</time></trkpt><trkpt lat="43.0814896" lon="12.1631991"><ele>296.6666666666667</ele><time>2026-05-03T07:54:40.161Z</time></trkpt><trkpt lat="43.0814058" lon="12.1632191"><ele>296.8333333333333</ele><time>2026-05-03T07:54:41.162Z</time></trkpt><trkpt lat="43.0813172" lon="12.1632425"><ele>297.0</ele><time>2026-05-03T07:54:42.163Z</time></trkpt><trkpt lat="43.0812284" lon="12.1632603"><ele>298.6666666666667</ele><time>2026-05-03T07:54:43.167Z</time></trkpt><trkpt lat="43.0811433" lon="12.1632731"><ele>300.3333333333333</ele><time>2026-05-03T07:54:44.165Z</time></trkpt><trkpt lat="43.0810593" lon="12.163292"><ele>302.0</ele><time>2026-05-03T07:54:45.164Z</time></trkpt><trkpt lat="43.0809782" lon="12.1633296"><ele>303.66666666666663</ele><time>2026-05-03T07:54:46.168Z</time></trkpt><trkpt lat="43.0808987" lon="12.1633818"><ele>305.3333333333333</ele><time>2026-05-03T07:54:47.169Z</time></trkpt><trkpt lat="43.0808168" lon="12.1634204"><ele>307.0</ele><time>2026-05-03T07:54:48.177Z</time></trkpt><trkpt lat="43.0807317" lon="12.163433"><ele>308.5</ele><time>2026-05-03T07:54:49.175Z</time></trkpt><trkpt lat="43.0806478" lon="12.1634324"><ele>310.0</ele><time>2026-05-03T07:54:50.165Z</time></trkpt><trkpt lat="43.0805733" lon="12.1634415"><ele>311.5</ele><time>2026-05-03T07:54:51.171Z</time></trkpt><trkpt lat="43.0805013" lon="12.1634697"><ele>313.0</ele><time>2026-05-03T07:54:52.171Z</time></trkpt><trkpt lat="43.0804257" lon="12.1634986"><ele>314.5</ele><time>2026-05-03T07:54:53.171Z</time></trkpt><trkpt lat="43.0803418" lon="12.1635223"><ele>316.0</ele><time>2026-05-03T07:54:54.166Z</time></trkpt><trkpt lat="43.0802448" lon="12.1635512"><ele>316.0</ele><time>2026-05-03T07:54:55.176Z</time></trkpt><trkpt lat="43.0801486" lon="12.1635788"><ele>316.0</ele><time>2026-05-03T07:54:56.173Z</time></trkpt><trkpt lat="43.0800585" lon="12.1636021"><ele>316.0</ele><time>2026-05-03T07:54:57.175Z</time></trkpt><trkpt lat="43.07997" lon="12.1636262"><ele>316.0</ele><time>2026-05-03T07:54:58.18Z</time></trkpt><trkpt lat="43.0798917" lon="12.1636499"><ele>316.0</ele><time>2026-05-03T07:54:59.179Z</time></trkpt><trkpt lat="43.0798225" lon="12.1636582"><ele>316.0</ele><time>2026-05-03T07:55:00.182Z</time></trkpt><trkpt lat="43.0797129" lon="12.1635631"><ele>316.42857142857144</ele><time>2026-05-03T07:55:02.177Z</time></trkpt><trkpt lat="43.0796685" lon="12.1634812"><ele>316.8571428571429</ele><time>2026-05-03T07:55:03.17Z</time></trkpt><trkpt lat="43.0796252" lon="12.1633953"><ele>317.28571428571433</ele><time>2026-05-03T07:55:04.173Z</time></trkpt><trkpt lat="43.0795778" lon="12.1633167"><ele>317.7142857142857</ele><time>2026-05-03T07:55:05.174Z</time></trkpt><trkpt lat="43.0795292" lon="12.163238"><ele>318.1428571428571</ele><time>2026-05-03T07:55:06.167Z</time></trkpt><trkpt lat="43.0794809" lon="12.163168"><ele>318.5714285714286</ele><time>2026-05-03T07:55:07.179Z</time></trkpt><trkpt lat="43.0794321" lon="12.1631114"><ele>319.0</ele><time>2026-05-03T07:55:08.173Z</time></trkpt><trkpt lat="43.079323" lon="12.163041"><ele>318.16666666666663</ele><time>2026-05-03T07:55:10.176Z</time></trkpt><trkpt lat="43.0792101" lon="12.1629536"><ele>317.3333333333333</ele><time>2026-05-03T07:55:12.177Z</time></trkpt><trkpt lat="43.0791549" lon="12.1628969"><ele>316.5</ele><time>2026-05-03T07:55:13.172Z</time></trkpt><trkpt lat="43.0791027" lon="12.1628313"><ele>315.6666666666667</ele><time>2026-05-03T07:55:14.177Z</time></trkpt><trkpt lat="43.0790546" lon="12.1627576"><ele>314.83333333333337</ele><time>2026-05-03T07:55:15.175Z</time></trkpt><trkpt lat="43.079011" lon="12.1626805"><ele>314.0</ele><time>2026-05-03T07:55:16.167Z</time></trkpt><trkpt lat="43.0789672" lon="12.1626012"><ele>314.0</ele><time>2026-05-03T07:55:17.179Z</time></trkpt><trkpt lat="43.0789263" lon="12.1625239"><ele>314.0</ele><time>2026-05-03T07:55:18.174Z</time></trkpt><trkpt lat="43.0788851" lon="12.1624537"><ele>314.0</ele><time>2026-05-03T07:55:19.178Z</time></trkpt><trkpt lat="43.0787849" lon="12.1623699"><ele>314.0</ele><time>2026-05-03T07:55:21.17Z</time></trkpt><trkpt lat="43.078722" lon="12.162353"><ele>314.0</ele><time>2026-05-03T07:55:22.165Z</time></trkpt><trkpt lat="43.078608" lon="12.1623321"><ele>314.0</ele><time>2026-05-03T07:55:24.169Z</time></trkpt><trkpt lat="43.0785363" lon="12.1622755"><ele>314.57142857142856</ele><time>2026-05-03T07:55:26.163Z</time></trkpt><trkpt lat="43.0785202" lon="12.1621505"><ele>315.1428571428571</ele><time>2026-05-03T07:55:28.179Z</time></trkpt><trkpt lat="43.078533" lon="12.162065"><ele>315.71428571428567</ele><time>2026-05-03T07:55:29.167Z</time></trkpt><trkpt lat="43.078539" lon="12.161969"><ele>316.2857142857143</ele><time>2026-05-03T07:55:30.166Z</time></trkpt><trkpt lat="43.0785355" lon="12.1618723"><ele>316.8571428571429</ele><time>2026-05-03T07:55:31.157Z</time></trkpt><trkpt lat="43.0785219" lon="12.1617744"><ele>317.4285714285714</ele><time>2026-05-03T07:55:32.166Z</time></trkpt><trkpt lat="43.0785113" lon="12.1616806"><ele>318.0</ele><time>2026-05-03T07:55:33.168Z</time></trkpt><trkpt lat="43.0785126" lon="12.1615879"><ele>318.5</ele><time>2026-05-03T07:55:34.162Z</time></trkpt><trkpt lat="43.0785335" lon="12.1614996"><ele>319.0</ele><time>2026-05-03T07:55:35.174Z</time></trkpt><trkpt lat="43.0785904" lon="12.1613538"><ele>319.5</ele><time>2026-05-03T07:55:37.161Z</time></trkpt><trkpt lat="43.0786055" lon="12.1612595"><ele>320.0</ele><time>2026-05-03T07:55:38.174Z</time></trkpt><trkpt lat="43.0786148" lon="12.1611474"><ele>320.5</ele><time>2026-05-03T07:55:39.168Z</time></trkpt><trkpt lat="43.0786232" lon="12.1610271"><ele>321.0</ele><time>2026-05-03T07:55:40.162Z</time></trkpt><trkpt lat="43.0786416" lon="12.1609054"><ele>320.99999999999994</ele><time>2026-05-03T07:55:41.171Z</time></trkpt><trkpt lat="43.0786571" lon="12.1608029"><ele>321.0</ele><time>2026-05-03T07:55:42.167Z</time></trkpt><trkpt lat="43.0786694" lon="12.1607078"><ele>321.0</ele><time>2026-05-03T07:55:43.163Z</time></trkpt><trkpt lat="43.0786811" lon="12.1606182"><ele>321.0</ele><time>2026-05-03T07:55:44.168Z</time></trkpt><trkpt lat="43.0786897" lon="12.1605296"><ele>321.0</ele><time>2026-05-03T07:55:45.161Z</time></trkpt><trkpt lat="43.0787057" lon="12.1604324"><ele>320.99999999999994</ele><time>2026-05-03T07:55:46.163Z</time></trkpt><trkpt lat="43.0787232" lon="12.1603424"><ele>321.0</ele><time>2026-05-03T07:55:47.171Z</time></trkpt><trkpt lat="43.0787323" lon="12.1601818"><ele>321.3333333333333</ele><time>2026-05-03T07:55:49.169Z</time></trkpt><trkpt lat="43.0786998" lon="12.1600217"><ele>321.6666666666667</ele><time>2026-05-03T07:55:51.163Z</time></trkpt><trkpt lat="43.0787001" lon="12.1599327"><ele>322.0</ele><time>2026-05-03T07:55:52.162Z</time></trkpt><trkpt lat="43.0787212" lon="12.1598429"><ele>322.33333333333337</ele><time>2026-05-03T07:55:53.164Z</time></trkpt><trkpt lat="43.0787566" lon="12.1597506"><ele>322.6666666666667</ele><time>2026-05-03T07:55:54.162Z</time></trkpt><trkpt lat="43.0788016" lon="12.1596571"><ele>323.0</ele><time>2026-05-03T07:55:55.16Z</time></trkpt><trkpt lat="43.0788508" lon="12.1595656"><ele>324.59999999999997</ele><time>2026-05-03T07:55:56.157Z</time></trkpt><trkpt lat="43.0788944" lon="12.1594802"><ele>326.2</ele><time>2026-05-03T07:55:57.164Z</time></trkpt><trkpt lat="43.0789339" lon="12.1593307"><ele>327.8</ele><time>2026-05-03T07:55:59.158Z</time></trkpt><trkpt lat="43.0789432" lon="12.1591748"><ele>329.4</ele><time>2026-05-03T07:56:01.159Z</time></trkpt><trkpt lat="43.0789722" lon="12.1590936"><ele>331.0</ele><time>2026-05-03T07:56:02.17Z</time></trkpt><trkpt lat="43.0790219" lon="12.1590031"><ele>331.5</ele><time>2026-05-03T07:56:03.162Z</time></trkpt><trkpt lat="43.0790801" lon="12.1589037"><ele>332.0</ele><time>2026-05-03T07:56:04.167Z</time></trkpt><trkpt lat="43.0791375" lon="12.1588057"><ele>332.5</ele><time>2026-05-03T07:56:05.163Z</time></trkpt><trkpt lat="43.0791804" lon="12.1587169"><ele>333.0</ele><time>2026-05-03T07:56:06.172Z</time></trkpt><trkpt lat="43.0792122" lon="12.1586234"><ele>333.5</ele><time>2026-05-03T07:56:07.171Z</time></trkpt><trkpt lat="43.0792306" lon="12.1585322"><ele>334.0</ele><time>2026-05-03T07:56:08.164Z</time></trkpt><trkpt lat="43.0792281" lon="12.1584197"><ele>327.59999999999997</ele><time>2026-05-03T07:56:09.186Z</time></trkpt><trkpt lat="43.0792162" lon="12.158291"><ele>321.2</ele><time>2026-05-03T07:56:10.171Z</time></trkpt><trkpt lat="43.0792088" lon="12.1581622"><ele>314.79999999999995</ele><time>2026-05-03T07:56:11.172Z</time></trkpt><trkpt lat="43.0792112" lon="12.1580335"><ele>308.4</ele><time>2026-05-03T07:56:12.171Z</time></trkpt><trkpt lat="43.0792216" lon="12.1579086"><ele>302.0</ele><time>2026-05-03T07:56:13.173Z</time></trkpt><trkpt lat="43.0792348" lon="12.1577888"><ele>302.0</ele><time>2026-05-03T07:56:14.171Z</time></trkpt><trkpt lat="43.0792439" lon="12.1576771"><ele>302.0</ele><time>2026-05-03T07:56:15.169Z</time></trkpt><trkpt lat="43.079253" lon="12.1575664"><ele>302.0</ele><time>2026-05-03T07:56:16.178Z</time></trkpt><trkpt lat="43.0792657" lon="12.1574455"><ele>302.0</ele><time>2026-05-03T07:56:17.178Z</time></trkpt><trkpt lat="43.0792767" lon="12.157317"><ele>302.0</ele><time>2026-05-03T07:56:18.167Z</time></trkpt><trkpt lat="43.0792871" lon="12.157183"><ele>302.0</ele><time>2026-05-03T07:56:19.173Z</time></trkpt><trkpt lat="43.079296" lon="12.1570391"><ele>301.4</ele><time>2026-05-03T07:56:20.164Z</time></trkpt><trkpt lat="43.0793119" lon="12.1568957"><ele>300.79999999999995</ele><time>2026-05-03T07:56:21.161Z</time></trkpt><trkpt lat="43.0793336" lon="12.1567646"><ele>300.2</ele><time>2026-05-03T07:56:22.173Z</time></trkpt><trkpt lat="43.0793618" lon="12.1566472"><ele>299.59999999999997</ele><time>2026-05-03T07:56:23.162Z</time></trkpt><trkpt lat="43.0793931" lon="12.156533"><ele>299.0</ele><time>2026-05-03T07:56:24.165Z</time></trkpt><trkpt lat="43.0794231" lon="12.1564181"><ele>297.7142857142857</ele><time>2026-05-03T07:56:25.168Z</time></trkpt><trkpt lat="43.0794474" lon="12.1563075"><ele>296.42857142857144</ele><time>2026-05-03T07:56:26.161Z</time></trkpt><trkpt lat="43.0794676" lon="12.1562044"><ele>295.14285714285717</ele><time>2026-05-03T07:56:27.162Z</time></trkpt><trkpt lat="43.0794814" lon="12.1561071"><ele>293.8571428571429</ele><time>2026-05-03T07:56:28.173Z</time></trkpt><trkpt lat="43.0794875" lon="12.1560126"><ele>292.5714285714286</ele><time>2026-05-03T07:56:29.168Z</time></trkpt><trkpt lat="43.0794917" lon="12.1559236"><ele>291.2857142857143</ele><time>2026-05-03T07:56:30.173Z</time></trkpt><trkpt lat="43.0794919" lon="12.1558363"><ele>290.0</ele><time>2026-05-03T07:56:31.168Z</time></trkpt><trkpt lat="43.0794992" lon="12.1556715"><ele>288.83333333333337</ele><time>2026-05-03T07:56:33.169Z</time></trkpt><trkpt lat="43.0795202" lon="12.1555276"><ele>287.6666666666667</ele><time>2026-05-03T07:56:35.17Z</time></trkpt><trkpt lat="43.0795931" lon="12.1553695"><ele>286.5</ele><time>2026-05-03T07:58:12.195Z</time></trkpt><trkpt lat="43.0796013" lon="12.1552828"><ele>285.3333333333333</ele><time>2026-05-03T07:58:13.174Z</time></trkpt><trkpt lat="43.07962" lon="12.1551966"><ele>284.16666666666663</ele><time>2026-05-03T07:58:14.16Z</time></trkpt><trkpt lat="43.0796568" lon="12.1551092"><ele>283.0</ele><time>2026-05-03T07:58:15.165Z</time></trkpt><trkpt lat="43.0797007" lon="12.1550197"><ele>283.0</ele><time>2026-05-03T07:58:16.169Z</time></trkpt><trkpt lat="43.0797472" lon="12.1549331"><ele>283.0</ele><time>2026-05-03T07:58:17.172Z</time></trkpt><trkpt lat="43.0797948" lon="12.1548482"><ele>283.0</ele><time>2026-05-03T07:58:18.174Z</time></trkpt><trkpt lat="43.0798342" lon="12.1547706"><ele>283.0</ele><time>2026-05-03T07:58:19.172Z</time></trkpt><trkpt lat="43.079869" lon="12.1546955"><ele>283.0</ele><time>2026-05-03T07:58:20.172Z</time></trkpt><trkpt lat="43.0799174" lon="12.1545581"><ele>283.0</ele><time>2026-05-03T07:58:22.167Z</time></trkpt><trkpt lat="43.0799184" lon="12.1544003"><ele>281.8</ele><time>2026-05-03T07:58:24.165Z</time></trkpt><trkpt lat="43.079944" lon="12.1542488"><ele>280.6</ele><time>2026-05-03T07:58:26.173Z</time></trkpt><trkpt lat="43.0800329" lon="12.1541155"><ele>279.4</ele><time>2026-05-03T07:58:28.166Z</time></trkpt><trkpt lat="43.0800974" lon="12.1540728"><ele>278.2</ele><time>2026-05-03T07:58:29.164Z</time></trkpt><trkpt lat="43.0801648" lon="12.1540537"><ele>277.0</ele><time>2026-05-03T07:58:30.165Z</time></trkpt><trkpt lat="43.0802369" lon="12.1540509"><ele>277.0</ele><time>2026-05-03T07:58:31.16Z</time></trkpt><trkpt lat="43.0803065" lon="12.1540452"><ele>277.0</ele><time>2026-05-03T07:58:32.164Z</time></trkpt><trkpt lat="43.0803719" lon="12.1540347"><ele>277.0</ele><time>2026-05-03T07:58:33.158Z</time></trkpt><trkpt lat="43.0804396" lon="12.1540216"><ele>277.0</ele><time>2026-05-03T07:58:34.166Z</time></trkpt><trkpt lat="43.0805561" lon="12.1539876"><ele>277.0</ele><time>2026-05-03T07:58:36.176Z</time></trkpt><trkpt lat="43.0806577" lon="12.1539534"><ele>277.0</ele><time>2026-05-03T07:58:38.17Z</time></trkpt><trkpt lat="43.0807559" lon="12.1539106"><ele>275.8</ele><time>2026-05-03T07:58:40.172Z</time></trkpt><trkpt lat="43.0808642" lon="12.1538692"><ele>274.6</ele><time>2026-05-03T07:58:42.171Z</time></trkpt><trkpt lat="43.0809297" lon="12.1538427"><ele>273.40000000000003</ele><time>2026-05-03T07:58:43.176Z</time></trkpt><trkpt lat="43.0810089" lon="12.1538206"><ele>272.2</ele><time>2026-05-03T07:58:44.165Z</time></trkpt><trkpt lat="43.0811038" lon="12.1537942"><ele>271.0</ele><time>2026-05-03T07:58:45.166Z</time></trkpt><trkpt lat="43.0812044" lon="12.1537586"><ele>271.0</ele><time>2026-05-03T07:58:46.171Z</time></trkpt><trkpt lat="43.0813098" lon="12.1537206"><ele>271.0</ele><time>2026-05-03T07:58:47.168Z</time></trkpt><trkpt lat="43.0814174" lon="12.153677"><ele>271.0</ele><time>2026-05-03T07:58:48.175Z</time></trkpt><trkpt lat="43.0815158" lon="12.1536349"><ele>271.0</ele><time>2026-05-03T07:58:49.175Z</time></trkpt><trkpt lat="43.0816047" lon="12.153599"><ele>271.0</ele><time>2026-05-03T07:58:50.18Z</time></trkpt><trkpt lat="43.0816833" lon="12.1535665"><ele>270.5</ele><time>2026-05-03T07:58:51.168Z</time></trkpt><trkpt lat="43.0817538" lon="12.1535341"><ele>270.0</ele><time>2026-05-03T07:58:52.165Z</time></trkpt><trkpt lat="43.0818149" lon="12.1535107"><ele>269.5</ele><time>2026-05-03T07:58:53.173Z</time></trkpt><trkpt lat="43.0818889" lon="12.1534726"><ele>269.0</ele><time>2026-05-03T07:58:55.17Z</time></trkpt><trkpt lat="43.0818983" lon="12.1533469"><ele>268.5</ele><time>2026-05-03T07:58:58.187Z</time></trkpt><trkpt lat="43.0818713" lon="12.1532412"><ele>268.0</ele><time>2026-05-03T07:58:59.172Z</time></trkpt><trkpt lat="43.0818309" lon="12.1530852"><ele>267.75</ele><time>2026-05-03T07:59:00.183Z</time></trkpt><trkpt lat="43.0817904" lon="12.1529059"><ele>267.5</ele><time>2026-05-03T07:59:01.178Z</time></trkpt><trkpt lat="43.0817598" lon="12.1527126"><ele>267.25</ele><time>2026-05-03T07:59:02.181Z</time></trkpt><trkpt lat="43.081736" lon="12.1525167"><ele>267.0</ele><time>2026-05-03T07:59:03.176Z</time></trkpt><trkpt lat="43.0817307" lon="12.1523176"><ele>266.3333333333333</ele><time>2026-05-03T07:59:04.179Z</time></trkpt><trkpt lat="43.0817363" lon="12.1521072"><ele>265.66666666666663</ele><time>2026-05-03T07:59:05.177Z</time></trkpt><trkpt lat="43.0817471" lon="12.1518925"><ele>265.0</ele><time>2026-05-03T07:59:06.179Z</time></trkpt><trkpt lat="43.0817602" lon="12.1516869"><ele>265.3333333333333</ele><time>2026-05-03T07:59:07.173Z</time></trkpt><trkpt lat="43.0817732" lon="12.1514858"><ele>265.6666666666667</ele><time>2026-05-03T07:59:08.179Z</time></trkpt><trkpt lat="43.0817834" lon="12.1512796"><ele>266.0</ele><time>2026-05-03T07:59:09.174Z</time></trkpt><trkpt lat="43.0817969" lon="12.1510682"><ele>266.0</ele><time>2026-05-03T07:59:10.179Z</time></trkpt><trkpt lat="43.081809" lon="12.1508655"><ele>266.0</ele><time>2026-05-03T07:59:11.178Z</time></trkpt><trkpt lat="43.0818243" lon="12.1506678"><ele>266.0</ele><time>2026-05-03T07:59:12.178Z</time></trkpt><trkpt lat="43.0818346" lon="12.1504762"><ele>266.0</ele><time>2026-05-03T07:59:13.174Z</time></trkpt><trkpt lat="43.0818461" lon="12.1502869"><ele>265.75</ele><time>2026-05-03T07:59:14.19Z</time></trkpt><trkpt lat="43.0818584" lon="12.1501002"><ele>265.5</ele><time>2026-05-03T07:59:15.168Z</time></trkpt><trkpt lat="43.0818748" lon="12.1499115"><ele>265.25</ele><time>2026-05-03T07:59:16.179Z</time></trkpt><trkpt lat="43.0818864" lon="12.1497356"><ele>265.0</ele><time>2026-05-03T07:59:17.178Z</time></trkpt><trkpt lat="43.0819039" lon="12.1495768"><ele>265.0</ele><time>2026-05-03T07:59:18.178Z</time></trkpt><trkpt lat="43.0819205" lon="12.1494352"><ele>265.0</ele><time>2026-05-03T07:59:19.183Z</time></trkpt><trkpt lat="43.0819334" lon="12.1493074"><ele>265.0</ele><time>2026-05-03T07:59:20.18Z</time></trkpt><trkpt lat="43.0819486" lon="12.1491837"><ele>265.0</ele><time>2026-05-03T07:59:21.181Z</time></trkpt><trkpt lat="43.0819595" lon="12.1490537"><ele>265.0</ele><time>2026-05-03T07:59:22.18Z</time></trkpt><trkpt lat="43.0819657" lon="12.1489212"><ele>265.0</ele><time>2026-05-03T07:59:23.179Z</time></trkpt><trkpt lat="43.0819723" lon="12.1488082"><ele>265.0</ele><time>2026-05-03T07:59:24.176Z</time></trkpt><trkpt lat="43.0820129" lon="12.1486894"><ele>265.0</ele><time>2026-05-03T07:59:26.173Z</time></trkpt><trkpt lat="43.0821396" lon="12.1486878"><ele>265.0</ele><time>2026-05-03T07:59:28.178Z</time></trkpt><trkpt lat="43.0822187" lon="12.1486843"><ele>265.0</ele><time>2026-05-03T07:59:29.166Z</time></trkpt><trkpt lat="43.082298" lon="12.1486621"><ele>265.0</ele><time>2026-05-03T07:59:30.169Z</time></trkpt><trkpt lat="43.0823789" lon="12.1486259"><ele>265.0</ele><time>2026-05-03T07:59:31.173Z</time></trkpt><trkpt lat="43.0824604" lon="12.1485759"><ele>265.0</ele><time>2026-05-03T07:59:32.17Z</time></trkpt><trkpt lat="43.0825416" lon="12.1485242"><ele>265.0</ele><time>2026-05-03T07:59:33.169Z</time></trkpt><trkpt lat="43.0826216" lon="12.1484648"><ele>265.0</ele><time>2026-05-03T07:59:34.168Z</time></trkpt><trkpt lat="43.0827049" lon="12.1484022"><ele>264.8</ele><time>2026-05-03T07:59:35.172Z</time></trkpt><trkpt lat="43.0827913" lon="12.1483363"><ele>264.6</ele><time>2026-05-03T07:59:36.166Z</time></trkpt><trkpt lat="43.0828799" lon="12.1482569"><ele>264.4</ele><time>2026-05-03T07:59:37.164Z</time></trkpt><trkpt lat="43.0829671" lon="12.1481728"><ele>264.2</ele><time>2026-05-03T07:59:38.172Z</time></trkpt><trkpt lat="43.0830487" lon="12.1480916"><ele>264.0</ele><time>2026-05-03T07:59:39.175Z</time></trkpt><trkpt lat="43.0831304" lon="12.1480188"><ele>263.75</ele><time>2026-05-03T07:59:40.167Z</time></trkpt><trkpt lat="43.083218" lon="12.1479482"><ele>263.5</ele><time>2026-05-03T07:59:41.172Z</time></trkpt><trkpt lat="43.0833116" lon="12.1478741"><ele>263.25</ele><time>2026-05-03T07:59:42.168Z</time></trkpt><trkpt lat="43.0834133" lon="12.1477836"><ele>263.0</ele><time>2026-05-03T07:59:43.178Z</time></trkpt><trkpt lat="43.0835242" lon="12.1476667"><ele>262.5</ele><time>2026-05-03T07:59:44.175Z</time></trkpt><trkpt lat="43.0836275" lon="12.1475544"><ele>262.0</ele><time>2026-05-03T07:59:45.179Z</time></trkpt><trkpt lat="43.0837231" lon="12.1474504"><ele>261.5</ele><time>2026-05-03T07:59:46.174Z</time></trkpt><trkpt lat="43.0838094" lon="12.1473568"><ele>261.0</ele><time>2026-05-03T07:59:47.172Z</time></trkpt><trkpt lat="43.0838868" lon="12.1472699"><ele>260.8</ele><time>2026-05-03T07:59:48.177Z</time></trkpt><trkpt lat="43.0839608" lon="12.1471883"><ele>260.6</ele><time>2026-05-03T07:59:49.179Z</time></trkpt><trkpt lat="43.0840262" lon="12.1471192"><ele>260.4</ele><time>2026-05-03T07:59:50.171Z</time></trkpt><trkpt lat="43.0840783" lon="12.1470553"><ele>260.2</ele><time>2026-05-03T07:59:51.172Z</time></trkpt><trkpt lat="43.0841281" lon="12.1469296"><ele>260.0</ele><time>2026-05-03T07:59:53.181Z</time></trkpt><trkpt lat="43.084078" lon="12.1467891"><ele>259.83333333333337</ele><time>2026-05-03T07:59:55.176Z</time></trkpt><trkpt lat="43.0840393" lon="12.1466971"><ele>259.6666666666667</ele><time>2026-05-03T07:59:56.174Z</time></trkpt><trkpt lat="43.0840027" lon="12.1466055"><ele>259.5</ele><time>2026-05-03T07:59:57.172Z</time></trkpt><trkpt lat="43.0839706" lon="12.1465257"><ele>259.3333333333333</ele><time>2026-05-03T07:59:58.177Z</time></trkpt><trkpt lat="43.0839122" lon="12.1464393"><ele>259.16666666666663</ele><time>2026-05-03T08:00:00.17Z</time></trkpt><trkpt lat="43.0838299" lon="12.1464862"><ele>259.0</ele><time>2026-05-03T08:00:02.173Z</time></trkpt><trkpt lat="43.0837806" lon="12.1465432"><ele>259.0</ele><time>2026-05-03T08:00:03.17Z</time></trkpt><trkpt lat="43.0836912" lon="12.1466583"><ele>259.0</ele><time>2026-05-03T08:00:05.165Z</time></trkpt><trkpt lat="43.0835973" lon="12.1467736"><ele>259.0</ele><time>2026-05-03T08:00:07.162Z</time></trkpt><trkpt lat="43.0835391" lon="12.1468304"><ele>259.0</ele><time>2026-05-03T08:00:08.176Z</time></trkpt><trkpt lat="43.0834729" lon="12.1468896"><ele>259.0</ele><time>2026-05-03T08:00:09.182Z</time></trkpt><trkpt lat="43.0834053" lon="12.1469451"><ele>259.0</ele><time>2026-05-03T08:00:10.172Z</time></trkpt><trkpt lat="43.0833365" lon="12.1470033"><ele>259.0</ele><time>2026-05-03T08:00:11.173Z</time></trkpt><trkpt lat="43.0832681" lon="12.1470684"><ele>259.0</ele><time>2026-05-03T08:00:12.176Z</time></trkpt><trkpt lat="43.0832032" lon="12.1471342"><ele>259.0</ele><time>2026-05-03T08:00:13.178Z</time></trkpt><trkpt lat="43.0831412" lon="12.1471993"><ele>259.0</ele><time>2026-05-03T08:00:14.176Z</time></trkpt><trkpt lat="43.0830745" lon="12.1472686"><ele>259.0</ele><time>2026-05-03T08:00:15.177Z</time></trkpt><trkpt lat="43.0830064" lon="12.1473355"><ele>259.3333333333333</ele><time>2026-05-03T08:00:16.187Z</time></trkpt><trkpt lat="43.0829451" lon="12.1473923"><ele>259.66666666666663</ele><time>2026-05-03T08:00:17.171Z</time></trkpt><trkpt lat="43.0828558" lon="12.1474742"><ele>260.0</ele><time>2026-05-03T08:00:19.174Z</time></trkpt><trkpt lat="43.0827897" lon="12.147457"><ele>260.3333333333333</ele><time>2026-05-03T08:00:22.189Z</time></trkpt><trkpt lat="43.0828349" lon="12.147396"><ele>260.6666666666667</ele><time>2026-05-03T08:20:05.177Z</time></trkpt><trkpt lat="43.0828987" lon="12.1473706"><ele>261.0</ele><time>2026-05-03T08:20:28.166Z</time></trkpt><trkpt lat="43.083034" lon="12.147268"><ele>261.0</ele><time>2026-05-03T08:20:30.167Z</time></trkpt><trkpt lat="43.0831121" lon="12.1471932"><ele>261.0</ele><time>2026-05-03T08:20:31.152Z</time></trkpt><trkpt lat="43.0831722" lon="12.1471334"><ele>261.0</ele><time>2026-05-03T08:20:32.153Z</time></trkpt><trkpt lat="43.083233" lon="12.1470767"><ele>261.0</ele><time>2026-05-03T08:20:33.154Z</time></trkpt><trkpt lat="43.0832938" lon="12.1470185"><ele>261.0</ele><time>2026-05-03T08:20:34.156Z</time></trkpt><trkpt lat="43.0833509" lon="12.1469675"><ele>261.0</ele><time>2026-05-03T08:20:35.155Z</time></trkpt><trkpt lat="43.0834504" lon="12.1468796"><ele>260.5</ele><time>2026-05-03T08:20:37.156Z</time></trkpt><trkpt lat="43.0835488" lon="12.1467862"><ele>260.0</ele><time>2026-05-03T08:20:39.159Z</time></trkpt><trkpt lat="43.0836487" lon="12.1466964"><ele>259.5</ele><time>2026-05-03T08:20:41.162Z</time></trkpt><trkpt lat="43.0837461" lon="12.1466074"><ele>259.0</ele><time>2026-05-03T08:20:43.16Z</time></trkpt><trkpt lat="43.0838222" lon="12.1465242"><ele>259.0</ele><time>2026-05-03T08:20:45.165Z</time></trkpt><trkpt lat="43.0838687" lon="12.1464658"><ele>259.0</ele><time>2026-05-03T08:20:47.177Z</time></trkpt><trkpt lat="43.0839375" lon="12.1464364"><ele>259.0</ele><time>2026-05-03T08:20:50.175Z</time></trkpt><trkpt lat="43.083992" lon="12.146496"><ele>259.0</ele><time>2026-05-03T08:20:52.172Z</time></trkpt><trkpt lat="43.0840355" lon="12.1466352"><ele>259.0</ele><time>2026-05-03T08:20:54.169Z</time></trkpt><trkpt lat="43.0840543" lon="12.1467258"><ele>259.0</ele><time>2026-05-03T08:20:55.181Z</time></trkpt><trkpt lat="43.0840682" lon="12.1468193"><ele>259.0</ele><time>2026-05-03T08:20:56.163Z</time></trkpt><trkpt lat="43.0840901" lon="12.1469615"><ele>259.0</ele><time>2026-05-03T08:20:58.162Z</time></trkpt><trkpt lat="43.0840965" lon="12.1470664"><ele>259.0</ele><time>2026-05-03T08:21:00.169Z</time></trkpt><trkpt lat="43.0840442" lon="12.1471658"><ele>259.0</ele><time>2026-05-03T08:21:02.172Z</time></trkpt><trkpt lat="43.0839702" lon="12.1472637"><ele>259.0</ele><time>2026-05-03T08:21:04.16Z</time></trkpt><trkpt lat="43.0838722" lon="12.1473689"><ele>259.3333333333333</ele><time>2026-05-03T08:21:06.159Z</time></trkpt><trkpt lat="43.0838206" lon="12.1474279"><ele>259.66666666666663</ele><time>2026-05-03T08:21:07.158Z</time></trkpt><trkpt lat="43.0837181" lon="12.1475301"><ele>260.0</ele><time>2026-05-03T08:21:09.159Z</time></trkpt><trkpt lat="43.0836647" lon="12.1475831"><ele>260.3333333333333</ele><time>2026-05-03T08:21:10.158Z</time></trkpt><trkpt lat="43.0836099" lon="12.1476337"><ele>260.6666666666667</ele><time>2026-05-03T08:21:11.161Z</time></trkpt><trkpt lat="43.0835559" lon="12.147685"><ele>261.0</ele><time>2026-05-03T08:21:12.16Z</time></trkpt><trkpt lat="43.083501" lon="12.1477364"><ele>261.0</ele><time>2026-05-03T08:21:13.16Z</time></trkpt><trkpt lat="43.083445" lon="12.1477861"><ele>261.0</ele><time>2026-05-03T08:21:14.156Z</time></trkpt><trkpt lat="43.0833919" lon="12.147834"><ele>261.0</ele><time>2026-05-03T08:21:15.161Z</time></trkpt><trkpt lat="43.0833406" lon="12.1478853"><ele>261.0</ele><time>2026-05-03T08:21:16.158Z</time></trkpt><trkpt lat="43.0832825" lon="12.1479406"><ele>261.0</ele><time>2026-05-03T08:21:17.161Z</time></trkpt><trkpt lat="43.0832274" lon="12.1479909"><ele>261.0</ele><time>2026-05-03T08:21:18.161Z</time></trkpt><trkpt lat="43.0831675" lon="12.1480377"><ele>261.0</ele><time>2026-05-03T08:21:19.164Z</time></trkpt><trkpt lat="43.0831074" lon="12.1480896"><ele>261.40000000000003</ele><time>2026-05-03T08:21:20.159Z</time></trkpt><trkpt lat="43.0830432" lon="12.1481458"><ele>261.8</ele><time>2026-05-03T08:21:21.158Z</time></trkpt><trkpt lat="43.0829662" lon="12.1482104"><ele>262.20000000000005</ele><time>2026-05-03T08:21:22.161Z</time></trkpt><trkpt lat="43.0828842" lon="12.1482784"><ele>262.6</ele><time>2026-05-03T08:21:23.159Z</time></trkpt><trkpt lat="43.082795" lon="12.1483523"><ele>263.0</ele><time>2026-05-03T08:21:24.157Z</time></trkpt><trkpt lat="43.0827105" lon="12.1484234"><ele>263.2</ele><time>2026-05-03T08:21:25.168Z</time></trkpt><trkpt lat="43.0826271" lon="12.1484929"><ele>263.4</ele><time>2026-05-03T08:21:26.156Z</time></trkpt><trkpt lat="43.0825455" lon="12.1485586"><ele>263.59999999999997</ele><time>2026-05-03T08:21:27.16Z</time></trkpt><trkpt lat="43.0824651" lon="12.1486191"><ele>263.8</ele><time>2026-05-03T08:21:28.159Z</time></trkpt><trkpt lat="43.082381" lon="12.1486801"><ele>264.0</ele><time>2026-05-03T08:21:29.158Z</time></trkpt><trkpt lat="43.0822989" lon="12.1487374"><ele>264.1666666666667</ele><time>2026-05-03T08:21:30.154Z</time></trkpt><trkpt lat="43.0822146" lon="12.1487909"><ele>264.3333333333333</ele><time>2026-05-03T08:21:31.157Z</time></trkpt><trkpt lat="43.0821279" lon="12.148836"><ele>264.5</ele><time>2026-05-03T08:21:32.154Z</time></trkpt><trkpt lat="43.0820452" lon="12.1488691"><ele>264.66666666666663</ele><time>2026-05-03T08:21:33.152Z</time></trkpt><trkpt lat="43.0819751" lon="12.1488942"><ele>264.8333333333333</ele><time>2026-05-03T08:21:34.156Z</time></trkpt><trkpt lat="43.0818978" lon="12.1488964"><ele>265.0</ele><time>2026-05-03T08:21:36.152Z</time></trkpt><trkpt lat="43.0818931" lon="12.1487874"><ele>265.0</ele><time>2026-05-03T08:21:38.165Z</time></trkpt><trkpt lat="43.081903" lon="12.1486806"><ele>265.0</ele><time>2026-05-03T08:21:39.168Z</time></trkpt><trkpt lat="43.0819221" lon="12.1485429"><ele>265.0</ele><time>2026-05-03T08:21:40.162Z</time></trkpt><trkpt lat="43.0819404" lon="12.1483852"><ele>265.0</ele><time>2026-05-03T08:21:41.157Z</time></trkpt><trkpt lat="43.0819555" lon="12.1482284"><ele>265.0</ele><time>2026-05-03T08:21:42.156Z</time></trkpt><trkpt lat="43.0819683" lon="12.1480757"><ele>264.5</ele><time>2026-05-03T08:21:43.162Z</time></trkpt><trkpt lat="43.0819827" lon="12.1479201"><ele>264.0</ele><time>2026-05-03T08:21:44.162Z</time></trkpt><trkpt lat="43.0820006" lon="12.1477615"><ele>263.5</ele><time>2026-05-03T08:21:45.165Z</time></trkpt><trkpt lat="43.082019" lon="12.1476035"><ele>263.0</ele><time>2026-05-03T08:21:46.165Z</time></trkpt><trkpt lat="43.0820358" lon="12.1474389"><ele>263.0</ele><time>2026-05-03T08:21:47.166Z</time></trkpt><trkpt lat="43.0820472" lon="12.1472756"><ele>263.0</ele><time>2026-05-03T08:21:48.167Z</time></trkpt><trkpt lat="43.0820476" lon="12.1471175"><ele>263.0</ele><time>2026-05-03T08:21:49.172Z</time></trkpt><trkpt lat="43.0820404" lon="12.1469556"><ele>263.0</ele><time>2026-05-03T08:21:50.169Z</time></trkpt><trkpt lat="43.0820247" lon="12.1467931"><ele>263.0</ele><time>2026-05-03T08:21:51.161Z</time></trkpt><trkpt lat="43.0820013" lon="12.1466239"><ele>263.0</ele><time>2026-05-03T08:21:52.164Z</time></trkpt><trkpt lat="43.0819705" lon="12.1464474"><ele>263.0</ele><time>2026-05-03T08:21:53.172Z</time></trkpt><trkpt lat="43.0819311" lon="12.1462652"><ele>263.0</ele><time>2026-05-03T08:21:54.158Z</time></trkpt><trkpt lat="43.0818885" lon="12.146078"><ele>262.5</ele><time>2026-05-03T08:21:55.159Z</time></trkpt><trkpt lat="43.0818436" lon="12.1458862"><ele>262.0</ele><time>2026-05-03T08:21:56.172Z</time></trkpt><trkpt lat="43.0817991" lon="12.1456974"><ele>261.5</ele><time>2026-05-03T08:21:57.16Z</time></trkpt><trkpt lat="43.0817593" lon="12.1455201"><ele>261.0</ele><time>2026-05-03T08:21:58.164Z</time></trkpt><trkpt lat="43.0817191" lon="12.1453408"><ele>260.75</ele><time>2026-05-03T08:21:59.163Z</time></trkpt><trkpt lat="43.0816759" lon="12.1451498"><ele>260.5</ele><time>2026-05-03T08:22:00.163Z</time></trkpt><trkpt lat="43.0816325" lon="12.1449557"><ele>260.25</ele><time>2026-05-03T08:22:01.165Z</time></trkpt><trkpt lat="43.0815938" lon="12.1447761"><ele>260.0</ele><time>2026-05-03T08:22:02.163Z</time></trkpt><trkpt lat="43.0815522" lon="12.1445796"><ele>260.33333333333337</ele><time>2026-05-03T08:22:03.162Z</time></trkpt><trkpt lat="43.0815086" lon="12.1443833"><ele>260.6666666666667</ele><time>2026-05-03T08:22:04.163Z</time></trkpt><trkpt lat="43.0814602" lon="12.1441847"><ele>261.0</ele><time>2026-05-03T08:22:05.161Z</time></trkpt><trkpt lat="43.0814079" lon="12.1439629"><ele>261.0</ele><time>2026-05-03T08:22:06.163Z</time></trkpt><trkpt lat="43.0813594" lon="12.1437528"><ele>261.0</ele><time>2026-05-03T08:22:07.163Z</time></trkpt><trkpt lat="43.0813171" lon="12.1435585"><ele>261.0</ele><time>2026-05-03T08:22:08.165Z</time></trkpt><trkpt lat="43.0812683" lon="12.1433508"><ele>261.0</ele><time>2026-05-03T08:22:09.163Z</time></trkpt><trkpt lat="43.0812298" lon="12.1431436"><ele>261.0</ele><time>2026-05-03T08:22:10.164Z</time></trkpt><trkpt lat="43.0811928" lon="12.1429358"><ele>261.0</ele><time>2026-05-03T08:22:11.161Z</time></trkpt><trkpt lat="43.0811482" lon="12.142746"><ele>261.0</ele><time>2026-05-03T08:22:12.162Z</time></trkpt><trkpt lat="43.0811004" lon="12.1425586"><ele>261.0</ele><time>2026-05-03T08:22:13.163Z</time></trkpt><trkpt lat="43.0810363" lon="12.1423741"><ele>261.0</ele><time>2026-05-03T08:22:14.16Z</time></trkpt><trkpt lat="43.0809589" lon="12.1422039"><ele>261.0</ele><time>2026-05-03T08:22:15.159Z</time></trkpt><trkpt lat="43.080871" lon="12.1420419"><ele>261.0</ele><time>2026-05-03T08:22:16.158Z</time></trkpt><trkpt lat="43.0807694" lon="12.1419116"><ele>261.0</ele><time>2026-05-03T08:22:17.163Z</time></trkpt><trkpt lat="43.0806613" lon="12.1417821"><ele>261.0</ele><time>2026-05-03T08:22:18.165Z</time></trkpt><trkpt lat="43.0805422" lon="12.141652"><ele>261.0</ele><time>2026-05-03T08:22:19.161Z</time></trkpt><trkpt lat="43.0804241" lon="12.1415061"><ele>262.75</ele><time>2026-05-03T08:22:20.159Z</time></trkpt><trkpt lat="43.0803129" lon="12.1413616"><ele>264.5</ele><time>2026-05-03T08:22:21.155Z</time></trkpt><trkpt lat="43.0802153" lon="12.1412118"><ele>266.25</ele><time>2026-05-03T08:22:22.156Z</time></trkpt><trkpt lat="43.0801366" lon="12.1410569"><ele>268.0</ele><time>2026-05-03T08:22:23.157Z</time></trkpt><trkpt lat="43.0800738" lon="12.1408944"><ele>268.0</ele><time>2026-05-03T08:22:24.159Z</time></trkpt><trkpt lat="43.0800192" lon="12.1407292"><ele>268.0</ele><time>2026-05-03T08:22:25.161Z</time></trkpt><trkpt lat="43.0799721" lon="12.1405572"><ele>268.0</ele><time>2026-05-03T08:22:26.157Z</time></trkpt><trkpt lat="43.0799438" lon="12.1403738"><ele>268.0</ele><time>2026-05-03T08:22:27.169Z</time></trkpt><trkpt lat="43.0799234" lon="12.1401813"><ele>271.25</ele><time>2026-05-03T08:22:28.164Z</time></trkpt><trkpt lat="43.0799144" lon="12.1399833"><ele>274.5</ele><time>2026-05-03T08:22:29.161Z</time></trkpt><trkpt lat="43.0799143" lon="12.1397872"><ele>277.75</ele><time>2026-05-03T08:22:30.161Z</time></trkpt><trkpt lat="43.0799275" lon="12.1396059"><ele>281.0</ele><time>2026-05-03T08:22:31.159Z</time></trkpt><trkpt lat="43.0799518" lon="12.1394256"><ele>281.0</ele><time>2026-05-03T08:22:32.161Z</time></trkpt><trkpt lat="43.0800026" lon="12.1392544"><ele>281.0</ele><time>2026-05-03T08:22:33.163Z</time></trkpt><trkpt lat="43.08006" lon="12.1390752"><ele>281.0</ele><time>2026-05-03T08:22:34.163Z</time></trkpt><trkpt lat="43.080119" lon="12.1389196"><ele>281.0</ele><time>2026-05-03T08:22:35.161Z</time></trkpt><trkpt lat="43.0801769" lon="12.1387768"><ele>282.5</ele><time>2026-05-03T08:22:36.162Z</time></trkpt><trkpt lat="43.0802251" lon="12.1386583"><ele>284.0</ele><time>2026-05-03T08:22:37.159Z</time></trkpt><trkpt lat="43.0802701" lon="12.1385553"><ele>285.5</ele><time>2026-05-03T08:22:38.156Z</time></trkpt><trkpt lat="43.080311" lon="12.1384592"><ele>287.0</ele><time>2026-05-03T08:22:39.154Z</time></trkpt><trkpt lat="43.0803529" lon="12.1383854"><ele>288.5</ele><time>2026-05-03T08:22:40.159Z</time></trkpt><trkpt lat="43.0803924" lon="12.1382619"><ele>290.0</ele><time>2026-05-03T08:22:42.16Z</time></trkpt><trkpt lat="43.0803056" lon="12.1383164"><ele>290.0</ele><time>2026-05-03T08:22:45.168Z</time></trkpt><trkpt lat="43.0802632" lon="12.1384123"><ele>290.0</ele><time>2026-05-03T08:22:46.16Z</time></trkpt><trkpt lat="43.0802125" lon="12.1384919"><ele>290.0</ele><time>2026-05-03T08:22:47.165Z</time></trkpt><trkpt lat="43.0801666" lon="12.1385572"><ele>290.0</ele><time>2026-05-03T08:22:48.163Z</time></trkpt><trkpt lat="43.0800644" lon="12.1386373"><ele>290.0</ele><time>2026-05-03T08:22:50.164Z</time></trkpt><trkpt lat="43.0799981" lon="12.1386968"><ele>290.0</ele><time>2026-05-03T08:22:52.168Z</time></trkpt><trkpt lat="43.0799952" lon="12.1385788"><ele>290.0</ele><time>2026-05-03T08:23:08.171Z</time></trkpt><trkpt lat="43.0800414" lon="12.1383937"><ele>290.0</ele><time>2026-05-03T08:23:10.159Z</time></trkpt><trkpt lat="43.0800739" lon="12.1382809"><ele>290.0</ele><time>2026-05-03T08:23:11.158Z</time></trkpt><trkpt lat="43.0801043" lon="12.1381723"><ele>290.0</ele><time>2026-05-03T08:23:12.16Z</time></trkpt><trkpt lat="43.0801195" lon="12.1380674"><ele>290.0</ele><time>2026-05-03T08:23:13.16Z</time></trkpt><trkpt lat="43.0801157" lon="12.1379723"><ele>292.6</ele><time>2026-05-03T08:23:14.157Z</time></trkpt><trkpt lat="43.0800705" lon="12.137869"><ele>295.2</ele><time>2026-05-03T08:23:16.161Z</time></trkpt><trkpt lat="43.0799804" lon="12.1379852"><ele>297.8</ele><time>2026-05-03T08:23:18.172Z</time></trkpt><trkpt lat="43.0799453" lon="12.1380882"><ele>300.4</ele><time>2026-05-03T08:23:19.162Z</time></trkpt><trkpt lat="43.0799086" lon="12.1381897"><ele>303.0</ele><time>2026-05-03T08:23:20.158Z</time></trkpt><trkpt lat="43.0798675" lon="12.1382974"><ele>304.0</ele><time>2026-05-03T08:23:21.156Z</time></trkpt><trkpt lat="43.0798159" lon="12.1384003"><ele>305.0</ele><time>2026-05-03T08:23:22.163Z</time></trkpt><trkpt lat="43.0797607" lon="12.1384924"><ele>306.0</ele><time>2026-05-03T08:23:23.158Z</time></trkpt><trkpt lat="43.0797101" lon="12.1385735"><ele>307.0</ele><time>2026-05-03T08:23:24.157Z</time></trkpt><trkpt lat="43.079662" lon="12.1386465"><ele>308.0</ele><time>2026-05-03T08:23:25.16Z</time></trkpt><trkpt lat="43.0796183" lon="12.1387191"><ele>309.0</ele><time>2026-05-03T08:23:26.162Z</time></trkpt><trkpt lat="43.0795758" lon="12.1387904"><ele>309.0</ele><time>2026-05-03T08:23:27.163Z</time></trkpt><trkpt lat="43.0795284" lon="12.1388607"><ele>309.0</ele><time>2026-05-03T08:23:28.162Z</time></trkpt><trkpt lat="43.0794768" lon="12.1389163"><ele>309.0</ele><time>2026-05-03T08:23:29.168Z</time></trkpt><trkpt lat="43.0794162" lon="12.1389495"><ele>309.0</ele><time>2026-05-03T08:23:30.16Z</time></trkpt><trkpt lat="43.0792952" lon="12.1389868"><ele>309.0</ele><time>2026-05-03T08:23:32.159Z</time></trkpt><trkpt lat="43.0791663" lon="12.1389993"><ele>310.6666666666667</ele><time>2026-05-03T08:23:34.159Z</time></trkpt><trkpt lat="43.079093" lon="12.1389823"><ele>312.3333333333333</ele><time>2026-05-03T08:23:35.153Z</time></trkpt><trkpt lat="43.0790106" lon="12.1389623"><ele>314.0</ele><time>2026-05-03T08:23:36.159Z</time></trkpt><trkpt lat="43.0789228" lon="12.1389462"><ele>315.66666666666663</ele><time>2026-05-03T08:23:37.157Z</time></trkpt><trkpt lat="43.0788351" lon="12.1389484"><ele>317.3333333333333</ele><time>2026-05-03T08:23:38.156Z</time></trkpt><trkpt lat="43.0787455" lon="12.1389603"><ele>319.0</ele><time>2026-05-03T08:23:39.161Z</time></trkpt><trkpt lat="43.0786561" lon="12.1389834"><ele>319.0</ele><time>2026-05-03T08:23:40.16Z</time></trkpt><trkpt lat="43.0785647" lon="12.1389942"><ele>319.0</ele><time>2026-05-03T08:23:41.158Z</time></trkpt><trkpt lat="43.0784731" lon="12.1389948"><ele>319.0</ele><time>2026-05-03T08:23:42.158Z</time></trkpt><trkpt lat="43.0783814" lon="12.1389836"><ele>319.0</ele><time>2026-05-03T08:23:43.159Z</time></trkpt><trkpt lat="43.0782912" lon="12.1389673"><ele>319.0</ele><time>2026-05-03T08:23:44.159Z</time></trkpt><trkpt lat="43.0782039" lon="12.138953"><ele>320.8333333333333</ele><time>2026-05-03T08:23:45.16Z</time></trkpt><trkpt lat="43.0781198" lon="12.1389337"><ele>322.66666666666663</ele><time>2026-05-03T08:23:46.157Z</time></trkpt><trkpt lat="43.0780523" lon="12.1389059"><ele>324.5</ele><time>2026-05-03T08:23:47.162Z</time></trkpt><trkpt lat="43.0780175" lon="12.1388165"><ele>326.3333333333333</ele><time>2026-05-03T08:23:49.164Z</time></trkpt><trkpt lat="43.0781125" lon="12.1387262"><ele>328.1666666666667</ele><time>2026-05-03T08:23:51.173Z</time></trkpt><trkpt lat="43.078188" lon="12.1387104"><ele>330.0</ele><time>2026-05-03T08:23:52.154Z</time></trkpt><trkpt lat="43.0782486" lon="12.138672"><ele>330.0</ele><time>2026-05-03T08:23:53.16Z</time></trkpt><trkpt lat="43.0782864" lon="12.1385725"><ele>330.0</ele><time>2026-05-03T08:23:55.165Z</time></trkpt><trkpt lat="43.0782104" lon="12.138513"><ele>330.0</ele><time>2026-05-03T08:23:57.177Z</time></trkpt><trkpt lat="43.0781458" lon="12.1385008"><ele>330.0</ele><time>2026-05-03T08:23:58.172Z</time></trkpt><trkpt lat="43.0780717" lon="12.1384888"><ele>330.0</ele><time>2026-05-03T08:23:59.158Z</time></trkpt><trkpt lat="43.0780007" lon="12.1384928"><ele>330.0</ele><time>2026-05-03T08:24:00.169Z</time></trkpt><trkpt lat="43.0779282" lon="12.1385162"><ele>330.0</ele><time>2026-05-03T08:24:01.157Z</time></trkpt><trkpt lat="43.0778484" lon="12.1385555"><ele>330.0</ele><time>2026-05-03T08:24:02.154Z</time></trkpt><trkpt lat="43.0777693" lon="12.1386066"><ele>330.0</ele><time>2026-05-03T08:24:03.159Z</time></trkpt><trkpt lat="43.077691" lon="12.1386547"><ele>330.0</ele><time>2026-05-03T08:24:04.159Z</time></trkpt><trkpt lat="43.0776247" lon="12.13869"><ele>330.0</ele><time>2026-05-03T08:24:05.155Z</time></trkpt><trkpt lat="43.0775285" lon="12.1386673"><ele>330.0</ele><time>2026-05-03T08:24:07.16Z</time></trkpt><trkpt lat="43.0775628" lon="12.1385622"><ele>330.0</ele><time>2026-05-03T08:24:09.167Z</time></trkpt><trkpt lat="43.0776277" lon="12.1385214"><ele>330.0</ele><time>2026-05-03T08:24:10.169Z</time></trkpt><trkpt lat="43.0776839" lon="12.1384716"><ele>330.0</ele><time>2026-05-03T08:24:11.157Z</time></trkpt><trkpt lat="43.0777171" lon="12.1383666"><ele>330.0</ele><time>2026-05-03T08:24:13.168Z</time></trkpt><trkpt lat="43.0776226" lon="12.1383545"><ele>330.0</ele><time>2026-05-03T08:24:16.166Z</time></trkpt><trkpt lat="43.0775623" lon="12.1383881"><ele>330.0</ele><time>2026-05-03T08:24:17.172Z</time></trkpt><trkpt lat="43.0774915" lon="12.1384271"><ele>331.3333333333333</ele><time>2026-05-03T08:24:18.156Z</time></trkpt><trkpt lat="43.0774191" lon="12.1384586"><ele>332.6666666666667</ele><time>2026-05-03T08:24:19.161Z</time></trkpt><trkpt lat="43.0773505" lon="12.1384775"><ele>334.0</ele><time>2026-05-03T08:24:20.154Z</time></trkpt><trkpt lat="43.0772431" lon="12.1384207"><ele>335.33333333333337</ele><time>2026-05-03T08:24:22.159Z</time></trkpt><trkpt lat="43.0772143" lon="12.1383431"><ele>336.6666666666667</ele><time>2026-05-03T08:24:23.162Z</time></trkpt><trkpt lat="43.0771813" lon="12.1382553"><ele>338.0</ele><time>2026-05-03T08:24:24.159Z</time></trkpt><trkpt lat="43.0771464" lon="12.1381661"><ele>338.0</ele><time>2026-05-03T08:24:25.158Z</time></trkpt><trkpt lat="43.0771022" lon="12.1380906"><ele>338.0</ele><time>2026-05-03T08:24:26.151Z</time></trkpt><trkpt lat="43.0770524" lon="12.1380218"><ele>338.0</ele><time>2026-05-03T08:24:27.157Z</time></trkpt><trkpt lat="43.0769983" lon="12.1379648"><ele>338.0</ele><time>2026-05-03T08:24:28.163Z</time></trkpt><trkpt lat="43.076913" lon="12.1379157"><ele>338.0</ele><time>2026-05-03T08:24:30.152Z</time></trkpt><trkpt lat="43.0768377" lon="12.1379582"><ele>338.0</ele><time>2026-05-03T08:24:32.168Z</time></trkpt><trkpt lat="43.0768449" lon="12.1380987"><ele>338.0</ele><time>2026-05-03T08:24:34.166Z</time></trkpt><trkpt lat="43.076867" lon="12.1381998"><ele>338.0</ele><time>2026-05-03T08:24:35.157Z</time></trkpt><trkpt lat="43.0768906" lon="12.1383204"><ele>338.0</ele><time>2026-05-03T08:24:36.157Z</time></trkpt><trkpt lat="43.0769021" lon="12.1384274"><ele>338.0</ele><time>2026-05-03T08:24:37.154Z</time></trkpt><trkpt lat="43.0769069" lon="12.1385354"><ele>338.0</ele><time>2026-05-03T08:24:38.155Z</time></trkpt><trkpt lat="43.076901" lon="12.1386496"><ele>338.0</ele><time>2026-05-03T08:24:39.157Z</time></trkpt><trkpt lat="43.0768846" lon="12.1387591"><ele>340.6666666666667</ele><time>2026-05-03T08:24:40.157Z</time></trkpt><trkpt lat="43.0768533" lon="12.1388578"><ele>343.33333333333337</ele><time>2026-05-03T08:24:41.156Z</time></trkpt><trkpt lat="43.0768074" lon="12.1389382"><ele>346.0</ele><time>2026-05-03T08:24:42.157Z</time></trkpt><trkpt lat="43.0767323" lon="12.1390046"><ele>348.6666666666667</ele><time>2026-05-03T08:24:43.156Z</time></trkpt><trkpt lat="43.0766463" lon="12.1390669"><ele>351.3333333333333</ele><time>2026-05-03T08:24:44.156Z</time></trkpt><trkpt lat="43.0765518" lon="12.1391272"><ele>354.0</ele><time>2026-05-03T08:24:45.162Z</time></trkpt><trkpt lat="43.0764471" lon="12.1391911"><ele>355.8333333333333</ele><time>2026-05-03T08:24:46.159Z</time></trkpt><trkpt lat="43.0763518" lon="12.1392549"><ele>357.6666666666667</ele><time>2026-05-03T08:24:47.162Z</time></trkpt><trkpt lat="43.0762663" lon="12.1393114"><ele>359.5</ele><time>2026-05-03T08:24:48.159Z</time></trkpt><trkpt lat="43.0761906" lon="12.139352"><ele>361.33333333333337</ele><time>2026-05-03T08:24:49.164Z</time></trkpt><trkpt lat="43.0761142" lon="12.1393818"><ele>363.1666666666667</ele><time>2026-05-03T08:24:50.158Z</time></trkpt><trkpt lat="43.0760274" lon="12.1393965"><ele>365.0</ele><time>2026-05-03T08:24:51.164Z</time></trkpt><trkpt lat="43.0759347" lon="12.1393806"><ele>365.0</ele><time>2026-05-03T08:24:52.159Z</time></trkpt><trkpt lat="43.0758386" lon="12.139353"><ele>365.0</ele><time>2026-05-03T08:24:53.16Z</time></trkpt><trkpt lat="43.0757377" lon="12.1393287"><ele>365.0</ele><time>2026-05-03T08:24:54.16Z</time></trkpt><trkpt lat="43.0756387" lon="12.1393152"><ele>365.0</ele><time>2026-05-03T08:24:55.164Z</time></trkpt><trkpt lat="43.0755534" lon="12.1393059"><ele>365.0</ele><time>2026-05-03T08:24:56.157Z</time></trkpt><trkpt lat="43.0754747" lon="12.1393112"><ele>364.6666666666667</ele><time>2026-05-03T08:24:57.157Z</time></trkpt><trkpt lat="43.0754024" lon="12.1393311"><ele>364.33333333333337</ele><time>2026-05-03T08:24:58.161Z</time></trkpt><trkpt lat="43.0753371" lon="12.1393695"><ele>364.0</ele><time>2026-05-03T08:24:59.161Z</time></trkpt><trkpt lat="43.0752685" lon="12.1394191"><ele>363.6666666666667</ele><time>2026-05-03T08:25:00.16Z</time></trkpt><trkpt lat="43.0752009" lon="12.139475"><ele>363.3333333333333</ele><time>2026-05-03T08:25:01.158Z</time></trkpt><trkpt lat="43.0751314" lon="12.1395288"><ele>363.0</ele><time>2026-05-03T08:25:02.167Z</time></trkpt><trkpt lat="43.0750591" lon="12.1395807"><ele>362.99999999999994</ele><time>2026-05-03T08:25:03.157Z</time></trkpt><trkpt lat="43.0749896" lon="12.1396317"><ele>363.0</ele><time>2026-05-03T08:25:04.159Z</time></trkpt><trkpt lat="43.0749191" lon="12.1396768"><ele>363.0</ele><time>2026-05-03T08:25:05.156Z</time></trkpt><trkpt lat="43.074855" lon="12.1397209"><ele>363.0</ele><time>2026-05-03T08:25:06.159Z</time></trkpt><trkpt lat="43.0747931" lon="12.1397603"><ele>363.0</ele><time>2026-05-03T08:25:07.158Z</time></trkpt><trkpt lat="43.0747328" lon="12.1397985"><ele>362.99999999999994</ele><time>2026-05-03T08:25:08.158Z</time></trkpt><trkpt lat="43.074666" lon="12.1398373"><ele>363.0</ele><time>2026-05-03T08:25:09.161Z</time></trkpt><trkpt lat="43.0746024" lon="12.1398787"><ele>365.0</ele><time>2026-05-03T08:25:10.158Z</time></trkpt><trkpt lat="43.07454" lon="12.1399154"><ele>367.0</ele><time>2026-05-03T08:25:11.159Z</time></trkpt><trkpt lat="43.0744351" lon="12.1399545"><ele>369.0</ele><time>2026-05-03T08:25:13.161Z</time></trkpt><trkpt lat="43.0743302" lon="12.1398977"><ele>371.0</ele><time>2026-05-03T08:25:15.157Z</time></trkpt><trkpt lat="43.0742248" lon="12.1398948"><ele>373.0</ele><time>2026-05-03T08:25:17.161Z</time></trkpt><trkpt lat="43.0741039" lon="12.1399331"><ele>374.16666666666663</ele><time>2026-05-03T08:25:19.16Z</time></trkpt><trkpt lat="43.0740367" lon="12.1399517"><ele>375.3333333333333</ele><time>2026-05-03T08:25:20.156Z</time></trkpt><trkpt lat="43.073961" lon="12.1399656"><ele>376.5</ele><time>2026-05-03T08:25:21.154Z</time></trkpt><trkpt lat="43.073882" lon="12.1399774"><ele>377.6666666666667</ele><time>2026-05-03T08:25:22.154Z</time></trkpt><trkpt lat="43.0738147" lon="12.1399867"><ele>378.83333333333337</ele><time>2026-05-03T08:25:23.157Z</time></trkpt><trkpt lat="43.0737512" lon="12.1399971"><ele>380.0</ele><time>2026-05-03T08:25:24.157Z</time></trkpt><trkpt lat="43.0736577" lon="12.1400353"><ele>380.0</ele><time>2026-05-03T08:25:26.159Z</time></trkpt><trkpt lat="43.0736076" lon="12.1401229"><ele>380.0</ele><time>2026-05-03T08:25:29.17Z</time></trkpt><trkpt lat="43.0735349" lon="12.1402092"><ele>380.0</ele><time>2026-05-03T08:25:31.164Z</time></trkpt><trkpt lat="43.0734055" lon="12.1402863"><ele>380.0</ele><time>2026-05-03T08:25:33.174Z</time></trkpt><trkpt lat="43.0733284" lon="12.1403357"><ele>380.0</ele><time>2026-05-03T08:25:34.16Z</time></trkpt><trkpt lat="43.0732562" lon="12.1403935"><ele>380.0</ele><time>2026-05-03T08:25:35.16Z</time></trkpt><trkpt lat="43.07319" lon="12.1404639"><ele>380.0</ele><time>2026-05-03T08:25:36.161Z</time></trkpt><trkpt lat="43.073131" lon="12.1405307"><ele>380.0</ele><time>2026-05-03T08:25:37.157Z</time></trkpt><trkpt lat="43.0730774" lon="12.1405796"><ele>380.0</ele><time>2026-05-03T08:25:38.159Z</time></trkpt><trkpt lat="43.0729895" lon="12.1406464"><ele>380.0</ele><time>2026-05-03T08:25:40.158Z</time></trkpt><trkpt lat="43.0728835" lon="12.1407031"><ele>380.0</ele><time>2026-05-03T08:25:42.157Z</time></trkpt><trkpt lat="43.0728195" lon="12.1407441"><ele>383.33333333333337</ele><time>2026-05-03T08:25:43.166Z</time></trkpt><trkpt lat="43.0727599" lon="12.1407979"><ele>386.6666666666667</ele><time>2026-05-03T08:25:44.148Z</time></trkpt><trkpt lat="43.0727042" lon="12.1408496"><ele>390.0</ele><time>2026-05-03T08:25:45.159Z</time></trkpt><trkpt lat="43.0725901" lon="12.140931"><ele>393.33333333333337</ele><time>2026-05-03T08:25:47.161Z</time></trkpt><trkpt lat="43.0725303" lon="12.1409676"><ele>396.6666666666667</ele><time>2026-05-03T08:25:48.154Z</time></trkpt><trkpt lat="43.0724676" lon="12.141"><ele>400.0</ele><time>2026-05-03T08:25:49.157Z</time></trkpt><trkpt lat="43.0723585" lon="12.141042"><ele>401.6</ele><time>2026-05-03T08:25:51.156Z</time></trkpt><trkpt lat="43.0722697" lon="12.1410887"><ele>403.2</ele><time>2026-05-03T08:25:53.155Z</time></trkpt><trkpt lat="43.0721951" lon="12.1411564"><ele>404.79999999999995</ele><time>2026-05-03T08:25:55.156Z</time></trkpt><trkpt lat="43.0720961" lon="12.1412204"><ele>406.4</ele><time>2026-05-03T08:25:57.158Z</time></trkpt><trkpt lat="43.0719825" lon="12.1412723"><ele>408.0</ele><time>2026-05-03T08:25:59.154Z</time></trkpt><trkpt lat="43.0718889" lon="12.1413298"><ele>408.0</ele><time>2026-05-03T08:26:01.152Z</time></trkpt><trkpt lat="43.0718286" lon="12.1414043"><ele>408.0</ele><time>2026-05-03T08:26:03.173Z</time></trkpt><trkpt lat="43.0717741" lon="12.1414578"><ele>408.0</ele><time>2026-05-03T08:26:05.173Z</time></trkpt><trkpt lat="43.071694" lon="12.1414352"><ele>408.0</ele><time>2026-05-03T08:26:07.165Z</time></trkpt><trkpt lat="43.0715898" lon="12.1414502"><ele>408.0</ele><time>2026-05-03T08:26:09.17Z</time></trkpt><trkpt lat="43.0715108" lon="12.1414698"><ele>408.0</ele><time>2026-05-03T08:26:10.148Z</time></trkpt><trkpt lat="43.0714353" lon="12.1414883"><ele>412.4</ele><time>2026-05-03T08:26:11.15Z</time></trkpt><trkpt lat="43.0713704" lon="12.1415002"><ele>416.79999999999995</ele><time>2026-05-03T08:26:12.157Z</time></trkpt><trkpt lat="43.0712545" lon="12.1414969"><ele>421.2</ele><time>2026-05-03T08:26:14.152Z</time></trkpt><trkpt lat="43.0711562" lon="12.1415516"><ele>425.6</ele><time>2026-05-03T08:26:16.15Z</time></trkpt><trkpt lat="43.0710557" lon="12.1416258"><ele>430.0</ele><time>2026-05-03T08:26:18.155Z</time></trkpt><trkpt lat="43.070952" lon="12.1416693"><ele>432.0</ele><time>2026-05-03T08:26:20.155Z</time></trkpt><trkpt lat="43.0708883" lon="12.1416857"><ele>434.0</ele><time>2026-05-03T08:26:21.156Z</time></trkpt><trkpt lat="43.0707689" lon="12.1417004"><ele>436.0</ele><time>2026-05-03T08:26:23.156Z</time></trkpt><trkpt lat="43.0706526" lon="12.1417399"><ele>438.0</ele><time>2026-05-03T08:26:25.161Z</time></trkpt><trkpt lat="43.0705975" lon="12.1418101"><ele>440.0</ele><time>2026-05-03T08:26:27.169Z</time></trkpt><trkpt lat="43.0705414" lon="12.1418742"><ele>439.99999999999994</ele><time>2026-05-03T08:26:30.167Z</time></trkpt><trkpt lat="43.0704813" lon="12.1419048"><ele>440.0</ele><time>2026-05-03T08:26:32.164Z</time></trkpt><trkpt lat="43.0703893" lon="12.141883"><ele>440.0</ele><time>2026-05-03T08:26:38.161Z</time></trkpt><trkpt lat="43.0703068" lon="12.1418639"><ele>440.0</ele><time>2026-05-03T08:26:40.161Z</time></trkpt><trkpt lat="43.0702279" lon="12.1418741"><ele>439.99999999999994</ele><time>2026-05-03T08:26:42.168Z</time></trkpt><trkpt lat="43.0701613" lon="12.1418227"><ele>440.0</ele><time>2026-05-03T08:26:50.165Z</time></trkpt><trkpt lat="43.0701325" lon="12.1417228"><ele>440.0</ele><time>2026-05-03T08:26:52.167Z</time></trkpt><trkpt lat="43.070084" lon="12.141628"><ele>440.0</ele><time>2026-05-03T08:26:54.159Z</time></trkpt><trkpt lat="43.0700219" lon="12.1415399"><ele>440.0</ele><time>2026-05-03T08:26:56.162Z</time></trkpt><trkpt lat="43.0699919" lon="12.1414217"><ele>440.0</ele><time>2026-05-03T08:26:58.162Z</time></trkpt><trkpt lat="43.0699936" lon="12.1412872"><ele>440.0</ele><time>2026-05-03T08:27:00.164Z</time></trkpt><trkpt lat="43.0699655" lon="12.1411344"><ele>437.8333333333333</ele><time>2026-05-03T08:27:02.163Z</time></trkpt><trkpt lat="43.0699392" lon="12.14105"><ele>435.66666666666663</ele><time>2026-05-03T08:27:03.151Z</time></trkpt><trkpt lat="43.0698943" lon="12.1409567"><ele>433.5</ele><time>2026-05-03T08:27:04.164Z</time></trkpt><trkpt lat="43.0698481" lon="12.1408867"><ele>431.33333333333337</ele><time>2026-05-03T08:27:05.165Z</time></trkpt><trkpt lat="43.0697607" lon="12.1407629"><ele>429.1666666666667</ele><time>2026-05-03T08:27:07.15Z</time></trkpt><trkpt lat="43.0697172" lon="12.1406886"><ele>427.0</ele><time>2026-05-03T08:27:08.15Z</time></trkpt><trkpt lat="43.0696811" lon="12.1405998"><ele>427.00000000000006</ele><time>2026-05-03T08:27:09.151Z</time></trkpt><trkpt lat="43.0696373" lon="12.1405016"><ele>427.0</ele><time>2026-05-03T08:27:10.151Z</time></trkpt><trkpt lat="43.0695993" lon="12.1404125"><ele>427.0</ele><time>2026-05-03T08:27:11.148Z</time></trkpt><trkpt lat="43.0695593" lon="12.1403319"><ele>427.0</ele><time>2026-05-03T08:27:12.154Z</time></trkpt><trkpt lat="43.0695256" lon="12.1402434"><ele>427.00000000000006</ele><time>2026-05-03T08:27:13.152Z</time></trkpt><trkpt lat="43.0695012" lon="12.1401559"><ele>427.0</ele><time>2026-05-03T08:27:14.153Z</time></trkpt><trkpt lat="43.0694494" lon="12.1400226"><ele>427.0</ele><time>2026-05-03T08:27:16.151Z</time></trkpt><trkpt lat="43.0693722" lon="12.1399276"><ele>427.00000000000006</ele><time>2026-05-03T08:27:18.15Z</time></trkpt><trkpt lat="43.0692665" lon="12.1398526"><ele>427.00000000000006</ele><time>2026-05-03T08:27:20.153Z</time></trkpt><trkpt lat="43.0691795" lon="12.1397701"><ele>427.0</ele><time>2026-05-03T08:27:22.154Z</time></trkpt><trkpt lat="43.0690954" lon="12.1397014"><ele>427.0</ele><time>2026-05-03T08:27:24.151Z</time></trkpt><trkpt lat="43.0690163" lon="12.1396696"><ele>422.20000000000005</ele><time>2026-05-03T08:27:26.162Z</time></trkpt><trkpt lat="43.0689241" lon="12.1396602"><ele>417.40000000000003</ele><time>2026-05-03T08:27:28.153Z</time></trkpt><trkpt lat="43.0688268" lon="12.1396807"><ele>412.6</ele><time>2026-05-03T08:27:30.154Z</time></trkpt><trkpt lat="43.068727" lon="12.1396384"><ele>407.79999999999995</ele><time>2026-05-03T08:27:32.155Z</time></trkpt><trkpt lat="43.06864" lon="12.1395547"><ele>403.0</ele><time>2026-05-03T08:27:34.153Z</time></trkpt><trkpt lat="43.0685686" lon="12.1394861"><ele>403.0</ele><time>2026-05-03T08:27:36.174Z</time></trkpt><trkpt lat="43.0684861" lon="12.1393985"><ele>403.0</ele><time>2026-05-03T08:27:38.152Z</time></trkpt><trkpt lat="43.0684135" lon="12.1392901"><ele>403.0</ele><time>2026-05-03T08:27:40.152Z</time></trkpt><trkpt lat="43.0683932" lon="12.1391524"><ele>403.0</ele><time>2026-05-03T08:27:42.153Z</time></trkpt><trkpt lat="43.0683951" lon="12.139011"><ele>403.0</ele><time>2026-05-03T08:27:44.157Z</time></trkpt><trkpt lat="43.0684252" lon="12.1388563"><ele>400.59999999999997</ele><time>2026-05-03T08:27:46.152Z</time></trkpt><trkpt lat="43.068486" lon="12.1387444"><ele>398.2</ele><time>2026-05-03T08:27:48.161Z</time></trkpt><trkpt lat="43.0685856" lon="12.1386595"><ele>395.8</ele><time>2026-05-03T08:27:50.148Z</time></trkpt><trkpt lat="43.068641" lon="12.1386074"><ele>393.4</ele><time>2026-05-03T08:27:51.149Z</time></trkpt><trkpt lat="43.0686966" lon="12.1385605"><ele>391.0</ele><time>2026-05-03T08:27:52.148Z</time></trkpt><trkpt lat="43.068786" lon="12.1384481"><ele>391.0</ele><time>2026-05-03T08:27:54.147Z</time></trkpt><trkpt lat="43.068821" lon="12.1383705"><ele>391.0</ele><time>2026-05-03T08:27:55.149Z</time></trkpt><trkpt lat="43.068855" lon="12.1382956"><ele>391.0</ele><time>2026-05-03T08:27:56.142Z</time></trkpt><trkpt lat="43.068922" lon="12.1381728"><ele>391.0</ele><time>2026-05-03T08:27:58.145Z</time></trkpt><trkpt lat="43.0689759" lon="12.1380461"><ele>391.0</ele><time>2026-05-03T08:28:00.148Z</time></trkpt><trkpt lat="43.0690342" lon="12.1379137"><ele>390.6666666666667</ele><time>2026-05-03T08:28:02.15Z</time></trkpt><trkpt lat="43.0691051" lon="12.1377651"><ele>390.33333333333337</ele><time>2026-05-03T08:28:04.152Z</time></trkpt><trkpt lat="43.0691377" lon="12.1376793"><ele>390.0</ele><time>2026-05-03T08:28:05.147Z</time></trkpt><trkpt lat="43.0691626" lon="12.1375994"><ele>389.66666666666663</ele><time>2026-05-03T08:28:06.149Z</time></trkpt><trkpt lat="43.0691787" lon="12.1374831"><ele>389.3333333333333</ele><time>2026-05-03T08:28:08.149Z</time></trkpt><trkpt lat="43.0691081" lon="12.1374791"><ele>389.0</ele><time>2026-05-03T08:28:10.157Z</time></trkpt><trkpt lat="43.0690098" lon="12.1374698"><ele>387.49999999999994</ele><time>2026-05-03T08:28:12.161Z</time></trkpt><trkpt lat="43.0689172" lon="12.1373961"><ele>386.0</ele><time>2026-05-03T08:28:14.159Z</time></trkpt><trkpt lat="43.0688664" lon="12.1373446"><ele>384.5</ele><time>2026-05-03T08:28:15.149Z</time></trkpt><trkpt lat="43.068805" lon="12.1372811"><ele>383.0</ele><time>2026-05-03T08:28:16.141Z</time></trkpt><trkpt lat="43.0687373" lon="12.1372078"><ele>381.5</ele><time>2026-05-03T08:28:17.148Z</time></trkpt><trkpt lat="43.0686724" lon="12.1371427"><ele>380.0</ele><time>2026-05-03T08:28:18.148Z</time></trkpt><trkpt lat="43.0686033" lon="12.1370865"><ele>380.0</ele><time>2026-05-03T08:28:19.155Z</time></trkpt><trkpt lat="43.0685376" lon="12.1370334"><ele>380.0</ele><time>2026-05-03T08:28:20.15Z</time></trkpt><trkpt lat="43.0684457" lon="12.1369261"><ele>380.0</ele><time>2026-05-03T08:28:22.148Z</time></trkpt><trkpt lat="43.0683559" lon="12.1368643"><ele>380.0</ele><time>2026-05-03T08:28:24.147Z</time></trkpt><trkpt lat="43.0682719" lon="12.1368137"><ele>380.0</ele><time>2026-05-03T08:28:26.148Z</time></trkpt><trkpt lat="43.0681731" lon="12.1367513"><ele>376.5</ele><time>2026-05-03T08:28:28.145Z</time></trkpt><trkpt lat="43.0680747" lon="12.1366321"><ele>373.0</ele><time>2026-05-03T08:28:30.147Z</time></trkpt><trkpt lat="43.0680236" lon="12.1365468"><ele>369.5</ele><time>2026-05-03T08:28:31.149Z</time></trkpt><trkpt lat="43.0679721" lon="12.1364753"><ele>366.0</ele><time>2026-05-03T08:28:32.148Z</time></trkpt><trkpt lat="43.067927" lon="12.1364111"><ele>362.5</ele><time>2026-05-03T08:28:33.147Z</time></trkpt><trkpt lat="43.0678865" lon="12.1363378"><ele>359.0</ele><time>2026-05-03T08:28:34.153Z</time></trkpt><trkpt lat="43.0678446" lon="12.1362528"><ele>359.0</ele><time>2026-05-03T08:28:35.151Z</time></trkpt><trkpt lat="43.0678067" lon="12.1361676"><ele>359.0</ele><time>2026-05-03T08:28:36.146Z</time></trkpt><trkpt lat="43.0677775" lon="12.1360802"><ele>359.0</ele><time>2026-05-03T08:28:37.144Z</time></trkpt><trkpt lat="43.067772" lon="12.1359262"><ele>359.0</ele><time>2026-05-03T08:28:39.147Z</time></trkpt><trkpt lat="43.0678177" lon="12.135769"><ele>359.0</ele><time>2026-05-03T08:28:41.151Z</time></trkpt><trkpt lat="43.067846" lon="12.1356636"><ele>358.0</ele><time>2026-05-03T08:28:42.151Z</time></trkpt><trkpt lat="43.0678883" lon="12.1355376"><ele>357.0</ele><time>2026-05-03T08:28:43.142Z</time></trkpt><trkpt lat="43.0679294" lon="12.1354326"><ele>356.0</ele><time>2026-05-03T08:28:44.145Z</time></trkpt><trkpt lat="43.067966" lon="12.1353293"><ele>355.0</ele><time>2026-05-03T08:28:45.147Z</time></trkpt><trkpt lat="43.0680029" lon="12.1352205"><ele>354.0</ele><time>2026-05-03T08:28:46.149Z</time></trkpt><trkpt lat="43.0680375" lon="12.1350984"><ele>354.0</ele><time>2026-05-03T08:28:47.152Z</time></trkpt><trkpt lat="43.0680698" lon="12.1349868"><ele>354.0</ele><time>2026-05-03T08:28:48.15Z</time></trkpt><trkpt lat="43.0680946" lon="12.1348973"><ele>354.0</ele><time>2026-05-03T08:28:49.154Z</time></trkpt><trkpt lat="43.0680999" lon="12.1347708"><ele>354.0</ele><time>2026-05-03T08:28:51.151Z</time></trkpt><trkpt lat="43.0680865" lon="12.1346628"><ele>354.0</ele><time>2026-05-03T08:28:53.152Z</time></trkpt><trkpt lat="43.0680119" lon="12.1346564"><ele>354.0</ele><time>2026-05-03T08:28:55.16Z</time></trkpt><trkpt lat="43.0679049" lon="12.134677"><ele>352.42857142857144</ele><time>2026-05-03T08:28:57.161Z</time></trkpt><trkpt lat="43.0678406" lon="12.13467"><ele>350.85714285714283</ele><time>2026-05-03T08:28:58.148Z</time></trkpt><trkpt lat="43.0677774" lon="12.1346572"><ele>349.2857142857143</ele><time>2026-05-03T08:28:59.145Z</time></trkpt><trkpt lat="43.0677088" lon="12.1346481"><ele>347.7142857142857</ele><time>2026-05-03T08:29:00.149Z</time></trkpt><trkpt lat="43.0676385" lon="12.1346435"><ele>346.1428571428571</ele><time>2026-05-03T08:29:01.149Z</time></trkpt><trkpt lat="43.0675737" lon="12.1346524"><ele>344.57142857142856</ele><time>2026-05-03T08:29:02.151Z</time></trkpt><trkpt lat="43.0674627" lon="12.1346779"><ele>343.0</ele><time>2026-05-03T08:29:04.149Z</time></trkpt><trkpt lat="43.0673732" lon="12.134633"><ele>342.2</ele><time>2026-05-03T08:29:06.16Z</time></trkpt><trkpt lat="43.0672644" lon="12.1345891"><ele>341.4</ele><time>2026-05-03T08:29:08.151Z</time></trkpt><trkpt lat="43.0671999" lon="12.1345833"><ele>340.59999999999997</ele><time>2026-05-03T08:29:09.158Z</time></trkpt><trkpt lat="43.0671349" lon="12.1345864"><ele>339.79999999999995</ele><time>2026-05-03T08:29:10.154Z</time></trkpt><trkpt lat="43.0670215" lon="12.1345839"><ele>339.0</ele><time>2026-05-03T08:29:12.153Z</time></trkpt><trkpt lat="43.0669156" lon="12.1345084"><ele>339.0</ele><time>2026-05-03T08:29:14.145Z</time></trkpt><trkpt lat="43.0668363" lon="12.1343851"><ele>339.0</ele><time>2026-05-03T08:29:16.143Z</time></trkpt><trkpt lat="43.0667765" lon="12.1343264"><ele>339.0</ele><time>2026-05-03T08:29:18.16Z</time></trkpt><trkpt lat="43.0667223" lon="12.1342365"><ele>339.0</ele><time>2026-05-03T08:30:48.161Z</time></trkpt><trkpt lat="43.0667119" lon="12.1341164"><ele>339.0</ele><time>2026-05-03T08:30:50.159Z</time></trkpt><trkpt lat="43.0667401" lon="12.1339524"><ele>340.4</ele><time>2026-05-03T08:30:52.162Z</time></trkpt><trkpt lat="43.0667607" lon="12.1338589"><ele>341.79999999999995</ele><time>2026-05-03T08:30:53.15Z</time></trkpt><trkpt lat="43.0667759" lon="12.1337702"><ele>343.20000000000005</ele><time>2026-05-03T08:30:54.148Z</time></trkpt><trkpt lat="43.0667685" lon="12.1336677"><ele>344.6</ele><time>2026-05-03T08:30:56.16Z</time></trkpt><trkpt lat="43.0666642" lon="12.1336765"><ele>346.0</ele><time>2026-05-03T08:30:59.162Z</time></trkpt><trkpt lat="43.0665271" lon="12.1336877"><ele>346.0</ele><time>2026-05-03T08:31:01.152Z</time></trkpt><trkpt lat="43.0664374" lon="12.1336773"><ele>346.0</ele><time>2026-05-03T08:31:02.147Z</time></trkpt><trkpt lat="43.0663372" lon="12.1336649"><ele>346.0</ele><time>2026-05-03T08:31:03.149Z</time></trkpt><trkpt lat="43.0662212" lon="12.1336568"><ele>346.0</ele><time>2026-05-03T08:31:04.146Z</time></trkpt><trkpt lat="43.0661171" lon="12.1336601"><ele>346.0</ele><time>2026-05-03T08:31:05.156Z</time></trkpt><trkpt lat="43.0660257" lon="12.1336689"><ele>346.0</ele><time>2026-05-03T08:31:06.147Z</time></trkpt><trkpt lat="43.0659503" lon="12.1336693"><ele>346.0</ele><time>2026-05-03T08:31:07.145Z</time></trkpt><trkpt lat="43.0658813" lon="12.1336689"><ele>346.0</ele><time>2026-05-03T08:31:08.152Z</time></trkpt><trkpt lat="43.0657772" lon="12.1336241"><ele>346.0</ele><time>2026-05-03T08:31:10.148Z</time></trkpt><trkpt lat="43.0657103" lon="12.1335338"><ele>346.0</ele><time>2026-05-03T08:31:12.149Z</time></trkpt><trkpt lat="43.0656166" lon="12.1334305"><ele>344.66666666666663</ele><time>2026-05-03T08:31:14.147Z</time></trkpt><trkpt lat="43.0655502" lon="12.1333844"><ele>343.3333333333333</ele><time>2026-05-03T08:31:15.149Z</time></trkpt><trkpt lat="43.0654828" lon="12.1333412"><ele>342.0</ele><time>2026-05-03T08:31:16.148Z</time></trkpt><trkpt lat="43.0654034" lon="12.1333004"><ele>340.6666666666667</ele><time>2026-05-03T08:31:17.159Z</time></trkpt><trkpt lat="43.0653125" lon="12.1332698"><ele>339.33333333333337</ele><time>2026-05-03T08:31:18.149Z</time></trkpt><trkpt lat="43.065218" lon="12.1332593"><ele>338.0</ele><time>2026-05-03T08:31:19.152Z</time></trkpt><trkpt lat="43.0651187" lon="12.1332428"><ele>339.79999999999995</ele><time>2026-05-03T08:31:20.149Z</time></trkpt><trkpt lat="43.0650168" lon="12.1332147"><ele>341.6</ele><time>2026-05-03T08:31:21.147Z</time></trkpt><trkpt lat="43.0649087" lon="12.133186"><ele>343.4</ele><time>2026-05-03T08:31:22.152Z</time></trkpt><trkpt lat="43.0647993" lon="12.1331571"><ele>345.20000000000005</ele><time>2026-05-03T08:31:23.15Z</time></trkpt><trkpt lat="43.0646931" lon="12.13313"><ele>347.0</ele><time>2026-05-03T08:31:24.147Z</time></trkpt><trkpt lat="43.0645894" lon="12.1330955"><ele>347.0</ele><time>2026-05-03T08:31:25.157Z</time></trkpt><trkpt lat="43.0644759" lon="12.1330597"><ele>347.0</ele><time>2026-05-03T08:31:26.147Z</time></trkpt><trkpt lat="43.0643605" lon="12.1330389"><ele>347.0</ele><time>2026-05-03T08:31:27.149Z</time></trkpt><trkpt lat="43.0642483" lon="12.1330179"><ele>347.0</ele><time>2026-05-03T08:31:28.149Z</time></trkpt><trkpt lat="43.0641412" lon="12.1329993"><ele>344.0</ele><time>2026-05-03T08:31:29.145Z</time></trkpt><trkpt lat="43.0640362" lon="12.1329718"><ele>341.0</ele><time>2026-05-03T08:31:30.146Z</time></trkpt><trkpt lat="43.0639415" lon="12.1329449"><ele>338.0</ele><time>2026-05-03T08:31:31.141Z</time></trkpt><trkpt lat="43.0638454" lon="12.1329049"><ele>335.0</ele><time>2026-05-03T08:31:32.143Z</time></trkpt><trkpt lat="43.0637729" lon="12.1328612"><ele>332.0</ele><time>2026-05-03T08:31:33.144Z</time></trkpt><trkpt lat="43.0636928" lon="12.1328329"><ele>332.0</ele><time>2026-05-03T08:31:34.148Z</time></trkpt><trkpt lat="43.0636129" lon="12.132812"><ele>332.0</ele><time>2026-05-03T08:31:35.15Z</time></trkpt><trkpt lat="43.0635393" lon="12.1327947"><ele>332.0</ele><time>2026-05-03T08:31:36.149Z</time></trkpt><trkpt lat="43.0634576" lon="12.1327899"><ele>332.0</ele><time>2026-05-03T08:31:37.151Z</time></trkpt><trkpt lat="43.063377" lon="12.1327879"><ele>332.0</ele><time>2026-05-03T08:31:38.146Z</time></trkpt><trkpt lat="43.0632969" lon="12.1327827"><ele>332.0</ele><time>2026-05-03T08:31:39.148Z</time></trkpt><trkpt lat="43.0632227" lon="12.1327666"><ele>329.6</ele><time>2026-05-03T08:31:40.146Z</time></trkpt><trkpt lat="43.063147" lon="12.1327424"><ele>327.20000000000005</ele><time>2026-05-03T08:31:41.152Z</time></trkpt><trkpt lat="43.0630599" lon="12.132707"><ele>324.8</ele><time>2026-05-03T08:31:42.148Z</time></trkpt><trkpt lat="43.062962" lon="12.1326492"><ele>322.4</ele><time>2026-05-03T08:31:43.149Z</time></trkpt><trkpt lat="43.0628645" lon="12.1325651"><ele>320.0</ele><time>2026-05-03T08:31:44.155Z</time></trkpt><trkpt lat="43.062769" lon="12.1325002"><ele>320.0</ele><time>2026-05-03T08:31:45.148Z</time></trkpt><trkpt lat="43.0626778" lon="12.1324454"><ele>320.0</ele><time>2026-05-03T08:31:46.151Z</time></trkpt><trkpt lat="43.0625813" lon="12.1323922"><ele>320.0</ele><time>2026-05-03T08:31:47.151Z</time></trkpt><trkpt lat="43.0624878" lon="12.1323183"><ele>320.0</ele><time>2026-05-03T08:31:48.148Z</time></trkpt><trkpt lat="43.0623964" lon="12.132241"><ele>320.0</ele><time>2026-05-03T08:31:49.149Z</time></trkpt><trkpt lat="43.0623097" lon="12.1321698"><ele>319.0</ele><time>2026-05-03T08:31:50.149Z</time></trkpt><trkpt lat="43.0622379" lon="12.1320882"><ele>318.0</ele><time>2026-05-03T08:31:51.149Z</time></trkpt><trkpt lat="43.0621616" lon="12.1319899"><ele>317.0</ele><time>2026-05-03T08:31:52.157Z</time></trkpt><trkpt lat="43.0620977" lon="12.1318849"><ele>316.0</ele><time>2026-05-03T08:31:53.15Z</time></trkpt><trkpt lat="43.0620435" lon="12.131791"><ele>315.0</ele><time>2026-05-03T08:31:54.144Z</time></trkpt><trkpt lat="43.0619955" lon="12.1317023"><ele>315.0</ele><time>2026-05-03T08:31:55.16Z</time></trkpt><trkpt lat="43.0619563" lon="12.1316321"><ele>315.0</ele><time>2026-05-03T08:31:56.154Z</time></trkpt><trkpt lat="43.0618704" lon="12.1315555"><ele>315.0</ele><time>2026-05-03T08:31:58.155Z</time></trkpt><trkpt lat="43.0617575" lon="12.1315211"><ele>315.0</ele><time>2026-05-03T08:32:00.153Z</time></trkpt><trkpt lat="43.0617015" lon="12.1314707"><ele>315.0</ele><time>2026-05-03T08:32:01.158Z</time></trkpt><trkpt lat="43.0616401" lon="12.1314154"><ele>315.0</ele><time>2026-05-03T08:32:02.158Z</time></trkpt><trkpt lat="43.0615816" lon="12.1313718"><ele>313.8333333333333</ele><time>2026-05-03T08:32:03.154Z</time></trkpt><trkpt lat="43.0615129" lon="12.1313335"><ele>312.6666666666667</ele><time>2026-05-03T08:32:04.153Z</time></trkpt><trkpt lat="43.0614296" lon="12.1313009"><ele>311.5</ele><time>2026-05-03T08:32:05.151Z</time></trkpt><trkpt lat="43.0613453" lon="12.1312722"><ele>310.33333333333337</ele><time>2026-05-03T08:32:06.149Z</time></trkpt><trkpt lat="43.0612702" lon="12.1312526"><ele>309.1666666666667</ele><time>2026-05-03T08:32:07.152Z</time></trkpt><trkpt lat="43.0612039" lon="12.1312391"><ele>308.0</ele><time>2026-05-03T08:32:08.148Z</time></trkpt><trkpt lat="43.0611292" lon="12.1311992"><ele>308.0</ele><time>2026-05-03T08:32:10.15Z</time></trkpt><trkpt lat="43.0611433" lon="12.131104"><ele>308.0</ele><time>2026-05-03T08:32:12.165Z</time></trkpt><trkpt lat="43.0611637" lon="12.1310192"><ele>308.0</ele><time>2026-05-03T08:32:13.163Z</time></trkpt><trkpt lat="43.0611902" lon="12.1308975"><ele>308.0</ele><time>2026-05-03T08:32:14.149Z</time></trkpt><trkpt lat="43.0612201" lon="12.1307786"><ele>308.0</ele><time>2026-05-03T08:32:15.156Z</time></trkpt><trkpt lat="43.0612553" lon="12.130681"><ele>308.0</ele><time>2026-05-03T08:32:16.143Z</time></trkpt><trkpt lat="43.0613021" lon="12.1305909"><ele>308.2</ele><time>2026-05-03T08:32:17.153Z</time></trkpt><trkpt lat="43.0613516" lon="12.1304969"><ele>308.4</ele><time>2026-05-03T08:32:18.152Z</time></trkpt><trkpt lat="43.0614062" lon="12.1303958"><ele>308.59999999999997</ele><time>2026-05-03T08:32:19.154Z</time></trkpt><trkpt lat="43.0614699" lon="12.1302708"><ele>308.8</ele><time>2026-05-03T08:32:20.153Z</time></trkpt><trkpt lat="43.0615314" lon="12.1301518"><ele>309.0</ele><time>2026-05-03T08:32:21.153Z</time></trkpt><trkpt lat="43.0615879" lon="12.1300261"><ele>311.2</ele><time>2026-05-03T08:32:22.154Z</time></trkpt><trkpt lat="43.0616397" lon="12.1298968"><ele>313.4</ele><time>2026-05-03T08:32:23.157Z</time></trkpt><trkpt lat="43.0616927" lon="12.1297563"><ele>315.6</ele><time>2026-05-03T08:32:24.153Z</time></trkpt><trkpt lat="43.0617465" lon="12.1296157"><ele>317.8</ele><time>2026-05-03T08:32:25.15Z</time></trkpt><trkpt lat="43.0617905" lon="12.1294947"><ele>320.0</ele><time>2026-05-03T08:32:26.151Z</time></trkpt><trkpt lat="43.0618301" lon="12.1293966"><ele>320.0</ele><time>2026-05-03T08:32:27.153Z</time></trkpt><trkpt lat="43.0618696" lon="12.1293089"><ele>320.0</ele><time>2026-05-03T08:32:28.153Z</time></trkpt><trkpt lat="43.0619098" lon="12.1292244"><ele>320.0</ele><time>2026-05-03T08:32:29.157Z</time></trkpt><trkpt lat="43.0619492" lon="12.1291446"><ele>320.0</ele><time>2026-05-03T08:32:30.15Z</time></trkpt><trkpt lat="43.062022" lon="12.1290293"><ele>320.0</ele><time>2026-05-03T08:32:32.148Z</time></trkpt><trkpt lat="43.0621261" lon="12.1289944"><ele>320.0</ele><time>2026-05-03T08:32:34.149Z</time></trkpt><trkpt lat="43.0622235" lon="12.1289647"><ele>319.6666666666667</ele><time>2026-05-03T08:32:36.149Z</time></trkpt><trkpt lat="43.0622991" lon="12.1289135"><ele>319.33333333333337</ele><time>2026-05-03T08:32:38.159Z</time></trkpt><trkpt lat="43.0623566" lon="12.1288287"><ele>319.0</ele><time>2026-05-03T08:32:40.158Z</time></trkpt><trkpt lat="43.0624031" lon="12.1287481"><ele>318.6666666666667</ele><time>2026-05-03T08:32:42.161Z</time></trkpt><trkpt lat="43.0624656" lon="12.1286905"><ele>318.3333333333333</ele><time>2026-05-03T08:32:44.158Z</time></trkpt><trkpt lat="43.0625456" lon="12.1286241"><ele>318.0</ele><time>2026-05-03T08:32:58.168Z</time></trkpt><trkpt lat="43.0626052" lon="12.1285771"><ele>320.2</ele><time>2026-05-03T08:32:59.164Z</time></trkpt><trkpt lat="43.0626768" lon="12.1285111"><ele>322.4</ele><time>2026-05-03T08:33:00.152Z</time></trkpt><trkpt lat="43.0627467" lon="12.1284402"><ele>324.59999999999997</ele><time>2026-05-03T08:33:01.151Z</time></trkpt><trkpt lat="43.0628123" lon="12.1283524"><ele>326.8</ele><time>2026-05-03T08:33:02.152Z</time></trkpt><trkpt lat="43.0628799" lon="12.1282549"><ele>329.0</ele><time>2026-05-03T08:33:03.154Z</time></trkpt><trkpt lat="43.0629439" lon="12.1281571"><ele>329.0</ele><time>2026-05-03T08:33:04.154Z</time></trkpt><trkpt lat="43.0630039" lon="12.1280721"><ele>329.0</ele><time>2026-05-03T08:33:05.153Z</time></trkpt><trkpt lat="43.0630549" lon="12.1279984"><ele>329.0</ele><time>2026-05-03T08:33:06.151Z</time></trkpt><trkpt lat="43.0631066" lon="12.1279189"><ele>329.0</ele><time>2026-05-03T08:33:07.154Z</time></trkpt><trkpt lat="43.0631614" lon="12.1278384"><ele>329.0</ele><time>2026-05-03T08:33:08.152Z</time></trkpt><trkpt lat="43.0632203" lon="12.1277462"><ele>329.0</ele><time>2026-05-03T08:33:09.15Z</time></trkpt><trkpt lat="43.0632735" lon="12.1276562"><ele>330.5</ele><time>2026-05-03T08:33:10.15Z</time></trkpt><trkpt lat="43.0633205" lon="12.127576"><ele>332.0</ele><time>2026-05-03T08:33:11.152Z</time></trkpt><trkpt lat="43.0633877" lon="12.1274662"><ele>333.5</ele><time>2026-05-03T08:33:13.154Z</time></trkpt><trkpt lat="43.0634599" lon="12.1273627"><ele>335.0</ele><time>2026-05-03T08:33:15.152Z</time></trkpt><trkpt lat="43.0635021" lon="12.1272857"><ele>336.5</ele><time>2026-05-03T08:33:17.155Z</time></trkpt><trkpt lat="43.0635752" lon="12.1272839"><ele>338.0</ele><time>2026-05-03T08:33:25.165Z</time></trkpt><trkpt lat="43.0636504" lon="12.1272754"><ele>338.0</ele><time>2026-05-03T08:33:27.167Z</time></trkpt><trkpt lat="43.063755" lon="12.1272621"><ele>338.0</ele><time>2026-05-03T08:33:29.164Z</time></trkpt><trkpt lat="43.0638556" lon="12.1271659"><ele>338.0</ele><time>2026-05-03T08:33:31.153Z</time></trkpt><trkpt lat="43.0639056" lon="12.127083"><ele>338.0</ele><time>2026-05-03T08:33:32.153Z</time></trkpt><trkpt lat="43.0639616" lon="12.1269991"><ele>338.0</ele><time>2026-05-03T08:33:33.148Z</time></trkpt><trkpt lat="43.064024" lon="12.1269134"><ele>338.0</ele><time>2026-05-03T08:33:34.146Z</time></trkpt><trkpt lat="43.0640894" lon="12.1268274"><ele>338.0</ele><time>2026-05-03T08:33:35.148Z</time></trkpt><trkpt lat="43.0641479" lon="12.1267547"><ele>338.0</ele><time>2026-05-03T08:33:36.147Z</time></trkpt><trkpt lat="43.0642007" lon="12.1266845"><ele>338.0</ele><time>2026-05-03T08:33:37.15Z</time></trkpt><trkpt lat="43.064252" lon="12.1266211"><ele>338.0</ele><time>2026-05-03T08:33:38.15Z</time></trkpt><trkpt lat="43.0643026" lon="12.12656"><ele>338.0</ele><time>2026-05-03T08:33:39.152Z</time></trkpt><trkpt lat="43.0643593" lon="12.1265098"><ele>338.0</ele><time>2026-05-03T08:33:40.149Z</time></trkpt><trkpt lat="43.0644168" lon="12.1264589"><ele>339.2857142857143</ele><time>2026-05-03T08:33:41.151Z</time></trkpt><trkpt lat="43.0644728" lon="12.1264"><ele>340.57142857142856</ele><time>2026-05-03T08:33:42.15Z</time></trkpt><trkpt lat="43.0645234" lon="12.126344"><ele>341.8571428571429</ele><time>2026-05-03T08:33:43.149Z</time></trkpt><trkpt lat="43.0645763" lon="12.1262883"><ele>343.1428571428571</ele><time>2026-05-03T08:33:44.156Z</time></trkpt><trkpt lat="43.0646251" lon="12.1262282"><ele>344.4285714285714</ele><time>2026-05-03T08:33:45.152Z</time></trkpt><trkpt lat="43.0646768" lon="12.1261676"><ele>345.7142857142857</ele><time>2026-05-03T08:33:46.15Z</time></trkpt><trkpt lat="43.064734" lon="12.1261094"><ele>347.0</ele><time>2026-05-03T08:33:47.152Z</time></trkpt><trkpt lat="43.0647903" lon="12.1260469"><ele>347.0</ele><time>2026-05-03T08:33:48.16Z</time></trkpt><trkpt lat="43.0648852" lon="12.1259304"><ele>347.0</ele><time>2026-05-03T08:33:50.146Z</time></trkpt><trkpt lat="43.0649485" lon="12.1258742"><ele>347.0</ele><time>2026-05-03T08:33:51.15Z</time></trkpt><trkpt lat="43.0650363" lon="12.1258114"><ele>347.0</ele><time>2026-05-03T08:33:52.146Z</time></trkpt><trkpt lat="43.0651275" lon="12.1257653"><ele>347.0</ele><time>2026-05-03T08:33:53.142Z</time></trkpt><trkpt lat="43.0652016" lon="12.1257172"><ele>348.5</ele><time>2026-05-03T08:33:54.148Z</time></trkpt><trkpt lat="43.0652639" lon="12.1256567"><ele>350.0</ele><time>2026-05-03T08:33:55.145Z</time></trkpt><trkpt lat="43.0653178" lon="12.1255947"><ele>351.5</ele><time>2026-05-03T08:33:56.144Z</time></trkpt><trkpt lat="43.0653774" lon="12.1255319"><ele>353.0</ele><time>2026-05-03T08:33:57.148Z</time></trkpt><trkpt lat="43.0654497" lon="12.125473"><ele>354.5</ele><time>2026-05-03T08:33:58.144Z</time></trkpt><trkpt lat="43.0655279" lon="12.1254165"><ele>356.0</ele><time>2026-05-03T08:33:59.144Z</time></trkpt><trkpt lat="43.0655945" lon="12.1253629"><ele>355.99999999999994</ele><time>2026-05-03T08:34:00.147Z</time></trkpt><trkpt lat="43.06565" lon="12.1253212"><ele>356.0</ele><time>2026-05-03T08:34:01.152Z</time></trkpt><trkpt lat="43.0657125" lon="12.1252647"><ele>356.0</ele><time>2026-05-03T08:34:02.145Z</time></trkpt><trkpt lat="43.0657785" lon="12.1251965"><ele>356.0</ele><time>2026-05-03T08:34:03.148Z</time></trkpt><trkpt lat="43.0658471" lon="12.1251414"><ele>356.0</ele><time>2026-05-03T08:34:04.148Z</time></trkpt><trkpt lat="43.0659069" lon="12.1250858"><ele>355.99999999999994</ele><time>2026-05-03T08:34:05.148Z</time></trkpt><trkpt lat="43.065967" lon="12.1250247"><ele>356.0</ele><time>2026-05-03T08:34:06.146Z</time></trkpt><trkpt lat="43.0660289" lon="12.12496"><ele>358.5</ele><time>2026-05-03T08:34:07.147Z</time></trkpt><trkpt lat="43.0660939" lon="12.1248966"><ele>361.0</ele><time>2026-05-03T08:34:08.15Z</time></trkpt><trkpt lat="43.0661515" lon="12.124828"><ele>363.5</ele><time>2026-05-03T08:34:09.151Z</time></trkpt><trkpt lat="43.0662049" lon="12.1247743"><ele>366.0</ele><time>2026-05-03T08:34:10.152Z</time></trkpt><trkpt lat="43.0662303" lon="12.1246811"><ele>368.5</ele><time>2026-05-03T08:34:13.159Z</time></trkpt><trkpt lat="43.0661819" lon="12.1245548"><ele>371.0</ele><time>2026-05-03T08:34:15.154Z</time></trkpt><trkpt lat="43.0661524" lon="12.1244774"><ele>371.20000000000005</ele><time>2026-05-03T08:34:16.142Z</time></trkpt><trkpt lat="43.0660856" lon="12.1243383"><ele>371.40000000000003</ele><time>2026-05-03T08:34:18.147Z</time></trkpt><trkpt lat="43.066021" lon="12.1242504"><ele>371.6</ele><time>2026-05-03T08:34:20.148Z</time></trkpt><trkpt lat="43.0659419" lon="12.1243007"><ele>371.8</ele><time>2026-05-03T08:34:23.159Z</time></trkpt><trkpt lat="43.0658736" lon="12.1243984"><ele>372.0</ele><time>2026-05-03T08:34:25.159Z</time></trkpt><trkpt lat="43.065798" lon="12.1245017"><ele>370.6</ele><time>2026-05-03T08:34:27.157Z</time></trkpt><trkpt lat="43.0657405" lon="12.1246174"><ele>369.20000000000005</ele><time>2026-05-03T08:34:29.157Z</time></trkpt><trkpt lat="43.0656618" lon="12.1247309"><ele>367.8</ele><time>2026-05-03T08:34:31.149Z</time></trkpt><trkpt lat="43.0655791" lon="12.1247804"><ele>366.4</ele><time>2026-05-03T08:34:33.161Z</time></trkpt><trkpt lat="43.0654878" lon="12.1248491"><ele>365.0</ele><time>2026-05-03T08:34:35.156Z</time></trkpt><trkpt lat="43.0653917" lon="12.1249042"><ele>363.5</ele><time>2026-05-03T08:34:37.158Z</time></trkpt><trkpt lat="43.0652999" lon="12.1249783"><ele>362.0</ele><time>2026-05-03T08:34:39.159Z</time></trkpt><trkpt lat="43.0652387" lon="12.1250158"><ele>360.5</ele><time>2026-05-03T08:34:40.163Z</time></trkpt><trkpt lat="43.0651687" lon="12.1250427"><ele>359.0</ele><time>2026-05-03T08:34:41.147Z</time></trkpt><trkpt lat="43.0650864" lon="12.125075"><ele>357.5</ele><time>2026-05-03T08:34:42.148Z</time></trkpt><trkpt lat="43.0649984" lon="12.1251062"><ele>356.0</ele><time>2026-05-03T08:34:43.147Z</time></trkpt><trkpt lat="43.0649215" lon="12.1251329"><ele>354.6666666666667</ele><time>2026-05-03T08:34:44.145Z</time></trkpt><trkpt lat="43.0648527" lon="12.1251644"><ele>353.33333333333337</ele><time>2026-05-03T08:34:45.148Z</time></trkpt><trkpt lat="43.0647872" lon="12.1251962"><ele>352.0</ele><time>2026-05-03T08:34:46.145Z</time></trkpt><trkpt lat="43.0647267" lon="12.1252281"><ele>350.6666666666667</ele><time>2026-05-03T08:34:47.149Z</time></trkpt><trkpt lat="43.0646398" lon="12.1252907"><ele>349.3333333333333</ele><time>2026-05-03T08:34:49.148Z</time></trkpt><trkpt lat="43.0645564" lon="12.1253635"><ele>348.0</ele><time>2026-05-03T08:34:51.156Z</time></trkpt><trkpt lat="43.0644829" lon="12.1254242"><ele>348.0</ele><time>2026-05-03T08:34:53.156Z</time></trkpt><trkpt lat="43.0644163" lon="12.1254853"><ele>348.0</ele><time>2026-05-03T08:34:55.159Z</time></trkpt><trkpt lat="43.0643037" lon="12.1255644"><ele>348.0</ele><time>2026-05-03T08:34:57.159Z</time></trkpt><trkpt lat="43.0640734" lon="12.1256709"><ele>345.59999999999997</ele><time>2026-05-03T08:35:01.212Z</time></trkpt><trkpt lat="43.0639377" lon="12.1257828"><ele>343.2</ele><time>2026-05-03T08:35:03.26Z</time></trkpt><trkpt lat="43.0638489" lon="12.1258081"><ele>340.8</ele><time>2026-05-03T08:35:06.283Z</time></trkpt><trkpt lat="43.0637923" lon="12.1258471"><ele>338.4</ele><time>2026-05-03T08:35:08.29Z</time></trkpt><trkpt lat="43.0637226" lon="12.1259001"><ele>336.0</ele><time>2026-05-03T08:35:10.29Z</time></trkpt><trkpt lat="43.0636279" lon="12.1259704"><ele>336.0</ele><time>2026-05-03T08:35:12.292Z</time></trkpt><trkpt lat="43.0635667" lon="12.1260078"><ele>336.0</ele><time>2026-05-03T08:35:13.292Z</time></trkpt><trkpt lat="43.0635139" lon="12.1260556"><ele>336.0</ele><time>2026-05-03T08:35:14.291Z</time></trkpt><trkpt lat="43.0634526" lon="12.1261257"><ele>336.0</ele><time>2026-05-03T08:35:15.281Z</time></trkpt><trkpt lat="43.0633883" lon="12.1262126"><ele>336.0</ele><time>2026-05-03T08:35:16.281Z</time></trkpt><trkpt lat="43.0633252" lon="12.1263016"><ele>336.0</ele><time>2026-05-03T08:35:17.278Z</time></trkpt><trkpt lat="43.0632592" lon="12.1263766"><ele>334.6666666666667</ele><time>2026-05-03T08:35:18.28Z</time></trkpt><trkpt lat="43.0631958" lon="12.1264399"><ele>333.3333333333333</ele><time>2026-05-03T08:35:19.282Z</time></trkpt><trkpt lat="43.0631254" lon="12.1264813"><ele>332.0</ele><time>2026-05-03T08:35:20.28Z</time></trkpt><trkpt lat="43.0630556" lon="12.1264973"><ele>330.66666666666663</ele><time>2026-05-03T08:35:21.284Z</time></trkpt><trkpt lat="43.0629848" lon="12.1265079"><ele>329.3333333333333</ele><time>2026-05-03T08:35:22.283Z</time></trkpt><trkpt lat="43.0628764" lon="12.1265804"><ele>328.0</ele><time>2026-05-03T08:35:24.288Z</time></trkpt><trkpt lat="43.0628132" lon="12.1266816"><ele>327.79999999999995</ele><time>2026-05-03T08:35:26.293Z</time></trkpt><trkpt lat="43.0627898" lon="12.1267821"><ele>327.6</ele><time>2026-05-03T08:35:28.293Z</time></trkpt><trkpt lat="43.0627376" lon="12.1268871"><ele>327.4</ele><time>2026-05-03T08:35:30.299Z</time></trkpt><trkpt lat="43.0626403" lon="12.1269826"><ele>327.20000000000005</ele><time>2026-05-03T08:35:32.313Z</time></trkpt><trkpt lat="43.0625427" lon="12.1270732"><ele>327.0</ele><time>2026-05-03T08:35:34.282Z</time></trkpt><trkpt lat="43.0624818" lon="12.1271004"><ele>325.3333333333333</ele><time>2026-05-03T08:35:35.285Z</time></trkpt><trkpt lat="43.062417" lon="12.1271199"><ele>323.6666666666667</ele><time>2026-05-03T08:35:36.278Z</time></trkpt><trkpt lat="43.0623528" lon="12.1271444"><ele>322.0</ele><time>2026-05-03T08:35:37.28Z</time></trkpt><trkpt lat="43.0622269" lon="12.1271655"><ele>320.33333333333337</ele><time>2026-05-03T08:35:39.281Z</time></trkpt><trkpt lat="43.0621634" lon="12.1271646"><ele>318.6666666666667</ele><time>2026-05-03T08:35:40.278Z</time></trkpt><trkpt lat="43.0620933" lon="12.1271565"><ele>317.0</ele><time>2026-05-03T08:35:41.281Z</time></trkpt><trkpt lat="43.0620244" lon="12.1271497"><ele>317.0</ele><time>2026-05-03T08:35:42.283Z</time></trkpt><trkpt lat="43.0619579" lon="12.1271333"><ele>317.0</ele><time>2026-05-03T08:35:43.282Z</time></trkpt><trkpt lat="43.0618513" lon="12.1271155"><ele>317.0</ele><time>2026-05-03T08:35:45.278Z</time></trkpt><trkpt lat="43.0617803" lon="12.1271523"><ele>317.0</ele><time>2026-05-03T08:35:47.303Z</time></trkpt><trkpt lat="43.0617315" lon="12.1270514"><ele>317.0</ele><time>2026-05-03T08:35:50.295Z</time></trkpt><trkpt lat="43.0616937" lon="12.1269335"><ele>317.0</ele><time>2026-05-03T08:35:52.287Z</time></trkpt><trkpt lat="43.0616646" lon="12.1268023"><ele>317.0</ele><time>2026-05-03T08:35:54.297Z</time></trkpt><trkpt lat="43.0616412" lon="12.1267205"><ele>317.0</ele><time>2026-05-03T08:35:55.285Z</time></trkpt><trkpt lat="43.0616068" lon="12.1266255"><ele>317.0</ele><time>2026-05-03T08:35:56.283Z</time></trkpt><trkpt lat="43.0615722" lon="12.126527"><ele>317.0</ele><time>2026-05-03T08:35:57.282Z</time></trkpt><trkpt lat="43.0615418" lon="12.1264439"><ele>317.0</ele><time>2026-05-03T08:35:58.276Z</time></trkpt><trkpt lat="43.0615147" lon="12.1262963"><ele>317.0</ele><time>2026-05-03T08:36:00.273Z</time></trkpt><trkpt lat="43.0615158" lon="12.1262028"><ele>316.8</ele><time>2026-05-03T08:36:01.269Z</time></trkpt><trkpt lat="43.0615045" lon="12.1260388"><ele>316.6</ele><time>2026-05-03T08:36:03.305Z</time></trkpt><trkpt lat="43.0614698" lon="12.1259285"><ele>316.40000000000003</ele><time>2026-05-03T08:36:05.282Z</time></trkpt><trkpt lat="43.0614281" lon="12.1258574"><ele>316.2</ele><time>2026-05-03T08:36:06.27Z</time></trkpt><trkpt lat="43.0613855" lon="12.1257803"><ele>316.0</ele><time>2026-05-03T08:36:07.269Z</time></trkpt><trkpt lat="43.0613021" lon="12.1256614"><ele>317.16666666666663</ele><time>2026-05-03T08:36:09.282Z</time></trkpt><trkpt lat="43.0611777" lon="12.1256331"><ele>318.3333333333333</ele><time>2026-05-03T08:36:11.273Z</time></trkpt><trkpt lat="43.0610961" lon="12.1256083"><ele>319.5</ele><time>2026-05-03T08:36:12.286Z</time></trkpt><trkpt lat="43.061023" lon="12.1255934"><ele>320.6666666666667</ele><time>2026-05-03T08:36:14.29Z</time></trkpt><trkpt lat="43.0609987" lon="12.1255122"><ele>321.83333333333337</ele><time>2026-05-03T08:36:24.168Z</time></trkpt><trkpt lat="43.0609343" lon="12.1255485"><ele>323.0</ele><time>2026-05-03T08:36:35.161Z</time></trkpt><trkpt lat="43.0608713" lon="12.1255383"><ele>323.0</ele><time>2026-05-03T08:36:37.162Z</time></trkpt><trkpt lat="43.0607941" lon="12.1255055"><ele>323.0</ele><time>2026-05-03T08:36:39.164Z</time></trkpt><trkpt lat="43.0607245" lon="12.1254544"><ele>323.0</ele><time>2026-05-03T08:37:02.169Z</time></trkpt><trkpt lat="43.0606464" lon="12.1254208"><ele>323.0</ele><time>2026-05-03T08:37:04.182Z</time></trkpt><trkpt lat="43.0605637" lon="12.1253688"><ele>323.0</ele><time>2026-05-03T08:37:06.162Z</time></trkpt><trkpt lat="43.060534" lon="12.1252567"><ele>323.0</ele><time>2026-05-03T08:37:08.164Z</time></trkpt><trkpt lat="43.0605414" lon="12.1251083"><ele>323.0</ele><time>2026-05-03T08:37:10.166Z</time></trkpt><trkpt lat="43.0605752" lon="12.1249548"><ele>323.0</ele><time>2026-05-03T08:37:12.168Z</time></trkpt><trkpt lat="43.0605908" lon="12.1248301"><ele>323.0</ele><time>2026-05-03T08:37:14.167Z</time></trkpt><trkpt lat="43.0605864" lon="12.1247011"><ele>323.0</ele><time>2026-05-03T08:37:16.17Z</time></trkpt><trkpt lat="43.0605828" lon="12.1245764"><ele>323.0</ele><time>2026-05-03T08:37:18.17Z</time></trkpt><trkpt lat="43.0605826" lon="12.1244544"><ele>323.0</ele><time>2026-05-03T08:37:20.177Z</time></trkpt><trkpt lat="43.0605721" lon="12.1243245"><ele>323.0</ele><time>2026-05-03T08:37:22.154Z</time></trkpt><trkpt lat="43.0605613" lon="12.1241943"><ele>323.0</ele><time>2026-05-03T08:37:24.154Z</time></trkpt><trkpt lat="43.0605562" lon="12.1240547"><ele>323.0</ele><time>2026-05-03T08:37:26.157Z</time></trkpt><trkpt lat="43.0605512" lon="12.1239632"><ele>323.0</ele><time>2026-05-03T08:37:27.159Z</time></trkpt><trkpt lat="43.0605503" lon="12.123792"><ele>323.33333333333337</ele><time>2026-05-03T08:37:29.16Z</time></trkpt><trkpt lat="43.0605449" lon="12.1236516"><ele>323.6666666666667</ele><time>2026-05-03T08:37:31.164Z</time></trkpt><trkpt lat="43.0605125" lon="12.1235612"><ele>324.0</ele><time>2026-05-03T08:37:33.167Z</time></trkpt><trkpt lat="43.0604098" lon="12.1235782"><ele>324.3333333333333</ele><time>2026-05-03T08:37:35.167Z</time></trkpt><trkpt lat="43.0603402" lon="12.123598"><ele>324.66666666666663</ele><time>2026-05-03T08:37:36.168Z</time></trkpt><trkpt lat="43.0602645" lon="12.123617"><ele>325.0</ele><time>2026-05-03T08:37:37.161Z</time></trkpt><trkpt lat="43.0601866" lon="12.123631"><ele>325.0</ele><time>2026-05-03T08:37:38.158Z</time></trkpt><trkpt lat="43.0601014" lon="12.1236388"><ele>325.0</ele><time>2026-05-03T08:37:39.157Z</time></trkpt><trkpt lat="43.0600108" lon="12.1236396"><ele>325.0</ele><time>2026-05-03T08:37:40.156Z</time></trkpt><trkpt lat="43.0599217" lon="12.1236495"><ele>325.0</ele><time>2026-05-03T08:37:41.161Z</time></trkpt><trkpt lat="43.0598296" lon="12.1236602"><ele>325.0</ele><time>2026-05-03T08:37:42.163Z</time></trkpt><trkpt lat="43.0597434" lon="12.1236701"><ele>325.0</ele><time>2026-05-03T08:37:43.159Z</time></trkpt><trkpt lat="43.059656" lon="12.1236769"><ele>323.0</ele><time>2026-05-03T08:37:44.166Z</time></trkpt><trkpt lat="43.0595714" lon="12.1236854"><ele>321.0</ele><time>2026-05-03T08:37:45.158Z</time></trkpt><trkpt lat="43.0594849" lon="12.1236964"><ele>319.0</ele><time>2026-05-03T08:37:46.16Z</time></trkpt><trkpt lat="43.0593939" lon="12.123695"><ele>317.0</ele><time>2026-05-03T08:37:47.156Z</time></trkpt><trkpt lat="43.0592933" lon="12.1236812"><ele>315.0</ele><time>2026-05-03T08:37:48.155Z</time></trkpt><trkpt lat="43.0591923" lon="12.1236694"><ele>313.8333333333333</ele><time>2026-05-03T08:37:49.162Z</time></trkpt><trkpt lat="43.0591007" lon="12.1236691"><ele>312.6666666666667</ele><time>2026-05-03T08:37:50.165Z</time></trkpt><trkpt lat="43.0590148" lon="12.1236841"><ele>311.5</ele><time>2026-05-03T08:37:51.163Z</time></trkpt><trkpt lat="43.0589319" lon="12.1237051"><ele>310.33333333333337</ele><time>2026-05-03T08:37:52.162Z</time></trkpt><trkpt lat="43.0588477" lon="12.1237115"><ele>309.1666666666667</ele><time>2026-05-03T08:37:53.166Z</time></trkpt><trkpt lat="43.0587656" lon="12.1236987"><ele>308.0</ele><time>2026-05-03T08:37:54.165Z</time></trkpt><trkpt lat="43.058688" lon="12.1237006"><ele>308.0</ele><time>2026-05-03T08:37:55.163Z</time></trkpt><trkpt lat="43.0586133" lon="12.1237056"><ele>308.0</ele><time>2026-05-03T08:37:56.162Z</time></trkpt><trkpt lat="43.0585272" lon="12.1237123"><ele>308.0</ele><time>2026-05-03T08:37:57.158Z</time></trkpt><trkpt lat="43.058439" lon="12.1237149"><ele>308.0</ele><time>2026-05-03T08:37:58.159Z</time></trkpt><trkpt lat="43.0583527" lon="12.123707"><ele>308.0</ele><time>2026-05-03T08:37:59.16Z</time></trkpt><trkpt lat="43.0582709" lon="12.123699"><ele>308.0</ele><time>2026-05-03T08:38:00.161Z</time></trkpt><trkpt lat="43.0581846" lon="12.1236954"><ele>307.0</ele><time>2026-05-03T08:38:01.164Z</time></trkpt><trkpt lat="43.0580935" lon="12.1236929"><ele>306.0</ele><time>2026-05-03T08:38:02.155Z</time></trkpt><trkpt lat="43.0579904" lon="12.1236945"><ele>305.0</ele><time>2026-05-03T08:38:03.165Z</time></trkpt><trkpt lat="43.057882" lon="12.1236988"><ele>304.0</ele><time>2026-05-03T08:38:04.174Z</time></trkpt><trkpt lat="43.0577735" lon="12.1237005"><ele>303.0</ele><time>2026-05-03T08:38:05.161Z</time></trkpt><trkpt lat="43.0576661" lon="12.1237017"><ele>303.0</ele><time>2026-05-03T08:38:06.158Z</time></trkpt><trkpt lat="43.0575484" lon="12.1237025"><ele>303.0</ele><time>2026-05-03T08:38:07.184Z</time></trkpt><trkpt lat="43.0574269" lon="12.1237058"><ele>303.0</ele><time>2026-05-03T08:38:08.159Z</time></trkpt><trkpt lat="43.0573137" lon="12.1237032"><ele>303.0</ele><time>2026-05-03T08:38:09.165Z</time></trkpt><trkpt lat="43.0572021" lon="12.1237012"><ele>302.0</ele><time>2026-05-03T08:38:10.161Z</time></trkpt><trkpt lat="43.0570926" lon="12.1237005"><ele>301.0</ele><time>2026-05-03T08:38:11.157Z</time></trkpt><trkpt lat="43.0569818" lon="12.1237004"><ele>300.0</ele><time>2026-05-03T08:38:12.159Z</time></trkpt><trkpt lat="43.0568623" lon="12.1237029"><ele>299.0</ele><time>2026-05-03T08:38:13.158Z</time></trkpt><trkpt lat="43.0567334" lon="12.1237028"><ele>298.25</ele><time>2026-05-03T08:38:14.156Z</time></trkpt><trkpt lat="43.0565962" lon="12.1236988"><ele>297.5</ele><time>2026-05-03T08:38:15.16Z</time></trkpt><trkpt lat="43.0564615" lon="12.1236937"><ele>296.75</ele><time>2026-05-03T08:38:16.165Z</time></trkpt><trkpt lat="43.0563335" lon="12.1236926"><ele>296.0</ele><time>2026-05-03T08:38:17.163Z</time></trkpt><trkpt lat="43.0562099" lon="12.1236923"><ele>296.0</ele><time>2026-05-03T08:38:18.159Z</time></trkpt><trkpt lat="43.0560837" lon="12.123692"><ele>296.0</ele><time>2026-05-03T08:38:19.162Z</time></trkpt><trkpt lat="43.0559566" lon="12.1236952"><ele>296.0</ele><time>2026-05-03T08:38:20.165Z</time></trkpt><trkpt lat="43.0558379" lon="12.1236952"><ele>296.0</ele><time>2026-05-03T08:38:21.157Z</time></trkpt><trkpt lat="43.055724" lon="12.1236966"><ele>295.6</ele><time>2026-05-03T08:38:22.161Z</time></trkpt><trkpt lat="43.0556182" lon="12.1236982"><ele>295.20000000000005</ele><time>2026-05-03T08:38:23.161Z</time></trkpt><trkpt lat="43.0555218" lon="12.1236997"><ele>294.79999999999995</ele><time>2026-05-03T08:38:24.16Z</time></trkpt><trkpt lat="43.0554334" lon="12.1237017"><ele>294.4</ele><time>2026-05-03T08:38:25.158Z</time></trkpt><trkpt lat="43.0553624" lon="12.1237049"><ele>294.0</ele><time>2026-05-03T08:38:26.16Z</time></trkpt><trkpt lat="43.0552693" lon="12.1237299"><ele>294.0</ele><time>2026-05-03T08:38:28.16Z</time></trkpt><trkpt lat="43.0551859" lon="12.1237607"><ele>294.0</ele><time>2026-05-03T08:38:30.156Z</time></trkpt><trkpt lat="43.0551226" lon="12.123762"><ele>294.0</ele><time>2026-05-03T08:38:31.163Z</time></trkpt><trkpt lat="43.0550519" lon="12.1237583"><ele>294.0</ele><time>2026-05-03T08:38:32.157Z</time></trkpt><trkpt lat="43.054971" lon="12.1237378"><ele>294.0</ele><time>2026-05-03T08:38:33.159Z</time></trkpt><trkpt lat="43.0548784" lon="12.1237078"><ele>294.0</ele><time>2026-05-03T08:38:34.177Z</time></trkpt><trkpt lat="43.0547777" lon="12.1236832"><ele>292.75</ele><time>2026-05-03T08:38:35.157Z</time></trkpt><trkpt lat="43.0546652" lon="12.1236718"><ele>291.5</ele><time>2026-05-03T08:38:36.158Z</time></trkpt><trkpt lat="43.0545414" lon="12.1236608"><ele>290.25</ele><time>2026-05-03T08:38:37.169Z</time></trkpt><trkpt lat="43.0544225" lon="12.123652"><ele>289.0</ele><time>2026-05-03T08:38:38.172Z</time></trkpt><trkpt lat="43.0543034" lon="12.1236476"><ele>289.0</ele><time>2026-05-03T08:38:39.163Z</time></trkpt><trkpt lat="43.0541863" lon="12.1236457"><ele>289.0</ele><time>2026-05-03T08:38:40.158Z</time></trkpt><trkpt lat="43.0540759" lon="12.1236417"><ele>289.0</ele><time>2026-05-03T08:38:41.159Z</time></trkpt><trkpt lat="43.0539714" lon="12.1236267"><ele>289.0</ele><time>2026-05-03T08:38:42.163Z</time></trkpt><trkpt lat="43.0538663" lon="12.1235993"><ele>289.0</ele><time>2026-05-03T08:38:43.156Z</time></trkpt><trkpt lat="43.0537597" lon="12.1235586"><ele>288.0</ele><time>2026-05-03T08:38:44.154Z</time></trkpt><trkpt lat="43.0536505" lon="12.1234982"><ele>287.0</ele><time>2026-05-03T08:38:45.159Z</time></trkpt><trkpt lat="43.0535382" lon="12.1234209"><ele>286.0</ele><time>2026-05-03T08:38:46.156Z</time></trkpt><trkpt lat="43.0534145" lon="12.1233352"><ele>285.0</ele><time>2026-05-03T08:38:47.158Z</time></trkpt><trkpt lat="43.0532791" lon="12.1232481"><ele>284.25</ele><time>2026-05-03T08:38:48.157Z</time></trkpt><trkpt lat="43.0531478" lon="12.123152"><ele>283.5</ele><time>2026-05-03T08:38:49.162Z</time></trkpt><trkpt lat="43.0530298" lon="12.1230785"><ele>282.75</ele><time>2026-05-03T08:38:50.16Z</time></trkpt><trkpt lat="43.0529221" lon="12.1230099"><ele>282.0</ele><time>2026-05-03T08:38:51.16Z</time></trkpt><trkpt lat="43.0528307" lon="12.122947"><ele>282.0</ele><time>2026-05-03T08:38:52.161Z</time></trkpt><trkpt lat="43.0527375" lon="12.1228798"><ele>282.0</ele><time>2026-05-03T08:38:53.16Z</time></trkpt><trkpt lat="43.0526364" lon="12.1228148"><ele>282.0</ele><time>2026-05-03T08:38:54.164Z</time></trkpt><trkpt lat="43.0525353" lon="12.1227557"><ele>282.0</ele><time>2026-05-03T08:38:55.162Z</time></trkpt><trkpt lat="43.0524362" lon="12.1226986"><ele>282.0</ele><time>2026-05-03T08:38:56.161Z</time></trkpt><trkpt lat="43.0523334" lon="12.1226401"><ele>281.75</ele><time>2026-05-03T08:38:57.158Z</time></trkpt><trkpt lat="43.0522238" lon="12.122582"><ele>281.5</ele><time>2026-05-03T08:38:58.165Z</time></trkpt><trkpt lat="43.0521126" lon="12.1225302"><ele>281.25</ele><time>2026-05-03T08:38:59.164Z</time></trkpt><trkpt lat="43.0520063" lon="12.1224782"><ele>281.0</ele><time>2026-05-03T08:39:00.159Z</time></trkpt><trkpt lat="43.0519048" lon="12.1224283"><ele>281.0</ele><time>2026-05-03T08:39:01.159Z</time></trkpt><trkpt lat="43.0518082" lon="12.122384"><ele>281.0</ele><time>2026-05-03T08:39:02.156Z</time></trkpt><trkpt lat="43.0517132" lon="12.1223374"><ele>281.0</ele><time>2026-05-03T08:39:03.161Z</time></trkpt><trkpt lat="43.0516162" lon="12.122288"><ele>281.0</ele><time>2026-05-03T08:39:04.174Z</time></trkpt><trkpt lat="43.0515174" lon="12.122238"><ele>281.0</ele><time>2026-05-03T08:39:05.157Z</time></trkpt><trkpt lat="43.0514137" lon="12.1221892"><ele>280.5</ele><time>2026-05-03T08:39:06.154Z</time></trkpt><trkpt lat="43.0513058" lon="12.1221412"><ele>280.0</ele><time>2026-05-03T08:39:07.158Z</time></trkpt><trkpt lat="43.0511943" lon="12.1220944"><ele>279.5</ele><time>2026-05-03T08:39:08.162Z</time></trkpt><trkpt lat="43.0510839" lon="12.1220508"><ele>279.0</ele><time>2026-05-03T08:39:09.176Z</time></trkpt><trkpt lat="43.0509792" lon="12.1220084"><ele>279.0</ele><time>2026-05-03T08:39:10.159Z</time></trkpt><trkpt lat="43.0508786" lon="12.1219625"><ele>279.0</ele><time>2026-05-03T08:39:11.164Z</time></trkpt><trkpt lat="43.0507791" lon="12.1219254"><ele>279.0</ele><time>2026-05-03T08:39:12.16Z</time></trkpt><trkpt lat="43.0506816" lon="12.1218981"><ele>279.0</ele><time>2026-05-03T08:39:13.162Z</time></trkpt><trkpt lat="43.0505803" lon="12.1218923"><ele>279.0</ele><time>2026-05-03T08:39:14.161Z</time></trkpt><trkpt lat="43.0504771" lon="12.1219064"><ele>279.2</ele><time>2026-05-03T08:39:15.162Z</time></trkpt><trkpt lat="43.0503735" lon="12.1219318"><ele>279.4</ele><time>2026-05-03T08:39:16.159Z</time></trkpt><trkpt lat="43.0502671" lon="12.1219554"><ele>279.6</ele><time>2026-05-03T08:39:17.16Z</time></trkpt><trkpt lat="43.050157" lon="12.1219872"><ele>279.8</ele><time>2026-05-03T08:39:18.165Z</time></trkpt><trkpt lat="43.0500431" lon="12.1220187"><ele>280.0</ele><time>2026-05-03T08:39:19.156Z</time></trkpt><trkpt lat="43.0499299" lon="12.1220539"><ele>280.6</ele><time>2026-05-03T08:39:20.162Z</time></trkpt><trkpt lat="43.0498199" lon="12.1220952"><ele>281.2</ele><time>2026-05-03T08:39:21.159Z</time></trkpt><trkpt lat="43.0497193" lon="12.1221333"><ele>281.8</ele><time>2026-05-03T08:39:22.154Z</time></trkpt><trkpt lat="43.0496274" lon="12.1221826"><ele>282.4</ele><time>2026-05-03T08:39:23.157Z</time></trkpt><trkpt lat="43.0495401" lon="12.1222373"><ele>283.0</ele><time>2026-05-03T08:39:24.157Z</time></trkpt><trkpt lat="43.0494641" lon="12.1223157"><ele>283.0</ele><time>2026-05-03T08:39:25.159Z</time></trkpt><trkpt lat="43.049391" lon="12.1223977"><ele>283.0</ele><time>2026-05-03T08:39:26.156Z</time></trkpt><trkpt lat="43.0493136" lon="12.1224735"><ele>283.0</ele><time>2026-05-03T08:39:27.154Z</time></trkpt><trkpt lat="43.0492318" lon="12.1225405"><ele>283.0</ele><time>2026-05-03T08:39:28.157Z</time></trkpt><trkpt lat="43.0491435" lon="12.1225995"><ele>283.0</ele><time>2026-05-03T08:39:29.162Z</time></trkpt><trkpt lat="43.049045" lon="12.1226542"><ele>282.75</ele><time>2026-05-03T08:39:30.163Z</time></trkpt><trkpt lat="43.0489254" lon="12.1227113"><ele>282.5</ele><time>2026-05-03T08:39:31.155Z</time></trkpt><trkpt lat="43.048801" lon="12.1227757"><ele>282.25</ele><time>2026-05-03T08:39:32.16Z</time></trkpt><trkpt lat="43.0486885" lon="12.1228374"><ele>282.0</ele><time>2026-05-03T08:39:33.156Z</time></trkpt><trkpt lat="43.0485808" lon="12.1228898"><ele>282.0</ele><time>2026-05-03T08:39:34.177Z</time></trkpt><trkpt lat="43.0484734" lon="12.1229398"><ele>282.0</ele><time>2026-05-03T08:39:35.159Z</time></trkpt><trkpt lat="43.0483707" lon="12.1229777"><ele>282.0</ele><time>2026-05-03T08:39:36.16Z</time></trkpt><trkpt lat="43.0482719" lon="12.1230137"><ele>282.0</ele><time>2026-05-03T08:39:37.164Z</time></trkpt><trkpt lat="43.0481778" lon="12.1230545"><ele>282.0</ele><time>2026-05-03T08:39:38.16Z</time></trkpt><trkpt lat="43.0481001" lon="12.1230908"><ele>283.0</ele><time>2026-05-03T08:39:39.161Z</time></trkpt><trkpt lat="43.0480347" lon="12.1231509"><ele>284.0</ele><time>2026-05-03T08:39:41.166Z</time></trkpt><trkpt lat="43.0480753" lon="12.1233018"><ele>285.0</ele><time>2026-05-03T08:39:44.171Z</time></trkpt><trkpt lat="43.0480946" lon="12.1234043"><ele>286.0</ele><time>2026-05-03T08:39:45.162Z</time></trkpt><trkpt lat="43.0481332" lon="12.1235508"><ele>287.0</ele><time>2026-05-03T08:39:46.161Z</time></trkpt><trkpt lat="43.0481687" lon="12.1237034"><ele>286.5</ele><time>2026-05-03T08:39:47.162Z</time></trkpt><trkpt lat="43.0482063" lon="12.1238729"><ele>286.0</ele><time>2026-05-03T08:39:48.161Z</time></trkpt><trkpt lat="43.0482506" lon="12.1240739"><ele>285.5</ele><time>2026-05-03T08:39:49.158Z</time></trkpt><trkpt lat="43.0482963" lon="12.1242906"><ele>285.0</ele><time>2026-05-03T08:39:50.158Z</time></trkpt><trkpt lat="43.0483494" lon="12.1245294"><ele>285.0</ele><time>2026-05-03T08:39:51.157Z</time></trkpt><trkpt lat="43.0484032" lon="12.1247802"><ele>285.0</ele><time>2026-05-03T08:39:52.158Z</time></trkpt><trkpt lat="43.048448" lon="12.1250055"><ele>285.0</ele><time>2026-05-03T08:39:53.159Z</time></trkpt><trkpt lat="43.0484971" lon="12.1252203"><ele>285.6666666666667</ele><time>2026-05-03T08:39:54.161Z</time></trkpt><trkpt lat="43.0485436" lon="12.1254464"><ele>286.33333333333337</ele><time>2026-05-03T08:39:55.158Z</time></trkpt><trkpt lat="43.0485873" lon="12.1256766"><ele>287.0</ele><time>2026-05-03T08:39:56.158Z</time></trkpt><trkpt lat="43.0486336" lon="12.1259302"><ele>287.6666666666667</ele><time>2026-05-03T08:39:57.156Z</time></trkpt><trkpt lat="43.0486884" lon="12.1261841"><ele>288.3333333333333</ele><time>2026-05-03T08:39:58.158Z</time></trkpt><trkpt lat="43.0487454" lon="12.1264251"><ele>289.0</ele><time>2026-05-03T08:39:59.161Z</time></trkpt><trkpt lat="43.0487958" lon="12.1266379"><ele>289.0</ele><time>2026-05-03T08:40:00.156Z</time></trkpt><trkpt lat="43.0488368" lon="12.1268444"><ele>289.0</ele><time>2026-05-03T08:40:01.16Z</time></trkpt><trkpt lat="43.0488755" lon="12.1270453"><ele>289.0</ele><time>2026-05-03T08:40:02.16Z</time></trkpt><trkpt lat="43.0489219" lon="12.1272584"><ele>289.0</ele><time>2026-05-03T08:40:03.158Z</time></trkpt><trkpt lat="43.0489674" lon="12.1274666"><ele>289.0</ele><time>2026-05-03T08:40:04.172Z</time></trkpt><trkpt lat="43.0490163" lon="12.1276747"><ele>289.0</ele><time>2026-05-03T08:40:05.159Z</time></trkpt><trkpt lat="43.0490596" lon="12.1278858"><ele>289.0</ele><time>2026-05-03T08:40:06.162Z</time></trkpt><trkpt lat="43.0491099" lon="12.1280979"><ele>289.0</ele><time>2026-05-03T08:40:07.159Z</time></trkpt><trkpt lat="43.0491665" lon="12.1283072"><ele>289.0</ele><time>2026-05-03T08:40:08.16Z</time></trkpt><trkpt lat="43.0492285" lon="12.1285166"><ele>287.66666666666663</ele><time>2026-05-03T08:40:09.163Z</time></trkpt><trkpt lat="43.0492988" lon="12.1287176"><ele>286.3333333333333</ele><time>2026-05-03T08:40:10.159Z</time></trkpt><trkpt lat="43.0493793" lon="12.1289278"><ele>285.0</ele><time>2026-05-03T08:40:11.175Z</time></trkpt><trkpt lat="43.0494637" lon="12.1291332"><ele>285.0</ele><time>2026-05-03T08:40:12.158Z</time></trkpt><trkpt lat="43.0495502" lon="12.129349"><ele>285.0</ele><time>2026-05-03T08:40:13.161Z</time></trkpt><trkpt lat="43.0496418" lon="12.1295888"><ele>285.0</ele><time>2026-05-03T08:40:14.155Z</time></trkpt><trkpt lat="43.0497198" lon="12.1298555"><ele>285.3333333333333</ele><time>2026-05-03T08:40:15.156Z</time></trkpt><trkpt lat="43.0497806" lon="12.1301228"><ele>285.66666666666663</ele><time>2026-05-03T08:40:16.156Z</time></trkpt><trkpt lat="43.0498311" lon="12.1303575"><ele>286.0</ele><time>2026-05-03T08:40:17.158Z</time></trkpt><trkpt lat="43.0498688" lon="12.1305906"><ele>286.3333333333333</ele><time>2026-05-03T08:40:18.161Z</time></trkpt><trkpt lat="43.0499091" lon="12.1308262"><ele>286.6666666666667</ele><time>2026-05-03T08:40:19.164Z</time></trkpt><trkpt lat="43.0499445" lon="12.1310563"><ele>287.0</ele><time>2026-05-03T08:40:20.16Z</time></trkpt><trkpt lat="43.0499849" lon="12.1312826"><ele>287.0</ele><time>2026-05-03T08:40:21.159Z</time></trkpt><trkpt lat="43.0500349" lon="12.131512"><ele>287.0</ele><time>2026-05-03T08:40:22.162Z</time></trkpt><trkpt lat="43.0500728" lon="12.1317413"><ele>287.0</ele><time>2026-05-03T08:40:23.16Z</time></trkpt><trkpt lat="43.0501103" lon="12.1319871"><ele>287.6666666666667</ele><time>2026-05-03T08:40:24.159Z</time></trkpt><trkpt lat="43.0501511" lon="12.1322281"><ele>288.3333333333333</ele><time>2026-05-03T08:40:25.16Z</time></trkpt><trkpt lat="43.0502" lon="12.13246"><ele>289.0</ele><time>2026-05-03T08:40:26.155Z</time></trkpt><trkpt lat="43.0502319" lon="12.1326522"><ele>289.2</ele><time>2026-05-03T08:40:27.157Z</time></trkpt><trkpt lat="43.0502657" lon="12.1328101"><ele>289.4</ele><time>2026-05-03T08:40:28.156Z</time></trkpt><trkpt lat="43.0502934" lon="12.1329424"><ele>289.6</ele><time>2026-05-03T08:40:29.158Z</time></trkpt><trkpt lat="43.0503099" lon="12.1330893"><ele>289.8</ele><time>2026-05-03T08:40:31.155Z</time></trkpt><trkpt lat="43.0503205" lon="12.1331988"><ele>290.0</ele><time>2026-05-03T08:40:33.156Z</time></trkpt><trkpt lat="43.0503319" lon="12.1332967"><ele>290.0</ele><time>2026-05-03T08:40:35.16Z</time></trkpt><trkpt lat="43.0503418" lon="12.1333917"><ele>290.0</ele><time>2026-05-03T08:40:38.162Z</time></trkpt><trkpt lat="43.0503398" lon="12.1332721"><ele>290.0</ele><time>2026-05-03T08:40:47.168Z</time></trkpt><trkpt lat="43.0503109" lon="12.1331567"><ele>290.0</ele><time>2026-05-03T08:40:49.165Z</time></trkpt><trkpt lat="43.0502603" lon="12.1331052"><ele>290.0</ele><time>2026-05-03T08:40:51.16Z</time></trkpt><trkpt lat="43.0501738" lon="12.133144"><ele>290.0</ele><time>2026-05-03T08:40:53.168Z</time></trkpt><trkpt lat="43.0500593" lon="12.1331814"><ele>290.0</ele><time>2026-05-03T08:40:55.157Z</time></trkpt><trkpt lat="43.0499825" lon="12.1332068"><ele>290.0</ele><time>2026-05-03T08:40:56.151Z</time></trkpt><trkpt lat="43.0498974" lon="12.1332326"><ele>290.0</ele><time>2026-05-03T08:40:57.153Z</time></trkpt><trkpt lat="43.0498071" lon="12.1332605"><ele>290.0</ele><time>2026-05-03T08:40:58.152Z</time></trkpt><trkpt lat="43.0497015" lon="12.1332905"><ele>290.0</ele><time>2026-05-03T08:40:59.152Z</time></trkpt><trkpt lat="43.049593" lon="12.1333173"><ele>291.4</ele><time>2026-05-03T08:41:00.152Z</time></trkpt><trkpt lat="43.0494888" lon="12.1333459"><ele>292.8</ele><time>2026-05-03T08:41:01.156Z</time></trkpt><trkpt lat="43.0493877" lon="12.1333741"><ele>294.2</ele><time>2026-05-03T08:41:02.153Z</time></trkpt><trkpt lat="43.0492773" lon="12.1334065"><ele>295.6</ele><time>2026-05-03T08:41:03.153Z</time></trkpt><trkpt lat="43.0491577" lon="12.1334385"><ele>297.0</ele><time>2026-05-03T08:41:04.162Z</time></trkpt><trkpt lat="43.0490316" lon="12.1334601"><ele>297.0</ele><time>2026-05-03T08:41:05.15Z</time></trkpt><trkpt lat="43.0489161" lon="12.1334795"><ele>297.0</ele><time>2026-05-03T08:41:06.153Z</time></trkpt><trkpt lat="43.0488176" lon="12.1334852"><ele>297.0</ele><time>2026-05-03T08:41:07.151Z</time></trkpt><trkpt lat="43.0487438" lon="12.1335029"><ele>297.0</ele><time>2026-05-03T08:41:08.152Z</time></trkpt><trkpt lat="43.048681" lon="12.1335379"><ele>297.0</ele><time>2026-05-03T08:41:09.152Z</time></trkpt><trkpt lat="43.0486267" lon="12.1336454"><ele>297.0</ele><time>2026-05-03T08:41:11.161Z</time></trkpt><trkpt lat="43.0486793" lon="12.1337994"><ele>297.0</ele><time>2026-05-03T08:41:13.168Z</time></trkpt><trkpt lat="43.0487251" lon="12.1338696"><ele>297.0</ele><time>2026-05-03T08:41:14.156Z</time></trkpt><trkpt lat="43.0487687" lon="12.1339475"><ele>297.0</ele><time>2026-05-03T08:41:15.156Z</time></trkpt><trkpt lat="43.0487967" lon="12.1340303"><ele>297.0</ele><time>2026-05-03T08:41:16.163Z</time></trkpt><trkpt lat="43.0487993" lon="12.1341169"><ele>297.0</ele><time>2026-05-03T08:41:17.161Z</time></trkpt><trkpt lat="43.0487722" lon="12.1341956"><ele>298.3333333333333</ele><time>2026-05-03T08:41:18.156Z</time></trkpt><trkpt lat="43.0487623" lon="12.1343043"><ele>299.6666666666667</ele><time>2026-05-03T08:41:20.157Z</time></trkpt><trkpt lat="43.0488556" lon="12.1343163"><ele>301.0</ele><time>2026-05-03T08:41:22.161Z</time></trkpt><trkpt lat="43.0489365" lon="12.1343011"><ele>302.33333333333337</ele><time>2026-05-03T08:41:23.152Z</time></trkpt><trkpt lat="43.0490281" lon="12.1342746"><ele>303.6666666666667</ele><time>2026-05-03T08:41:24.151Z</time></trkpt><trkpt lat="43.0491134" lon="12.1342615"><ele>305.0</ele><time>2026-05-03T08:41:25.153Z</time></trkpt><trkpt lat="43.0491921" lon="12.1342747"><ele>305.6666666666667</ele><time>2026-05-03T08:41:26.16Z</time></trkpt><trkpt lat="43.049257" lon="12.1343244"><ele>306.33333333333337</ele><time>2026-05-03T08:41:27.155Z</time></trkpt><trkpt lat="43.0493117" lon="12.1344089"><ele>307.0</ele><time>2026-05-03T08:41:28.157Z</time></trkpt><trkpt lat="43.0493495" lon="12.1345183"><ele>307.6666666666667</ele><time>2026-05-03T08:41:29.155Z</time></trkpt><trkpt lat="43.0493814" lon="12.1346336"><ele>308.3333333333333</ele><time>2026-05-03T08:41:30.151Z</time></trkpt><trkpt lat="43.0494104" lon="12.1347582"><ele>309.0</ele><time>2026-05-03T08:41:31.153Z</time></trkpt><trkpt lat="43.0494451" lon="12.1348945"><ele>311.4</ele><time>2026-05-03T08:41:32.152Z</time></trkpt><trkpt lat="43.0494836" lon="12.1350222"><ele>313.79999999999995</ele><time>2026-05-03T08:41:33.148Z</time></trkpt><trkpt lat="43.0495177" lon="12.1351371"><ele>316.20000000000005</ele><time>2026-05-03T08:41:34.168Z</time></trkpt><trkpt lat="43.0495519" lon="12.1352558"><ele>318.6</ele><time>2026-05-03T08:41:35.147Z</time></trkpt><trkpt lat="43.0495856" lon="12.1353812"><ele>321.0</ele><time>2026-05-03T08:41:36.152Z</time></trkpt><trkpt lat="43.049616" lon="12.1355171"><ele>321.0</ele><time>2026-05-03T08:41:37.151Z</time></trkpt><trkpt lat="43.0496395" lon="12.1356409"><ele>321.0</ele><time>2026-05-03T08:41:38.154Z</time></trkpt><trkpt lat="43.0496476" lon="12.1357668"><ele>321.0</ele><time>2026-05-03T08:41:39.15Z</time></trkpt><trkpt lat="43.0496477" lon="12.1358943"><ele>321.0</ele><time>2026-05-03T08:41:40.15Z</time></trkpt><trkpt lat="43.0496591" lon="12.1360144"><ele>321.0</ele><time>2026-05-03T08:41:41.151Z</time></trkpt><trkpt lat="43.0496655" lon="12.1361143"><ele>321.0</ele><time>2026-05-03T08:41:42.152Z</time></trkpt><trkpt lat="43.0496709" lon="12.1362183"><ele>323.3333333333333</ele><time>2026-05-03T08:41:43.149Z</time></trkpt><trkpt lat="43.0496673" lon="12.1363172"><ele>325.6666666666667</ele><time>2026-05-03T08:41:44.162Z</time></trkpt><trkpt lat="43.0496552" lon="12.1364029"><ele>328.0</ele><time>2026-05-03T08:41:45.15Z</time></trkpt><trkpt lat="43.0495852" lon="12.1365583"><ele>330.33333333333337</ele><time>2026-05-03T08:41:47.155Z</time></trkpt><trkpt lat="43.0495361" lon="12.1366262"><ele>332.6666666666667</ele><time>2026-05-03T08:41:48.157Z</time></trkpt><trkpt lat="43.0494793" lon="12.1366752"><ele>335.0</ele><time>2026-05-03T08:41:49.157Z</time></trkpt><trkpt lat="43.0494042" lon="12.136706"><ele>336.6666666666667</ele><time>2026-05-03T08:41:50.16Z</time></trkpt><trkpt lat="43.0493142" lon="12.1367295"><ele>338.33333333333337</ele><time>2026-05-03T08:41:51.157Z</time></trkpt><trkpt lat="43.0492279" lon="12.1367742"><ele>340.0</ele><time>2026-05-03T08:41:52.158Z</time></trkpt><trkpt lat="43.0491657" lon="12.1368328"><ele>341.6666666666667</ele><time>2026-05-03T08:41:53.16Z</time></trkpt><trkpt lat="43.0491352" lon="12.1369237"><ele>343.3333333333333</ele><time>2026-05-03T08:41:54.16Z</time></trkpt><trkpt lat="43.049118" lon="12.1370559"><ele>345.0</ele><time>2026-05-03T08:41:55.149Z</time></trkpt><trkpt lat="43.0491058" lon="12.1371749"><ele>345.0</ele><time>2026-05-03T08:41:56.153Z</time></trkpt><trkpt lat="43.0490813" lon="12.1372902"><ele>345.0</ele><time>2026-05-03T08:41:57.151Z</time></trkpt><trkpt lat="43.0490433" lon="12.1374036"><ele>345.0</ele><time>2026-05-03T08:41:58.159Z</time></trkpt><trkpt lat="43.0489897" lon="12.1375274"><ele>345.0</ele><time>2026-05-03T08:41:59.153Z</time></trkpt><trkpt lat="43.0489331" lon="12.1376499"><ele>345.0</ele><time>2026-05-03T08:42:00.152Z</time></trkpt><trkpt lat="43.048876" lon="12.1377615"><ele>347.8</ele><time>2026-05-03T08:42:01.152Z</time></trkpt><trkpt lat="43.0488198" lon="12.1378737"><ele>350.6</ele><time>2026-05-03T08:42:02.156Z</time></trkpt><trkpt lat="43.0487697" lon="12.1379847"><ele>353.4</ele><time>2026-05-03T08:42:03.154Z</time></trkpt><trkpt lat="43.0487238" lon="12.1380953"><ele>356.2</ele><time>2026-05-03T08:42:04.166Z</time></trkpt><trkpt lat="43.0486804" lon="12.1382071"><ele>359.0</ele><time>2026-05-03T08:42:05.154Z</time></trkpt><trkpt lat="43.0486342" lon="12.1383078"><ele>360.4</ele><time>2026-05-03T08:42:06.154Z</time></trkpt><trkpt lat="43.0485833" lon="12.1383992"><ele>361.79999999999995</ele><time>2026-05-03T08:42:07.155Z</time></trkpt><trkpt lat="43.0485382" lon="12.1384973"><ele>363.20000000000005</ele><time>2026-05-03T08:42:08.164Z</time></trkpt><trkpt lat="43.0484914" lon="12.1386232"><ele>364.6</ele><time>2026-05-03T08:42:09.152Z</time></trkpt><trkpt lat="43.0484393" lon="12.1387677"><ele>366.0</ele><time>2026-05-03T08:42:10.155Z</time></trkpt><trkpt lat="43.0483889" lon="12.1389161"><ele>366.20000000000005</ele><time>2026-05-03T08:42:11.156Z</time></trkpt><trkpt lat="43.0483337" lon="12.1390624"><ele>366.40000000000003</ele><time>2026-05-03T08:42:12.156Z</time></trkpt><trkpt lat="43.0482737" lon="12.1391993"><ele>366.6</ele><time>2026-05-03T08:42:13.164Z</time></trkpt><trkpt lat="43.0482076" lon="12.1393129"><ele>366.8</ele><time>2026-05-03T08:42:14.152Z</time></trkpt><trkpt lat="43.0481411" lon="12.1394134"><ele>367.0</ele><time>2026-05-03T08:42:15.171Z</time></trkpt><trkpt lat="43.0480693" lon="12.1394922"><ele>367.75</ele><time>2026-05-03T08:42:16.155Z</time></trkpt><trkpt lat="43.0479903" lon="12.139565"><ele>368.5</ele><time>2026-05-03T08:42:17.163Z</time></trkpt><trkpt lat="43.0479" lon="12.1396258"><ele>369.25</ele><time>2026-05-03T08:42:18.156Z</time></trkpt><trkpt lat="43.0477919" lon="12.1396971"><ele>370.0</ele><time>2026-05-03T08:42:19.153Z</time></trkpt><trkpt lat="43.0476644" lon="12.1397836"><ele>370.25</ele><time>2026-05-03T08:42:20.16Z</time></trkpt><trkpt lat="43.0475487" lon="12.1398846"><ele>370.5</ele><time>2026-05-03T08:42:21.157Z</time></trkpt><trkpt lat="43.0474339" lon="12.1399942"><ele>370.75</ele><time>2026-05-03T08:42:22.156Z</time></trkpt><trkpt lat="43.0473215" lon="12.1401062"><ele>371.0</ele><time>2026-05-03T08:42:23.161Z</time></trkpt><trkpt lat="43.0472108" lon="12.1402264"><ele>371.0</ele><time>2026-05-03T08:42:24.158Z</time></trkpt><trkpt lat="43.0471025" lon="12.1403527"><ele>371.0</ele><time>2026-05-03T08:42:25.158Z</time></trkpt><trkpt lat="43.0469899" lon="12.1404868"><ele>371.0</ele><time>2026-05-03T08:42:26.153Z</time></trkpt><trkpt lat="43.0468549" lon="12.1406349"><ele>371.33333333333337</ele><time>2026-05-03T08:42:27.156Z</time></trkpt><trkpt lat="43.0466997" lon="12.1407985"><ele>371.6666666666667</ele><time>2026-05-03T08:42:28.16Z</time></trkpt><trkpt lat="43.0465504" lon="12.1409641"><ele>372.0</ele><time>2026-05-03T08:42:29.16Z</time></trkpt><trkpt lat="43.0464107" lon="12.1411219"><ele>372.0</ele><time>2026-05-03T08:42:30.159Z</time></trkpt><trkpt lat="43.0462666" lon="12.1412755"><ele>372.0</ele><time>2026-05-03T08:42:31.161Z</time></trkpt><trkpt lat="43.046136" lon="12.1414139"><ele>372.0</ele><time>2026-05-03T08:42:32.156Z</time></trkpt><trkpt lat="43.0460234" lon="12.1415392"><ele>374.0</ele><time>2026-05-03T08:42:33.16Z</time></trkpt><trkpt lat="43.045922" lon="12.1416549"><ele>376.0</ele><time>2026-05-03T08:42:34.172Z</time></trkpt><trkpt lat="43.0458159" lon="12.1417538"><ele>378.0</ele><time>2026-05-03T08:42:35.155Z</time></trkpt><trkpt lat="43.0457175" lon="12.1418236"><ele>380.0</ele><time>2026-05-03T08:42:36.162Z</time></trkpt><trkpt lat="43.0456441" lon="12.1418612"><ele>380.0</ele><time>2026-05-03T08:42:37.154Z</time></trkpt><trkpt lat="43.0455699" lon="12.1418503"><ele>380.0</ele><time>2026-05-03T08:42:38.163Z</time></trkpt><trkpt lat="43.0454949" lon="12.141848"><ele>380.0</ele><time>2026-05-03T08:42:39.159Z</time></trkpt><trkpt lat="43.0454331" lon="12.1418765"><ele>380.0</ele><time>2026-05-03T08:42:40.157Z</time></trkpt><trkpt lat="43.0453644" lon="12.1419382"><ele>380.0</ele><time>2026-05-03T08:42:41.161Z</time></trkpt><trkpt lat="43.0452927" lon="12.1420137"><ele>380.0</ele><time>2026-05-03T08:42:42.156Z</time></trkpt><trkpt lat="43.0452132" lon="12.1421043"><ele>380.0</ele><time>2026-05-03T08:42:43.152Z</time></trkpt><trkpt lat="43.0451199" lon="12.1422101"><ele>380.0</ele><time>2026-05-03T08:42:44.162Z</time></trkpt><trkpt lat="43.0450122" lon="12.1423308"><ele>380.0</ele><time>2026-05-03T08:42:45.159Z</time></trkpt><trkpt lat="43.044904" lon="12.142455"><ele>380.0</ele><time>2026-05-03T08:42:46.173Z</time></trkpt><trkpt lat="43.0448078" lon="12.1425784"><ele>385.0</ele><time>2026-05-03T08:42:47.155Z</time></trkpt><trkpt lat="43.0447242" lon="12.1426954"><ele>390.0</ele><time>2026-05-03T08:42:48.153Z</time></trkpt><trkpt lat="43.0446515" lon="12.1428036"><ele>395.0</ele><time>2026-05-03T08:42:49.158Z</time></trkpt><trkpt lat="43.0446169" lon="12.1428918"><ele>400.0</ele><time>2026-05-03T08:42:50.155Z</time></trkpt><trkpt lat="43.0446111" lon="12.1430478"><ele>405.0</ele><time>2026-05-03T08:42:52.154Z</time></trkpt><trkpt lat="43.044633" lon="12.1431588"><ele>405.0</ele><time>2026-05-03T08:42:54.155Z</time></trkpt><trkpt lat="43.0445637" lon="12.1432065"><ele>405.0</ele><time>2026-05-03T08:42:57.164Z</time></trkpt><trkpt lat="43.0444837" lon="12.1431683"><ele>405.0</ele><time>2026-05-03T08:42:59.165Z</time></trkpt><trkpt lat="43.0443857" lon="12.1431365"><ele>405.0</ele><time>2026-05-03T08:43:01.167Z</time></trkpt><trkpt lat="43.0442875" lon="12.1430934"><ele>405.0</ele><time>2026-05-03T08:43:03.151Z</time></trkpt><trkpt lat="43.0442048" lon="12.1429883"><ele>406.4</ele><time>2026-05-03T08:43:05.152Z</time></trkpt><trkpt lat="43.0441157" lon="12.1429121"><ele>407.8</ele><time>2026-05-03T08:43:07.152Z</time></trkpt><trkpt lat="43.0440001" lon="12.1428418"><ele>409.20000000000005</ele><time>2026-05-03T08:43:09.152Z</time></trkpt><trkpt lat="43.0439311" lon="12.1428095"><ele>410.6</ele><time>2026-05-03T08:43:10.152Z</time></trkpt><trkpt lat="43.0438649" lon="12.1427721"><ele>412.0</ele><time>2026-05-03T08:43:11.153Z</time></trkpt><trkpt lat="43.0437607" lon="12.1427528"><ele>412.0</ele><time>2026-05-03T08:43:13.157Z</time></trkpt><trkpt lat="43.0436412" lon="12.1427714"><ele>412.0</ele><time>2026-05-03T08:43:15.154Z</time></trkpt><trkpt lat="43.0435239" lon="12.1428066"><ele>412.0</ele><time>2026-05-03T08:43:17.167Z</time></trkpt><trkpt lat="43.0434611" lon="12.1428394"><ele>412.0</ele><time>2026-05-03T08:43:18.154Z</time></trkpt><trkpt lat="43.0434037" lon="12.1428808"><ele>412.0</ele><time>2026-05-03T08:43:19.15Z</time></trkpt><trkpt lat="43.0433069" lon="12.1430059"><ele>410.83333333333337</ele><time>2026-05-03T08:43:21.151Z</time></trkpt><trkpt lat="43.0432615" lon="12.1430917"><ele>409.6666666666667</ele><time>2026-05-03T08:43:22.152Z</time></trkpt><trkpt lat="43.0432191" lon="12.1431626"><ele>408.5</ele><time>2026-05-03T08:43:23.144Z</time></trkpt><trkpt lat="43.0431705" lon="12.1432186"><ele>407.33333333333337</ele><time>2026-05-03T08:43:24.154Z</time></trkpt><trkpt lat="43.0431155" lon="12.1432621"><ele>406.1666666666667</ele><time>2026-05-03T08:43:25.144Z</time></trkpt><trkpt lat="43.0429915" lon="12.1432667"><ele>405.0</ele><time>2026-05-03T08:43:27.144Z</time></trkpt><trkpt lat="43.0428881" lon="12.1433174"><ele>407.6</ele><time>2026-05-03T08:43:29.144Z</time></trkpt><trkpt lat="43.0427904" lon="12.1433975"><ele>410.2</ele><time>2026-05-03T08:43:31.144Z</time></trkpt><trkpt lat="43.0426634" lon="12.1434177"><ele>412.79999999999995</ele><time>2026-05-03T08:43:33.147Z</time></trkpt><trkpt lat="43.0425868" lon="12.1434043"><ele>415.4</ele><time>2026-05-03T08:43:34.158Z</time></trkpt><trkpt lat="43.0425157" lon="12.1433775"><ele>418.0</ele><time>2026-05-03T08:43:35.141Z</time></trkpt><trkpt lat="43.0424452" lon="12.143359"><ele>418.0</ele><time>2026-05-03T08:43:36.141Z</time></trkpt><trkpt lat="43.0423816" lon="12.1433556"><ele>418.0</ele><time>2026-05-03T08:43:37.148Z</time></trkpt><trkpt lat="43.0423136" lon="12.1433677"><ele>418.0</ele><time>2026-05-03T08:43:38.146Z</time></trkpt><trkpt lat="43.0422414" lon="12.1433963"><ele>418.0</ele><time>2026-05-03T08:43:39.15Z</time></trkpt><trkpt lat="43.0421579" lon="12.1434302"><ele>418.0</ele><time>2026-05-03T08:43:40.15Z</time></trkpt><trkpt lat="43.042085" lon="12.1434664"><ele>418.0</ele><time>2026-05-03T08:43:41.15Z</time></trkpt><trkpt lat="43.0420147" lon="12.1434907"><ele>418.0</ele><time>2026-05-03T08:43:42.15Z</time></trkpt><trkpt lat="43.0419048" lon="12.1435397"><ele>418.0</ele><time>2026-05-03T08:43:44.15Z</time></trkpt><trkpt lat="43.0417988" lon="12.1436138"><ele>418.0</ele><time>2026-05-03T08:43:46.144Z</time></trkpt><trkpt lat="43.0417478" lon="12.1436827"><ele>418.0</ele><time>2026-05-03T08:43:47.149Z</time></trkpt><trkpt lat="43.0416966" lon="12.1437764"><ele>418.0</ele><time>2026-05-03T08:43:48.159Z</time></trkpt><trkpt lat="43.0416464" lon="12.1438785"><ele>418.0</ele><time>2026-05-03T08:43:49.145Z</time></trkpt><trkpt lat="43.0416037" lon="12.1439789"><ele>420.1428571428571</ele><time>2026-05-03T08:43:50.147Z</time></trkpt><trkpt lat="43.0415705" lon="12.1440653"><ele>422.2857142857143</ele><time>2026-05-03T08:43:51.144Z</time></trkpt><trkpt lat="43.0415426" lon="12.1441575"><ele>424.42857142857144</ele><time>2026-05-03T08:43:52.151Z</time></trkpt><trkpt lat="43.0415157" lon="12.1442376"><ele>426.57142857142856</ele><time>2026-05-03T08:43:53.146Z</time></trkpt><trkpt lat="43.0414522" lon="12.1443424"><ele>428.7142857142857</ele><time>2026-05-03T08:43:55.15Z</time></trkpt><trkpt lat="43.0413877" lon="12.1443368"><ele>430.85714285714283</ele><time>2026-05-03T08:43:56.148Z</time></trkpt><trkpt lat="43.0413206" lon="12.1443087"><ele>433.0</ele><time>2026-05-03T08:43:57.142Z</time></trkpt><trkpt lat="43.041255" lon="12.1442747"><ele>433.00000000000006</ele><time>2026-05-03T08:43:58.143Z</time></trkpt><trkpt lat="43.0411839" lon="12.1442568"><ele>433.0</ele><time>2026-05-03T08:43:59.144Z</time></trkpt><trkpt lat="43.0411005" lon="12.1442302"><ele>433.0</ele><time>2026-05-03T08:44:00.144Z</time></trkpt><trkpt lat="43.0410174" lon="12.1441971"><ele>433.0</ele><time>2026-05-03T08:44:01.144Z</time></trkpt><trkpt lat="43.0409449" lon="12.1441588"><ele>433.00000000000006</ele><time>2026-05-03T08:44:02.143Z</time></trkpt><trkpt lat="43.0408908" lon="12.1441023"><ele>433.0</ele><time>2026-05-03T08:44:03.149Z</time></trkpt><trkpt lat="43.0408352" lon="12.1440331"><ele>429.59999999999997</ele><time>2026-05-03T08:44:04.157Z</time></trkpt><trkpt lat="43.0407799" lon="12.1439873"><ele>426.19999999999993</ele><time>2026-05-03T08:44:05.142Z</time></trkpt><trkpt lat="43.0406871" lon="12.1439381"><ele>422.8</ele><time>2026-05-03T08:44:07.146Z</time></trkpt><trkpt lat="43.0406304" lon="12.1440644"><ele>419.4</ele><time>2026-05-03T08:44:10.158Z</time></trkpt><trkpt lat="43.0405669" lon="12.1442207"><ele>416.0</ele><time>2026-05-03T08:44:12.149Z</time></trkpt><trkpt lat="43.040531" lon="12.1442999"><ele>415.99999999999994</ele><time>2026-05-03T08:44:13.146Z</time></trkpt><trkpt lat="43.0404871" lon="12.1444622"><ele>416.0</ele><time>2026-05-03T08:44:15.146Z</time></trkpt><trkpt lat="43.0404732" lon="12.1445568"><ele>416.0</ele><time>2026-05-03T08:44:16.147Z</time></trkpt><trkpt lat="43.0404713" lon="12.144652"><ele>416.0</ele><time>2026-05-03T08:44:17.144Z</time></trkpt><trkpt lat="43.0404714" lon="12.1447397"><ele>415.99999999999994</ele><time>2026-05-03T08:44:18.147Z</time></trkpt><trkpt lat="43.0404604" lon="12.1448851"><ele>416.0</ele><time>2026-05-03T08:44:20.144Z</time></trkpt><trkpt lat="43.0403818" lon="12.1449913"><ele>419.75</ele><time>2026-05-03T08:44:22.142Z</time></trkpt><trkpt lat="43.0402814" lon="12.1450338"><ele>423.5</ele><time>2026-05-03T08:44:24.141Z</time></trkpt><trkpt lat="43.0401657" lon="12.1450048"><ele>427.25</ele><time>2026-05-03T08:44:26.141Z</time></trkpt><trkpt lat="43.0400628" lon="12.1449919"><ele>431.0</ele><time>2026-05-03T08:44:28.139Z</time></trkpt><trkpt lat="43.0399369" lon="12.1450115"><ele>431.66666666666663</ele><time>2026-05-03T08:44:30.137Z</time></trkpt><trkpt lat="43.0398698" lon="12.1450209"><ele>432.3333333333333</ele><time>2026-05-03T08:44:31.143Z</time></trkpt><trkpt lat="43.0397963" lon="12.1450035"><ele>433.0</ele><time>2026-05-03T08:44:32.138Z</time></trkpt><trkpt lat="43.039727" lon="12.144965"><ele>433.66666666666663</ele><time>2026-05-03T08:44:33.137Z</time></trkpt><trkpt lat="43.0396585" lon="12.1449215"><ele>434.3333333333333</ele><time>2026-05-03T08:44:34.151Z</time></trkpt><trkpt lat="43.0395867" lon="12.1448716"><ele>435.0</ele><time>2026-05-03T08:44:35.135Z</time></trkpt><trkpt lat="43.0395136" lon="12.1448145"><ele>434.3333333333333</ele><time>2026-05-03T08:44:36.14Z</time></trkpt><trkpt lat="43.0394554" lon="12.1447506"><ele>433.66666666666663</ele><time>2026-05-03T08:44:37.135Z</time></trkpt><trkpt lat="43.0393978" lon="12.1447077"><ele>433.0</ele><time>2026-05-03T08:44:38.133Z</time></trkpt><trkpt lat="43.0393297" lon="12.1446633"><ele>432.3333333333333</ele><time>2026-05-03T08:44:39.14Z</time></trkpt><trkpt lat="43.0392538" lon="12.1446194"><ele>431.66666666666663</ele><time>2026-05-03T08:44:40.202Z</time></trkpt><trkpt lat="43.039168" lon="12.1445944"><ele>431.0</ele><time>2026-05-03T08:44:41.14Z</time></trkpt><trkpt lat="43.0390839" lon="12.1445893"><ele>431.0</ele><time>2026-05-03T08:44:42.144Z</time></trkpt><trkpt lat="43.0390108" lon="12.1446016"><ele>431.0</ele><time>2026-05-03T08:44:43.134Z</time></trkpt><trkpt lat="43.0389054" lon="12.1446093"><ele>431.0</ele><time>2026-05-03T08:44:45.135Z</time></trkpt><trkpt lat="43.0388048" lon="12.1445207"><ele>431.0</ele><time>2026-05-03T08:44:47.137Z</time></trkpt><trkpt lat="43.0387444" lon="12.1444546"><ele>431.0</ele><time>2026-05-03T08:44:48.148Z</time></trkpt><trkpt lat="43.0386844" lon="12.1443514"><ele>430.99999999999994</ele><time>2026-05-03T08:44:49.134Z</time></trkpt><trkpt lat="43.0386386" lon="12.1442311"><ele>431.0</ele><time>2026-05-03T08:44:50.15Z</time></trkpt><trkpt lat="43.0386053" lon="12.1441133"><ele>431.0</ele><time>2026-05-03T08:44:51.134Z</time></trkpt><trkpt lat="43.0385754" lon="12.1440041"><ele>431.0</ele><time>2026-05-03T08:44:52.133Z</time></trkpt><trkpt lat="43.0385494" lon="12.1438986"><ele>430.99999999999994</ele><time>2026-05-03T08:44:53.139Z</time></trkpt><trkpt lat="43.0385204" lon="12.1438137"><ele>431.0</ele><time>2026-05-03T08:44:54.137Z</time></trkpt><trkpt lat="43.0384901" lon="12.1437304"><ele>430.16666666666663</ele><time>2026-05-03T08:44:55.137Z</time></trkpt><trkpt lat="43.038454" lon="12.1436434"><ele>429.3333333333333</ele><time>2026-05-03T08:44:56.139Z</time></trkpt><trkpt lat="43.0384165" lon="12.1435642"><ele>428.5</ele><time>2026-05-03T08:44:57.138Z</time></trkpt><trkpt lat="43.0383667" lon="12.1434881"><ele>427.66666666666663</ele><time>2026-05-03T08:44:58.14Z</time></trkpt><trkpt lat="43.0382778" lon="12.1433885"><ele>426.8333333333333</ele><time>2026-05-03T08:45:00.125Z</time></trkpt><trkpt lat="43.0381686" lon="12.1433394"><ele>426.0</ele><time>2026-05-03T08:45:02.128Z</time></trkpt><trkpt lat="43.038108" lon="12.1433066"><ele>425.99999999999994</ele><time>2026-05-03T08:45:03.124Z</time></trkpt><trkpt lat="43.0380324" lon="12.1432623"><ele>426.0</ele><time>2026-05-03T08:45:04.137Z</time></trkpt><trkpt lat="43.0379648" lon="12.1432055"><ele>426.0</ele><time>2026-05-03T08:45:05.125Z</time></trkpt><trkpt lat="43.0379078" lon="12.143151"><ele>426.0</ele><time>2026-05-03T08:45:06.127Z</time></trkpt><trkpt lat="43.0378652" lon="12.1430859"><ele>426.0</ele><time>2026-05-03T08:45:07.124Z</time></trkpt><trkpt lat="43.0378238" lon="12.1430097"><ele>425.99999999999994</ele><time>2026-05-03T08:45:08.124Z</time></trkpt><trkpt lat="43.0377805" lon="12.1429145"><ele>426.0</ele><time>2026-05-03T08:45:09.124Z</time></trkpt><trkpt lat="43.0377457" lon="12.1428159"><ele>421.4</ele><time>2026-05-03T08:45:10.131Z</time></trkpt><trkpt lat="43.0377073" lon="12.1427278"><ele>416.8</ele><time>2026-05-03T08:45:11.121Z</time></trkpt><trkpt lat="43.0376295" lon="12.1425884"><ele>412.2</ele><time>2026-05-03T08:45:13.125Z</time></trkpt><trkpt lat="43.0375927" lon="12.1425153"><ele>407.59999999999997</ele><time>2026-05-03T08:45:14.126Z</time></trkpt><trkpt lat="43.0374919" lon="12.1424345"><ele>403.0</ele><time>2026-05-03T08:45:16.125Z</time></trkpt><trkpt lat="43.0373898" lon="12.1423791"><ele>402.0</ele><time>2026-05-03T08:45:18.128Z</time></trkpt><trkpt lat="43.0372717" lon="12.1423404"><ele>401.0</ele><time>2026-05-03T08:45:20.128Z</time></trkpt><trkpt lat="43.0371617" lon="12.14231"><ele>400.0</ele><time>2026-05-03T08:45:22.123Z</time></trkpt><trkpt lat="43.0370421" lon="12.1423115"><ele>399.0</ele><time>2026-05-03T08:45:24.125Z</time></trkpt><trkpt lat="43.0369254" lon="12.1423285"><ele>399.0</ele><time>2026-05-03T08:45:26.129Z</time></trkpt><trkpt lat="43.0368027" lon="12.1423658"><ele>399.0</ele><time>2026-05-03T08:45:28.136Z</time></trkpt><trkpt lat="43.0367335" lon="12.1423959"><ele>399.0</ele><time>2026-05-03T08:45:29.138Z</time></trkpt><trkpt lat="43.036646" lon="12.1424444"><ele>399.0</ele><time>2026-05-03T08:45:30.136Z</time></trkpt><trkpt lat="43.0365541" lon="12.1425182"><ele>399.0</ele><time>2026-05-03T08:45:31.134Z</time></trkpt><trkpt lat="43.036473" lon="12.142591"><ele>401.0</ele><time>2026-05-03T08:45:32.139Z</time></trkpt><trkpt lat="43.0363994" lon="12.1426486"><ele>403.0</ele><time>2026-05-03T08:45:33.137Z</time></trkpt><trkpt lat="43.0363128" lon="12.1427142"><ele>405.0</ele><time>2026-05-03T08:45:35.135Z</time></trkpt><trkpt lat="43.0362495" lon="12.142737"><ele>407.0</ele><time>2026-05-03T08:45:37.148Z</time></trkpt><trkpt lat="43.0362393" lon="12.1428817"><ele>409.0</ele><time>2026-05-03T08:48:13.149Z</time></trkpt><trkpt lat="43.0362144" lon="12.1429921"><ele>411.0</ele><time>2026-05-03T08:48:14.137Z</time></trkpt><trkpt lat="43.0361799" lon="12.1431013"><ele>411.0</ele><time>2026-05-03T08:48:15.143Z</time></trkpt><trkpt lat="43.0361391" lon="12.1432048"><ele>411.0</ele><time>2026-05-03T08:48:16.14Z</time></trkpt><trkpt lat="43.0361065" lon="12.1433111"><ele>411.0</ele><time>2026-05-03T08:48:17.139Z</time></trkpt><trkpt lat="43.0360703" lon="12.1434157"><ele>411.0</ele><time>2026-05-03T08:48:18.14Z</time></trkpt><trkpt lat="43.036031" lon="12.1435238"><ele>411.0</ele><time>2026-05-03T08:48:19.14Z</time></trkpt><trkpt lat="43.035995" lon="12.1436475"><ele>411.0</ele><time>2026-05-03T08:48:20.138Z</time></trkpt><trkpt lat="43.0359571" lon="12.1437804"><ele>406.5</ele><time>2026-05-03T08:48:21.141Z</time></trkpt><trkpt lat="43.0359102" lon="12.1439166"><ele>402.0</ele><time>2026-05-03T08:48:22.138Z</time></trkpt><trkpt lat="43.0358503" lon="12.1440677"><ele>397.5</ele><time>2026-05-03T08:48:23.138Z</time></trkpt><trkpt lat="43.0357829" lon="12.1442205"><ele>393.0</ele><time>2026-05-03T08:48:24.142Z</time></trkpt><trkpt lat="43.0357114" lon="12.1443682"><ele>389.59999999999997</ele><time>2026-05-03T08:48:25.143Z</time></trkpt><trkpt lat="43.0356462" lon="12.1445034"><ele>386.2</ele><time>2026-05-03T08:48:26.155Z</time></trkpt><trkpt lat="43.0355857" lon="12.1446223"><ele>382.8</ele><time>2026-05-03T08:48:27.142Z</time></trkpt><trkpt lat="43.0355285" lon="12.1447376"><ele>379.4</ele><time>2026-05-03T08:48:28.145Z</time></trkpt><trkpt lat="43.0354746" lon="12.144844"><ele>376.0</ele><time>2026-05-03T08:48:29.142Z</time></trkpt><trkpt lat="43.0354261" lon="12.1449454"><ele>374.7142857142857</ele><time>2026-05-03T08:48:30.143Z</time></trkpt><trkpt lat="43.0353851" lon="12.1450412"><ele>373.42857142857144</ele><time>2026-05-03T08:48:31.146Z</time></trkpt><trkpt lat="43.0353521" lon="12.1451308"><ele>372.1428571428571</ele><time>2026-05-03T08:48:32.145Z</time></trkpt><trkpt lat="43.0353355" lon="12.1452229"><ele>370.8571428571429</ele><time>2026-05-03T08:48:33.147Z</time></trkpt><trkpt lat="43.0353383" lon="12.1453211"><ele>369.5714285714286</ele><time>2026-05-03T08:48:34.167Z</time></trkpt><trkpt lat="43.0353643" lon="12.1454202"><ele>368.2857142857143</ele><time>2026-05-03T08:48:35.15Z</time></trkpt><trkpt lat="43.035405" lon="12.1455017"><ele>367.0</ele><time>2026-05-03T08:48:36.154Z</time></trkpt><trkpt lat="43.0354663" lon="12.1455714"><ele>367.0</ele><time>2026-05-03T08:48:37.15Z</time></trkpt><trkpt lat="43.0355484" lon="12.1456296"><ele>367.0</ele><time>2026-05-03T08:48:38.151Z</time></trkpt><trkpt lat="43.0356311" lon="12.1456739"><ele>367.0</ele><time>2026-05-03T08:48:39.147Z</time></trkpt><trkpt lat="43.035698" lon="12.1457177"><ele>367.0</ele><time>2026-05-03T08:48:40.143Z</time></trkpt><trkpt lat="43.035745" lon="12.1458213"><ele>367.0</ele><time>2026-05-03T08:48:42.144Z</time></trkpt><trkpt lat="43.0356573" lon="12.1459496"><ele>367.0</ele><time>2026-05-03T08:48:44.133Z</time></trkpt><trkpt lat="43.0355849" lon="12.1460015"><ele>367.0</ele><time>2026-05-03T08:48:45.137Z</time></trkpt><trkpt lat="43.0355057" lon="12.1460475"><ele>367.0</ele><time>2026-05-03T08:48:46.135Z</time></trkpt><trkpt lat="43.0354325" lon="12.1460827"><ele>367.0</ele><time>2026-05-03T08:48:47.141Z</time></trkpt><trkpt lat="43.0353552" lon="12.1461232"><ele>367.0</ele><time>2026-05-03T08:48:48.138Z</time></trkpt><trkpt lat="43.0352807" lon="12.1461712"><ele>367.0</ele><time>2026-05-03T08:48:49.14Z</time></trkpt><trkpt lat="43.0352084" lon="12.1462247"><ele>367.0</ele><time>2026-05-03T08:48:50.143Z</time></trkpt><trkpt lat="43.0351358" lon="12.1462944"><ele>367.0</ele><time>2026-05-03T08:48:51.143Z</time></trkpt><trkpt lat="43.0350563" lon="12.1463744"><ele>367.0</ele><time>2026-05-03T08:48:52.145Z</time></trkpt><trkpt lat="43.0349707" lon="12.1464504"><ele>367.0</ele><time>2026-05-03T08:48:53.15Z</time></trkpt><trkpt lat="43.0348874" lon="12.1465196"><ele>367.0</ele><time>2026-05-03T08:48:54.149Z</time></trkpt><trkpt lat="43.034814" lon="12.1465756"><ele>365.16666666666663</ele><time>2026-05-03T08:48:55.153Z</time></trkpt><trkpt lat="43.0347449" lon="12.1466277"><ele>363.3333333333333</ele><time>2026-05-03T08:48:56.152Z</time></trkpt><trkpt lat="43.0346815" lon="12.1466787"><ele>361.5</ele><time>2026-05-03T08:48:57.164Z</time></trkpt><trkpt lat="43.0346131" lon="12.1467231"><ele>359.6666666666667</ele><time>2026-05-03T08:48:58.151Z</time></trkpt><trkpt lat="43.0345452" lon="12.1467662"><ele>357.83333333333337</ele><time>2026-05-03T08:48:59.154Z</time></trkpt><trkpt lat="43.0344737" lon="12.1468068"><ele>356.0</ele><time>2026-05-03T08:49:00.152Z</time></trkpt><trkpt lat="43.0344039" lon="12.1468513"><ele>356.0</ele><time>2026-05-03T08:49:01.153Z</time></trkpt><trkpt lat="43.0343402" lon="12.1469066"><ele>356.0</ele><time>2026-05-03T08:49:02.152Z</time></trkpt><trkpt lat="43.0342792" lon="12.1469678"><ele>356.0</ele><time>2026-05-03T08:49:03.157Z</time></trkpt><trkpt lat="43.0342224" lon="12.1470451"><ele>356.0</ele><time>2026-05-03T08:49:04.164Z</time></trkpt><trkpt lat="43.0341636" lon="12.1471311"><ele>356.0</ele><time>2026-05-03T08:49:05.156Z</time></trkpt><trkpt lat="43.0341118" lon="12.147218"><ele>356.0</ele><time>2026-05-03T08:49:06.154Z</time></trkpt><trkpt lat="43.0340697" lon="12.1472989"><ele>356.0</ele><time>2026-05-03T08:49:07.154Z</time></trkpt><trkpt lat="43.0340416" lon="12.1473791"><ele>356.0</ele><time>2026-05-03T08:49:08.15Z</time></trkpt><trkpt lat="43.0340574" lon="12.1475556"><ele>356.0</ele><time>2026-05-03T08:49:10.148Z</time></trkpt><trkpt lat="43.0340933" lon="12.147645"><ele>356.0</ele><time>2026-05-03T08:49:11.153Z</time></trkpt><trkpt lat="43.0341266" lon="12.1477361"><ele>356.0</ele><time>2026-05-03T08:49:12.147Z</time></trkpt><trkpt lat="43.0341429" lon="12.1478257"><ele>356.0</ele><time>2026-05-03T08:49:13.15Z</time></trkpt><trkpt lat="43.034148" lon="12.1479226"><ele>354.5</ele><time>2026-05-03T08:49:14.148Z</time></trkpt><trkpt lat="43.0341349" lon="12.1480181"><ele>353.0</ele><time>2026-05-03T08:49:15.15Z</time></trkpt><trkpt lat="43.034093" lon="12.1481017"><ele>351.5</ele><time>2026-05-03T08:49:16.149Z</time></trkpt><trkpt lat="43.0340443" lon="12.1481882"><ele>350.0</ele><time>2026-05-03T08:49:17.15Z</time></trkpt><trkpt lat="43.0340024" lon="12.1482992"><ele>348.5</ele><time>2026-05-03T08:49:18.151Z</time></trkpt><trkpt lat="43.0339658" lon="12.1484199"><ele>347.0</ele><time>2026-05-03T08:49:19.15Z</time></trkpt><trkpt lat="43.0339415" lon="12.1485542"><ele>347.0</ele><time>2026-05-03T08:49:20.149Z</time></trkpt><trkpt lat="43.0339254" lon="12.1486716"><ele>347.0</ele><time>2026-05-03T08:49:21.147Z</time></trkpt><trkpt lat="43.033921" lon="12.1487684"><ele>347.0</ele><time>2026-05-03T08:49:22.155Z</time></trkpt><trkpt lat="43.0339331" lon="12.1488545"><ele>347.0</ele><time>2026-05-03T08:49:23.145Z</time></trkpt><trkpt lat="43.0339732" lon="12.1489237"><ele>347.0</ele><time>2026-05-03T08:49:24.147Z</time></trkpt><trkpt lat="43.0340302" lon="12.1489861"><ele>347.0</ele><time>2026-05-03T08:49:25.146Z</time></trkpt><trkpt lat="43.034092" lon="12.1490484"><ele>347.0</ele><time>2026-05-03T08:49:26.143Z</time></trkpt><trkpt lat="43.0341617" lon="12.1490975"><ele>348.0</ele><time>2026-05-03T08:49:27.142Z</time></trkpt><trkpt lat="43.0342404" lon="12.1491378"><ele>349.0</ele><time>2026-05-03T08:49:28.152Z</time></trkpt><trkpt lat="43.0343141" lon="12.1491737"><ele>350.0</ele><time>2026-05-03T08:49:29.139Z</time></trkpt><trkpt lat="43.0343882" lon="12.1492483"><ele>351.0</ele><time>2026-05-03T08:49:31.141Z</time></trkpt><trkpt lat="43.0343106" lon="12.1492938"><ele>352.0</ele><time>2026-05-03T08:49:33.147Z</time></trkpt><trkpt lat="43.0342397" lon="12.1493145"><ele>353.0</ele><time>2026-05-03T08:49:34.161Z</time></trkpt><trkpt lat="43.0341587" lon="12.1493346"><ele>351.0</ele><time>2026-05-03T08:49:35.142Z</time></trkpt><trkpt lat="43.0340529" lon="12.1493552"><ele>349.0</ele><time>2026-05-03T08:49:36.137Z</time></trkpt><trkpt lat="43.0339407" lon="12.1493415"><ele>347.0</ele><time>2026-05-03T08:49:37.135Z</time></trkpt><trkpt lat="43.0338374" lon="12.1493228"><ele>345.0</ele><time>2026-05-03T08:49:38.137Z</time></trkpt><trkpt lat="43.0337465" lon="12.1493117"><ele>343.0</ele><time>2026-05-03T08:49:39.136Z</time></trkpt><trkpt lat="43.0336625" lon="12.1493084"><ele>343.0</ele><time>2026-05-03T08:49:40.13Z</time></trkpt><trkpt lat="43.0335821" lon="12.1493362"><ele>343.0</ele><time>2026-05-03T08:49:41.135Z</time></trkpt><trkpt lat="43.0334978" lon="12.1493903"><ele>343.0</ele><time>2026-05-03T08:49:42.131Z</time></trkpt><trkpt lat="43.0334105" lon="12.1494776"><ele>343.0</ele><time>2026-05-03T08:49:43.129Z</time></trkpt><trkpt lat="43.0333396" lon="12.1495724"><ele>343.0</ele><time>2026-05-03T08:49:44.135Z</time></trkpt><trkpt lat="43.0332775" lon="12.1496869"><ele>341.0</ele><time>2026-05-03T08:49:45.135Z</time></trkpt><trkpt lat="43.0332282" lon="12.1498001"><ele>339.0</ele><time>2026-05-03T08:49:46.138Z</time></trkpt><trkpt lat="43.0331929" lon="12.1499215"><ele>337.0</ele><time>2026-05-03T08:49:47.146Z</time></trkpt><trkpt lat="43.0331722" lon="12.15003"><ele>335.0</ele><time>2026-05-03T08:49:48.146Z</time></trkpt><trkpt lat="43.033164" lon="12.150136"><ele>333.0</ele><time>2026-05-03T08:49:49.148Z</time></trkpt><trkpt lat="43.0331689" lon="12.150226"><ele>331.0</ele><time>2026-05-03T08:49:50.149Z</time></trkpt><trkpt lat="43.0331787" lon="12.150324"><ele>331.0</ele><time>2026-05-03T08:49:51.148Z</time></trkpt><trkpt lat="43.03319" lon="12.1504253"><ele>331.0</ele><time>2026-05-03T08:49:52.144Z</time></trkpt><trkpt lat="43.0332139" lon="12.150525"><ele>331.0</ele><time>2026-05-03T08:49:53.146Z</time></trkpt><trkpt lat="43.0332571" lon="12.1506359"><ele>331.0</ele><time>2026-05-03T08:49:54.145Z</time></trkpt><trkpt lat="43.033316" lon="12.1507534"><ele>331.0</ele><time>2026-05-03T08:49:55.145Z</time></trkpt><trkpt lat="43.0333825" lon="12.1508685"><ele>334.20000000000005</ele><time>2026-05-03T08:49:56.145Z</time></trkpt><trkpt lat="43.0334465" lon="12.1509754"><ele>337.40000000000003</ele><time>2026-05-03T08:49:57.141Z</time></trkpt><trkpt lat="43.0335097" lon="12.1510583"><ele>340.6</ele><time>2026-05-03T08:49:58.144Z</time></trkpt><trkpt lat="43.033581" lon="12.1511232"><ele>343.8</ele><time>2026-05-03T08:49:59.162Z</time></trkpt><trkpt lat="43.033658" lon="12.1511878"><ele>347.0</ele><time>2026-05-03T08:50:00.145Z</time></trkpt><trkpt lat="43.0337326" lon="12.1512509"><ele>347.0</ele><time>2026-05-03T08:50:01.146Z</time></trkpt><trkpt lat="43.0338025" lon="12.1513084"><ele>347.0</ele><time>2026-05-03T08:50:02.144Z</time></trkpt><trkpt lat="43.0338633" lon="12.1513624"><ele>347.0</ele><time>2026-05-03T08:50:03.141Z</time></trkpt><trkpt lat="43.0339147" lon="12.1514234"><ele>347.0</ele><time>2026-05-03T08:50:04.155Z</time></trkpt><trkpt lat="43.0339718" lon="12.1515345"><ele>347.0</ele><time>2026-05-03T08:50:06.143Z</time></trkpt><trkpt lat="43.0338943" lon="12.1516175"><ele>347.0</ele><time>2026-05-03T08:50:08.15Z</time></trkpt><trkpt lat="43.0338098" lon="12.1516239"><ele>347.0</ele><time>2026-05-03T08:50:09.146Z</time></trkpt><trkpt lat="43.0337013" lon="12.1516259"><ele>347.0</ele><time>2026-05-03T08:50:10.141Z</time></trkpt><trkpt lat="43.0335705" lon="12.1516562"><ele>347.0</ele><time>2026-05-03T08:50:11.137Z</time></trkpt><trkpt lat="43.0334432" lon="12.1517097"><ele>347.0</ele><time>2026-05-03T08:50:12.137Z</time></trkpt><trkpt lat="43.0333212" lon="12.15178"><ele>345.0</ele><time>2026-05-03T08:50:13.131Z</time></trkpt><trkpt lat="43.0331961" lon="12.1518499"><ele>343.0</ele><time>2026-05-03T08:50:14.135Z</time></trkpt><trkpt lat="43.0330876" lon="12.1519165"><ele>341.0</ele><time>2026-05-03T08:50:15.138Z</time></trkpt><trkpt lat="43.0330041" lon="12.1519587"><ele>339.0</ele><time>2026-05-03T08:50:16.137Z</time></trkpt><trkpt lat="43.0329431" lon="12.1520178"><ele>337.0</ele><time>2026-05-03T08:50:17.145Z</time></trkpt><trkpt lat="43.032902" lon="12.1521087"><ele>337.0</ele><time>2026-05-03T08:50:18.145Z</time></trkpt><trkpt lat="43.0328716" lon="12.1522059"><ele>337.0</ele><time>2026-05-03T08:50:19.148Z</time></trkpt><trkpt lat="43.0328489" lon="12.1523048"><ele>337.0</ele><time>2026-05-03T08:50:20.148Z</time></trkpt><trkpt lat="43.0328338" lon="12.1524026"><ele>337.0</ele><time>2026-05-03T08:50:21.148Z</time></trkpt><trkpt lat="43.032837" lon="12.1525043"><ele>337.0</ele><time>2026-05-03T08:50:22.151Z</time></trkpt><trkpt lat="43.0328528" lon="12.1526061"><ele>337.0</ele><time>2026-05-03T08:50:23.143Z</time></trkpt><trkpt lat="43.0328813" lon="12.152704"><ele>337.6</ele><time>2026-05-03T08:50:24.15Z</time></trkpt><trkpt lat="43.0329344" lon="12.1527998"><ele>338.20000000000005</ele><time>2026-05-03T08:50:25.152Z</time></trkpt><trkpt lat="43.0330055" lon="12.1528839"><ele>338.8</ele><time>2026-05-03T08:50:26.152Z</time></trkpt><trkpt lat="43.0330835" lon="12.1529744"><ele>339.4</ele><time>2026-05-03T08:50:27.151Z</time></trkpt><trkpt lat="43.0331677" lon="12.1530563"><ele>340.0</ele><time>2026-05-03T08:50:28.148Z</time></trkpt><trkpt lat="43.0332374" lon="12.1531387"><ele>339.4</ele><time>2026-05-03T08:50:29.147Z</time></trkpt><trkpt lat="43.0332847" lon="12.1532227"><ele>338.8</ele><time>2026-05-03T08:50:30.163Z</time></trkpt><trkpt lat="43.033303" lon="12.1533156"><ele>338.20000000000005</ele><time>2026-05-03T08:50:31.146Z</time></trkpt><trkpt lat="43.0332928" lon="12.1534307"><ele>337.6</ele><time>2026-05-03T08:50:32.141Z</time></trkpt><trkpt lat="43.0332524" lon="12.1535709"><ele>337.0</ele><time>2026-05-03T08:50:33.131Z</time></trkpt><trkpt lat="43.0331984" lon="12.1537162"><ele>337.0</ele><time>2026-05-03T08:50:34.162Z</time></trkpt><trkpt lat="43.0331497" lon="12.1538439"><ele>337.0</ele><time>2026-05-03T08:50:35.149Z</time></trkpt><trkpt lat="43.0331065" lon="12.153965"><ele>337.0</ele><time>2026-05-03T08:50:36.151Z</time></trkpt><trkpt lat="43.0330764" lon="12.1540686"><ele>337.0</ele><time>2026-05-03T08:50:37.151Z</time></trkpt><trkpt lat="43.0330621" lon="12.1541572"><ele>337.0</ele><time>2026-05-03T08:50:38.148Z</time></trkpt><trkpt lat="43.033068" lon="12.1542864"><ele>337.0</ele><time>2026-05-03T08:50:40.157Z</time></trkpt><trkpt lat="43.0331394" lon="12.1543194"><ele>337.0</ele><time>2026-05-03T08:50:42.161Z</time></trkpt><trkpt lat="43.0332438" lon="12.1543172"><ele>337.0</ele><time>2026-05-03T08:50:44.161Z</time></trkpt><trkpt lat="43.0333065" lon="12.1543014"><ele>337.0</ele><time>2026-05-03T08:50:45.153Z</time></trkpt><trkpt lat="43.0333779" lon="12.1543118"><ele>337.0</ele><time>2026-05-03T08:50:46.15Z</time></trkpt><trkpt lat="43.0334533" lon="12.1543638"><ele>337.0</ele><time>2026-05-03T08:50:47.15Z</time></trkpt><trkpt lat="43.0335337" lon="12.1544293"><ele>337.0</ele><time>2026-05-03T08:50:48.151Z</time></trkpt><trkpt lat="43.0336054" lon="12.1545036"><ele>338.8333333333333</ele><time>2026-05-03T08:50:49.154Z</time></trkpt><trkpt lat="43.0336641" lon="12.1545808"><ele>340.66666666666663</ele><time>2026-05-03T08:50:50.153Z</time></trkpt><trkpt lat="43.0337153" lon="12.1546623"><ele>342.5</ele><time>2026-05-03T08:50:51.151Z</time></trkpt><trkpt lat="43.0337612" lon="12.1547599"><ele>344.3333333333333</ele><time>2026-05-03T08:50:52.153Z</time></trkpt><trkpt lat="43.0338058" lon="12.1548678"><ele>346.1666666666667</ele><time>2026-05-03T08:50:53.155Z</time></trkpt><trkpt lat="43.0338506" lon="12.1549799"><ele>348.0</ele><time>2026-05-03T08:50:54.148Z</time></trkpt><trkpt lat="43.0338966" lon="12.1550904"><ele>348.0</ele><time>2026-05-03T08:50:55.148Z</time></trkpt><trkpt lat="43.0339398" lon="12.1551951"><ele>348.0</ele><time>2026-05-03T08:50:56.153Z</time></trkpt><trkpt lat="43.0339833" lon="12.15529"><ele>348.0</ele><time>2026-05-03T08:50:57.151Z</time></trkpt><trkpt lat="43.0340348" lon="12.1553773"><ele>348.0</ele><time>2026-05-03T08:50:58.15Z</time></trkpt><trkpt lat="43.0341019" lon="12.1554553"><ele>348.0</ele><time>2026-05-03T08:50:59.152Z</time></trkpt><trkpt lat="43.0341859" lon="12.1555138"><ele>348.0</ele><time>2026-05-03T08:51:00.146Z</time></trkpt><trkpt lat="43.0342771" lon="12.1555498"><ele>350.4</ele><time>2026-05-03T08:51:01.159Z</time></trkpt><trkpt lat="43.0343777" lon="12.1555766"><ele>352.79999999999995</ele><time>2026-05-03T08:51:02.144Z</time></trkpt><trkpt lat="43.0344871" lon="12.1555982"><ele>355.2</ele><time>2026-05-03T08:51:03.151Z</time></trkpt><trkpt lat="43.0345925" lon="12.1556125"><ele>357.6</ele><time>2026-05-03T08:51:04.163Z</time></trkpt><trkpt lat="43.0346875" lon="12.1556122"><ele>360.0</ele><time>2026-05-03T08:51:05.148Z</time></trkpt><trkpt lat="43.0347715" lon="12.1556179"><ele>360.0</ele><time>2026-05-03T08:51:06.144Z</time></trkpt><trkpt lat="43.0348475" lon="12.1556369"><ele>360.0</ele><time>2026-05-03T08:51:07.144Z</time></trkpt><trkpt lat="43.0349205" lon="12.1556693"><ele>360.0</ele><time>2026-05-03T08:51:08.151Z</time></trkpt><trkpt lat="43.0349731" lon="12.1557283"><ele>360.0</ele><time>2026-05-03T08:51:09.142Z</time></trkpt><trkpt lat="43.0350219" lon="12.1558923"><ele>360.0</ele><time>2026-05-03T08:51:11.147Z</time></trkpt><trkpt lat="43.0350342" lon="12.1560064"><ele>360.0</ele><time>2026-05-03T08:51:12.153Z</time></trkpt><trkpt lat="43.0350605" lon="12.1561103"><ele>359.1666666666667</ele><time>2026-05-03T08:51:13.147Z</time></trkpt><trkpt lat="43.0351077" lon="12.1562026"><ele>358.3333333333333</ele><time>2026-05-03T08:51:14.15Z</time></trkpt><trkpt lat="43.0351749" lon="12.1562865"><ele>357.5</ele><time>2026-05-03T08:51:15.147Z</time></trkpt><trkpt lat="43.0352527" lon="12.1563575"><ele>356.66666666666663</ele><time>2026-05-03T08:51:16.152Z</time></trkpt><trkpt lat="43.0353349" lon="12.1564046"><ele>355.8333333333333</ele><time>2026-05-03T08:51:17.158Z</time></trkpt><trkpt lat="43.0354253" lon="12.1564194"><ele>355.0</ele><time>2026-05-03T08:51:18.15Z</time></trkpt><trkpt lat="43.0355161" lon="12.1564284"><ele>355.0</ele><time>2026-05-03T08:51:19.152Z</time></trkpt><trkpt lat="43.0356026" lon="12.1564599"><ele>355.0</ele><time>2026-05-03T08:51:20.152Z</time></trkpt><trkpt lat="43.0356837" lon="12.1565148"><ele>355.0</ele><time>2026-05-03T08:51:21.154Z</time></trkpt><trkpt lat="43.035767" lon="12.1565791"><ele>355.0</ele><time>2026-05-03T08:51:22.154Z</time></trkpt><trkpt lat="43.0358523" lon="12.1566352"><ele>355.0</ele><time>2026-05-03T08:51:23.151Z</time></trkpt><trkpt lat="43.0359409" lon="12.1566792"><ele>357.8</ele><time>2026-05-03T08:51:24.153Z</time></trkpt><trkpt lat="43.0360334" lon="12.1567008"><ele>360.6</ele><time>2026-05-03T08:51:25.149Z</time></trkpt><trkpt lat="43.0361345" lon="12.1567126"><ele>363.4</ele><time>2026-05-03T08:51:26.153Z</time></trkpt><trkpt lat="43.0362404" lon="12.1567255"><ele>366.2</ele><time>2026-05-03T08:51:27.153Z</time></trkpt><trkpt lat="43.0363486" lon="12.1567259"><ele>369.0</ele><time>2026-05-03T08:51:28.149Z</time></trkpt><trkpt lat="43.0364529" lon="12.1567109"><ele>369.0</ele><time>2026-05-03T08:51:29.155Z</time></trkpt><trkpt lat="43.0365352" lon="12.1567167"><ele>369.0</ele><time>2026-05-03T08:51:30.154Z</time></trkpt><trkpt lat="43.0366141" lon="12.1567444"><ele>369.0</ele><time>2026-05-03T08:51:31.154Z</time></trkpt><trkpt lat="43.0366935" lon="12.1567869"><ele>369.0</ele><time>2026-05-03T08:51:32.165Z</time></trkpt><trkpt lat="43.0367661" lon="12.1568363"><ele>369.0</ele><time>2026-05-03T08:51:33.159Z</time></trkpt><trkpt lat="43.0368245" lon="12.156874"><ele>369.0</ele><time>2026-05-03T08:51:34.164Z</time></trkpt><trkpt lat="43.0368847" lon="12.1568254"><ele>373.5</ele><time>2026-05-03T08:51:36.156Z</time></trkpt><trkpt lat="43.0369227" lon="12.1566572"><ele>378.0</ele><time>2026-05-03T08:51:38.153Z</time></trkpt><trkpt lat="43.0369551" lon="12.156538"><ele>382.5</ele><time>2026-05-03T08:51:39.155Z</time></trkpt><trkpt lat="43.0370012" lon="12.156399"><ele>387.0</ele><time>2026-05-03T08:51:40.15Z</time></trkpt><trkpt lat="43.0370718" lon="12.1562537"><ele>387.25</ele><time>2026-05-03T08:51:41.146Z</time></trkpt><trkpt lat="43.0371527" lon="12.156107"><ele>387.5</ele><time>2026-05-03T08:51:42.152Z</time></trkpt><trkpt lat="43.0372524" lon="12.15595"><ele>387.75</ele><time>2026-05-03T08:51:43.149Z</time></trkpt><trkpt lat="43.0373633" lon="12.155813"><ele>388.0</ele><time>2026-05-03T08:51:44.15Z</time></trkpt><trkpt lat="43.0374588" lon="12.1556981"><ele>392.25</ele><time>2026-05-03T08:51:45.15Z</time></trkpt><trkpt lat="43.0375611" lon="12.1555889"><ele>396.5</ele><time>2026-05-03T08:51:46.144Z</time></trkpt><trkpt lat="43.0376502" lon="12.155475"><ele>400.75</ele><time>2026-05-03T08:51:47.149Z</time></trkpt><trkpt lat="43.0377487" lon="12.1553686"><ele>405.0</ele><time>2026-05-03T08:51:48.147Z</time></trkpt><trkpt lat="43.037838" lon="12.1552647"><ele>405.0</ele><time>2026-05-03T08:51:49.145Z</time></trkpt><trkpt lat="43.037921" lon="12.155165"><ele>405.0</ele><time>2026-05-03T08:51:50.146Z</time></trkpt><trkpt lat="43.0380069" lon="12.1550792"><ele>405.0</ele><time>2026-05-03T08:51:51.147Z</time></trkpt><trkpt lat="43.0380854" lon="12.1549855"><ele>405.0</ele><time>2026-05-03T08:51:52.147Z</time></trkpt><trkpt lat="43.0381679" lon="12.1548961"><ele>405.0</ele><time>2026-05-03T08:51:53.144Z</time></trkpt><trkpt lat="43.0382532" lon="12.1548032"><ele>408.8</ele><time>2026-05-03T08:51:54.144Z</time></trkpt><trkpt lat="43.0383393" lon="12.1547111"><ele>412.6</ele><time>2026-05-03T08:51:55.145Z</time></trkpt><trkpt lat="43.0384197" lon="12.1546164"><ele>416.4</ele><time>2026-05-03T08:51:56.147Z</time></trkpt><trkpt lat="43.0385011" lon="12.1545325"><ele>420.2</ele><time>2026-05-03T08:51:57.145Z</time></trkpt><trkpt lat="43.0385772" lon="12.1544355"><ele>424.0</ele><time>2026-05-03T08:51:58.148Z</time></trkpt><trkpt lat="43.0386539" lon="12.1543403"><ele>424.0</ele><time>2026-05-03T08:51:59.148Z</time></trkpt><trkpt lat="43.0387341" lon="12.1542499"><ele>424.0</ele><time>2026-05-03T08:52:00.145Z</time></trkpt><trkpt lat="43.0388165" lon="12.1541542"><ele>424.0</ele><time>2026-05-03T08:52:01.148Z</time></trkpt><trkpt lat="43.0389" lon="12.1540645"><ele>424.0</ele><time>2026-05-03T08:52:02.145Z</time></trkpt><trkpt lat="43.0389826" lon="12.1539711"><ele>424.0</ele><time>2026-05-03T08:52:03.17Z</time></trkpt><trkpt lat="43.0390656" lon="12.1538826"><ele>427.4</ele><time>2026-05-03T08:52:04.158Z</time></trkpt><trkpt lat="43.0391446" lon="12.1537957"><ele>430.79999999999995</ele><time>2026-05-03T08:52:05.144Z</time></trkpt><trkpt lat="43.0392192" lon="12.1537033"><ele>434.20000000000005</ele><time>2026-05-03T08:52:06.147Z</time></trkpt><trkpt lat="43.0392907" lon="12.1536031"><ele>437.6</ele><time>2026-05-03T08:52:07.146Z</time></trkpt><trkpt lat="43.039359" lon="12.1535094"><ele>441.0</ele><time>2026-05-03T08:52:08.141Z</time></trkpt><trkpt lat="43.0394245" lon="12.1534296"><ele>441.0</ele><time>2026-05-03T08:52:09.144Z</time></trkpt><trkpt lat="43.03948" lon="12.1533655"><ele>441.0</ele><time>2026-05-03T08:52:10.145Z</time></trkpt><trkpt lat="43.0395758" lon="12.1532673"><ele>441.0</ele><time>2026-05-03T08:52:12.145Z</time></trkpt><trkpt lat="43.0396783" lon="12.1531751"><ele>441.0</ele><time>2026-05-03T08:52:14.142Z</time></trkpt><trkpt lat="43.0397354" lon="12.1531253"><ele>441.0</ele><time>2026-05-03T08:52:15.147Z</time></trkpt><trkpt lat="43.0397932" lon="12.1530681"><ele>441.0</ele><time>2026-05-03T08:52:16.144Z</time></trkpt><trkpt lat="43.0398533" lon="12.1530101"><ele>441.0</ele><time>2026-05-03T08:52:17.144Z</time></trkpt><trkpt lat="43.0399181" lon="12.1529501"><ele>441.0</ele><time>2026-05-03T08:52:18.142Z</time></trkpt><trkpt lat="43.0399754" lon="12.152882"><ele>441.0</ele><time>2026-05-03T08:52:19.144Z</time></trkpt><trkpt lat="43.0400358" lon="12.1528001"><ele>441.0</ele><time>2026-05-03T08:52:20.142Z</time></trkpt><trkpt lat="43.0400875" lon="12.1527087"><ele>441.0</ele><time>2026-05-03T08:52:21.141Z</time></trkpt><trkpt lat="43.0401311" lon="12.1526121"><ele>444.8</ele><time>2026-05-03T08:52:22.144Z</time></trkpt><trkpt lat="43.0401723" lon="12.152528"><ele>448.6</ele><time>2026-05-03T08:52:23.148Z</time></trkpt><trkpt lat="43.0402387" lon="12.1524566"><ele>452.4</ele><time>2026-05-03T08:52:25.142Z</time></trkpt><trkpt lat="43.040279" lon="12.1525695"><ele>456.2</ele><time>2026-05-03T08:52:28.156Z</time></trkpt><trkpt lat="43.0402453" lon="12.1527184"><ele>460.0</ele><time>2026-05-03T08:52:30.156Z</time></trkpt><trkpt lat="43.0402196" lon="12.1528433"><ele>460.0</ele><time>2026-05-03T08:52:32.151Z</time></trkpt><trkpt lat="43.0401899" lon="12.1529597"><ele>460.0</ele><time>2026-05-03T08:52:34.168Z</time></trkpt><trkpt lat="43.0401391" lon="12.1531244"><ele>460.0</ele><time>2026-05-03T08:52:36.139Z</time></trkpt><trkpt lat="43.0401116" lon="12.1532324"><ele>460.0</ele><time>2026-05-03T08:52:37.145Z</time></trkpt><trkpt lat="43.0400869" lon="12.1533265"><ele>460.0</ele><time>2026-05-03T08:52:38.14Z</time></trkpt><trkpt lat="43.04006" lon="12.1534198"><ele>461.8</ele><time>2026-05-03T08:52:39.143Z</time></trkpt><trkpt lat="43.0400353" lon="12.1535222"><ele>463.6</ele><time>2026-05-03T08:52:40.143Z</time></trkpt><trkpt lat="43.0399944" lon="12.1536687"><ele>465.4</ele><time>2026-05-03T08:52:42.141Z</time></trkpt><trkpt lat="43.0399424" lon="12.1537885"><ele>467.2</ele><time>2026-05-03T08:52:44.147Z</time></trkpt><trkpt lat="43.0398929" lon="12.1539301"><ele>469.0</ele><time>2026-05-03T08:52:46.141Z</time></trkpt><trkpt lat="43.0398526" lon="12.1540719"><ele>465.6666666666667</ele><time>2026-05-03T08:52:48.14Z</time></trkpt><trkpt lat="43.0398109" lon="12.1542188"><ele>462.33333333333337</ele><time>2026-05-03T08:52:50.143Z</time></trkpt><trkpt lat="43.0397642" lon="12.1543706"><ele>459.0</ele><time>2026-05-03T08:52:52.145Z</time></trkpt><trkpt lat="43.0397373" lon="12.1544487"><ele>455.66666666666663</ele><time>2026-05-03T08:52:53.147Z</time></trkpt><trkpt lat="43.03971" lon="12.1545349"><ele>452.3333333333333</ele><time>2026-05-03T08:52:54.144Z</time></trkpt><trkpt lat="43.03968" lon="12.1546338"><ele>449.0</ele><time>2026-05-03T08:52:55.146Z</time></trkpt><trkpt lat="43.0396528" lon="12.1547318"><ele>448.99999999999994</ele><time>2026-05-03T08:52:56.146Z</time></trkpt><trkpt lat="43.0396315" lon="12.1548225"><ele>449.0</ele><time>2026-05-03T08:52:57.144Z</time></trkpt><trkpt lat="43.0396059" lon="12.1549107"><ele>449.0</ele><time>2026-05-03T08:52:58.144Z</time></trkpt><trkpt lat="43.0395813" lon="12.1550021"><ele>449.0</ele><time>2026-05-03T08:52:59.145Z</time></trkpt><trkpt lat="43.039554" lon="12.1551098"><ele>448.99999999999994</ele><time>2026-05-03T08:53:00.145Z</time></trkpt><trkpt lat="43.0395262" lon="12.1552274"><ele>449.0</ele><time>2026-05-03T08:53:01.147Z</time></trkpt><trkpt lat="43.0395069" lon="12.1553331"><ele>451.49999999999994</ele><time>2026-05-03T08:53:02.144Z</time></trkpt><trkpt lat="43.0394947" lon="12.1554309"><ele>454.0</ele><time>2026-05-03T08:53:03.142Z</time></trkpt><trkpt lat="43.0394919" lon="12.1555243"><ele>456.5</ele><time>2026-05-03T08:53:04.169Z</time></trkpt><trkpt lat="43.0394985" lon="12.15561"><ele>459.0</ele><time>2026-05-03T08:53:05.142Z</time></trkpt><trkpt lat="43.0395252" lon="12.1557659"><ele>461.49999999999994</ele><time>2026-05-03T08:53:07.143Z</time></trkpt><trkpt lat="43.0395409" lon="12.1558495"><ele>464.0</ele><time>2026-05-03T08:53:08.152Z</time></trkpt><trkpt lat="43.0395639" lon="12.1559376"><ele>465.66666666666663</ele><time>2026-05-03T08:53:09.152Z</time></trkpt><trkpt lat="43.0395948" lon="12.1560214"><ele>467.3333333333333</ele><time>2026-05-03T08:53:10.151Z</time></trkpt><trkpt lat="43.0396388" lon="12.1561048"><ele>469.0</ele><time>2026-05-03T08:53:11.153Z</time></trkpt><trkpt lat="43.0396935" lon="12.1561818"><ele>470.66666666666663</ele><time>2026-05-03T08:53:12.155Z</time></trkpt><trkpt lat="43.039756" lon="12.1562383"><ele>472.3333333333333</ele><time>2026-05-03T08:53:13.154Z</time></trkpt><trkpt lat="43.0398252" lon="12.1562888"><ele>474.0</ele><time>2026-05-03T08:53:14.154Z</time></trkpt><trkpt lat="43.0399017" lon="12.1563287"><ele>478.5</ele><time>2026-05-03T08:53:15.157Z</time></trkpt><trkpt lat="43.0399787" lon="12.1563439"><ele>483.0</ele><time>2026-05-03T08:53:16.151Z</time></trkpt><trkpt lat="43.0400497" lon="12.1563521"><ele>487.5</ele><time>2026-05-03T08:53:17.155Z</time></trkpt><trkpt lat="43.0401305" lon="12.1563518"><ele>492.0</ele><time>2026-05-03T08:53:18.155Z</time></trkpt><trkpt lat="43.0402119" lon="12.1563624"><ele>496.5</ele><time>2026-05-03T08:53:19.157Z</time></trkpt><trkpt lat="43.0402929" lon="12.1563937"><ele>501.0</ele><time>2026-05-03T08:53:20.147Z</time></trkpt><trkpt lat="43.0403783" lon="12.1564159"><ele>501.0</ele><time>2026-05-03T08:53:21.154Z</time></trkpt><trkpt lat="43.0404611" lon="12.1564303"><ele>501.0</ele><time>2026-05-03T08:53:22.151Z</time></trkpt><trkpt lat="43.0405307" lon="12.1564387"><ele>501.0</ele><time>2026-05-03T08:53:23.147Z</time></trkpt><trkpt lat="43.0406133" lon="12.1564465"><ele>501.0</ele><time>2026-05-03T08:53:25.152Z</time></trkpt><trkpt lat="43.0406819" lon="12.1564458"><ele>501.0</ele><time>2026-05-03T08:53:29.165Z</time></trkpt><trkpt lat="43.0407604" lon="12.1564437"><ele>501.0</ele><time>2026-05-03T08:53:31.163Z</time></trkpt><trkpt lat="43.040847" lon="12.1564328"><ele>505.0</ele><time>2026-05-03T08:53:33.16Z</time></trkpt><trkpt lat="43.0409385" lon="12.1564435"><ele>509.0</ele><time>2026-05-03T08:53:35.178Z</time></trkpt><trkpt lat="43.0410454" lon="12.1564578"><ele>513.0</ele><time>2026-05-03T08:53:37.147Z</time></trkpt><trkpt lat="43.0411104" lon="12.1564591"><ele>517.0</ele><time>2026-05-03T08:53:38.153Z</time></trkpt><trkpt lat="43.0412227" lon="12.1564623"><ele>521.0</ele><time>2026-05-03T08:53:40.152Z</time></trkpt><trkpt lat="43.0412914" lon="12.1564637"><ele>525.0</ele><time>2026-05-03T08:53:42.166Z</time></trkpt><trkpt lat="43.0413889" lon="12.1564507"><ele>525.0</ele><time>2026-05-03T08:53:45.165Z</time></trkpt><trkpt lat="43.0414756" lon="12.1564208"><ele>525.0</ele><time>2026-05-03T08:53:47.161Z</time></trkpt><trkpt lat="43.0415676" lon="12.1564025"><ele>525.0</ele><time>2026-05-03T08:53:49.163Z</time></trkpt><trkpt lat="43.041676" lon="12.1563703"><ele>525.0</ele><time>2026-05-03T08:53:51.152Z</time></trkpt><trkpt lat="43.0417907" lon="12.1563554"><ele>525.0</ele><time>2026-05-03T08:53:53.152Z</time></trkpt><trkpt lat="43.0419093" lon="12.1563552"><ele>527.3333333333334</ele><time>2026-05-03T08:53:55.155Z</time></trkpt><trkpt lat="43.0420103" lon="12.1563608"><ele>529.6666666666666</ele><time>2026-05-03T08:53:57.153Z</time></trkpt><trkpt lat="43.0421383" lon="12.1563736"><ele>532.0</ele><time>2026-05-03T08:53:59.156Z</time></trkpt><trkpt lat="43.0422022" lon="12.1564011"><ele>534.3333333333333</ele><time>2026-05-03T08:54:00.157Z</time></trkpt><trkpt lat="43.0422641" lon="12.1564188"><ele>536.6666666666666</ele><time>2026-05-03T08:54:01.158Z</time></trkpt><trkpt lat="43.0423285" lon="12.1564299"><ele>539.0</ele><time>2026-05-03T08:54:02.157Z</time></trkpt><trkpt lat="43.0423934" lon="12.1564344"><ele>539.0</ele><time>2026-05-03T08:54:03.153Z</time></trkpt><trkpt lat="43.0424607" lon="12.1564362"><ele>539.0</ele><time>2026-05-03T08:54:04.168Z</time></trkpt><trkpt lat="43.0425255" lon="12.1564428"><ele>539.0</ele><time>2026-05-03T08:54:05.153Z</time></trkpt><trkpt lat="43.0425947" lon="12.1564484"><ele>539.0</ele><time>2026-05-03T08:54:06.165Z</time></trkpt><trkpt lat="43.0426602" lon="12.1564567"><ele>539.0</ele><time>2026-05-03T08:54:07.146Z</time></trkpt><trkpt lat="43.0427659" lon="12.1564672"><ele>539.0</ele><time>2026-05-03T08:54:09.142Z</time></trkpt><trkpt lat="43.0428357" lon="12.1564622"><ele>539.0</ele><time>2026-05-03T08:54:11.165Z</time></trkpt><trkpt lat="43.0429243" lon="12.1564598"><ele>539.5</ele><time>2026-05-03T08:54:13.148Z</time></trkpt><trkpt lat="43.0430359" lon="12.1564428"><ele>540.0</ele><time>2026-05-03T08:54:15.146Z</time></trkpt><trkpt lat="43.0431184" lon="12.1564395"><ele>540.5</ele><time>2026-05-03T08:54:16.143Z</time></trkpt><trkpt lat="43.0432038" lon="12.1564411"><ele>541.0</ele><time>2026-05-03T08:54:17.147Z</time></trkpt><trkpt lat="43.043288" lon="12.156444"><ele>541.5</ele><time>2026-05-03T08:54:18.147Z</time></trkpt><trkpt lat="43.0433613" lon="12.1564493"><ele>542.0</ele><time>2026-05-03T08:54:19.144Z</time></trkpt><trkpt lat="43.0434244" lon="12.156457"><ele>542.0</ele><time>2026-05-03T08:54:20.145Z</time></trkpt><trkpt lat="43.043515" lon="12.1564807"><ele>542.0</ele><time>2026-05-03T08:54:22.151Z</time></trkpt><trkpt lat="43.0436042" lon="12.1565259"><ele>542.0</ele><time>2026-05-03T08:54:24.146Z</time></trkpt><trkpt lat="43.0437102" lon="12.1565325"><ele>542.0</ele><time>2026-05-03T08:54:26.149Z</time></trkpt><trkpt lat="43.0438185" lon="12.1565384"><ele>542.0</ele><time>2026-05-03T08:54:28.146Z</time></trkpt><trkpt lat="43.0438824" lon="12.1565434"><ele>536.0</ele><time>2026-05-03T08:54:29.144Z</time></trkpt><trkpt lat="43.0439824" lon="12.1565928"><ele>530.0</ele><time>2026-05-03T08:54:31.149Z</time></trkpt><trkpt lat="43.0440414" lon="12.1566882"><ele>524.0</ele><time>2026-05-03T08:54:33.16Z</time></trkpt><trkpt lat="43.04406" lon="12.1568571"><ele>518.0</ele><time>2026-05-03T08:54:35.142Z</time></trkpt><trkpt lat="43.0440578" lon="12.1569819"><ele>512.0</ele><time>2026-05-03T08:54:36.142Z</time></trkpt><trkpt lat="43.0440639" lon="12.1571043"><ele>511.99999999999994</ele><time>2026-05-03T08:54:37.156Z</time></trkpt><trkpt lat="43.044075" lon="12.1572124"><ele>512.0</ele><time>2026-05-03T08:54:38.146Z</time></trkpt><trkpt lat="43.0440947" lon="12.1573409"><ele>512.0</ele><time>2026-05-03T08:54:40.151Z</time></trkpt><trkpt lat="43.044168" lon="12.157326"><ele>512.0</ele><time>2026-05-03T08:54:43.161Z</time></trkpt><trkpt lat="43.0442421" lon="12.1571949"><ele>511.99999999999994</ele><time>2026-05-03T08:54:45.163Z</time></trkpt><trkpt lat="43.0442893" lon="12.1571148"><ele>512.0</ele><time>2026-05-03T08:54:46.156Z</time></trkpt><trkpt lat="43.0443399" lon="12.1570185"><ele>514.5</ele><time>2026-05-03T08:54:47.166Z</time></trkpt><trkpt lat="43.0444119" lon="12.1569045"><ele>517.0</ele><time>2026-05-03T08:54:48.161Z</time></trkpt><trkpt lat="43.0444889" lon="12.1567923"><ele>519.5</ele><time>2026-05-03T08:54:49.162Z</time></trkpt><trkpt lat="43.0445805" lon="12.1566776"><ele>522.0</ele><time>2026-05-03T08:54:50.164Z</time></trkpt><trkpt lat="43.0446678" lon="12.156582"><ele>525.0</ele><time>2026-05-03T08:54:51.163Z</time></trkpt><trkpt lat="43.044744" lon="12.1564896"><ele>528.0</ele><time>2026-05-03T08:54:52.154Z</time></trkpt><trkpt lat="43.044803" lon="12.1564077"><ele>531.0</ele><time>2026-05-03T08:54:53.156Z</time></trkpt><trkpt lat="43.0448466" lon="12.1563302"><ele>534.0</ele><time>2026-05-03T08:54:54.149Z</time></trkpt><trkpt lat="43.0448715" lon="12.1562443"><ele>537.0</ele><time>2026-05-03T08:54:55.152Z</time></trkpt><trkpt lat="43.0448889" lon="12.1561339"><ele>540.0</ele><time>2026-05-03T08:54:56.154Z</time></trkpt><trkpt lat="43.0449069" lon="12.1559953"><ele>540.0</ele><time>2026-05-03T08:54:57.151Z</time></trkpt><trkpt lat="43.044929" lon="12.1558547"><ele>540.0</ele><time>2026-05-03T08:54:58.148Z</time></trkpt><trkpt lat="43.0449685" lon="12.1557353"><ele>540.0</ele><time>2026-05-03T08:54:59.143Z</time></trkpt><trkpt lat="43.0450198" lon="12.1556223"><ele>540.0</ele><time>2026-05-03T08:55:00.138Z</time></trkpt><trkpt lat="43.0450746" lon="12.1555092"><ele>540.0</ele><time>2026-05-03T08:55:01.142Z</time></trkpt><trkpt lat="43.0451167" lon="12.1553974"><ele>536.6</ele><time>2026-05-03T08:55:02.143Z</time></trkpt><trkpt lat="43.0451551" lon="12.155288"><ele>533.2</ele><time>2026-05-03T08:55:03.139Z</time></trkpt><trkpt lat="43.0451925" lon="12.1551777"><ele>529.8</ele><time>2026-05-03T08:55:04.173Z</time></trkpt><trkpt lat="43.0452256" lon="12.1550586"><ele>526.4</ele><time>2026-05-03T08:55:05.145Z</time></trkpt><trkpt lat="43.0452641" lon="12.154936"><ele>523.0</ele><time>2026-05-03T08:55:06.146Z</time></trkpt><trkpt lat="43.0453053" lon="12.1548244"><ele>520.5</ele><time>2026-05-03T08:55:07.134Z</time></trkpt><trkpt lat="43.0453462" lon="12.1547112"><ele>518.0</ele><time>2026-05-03T08:55:08.156Z</time></trkpt><trkpt lat="43.0453812" lon="12.1546067"><ele>515.5</ele><time>2026-05-03T08:55:09.147Z</time></trkpt><trkpt lat="43.0454161" lon="12.1545304"><ele>513.0</ele><time>2026-05-03T08:55:10.148Z</time></trkpt><trkpt lat="43.0454877" lon="12.1544176"><ele>510.50000000000006</ele><time>2026-05-03T08:55:12.139Z</time></trkpt><trkpt lat="43.0455784" lon="12.1543812"><ele>508.0</ele><time>2026-05-03T08:55:14.144Z</time></trkpt><trkpt lat="43.0456875" lon="12.1543628"><ele>504.2</ele><time>2026-05-03T08:55:16.145Z</time></trkpt><trkpt lat="43.0457992" lon="12.1543484"><ele>500.4</ele><time>2026-05-03T08:55:18.144Z</time></trkpt><trkpt lat="43.0459047" lon="12.1543302"><ele>496.59999999999997</ele><time>2026-05-03T08:55:20.153Z</time></trkpt><trkpt lat="43.0459859" lon="12.154302"><ele>492.79999999999995</ele><time>2026-05-03T08:55:22.148Z</time></trkpt><trkpt lat="43.0460351" lon="12.1542077"><ele>489.0</ele><time>2026-05-03T08:55:24.146Z</time></trkpt><trkpt lat="43.0460406" lon="12.1540682"><ele>485.4</ele><time>2026-05-03T08:55:26.156Z</time></trkpt><trkpt lat="43.0460927" lon="12.1539521"><ele>481.79999999999995</ele><time>2026-05-03T08:55:28.155Z</time></trkpt><trkpt lat="43.0461726" lon="12.1538855"><ele>478.20000000000005</ele><time>2026-05-03T08:55:30.143Z</time></trkpt><trkpt lat="43.0462811" lon="12.1538551"><ele>474.6</ele><time>2026-05-03T08:55:32.144Z</time></trkpt><trkpt lat="43.0463928" lon="12.1538347"><ele>471.0</ele><time>2026-05-03T08:55:34.162Z</time></trkpt><trkpt lat="43.0464893" lon="12.1537597"><ele>471.0</ele><time>2026-05-03T08:55:36.147Z</time></trkpt><trkpt lat="43.0465922" lon="12.153691"><ele>471.0</ele><time>2026-05-03T08:55:38.153Z</time></trkpt><trkpt lat="43.0466921" lon="12.1536703"><ele>471.0</ele><time>2026-05-03T08:55:40.154Z</time></trkpt><trkpt lat="43.0467944" lon="12.1537127"><ele>471.0</ele><time>2026-05-03T08:55:42.151Z</time></trkpt><trkpt lat="43.0468653" lon="12.1537466"><ele>471.0</ele><time>2026-05-03T08:55:43.15Z</time></trkpt><trkpt lat="43.0469393" lon="12.1537711"><ele>469.8</ele><time>2026-05-03T08:55:44.155Z</time></trkpt><trkpt lat="43.0470046" lon="12.1537902"><ele>468.6</ele><time>2026-05-03T08:55:45.154Z</time></trkpt><trkpt lat="43.0471241" lon="12.1538094"><ele>467.4</ele><time>2026-05-03T08:55:47.152Z</time></trkpt><trkpt lat="43.0472498" lon="12.1538003"><ele>466.2</ele><time>2026-05-03T08:55:49.165Z</time></trkpt><trkpt lat="43.0473201" lon="12.1537903"><ele>465.0</ele><time>2026-05-03T08:55:50.154Z</time></trkpt><trkpt lat="43.0473954" lon="12.1537666"><ele>464.0</ele><time>2026-05-03T08:55:51.153Z</time></trkpt><trkpt lat="43.0474757" lon="12.1537412"><ele>463.0</ele><time>2026-05-03T08:55:52.155Z</time></trkpt><trkpt lat="43.0475581" lon="12.1537294"><ele>462.0</ele><time>2026-05-03T08:55:53.151Z</time></trkpt><trkpt lat="43.0476329" lon="12.1537195"><ele>461.0</ele><time>2026-05-03T08:55:54.153Z</time></trkpt><trkpt lat="43.0477477" lon="12.1537439"><ele>460.0</ele><time>2026-05-03T08:55:56.147Z</time></trkpt><trkpt lat="43.0477527" lon="12.1538742"><ele>460.00000000000006</ele><time>2026-05-03T08:55:59.165Z</time></trkpt><trkpt lat="43.0477021" lon="12.1539603"><ele>460.0</ele><time>2026-05-03T08:56:01.159Z</time></trkpt><trkpt lat="43.0476228" lon="12.1540679"><ele>460.0</ele><time>2026-05-03T08:56:03.155Z</time></trkpt><trkpt lat="43.0475651" lon="12.1541187"><ele>460.0</ele><time>2026-05-03T08:56:04.169Z</time></trkpt><trkpt lat="43.0474966" lon="12.1541605"><ele>460.00000000000006</ele><time>2026-05-03T08:56:05.141Z</time></trkpt><trkpt lat="43.0474186" lon="12.1542065"><ele>460.0</ele><time>2026-05-03T08:56:06.15Z</time></trkpt><trkpt lat="43.0473436" lon="12.1542469"><ele>461.83333333333337</ele><time>2026-05-03T08:56:07.145Z</time></trkpt><trkpt lat="43.0472734" lon="12.1542856"><ele>463.6666666666667</ele><time>2026-05-03T08:56:08.15Z</time></trkpt><trkpt lat="43.0472093" lon="12.15432"><ele>465.5</ele><time>2026-05-03T08:56:09.142Z</time></trkpt><trkpt lat="43.0471115" lon="12.1544195"><ele>467.33333333333337</ele><time>2026-05-03T08:56:11.141Z</time></trkpt><trkpt lat="43.0470695" lon="12.1544889"><ele>469.1666666666667</ele><time>2026-05-03T08:56:12.143Z</time></trkpt><trkpt lat="43.0470297" lon="12.1545685"><ele>471.0</ele><time>2026-05-03T08:56:13.147Z</time></trkpt><trkpt lat="43.0469832" lon="12.1546302"><ele>471.0</ele><time>2026-05-03T08:56:14.142Z</time></trkpt><trkpt lat="43.0468881" lon="12.1547329"><ele>471.0</ele><time>2026-05-03T08:56:16.137Z</time></trkpt><trkpt lat="43.0468339" lon="12.1547941"><ele>471.0</ele><time>2026-05-03T08:56:17.145Z</time></trkpt><trkpt lat="43.0467727" lon="12.1548632"><ele>471.0</ele><time>2026-05-03T08:56:18.144Z</time></trkpt><trkpt lat="43.0467157" lon="12.1549323"><ele>471.0</ele><time>2026-05-03T08:56:19.139Z</time></trkpt><trkpt lat="43.046671" lon="12.1549968"><ele>471.0</ele><time>2026-05-03T08:56:20.141Z</time></trkpt><trkpt lat="43.0466361" lon="12.1550729"><ele>473.28571428571433</ele><time>2026-05-03T08:56:21.144Z</time></trkpt><trkpt lat="43.0466121" lon="12.1551758"><ele>475.57142857142856</ele><time>2026-05-03T08:56:22.142Z</time></trkpt><trkpt lat="43.0465974" lon="12.1552753"><ele>477.8571428571429</ele><time>2026-05-03T08:56:23.143Z</time></trkpt><trkpt lat="43.0465769" lon="12.1553634"><ele>480.14285714285717</ele><time>2026-05-03T08:56:24.139Z</time></trkpt><trkpt lat="43.0465478" lon="12.1554415"><ele>482.42857142857144</ele><time>2026-05-03T08:56:25.144Z</time></trkpt><trkpt lat="43.0465041" lon="12.1555089"><ele>484.7142857142857</ele><time>2026-05-03T08:56:26.145Z</time></trkpt><trkpt lat="43.0464503" lon="12.1555683"><ele>487.0</ele><time>2026-05-03T08:56:27.145Z</time></trkpt><trkpt lat="43.0463837" lon="12.1556218"><ele>487.00000000000006</ele><time>2026-05-03T08:56:28.144Z</time></trkpt><trkpt lat="43.0463116" lon="12.1556643"><ele>487.0</ele><time>2026-05-03T08:56:29.138Z</time></trkpt><trkpt lat="43.0462557" lon="12.1557124"><ele>487.0</ele><time>2026-05-03T08:56:30.142Z</time></trkpt><trkpt lat="43.0462048" lon="12.1557749"><ele>487.0</ele><time>2026-05-03T08:56:31.14Z</time></trkpt><trkpt lat="43.0461738" lon="12.1559381"><ele>487.00000000000006</ele><time>2026-05-03T08:56:33.141Z</time></trkpt><trkpt lat="43.0461902" lon="12.1560432"><ele>487.0</ele><time>2026-05-03T08:56:34.149Z</time></trkpt><trkpt lat="43.0461984" lon="12.1561374"><ele>485.6</ele><time>2026-05-03T08:56:35.131Z</time></trkpt><trkpt lat="43.0461792" lon="12.156267"><ele>484.20000000000005</ele><time>2026-05-03T08:56:37.141Z</time></trkpt><trkpt lat="43.0461346" lon="12.1563684"><ele>482.8</ele><time>2026-05-03T08:56:39.139Z</time></trkpt><trkpt lat="43.0461016" lon="12.1564571"><ele>481.4</ele><time>2026-05-03T08:56:41.169Z</time></trkpt><trkpt lat="43.0461344" lon="12.1566275"><ele>480.0</ele><time>2026-05-03T08:56:43.149Z</time></trkpt><trkpt lat="43.0461886" lon="12.1567494"><ele>479.0</ele><time>2026-05-03T08:56:44.141Z</time></trkpt><trkpt lat="43.0462387" lon="12.1568531"><ele>478.0</ele><time>2026-05-03T08:56:45.146Z</time></trkpt><trkpt lat="43.0462779" lon="12.1569549"><ele>477.0</ele><time>2026-05-03T08:56:46.144Z</time></trkpt><trkpt lat="43.0463088" lon="12.1570587"><ele>476.0</ele><time>2026-05-03T08:56:47.143Z</time></trkpt><trkpt lat="43.0463258" lon="12.1571496"><ele>475.0</ele><time>2026-05-03T08:56:48.14Z</time></trkpt><trkpt lat="43.0463397" lon="12.1572421"><ele>474.0</ele><time>2026-05-03T08:56:49.141Z</time></trkpt><trkpt lat="43.0463555" lon="12.1573526"><ele>471.4</ele><time>2026-05-03T08:56:50.143Z</time></trkpt><trkpt lat="43.046355" lon="12.157453"><ele>468.79999999999995</ele><time>2026-05-03T08:56:51.144Z</time></trkpt><trkpt lat="43.0463089" lon="12.1576127"><ele>466.20000000000005</ele><time>2026-05-03T08:56:53.144Z</time></trkpt><trkpt lat="43.046259" lon="12.1576776"><ele>463.6</ele><time>2026-05-03T08:56:54.149Z</time></trkpt><trkpt lat="43.046204" lon="12.1577226"><ele>461.0</ele><time>2026-05-03T08:56:55.14Z</time></trkpt><trkpt lat="43.0460913" lon="12.1578042"><ele>460.99999999999994</ele><time>2026-05-03T08:56:57.14Z</time></trkpt><trkpt lat="43.0460241" lon="12.1578387"><ele>461.0</ele><time>2026-05-03T08:56:58.141Z</time></trkpt><trkpt lat="43.0459504" lon="12.1578666"><ele>461.0</ele><time>2026-05-03T08:56:59.146Z</time></trkpt><trkpt lat="43.0458777" lon="12.157897"><ele>461.0</ele><time>2026-05-03T08:57:00.144Z</time></trkpt><trkpt lat="43.0458054" lon="12.1579245"><ele>460.99999999999994</ele><time>2026-05-03T08:57:01.142Z</time></trkpt><trkpt lat="43.0457265" lon="12.1579428"><ele>461.0</ele><time>2026-05-03T08:57:02.147Z</time></trkpt><trkpt lat="43.0456446" lon="12.1579576"><ele>465.20000000000005</ele><time>2026-05-03T08:57:03.143Z</time></trkpt><trkpt lat="43.0455762" lon="12.1579751"><ele>469.40000000000003</ele><time>2026-05-03T08:57:04.157Z</time></trkpt><trkpt lat="43.0454755" lon="12.1580304"><ele>473.6</ele><time>2026-05-03T08:57:06.142Z</time></trkpt><trkpt lat="43.045418" lon="12.15811"><ele>477.8</ele><time>2026-05-03T08:57:08.147Z</time></trkpt><trkpt lat="43.045426" lon="12.1582469"><ele>482.0</ele><time>2026-05-03T08:57:10.148Z</time></trkpt><trkpt lat="43.0454687" lon="12.1583823"><ele>481.99999999999994</ele><time>2026-05-03T08:57:12.156Z</time></trkpt><trkpt lat="43.0455214" lon="12.1585061"><ele>482.0</ele><time>2026-05-03T08:57:14.144Z</time></trkpt><trkpt lat="43.0455683" lon="12.1586411"><ele>482.0</ele><time>2026-05-03T08:57:16.146Z</time></trkpt><trkpt lat="43.0455909" lon="12.1587353"><ele>482.0</ele><time>2026-05-03T08:57:17.142Z</time></trkpt><trkpt lat="43.045614" lon="12.1588303"><ele>481.99999999999994</ele><time>2026-05-03T08:57:18.141Z</time></trkpt><trkpt lat="43.0456211" lon="12.1589326"><ele>482.0</ele><time>2026-05-03T08:57:19.138Z</time></trkpt><trkpt lat="43.0456162" lon="12.1590293"><ele>480.16666666666663</ele><time>2026-05-03T08:57:20.143Z</time></trkpt><trkpt lat="43.0456013" lon="12.1591175"><ele>478.3333333333333</ele><time>2026-05-03T08:57:21.144Z</time></trkpt><trkpt lat="43.0455688" lon="12.159204"><ele>476.5</ele><time>2026-05-03T08:57:22.143Z</time></trkpt><trkpt lat="43.0455261" lon="12.1593065"><ele>474.66666666666663</ele><time>2026-05-03T08:57:23.14Z</time></trkpt><trkpt lat="43.0454781" lon="12.1594082"><ele>472.8333333333333</ele><time>2026-05-03T08:57:24.15Z</time></trkpt><trkpt lat="43.0454369" lon="12.1594768"><ele>471.0</ele><time>2026-05-03T08:57:25.151Z</time></trkpt><trkpt lat="43.0453678" lon="12.1596071"><ele>471.0</ele><time>2026-05-03T08:57:27.138Z</time></trkpt><trkpt lat="43.0453568" lon="12.1597002"><ele>471.0</ele><time>2026-05-03T08:57:28.141Z</time></trkpt><trkpt lat="43.0453635" lon="12.1598396"><ele>471.0</ele><time>2026-05-03T08:57:29.134Z</time></trkpt><trkpt lat="43.0454058" lon="12.1599597"><ele>471.0</ele><time>2026-05-03T08:57:30.139Z</time></trkpt><trkpt lat="43.0454443" lon="12.1600428"><ele>471.0</ele><time>2026-05-03T08:57:32.143Z</time></trkpt><trkpt lat="43.0454842" lon="12.1601564"><ele>471.0</ele><time>2026-05-03T08:57:35.156Z</time></trkpt><trkpt lat="43.0454738" lon="12.160305"><ele>470.1666666666667</ele><time>2026-05-03T08:57:37.142Z</time></trkpt><trkpt lat="43.0454471" lon="12.1603899"><ele>469.33333333333337</ele><time>2026-05-03T08:57:38.151Z</time></trkpt><trkpt lat="43.0454211" lon="12.1604838"><ele>468.5</ele><time>2026-05-03T08:57:39.146Z</time></trkpt><trkpt lat="43.0454016" lon="12.1605863"><ele>467.6666666666667</ele><time>2026-05-03T08:57:40.145Z</time></trkpt><trkpt lat="43.0454023" lon="12.1607075"><ele>466.83333333333337</ele><time>2026-05-03T08:57:41.14Z</time></trkpt><trkpt lat="43.0454258" lon="12.1608137"><ele>466.0</ele><time>2026-05-03T08:57:42.142Z</time></trkpt><trkpt lat="43.0454441" lon="12.1608991"><ele>465.1666666666667</ele><time>2026-05-03T08:57:43.161Z</time></trkpt><trkpt lat="43.0454528" lon="12.16106"><ele>464.33333333333337</ele><time>2026-05-03T08:57:45.15Z</time></trkpt><trkpt lat="43.0454446" lon="12.1611573"><ele>463.5</ele><time>2026-05-03T08:57:46.145Z</time></trkpt><trkpt lat="43.045422" lon="12.1612522"><ele>462.66666666666663</ele><time>2026-05-03T08:57:47.144Z</time></trkpt><trkpt lat="43.0453966" lon="12.1613373"><ele>461.8333333333333</ele><time>2026-05-03T08:57:48.15Z</time></trkpt><trkpt lat="43.045372" lon="12.1614222"><ele>461.0</ele><time>2026-05-03T08:57:49.149Z</time></trkpt><trkpt lat="43.0453387" lon="12.1614976"><ele>459.0</ele><time>2026-05-03T08:57:50.153Z</time></trkpt><trkpt lat="43.0452975" lon="12.1615672"><ele>457.00000000000006</ele><time>2026-05-03T08:57:51.15Z</time></trkpt><trkpt lat="43.0452574" lon="12.1616508"><ele>455.0</ele><time>2026-05-03T08:57:52.144Z</time></trkpt><trkpt lat="43.0452154" lon="12.1617346"><ele>453.0</ele><time>2026-05-03T08:57:53.148Z</time></trkpt><trkpt lat="43.0451628" lon="12.161807"><ele>451.0</ele><time>2026-05-03T08:57:54.146Z</time></trkpt><trkpt lat="43.045106" lon="12.1618802"><ele>449.0</ele><time>2026-05-03T08:57:55.152Z</time></trkpt><trkpt lat="43.0450545" lon="12.1619597"><ele>447.0</ele><time>2026-05-03T08:57:56.142Z</time></trkpt><trkpt lat="43.0450018" lon="12.162055"><ele>446.8333333333333</ele><time>2026-05-03T08:57:57.147Z</time></trkpt><trkpt lat="43.0449472" lon="12.1621335"><ele>446.66666666666663</ele><time>2026-05-03T08:57:58.152Z</time></trkpt><trkpt lat="43.0449135" lon="12.1622157"><ele>446.5</ele><time>2026-05-03T08:57:59.146Z</time></trkpt><trkpt lat="43.0448917" lon="12.1622982"><ele>446.3333333333333</ele><time>2026-05-03T08:58:00.15Z</time></trkpt><trkpt lat="43.0448903" lon="12.1623856"><ele>446.16666666666663</ele><time>2026-05-03T08:58:01.146Z</time></trkpt><trkpt lat="43.0448902" lon="12.1625254"><ele>446.0</ele><time>2026-05-03T08:58:03.144Z</time></trkpt><trkpt lat="43.0448665" lon="12.1626399"><ele>446.0</ele><time>2026-05-03T08:58:05.154Z</time></trkpt><trkpt lat="43.0448407" lon="12.1627227"><ele>446.0</ele><time>2026-05-03T08:58:06.151Z</time></trkpt><trkpt lat="43.0448056" lon="12.1628279"><ele>446.0</ele><time>2026-05-03T08:58:07.148Z</time></trkpt><trkpt lat="43.044777" lon="12.1629217"><ele>446.0</ele><time>2026-05-03T08:58:08.152Z</time></trkpt><trkpt lat="43.0447414" lon="12.1630734"><ele>446.0</ele><time>2026-05-03T08:58:10.15Z</time></trkpt><trkpt lat="43.0446804" lon="12.1632203"><ele>442.49999999999994</ele><time>2026-05-03T08:58:12.156Z</time></trkpt><trkpt lat="43.0446432" lon="12.1632945"><ele>439.0</ele><time>2026-05-03T08:58:13.155Z</time></trkpt><trkpt lat="43.0446" lon="12.1633685"><ele>435.5</ele><time>2026-05-03T08:58:14.162Z</time></trkpt><trkpt lat="43.0445544" lon="12.1634328"><ele>432.0</ele><time>2026-05-03T08:58:15.152Z</time></trkpt><trkpt lat="43.0444943" lon="12.163533"><ele>428.49999999999994</ele><time>2026-05-03T08:58:17.154Z</time></trkpt><trkpt lat="43.0445716" lon="12.1634696"><ele>425.0</ele><time>2026-05-03T08:59:00.163Z</time></trkpt><trkpt lat="43.0446561" lon="12.1634064"><ele>424.99999999999994</ele><time>2026-05-03T08:59:02.163Z</time></trkpt><trkpt lat="43.0446945" lon="12.1633249"><ele>425.0</ele><time>2026-05-03T08:59:51.163Z</time></trkpt><trkpt lat="43.044726" lon="12.1632471"><ele>425.0</ele><time>2026-05-03T08:59:53.16Z</time></trkpt><trkpt lat="43.04479" lon="12.1631371"><ele>425.0</ele><time>2026-05-03T08:59:55.147Z</time></trkpt><trkpt lat="43.044859" lon="12.1630299"><ele>424.99999999999994</ele><time>2026-05-03T08:59:57.145Z</time></trkpt><trkpt lat="43.0449386" lon="12.1629571"><ele>425.0</ele><time>2026-05-03T08:59:59.137Z</time></trkpt><trkpt lat="43.0450047" lon="12.1628282"><ele>425.4</ele><time>2026-05-03T09:00:01.143Z</time></trkpt><trkpt lat="43.0450731" lon="12.1627126"><ele>425.8</ele><time>2026-05-03T09:00:03.14Z</time></trkpt><trkpt lat="43.0451374" lon="12.1625702"><ele>426.20000000000005</ele><time>2026-05-03T09:00:05.14Z</time></trkpt><trkpt lat="43.0451787" lon="12.1625017"><ele>426.6</ele><time>2026-05-03T09:00:06.136Z</time></trkpt><trkpt lat="43.0452288" lon="12.1623856"><ele>427.0</ele><time>2026-05-03T09:00:08.144Z</time></trkpt><trkpt lat="43.0453021" lon="12.1622544"><ele>429.85714285714283</ele><time>2026-05-03T09:00:10.139Z</time></trkpt><trkpt lat="43.0453604" lon="12.1621832"><ele>432.7142857142857</ele><time>2026-05-03T09:00:11.148Z</time></trkpt><trkpt lat="43.0454129" lon="12.1621115"><ele>435.57142857142856</ele><time>2026-05-03T09:00:12.144Z</time></trkpt><trkpt lat="43.0454756" lon="12.1620522"><ele>438.42857142857144</ele><time>2026-05-03T09:00:13.144Z</time></trkpt><trkpt lat="43.0455287" lon="12.1620027"><ele>441.2857142857143</ele><time>2026-05-03T09:00:14.141Z</time></trkpt><trkpt lat="43.0455966" lon="12.1619608"><ele>444.1428571428571</ele><time>2026-05-03T09:00:15.141Z</time></trkpt><trkpt lat="43.0456633" lon="12.1619308"><ele>447.0</ele><time>2026-05-03T09:00:16.145Z</time></trkpt><trkpt lat="43.0457588" lon="12.1618563"><ele>441.8</ele><time>2026-05-03T09:00:18.155Z</time></trkpt><trkpt lat="43.0458307" lon="12.1617552"><ele>436.6</ele><time>2026-05-03T09:00:20.141Z</time></trkpt><trkpt lat="43.0458898" lon="12.1616542"><ele>431.40000000000003</ele><time>2026-05-03T09:00:22.141Z</time></trkpt><trkpt lat="43.0459527" lon="12.1615108"><ele>426.20000000000005</ele><time>2026-05-03T09:00:24.139Z</time></trkpt><trkpt lat="43.0459888" lon="12.1613526"><ele>421.0</ele><time>2026-05-03T09:00:26.146Z</time></trkpt><trkpt lat="43.0460203" lon="12.1612025"><ele>421.00000000000006</ele><time>2026-05-03T09:00:28.144Z</time></trkpt><trkpt lat="43.0460676" lon="12.1611039"><ele>421.0</ele><time>2026-05-03T09:00:30.151Z</time></trkpt><trkpt lat="43.0461304" lon="12.1610203"><ele>421.0</ele><time>2026-05-03T09:00:32.153Z</time></trkpt><trkpt lat="43.0461948" lon="12.1609232"><ele>421.0</ele><time>2026-05-03T09:00:34.164Z</time></trkpt><trkpt lat="43.0462452" lon="12.1607935"><ele>421.00000000000006</ele><time>2026-05-03T09:00:36.136Z</time></trkpt><trkpt lat="43.0462729" lon="12.1607095"><ele>421.0</ele><time>2026-05-03T09:00:37.146Z</time></trkpt><trkpt lat="43.0463078" lon="12.1606316"><ele>422.20000000000005</ele><time>2026-05-03T09:00:38.143Z</time></trkpt><trkpt lat="43.046368" lon="12.1605252"><ele>423.40000000000003</ele><time>2026-05-03T09:00:40.146Z</time></trkpt><trkpt lat="43.0464381" lon="12.1604367"><ele>424.6</ele><time>2026-05-03T09:00:42.139Z</time></trkpt><trkpt lat="43.0465027" lon="12.1603298"><ele>425.8</ele><time>2026-05-03T09:00:44.148Z</time></trkpt><trkpt lat="43.0465468" lon="12.1602283"><ele>427.0</ele><time>2026-05-03T09:00:46.158Z</time></trkpt><trkpt lat="43.0465957" lon="12.1600876"><ele>427.00000000000006</ele><time>2026-05-03T09:00:48.146Z</time></trkpt><trkpt lat="43.0466163" lon="12.1599569"><ele>427.0</ele><time>2026-05-03T09:00:50.148Z</time></trkpt><trkpt lat="43.0466044" lon="12.1598709"><ele>427.0</ele><time>2026-05-03T09:00:52.157Z</time></trkpt><trkpt lat="43.0465642" lon="12.1597644"><ele>427.0</ele><time>2026-05-03T09:00:54.154Z</time></trkpt><trkpt lat="43.0465319" lon="12.1596348"><ele>427.00000000000006</ele><time>2026-05-03T09:00:56.136Z</time></trkpt><trkpt lat="43.0464985" lon="12.1595414"><ele>427.0</ele><time>2026-05-03T09:00:58.143Z</time></trkpt><trkpt lat="43.0465045" lon="12.1594409"><ele>428.40000000000003</ele><time>2026-05-03T09:01:00.144Z</time></trkpt><trkpt lat="43.0465661" lon="12.1593633"><ele>429.80000000000007</ele><time>2026-05-03T09:01:02.147Z</time></trkpt><trkpt lat="43.0466405" lon="12.1593205"><ele>431.2</ele><time>2026-05-03T09:01:04.172Z</time></trkpt><trkpt lat="43.0467448" lon="12.1593028"><ele>432.6</ele><time>2026-05-03T09:01:06.151Z</time></trkpt><trkpt lat="43.0468497" lon="12.1592791"><ele>434.0</ele><time>2026-05-03T09:01:08.157Z</time></trkpt><trkpt lat="43.0469596" lon="12.1592563"><ele>427.79999999999995</ele><time>2026-05-03T09:01:10.149Z</time></trkpt><trkpt lat="43.0470586" lon="12.1592299"><ele>421.59999999999997</ele><time>2026-05-03T09:01:12.16Z</time></trkpt><trkpt lat="43.0471536" lon="12.1591878"><ele>415.4</ele><time>2026-05-03T09:01:14.158Z</time></trkpt><trkpt lat="43.0472342" lon="12.1591447"><ele>409.2</ele><time>2026-05-03T09:01:16.152Z</time></trkpt><trkpt lat="43.0473368" lon="12.1590707"><ele>403.0</ele><time>2026-05-03T09:01:18.159Z</time></trkpt><trkpt lat="43.0474086" lon="12.1590428"><ele>402.6666666666667</ele><time>2026-05-03T09:01:19.145Z</time></trkpt><trkpt lat="43.0474838" lon="12.1590041"><ele>402.33333333333337</ele><time>2026-05-03T09:01:20.175Z</time></trkpt><trkpt lat="43.0475476" lon="12.1589732"><ele>402.0</ele><time>2026-05-03T09:01:21.145Z</time></trkpt><trkpt lat="43.0476691" lon="12.1589389"><ele>401.66666666666663</ele><time>2026-05-03T09:01:23.145Z</time></trkpt><trkpt lat="43.0477427" lon="12.15893"><ele>401.3333333333333</ele><time>2026-05-03T09:01:24.139Z</time></trkpt><trkpt lat="43.0478186" lon="12.1589102"><ele>401.0</ele><time>2026-05-03T09:01:25.143Z</time></trkpt><trkpt lat="43.0478833" lon="12.1588814"><ele>401.0</ele><time>2026-05-03T09:01:26.15Z</time></trkpt><trkpt lat="43.0479894" lon="12.1588028"><ele>401.0</ele><time>2026-05-03T09:01:28.142Z</time></trkpt><trkpt lat="43.0480732" lon="12.1586645"><ele>401.0</ele><time>2026-05-03T09:01:30.148Z</time></trkpt><trkpt lat="43.0481089" lon="12.1585811"><ele>401.0</ele><time>2026-05-03T09:01:31.144Z</time></trkpt><trkpt lat="43.0481425" lon="12.1585053"><ele>401.0</ele><time>2026-05-03T09:01:32.146Z</time></trkpt><trkpt lat="43.0482141" lon="12.1583886"><ele>400.99999999999994</ele><time>2026-05-03T09:01:34.155Z</time></trkpt><trkpt lat="43.0482344" lon="12.1583006"><ele>401.0</ele><time>2026-05-03T09:01:36.153Z</time></trkpt><trkpt lat="43.0482464" lon="12.1581408"><ele>401.0</ele><time>2026-05-03T09:01:38.156Z</time></trkpt><trkpt lat="43.0482574" lon="12.1580471"><ele>401.0</ele><time>2026-05-03T09:01:39.145Z</time></trkpt><trkpt lat="43.0482749" lon="12.1579539"><ele>400.99999999999994</ele><time>2026-05-03T09:01:40.152Z</time></trkpt><trkpt lat="43.0482905" lon="12.1578495"><ele>401.0</ele><time>2026-05-03T09:01:41.143Z</time></trkpt><trkpt lat="43.0483102" lon="12.1577401"><ele>401.16666666666663</ele><time>2026-05-03T09:01:42.144Z</time></trkpt><trkpt lat="43.0483288" lon="12.157638"><ele>401.3333333333333</ele><time>2026-05-03T09:01:43.14Z</time></trkpt><trkpt lat="43.0483305" lon="12.1575465"><ele>401.5</ele><time>2026-05-03T09:01:44.134Z</time></trkpt><trkpt lat="43.0483009" lon="12.1573834"><ele>401.66666666666663</ele><time>2026-05-03T09:01:46.142Z</time></trkpt><trkpt lat="43.048266" lon="12.1573078"><ele>401.8333333333333</ele><time>2026-05-03T09:01:47.136Z</time></trkpt><trkpt lat="43.0482152" lon="12.157176"><ele>402.0</ele><time>2026-05-03T09:01:49.138Z</time></trkpt><trkpt lat="43.0482344" lon="12.157077"><ele>399.0</ele><time>2026-05-03T09:01:51.158Z</time></trkpt><trkpt lat="43.0483093" lon="12.1570512"><ele>396.0</ele><time>2026-05-03T09:01:53.159Z</time></trkpt><trkpt lat="43.0484177" lon="12.1570426"><ele>393.0</ele><time>2026-05-03T09:01:55.154Z</time></trkpt><trkpt lat="43.0485347" lon="12.1570553"><ele>390.0</ele><time>2026-05-03T09:01:57.155Z</time></trkpt><trkpt lat="43.0486564" lon="12.157068"><ele>387.0</ele><time>2026-05-03T09:01:59.154Z</time></trkpt><trkpt lat="43.0487192" lon="12.1570822"><ele>387.0</ele><time>2026-05-03T09:02:00.157Z</time></trkpt><trkpt lat="43.0488339" lon="12.1571279"><ele>387.0</ele><time>2026-05-03T09:02:02.148Z</time></trkpt><trkpt lat="43.048956" lon="12.1571477"><ele>387.0</ele><time>2026-05-03T09:02:04.171Z</time></trkpt><trkpt lat="43.0490227" lon="12.1571369"><ele>387.0</ele><time>2026-05-03T09:02:05.156Z</time></trkpt><trkpt lat="43.0491356" lon="12.1570687"><ele>387.0</ele><time>2026-05-03T09:02:07.154Z</time></trkpt><trkpt lat="43.0491875" lon="12.1570124"><ele>387.20000000000005</ele><time>2026-05-03T09:02:08.145Z</time></trkpt><trkpt lat="43.0492601" lon="12.1569207"><ele>387.4</ele><time>2026-05-03T09:02:10.164Z</time></trkpt><trkpt lat="43.0492447" lon="12.1568041"><ele>387.6</ele><time>2026-05-03T09:02:12.161Z</time></trkpt><trkpt lat="43.0492498" lon="12.1566581"><ele>387.79999999999995</ele><time>2026-05-03T09:02:14.148Z</time></trkpt><trkpt lat="43.0492906" lon="12.1565202"><ele>388.0</ele><time>2026-05-03T09:02:16.162Z</time></trkpt><trkpt lat="43.0493286" lon="12.1564505"><ele>388.0</ele><time>2026-05-03T09:02:17.162Z</time></trkpt><trkpt lat="43.0493806" lon="12.1564006"><ele>388.0</ele><time>2026-05-03T09:02:18.153Z</time></trkpt><trkpt lat="43.0494423" lon="12.1563644"><ele>388.0</ele><time>2026-05-03T09:02:19.142Z</time></trkpt><trkpt lat="43.0495051" lon="12.1563238"><ele>388.0</ele><time>2026-05-03T09:02:20.149Z</time></trkpt><trkpt lat="43.0495675" lon="12.1562949"><ele>388.0</ele><time>2026-05-03T09:02:21.155Z</time></trkpt><trkpt lat="43.0496422" lon="12.1562599"><ele>388.0</ele><time>2026-05-03T09:02:22.15Z</time></trkpt><trkpt lat="43.0497174" lon="12.156225"><ele>388.0</ele><time>2026-05-03T09:02:23.143Z</time></trkpt><trkpt lat="43.0497874" lon="12.1561906"><ele>388.00000000000006</ele><time>2026-05-03T09:02:24.146Z</time></trkpt><trkpt lat="43.0498458" lon="12.1561406"><ele>388.0</ele><time>2026-05-03T09:02:25.149Z</time></trkpt><trkpt lat="43.0498896" lon="12.1560622"><ele>388.0</ele><time>2026-05-03T09:02:26.148Z</time></trkpt><trkpt lat="43.0499238" lon="12.1559876"><ele>388.0</ele><time>2026-05-03T09:02:27.145Z</time></trkpt><trkpt lat="43.0499863" lon="12.1558568"><ele>388.00000000000006</ele><time>2026-05-03T09:02:29.146Z</time></trkpt><trkpt lat="43.050037" lon="12.1557369"><ele>388.0</ele><time>2026-05-03T09:02:31.145Z</time></trkpt><trkpt lat="43.0500963" lon="12.1556192"><ele>385.83333333333337</ele><time>2026-05-03T09:02:33.138Z</time></trkpt><trkpt lat="43.05014" lon="12.1555544"><ele>383.6666666666667</ele><time>2026-05-03T09:02:34.15Z</time></trkpt><trkpt lat="43.0501824" lon="12.1554841"><ele>381.5</ele><time>2026-05-03T09:02:35.14Z</time></trkpt><trkpt lat="43.0502477" lon="12.1553745"><ele>379.33333333333337</ele><time>2026-05-03T09:02:37.139Z</time></trkpt><trkpt lat="43.0503094" lon="12.1552635"><ele>377.1666666666667</ele><time>2026-05-03T09:02:39.139Z</time></trkpt><trkpt lat="43.0503533" lon="12.1552015"><ele>375.0</ele><time>2026-05-03T09:02:40.143Z</time></trkpt><trkpt lat="43.0504047" lon="12.1551382"><ele>375.0</ele><time>2026-05-03T09:02:41.143Z</time></trkpt><trkpt lat="43.0504541" lon="12.1550676"><ele>375.0</ele><time>2026-05-03T09:02:42.146Z</time></trkpt><trkpt lat="43.0504939" lon="12.1549996"><ele>375.0</ele><time>2026-05-03T09:02:43.147Z</time></trkpt><trkpt lat="43.0505361" lon="12.1548678"><ele>375.0</ele><time>2026-05-03T09:02:45.142Z</time></trkpt><trkpt lat="43.0505742" lon="12.1547641"><ele>375.0</ele><time>2026-05-03T09:02:47.15Z</time></trkpt><trkpt lat="43.0506128" lon="12.1546596"><ele>375.0</ele><time>2026-05-03T09:02:49.157Z</time></trkpt><trkpt lat="43.0506721" lon="12.1545381"><ele>375.3333333333333</ele><time>2026-05-03T09:02:51.138Z</time></trkpt><trkpt lat="43.0507234" lon="12.1544872"><ele>375.6666666666667</ele><time>2026-05-03T09:02:52.155Z</time></trkpt><trkpt lat="43.0508337" lon="12.1544814"><ele>376.0</ele><time>2026-05-03T09:02:54.148Z</time></trkpt><trkpt lat="43.0509175" lon="12.1544692"><ele>376.33333333333337</ele><time>2026-05-03T09:02:56.157Z</time></trkpt><trkpt lat="43.0509253" lon="12.1543394"><ele>376.6666666666667</ele><time>2026-05-03T09:02:59.158Z</time></trkpt><trkpt lat="43.0509086" lon="12.1542393"><ele>377.0</ele><time>2026-05-03T09:03:01.166Z</time></trkpt><trkpt lat="43.0508651" lon="12.1540722"><ele>373.0</ele><time>2026-05-03T09:03:03.139Z</time></trkpt><trkpt lat="43.0508452" lon="12.1539713"><ele>369.0</ele><time>2026-05-03T09:03:04.152Z</time></trkpt><trkpt lat="43.0508308" lon="12.15388"><ele>365.0</ele><time>2026-05-03T09:03:05.148Z</time></trkpt><trkpt lat="43.0508832" lon="12.1537456"><ele>361.0</ele><time>2026-05-03T09:03:07.148Z</time></trkpt><trkpt lat="43.0509416" lon="12.1536802"><ele>357.0</ele><time>2026-05-03T09:03:08.14Z</time></trkpt><trkpt lat="43.0510084" lon="12.1536226"><ele>353.0</ele><time>2026-05-03T09:03:09.153Z</time></trkpt><trkpt lat="43.0510768" lon="12.1535703"><ele>353.0</ele><time>2026-05-03T09:03:10.156Z</time></trkpt><trkpt lat="43.0511344" lon="12.1535069"><ele>353.0</ele><time>2026-05-03T09:03:11.145Z</time></trkpt><trkpt lat="43.0511943" lon="12.1534366"><ele>353.0</ele><time>2026-05-03T09:03:12.153Z</time></trkpt><trkpt lat="43.0512566" lon="12.153357"><ele>353.0</ele><time>2026-05-03T09:03:13.145Z</time></trkpt><trkpt lat="43.0513075" lon="12.1532712"><ele>353.0</ele><time>2026-05-03T09:03:14.146Z</time></trkpt><trkpt lat="43.0513504" lon="12.1531838"><ele>353.0</ele><time>2026-05-03T09:03:15.143Z</time></trkpt><trkpt lat="43.0513786" lon="12.1530914"><ele>352.5</ele><time>2026-05-03T09:03:16.151Z</time></trkpt><trkpt lat="43.0513912" lon="12.1529892"><ele>352.0</ele><time>2026-05-03T09:03:17.144Z</time></trkpt><trkpt lat="43.0513844" lon="12.1528693"><ele>351.5</ele><time>2026-05-03T09:03:18.149Z</time></trkpt><trkpt lat="43.0513629" lon="12.1527425"><ele>351.0</ele><time>2026-05-03T09:03:19.142Z</time></trkpt><trkpt lat="43.0513349" lon="12.1526415"><ele>350.5</ele><time>2026-05-03T09:03:20.152Z</time></trkpt><trkpt lat="43.0513122" lon="12.1524964"><ele>350.0</ele><time>2026-05-03T09:03:22.145Z</time></trkpt><trkpt lat="43.0513052" lon="12.1523278"><ele>348.4</ele><time>2026-05-03T09:03:24.149Z</time></trkpt><trkpt lat="43.0512813" lon="12.1522324"><ele>346.8</ele><time>2026-05-03T09:03:25.147Z</time></trkpt><trkpt lat="43.0512502" lon="12.1521426"><ele>345.20000000000005</ele><time>2026-05-03T09:03:26.146Z</time></trkpt><trkpt lat="43.0512142" lon="12.1520618"><ele>343.6</ele><time>2026-05-03T09:03:27.14Z</time></trkpt><trkpt lat="43.0511561" lon="12.1519161"><ele>342.0</ele><time>2026-05-03T09:03:29.148Z</time></trkpt><trkpt lat="43.0511041" lon="12.1517753"><ele>342.0</ele><time>2026-05-03T09:03:31.143Z</time></trkpt><trkpt lat="43.0510764" lon="12.1516942"><ele>342.0</ele><time>2026-05-03T09:03:32.151Z</time></trkpt><trkpt lat="43.0510532" lon="12.1516134"><ele>342.0</ele><time>2026-05-03T09:03:33.14Z</time></trkpt><trkpt lat="43.0510338" lon="12.1515312"><ele>342.0</ele><time>2026-05-03T09:03:34.152Z</time></trkpt><trkpt lat="43.05099" lon="12.1513854"><ele>342.0</ele><time>2026-05-03T09:03:36.14Z</time></trkpt><trkpt lat="43.0509188" lon="12.1512773"><ele>342.0</ele><time>2026-05-03T09:03:38.145Z</time></trkpt><trkpt lat="43.0508447" lon="12.1511498"><ele>341.20000000000005</ele><time>2026-05-03T09:03:40.141Z</time></trkpt><trkpt lat="43.0508532" lon="12.1510081"><ele>340.4</ele><time>2026-05-03T09:03:42.149Z</time></trkpt><trkpt lat="43.0509177" lon="12.1508923"><ele>339.6</ele><time>2026-05-03T09:03:44.162Z</time></trkpt><trkpt lat="43.050973" lon="12.1508129"><ele>338.79999999999995</ele><time>2026-05-03T09:03:46.152Z</time></trkpt><trkpt lat="43.0509927" lon="12.1506865"><ele>338.0</ele><time>2026-05-03T09:03:49.153Z</time></trkpt><trkpt lat="43.0509764" lon="12.1505587"><ele>338.0</ele><time>2026-05-03T09:03:51.17Z</time></trkpt><trkpt lat="43.0509816" lon="12.1504227"><ele>338.0</ele><time>2026-05-03T09:03:53.159Z</time></trkpt><trkpt lat="43.0510269" lon="12.1503341"><ele>338.0</ele><time>2026-05-03T09:03:55.162Z</time></trkpt><trkpt lat="43.051077" lon="12.1502298"><ele>338.0</ele><time>2026-05-03T09:03:57.161Z</time></trkpt><trkpt lat="43.0511219" lon="12.1501262"><ele>338.0</ele><time>2026-05-03T09:03:59.157Z</time></trkpt><trkpt lat="43.0511445" lon="12.1500311"><ele>338.0</ele><time>2026-05-03T09:04:01.161Z</time></trkpt><trkpt lat="43.0511686" lon="12.1499073"><ele>337.83333333333337</ele><time>2026-05-03T09:04:04.183Z</time></trkpt><trkpt lat="43.051189" lon="12.1497985"><ele>337.6666666666667</ele><time>2026-05-03T09:04:06.169Z</time></trkpt><trkpt lat="43.0511775" lon="12.1496796"><ele>337.5</ele><time>2026-05-03T09:04:08.159Z</time></trkpt><trkpt lat="43.0511647" lon="12.149562"><ele>337.3333333333333</ele><time>2026-05-03T09:04:10.163Z</time></trkpt><trkpt lat="43.0511589" lon="12.149449"><ele>337.16666666666663</ele><time>2026-05-03T09:04:12.161Z</time></trkpt><trkpt lat="43.0511579" lon="12.1493209"><ele>337.0</ele><time>2026-05-03T09:04:14.165Z</time></trkpt><trkpt lat="43.0511645" lon="12.1491744"><ele>336.40000000000003</ele><time>2026-05-03T09:04:16.151Z</time></trkpt><trkpt lat="43.0511771" lon="12.1490323"><ele>335.8</ele><time>2026-05-03T09:04:18.154Z</time></trkpt><trkpt lat="43.051188" lon="12.1488874"><ele>335.2</ele><time>2026-05-03T09:04:20.152Z</time></trkpt><trkpt lat="43.0512005" lon="12.1487485"><ele>334.6</ele><time>2026-05-03T09:04:22.146Z</time></trkpt><trkpt lat="43.0512143" lon="12.1486"><ele>334.0</ele><time>2026-05-03T09:04:24.151Z</time></trkpt><trkpt lat="43.0512128" lon="12.1484409"><ele>334.0</ele><time>2026-05-03T09:04:26.145Z</time></trkpt><trkpt lat="43.0512155" lon="12.1483251"><ele>334.0</ele><time>2026-05-03T09:04:28.164Z</time></trkpt><trkpt lat="43.0512151" lon="12.148214"><ele>334.0</ele><time>2026-05-03T09:04:30.163Z</time></trkpt><trkpt lat="43.0512253" lon="12.1481128"><ele>334.0</ele><time>2026-05-03T09:04:32.164Z</time></trkpt><trkpt lat="43.0512431" lon="12.1480181"><ele>334.0</ele><time>2026-05-03T09:04:34.177Z</time></trkpt><trkpt lat="43.051315" lon="12.147879"><ele>334.0</ele><time>2026-05-03T09:04:36.172Z</time></trkpt><trkpt lat="43.0513621" lon="12.1477793"><ele>332.66666666666663</ele><time>2026-05-03T09:04:37.163Z</time></trkpt><trkpt lat="43.0514111" lon="12.147678"><ele>331.3333333333333</ele><time>2026-05-03T09:04:38.157Z</time></trkpt><trkpt lat="43.0514636" lon="12.1475686"><ele>330.0</ele><time>2026-05-03T09:04:39.156Z</time></trkpt><trkpt lat="43.0515189" lon="12.1474804"><ele>328.6666666666667</ele><time>2026-05-03T09:04:40.157Z</time></trkpt><trkpt lat="43.0515672" lon="12.1474057"><ele>327.33333333333337</ele><time>2026-05-03T09:04:41.152Z</time></trkpt><trkpt lat="43.0516371" lon="12.147303"><ele>326.0</ele><time>2026-05-03T09:04:43.145Z</time></trkpt><trkpt lat="43.0516711" lon="12.1472097"><ele>323.40000000000003</ele><time>2026-05-03T09:04:46.16Z</time></trkpt><trkpt lat="43.0517336" lon="12.147145"><ele>320.8</ele><time>2026-05-03T09:04:51.162Z</time></trkpt><trkpt lat="43.0517801" lon="12.147083"><ele>318.20000000000005</ele><time>2026-05-03T09:04:52.159Z</time></trkpt><trkpt lat="43.0518689" lon="12.1469689"><ele>315.6</ele><time>2026-05-03T09:04:54.15Z</time></trkpt><trkpt lat="43.0519467" lon="12.1468672"><ele>313.0</ele><time>2026-05-03T09:04:56.164Z</time></trkpt><trkpt lat="43.051983" lon="12.1467411"><ele>313.0</ele><time>2026-05-03T09:04:58.147Z</time></trkpt><trkpt lat="43.0519825" lon="12.1465879"><ele>313.0</ele><time>2026-05-03T09:05:00.153Z</time></trkpt><trkpt lat="43.0519972" lon="12.1465023"><ele>313.0</ele><time>2026-05-03T09:05:01.146Z</time></trkpt><trkpt lat="43.0520259" lon="12.1464109"><ele>313.0</ele><time>2026-05-03T09:05:02.143Z</time></trkpt><trkpt lat="43.0520695" lon="12.1463226"><ele>313.0</ele><time>2026-05-03T09:05:03.151Z</time></trkpt><trkpt lat="43.0521195" lon="12.1462434"><ele>313.0</ele><time>2026-05-03T09:05:04.154Z</time></trkpt><trkpt lat="43.0521786" lon="12.1461532"><ele>312.4</ele><time>2026-05-03T09:05:05.145Z</time></trkpt><trkpt lat="43.0522514" lon="12.1460603"><ele>311.8</ele><time>2026-05-03T09:05:06.152Z</time></trkpt><trkpt lat="43.0523276" lon="12.1459614"><ele>311.2</ele><time>2026-05-03T09:05:07.152Z</time></trkpt><trkpt lat="43.0524036" lon="12.1458781"><ele>310.6</ele><time>2026-05-03T09:05:08.152Z</time></trkpt><trkpt lat="43.0524824" lon="12.1458123"><ele>310.0</ele><time>2026-05-03T09:05:09.152Z</time></trkpt><trkpt lat="43.05257" lon="12.145766"><ele>309.16666666666663</ele><time>2026-05-03T09:05:10.153Z</time></trkpt><trkpt lat="43.0526522" lon="12.1457296"><ele>308.3333333333333</ele><time>2026-05-03T09:05:11.154Z</time></trkpt><trkpt lat="43.0527252" lon="12.1456801"><ele>307.5</ele><time>2026-05-03T09:05:12.151Z</time></trkpt><trkpt lat="43.0527855" lon="12.1456166"><ele>306.6666666666667</ele><time>2026-05-03T09:05:13.154Z</time></trkpt><trkpt lat="43.0528405" lon="12.1455314"><ele>305.83333333333337</ele><time>2026-05-03T09:05:14.158Z</time></trkpt><trkpt lat="43.052888" lon="12.1454412"><ele>305.0</ele><time>2026-05-03T09:05:15.149Z</time></trkpt><trkpt lat="43.0529365" lon="12.14534"><ele>304.6</ele><time>2026-05-03T09:05:16.149Z</time></trkpt><trkpt lat="43.0529952" lon="12.1452403"><ele>304.2</ele><time>2026-05-03T09:05:17.154Z</time></trkpt><trkpt lat="43.0530638" lon="12.14513"><ele>303.8</ele><time>2026-05-03T09:05:18.156Z</time></trkpt><trkpt lat="43.0531333" lon="12.145017"><ele>303.4</ele><time>2026-05-03T09:05:19.158Z</time></trkpt><trkpt lat="43.0531987" lon="12.1449143"><ele>303.0</ele><time>2026-05-03T09:05:20.153Z</time></trkpt><trkpt lat="43.0532644" lon="12.1448129"><ele>302.1666666666667</ele><time>2026-05-03T09:05:21.15Z</time></trkpt><trkpt lat="43.0533217" lon="12.1447138"><ele>301.3333333333333</ele><time>2026-05-03T09:05:22.157Z</time></trkpt><trkpt lat="43.0533774" lon="12.1446211"><ele>300.5</ele><time>2026-05-03T09:05:23.148Z</time></trkpt><trkpt lat="43.053435" lon="12.1445239"><ele>299.66666666666663</ele><time>2026-05-03T09:05:24.145Z</time></trkpt><trkpt lat="43.053496" lon="12.1444306"><ele>298.8333333333333</ele><time>2026-05-03T09:05:25.145Z</time></trkpt><trkpt lat="43.0535523" lon="12.1443466"><ele>298.0</ele><time>2026-05-03T09:05:26.144Z</time></trkpt><trkpt lat="43.0536022" lon="12.1442629"><ele>298.0</ele><time>2026-05-03T09:05:27.156Z</time></trkpt><trkpt lat="43.0536429" lon="12.1441957"><ele>298.0</ele><time>2026-05-03T09:05:28.139Z</time></trkpt><trkpt lat="43.0537092" lon="12.1441421"><ele>298.0</ele><time>2026-05-03T09:05:30.149Z</time></trkpt><trkpt lat="43.0537533" lon="12.1442308"><ele>298.0</ele><time>2026-05-03T09:05:32.163Z</time></trkpt><trkpt lat="43.0538055" lon="12.1444112"><ele>298.0</ele><time>2026-05-03T09:05:34.157Z</time></trkpt><trkpt lat="43.0538462" lon="12.1445313"><ele>298.0</ele><time>2026-05-03T09:05:35.141Z</time></trkpt><trkpt lat="43.0538904" lon="12.1446342"><ele>298.0</ele><time>2026-05-03T09:05:36.145Z</time></trkpt><trkpt lat="43.0539433" lon="12.1447282"><ele>298.0</ele><time>2026-05-03T09:05:37.142Z</time></trkpt><trkpt lat="43.053993" lon="12.1448212"><ele>298.0</ele><time>2026-05-03T09:05:38.143Z</time></trkpt><trkpt lat="43.0540395" lon="12.1449283"><ele>298.0</ele><time>2026-05-03T09:05:39.148Z</time></trkpt><trkpt lat="43.0540755" lon="12.1450442"><ele>298.0</ele><time>2026-05-03T09:05:40.155Z</time></trkpt><trkpt lat="43.0540981" lon="12.1451971"><ele>297.75</ele><time>2026-05-03T09:05:41.144Z</time></trkpt><trkpt lat="43.0541112" lon="12.1453697"><ele>297.5</ele><time>2026-05-03T09:05:42.149Z</time></trkpt><trkpt lat="43.0541249" lon="12.1455314"><ele>297.25</ele><time>2026-05-03T09:05:43.152Z</time></trkpt><trkpt lat="43.0541327" lon="12.145683"><ele>297.0</ele><time>2026-05-03T09:05:44.156Z</time></trkpt><trkpt lat="43.0541385" lon="12.1458295"><ele>297.0</ele><time>2026-05-03T09:05:45.154Z</time></trkpt><trkpt lat="43.0541432" lon="12.1459684"><ele>297.0</ele><time>2026-05-03T09:05:46.155Z</time></trkpt><trkpt lat="43.05415" lon="12.1461004"><ele>297.0</ele><time>2026-05-03T09:05:47.161Z</time></trkpt><trkpt lat="43.054158" lon="12.1462184"><ele>297.0</ele><time>2026-05-03T09:05:48.153Z</time></trkpt><trkpt lat="43.0541663" lon="12.1463359"><ele>297.0</ele><time>2026-05-03T09:05:49.15Z</time></trkpt><trkpt lat="43.0541731" lon="12.1464581"><ele>297.0</ele><time>2026-05-03T09:05:50.157Z</time></trkpt><trkpt lat="43.0541767" lon="12.1465878"><ele>297.0</ele><time>2026-05-03T09:05:51.153Z</time></trkpt><trkpt lat="43.0541816" lon="12.1467193"><ele>297.0</ele><time>2026-05-03T09:05:52.163Z</time></trkpt><trkpt lat="43.054187" lon="12.1468511"><ele>297.0</ele><time>2026-05-03T09:05:53.159Z</time></trkpt><trkpt lat="43.0541893" lon="12.1469802"><ele>297.0</ele><time>2026-05-03T09:05:54.16Z</time></trkpt><trkpt lat="43.0541893" lon="12.147099"><ele>297.0</ele><time>2026-05-03T09:05:55.161Z</time></trkpt><trkpt lat="43.0542002" lon="12.1472077"><ele>297.0</ele><time>2026-05-03T09:05:56.158Z</time></trkpt><trkpt lat="43.0542205" lon="12.1473095"><ele>297.0</ele><time>2026-05-03T09:05:57.158Z</time></trkpt><trkpt lat="43.0542466" lon="12.1474128"><ele>297.0</ele><time>2026-05-03T09:05:58.176Z</time></trkpt><trkpt lat="43.0542771" lon="12.1475324"><ele>297.0</ele><time>2026-05-03T09:05:59.156Z</time></trkpt><trkpt lat="43.0543049" lon="12.1476666"><ele>297.0</ele><time>2026-05-03T09:06:00.166Z</time></trkpt><trkpt lat="43.0543376" lon="12.1478219"><ele>297.4</ele><time>2026-05-03T09:06:01.164Z</time></trkpt><trkpt lat="43.054366" lon="12.147965"><ele>297.79999999999995</ele><time>2026-05-03T09:06:02.161Z</time></trkpt><trkpt lat="43.0543855" lon="12.1480975"><ele>298.2</ele><time>2026-05-03T09:06:03.151Z</time></trkpt><trkpt lat="43.0544022" lon="12.1482279"><ele>298.59999999999997</ele><time>2026-05-03T09:06:04.164Z</time></trkpt><trkpt lat="43.0544141" lon="12.1483649"><ele>299.0</ele><time>2026-05-03T09:06:05.155Z</time></trkpt><trkpt lat="43.0544182" lon="12.1484869"><ele>299.33333333333337</ele><time>2026-05-03T09:06:06.152Z</time></trkpt><trkpt lat="43.0544182" lon="12.1485977"><ele>299.6666666666667</ele><time>2026-05-03T09:06:07.153Z</time></trkpt><trkpt lat="43.0544181" lon="12.1486985"><ele>300.0</ele><time>2026-05-03T09:06:08.151Z</time></trkpt><trkpt lat="43.0544082" lon="12.1488008"><ele>300.3333333333333</ele><time>2026-05-03T09:06:09.155Z</time></trkpt><trkpt lat="43.0543932" lon="12.148909"><ele>300.66666666666663</ele><time>2026-05-03T09:06:10.153Z</time></trkpt><trkpt lat="43.0543743" lon="12.149014"><ele>301.0</ele><time>2026-05-03T09:06:11.154Z</time></trkpt><trkpt lat="43.054354" lon="12.1491212"><ele>301.25</ele><time>2026-05-03T09:06:12.152Z</time></trkpt><trkpt lat="43.0543351" lon="12.1492445"><ele>301.5</ele><time>2026-05-03T09:06:13.153Z</time></trkpt><trkpt lat="43.0543119" lon="12.1494042"><ele>301.75</ele><time>2026-05-03T09:06:14.146Z</time></trkpt><trkpt lat="43.0542905" lon="12.1495971"><ele>302.0</ele><time>2026-05-03T09:06:15.156Z</time></trkpt><trkpt lat="43.0542663" lon="12.1497819"><ele>302.4</ele><time>2026-05-03T09:06:16.155Z</time></trkpt><trkpt lat="43.0542438" lon="12.1499461"><ele>302.79999999999995</ele><time>2026-05-03T09:06:17.15Z</time></trkpt><trkpt lat="43.0542214" lon="12.1500975"><ele>303.2</ele><time>2026-05-03T09:06:18.154Z</time></trkpt><trkpt lat="43.0542034" lon="12.1502338"><ele>303.59999999999997</ele><time>2026-05-03T09:06:19.152Z</time></trkpt><trkpt lat="43.0541893" lon="12.1503511"><ele>304.0</ele><time>2026-05-03T09:06:20.155Z</time></trkpt><trkpt lat="43.0541763" lon="12.1504574"><ele>304.0</ele><time>2026-05-03T09:06:21.149Z</time></trkpt><trkpt lat="43.054167" lon="12.1505683"><ele>304.0</ele><time>2026-05-03T09:06:22.153Z</time></trkpt><trkpt lat="43.0541569" lon="12.1506759"><ele>304.0</ele><time>2026-05-03T09:06:23.147Z</time></trkpt><trkpt lat="43.0541466" lon="12.1507854"><ele>304.0</ele><time>2026-05-03T09:06:24.144Z</time></trkpt><trkpt lat="43.0541444" lon="12.1508972"><ele>304.0</ele><time>2026-05-03T09:06:25.146Z</time></trkpt><trkpt lat="43.0541442" lon="12.151003"><ele>304.0</ele><time>2026-05-03T09:06:26.148Z</time></trkpt><trkpt lat="43.0541519" lon="12.1510976"><ele>304.3333333333333</ele><time>2026-05-03T09:06:27.152Z</time></trkpt><trkpt lat="43.0542399" lon="12.1510854"><ele>304.66666666666663</ele><time>2026-05-03T09:12:57.172Z</time></trkpt><trkpt lat="43.0543187" lon="12.1510392"><ele>305.0</ele><time>2026-05-03T09:12:59.172Z</time></trkpt><trkpt lat="43.0543964" lon="12.1510085"><ele>305.3333333333333</ele><time>2026-05-03T09:13:01.172Z</time></trkpt><trkpt lat="43.0544822" lon="12.1509759"><ele>305.6666666666667</ele><time>2026-05-03T09:13:03.169Z</time></trkpt><trkpt lat="43.0545755" lon="12.1509543"><ele>306.0</ele><time>2026-05-03T09:13:05.172Z</time></trkpt><trkpt lat="43.0546597" lon="12.1509356"><ele>306.0</ele><time>2026-05-03T09:13:07.172Z</time></trkpt><trkpt lat="43.0547321" lon="12.1509227"><ele>306.0</ele><time>2026-05-03T09:13:09.171Z</time></trkpt><trkpt lat="43.0548483" lon="12.1508998"><ele>306.0</ele><time>2026-05-03T09:13:11.171Z</time></trkpt><trkpt lat="43.05492" lon="12.1508824"><ele>306.0</ele><time>2026-05-03T09:13:12.16Z</time></trkpt><trkpt lat="43.0549971" lon="12.1508673"><ele>306.0</ele><time>2026-05-03T09:13:13.16Z</time></trkpt><trkpt lat="43.0550751" lon="12.1508531"><ele>306.0</ele><time>2026-05-03T09:13:14.16Z</time></trkpt><trkpt lat="43.0551509" lon="12.1508349"><ele>305.6666666666667</ele><time>2026-05-03T09:13:15.159Z</time></trkpt><trkpt lat="43.0552212" lon="12.1508173"><ele>305.3333333333333</ele><time>2026-05-03T09:13:16.159Z</time></trkpt><trkpt lat="43.0552874" lon="12.1508026"><ele>305.0</ele><time>2026-05-03T09:13:17.159Z</time></trkpt><trkpt lat="43.0553909" lon="12.1507892"><ele>304.66666666666663</ele><time>2026-05-03T09:13:19.16Z</time></trkpt><trkpt lat="43.0554837" lon="12.1507997"><ele>304.3333333333333</ele><time>2026-05-03T09:13:21.158Z</time></trkpt><trkpt lat="43.0555792" lon="12.15079"><ele>304.0</ele><time>2026-05-03T09:13:23.155Z</time></trkpt><trkpt lat="43.0556885" lon="12.1507847"><ele>304.0</ele><time>2026-05-03T09:13:25.157Z</time></trkpt><trkpt lat="43.0557556" lon="12.1507819"><ele>304.0</ele><time>2026-05-03T09:13:26.159Z</time></trkpt><trkpt lat="43.0558307" lon="12.1507845"><ele>304.0</ele><time>2026-05-03T09:13:27.159Z</time></trkpt><trkpt lat="43.0559089" lon="12.1507845"><ele>304.0</ele><time>2026-05-03T09:13:28.162Z</time></trkpt><trkpt lat="43.0559732" lon="12.1507877"><ele>304.0</ele><time>2026-05-03T09:13:29.148Z</time></trkpt><trkpt lat="43.0560539" lon="12.1508594"><ele>304.0</ele><time>2026-05-03T09:13:31.16Z</time></trkpt><trkpt lat="43.0560443" lon="12.1510275"><ele>304.0</ele><time>2026-05-03T09:13:33.157Z</time></trkpt><trkpt lat="43.0560322" lon="12.1511249"><ele>304.0</ele><time>2026-05-03T09:13:34.164Z</time></trkpt><trkpt lat="43.0560296" lon="12.1512298"><ele>304.0</ele><time>2026-05-03T09:13:35.155Z</time></trkpt><trkpt lat="43.0560467" lon="12.1513335"><ele>304.0</ele><time>2026-05-03T09:13:36.156Z</time></trkpt><trkpt lat="43.0560702" lon="12.151419"><ele>304.0</ele><time>2026-05-03T09:13:37.156Z</time></trkpt><trkpt lat="43.0560943" lon="12.1515128"><ele>304.0</ele><time>2026-05-03T09:13:38.157Z</time></trkpt><trkpt lat="43.05612" lon="12.1516144"><ele>304.0</ele><time>2026-05-03T09:13:39.154Z</time></trkpt><trkpt lat="43.0561466" lon="12.1517265"><ele>304.0</ele><time>2026-05-03T09:13:40.155Z</time></trkpt><trkpt lat="43.0561778" lon="12.151848"><ele>304.0</ele><time>2026-05-03T09:13:41.155Z</time></trkpt><trkpt lat="43.0562022" lon="12.151962"><ele>304.0</ele><time>2026-05-03T09:13:42.165Z</time></trkpt><trkpt lat="43.0562213" lon="12.152073"><ele>304.0</ele><time>2026-05-03T09:13:43.15Z</time></trkpt><trkpt lat="43.0562381" lon="12.1521876"><ele>304.0</ele><time>2026-05-03T09:13:44.153Z</time></trkpt><trkpt lat="43.0562553" lon="12.1523022"><ele>304.0</ele><time>2026-05-03T09:13:45.154Z</time></trkpt><trkpt lat="43.0562735" lon="12.1524104"><ele>304.3333333333333</ele><time>2026-05-03T09:13:46.154Z</time></trkpt><trkpt lat="43.0562943" lon="12.1525031"><ele>304.66666666666663</ele><time>2026-05-03T09:13:47.155Z</time></trkpt><trkpt lat="43.0563238" lon="12.152581"><ele>305.0</ele><time>2026-05-03T09:13:48.153Z</time></trkpt><trkpt lat="43.0563805" lon="12.1527214"><ele>305.3333333333333</ele><time>2026-05-03T09:13:50.155Z</time></trkpt><trkpt lat="43.0564181" lon="12.1528062"><ele>305.6666666666667</ele><time>2026-05-03T09:13:51.152Z</time></trkpt><trkpt lat="43.0564577" lon="12.1528945"><ele>306.0</ele><time>2026-05-03T09:13:52.153Z</time></trkpt><trkpt lat="43.0564925" lon="12.1529812"><ele>306.0</ele><time>2026-05-03T09:13:53.157Z</time></trkpt><trkpt lat="43.0565237" lon="12.1530661"><ele>306.0</ele><time>2026-05-03T09:13:54.155Z</time></trkpt><trkpt lat="43.0565502" lon="12.1531488"><ele>306.0</ele><time>2026-05-03T09:13:55.153Z</time></trkpt><trkpt lat="43.0565763" lon="12.1532338"><ele>306.0</ele><time>2026-05-03T09:13:56.151Z</time></trkpt><trkpt lat="43.0566036" lon="12.1533252"><ele>306.0</ele><time>2026-05-03T09:13:57.152Z</time></trkpt><trkpt lat="43.0566343" lon="12.1534164"><ele>306.0</ele><time>2026-05-03T09:13:58.154Z</time></trkpt><trkpt lat="43.0566629" lon="12.1535014"><ele>306.0</ele><time>2026-05-03T09:13:59.155Z</time></trkpt><trkpt lat="43.0566862" lon="12.1535848"><ele>307.5</ele><time>2026-05-03T09:14:00.155Z</time></trkpt><trkpt lat="43.0567023" lon="12.153678"><ele>309.0</ele><time>2026-05-03T09:14:01.156Z</time></trkpt><trkpt lat="43.0567189" lon="12.1537835"><ele>310.5</ele><time>2026-05-03T09:14:02.154Z</time></trkpt><trkpt lat="43.0567439" lon="12.1538953"><ele>312.0</ele><time>2026-05-03T09:14:03.154Z</time></trkpt><trkpt lat="43.0567677" lon="12.1540145"><ele>313.5</ele><time>2026-05-03T09:14:04.162Z</time></trkpt><trkpt lat="43.0567933" lon="12.154135"><ele>315.0</ele><time>2026-05-03T09:14:05.154Z</time></trkpt><trkpt lat="43.0568185" lon="12.1542487"><ele>315.5</ele><time>2026-05-03T09:14:06.153Z</time></trkpt><trkpt lat="43.0568461" lon="12.1543591"><ele>316.0</ele><time>2026-05-03T09:14:07.153Z</time></trkpt><trkpt lat="43.0568758" lon="12.1544509"><ele>316.5</ele><time>2026-05-03T09:14:08.154Z</time></trkpt><trkpt lat="43.0569045" lon="12.1545355"><ele>317.0</ele><time>2026-05-03T09:14:09.158Z</time></trkpt><trkpt lat="43.0569425" lon="12.1546274"><ele>317.5</ele><time>2026-05-03T09:14:10.156Z</time></trkpt><trkpt lat="43.0569839" lon="12.1547326"><ele>318.0</ele><time>2026-05-03T09:14:11.157Z</time></trkpt><trkpt lat="43.0570287" lon="12.1548453"><ele>318.5</ele><time>2026-05-03T09:14:12.157Z</time></trkpt><trkpt lat="43.0570843" lon="12.1549575"><ele>319.0</ele><time>2026-05-03T09:14:13.168Z</time></trkpt><trkpt lat="43.0571569" lon="12.1550756"><ele>319.5</ele><time>2026-05-03T09:14:14.155Z</time></trkpt><trkpt lat="43.0572461" lon="12.1552015"><ele>320.0</ele><time>2026-05-03T09:14:15.16Z</time></trkpt><trkpt lat="43.0573353" lon="12.1553234"><ele>320.0</ele><time>2026-05-03T09:14:16.159Z</time></trkpt><trkpt lat="43.0574084" lon="12.1554357"><ele>320.0</ele><time>2026-05-03T09:14:17.155Z</time></trkpt><trkpt lat="43.0574629" lon="12.155556"><ele>320.0</ele><time>2026-05-03T09:14:18.157Z</time></trkpt><trkpt lat="43.0575086" lon="12.1556926"><ele>320.0</ele><time>2026-05-03T09:14:19.158Z</time></trkpt><trkpt lat="43.0575521" lon="12.1558475"><ele>320.0</ele><time>2026-05-03T09:14:20.16Z</time></trkpt><trkpt lat="43.0576007" lon="12.1560295"><ele>320.75</ele><time>2026-05-03T09:14:21.159Z</time></trkpt><trkpt lat="43.0576526" lon="12.1562339"><ele>321.5</ele><time>2026-05-03T09:14:22.155Z</time></trkpt><trkpt lat="43.0577053" lon="12.1564263"><ele>322.25</ele><time>2026-05-03T09:14:23.158Z</time></trkpt><trkpt lat="43.0577672" lon="12.1565948"><ele>323.0</ele><time>2026-05-03T09:14:24.157Z</time></trkpt><trkpt lat="43.0578142" lon="12.1567557"><ele>323.79999999999995</ele><time>2026-05-03T09:14:25.157Z</time></trkpt><trkpt lat="43.0578687" lon="12.1568978"><ele>324.6</ele><time>2026-05-03T09:14:26.153Z</time></trkpt><trkpt lat="43.0579122" lon="12.1570343"><ele>325.4</ele><time>2026-05-03T09:14:27.161Z</time></trkpt><trkpt lat="43.0579456" lon="12.1571648"><ele>326.20000000000005</ele><time>2026-05-03T09:14:28.157Z</time></trkpt><trkpt lat="43.0579631" lon="12.1573017"><ele>327.0</ele><time>2026-05-03T09:14:29.156Z</time></trkpt><trkpt lat="43.0579623" lon="12.157446"><ele>327.25</ele><time>2026-05-03T09:14:30.15Z</time></trkpt><trkpt lat="43.0579515" lon="12.1576067"><ele>327.5</ele><time>2026-05-03T09:14:31.156Z</time></trkpt><trkpt lat="43.0579347" lon="12.1577694"><ele>327.75</ele><time>2026-05-03T09:14:32.157Z</time></trkpt><trkpt lat="43.0579092" lon="12.1579417"><ele>328.0</ele><time>2026-05-03T09:14:33.158Z</time></trkpt><trkpt lat="43.0578809" lon="12.1581215"><ele>328.75</ele><time>2026-05-03T09:14:34.163Z</time></trkpt><trkpt lat="43.0578531" lon="12.158306"><ele>329.5</ele><time>2026-05-03T09:14:35.155Z</time></trkpt><trkpt lat="43.0578273" lon="12.1584841"><ele>330.25</ele><time>2026-05-03T09:14:36.154Z</time></trkpt><trkpt lat="43.0578045" lon="12.1586558"><ele>331.0</ele><time>2026-05-03T09:14:37.154Z</time></trkpt><trkpt lat="43.0577845" lon="12.1588246"><ele>331.0</ele><time>2026-05-03T09:14:38.157Z</time></trkpt><trkpt lat="43.0577706" lon="12.1589961"><ele>331.0</ele><time>2026-05-03T09:14:39.158Z</time></trkpt><trkpt lat="43.0577574" lon="12.1591621"><ele>331.0</ele><time>2026-05-03T09:14:40.156Z</time></trkpt><trkpt lat="43.0577465" lon="12.1593254"><ele>331.0</ele><time>2026-05-03T09:14:41.155Z</time></trkpt><trkpt lat="43.0577357" lon="12.1594896"><ele>332.5</ele><time>2026-05-03T09:14:42.158Z</time></trkpt><trkpt lat="43.0577279" lon="12.1596536"><ele>334.0</ele><time>2026-05-03T09:14:43.157Z</time></trkpt><trkpt lat="43.0577292" lon="12.1598104"><ele>335.5</ele><time>2026-05-03T09:14:44.171Z</time></trkpt><trkpt lat="43.0577405" lon="12.1599619"><ele>337.0</ele><time>2026-05-03T09:14:45.157Z</time></trkpt><trkpt lat="43.057763" lon="12.1601038"><ele>338.20000000000005</ele><time>2026-05-03T09:14:46.155Z</time></trkpt><trkpt lat="43.057789" lon="12.1602345"><ele>339.4</ele><time>2026-05-03T09:14:47.156Z</time></trkpt><trkpt lat="43.0578152" lon="12.1603635"><ele>340.6</ele><time>2026-05-03T09:14:48.156Z</time></trkpt><trkpt lat="43.0578463" lon="12.1604904"><ele>341.79999999999995</ele><time>2026-05-03T09:14:49.158Z</time></trkpt><trkpt lat="43.0578695" lon="12.1606089"><ele>343.0</ele><time>2026-05-03T09:14:50.151Z</time></trkpt><trkpt lat="43.0578847" lon="12.1607108"><ele>344.16666666666663</ele><time>2026-05-03T09:14:51.154Z</time></trkpt><trkpt lat="43.0578677" lon="12.1608002"><ele>345.3333333333333</ele><time>2026-05-03T09:14:53.15Z</time></trkpt><trkpt lat="43.0578016" lon="12.1607623"><ele>346.5</ele><time>2026-05-03T09:15:14.167Z</time></trkpt><trkpt lat="43.0576832" lon="12.1607916"><ele>347.6666666666667</ele><time>2026-05-03T09:15:16.159Z</time></trkpt><trkpt lat="43.0576238" lon="12.1608336"><ele>348.83333333333337</ele><time>2026-05-03T09:15:17.149Z</time></trkpt><trkpt lat="43.0575663" lon="12.1608876"><ele>350.0</ele><time>2026-05-03T09:15:18.148Z</time></trkpt><trkpt lat="43.0575116" lon="12.1609627"><ele>350.0</ele><time>2026-05-03T09:15:19.148Z</time></trkpt><trkpt lat="43.0574674" lon="12.1610522"><ele>350.0</ele><time>2026-05-03T09:15:20.147Z</time></trkpt><trkpt lat="43.0574325" lon="12.1611635"><ele>350.0</ele><time>2026-05-03T09:15:21.145Z</time></trkpt><trkpt lat="43.0574055" lon="12.1612957"><ele>350.0</ele><time>2026-05-03T09:15:22.147Z</time></trkpt><trkpt lat="43.0573883" lon="12.161431"><ele>350.0</ele><time>2026-05-03T09:15:23.148Z</time></trkpt><trkpt lat="43.0573734" lon="12.1615443"><ele>350.5</ele><time>2026-05-03T09:15:24.147Z</time></trkpt><trkpt lat="43.0573495" lon="12.1616455"><ele>351.0</ele><time>2026-05-03T09:15:25.143Z</time></trkpt><trkpt lat="43.0573182" lon="12.1617217"><ele>351.5</ele><time>2026-05-03T09:15:26.142Z</time></trkpt><trkpt lat="43.0572105" lon="12.1617878"><ele>352.0</ele><time>2026-05-03T09:15:28.144Z</time></trkpt><trkpt lat="43.0571282" lon="12.1617788"><ele>352.5</ele><time>2026-05-03T09:15:29.141Z</time></trkpt><trkpt lat="43.0570343" lon="12.1617737"><ele>353.0</ele><time>2026-05-03T09:15:30.146Z</time></trkpt><trkpt lat="43.0569326" lon="12.1617943"><ele>353.0</ele><time>2026-05-03T09:15:31.144Z</time></trkpt><trkpt lat="43.0568331" lon="12.1618406"><ele>353.0</ele><time>2026-05-03T09:15:32.139Z</time></trkpt><trkpt lat="43.0567402" lon="12.1619125"><ele>353.0</ele><time>2026-05-03T09:15:33.143Z</time></trkpt><trkpt lat="43.0566555" lon="12.1619741"><ele>353.0</ele><time>2026-05-03T09:15:34.148Z</time></trkpt><trkpt lat="43.0565676" lon="12.162009"><ele>353.0</ele><time>2026-05-03T09:15:35.145Z</time></trkpt><trkpt lat="43.0564619" lon="12.1620186"><ele>353.0</ele><time>2026-05-03T09:15:36.144Z</time></trkpt><trkpt lat="43.0563378" lon="12.162009"><ele>353.0</ele><time>2026-05-03T09:15:37.143Z</time></trkpt><trkpt lat="43.0562299" lon="12.1620052"><ele>353.0</ele><time>2026-05-03T09:15:38.145Z</time></trkpt><trkpt lat="43.0561353" lon="12.1620263"><ele>353.0</ele><time>2026-05-03T09:15:39.146Z</time></trkpt><trkpt lat="43.0560539" lon="12.1620836"><ele>353.0</ele><time>2026-05-03T09:15:40.142Z</time></trkpt><trkpt lat="43.0559783" lon="12.1621718"><ele>353.0</ele><time>2026-05-03T09:15:41.141Z</time></trkpt><trkpt lat="43.0559102" lon="12.1622701"><ele>353.0</ele><time>2026-05-03T09:15:42.14Z</time></trkpt><trkpt lat="43.0558475" lon="12.1623545"><ele>353.0</ele><time>2026-05-03T09:15:43.143Z</time></trkpt><trkpt lat="43.0557761" lon="12.1624181"><ele>353.0</ele><time>2026-05-03T09:15:44.136Z</time></trkpt><trkpt lat="43.0557139" lon="12.162471"><ele>353.0</ele><time>2026-05-03T09:15:45.149Z</time></trkpt><trkpt lat="43.0556411" lon="12.162483"><ele>353.0</ele><time>2026-05-03T09:15:46.144Z</time></trkpt><trkpt lat="43.05556" lon="12.1624652"><ele>353.4</ele><time>2026-05-03T09:15:47.148Z</time></trkpt><trkpt lat="43.0554773" lon="12.1624175"><ele>353.79999999999995</ele><time>2026-05-03T09:15:48.144Z</time></trkpt><trkpt lat="43.0553845" lon="12.1623612"><ele>354.2</ele><time>2026-05-03T09:15:49.147Z</time></trkpt><trkpt lat="43.0552896" lon="12.1623081"><ele>354.6</ele><time>2026-05-03T09:15:50.144Z</time></trkpt><trkpt lat="43.0552023" lon="12.1622721"><ele>355.0</ele><time>2026-05-03T09:15:51.145Z</time></trkpt><trkpt lat="43.0551072" lon="12.1622773"><ele>355.0</ele><time>2026-05-03T09:15:52.146Z</time></trkpt><trkpt lat="43.0550183" lon="12.1623207"><ele>355.0</ele><time>2026-05-03T09:15:53.142Z</time></trkpt><trkpt lat="43.0549292" lon="12.1623677"><ele>355.0</ele><time>2026-05-03T09:15:54.144Z</time></trkpt><trkpt lat="43.054844" lon="12.1623928"><ele>355.0</ele><time>2026-05-03T09:15:55.145Z</time></trkpt><trkpt lat="43.0547579" lon="12.1623838"><ele>355.0</ele><time>2026-05-03T09:15:56.139Z</time></trkpt><trkpt lat="43.0546761" lon="12.1623142"><ele>356.2</ele><time>2026-05-03T09:15:57.136Z</time></trkpt><trkpt lat="43.0546087" lon="12.1621962"><ele>357.4</ele><time>2026-05-03T09:15:58.138Z</time></trkpt><trkpt lat="43.0545434" lon="12.1620799"><ele>358.6</ele><time>2026-05-03T09:15:59.144Z</time></trkpt><trkpt lat="43.0544803" lon="12.1619804"><ele>359.8</ele><time>2026-05-03T09:16:00.14Z</time></trkpt><trkpt lat="43.0544133" lon="12.1619052"><ele>361.0</ele><time>2026-05-03T09:16:01.144Z</time></trkpt><trkpt lat="43.0543279" lon="12.161848"><ele>361.0</ele><time>2026-05-03T09:16:02.148Z</time></trkpt><trkpt lat="43.0542179" lon="12.1618074"><ele>361.0</ele><time>2026-05-03T09:16:03.15Z</time></trkpt><trkpt lat="43.0540984" lon="12.1617685"><ele>361.0</ele><time>2026-05-03T09:16:04.166Z</time></trkpt><trkpt lat="43.0539944" lon="12.1617363"><ele>361.0</ele><time>2026-05-03T09:16:05.152Z</time></trkpt><trkpt lat="43.0538995" lon="12.1617231"><ele>361.0</ele><time>2026-05-03T09:16:06.153Z</time></trkpt><trkpt lat="43.0538079" lon="12.1617359"><ele>360.20000000000005</ele><time>2026-05-03T09:16:07.15Z</time></trkpt><trkpt lat="43.0537173" lon="12.1617794"><ele>359.40000000000003</ele><time>2026-05-03T09:16:08.15Z</time></trkpt><trkpt lat="43.0536305" lon="12.1618308"><ele>358.6</ele><time>2026-05-03T09:16:09.15Z</time></trkpt><trkpt lat="43.0535392" lon="12.1618917"><ele>357.8</ele><time>2026-05-03T09:16:10.152Z</time></trkpt><trkpt lat="43.0534414" lon="12.1619605"><ele>357.0</ele><time>2026-05-03T09:16:11.152Z</time></trkpt><trkpt lat="43.0533344" lon="12.1620371"><ele>358.0</ele><time>2026-05-03T09:16:12.154Z</time></trkpt><trkpt lat="43.0532284" lon="12.1621049"><ele>359.0</ele><time>2026-05-03T09:16:13.152Z</time></trkpt><trkpt lat="43.0531312" lon="12.1621726"><ele>360.0</ele><time>2026-05-03T09:16:14.149Z</time></trkpt><trkpt lat="43.0530427" lon="12.162246"><ele>361.0</ele><time>2026-05-03T09:16:15.14Z</time></trkpt><trkpt lat="43.0529849" lon="12.1623185"><ele>362.0</ele><time>2026-05-03T09:16:16.15Z</time></trkpt><trkpt lat="43.0529469" lon="12.1624035"><ele>362.0</ele><time>2026-05-03T09:16:17.141Z</time></trkpt><trkpt lat="43.0529129" lon="12.1624891"><ele>362.0</ele><time>2026-05-03T09:16:18.138Z</time></trkpt><trkpt lat="43.0528699" lon="12.1625536"><ele>362.0</ele><time>2026-05-03T09:16:19.143Z</time></trkpt><trkpt lat="43.0527968" lon="12.1626316"><ele>362.0</ele><time>2026-05-03T09:16:21.142Z</time></trkpt><trkpt lat="43.0527591" lon="12.1627049"><ele>362.0</ele><time>2026-05-03T09:16:23.152Z</time></trkpt><trkpt lat="43.0527525" lon="12.1628279"><ele>362.0</ele><time>2026-05-03T09:16:27.154Z</time></trkpt><trkpt lat="43.0527764" lon="12.1629222"><ele>362.0</ele><time>2026-05-03T09:16:29.153Z</time></trkpt><trkpt lat="43.0528705" lon="12.1629696"><ele>362.0</ele><time>2026-05-03T09:16:31.157Z</time></trkpt><trkpt lat="43.052957" lon="12.1630776"><ele>362.0</ele><time>2026-05-03T09:16:33.142Z</time></trkpt><trkpt lat="43.0529877" lon="12.1631747"><ele>362.0</ele><time>2026-05-03T09:16:35.152Z</time></trkpt><trkpt lat="43.0530592" lon="12.1631955"><ele>362.0</ele><time>2026-05-03T09:16:37.158Z</time></trkpt><trkpt lat="43.0531248" lon="12.1631334"><ele>362.0</ele><time>2026-05-03T09:16:39.155Z</time></trkpt><trkpt lat="43.0531991" lon="12.1631"><ele>362.0</ele><time>2026-05-03T09:16:41.156Z</time></trkpt><trkpt lat="43.0532869" lon="12.1630753"><ele>362.0</ele><time>2026-05-03T09:16:43.155Z</time></trkpt><trkpt lat="43.0533746" lon="12.1630948"><ele>362.0</ele><time>2026-05-03T09:16:45.156Z</time></trkpt><trkpt lat="43.053453" lon="12.1631408"><ele>362.0</ele><time>2026-05-03T09:16:47.169Z</time></trkpt><trkpt lat="43.0535197" lon="12.1631912"><ele>362.0</ele><time>2026-05-03T09:16:49.157Z</time></trkpt><trkpt lat="43.0536116" lon="12.163263"><ele>362.0</ele><time>2026-05-03T09:16:52.155Z</time></trkpt><trkpt lat="43.0536816" lon="12.163328"><ele>366.1666666666667</ele><time>2026-05-03T09:16:54.156Z</time></trkpt><trkpt lat="43.0537023" lon="12.1634408"><ele>370.33333333333337</ele><time>2026-05-03T09:16:56.152Z</time></trkpt><trkpt lat="43.0536838" lon="12.1635462"><ele>374.5</ele><time>2026-05-03T09:16:58.159Z</time></trkpt><trkpt lat="43.0537226" lon="12.1636334"><ele>378.6666666666667</ele><time>2026-05-03T09:17:05.146Z</time></trkpt><trkpt lat="43.0538099" lon="12.1637029"><ele>382.8333333333333</ele><time>2026-05-03T09:17:08.147Z</time></trkpt><trkpt lat="43.0538797" lon="12.1637911"><ele>387.0</ele><time>2026-05-03T09:17:10.148Z</time></trkpt><trkpt lat="43.0539279" lon="12.1638577"><ele>387.0</ele><time>2026-05-03T09:17:12.157Z</time></trkpt><trkpt lat="43.0539783" lon="12.1639181"><ele>387.0</ele><time>2026-05-03T09:17:15.159Z</time></trkpt><trkpt lat="43.0540222" lon="12.1640143"><ele>387.0</ele><time>2026-05-03T09:17:18.168Z</time></trkpt><trkpt lat="43.054047" lon="12.1640996"><ele>387.0</ele><time>2026-05-03T09:17:20.159Z</time></trkpt><trkpt lat="43.054077" lon="12.1642126"><ele>387.0</ele><time>2026-05-03T09:17:22.16Z</time></trkpt><trkpt lat="43.0541215" lon="12.1643173"><ele>387.0</ele><time>2026-05-03T09:17:24.158Z</time></trkpt><trkpt lat="43.0541575" lon="12.1643967"><ele>391.40000000000003</ele><time>2026-05-03T09:17:26.162Z</time></trkpt><trkpt lat="43.0542126" lon="12.1644896"><ele>395.8</ele><time>2026-05-03T09:17:28.162Z</time></trkpt><trkpt lat="43.0542794" lon="12.1645912"><ele>400.2</ele><time>2026-05-03T09:17:30.147Z</time></trkpt><trkpt lat="43.0543279" lon="12.1647067"><ele>404.6</ele><time>2026-05-03T09:17:32.146Z</time></trkpt><trkpt lat="43.0543964" lon="12.1647879"><ele>409.0</ele><time>2026-05-03T09:17:34.165Z</time></trkpt><trkpt lat="43.0544575" lon="12.1648546"><ele>410.50000000000006</ele><time>2026-05-03T09:17:36.158Z</time></trkpt><trkpt lat="43.0544813" lon="12.1649629"><ele>412.0</ele><time>2026-05-03T09:17:38.16Z</time></trkpt><trkpt lat="43.0544928" lon="12.1650952"><ele>413.5</ele><time>2026-05-03T09:17:40.161Z</time></trkpt><trkpt lat="43.0545014" lon="12.1652214"><ele>415.0</ele><time>2026-05-03T09:17:42.148Z</time></trkpt><trkpt lat="43.0544977" lon="12.165341"><ele>416.50000000000006</ele><time>2026-05-03T09:17:44.164Z</time></trkpt><trkpt lat="43.0545167" lon="12.1654472"><ele>418.0</ele><time>2026-05-03T09:17:46.164Z</time></trkpt><trkpt lat="43.0545415" lon="12.1655511"><ele>418.00000000000006</ele><time>2026-05-03T09:17:48.164Z</time></trkpt><trkpt lat="43.0545547" lon="12.1656652"><ele>418.0</ele><time>2026-05-03T09:17:50.164Z</time></trkpt><trkpt lat="43.0545466" lon="12.1657804"><ele>418.0</ele><time>2026-05-03T09:17:52.162Z</time></trkpt><trkpt lat="43.054552" lon="12.1659227"><ele>418.0</ele><time>2026-05-03T09:17:54.151Z</time></trkpt><trkpt lat="43.0545614" lon="12.1660147"><ele>418.00000000000006</ele><time>2026-05-03T09:17:55.152Z</time></trkpt><trkpt lat="43.0545801" lon="12.1660984"><ele>418.0</ele><time>2026-05-03T09:17:56.15Z</time></trkpt><trkpt lat="43.0546284" lon="12.1662407"><ele>419.1666666666667</ele><time>2026-05-03T09:17:58.149Z</time></trkpt><trkpt lat="43.0546503" lon="12.1663698"><ele>420.33333333333337</ele><time>2026-05-03T09:18:00.146Z</time></trkpt><trkpt lat="43.0546644" lon="12.1664888"><ele>421.5</ele><time>2026-05-03T09:18:02.16Z</time></trkpt><trkpt lat="43.0546659" lon="12.1666283"><ele>422.66666666666663</ele><time>2026-05-03T09:18:04.154Z</time></trkpt><trkpt lat="43.054684" lon="12.166728"><ele>423.8333333333333</ele><time>2026-05-03T09:18:06.157Z</time></trkpt><trkpt lat="43.0547117" lon="12.1668335"><ele>425.0</ele><time>2026-05-03T09:18:08.157Z</time></trkpt><trkpt lat="43.0547313" lon="12.1669642"><ele>425.99999999999994</ele><time>2026-05-03T09:18:10.144Z</time></trkpt><trkpt lat="43.0547097" lon="12.1670824"><ele>427.0</ele><time>2026-05-03T09:18:12.154Z</time></trkpt><trkpt lat="43.0546659" lon="12.1671576"><ele>428.0</ele><time>2026-05-03T09:18:14.158Z</time></trkpt><trkpt lat="43.054651" lon="12.1672792"><ele>429.0</ele><time>2026-05-03T09:18:17.159Z</time></trkpt><trkpt lat="43.0546752" lon="12.1673593"><ele>429.99999999999994</ele><time>2026-05-03T09:18:19.156Z</time></trkpt><trkpt lat="43.0547418" lon="12.1674454"><ele>431.0</ele><time>2026-05-03T09:18:21.159Z</time></trkpt><trkpt lat="43.054807" lon="12.1675442"><ele>432.0</ele><time>2026-05-03T09:18:23.145Z</time></trkpt><trkpt lat="43.054847" lon="12.1676398"><ele>433.0</ele><time>2026-05-03T09:18:25.157Z</time></trkpt><trkpt lat="43.0548692" lon="12.1677507"><ele>434.0</ele><time>2026-05-03T09:18:27.154Z</time></trkpt><trkpt lat="43.0549218" lon="12.1678013"><ele>435.0</ele><time>2026-05-03T09:18:29.159Z</time></trkpt><trkpt lat="43.0549684" lon="12.1678751"><ele>436.0</ele><time>2026-05-03T09:18:32.16Z</time></trkpt><trkpt lat="43.0549634" lon="12.1679783"><ele>437.0</ele><time>2026-05-03T09:18:34.168Z</time></trkpt><trkpt lat="43.0549513" lon="12.1680719"><ele>438.0</ele><time>2026-05-03T09:18:36.161Z</time></trkpt><trkpt lat="43.054949" lon="12.1681655"><ele>440.3333333333333</ele><time>2026-05-03T09:18:38.159Z</time></trkpt><trkpt lat="43.0549389" lon="12.1682583"><ele>442.66666666666663</ele><time>2026-05-03T09:18:40.158Z</time></trkpt><trkpt lat="43.0549152" lon="12.1683783"><ele>445.0</ele><time>2026-05-03T09:18:43.161Z</time></trkpt><trkpt lat="43.0549413" lon="12.1684737"><ele>447.3333333333333</ele><time>2026-05-03T09:18:48.162Z</time></trkpt><trkpt lat="43.0549855" lon="12.1685644"><ele>449.66666666666663</ele><time>2026-05-03T09:18:52.125Z</time></trkpt><trkpt lat="43.0550397" lon="12.1686559"><ele>452.0</ele><time>2026-05-03T09:18:55.163Z</time></trkpt><trkpt lat="43.0550443" lon="12.1687809"><ele>455.0</ele><time>2026-05-03T09:18:58.157Z</time></trkpt><trkpt lat="43.0550482" lon="12.1688761"><ele>458.0</ele><time>2026-05-03T09:19:00.159Z</time></trkpt><trkpt lat="43.0550455" lon="12.1689807"><ele>461.0</ele><time>2026-05-03T09:19:02.155Z</time></trkpt><trkpt lat="43.0550571" lon="12.1690855"><ele>464.0</ele><time>2026-05-03T09:19:04.168Z</time></trkpt><trkpt lat="43.0550574" lon="12.1691757"><ele>467.0</ele><time>2026-05-03T09:19:06.157Z</time></trkpt><trkpt lat="43.0550553" lon="12.1692663"><ele>470.0</ele><time>2026-05-03T09:19:08.039Z</time></trkpt><trkpt lat="43.0550806" lon="12.1693515"><ele>473.0</ele><time>2026-05-03T09:19:09.154Z</time></trkpt><trkpt lat="43.0551066" lon="12.1694301"><ele>475.66666666666663</ele><time>2026-05-03T09:19:10.145Z</time></trkpt><trkpt lat="43.0551446" lon="12.1695539"><ele>478.3333333333333</ele><time>2026-05-03T09:19:12.143Z</time></trkpt><trkpt lat="43.0551543" lon="12.1696438"><ele>481.0</ele><time>2026-05-03T09:19:14.156Z</time></trkpt><trkpt lat="43.055179" lon="12.1697413"><ele>483.66666666666663</ele><time>2026-05-03T09:19:17.154Z</time></trkpt><trkpt lat="43.0552005" lon="12.169843"><ele>486.3333333333333</ele><time>2026-05-03T09:19:20.157Z</time></trkpt><trkpt lat="43.0552479" lon="12.1699415"><ele>489.0</ele><time>2026-05-03T09:19:22.168Z</time></trkpt><trkpt lat="43.055279" lon="12.1700361"><ele>491.14285714285717</ele><time>2026-05-03T09:19:24.158Z</time></trkpt><trkpt lat="43.055296" lon="12.1701299"><ele>493.28571428571433</ele><time>2026-05-03T09:19:26.159Z</time></trkpt><trkpt lat="43.0553234" lon="12.1702312"><ele>495.42857142857144</ele><time>2026-05-03T09:19:28.163Z</time></trkpt><trkpt lat="43.0553425" lon="12.1703356"><ele>497.57142857142856</ele><time>2026-05-03T09:19:30.158Z</time></trkpt><trkpt lat="43.0553374" lon="12.1704258"><ele>499.7142857142857</ele><time>2026-05-03T09:19:32.156Z</time></trkpt><trkpt lat="43.055319" lon="12.1705179"><ele>501.8571428571429</ele><time>2026-05-03T09:19:34.164Z</time></trkpt><trkpt lat="43.0553232" lon="12.1706284"><ele>504.0</ele><time>2026-05-03T09:19:36.163Z</time></trkpt><trkpt lat="43.0553514" lon="12.1707612"><ele>506.5</ele><time>2026-05-03T09:19:38.151Z</time></trkpt><trkpt lat="43.0553852" lon="12.1708843"><ele>509.0</ele><time>2026-05-03T09:19:40.151Z</time></trkpt><trkpt lat="43.0553966" lon="12.1709998"><ele>511.5</ele><time>2026-05-03T09:19:42.166Z</time></trkpt><trkpt lat="43.0554388" lon="12.1710741"><ele>514.0</ele><time>2026-05-03T09:19:44.171Z</time></trkpt><trkpt lat="43.0554475" lon="12.1711617"><ele>516.5</ele><time>2026-05-03T09:19:46.168Z</time></trkpt><trkpt lat="43.0555189" lon="12.171109"><ele>519.0</ele><time>2026-05-03T09:23:37.16Z</time></trkpt><trkpt lat="43.0556385" lon="12.1711969"><ele>519.0</ele><time>2026-05-03T09:23:39.146Z</time></trkpt><trkpt lat="43.0557137" lon="12.1712429"><ele>519.0</ele><time>2026-05-03T09:23:40.147Z</time></trkpt><trkpt lat="43.0557952" lon="12.1712694"><ele>519.0</ele><time>2026-05-03T09:23:41.151Z</time></trkpt><trkpt lat="43.0558937" lon="12.1712679"><ele>519.0</ele><time>2026-05-03T09:23:42.149Z</time></trkpt><trkpt lat="43.056009" lon="12.1712443"><ele>519.0</ele><time>2026-05-03T09:23:43.149Z</time></trkpt><trkpt lat="43.0561386" lon="12.1712092"><ele>521.0</ele><time>2026-05-03T09:23:44.147Z</time></trkpt><trkpt lat="43.0562778" lon="12.1711744"><ele>523.0</ele><time>2026-05-03T09:23:45.151Z</time></trkpt><trkpt lat="43.0564406" lon="12.1711537"><ele>525.0</ele><time>2026-05-03T09:23:46.153Z</time></trkpt><trkpt lat="43.0566046" lon="12.1711442"><ele>524.0</ele><time>2026-05-03T09:23:47.153Z</time></trkpt><trkpt lat="43.0567628" lon="12.1711367"><ele>523.0</ele><time>2026-05-03T09:23:48.156Z</time></trkpt><trkpt lat="43.0569136" lon="12.1711203"><ele>522.0</ele><time>2026-05-03T09:23:49.156Z</time></trkpt><trkpt lat="43.0570451" lon="12.1711059"><ele>521.0</ele><time>2026-05-03T09:23:50.153Z</time></trkpt><trkpt lat="43.0571679" lon="12.1710953"><ele>521.0</ele><time>2026-05-03T09:23:51.15Z</time></trkpt><trkpt lat="43.0572924" lon="12.1710954"><ele>521.0</ele><time>2026-05-03T09:23:52.15Z</time></trkpt><trkpt lat="43.0574128" lon="12.1710852"><ele>521.0</ele><time>2026-05-03T09:23:53.153Z</time></trkpt><trkpt lat="43.0575286" lon="12.1710652"><ele>521.0</ele><time>2026-05-03T09:23:54.149Z</time></trkpt><trkpt lat="43.0576375" lon="12.1710574"><ele>520.25</ele><time>2026-05-03T09:23:55.15Z</time></trkpt><trkpt lat="43.0577527" lon="12.1710526"><ele>519.5</ele><time>2026-05-03T09:23:56.144Z</time></trkpt><trkpt lat="43.057874" lon="12.171049"><ele>518.75</ele><time>2026-05-03T09:23:57.153Z</time></trkpt><trkpt lat="43.0579932" lon="12.1710564"><ele>518.0</ele><time>2026-05-03T09:23:58.149Z</time></trkpt><trkpt lat="43.0581037" lon="12.1710655"><ele>518.0</ele><time>2026-05-03T09:23:59.151Z</time></trkpt><trkpt lat="43.0582061" lon="12.1710713"><ele>518.0</ele><time>2026-05-03T09:24:00.161Z</time></trkpt><trkpt lat="43.0583006" lon="12.1710525"><ele>518.0</ele><time>2026-05-03T09:24:01.155Z</time></trkpt><trkpt lat="43.0583977" lon="12.1710158"><ele>518.0</ele><time>2026-05-03T09:24:02.149Z</time></trkpt><trkpt lat="43.0584972" lon="12.1709633"><ele>518.0</ele><time>2026-05-03T09:24:03.151Z</time></trkpt><trkpt lat="43.0586032" lon="12.1708963"><ele>517.4</ele><time>2026-05-03T09:24:04.157Z</time></trkpt><trkpt lat="43.0587054" lon="12.17083"><ele>516.8</ele><time>2026-05-03T09:24:05.148Z</time></trkpt><trkpt lat="43.0588032" lon="12.170767"><ele>516.2</ele><time>2026-05-03T09:24:06.149Z</time></trkpt><trkpt lat="43.0589012" lon="12.1707189"><ele>515.6</ele><time>2026-05-03T09:24:07.148Z</time></trkpt><trkpt lat="43.0590019" lon="12.1706863"><ele>515.0</ele><time>2026-05-03T09:24:08.155Z</time></trkpt><trkpt lat="43.0591053" lon="12.1706776"><ele>513.5</ele><time>2026-05-03T09:24:09.147Z</time></trkpt><trkpt lat="43.0592118" lon="12.1706938"><ele>512.0</ele><time>2026-05-03T09:24:10.151Z</time></trkpt><trkpt lat="43.0593225" lon="12.170737"><ele>510.5</ele><time>2026-05-03T09:24:11.15Z</time></trkpt><trkpt lat="43.0594396" lon="12.1707802"><ele>509.0</ele><time>2026-05-03T09:24:12.155Z</time></trkpt><trkpt lat="43.059564" lon="12.1708184"><ele>509.0</ele><time>2026-05-03T09:24:13.147Z</time></trkpt><trkpt lat="43.0596843" lon="12.1708504"><ele>509.0</ele><time>2026-05-03T09:24:14.15Z</time></trkpt><trkpt lat="43.0598038" lon="12.1708719"><ele>509.0</ele><time>2026-05-03T09:24:15.144Z</time></trkpt><trkpt lat="43.0599173" lon="12.1708693"><ele>509.0</ele><time>2026-05-03T09:24:16.149Z</time></trkpt><trkpt lat="43.0600274" lon="12.1708445"><ele>507.5</ele><time>2026-05-03T09:24:17.143Z</time></trkpt><trkpt lat="43.0601446" lon="12.1707947"><ele>506.0</ele><time>2026-05-03T09:24:18.143Z</time></trkpt><trkpt lat="43.0602623" lon="12.1707439"><ele>504.5</ele><time>2026-05-03T09:24:19.144Z</time></trkpt><trkpt lat="43.0603804" lon="12.1707142"><ele>503.0</ele><time>2026-05-03T09:24:20.138Z</time></trkpt><trkpt lat="43.0604997" lon="12.1706979"><ele>503.0</ele><time>2026-05-03T09:24:21.147Z</time></trkpt><trkpt lat="43.0606201" lon="12.1707159"><ele>503.0</ele><time>2026-05-03T09:24:22.146Z</time></trkpt><trkpt lat="43.0607457" lon="12.1707498"><ele>503.0</ele><time>2026-05-03T09:24:23.149Z</time></trkpt><trkpt lat="43.0608689" lon="12.1707802"><ele>503.0</ele><time>2026-05-03T09:24:24.149Z</time></trkpt><trkpt lat="43.0609916" lon="12.1707972"><ele>503.79999999999995</ele><time>2026-05-03T09:24:25.154Z</time></trkpt><trkpt lat="43.0611082" lon="12.1708171"><ele>504.59999999999997</ele><time>2026-05-03T09:24:26.148Z</time></trkpt><trkpt lat="43.0612117" lon="12.1708501"><ele>505.40000000000003</ele><time>2026-05-03T09:24:27.148Z</time></trkpt><trkpt lat="43.0613082" lon="12.1708896"><ele>506.20000000000005</ele><time>2026-05-03T09:24:28.161Z</time></trkpt><trkpt lat="43.0614073" lon="12.1709281"><ele>507.0</ele><time>2026-05-03T09:24:29.148Z</time></trkpt><trkpt lat="43.0615145" lon="12.1709491"><ele>507.8</ele><time>2026-05-03T09:24:30.149Z</time></trkpt><trkpt lat="43.061621" lon="12.1709567"><ele>508.6</ele><time>2026-05-03T09:24:31.171Z</time></trkpt><trkpt lat="43.0617224" lon="12.1709363"><ele>509.40000000000003</ele><time>2026-05-03T09:24:32.144Z</time></trkpt><trkpt lat="43.0618222" lon="12.1708916"><ele>510.20000000000005</ele><time>2026-05-03T09:24:33.156Z</time></trkpt><trkpt lat="43.061924" lon="12.1708435"><ele>511.0</ele><time>2026-05-03T09:24:34.156Z</time></trkpt><trkpt lat="43.0620309" lon="12.1708037"><ele>511.0</ele><time>2026-05-03T09:24:35.149Z</time></trkpt><trkpt lat="43.0621413" lon="12.1707806"><ele>511.0</ele><time>2026-05-03T09:24:36.151Z</time></trkpt><trkpt lat="43.0622425" lon="12.1707843"><ele>511.0</ele><time>2026-05-03T09:24:37.146Z</time></trkpt><trkpt lat="43.0623329" lon="12.1708112"><ele>511.0</ele><time>2026-05-03T09:24:38.149Z</time></trkpt><trkpt lat="43.0624015" lon="12.1708591"><ele>511.0</ele><time>2026-05-03T09:24:39.149Z</time></trkpt><trkpt lat="43.0624469" lon="12.1709339"><ele>511.20000000000005</ele><time>2026-05-03T09:24:40.148Z</time></trkpt><trkpt lat="43.0624797" lon="12.1710176"><ele>511.40000000000003</ele><time>2026-05-03T09:24:41.15Z</time></trkpt><trkpt lat="43.0625446" lon="12.1710784"><ele>511.6</ele><time>2026-05-03T09:24:43.154Z</time></trkpt><trkpt lat="43.0626474" lon="12.1710379"><ele>511.8</ele><time>2026-05-03T09:24:45.143Z</time></trkpt><trkpt lat="43.0627326" lon="12.1709812"><ele>512.0</ele><time>2026-05-03T09:24:46.142Z</time></trkpt><trkpt lat="43.0628321" lon="12.1709179"><ele>512.0</ele><time>2026-05-03T09:24:47.143Z</time></trkpt><trkpt lat="43.0629329" lon="12.1708503"><ele>512.0</ele><time>2026-05-03T09:24:48.146Z</time></trkpt><trkpt lat="43.0630337" lon="12.1707799"><ele>512.0</ele><time>2026-05-03T09:24:49.143Z</time></trkpt><trkpt lat="43.0631328" lon="12.1707138"><ele>512.0</ele><time>2026-05-03T09:24:50.139Z</time></trkpt><trkpt lat="43.0632278" lon="12.1706511"><ele>512.0</ele><time>2026-05-03T09:24:51.151Z</time></trkpt><trkpt lat="43.0633197" lon="12.1705927"><ele>510.20000000000005</ele><time>2026-05-03T09:24:52.141Z</time></trkpt><trkpt lat="43.0634125" lon="12.1705442"><ele>508.40000000000003</ele><time>2026-05-03T09:24:53.139Z</time></trkpt><trkpt lat="43.0635041" lon="12.1705109"><ele>506.59999999999997</ele><time>2026-05-03T09:24:54.148Z</time></trkpt><trkpt lat="43.0635971" lon="12.1705056"><ele>504.79999999999995</ele><time>2026-05-03T09:24:55.145Z</time></trkpt><trkpt lat="43.0636793" lon="12.1705378"><ele>503.0</ele><time>2026-05-03T09:24:56.147Z</time></trkpt><trkpt lat="43.0637567" lon="12.1706066"><ele>502.49999999999994</ele><time>2026-05-03T09:24:57.148Z</time></trkpt><trkpt lat="43.063826" lon="12.1706932"><ele>502.0</ele><time>2026-05-03T09:24:58.146Z</time></trkpt><trkpt lat="43.0638969" lon="12.1707849"><ele>501.5</ele><time>2026-05-03T09:24:59.149Z</time></trkpt><trkpt lat="43.0639719" lon="12.1708608"><ele>501.0</ele><time>2026-05-03T09:25:00.156Z</time></trkpt><trkpt lat="43.0640409" lon="12.1709272"><ele>500.49999999999994</ele><time>2026-05-03T09:25:01.149Z</time></trkpt><trkpt lat="43.0640979" lon="12.1709751"><ele>500.0</ele><time>2026-05-03T09:25:02.158Z</time></trkpt><trkpt lat="43.0642054" lon="12.1710151"><ele>499.8333333333333</ele><time>2026-05-03T09:25:04.17Z</time></trkpt><trkpt lat="43.064316" lon="12.1709467"><ele>499.66666666666663</ele><time>2026-05-03T09:25:06.147Z</time></trkpt><trkpt lat="43.0643762" lon="12.1708817"><ele>499.5</ele><time>2026-05-03T09:25:07.14Z</time></trkpt><trkpt lat="43.0644275" lon="12.1708083"><ele>499.33333333333337</ele><time>2026-05-03T09:25:08.15Z</time></trkpt><trkpt lat="43.0644768" lon="12.1707224"><ele>499.1666666666667</ele><time>2026-05-03T09:25:09.142Z</time></trkpt><trkpt lat="43.0645328" lon="12.1706361"><ele>499.0</ele><time>2026-05-03T09:25:10.144Z</time></trkpt><trkpt lat="43.0645905" lon="12.1705452"><ele>499.0</ele><time>2026-05-03T09:25:11.147Z</time></trkpt><trkpt lat="43.0646568" lon="12.1704683"><ele>499.0</ele><time>2026-05-03T09:25:12.142Z</time></trkpt><trkpt lat="43.0647358" lon="12.1703987"><ele>499.0</ele><time>2026-05-03T09:25:13.151Z</time></trkpt><trkpt lat="43.0648279" lon="12.1703429"><ele>499.0</ele><time>2026-05-03T09:25:14.142Z</time></trkpt><trkpt lat="43.0649134" lon="12.1702907"><ele>499.0</ele><time>2026-05-03T09:25:15.138Z</time></trkpt><trkpt lat="43.0649783" lon="12.170237"><ele>498.0</ele><time>2026-05-03T09:25:16.148Z</time></trkpt><trkpt lat="43.0650762" lon="12.1701536"><ele>497.0</ele><time>2026-05-03T09:25:18.137Z</time></trkpt><trkpt lat="43.0651698" lon="12.1700837"><ele>496.0</ele><time>2026-05-03T09:25:20.146Z</time></trkpt><trkpt lat="43.0652428" lon="12.1699793"><ele>495.0</ele><time>2026-05-03T09:25:22.141Z</time></trkpt><trkpt lat="43.065284" lon="12.1698611"><ele>494.0</ele><time>2026-05-03T09:25:24.139Z</time></trkpt><trkpt lat="43.0653213" lon="12.1697233"><ele>493.99999999999994</ele><time>2026-05-03T09:25:26.138Z</time></trkpt><trkpt lat="43.065379" lon="12.1696317"><ele>494.0</ele><time>2026-05-03T09:25:28.147Z</time></trkpt><trkpt lat="43.0654713" lon="12.1695926"><ele>494.0</ele><time>2026-05-03T09:25:30.133Z</time></trkpt><trkpt lat="43.0655927" lon="12.1696467"><ele>494.0</ele><time>2026-05-03T09:25:32.135Z</time></trkpt><trkpt lat="43.0656597" lon="12.1696605"><ele>493.99999999999994</ele><time>2026-05-03T09:25:33.146Z</time></trkpt><trkpt lat="43.0657242" lon="12.1696752"><ele>494.0</ele><time>2026-05-03T09:25:34.141Z</time></trkpt><trkpt lat="43.065828" lon="12.1697199"><ele>495.0</ele><time>2026-05-03T09:25:36.132Z</time></trkpt><trkpt lat="43.065904" lon="12.1697457"><ele>496.0</ele><time>2026-05-03T09:25:38.148Z</time></trkpt><trkpt lat="43.0659667" lon="12.1697311"><ele>497.0</ele><time>2026-05-03T09:25:40.148Z</time></trkpt><trkpt lat="43.0660335" lon="12.1697029"><ele>498.0</ele><time>2026-05-03T09:25:42.148Z</time></trkpt><trkpt lat="43.0661071" lon="12.1696597"><ele>499.0</ele><time>2026-05-03T09:25:44.151Z</time></trkpt><trkpt lat="43.0661659" lon="12.1696198"><ele>500.0</ele><time>2026-05-03T09:25:54.165Z</time></trkpt><trkpt lat="43.0661717" lon="12.1695294"><ele>501.0</ele><time>2026-05-03T09:25:58.158Z</time></trkpt><trkpt lat="43.0662387" lon="12.1694432"><ele>501.0</ele><time>2026-05-03T09:26:00.156Z</time></trkpt><trkpt lat="43.0663157" lon="12.1693428"><ele>501.0</ele><time>2026-05-03T09:26:02.16Z</time></trkpt><trkpt lat="43.066375" lon="12.1691934"><ele>501.0</ele><time>2026-05-03T09:26:04.163Z</time></trkpt><trkpt lat="43.0663796" lon="12.169096"><ele>501.0</ele><time>2026-05-03T09:26:05.142Z</time></trkpt><trkpt lat="43.0663731" lon="12.1689967"><ele>501.0</ele><time>2026-05-03T09:26:06.144Z</time></trkpt><trkpt lat="43.0663542" lon="12.168887"><ele>501.3333333333333</ele><time>2026-05-03T09:26:07.144Z</time></trkpt><trkpt lat="43.0663271" lon="12.1687822"><ele>501.66666666666663</ele><time>2026-05-03T09:26:08.15Z</time></trkpt><trkpt lat="43.066298" lon="12.1686795"><ele>502.0</ele><time>2026-05-03T09:26:09.141Z</time></trkpt><trkpt lat="43.0662651" lon="12.168584"><ele>502.3333333333333</ele><time>2026-05-03T09:26:10.143Z</time></trkpt><trkpt lat="43.0662194" lon="12.1685128"><ele>502.66666666666663</ele><time>2026-05-03T09:26:11.149Z</time></trkpt><trkpt lat="43.0661476" lon="12.1684718"><ele>503.0</ele><time>2026-05-03T09:26:12.144Z</time></trkpt><trkpt lat="43.0660464" lon="12.1684336"><ele>503.0</ele><time>2026-05-03T09:26:14.146Z</time></trkpt><trkpt lat="43.0660052" lon="12.168313"><ele>502.99999999999994</ele><time>2026-05-03T09:26:17.165Z</time></trkpt><trkpt lat="43.0660139" lon="12.1681649"><ele>502.99999999999994</ele><time>2026-05-03T09:26:19.15Z</time></trkpt><trkpt lat="43.0660165" lon="12.1679781"><ele>503.0</ele><time>2026-05-03T09:26:21.144Z</time></trkpt><trkpt lat="43.0660231" lon="12.1678802"><ele>503.0</ele><time>2026-05-03T09:26:22.157Z</time></trkpt><trkpt lat="43.0660348" lon="12.1677748"><ele>503.7142857142857</ele><time>2026-05-03T09:26:23.147Z</time></trkpt><trkpt lat="43.0660531" lon="12.1676718"><ele>504.42857142857144</ele><time>2026-05-03T09:26:24.152Z</time></trkpt><trkpt lat="43.0660653" lon="12.1675728"><ele>505.14285714285717</ele><time>2026-05-03T09:26:25.158Z</time></trkpt><trkpt lat="43.0660725" lon="12.1674739"><ele>505.8571428571429</ele><time>2026-05-03T09:26:26.156Z</time></trkpt><trkpt lat="43.0660796" lon="12.1673813"><ele>506.57142857142856</ele><time>2026-05-03T09:26:27.143Z</time></trkpt><trkpt lat="43.0660804" lon="12.1672927"><ele>507.28571428571433</ele><time>2026-05-03T09:26:28.149Z</time></trkpt><trkpt lat="43.0660786" lon="12.1672003"><ele>508.0</ele><time>2026-05-03T09:26:29.144Z</time></trkpt><trkpt lat="43.0660697" lon="12.1671031"><ele>509.33333333333337</ele><time>2026-05-03T09:26:30.146Z</time></trkpt><trkpt lat="43.0660554" lon="12.1670028"><ele>510.6666666666667</ele><time>2026-05-03T09:26:31.152Z</time></trkpt><trkpt lat="43.0660398" lon="12.1669025"><ele>512.0</ele><time>2026-05-03T09:26:32.141Z</time></trkpt><trkpt lat="43.0660234" lon="12.1668061"><ele>513.3333333333334</ele><time>2026-05-03T09:26:33.147Z</time></trkpt><trkpt lat="43.0660055" lon="12.1667152"><ele>514.6666666666666</ele><time>2026-05-03T09:26:34.143Z</time></trkpt><trkpt lat="43.0659749" lon="12.1665804"><ele>516.0</ele><time>2026-05-03T09:26:36.143Z</time></trkpt><trkpt lat="43.0659515" lon="12.1664473"><ele>516.4</ele><time>2026-05-03T09:26:38.151Z</time></trkpt><trkpt lat="43.0659501" lon="12.1662763"><ele>516.8</ele><time>2026-05-03T09:26:40.14Z</time></trkpt><trkpt lat="43.0659568" lon="12.1661903"><ele>517.1999999999999</ele><time>2026-05-03T09:26:41.143Z</time></trkpt><trkpt lat="43.0659825" lon="12.1660365"><ele>517.6</ele><time>2026-05-03T09:26:43.14Z</time></trkpt><trkpt lat="43.0660513" lon="12.1659136"><ele>518.0</ele><time>2026-05-03T09:26:45.146Z</time></trkpt><trkpt lat="43.0661271" lon="12.1659046"><ele>518.0</ele><time>2026-05-03T09:26:47.151Z</time></trkpt><trkpt lat="43.0662065" lon="12.1659763"><ele>518.0</ele><time>2026-05-03T09:26:49.154Z</time></trkpt><trkpt lat="43.0662715" lon="12.1661123"><ele>518.0</ele><time>2026-05-03T09:26:51.14Z</time></trkpt><trkpt lat="43.0663704" lon="12.16622"><ele>518.0</ele><time>2026-05-03T09:26:53.142Z</time></trkpt><trkpt lat="43.0664198" lon="12.1662781"><ele>518.0</ele><time>2026-05-03T09:26:54.142Z</time></trkpt><trkpt lat="43.0664736" lon="12.166323"><ele>518.0</ele><time>2026-05-03T09:26:55.135Z</time></trkpt><trkpt lat="43.0665326" lon="12.1663667"><ele>518.0</ele><time>2026-05-03T09:26:56.141Z</time></trkpt><trkpt lat="43.0665906" lon="12.1664118"><ele>518.0</ele><time>2026-05-03T09:26:57.139Z</time></trkpt><trkpt lat="43.0666449" lon="12.1664652"><ele>518.0</ele><time>2026-05-03T09:26:58.145Z</time></trkpt><trkpt lat="43.0667395" lon="12.1665725"><ele>518.0</ele><time>2026-05-03T09:27:00.14Z</time></trkpt><trkpt lat="43.0667931" lon="12.1666262"><ele>518.0</ele><time>2026-05-03T09:27:01.142Z</time></trkpt><trkpt lat="43.0668564" lon="12.1666941"><ele>522.0</ele><time>2026-05-03T09:27:02.141Z</time></trkpt><trkpt lat="43.0669055" lon="12.1667605"><ele>526.0</ele><time>2026-05-03T09:27:03.138Z</time></trkpt><trkpt lat="43.0669611" lon="12.1668316"><ele>530.0</ele><time>2026-05-03T09:27:04.15Z</time></trkpt><trkpt lat="43.0670097" lon="12.1668951"><ele>534.0</ele><time>2026-05-03T09:27:05.138Z</time></trkpt><trkpt lat="43.0670553" lon="12.1670358"><ele>538.0</ele><time>2026-05-03T09:27:07.14Z</time></trkpt><trkpt lat="43.0671024" lon="12.1671415"><ele>542.0</ele><time>2026-05-03T09:27:09.136Z</time></trkpt><trkpt lat="43.0672162" lon="12.1671805"><ele>542.0</ele><time>2026-05-03T09:27:11.137Z</time></trkpt><trkpt lat="43.0672938" lon="12.1671641"><ele>542.0</ele><time>2026-05-03T09:27:12.141Z</time></trkpt><trkpt lat="43.0673828" lon="12.1671298"><ele>542.0</ele><time>2026-05-03T09:27:13.14Z</time></trkpt><trkpt lat="43.0674586" lon="12.1671092"><ele>542.0</ele><time>2026-05-03T09:27:14.145Z</time></trkpt><trkpt lat="43.0675242" lon="12.167124"><ele>542.0</ele><time>2026-05-03T09:27:15.146Z</time></trkpt><trkpt lat="43.067576" lon="12.1671794"><ele>542.0</ele><time>2026-05-03T09:27:16.146Z</time></trkpt><trkpt lat="43.0676742" lon="12.1672543"><ele>543.2</ele><time>2026-05-03T09:27:18.146Z</time></trkpt><trkpt lat="43.0677812" lon="12.1672562"><ele>544.4000000000001</ele><time>2026-05-03T09:27:20.136Z</time></trkpt><trkpt lat="43.0679023" lon="12.1672431"><ele>545.5999999999999</ele><time>2026-05-03T09:27:22.144Z</time></trkpt><trkpt lat="43.0680135" lon="12.1672536"><ele>546.8</ele><time>2026-05-03T09:27:24.141Z</time></trkpt><trkpt lat="43.0680807" lon="12.1672479"><ele>548.0</ele><time>2026-05-03T09:27:25.142Z</time></trkpt><trkpt lat="43.0681453" lon="12.1672493"><ele>548.0</ele><time>2026-05-03T09:27:26.141Z</time></trkpt><trkpt lat="43.0682173" lon="12.1672664"><ele>548.0</ele><time>2026-05-03T09:27:27.138Z</time></trkpt><trkpt lat="43.0682987" lon="12.1672904"><ele>548.0</ele><time>2026-05-03T09:27:28.143Z</time></trkpt><trkpt lat="43.0683663" lon="12.1673315"><ele>548.0</ele><time>2026-05-03T09:27:29.137Z</time></trkpt><trkpt lat="43.0684251" lon="12.1673907"><ele>548.0</ele><time>2026-05-03T09:27:30.139Z</time></trkpt><trkpt lat="43.0685103" lon="12.1674728"><ele>548.0</ele><time>2026-05-03T09:27:32.139Z</time></trkpt><trkpt lat="43.0685806" lon="12.1675048"><ele>548.3333333333333</ele><time>2026-05-03T09:27:33.145Z</time></trkpt><trkpt lat="43.0686483" lon="12.1675294"><ele>548.6666666666666</ele><time>2026-05-03T09:27:34.145Z</time></trkpt><trkpt lat="43.0687778" lon="12.167483"><ele>549.0</ele><time>2026-05-03T09:27:36.14Z</time></trkpt><trkpt lat="43.0688519" lon="12.1674458"><ele>549.3333333333334</ele><time>2026-05-03T09:27:37.15Z</time></trkpt><trkpt lat="43.0689241" lon="12.1674157"><ele>549.6666666666667</ele><time>2026-05-03T09:27:38.136Z</time></trkpt><trkpt lat="43.0689846" lon="12.1673776"><ele>550.0</ele><time>2026-05-03T09:27:39.134Z</time></trkpt><trkpt lat="43.069103" lon="12.167274"><ele>552.0</ele><time>2026-05-03T09:27:41.132Z</time></trkpt><trkpt lat="43.0691672" lon="12.167201"><ele>554.0</ele><time>2026-05-03T09:27:42.131Z</time></trkpt><trkpt lat="43.0692188" lon="12.1671322"><ele>556.0</ele><time>2026-05-03T09:27:43.137Z</time></trkpt><trkpt lat="43.0692529" lon="12.1670501"><ele>558.0</ele><time>2026-05-03T09:27:44.129Z</time></trkpt><trkpt lat="43.0692703" lon="12.166959"><ele>560.0</ele><time>2026-05-03T09:27:45.129Z</time></trkpt><trkpt lat="43.0692979" lon="12.1668634"><ele>562.0</ele><time>2026-05-03T09:27:46.129Z</time></trkpt><trkpt lat="43.0693372" lon="12.1667533"><ele>562.0</ele><time>2026-05-03T09:27:47.125Z</time></trkpt><trkpt lat="43.0693964" lon="12.1666565"><ele>562.0</ele><time>2026-05-03T09:27:48.131Z</time></trkpt><trkpt lat="43.069467" lon="12.1665604"><ele>562.0</ele><time>2026-05-03T09:27:49.131Z</time></trkpt><trkpt lat="43.0695541" lon="12.1664673"><ele>562.0</ele><time>2026-05-03T09:27:50.137Z</time></trkpt><trkpt lat="43.0696417" lon="12.166384"><ele>562.0</ele><time>2026-05-03T09:27:51.129Z</time></trkpt><trkpt lat="43.0697258" lon="12.1663215"><ele>561.6</ele><time>2026-05-03T09:27:52.128Z</time></trkpt><trkpt lat="43.0698081" lon="12.1662693"><ele>561.2</ele><time>2026-05-03T09:27:53.127Z</time></trkpt><trkpt lat="43.0698884" lon="12.166222"><ele>560.8</ele><time>2026-05-03T09:27:54.132Z</time></trkpt><trkpt lat="43.0699752" lon="12.1661754"><ele>560.4</ele><time>2026-05-03T09:27:55.136Z</time></trkpt><trkpt lat="43.0700678" lon="12.1661261"><ele>560.0</ele><time>2026-05-03T09:27:56.129Z</time></trkpt><trkpt lat="43.07016" lon="12.1660837"><ele>560.0</ele><time>2026-05-03T09:27:57.135Z</time></trkpt><trkpt lat="43.0702451" lon="12.1660384"><ele>560.0</ele><time>2026-05-03T09:27:58.14Z</time></trkpt><trkpt lat="43.0703321" lon="12.1659798"><ele>560.0</ele><time>2026-05-03T09:27:59.139Z</time></trkpt><trkpt lat="43.0704105" lon="12.1659152"><ele>560.0</ele><time>2026-05-03T09:28:00.136Z</time></trkpt><trkpt lat="43.0704838" lon="12.1658417"><ele>560.0</ele><time>2026-05-03T09:28:01.134Z</time></trkpt><trkpt lat="43.070549" lon="12.1657603"><ele>558.2857142857143</ele><time>2026-05-03T09:28:02.143Z</time></trkpt><trkpt lat="43.0706039" lon="12.16568"><ele>556.5714285714286</ele><time>2026-05-03T09:28:03.141Z</time></trkpt><trkpt lat="43.0706527" lon="12.1656119"><ele>554.8571428571429</ele><time>2026-05-03T09:28:04.146Z</time></trkpt><trkpt lat="43.070704" lon="12.1655542"><ele>553.1428571428571</ele><time>2026-05-03T09:28:05.136Z</time></trkpt><trkpt lat="43.0707634" lon="12.1655106"><ele>551.4285714285714</ele><time>2026-05-03T09:28:06.14Z</time></trkpt><trkpt lat="43.070829" lon="12.1654747"><ele>549.7142857142858</ele><time>2026-05-03T09:28:07.14Z</time></trkpt><trkpt lat="43.0709004" lon="12.1654423"><ele>548.0</ele><time>2026-05-03T09:28:08.15Z</time></trkpt><trkpt lat="43.0709765" lon="12.1654145"><ele>548.0</ele><time>2026-05-03T09:28:09.14Z</time></trkpt><trkpt lat="43.0710533" lon="12.1653915"><ele>548.0</ele><time>2026-05-03T09:28:10.139Z</time></trkpt><trkpt lat="43.0711277" lon="12.1653719"><ele>548.0</ele><time>2026-05-03T09:28:11.138Z</time></trkpt><trkpt lat="43.0712053" lon="12.1653508"><ele>548.0</ele><time>2026-05-03T09:28:12.141Z</time></trkpt><trkpt lat="43.0712853" lon="12.1653286"><ele>548.0</ele><time>2026-05-03T09:28:13.143Z</time></trkpt><trkpt lat="43.0713663" lon="12.1652979"><ele>548.0</ele><time>2026-05-03T09:28:14.144Z</time></trkpt><trkpt lat="43.0714435" lon="12.1652643"><ele>548.0</ele><time>2026-05-03T09:28:15.142Z</time></trkpt><trkpt lat="43.0715203" lon="12.1652255"><ele>548.0</ele><time>2026-05-03T09:28:16.141Z</time></trkpt><trkpt lat="43.0715921" lon="12.1651865"><ele>548.0</ele><time>2026-05-03T09:28:17.142Z</time></trkpt><trkpt lat="43.0716605" lon="12.1651424"><ele>548.0</ele><time>2026-05-03T09:28:18.143Z</time></trkpt><trkpt lat="43.0717196" lon="12.1650973"><ele>548.0</ele><time>2026-05-03T09:28:19.142Z</time></trkpt><trkpt lat="43.0718112" lon="12.1650007"><ele>548.0</ele><time>2026-05-03T09:28:21.143Z</time></trkpt><trkpt lat="43.0718693" lon="12.1648669"><ele>543.3333333333333</ele><time>2026-05-03T09:28:23.141Z</time></trkpt><trkpt lat="43.0718863" lon="12.1647835"><ele>538.6666666666666</ele><time>2026-05-03T09:28:24.137Z</time></trkpt><trkpt lat="43.0718961" lon="12.1646037"><ele>534.0</ele><time>2026-05-03T09:28:26.139Z</time></trkpt><trkpt lat="43.0718815" lon="12.1645061"><ele>529.3333333333334</ele><time>2026-05-03T09:28:27.137Z</time></trkpt><trkpt lat="43.0718532" lon="12.1644195"><ele>524.6666666666667</ele><time>2026-05-03T09:28:28.142Z</time></trkpt><trkpt lat="43.0718158" lon="12.1643428"><ele>520.0</ele><time>2026-05-03T09:28:29.138Z</time></trkpt><trkpt lat="43.0717668" lon="12.1642785"><ele>520.0</ele><time>2026-05-03T09:28:30.141Z</time></trkpt><trkpt lat="43.0717005" lon="12.1642257"><ele>520.0</ele><time>2026-05-03T09:28:31.127Z</time></trkpt><trkpt lat="43.0716341" lon="12.1641712"><ele>520.0</ele><time>2026-05-03T09:28:32.128Z</time></trkpt><trkpt lat="43.0715665" lon="12.1641028"><ele>520.0</ele><time>2026-05-03T09:28:33.128Z</time></trkpt><trkpt lat="43.0715072" lon="12.1640205"><ele>520.0</ele><time>2026-05-03T09:28:34.131Z</time></trkpt><trkpt lat="43.0714577" lon="12.1639326"><ele>520.0</ele><time>2026-05-03T09:28:35.125Z</time></trkpt><trkpt lat="43.0714175" lon="12.1638316"><ele>519.6</ele><time>2026-05-03T09:28:36.122Z</time></trkpt><trkpt lat="43.0713742" lon="12.1637342"><ele>519.2</ele><time>2026-05-03T09:28:37.127Z</time></trkpt><trkpt lat="43.0713309" lon="12.1636259"><ele>518.8</ele><time>2026-05-03T09:28:38.121Z</time></trkpt><trkpt lat="43.0712885" lon="12.1634983"><ele>518.4</ele><time>2026-05-03T09:28:39.137Z</time></trkpt><trkpt lat="43.0712698" lon="12.1633644"><ele>518.0</ele><time>2026-05-03T09:28:40.126Z</time></trkpt><trkpt lat="43.0712708" lon="12.1632435"><ele>515.0</ele><time>2026-05-03T09:28:41.133Z</time></trkpt><trkpt lat="43.0712591" lon="12.1631344"><ele>512.0</ele><time>2026-05-03T09:28:42.133Z</time></trkpt><trkpt lat="43.0712536" lon="12.1630399"><ele>509.0</ele><time>2026-05-03T09:28:43.13Z</time></trkpt><trkpt lat="43.0712518" lon="12.1629437"><ele>506.0</ele><time>2026-05-03T09:28:44.136Z</time></trkpt><trkpt lat="43.0712415" lon="12.1628417"><ele>503.0</ele><time>2026-05-03T09:28:45.134Z</time></trkpt><trkpt lat="43.071238" lon="12.1627457"><ele>500.0</ele><time>2026-05-03T09:28:46.133Z</time></trkpt><trkpt lat="43.0712364" lon="12.1626501"><ele>497.0</ele><time>2026-05-03T09:28:47.134Z</time></trkpt><trkpt lat="43.0712461" lon="12.1625585"><ele>496.99999999999994</ele><time>2026-05-03T09:28:48.135Z</time></trkpt><trkpt lat="43.0712611" lon="12.1624593"><ele>497.0</ele><time>2026-05-03T09:28:49.139Z</time></trkpt><trkpt lat="43.0712751" lon="12.1623606"><ele>497.0</ele><time>2026-05-03T09:28:50.138Z</time></trkpt><trkpt lat="43.0712774" lon="12.1622708"><ele>497.0</ele><time>2026-05-03T09:28:51.139Z</time></trkpt><trkpt lat="43.0712328" lon="12.1621154"><ele>496.99999999999994</ele><time>2026-05-03T09:28:53.129Z</time></trkpt><trkpt lat="43.0711916" lon="12.1620357"><ele>497.0</ele><time>2026-05-03T09:28:54.131Z</time></trkpt><trkpt lat="43.0711466" lon="12.1619519"><ele>494.42857142857144</ele><time>2026-05-03T09:28:55.133Z</time></trkpt><trkpt lat="43.0710987" lon="12.1618797"><ele>491.8571428571429</ele><time>2026-05-03T09:28:56.131Z</time></trkpt><trkpt lat="43.071055" lon="12.1618089"><ele>489.2857142857143</ele><time>2026-05-03T09:28:57.145Z</time></trkpt><trkpt lat="43.0710149" lon="12.1617353"><ele>486.7142857142857</ele><time>2026-05-03T09:28:58.132Z</time></trkpt><trkpt lat="43.0709891" lon="12.1616538"><ele>484.14285714285717</ele><time>2026-05-03T09:28:59.129Z</time></trkpt><trkpt lat="43.0709707" lon="12.1615695"><ele>481.57142857142856</ele><time>2026-05-03T09:29:00.132Z</time></trkpt><trkpt lat="43.0709533" lon="12.1614779"><ele>479.0</ele><time>2026-05-03T09:29:01.131Z</time></trkpt><trkpt lat="43.0709073" lon="12.1613298"><ele>476.3333333333333</ele><time>2026-05-03T09:29:03.131Z</time></trkpt><trkpt lat="43.0708135" lon="12.1612262"><ele>473.66666666666663</ele><time>2026-05-03T09:29:05.132Z</time></trkpt><trkpt lat="43.0707492" lon="12.1611783"><ele>471.0</ele><time>2026-05-03T09:29:06.132Z</time></trkpt><trkpt lat="43.0706829" lon="12.1611299"><ele>468.33333333333337</ele><time>2026-05-03T09:29:07.135Z</time></trkpt><trkpt lat="43.0706209" lon="12.1610825"><ele>465.6666666666667</ele><time>2026-05-03T09:29:08.13Z</time></trkpt><trkpt lat="43.0705696" lon="12.1610252"><ele>463.0</ele><time>2026-05-03T09:29:09.13Z</time></trkpt><trkpt lat="43.0705382" lon="12.1609491"><ele>460.59999999999997</ele><time>2026-05-03T09:29:10.162Z</time></trkpt><trkpt lat="43.0704723" lon="12.1608147"><ele>458.19999999999993</ele><time>2026-05-03T09:29:12.132Z</time></trkpt><trkpt lat="43.0703981" lon="12.1606813"><ele>455.8</ele><time>2026-05-03T09:29:14.129Z</time></trkpt><trkpt lat="43.0703582" lon="12.1605881"><ele>453.4</ele><time>2026-05-03T09:29:16.127Z</time></trkpt><trkpt lat="43.0703255" lon="12.1605012"><ele>451.0</ele><time>2026-05-03T09:29:20.143Z</time></trkpt><trkpt lat="43.0702976" lon="12.1604043"><ele>449.83333333333337</ele><time>2026-05-03T09:29:22.142Z</time></trkpt><trkpt lat="43.070257" lon="12.1602974"><ele>448.6666666666667</ele><time>2026-05-03T09:29:24.156Z</time></trkpt><trkpt lat="43.070217" lon="12.1601927"><ele>447.5</ele><time>2026-05-03T09:29:26.159Z</time></trkpt><trkpt lat="43.0702893" lon="12.1602209"><ele>446.33333333333337</ele><time>2026-05-03T09:30:47.164Z</time></trkpt><trkpt lat="43.0703319" lon="12.160324"><ele>445.1666666666667</ele><time>2026-05-03T09:30:49.162Z</time></trkpt><trkpt lat="43.0703562" lon="12.1604073"><ele>444.0</ele><time>2026-05-03T09:30:50.153Z</time></trkpt><trkpt lat="43.0703869" lon="12.1605051"><ele>444.0</ele><time>2026-05-03T09:30:51.148Z</time></trkpt><trkpt lat="43.0704254" lon="12.1606226"><ele>444.0</ele><time>2026-05-03T09:30:52.153Z</time></trkpt><trkpt lat="43.070466" lon="12.1607344"><ele>444.0</ele><time>2026-05-03T09:30:53.151Z</time></trkpt><trkpt lat="43.0705086" lon="12.1608191"><ele>444.0</ele><time>2026-05-03T09:30:54.151Z</time></trkpt><trkpt lat="43.0705559" lon="12.1608957"><ele>444.0</ele><time>2026-05-03T09:30:55.152Z</time></trkpt><trkpt lat="43.0706404" lon="12.1610216"><ele>445.1666666666667</ele><time>2026-05-03T09:30:57.147Z</time></trkpt><trkpt lat="43.0707012" lon="12.1611554"><ele>446.33333333333337</ele><time>2026-05-03T09:30:59.149Z</time></trkpt><trkpt lat="43.0707507" lon="12.1612179"><ele>447.5</ele><time>2026-05-03T09:31:00.154Z</time></trkpt><trkpt lat="43.0708207" lon="12.1612763"><ele>448.6666666666667</ele><time>2026-05-03T09:31:01.152Z</time></trkpt><trkpt lat="43.0709046" lon="12.1613452"><ele>449.83333333333337</ele><time>2026-05-03T09:31:02.151Z</time></trkpt><trkpt lat="43.0709645" lon="12.1614212"><ele>451.0</ele><time>2026-05-03T09:31:03.153Z</time></trkpt><trkpt lat="43.071006" lon="12.1614915"><ele>455.0</ele><time>2026-05-03T09:31:04.154Z</time></trkpt><trkpt lat="43.071026" lon="12.1615788"><ele>459.0</ele><time>2026-05-03T09:31:05.151Z</time></trkpt><trkpt lat="43.0710424" lon="12.1616763"><ele>463.0</ele><time>2026-05-03T09:31:06.153Z</time></trkpt><trkpt lat="43.071067" lon="12.1617755"><ele>467.0</ele><time>2026-05-03T09:31:07.153Z</time></trkpt><trkpt lat="43.0710917" lon="12.1618574"><ele>471.0</ele><time>2026-05-03T09:31:08.146Z</time></trkpt><trkpt lat="43.0711319" lon="12.161939"><ele>475.0</ele><time>2026-05-03T09:31:09.149Z</time></trkpt><trkpt lat="43.0711813" lon="12.1620158"><ele>479.0</ele><time>2026-05-03T09:31:10.147Z</time></trkpt><trkpt lat="43.0712284" lon="12.1620991"><ele>478.99999999999994</ele><time>2026-05-03T09:31:11.151Z</time></trkpt><trkpt lat="43.0712757" lon="12.1621907"><ele>479.0</ele><time>2026-05-03T09:31:12.147Z</time></trkpt><trkpt lat="43.0713188" lon="12.1622846"><ele>479.0</ele><time>2026-05-03T09:31:13.154Z</time></trkpt><trkpt lat="43.0713472" lon="12.1623766"><ele>479.0</ele><time>2026-05-03T09:31:14.145Z</time></trkpt><trkpt lat="43.0713614" lon="12.1624789"><ele>478.99999999999994</ele><time>2026-05-03T09:31:15.145Z</time></trkpt><trkpt lat="43.071357" lon="12.1625981"><ele>479.0</ele><time>2026-05-03T09:31:16.143Z</time></trkpt><trkpt lat="43.0713484" lon="12.1627061"><ele>481.99999999999994</ele><time>2026-05-03T09:31:17.143Z</time></trkpt><trkpt lat="43.0713318" lon="12.1627999"><ele>485.0</ele><time>2026-05-03T09:31:18.144Z</time></trkpt><trkpt lat="43.0713302" lon="12.1628912"><ele>488.0</ele><time>2026-05-03T09:31:19.145Z</time></trkpt><trkpt lat="43.0713295" lon="12.1629951"><ele>491.0</ele><time>2026-05-03T09:31:20.148Z</time></trkpt><trkpt lat="43.0713297" lon="12.1631184"><ele>493.99999999999994</ele><time>2026-05-03T09:31:21.146Z</time></trkpt><trkpt lat="43.0713364" lon="12.1632469"><ele>497.0</ele><time>2026-05-03T09:31:22.151Z</time></trkpt><trkpt lat="43.0713529" lon="12.1633645"><ele>501.20000000000005</ele><time>2026-05-03T09:31:23.149Z</time></trkpt><trkpt lat="43.0713706" lon="12.1634933"><ele>505.40000000000003</ele><time>2026-05-03T09:31:24.151Z</time></trkpt><trkpt lat="43.071389" lon="12.1636284"><ele>509.59999999999997</ele><time>2026-05-03T09:31:25.151Z</time></trkpt><trkpt lat="43.0714019" lon="12.1637539"><ele>513.8</ele><time>2026-05-03T09:31:26.143Z</time></trkpt><trkpt lat="43.071425" lon="12.1638754"><ele>518.0</ele><time>2026-05-03T09:31:27.145Z</time></trkpt><trkpt lat="43.0714595" lon="12.1640019"><ele>518.4</ele><time>2026-05-03T09:31:28.143Z</time></trkpt><trkpt lat="43.0715007" lon="12.1641176"><ele>518.8</ele><time>2026-05-03T09:31:29.141Z</time></trkpt><trkpt lat="43.0715354" lon="12.1642194"><ele>519.2</ele><time>2026-05-03T09:31:30.138Z</time></trkpt><trkpt lat="43.0715893" lon="12.1643102"><ele>519.6</ele><time>2026-05-03T09:31:31.136Z</time></trkpt><trkpt lat="43.0716765" lon="12.1644029"><ele>520.0</ele><time>2026-05-03T09:31:32.129Z</time></trkpt><trkpt lat="43.0717709" lon="12.1644627"><ele>520.0</ele><time>2026-05-03T09:31:33.133Z</time></trkpt><trkpt lat="43.0718511" lon="12.1645243"><ele>520.0</ele><time>2026-05-03T09:31:34.143Z</time></trkpt><trkpt lat="43.0718956" lon="12.1645978"><ele>520.0</ele><time>2026-05-03T09:31:35.141Z</time></trkpt><trkpt lat="43.0719126" lon="12.1646965"><ele>520.0</ele><time>2026-05-03T09:31:36.144Z</time></trkpt><trkpt lat="43.0719133" lon="12.1648148"><ele>520.0</ele><time>2026-05-03T09:31:37.145Z</time></trkpt><trkpt lat="43.0718993" lon="12.1649163"><ele>520.0</ele><time>2026-05-03T09:31:38.151Z</time></trkpt><trkpt lat="43.071879" lon="12.165039"><ele>522.8</ele><time>2026-05-03T09:31:40.15Z</time></trkpt><trkpt lat="43.0718002" lon="12.1651292"><ele>525.6</ele><time>2026-05-03T09:31:49.153Z</time></trkpt><trkpt lat="43.0717282" lon="12.1651755"><ele>528.4</ele><time>2026-05-03T09:31:50.14Z</time></trkpt><trkpt lat="43.0716519" lon="12.1652197"><ele>531.2</ele><time>2026-05-03T09:31:51.138Z</time></trkpt><trkpt lat="43.0715588" lon="12.1652707"><ele>534.0</ele><time>2026-05-03T09:31:52.139Z</time></trkpt><trkpt lat="43.0714548" lon="12.1653166"><ele>536.8</ele><time>2026-05-03T09:31:53.14Z</time></trkpt><trkpt lat="43.0713708" lon="12.1653628"><ele>539.5999999999999</ele><time>2026-05-03T09:31:54.145Z</time></trkpt><trkpt lat="43.0712717" lon="12.1654107"><ele>542.4</ele><time>2026-05-03T09:31:55.146Z</time></trkpt><trkpt lat="43.0711668" lon="12.1654452"><ele>545.1999999999999</ele><time>2026-05-03T09:31:56.146Z</time></trkpt><trkpt lat="43.0710523" lon="12.165489"><ele>548.0</ele><time>2026-05-03T09:31:57.143Z</time></trkpt><trkpt lat="43.0709376" lon="12.1655272"><ele>548.0</ele><time>2026-05-03T09:31:58.148Z</time></trkpt><trkpt lat="43.0708243" lon="12.1655622"><ele>548.0</ele><time>2026-05-03T09:31:59.144Z</time></trkpt><trkpt lat="43.0707259" lon="12.1656169"><ele>548.0</ele><time>2026-05-03T09:32:00.144Z</time></trkpt><trkpt lat="43.0706318" lon="12.1656748"><ele>548.0</ele><time>2026-05-03T09:32:01.142Z</time></trkpt><trkpt lat="43.070551" lon="12.16574"><ele>548.0</ele><time>2026-05-03T09:32:02.142Z</time></trkpt><trkpt lat="43.070492" lon="12.1657935"><ele>550.0</ele><time>2026-05-03T09:32:03.141Z</time></trkpt><trkpt lat="43.0704356" lon="12.1658714"><ele>552.0</ele><time>2026-05-03T09:32:04.147Z</time></trkpt><trkpt lat="43.0703815" lon="12.1659641"><ele>554.0</ele><time>2026-05-03T09:32:05.146Z</time></trkpt><trkpt lat="43.0703165" lon="12.1660525"><ele>556.0</ele><time>2026-05-03T09:32:06.146Z</time></trkpt><trkpt lat="43.070244" lon="12.1661352"><ele>558.0</ele><time>2026-05-03T09:32:07.148Z</time></trkpt><trkpt lat="43.0701663" lon="12.1662053"><ele>560.0</ele><time>2026-05-03T09:32:08.146Z</time></trkpt><trkpt lat="43.0700818" lon="12.1662622"><ele>560.0</ele><time>2026-05-03T09:32:09.145Z</time></trkpt><trkpt lat="43.069991" lon="12.1663089"><ele>560.0</ele><time>2026-05-03T09:32:10.147Z</time></trkpt><trkpt lat="43.0699113" lon="12.1663409"><ele>560.0</ele><time>2026-05-03T09:32:11.154Z</time></trkpt><trkpt lat="43.0698511" lon="12.1663725"><ele>560.0</ele><time>2026-05-03T09:32:12.151Z</time></trkpt><trkpt lat="43.069887" lon="12.1664541"><ele>560.0</ele><time>2026-05-03T09:32:16.158Z</time></trkpt><trkpt lat="43.0699826" lon="12.1664628"><ele>560.0</ele><time>2026-05-03T09:32:22.164Z</time></trkpt><trkpt lat="43.0701083" lon="12.1665441"><ele>562.8</ele><time>2026-05-03T09:32:24.154Z</time></trkpt><trkpt lat="43.0701866" lon="12.1666053"><ele>565.6</ele><time>2026-05-03T09:32:25.146Z</time></trkpt><trkpt lat="43.0702718" lon="12.1666589"><ele>568.4</ele><time>2026-05-03T09:32:26.147Z</time></trkpt><trkpt lat="43.0703599" lon="12.1667016"><ele>571.2</ele><time>2026-05-03T09:32:27.144Z</time></trkpt><trkpt lat="43.0704559" lon="12.1667505"><ele>574.0</ele><time>2026-05-03T09:32:28.145Z</time></trkpt><trkpt lat="43.0705438" lon="12.1668056"><ele>574.0</ele><time>2026-05-03T09:32:29.146Z</time></trkpt><trkpt lat="43.0706281" lon="12.1668603"><ele>574.0</ele><time>2026-05-03T09:32:30.141Z</time></trkpt><trkpt lat="43.0707085" lon="12.1669257"><ele>574.0</ele><time>2026-05-03T09:32:31.146Z</time></trkpt><trkpt lat="43.0707741" lon="12.1669982"><ele>574.0</ele><time>2026-05-03T09:32:32.141Z</time></trkpt><trkpt lat="43.0708445" lon="12.1670691"><ele>574.0</ele><time>2026-05-03T09:32:33.14Z</time></trkpt><trkpt lat="43.0709152" lon="12.1671388"><ele>574.0</ele><time>2026-05-03T09:32:34.145Z</time></trkpt><trkpt lat="43.070997" lon="12.1672015"><ele>573.3333333333334</ele><time>2026-05-03T09:32:35.138Z</time></trkpt><trkpt lat="43.0710668" lon="12.1672583"><ele>572.6666666666667</ele><time>2026-05-03T09:32:36.142Z</time></trkpt><trkpt lat="43.0711295" lon="12.1673173"><ele>572.0</ele><time>2026-05-03T09:32:37.143Z</time></trkpt><trkpt lat="43.0711919" lon="12.167386"><ele>571.3333333333334</ele><time>2026-05-03T09:32:38.145Z</time></trkpt><trkpt lat="43.0712557" lon="12.1674865"><ele>570.6666666666666</ele><time>2026-05-03T09:32:39.147Z</time></trkpt><trkpt lat="43.0713264" lon="12.1675945"><ele>570.0</ele><time>2026-05-03T09:32:40.146Z</time></trkpt><trkpt lat="43.0713922" lon="12.1677124"><ele>570.4</ele><time>2026-05-03T09:32:41.146Z</time></trkpt><trkpt lat="43.0714546" lon="12.1678232"><ele>570.8</ele><time>2026-05-03T09:32:42.146Z</time></trkpt><trkpt lat="43.0715084" lon="12.1679248"><ele>571.2</ele><time>2026-05-03T09:32:43.147Z</time></trkpt><trkpt lat="43.0715504" lon="12.1680114"><ele>571.6</ele><time>2026-05-03T09:32:44.151Z</time></trkpt><trkpt lat="43.0715799" lon="12.1680907"><ele>572.0</ele><time>2026-05-03T09:32:45.149Z</time></trkpt><trkpt lat="43.0715928" lon="12.1682689"><ele>572.0</ele><time>2026-05-03T09:32:47.15Z</time></trkpt><trkpt lat="43.0715779" lon="12.1683848"><ele>572.0</ele><time>2026-05-03T09:32:48.157Z</time></trkpt><trkpt lat="43.0715501" lon="12.1684996"><ele>572.0</ele><time>2026-05-03T09:32:49.154Z</time></trkpt><trkpt lat="43.0715123" lon="12.1685991"><ele>572.0</ele><time>2026-05-03T09:32:50.156Z</time></trkpt><trkpt lat="43.0714719" lon="12.1686891"><ele>572.0</ele><time>2026-05-03T09:32:51.161Z</time></trkpt><trkpt lat="43.0714421" lon="12.1687791"><ele>572.0</ele><time>2026-05-03T09:32:52.16Z</time></trkpt><trkpt lat="43.0714531" lon="12.1689517"><ele>571.6666666666666</ele><time>2026-05-03T09:32:54.161Z</time></trkpt><trkpt lat="43.0714883" lon="12.1690383"><ele>571.3333333333333</ele><time>2026-05-03T09:32:55.162Z</time></trkpt><trkpt lat="43.071537" lon="12.1691201"><ele>571.0</ele><time>2026-05-03T09:32:56.155Z</time></trkpt><trkpt lat="43.071597" lon="12.1691962"><ele>570.6666666666666</ele><time>2026-05-03T09:32:57.162Z</time></trkpt><trkpt lat="43.0716578" lon="12.1692609"><ele>570.3333333333334</ele><time>2026-05-03T09:32:58.158Z</time></trkpt><trkpt lat="43.071721" lon="12.1693136"><ele>570.0</ele><time>2026-05-03T09:32:59.153Z</time></trkpt><trkpt lat="43.0717793" lon="12.1693645"><ele>570.0</ele><time>2026-05-03T09:33:00.15Z</time></trkpt><trkpt lat="43.0718273" lon="12.16944"><ele>570.0</ele><time>2026-05-03T09:33:01.154Z</time></trkpt><trkpt lat="43.071856" lon="12.1695445"><ele>570.0</ele><time>2026-05-03T09:33:02.151Z</time></trkpt><trkpt lat="43.0718832" lon="12.1696648"><ele>570.0</ele><time>2026-05-03T09:33:03.157Z</time></trkpt><trkpt lat="43.0719135" lon="12.1697831"><ele>570.0</ele><time>2026-05-03T09:33:04.155Z</time></trkpt><trkpt lat="43.071945" lon="12.1698974"><ele>570.0</ele><time>2026-05-03T09:33:05.146Z</time></trkpt><trkpt lat="43.0719818" lon="12.1700054"><ele>567.6666666666666</ele><time>2026-05-03T09:33:06.161Z</time></trkpt><trkpt lat="43.0720307" lon="12.170098"><ele>565.3333333333334</ele><time>2026-05-03T09:33:07.148Z</time></trkpt><trkpt lat="43.0720783" lon="12.1701801"><ele>563.0</ele><time>2026-05-03T09:33:08.148Z</time></trkpt><trkpt lat="43.0721214" lon="12.1702636"><ele>560.6666666666667</ele><time>2026-05-03T09:33:09.151Z</time></trkpt><trkpt lat="43.0721606" lon="12.1703458"><ele>558.3333333333334</ele><time>2026-05-03T09:33:10.153Z</time></trkpt><trkpt lat="43.0722024" lon="12.1704165"><ele>556.0</ele><time>2026-05-03T09:33:11.151Z</time></trkpt><trkpt lat="43.072256" lon="12.1704945"><ele>556.0</ele><time>2026-05-03T09:33:12.148Z</time></trkpt><trkpt lat="43.0723326" lon="12.1705954"><ele>556.0</ele><time>2026-05-03T09:33:13.152Z</time></trkpt><trkpt lat="43.0724076" lon="12.1706825"><ele>556.0</ele><time>2026-05-03T09:33:14.153Z</time></trkpt><trkpt lat="43.0724802" lon="12.1707607"><ele>556.0</ele><time>2026-05-03T09:33:15.159Z</time></trkpt><trkpt lat="43.0725595" lon="12.1708241"><ele>556.0</ele><time>2026-05-03T09:33:16.158Z</time></trkpt><trkpt lat="43.0726507" lon="12.1708667"><ele>555.2</ele><time>2026-05-03T09:33:17.171Z</time></trkpt><trkpt lat="43.0727436" lon="12.1709094"><ele>554.4000000000001</ele><time>2026-05-03T09:33:18.153Z</time></trkpt><trkpt lat="43.072836" lon="12.1709734"><ele>553.6</ele><time>2026-05-03T09:33:19.155Z</time></trkpt><trkpt lat="43.0729274" lon="12.1710372"><ele>552.8000000000001</ele><time>2026-05-03T09:33:20.156Z</time></trkpt><trkpt lat="43.0730205" lon="12.1711019"><ele>552.0</ele><time>2026-05-03T09:33:21.152Z</time></trkpt><trkpt lat="43.0731152" lon="12.1711644"><ele>552.0</ele><time>2026-05-03T09:33:22.155Z</time></trkpt><trkpt lat="43.0732065" lon="12.1712451"><ele>552.0</ele><time>2026-05-03T09:33:23.155Z</time></trkpt><trkpt lat="43.0732947" lon="12.1713291"><ele>552.0</ele><time>2026-05-03T09:33:24.159Z</time></trkpt><trkpt lat="43.0733793" lon="12.1713965"><ele>552.0</ele><time>2026-05-03T09:33:25.157Z</time></trkpt><trkpt lat="43.0734637" lon="12.1714693"><ele>552.0</ele><time>2026-05-03T09:33:26.156Z</time></trkpt><trkpt lat="43.0735386" lon="12.171529"><ele>551.1666666666666</ele><time>2026-05-03T09:33:27.154Z</time></trkpt><trkpt lat="43.0736106" lon="12.1715834"><ele>550.3333333333334</ele><time>2026-05-03T09:33:28.16Z</time></trkpt><trkpt lat="43.0736766" lon="12.1716279"><ele>549.5</ele><time>2026-05-03T09:33:29.152Z</time></trkpt><trkpt lat="43.0737799" lon="12.1717132"><ele>548.6666666666667</ele><time>2026-05-03T09:33:31.154Z</time></trkpt><trkpt lat="43.0738344" lon="12.1717616"><ele>547.8333333333334</ele><time>2026-05-03T09:33:32.147Z</time></trkpt><trkpt lat="43.0739001" lon="12.1718119"><ele>547.0</ele><time>2026-05-03T09:33:33.149Z</time></trkpt><trkpt lat="43.0739751" lon="12.1718659"><ele>547.0</ele><time>2026-05-03T09:33:34.157Z</time></trkpt><trkpt lat="43.0740538" lon="12.1719219"><ele>547.0</ele><time>2026-05-03T09:33:35.152Z</time></trkpt><trkpt lat="43.0741299" lon="12.1719894"><ele>547.0</ele><time>2026-05-03T09:33:36.159Z</time></trkpt><trkpt lat="43.0741934" lon="12.1720505"><ele>547.0</ele><time>2026-05-03T09:33:37.155Z</time></trkpt><trkpt lat="43.0742999" lon="12.1721043"><ele>547.0</ele><time>2026-05-03T09:33:39.158Z</time></trkpt><trkpt lat="43.0743643" lon="12.1721034"><ele>547.0</ele><time>2026-05-03T09:33:40.163Z</time></trkpt><trkpt lat="43.0744886" lon="12.172119"><ele>546.1666666666667</ele><time>2026-05-03T09:33:42.158Z</time></trkpt><trkpt lat="43.0745592" lon="12.1721578"><ele>545.3333333333334</ele><time>2026-05-03T09:33:43.158Z</time></trkpt><trkpt lat="43.0746305" lon="12.172196"><ele>544.5</ele><time>2026-05-03T09:33:44.163Z</time></trkpt><trkpt lat="43.0746953" lon="12.1722408"><ele>543.6666666666666</ele><time>2026-05-03T09:33:45.157Z</time></trkpt><trkpt lat="43.0747614" lon="12.172281"><ele>542.8333333333333</ele><time>2026-05-03T09:33:46.154Z</time></trkpt><trkpt lat="43.0748706" lon="12.1723353"><ele>542.0</ele><time>2026-05-03T09:33:48.163Z</time></trkpt><trkpt lat="43.074966" lon="12.1723564"><ele>539.0</ele><time>2026-05-03T09:33:50.157Z</time></trkpt><trkpt lat="43.0750628" lon="12.172356"><ele>536.0</ele><time>2026-05-03T09:33:52.165Z</time></trkpt><trkpt lat="43.075156" lon="12.1724358"><ele>533.0</ele><time>2026-05-03T09:33:54.156Z</time></trkpt><trkpt lat="43.075216" lon="12.1725889"><ele>530.0</ele><time>2026-05-03T09:33:56.158Z</time></trkpt><trkpt lat="43.0752244" lon="12.1726765"><ele>527.0</ele><time>2026-05-03T09:33:57.161Z</time></trkpt><trkpt lat="43.0752241" lon="12.172763"><ele>527.0</ele><time>2026-05-03T09:33:58.161Z</time></trkpt><trkpt lat="43.0751741" lon="12.1728765"><ele>527.0</ele><time>2026-05-03T09:34:00.174Z</time></trkpt><trkpt lat="43.0750874" lon="12.1729764"><ele>527.0</ele><time>2026-05-03T09:34:02.165Z</time></trkpt><trkpt lat="43.0750403" lon="12.1730344"><ele>527.0</ele><time>2026-05-03T09:34:03.157Z</time></trkpt><trkpt lat="43.0749421" lon="12.1731362"><ele>527.0</ele><time>2026-05-03T09:34:05.158Z</time></trkpt><trkpt lat="43.0748357" lon="12.1732406"><ele>524.0</ele><time>2026-05-03T09:34:07.157Z</time></trkpt><trkpt lat="43.0747798" lon="12.1732876"><ele>521.0</ele><time>2026-05-03T09:34:08.155Z</time></trkpt><trkpt lat="43.0747246" lon="12.1733326"><ele>518.0</ele><time>2026-05-03T09:34:09.158Z</time></trkpt><trkpt lat="43.0746325" lon="12.1734006"><ele>515.0</ele><time>2026-05-03T09:34:11.16Z</time></trkpt><trkpt lat="43.0745633" lon="12.1734298"><ele>511.99999999999994</ele><time>2026-05-03T09:34:13.175Z</time></trkpt><trkpt lat="43.0745901" lon="12.1735244"><ele>509.0</ele><time>2026-05-03T09:34:18.172Z</time></trkpt><trkpt lat="43.0746589" lon="12.1735586"><ele>509.0</ele><time>2026-05-03T09:34:20.164Z</time></trkpt><trkpt lat="43.07476" lon="12.1736055"><ele>509.0</ele><time>2026-05-03T09:34:22.171Z</time></trkpt><trkpt lat="43.0748584" lon="12.1736552"><ele>509.0</ele><time>2026-05-03T09:34:24.167Z</time></trkpt><trkpt lat="43.0749527" lon="12.1737075"><ele>509.0</ele><time>2026-05-03T09:34:26.167Z</time></trkpt><trkpt lat="43.0750297" lon="12.1737344"><ele>509.0</ele><time>2026-05-03T09:34:28.172Z</time></trkpt><trkpt lat="43.0751004" lon="12.1737341"><ele>508.66666666666663</ele><time>2026-05-03T09:34:32.167Z</time></trkpt><trkpt lat="43.0751433" lon="12.1738248"><ele>508.3333333333333</ele><time>2026-05-03T09:34:35.171Z</time></trkpt><trkpt lat="43.0751518" lon="12.1739137"><ele>508.0</ele><time>2026-05-03T09:34:37.17Z</time></trkpt><trkpt lat="43.0751361" lon="12.1740333"><ele>507.66666666666663</ele><time>2026-05-03T09:34:39.165Z</time></trkpt><trkpt lat="43.075106" lon="12.174155"><ele>507.3333333333333</ele><time>2026-05-03T09:34:41.166Z</time></trkpt><trkpt lat="43.075087" lon="12.1742685"><ele>507.0</ele><time>2026-05-03T09:34:43.161Z</time></trkpt><trkpt lat="43.0750955" lon="12.1743675"><ele>502.6666666666667</ele><time>2026-05-03T09:34:45.163Z</time></trkpt><trkpt lat="43.0751301" lon="12.1744985"><ele>498.33333333333337</ele><time>2026-05-03T09:34:47.148Z</time></trkpt><trkpt lat="43.0751669" lon="12.1745772"><ele>494.0</ele><time>2026-05-03T09:34:48.15Z</time></trkpt><trkpt lat="43.0752141" lon="12.1746567"><ele>489.6666666666667</ele><time>2026-05-03T09:34:49.151Z</time></trkpt><trkpt lat="43.0752881" lon="12.1747751"><ele>485.33333333333337</ele><time>2026-05-03T09:34:51.15Z</time></trkpt><trkpt lat="43.075346" lon="12.1748605"><ele>481.0</ele><time>2026-05-03T09:34:53.16Z</time></trkpt><trkpt lat="43.0753718" lon="12.1749576"><ele>477.83333333333337</ele><time>2026-05-03T09:34:55.163Z</time></trkpt><trkpt lat="43.075364" lon="12.1750617"><ele>474.6666666666667</ele><time>2026-05-03T09:34:57.169Z</time></trkpt><trkpt lat="43.0753253" lon="12.1751557"><ele>471.5</ele><time>2026-05-03T09:34:59.169Z</time></trkpt><trkpt lat="43.0752657" lon="12.1752297"><ele>468.33333333333337</ele><time>2026-05-03T09:35:01.171Z</time></trkpt><trkpt lat="43.0752032" lon="12.1752619"><ele>465.1666666666667</ele><time>2026-05-03T09:35:03.172Z</time></trkpt><trkpt lat="43.0752243" lon="12.1753674"><ele>462.0</ele><time>2026-05-03T09:35:06.169Z</time></trkpt><trkpt lat="43.0752742" lon="12.1754816"><ele>462.0</ele><time>2026-05-03T09:35:08.168Z</time></trkpt><trkpt lat="43.0753551" lon="12.1755679"><ele>462.00000000000006</ele><time>2026-05-03T09:35:10.158Z</time></trkpt><trkpt lat="43.0754552" lon="12.175623"><ele>462.00000000000006</ele><time>2026-05-03T09:35:12.156Z</time></trkpt><trkpt lat="43.0755529" lon="12.1756691"><ele>462.0</ele><time>2026-05-03T09:35:14.155Z</time></trkpt><trkpt lat="43.0756173" lon="12.1757164"><ele>462.0</ele><time>2026-05-03T09:35:16.164Z</time></trkpt><trkpt lat="43.0756408" lon="12.1758187"><ele>459.5</ele><time>2026-05-03T09:36:28.176Z</time></trkpt><trkpt lat="43.0755736" lon="12.1758826"><ele>457.0</ele><time>2026-05-03T09:36:30.171Z</time></trkpt><trkpt lat="43.0755009" lon="12.1759401"><ele>454.5</ele><time>2026-05-03T09:36:32.165Z</time></trkpt><trkpt lat="43.0754219" lon="12.17598"><ele>452.0</ele><time>2026-05-03T09:36:34.168Z</time></trkpt><trkpt lat="43.075347" lon="12.1760147"><ele>449.5</ele><time>2026-05-03T09:36:36.155Z</time></trkpt><trkpt lat="43.0752767" lon="12.176047"><ele>447.0</ele><time>2026-05-03T09:36:38.16Z</time></trkpt><trkpt lat="43.0751941" lon="12.1760842"><ele>446.99999999999994</ele><time>2026-05-03T09:36:40.157Z</time></trkpt><trkpt lat="43.0751261" lon="12.1761389"><ele>447.0</ele><time>2026-05-03T09:36:42.158Z</time></trkpt><trkpt lat="43.0750789" lon="12.176204"><ele>447.0</ele><time>2026-05-03T09:36:44.161Z</time></trkpt><trkpt lat="43.0750511" lon="12.1763208"><ele>447.0</ele><time>2026-05-03T09:36:47.157Z</time></trkpt><trkpt lat="43.0750208" lon="12.1764034"><ele>447.0</ele><time>2026-05-03T09:36:49.162Z</time></trkpt><trkpt lat="43.0749643" lon="12.1764686"><ele>446.99999999999994</ele><time>2026-05-03T09:36:51.161Z</time></trkpt><trkpt lat="43.0748974" lon="12.1764768"><ele>447.0</ele><time>2026-05-03T09:36:53.158Z</time></trkpt><trkpt lat="43.0748173" lon="12.1764392"><ele>444.6666666666667</ele><time>2026-05-03T09:36:56.158Z</time></trkpt><trkpt lat="43.0747416" lon="12.1764424"><ele>442.33333333333337</ele><time>2026-05-03T09:36:59.158Z</time></trkpt><trkpt lat="43.0746677" lon="12.1764693"><ele>440.0</ele><time>2026-05-03T09:37:02.155Z</time></trkpt><trkpt lat="43.0745848" lon="12.1765234"><ele>437.6666666666667</ele><time>2026-05-03T09:37:05.154Z</time></trkpt><trkpt lat="43.0745091" lon="12.1765546"><ele>435.33333333333337</ele><time>2026-05-03T09:37:08.152Z</time></trkpt><trkpt lat="43.0744189" lon="12.1765591"><ele>433.0</ele><time>2026-05-03T09:37:11.157Z</time></trkpt><trkpt lat="43.0743399" lon="12.1765367"><ele>433.00000000000006</ele><time>2026-05-03T09:37:13.155Z</time></trkpt><trkpt lat="43.0742596" lon="12.1765069"><ele>433.0</ele><time>2026-05-03T09:37:15.156Z</time></trkpt><trkpt lat="43.0741904" lon="12.176466"><ele>433.0</ele><time>2026-05-03T09:37:17.157Z</time></trkpt><trkpt lat="43.074129" lon="12.1764272"><ele>433.0</ele><time>2026-05-03T09:37:19.155Z</time></trkpt><trkpt lat="43.074048" lon="12.1763812"><ele>433.00000000000006</ele><time>2026-05-03T09:37:22.159Z</time></trkpt><trkpt lat="43.0739666" lon="12.1763521"><ele>433.0</ele><time>2026-05-03T09:37:25.167Z</time></trkpt><trkpt lat="43.0739009" lon="12.1763361"><ele>433.50000000000006</ele><time>2026-05-03T09:37:27.152Z</time></trkpt><trkpt lat="43.0738114" lon="12.1763655"><ele>434.0</ele><time>2026-05-03T09:37:30.152Z</time></trkpt><trkpt lat="43.0737565" lon="12.1764349"><ele>434.5</ele><time>2026-05-03T09:37:32.148Z</time></trkpt><trkpt lat="43.0737096" lon="12.1765088"><ele>435.0</ele><time>2026-05-03T09:37:34.157Z</time></trkpt><trkpt lat="43.0736533" lon="12.1765887"><ele>435.50000000000006</ele><time>2026-05-03T09:37:36.152Z</time></trkpt><trkpt lat="43.0735837" lon="12.1766877"><ele>436.0</ele><time>2026-05-03T09:37:38.13Z</time></trkpt><trkpt lat="43.0734669" lon="12.1767438"><ele>431.50000000000006</ele><time>2026-05-03T09:37:40.141Z</time></trkpt><trkpt lat="43.0733861" lon="12.1767546"><ele>427.0</ele><time>2026-05-03T09:37:41.139Z</time></trkpt><trkpt lat="43.0733126" lon="12.176758"><ele>422.5</ele><time>2026-05-03T09:37:42.144Z</time></trkpt><trkpt lat="43.0732344" lon="12.1767585"><ele>418.0</ele><time>2026-05-03T09:37:43.141Z</time></trkpt><trkpt lat="43.073147" lon="12.1767557"><ele>413.50000000000006</ele><time>2026-05-03T09:37:44.145Z</time></trkpt><trkpt lat="43.0730548" lon="12.1767528"><ele>409.0</ele><time>2026-05-03T09:37:45.144Z</time></trkpt><trkpt lat="43.072968" lon="12.1767545"><ele>407.83333333333337</ele><time>2026-05-03T09:37:46.145Z</time></trkpt><trkpt lat="43.0728843" lon="12.1767479"><ele>406.6666666666667</ele><time>2026-05-03T09:37:47.145Z</time></trkpt><trkpt lat="43.0728027" lon="12.1767408"><ele>405.5</ele><time>2026-05-03T09:37:48.144Z</time></trkpt><trkpt lat="43.0727272" lon="12.176728"><ele>404.33333333333337</ele><time>2026-05-03T09:37:49.143Z</time></trkpt><trkpt lat="43.0726517" lon="12.1767133"><ele>403.1666666666667</ele><time>2026-05-03T09:37:50.146Z</time></trkpt><trkpt lat="43.0725826" lon="12.1767017"><ele>402.0</ele><time>2026-05-03T09:37:51.144Z</time></trkpt><trkpt lat="43.0725153" lon="12.1766874"><ele>402.0</ele><time>2026-05-03T09:37:52.145Z</time></trkpt><trkpt lat="43.0724459" lon="12.1766713"><ele>402.0</ele><time>2026-05-03T09:37:53.146Z</time></trkpt><trkpt lat="43.0723833" lon="12.1766423"><ele>402.0</ele><time>2026-05-03T09:37:54.145Z</time></trkpt><trkpt lat="43.0722849" lon="12.17657"><ele>402.0</ele><time>2026-05-03T09:37:56.152Z</time></trkpt><trkpt lat="43.0722153" lon="12.1765326"><ele>402.0</ele><time>2026-05-03T09:37:58.157Z</time></trkpt><trkpt lat="43.0721726" lon="12.1766505"><ele>402.0</ele><time>2026-05-03T09:38:01.148Z</time></trkpt><trkpt lat="43.0721444" lon="12.1767758"><ele>405.0</ele><time>2026-05-03T09:38:03.154Z</time></trkpt><trkpt lat="43.0720903" lon="12.1769369"><ele>408.0</ele><time>2026-05-03T09:38:05.141Z</time></trkpt><trkpt lat="43.0720207" lon="12.1770682"><ele>411.0</ele><time>2026-05-03T09:38:07.141Z</time></trkpt><trkpt lat="43.0719714" lon="12.1771271"><ele>414.0</ele><time>2026-05-03T09:38:08.144Z</time></trkpt><trkpt lat="43.0719208" lon="12.1771799"><ele>417.0</ele><time>2026-05-03T09:38:09.144Z</time></trkpt><trkpt lat="43.0718345" lon="12.1772787"><ele>414.6</ele><time>2026-05-03T09:38:11.145Z</time></trkpt><trkpt lat="43.0717628" lon="12.177391"><ele>412.20000000000005</ele><time>2026-05-03T09:38:13.144Z</time></trkpt><trkpt lat="43.0717089" lon="12.177515"><ele>409.8</ele><time>2026-05-03T09:38:15.149Z</time></trkpt><trkpt lat="43.0716275" lon="12.1775742"><ele>407.4</ele><time>2026-05-03T09:38:22.153Z</time></trkpt><trkpt lat="43.0715754" lon="12.1776334"><ele>405.0</ele><time>2026-05-03T09:38:24.154Z</time></trkpt><trkpt lat="43.0715138" lon="12.1777247"><ele>405.0</ele><time>2026-05-03T09:38:26.15Z</time></trkpt><trkpt lat="43.0714352" lon="12.1778347"><ele>405.0</ele><time>2026-05-03T09:38:28.145Z</time></trkpt><trkpt lat="43.0713958" lon="12.1779048"><ele>405.0</ele><time>2026-05-03T09:38:29.146Z</time></trkpt><trkpt lat="43.0713222" lon="12.1780122"><ele>405.0</ele><time>2026-05-03T09:38:31.145Z</time></trkpt><trkpt lat="43.071246" lon="12.178061"><ele>405.0</ele><time>2026-05-03T09:38:33.157Z</time></trkpt><trkpt lat="43.0711476" lon="12.1780929"><ele>405.0</ele><time>2026-05-03T09:38:35.156Z</time></trkpt><trkpt lat="43.0710832" lon="12.178094"><ele>405.0</ele><time>2026-05-03T09:38:36.149Z</time></trkpt><trkpt lat="43.0710099" lon="12.1780977"><ele>405.0</ele><time>2026-05-03T09:38:41.165Z</time></trkpt><trkpt lat="43.0709444" lon="12.1781027"><ele>405.0</ele><time>2026-05-03T09:38:44.16Z</time></trkpt><trkpt lat="43.0708864" lon="12.1781439"><ele>405.0</ele><time>2026-05-03T09:38:46.161Z</time></trkpt><trkpt lat="43.070807" lon="12.1782059"><ele>405.0</ele><time>2026-05-03T09:38:48.161Z</time></trkpt><trkpt lat="43.0707295" lon="12.1782764"><ele>400.8333333333333</ele><time>2026-05-03T09:38:50.152Z</time></trkpt><trkpt lat="43.0706412" lon="12.1783671"><ele>396.6666666666667</ele><time>2026-05-03T09:38:52.143Z</time></trkpt><trkpt lat="43.0705825" lon="12.1784251"><ele>392.5</ele><time>2026-05-03T09:38:53.145Z</time></trkpt><trkpt lat="43.0705235" lon="12.1784789"><ele>388.33333333333337</ele><time>2026-05-03T09:38:54.143Z</time></trkpt><trkpt lat="43.0704663" lon="12.1785266"><ele>384.1666666666667</ele><time>2026-05-03T09:38:55.148Z</time></trkpt><trkpt lat="43.0703654" lon="12.1786204"><ele>380.0</ele><time>2026-05-03T09:38:57.168Z</time></trkpt><trkpt lat="43.0702646" lon="12.1786663"><ele>380.0</ele><time>2026-05-03T09:38:59.157Z</time></trkpt><trkpt lat="43.0701483" lon="12.178661"><ele>380.0</ele><time>2026-05-03T09:39:01.149Z</time></trkpt><trkpt lat="43.0700729" lon="12.1786632"><ele>380.0</ele><time>2026-05-03T09:39:03.157Z</time></trkpt><trkpt lat="43.0699901" lon="12.1786799"><ele>380.0</ele><time>2026-05-03T09:39:06.152Z</time></trkpt><trkpt lat="43.0699349" lon="12.1787399"><ele>380.0</ele><time>2026-05-03T09:39:08.148Z</time></trkpt><trkpt lat="43.0698942" lon="12.1788073"><ele>380.0</ele><time>2026-05-03T09:39:10.147Z</time></trkpt><trkpt lat="43.0698637" lon="12.1788928"><ele>375.1666666666667</ele><time>2026-05-03T09:39:12.162Z</time></trkpt><trkpt lat="43.0698641" lon="12.1790251"><ele>370.33333333333337</ele><time>2026-05-03T09:39:15.158Z</time></trkpt><trkpt lat="43.0698511" lon="12.1791332"><ele>365.5</ele><time>2026-05-03T09:39:17.16Z</time></trkpt><trkpt lat="43.0698404" lon="12.1792558"><ele>360.6666666666667</ele><time>2026-05-03T09:39:19.159Z</time></trkpt><trkpt lat="43.0698473" lon="12.1793762"><ele>355.8333333333333</ele><time>2026-05-03T09:39:21.156Z</time></trkpt><trkpt lat="43.0698111" lon="12.1794703"><ele>351.0</ele><time>2026-05-03T09:39:23.157Z</time></trkpt><trkpt lat="43.0697601" lon="12.1795328"><ele>351.0</ele><time>2026-05-03T09:39:25.16Z</time></trkpt><trkpt lat="43.0697016" lon="12.1796153"><ele>351.0</ele><time>2026-05-03T09:39:28.173Z</time></trkpt><trkpt lat="43.0696809" lon="12.1797091"><ele>351.0</ele><time>2026-05-03T09:39:31.154Z</time></trkpt><trkpt lat="43.0697046" lon="12.1798032"><ele>351.0</ele><time>2026-05-03T09:39:36.16Z</time></trkpt><trkpt lat="43.0697269" lon="12.1798915"><ele>351.0</ele><time>2026-05-03T09:39:38.157Z</time></trkpt><trkpt lat="43.0697741" lon="12.1800171"><ele>351.0</ele><time>2026-05-03T09:39:40.156Z</time></trkpt><trkpt lat="43.0698233" lon="12.1801337"><ele>350.6666666666667</ele><time>2026-05-03T09:39:42.155Z</time></trkpt><trkpt lat="43.0698548" lon="12.1802202"><ele>350.3333333333333</ele><time>2026-05-03T09:39:44.156Z</time></trkpt><trkpt lat="43.0698578" lon="12.1803366"><ele>350.0</ele><time>2026-05-03T09:39:47.158Z</time></trkpt><trkpt lat="43.0699241" lon="12.1803689"><ele>349.66666666666663</ele><time>2026-05-03T09:40:06.159Z</time></trkpt><trkpt lat="43.069993" lon="12.1804546"><ele>349.3333333333333</ele><time>2026-05-03T09:40:09.169Z</time></trkpt><trkpt lat="43.0700517" lon="12.1805193"><ele>349.0</ele><time>2026-05-03T09:40:12.165Z</time></trkpt><trkpt lat="43.0700972" lon="12.1805902"><ele>349.0</ele><time>2026-05-03T09:40:15.164Z</time></trkpt><trkpt lat="43.0701559" lon="12.1806762"><ele>349.0</ele><time>2026-05-03T09:40:18.16Z</time></trkpt><trkpt lat="43.0702082" lon="12.1807372"><ele>349.0</ele><time>2026-05-03T09:40:20.162Z</time></trkpt><trkpt lat="43.070274" lon="12.1808095"><ele>349.0</ele><time>2026-05-03T09:40:22.166Z</time></trkpt><trkpt lat="43.0703255" lon="12.1809093"><ele>349.0</ele><time>2026-05-03T09:40:24.164Z</time></trkpt><trkpt lat="43.0703254" lon="12.1810381"><ele>349.0</ele><time>2026-05-03T09:40:26.162Z</time></trkpt><trkpt lat="43.0702823" lon="12.1811688"><ele>346.5</ele><time>2026-05-03T09:40:28.164Z</time></trkpt><trkpt lat="43.0702883" lon="12.1812912"><ele>344.0</ele><time>2026-05-03T09:40:30.17Z</time></trkpt><trkpt lat="43.0703329" lon="12.1813871"><ele>341.5</ele><time>2026-05-03T09:40:32.158Z</time></trkpt><trkpt lat="43.0703891" lon="12.1814787"><ele>339.0</ele><time>2026-05-03T09:40:34.161Z</time></trkpt><trkpt lat="43.0704382" lon="12.1815994"><ele>336.5</ele><time>2026-05-03T09:40:36.14Z</time></trkpt><trkpt lat="43.0704336" lon="12.181705"><ele>334.0</ele><time>2026-05-03T09:40:38.158Z</time></trkpt><trkpt lat="43.0703429" lon="12.1817905"><ele>332.0</ele><time>2026-05-03T09:40:40.153Z</time></trkpt><trkpt lat="43.0702702" lon="12.1819033"><ele>330.0</ele><time>2026-05-03T09:40:42.146Z</time></trkpt><trkpt lat="43.0701818" lon="12.1819849"><ele>328.0</ele><time>2026-05-03T09:40:44.141Z</time></trkpt><trkpt lat="43.0700792" lon="12.1820667"><ele>326.0</ele><time>2026-05-03T09:40:46.133Z</time></trkpt><trkpt lat="43.0699765" lon="12.1821428"><ele>325.0</ele><time>2026-05-03T09:40:48.138Z</time></trkpt><trkpt lat="43.069886" lon="12.1822185"><ele>324.0</ele><time>2026-05-03T09:40:50.152Z</time></trkpt><trkpt lat="43.0698113" lon="12.1823398"><ele>323.0</ele><time>2026-05-03T09:40:52.141Z</time></trkpt><trkpt lat="43.0697734" lon="12.1824146"><ele>322.0</ele><time>2026-05-03T09:40:53.139Z</time></trkpt><trkpt lat="43.0697185" lon="12.1825579"><ele>321.0</ele><time>2026-05-03T09:40:55.147Z</time></trkpt><trkpt lat="43.0696976" lon="12.1826753"><ele>320.1666666666667</ele><time>2026-05-03T09:40:57.141Z</time></trkpt><trkpt lat="43.0696865" lon="12.1827624"><ele>319.3333333333333</ele><time>2026-05-03T09:40:59.156Z</time></trkpt><trkpt lat="43.0696659" lon="12.1828508"><ele>318.5</ele><time>2026-05-03T09:41:01.165Z</time></trkpt><trkpt lat="43.069619" lon="12.1829688"><ele>317.66666666666663</ele><time>2026-05-03T09:41:03.153Z</time></trkpt><trkpt lat="43.0695525" lon="12.1831193"><ele>316.8333333333333</ele><time>2026-05-03T09:41:05.136Z</time></trkpt><trkpt lat="43.069503" lon="12.1832099"><ele>316.0</ele><time>2026-05-03T09:41:06.132Z</time></trkpt><trkpt lat="43.0694484" lon="12.1833105"><ele>315.66666666666663</ele><time>2026-05-03T09:41:07.13Z</time></trkpt><trkpt lat="43.0693823" lon="12.1834093"><ele>315.3333333333333</ele><time>2026-05-03T09:41:08.133Z</time></trkpt><trkpt lat="43.0693198" lon="12.183513"><ele>315.0</ele><time>2026-05-03T09:41:09.131Z</time></trkpt><trkpt lat="43.06926" lon="12.1836015"><ele>314.6666666666667</ele><time>2026-05-03T09:41:10.137Z</time></trkpt><trkpt lat="43.0692053" lon="12.1836883"><ele>314.33333333333337</ele><time>2026-05-03T09:41:11.131Z</time></trkpt><trkpt lat="43.0691577" lon="12.1837734"><ele>314.0</ele><time>2026-05-03T09:41:12.139Z</time></trkpt><trkpt lat="43.0691198" lon="12.1838717"><ele>312.0</ele><time>2026-05-03T09:41:13.142Z</time></trkpt><trkpt lat="43.069082" lon="12.1839889"><ele>310.0</ele><time>2026-05-03T09:41:14.143Z</time></trkpt><trkpt lat="43.069041" lon="12.1841395"><ele>308.0</ele><time>2026-05-03T09:41:15.144Z</time></trkpt><trkpt lat="43.0690047" lon="12.184316"><ele>306.0</ele><time>2026-05-03T09:41:16.148Z</time></trkpt><trkpt lat="43.0689833" lon="12.1844879"><ele>304.8</ele><time>2026-05-03T09:41:17.148Z</time></trkpt><trkpt lat="43.0689541" lon="12.1846291"><ele>303.6</ele><time>2026-05-03T09:41:18.148Z</time></trkpt><trkpt lat="43.0689118" lon="12.1847528"><ele>302.4</ele><time>2026-05-03T09:41:19.147Z</time></trkpt><trkpt lat="43.0688657" lon="12.1848789"><ele>301.2</ele><time>2026-05-03T09:41:20.155Z</time></trkpt><trkpt lat="43.0688189" lon="12.1850073"><ele>300.0</ele><time>2026-05-03T09:41:21.156Z</time></trkpt><trkpt lat="43.0687824" lon="12.1851278"><ele>300.0</ele><time>2026-05-03T09:41:22.154Z</time></trkpt><trkpt lat="43.0687484" lon="12.1852357"><ele>300.0</ele><time>2026-05-03T09:41:23.156Z</time></trkpt><trkpt lat="43.0687171" lon="12.1853401"><ele>300.0</ele><time>2026-05-03T09:41:24.156Z</time></trkpt><trkpt lat="43.0686838" lon="12.1854392"><ele>300.0</ele><time>2026-05-03T09:41:25.157Z</time></trkpt><trkpt lat="43.0686518" lon="12.1855381"><ele>300.0</ele><time>2026-05-03T09:41:26.153Z</time></trkpt><trkpt lat="43.0686276" lon="12.1856326"><ele>300.0</ele><time>2026-05-03T09:41:27.158Z</time></trkpt><trkpt lat="43.06861" lon="12.1857187"><ele>300.0</ele><time>2026-05-03T09:41:28.156Z</time></trkpt><trkpt lat="43.0685999" lon="12.1858259"><ele>300.0</ele><time>2026-05-03T09:41:30.161Z</time></trkpt><trkpt lat="43.068685" lon="12.1857758"><ele>300.0</ele><time>2026-05-03T09:41:34.177Z</time></trkpt><trkpt lat="43.0687288" lon="12.1857084"><ele>300.0</ele><time>2026-05-03T09:41:35.167Z</time></trkpt><trkpt lat="43.0687778" lon="12.1856397"><ele>300.0</ele><time>2026-05-03T09:41:36.154Z</time></trkpt><trkpt lat="43.0688357" lon="12.1855778"><ele>300.0</ele><time>2026-05-03T09:41:37.153Z</time></trkpt><trkpt lat="43.0689011" lon="12.1855306"><ele>300.0</ele><time>2026-05-03T09:41:38.154Z</time></trkpt><trkpt lat="43.0689681" lon="12.1854949"><ele>300.0</ele><time>2026-05-03T09:41:39.153Z</time></trkpt><trkpt lat="43.0690456" lon="12.1854855"><ele>300.0</ele><time>2026-05-03T09:41:40.155Z</time></trkpt><trkpt lat="43.0691303" lon="12.1854818"><ele>300.0</ele><time>2026-05-03T09:41:41.155Z</time></trkpt><trkpt lat="43.0692151" lon="12.1854682"><ele>300.0</ele><time>2026-05-03T09:41:42.157Z</time></trkpt><trkpt lat="43.0692984" lon="12.1854355"><ele>300.0</ele><time>2026-05-03T09:41:43.156Z</time></trkpt><trkpt lat="43.0693823" lon="12.1853897"><ele>302.8</ele><time>2026-05-03T09:41:44.155Z</time></trkpt><trkpt lat="43.0694715" lon="12.1853405"><ele>305.6</ele><time>2026-05-03T09:41:45.152Z</time></trkpt><trkpt lat="43.0695615" lon="12.1852862"><ele>308.4</ele><time>2026-05-03T09:41:46.157Z</time></trkpt><trkpt lat="43.0696528" lon="12.1852312"><ele>311.2</ele><time>2026-05-03T09:41:47.16Z</time></trkpt><trkpt lat="43.0697475" lon="12.1851718"><ele>314.0</ele><time>2026-05-03T09:41:48.156Z</time></trkpt><trkpt lat="43.0698434" lon="12.1851083"><ele>314.0</ele><time>2026-05-03T09:41:49.162Z</time></trkpt><trkpt lat="43.0699409" lon="12.1850387"><ele>314.0</ele><time>2026-05-03T09:41:50.156Z</time></trkpt><trkpt lat="43.0700395" lon="12.1849729"><ele>314.0</ele><time>2026-05-03T09:41:51.154Z</time></trkpt><trkpt lat="43.0701356" lon="12.1849117"><ele>314.0</ele><time>2026-05-03T09:41:52.154Z</time></trkpt><trkpt lat="43.0702288" lon="12.1848574"><ele>314.0</ele><time>2026-05-03T09:41:53.155Z</time></trkpt><trkpt lat="43.0703173" lon="12.184826"><ele>316.83333333333337</ele><time>2026-05-03T09:41:54.154Z</time></trkpt><trkpt lat="43.0704041" lon="12.1848325"><ele>319.6666666666667</ele><time>2026-05-03T09:41:55.156Z</time></trkpt><trkpt lat="43.0704798" lon="12.184887"><ele>322.5</ele><time>2026-05-03T09:41:56.15Z</time></trkpt><trkpt lat="43.0705547" lon="12.1849521"><ele>325.3333333333333</ele><time>2026-05-03T09:41:57.156Z</time></trkpt><trkpt lat="43.0706317" lon="12.185008"><ele>328.16666666666663</ele><time>2026-05-03T09:41:58.158Z</time></trkpt><trkpt lat="43.0706942" lon="12.1850486"><ele>331.0</ele><time>2026-05-03T09:41:59.153Z</time></trkpt><trkpt lat="43.0707851" lon="12.1850958"><ele>334.20000000000005</ele><time>2026-05-03T09:42:01.153Z</time></trkpt><trkpt lat="43.0708549" lon="12.1850857"><ele>337.40000000000003</ele><time>2026-05-03T09:42:03.164Z</time></trkpt><trkpt lat="43.0709007" lon="12.1850248"><ele>340.6</ele><time>2026-05-03T09:42:05.168Z</time></trkpt><trkpt lat="43.0708927" lon="12.1848874"><ele>343.8</ele><time>2026-05-03T09:42:07.172Z</time></trkpt><trkpt lat="43.0708618" lon="12.1847089"><ele>347.0</ele><time>2026-05-03T09:42:09.15Z</time></trkpt><trkpt lat="43.070831" lon="12.184605"><ele>348.5</ele><time>2026-05-03T09:42:10.152Z</time></trkpt><trkpt lat="43.0707934" lon="12.1844983"><ele>350.0</ele><time>2026-05-03T09:42:11.149Z</time></trkpt><trkpt lat="43.0707522" lon="12.1843856"><ele>351.5</ele><time>2026-05-03T09:42:12.154Z</time></trkpt><trkpt lat="43.070716" lon="12.1842758"><ele>353.0</ele><time>2026-05-03T09:42:13.149Z</time></trkpt><trkpt lat="43.0706883" lon="12.1841619"><ele>354.5</ele><time>2026-05-03T09:42:14.16Z</time></trkpt><trkpt lat="43.0706706" lon="12.1840488"><ele>356.0</ele><time>2026-05-03T09:42:15.153Z</time></trkpt><trkpt lat="43.070667" lon="12.1839538"><ele>355.6</ele><time>2026-05-03T09:42:16.156Z</time></trkpt><trkpt lat="43.0707001" lon="12.1838058"><ele>355.20000000000005</ele><time>2026-05-03T09:42:18.154Z</time></trkpt><trkpt lat="43.0708018" lon="12.1837002"><ele>354.79999999999995</ele><time>2026-05-03T09:42:20.155Z</time></trkpt><trkpt lat="43.0708504" lon="12.1836394"><ele>354.4</ele><time>2026-05-03T09:42:21.159Z</time></trkpt><trkpt lat="43.0709421" lon="12.1835233"><ele>354.0</ele><time>2026-05-03T09:42:23.16Z</time></trkpt><trkpt lat="43.0709995" lon="12.1834663"><ele>354.0</ele><time>2026-05-03T09:42:24.158Z</time></trkpt><trkpt lat="43.0710732" lon="12.1834232"><ele>354.0</ele><time>2026-05-03T09:42:25.152Z</time></trkpt><trkpt lat="43.0711562" lon="12.1833976"><ele>354.0</ele><time>2026-05-03T09:42:26.154Z</time></trkpt><trkpt lat="43.0712352" lon="12.1833777"><ele>354.0</ele><time>2026-05-03T09:42:27.154Z</time></trkpt><trkpt lat="43.0713034" lon="12.183363"><ele>354.0</ele><time>2026-05-03T09:42:28.149Z</time></trkpt><trkpt lat="43.0714129" lon="12.1833593"><ele>354.0</ele><time>2026-05-03T09:42:30.151Z</time></trkpt><trkpt lat="43.0715097" lon="12.1833917"><ele>354.0</ele><time>2026-05-03T09:42:32.144Z</time></trkpt><trkpt lat="43.0716041" lon="12.183408"><ele>354.0</ele><time>2026-05-03T09:42:34.168Z</time></trkpt><trkpt lat="43.0716985" lon="12.1834406"><ele>354.0</ele><time>2026-05-03T09:42:36.154Z</time></trkpt><trkpt lat="43.0717911" lon="12.1834996"><ele>354.0</ele><time>2026-05-03T09:42:38.151Z</time></trkpt><trkpt lat="43.0719015" lon="12.1835234"><ele>354.0</ele><time>2026-05-03T09:42:40.144Z</time></trkpt><trkpt lat="43.0720052" lon="12.183538"><ele>358.0</ele><time>2026-05-03T09:42:42.14Z</time></trkpt><trkpt lat="43.072108" lon="12.1835441"><ele>362.0</ele><time>2026-05-03T09:42:44.145Z</time></trkpt><trkpt lat="43.0722195" lon="12.1834768"><ele>366.0</ele><time>2026-05-03T09:42:46.143Z</time></trkpt><trkpt lat="43.0723176" lon="12.183417"><ele>370.0</ele><time>2026-05-03T09:42:48.136Z</time></trkpt><trkpt lat="43.0724275" lon="12.1834115"><ele>374.0</ele><time>2026-05-03T09:42:50.147Z</time></trkpt><trkpt lat="43.0725198" lon="12.1834003"><ele>377.6</ele><time>2026-05-03T09:42:52.146Z</time></trkpt><trkpt lat="43.0725983" lon="12.1834087"><ele>381.2</ele><time>2026-05-03T09:42:54.16Z</time></trkpt><trkpt lat="43.0727032" lon="12.1834053"><ele>384.8</ele><time>2026-05-03T09:42:56.161Z</time></trkpt><trkpt lat="43.0728293" lon="12.1833641"><ele>388.40000000000003</ele><time>2026-05-03T09:42:58.155Z</time></trkpt><trkpt lat="43.0729008" lon="12.1833289"><ele>392.0</ele><time>2026-05-03T09:42:59.151Z</time></trkpt><trkpt lat="43.0729711" lon="12.1832759"><ele>391.99999999999994</ele><time>2026-05-03T09:43:00.149Z</time></trkpt><trkpt lat="43.0730286" lon="12.1832242"><ele>392.0</ele><time>2026-05-03T09:43:01.151Z</time></trkpt><trkpt lat="43.0731506" lon="12.1832015"><ele>392.0</ele><time>2026-05-03T09:43:03.147Z</time></trkpt><trkpt lat="43.073226" lon="12.1832198"><ele>392.0</ele><time>2026-05-03T09:43:04.158Z</time></trkpt><trkpt lat="43.0733012" lon="12.1832278"><ele>391.99999999999994</ele><time>2026-05-03T09:43:05.16Z</time></trkpt><trkpt lat="43.0733756" lon="12.1832203"><ele>392.0</ele><time>2026-05-03T09:43:06.147Z</time></trkpt><trkpt lat="43.0734359" lon="12.1831857"><ele>394.14285714285717</ele><time>2026-05-03T09:43:07.138Z</time></trkpt><trkpt lat="43.0734994" lon="12.1831525"><ele>396.2857142857143</ele><time>2026-05-03T09:43:08.137Z</time></trkpt><trkpt lat="43.0735672" lon="12.1831536"><ele>398.42857142857144</ele><time>2026-05-03T09:43:09.149Z</time></trkpt><trkpt lat="43.0736364" lon="12.1831904"><ele>400.57142857142856</ele><time>2026-05-03T09:43:10.145Z</time></trkpt><trkpt lat="43.0737136" lon="12.1832385"><ele>402.7142857142857</ele><time>2026-05-03T09:43:11.14Z</time></trkpt><trkpt lat="43.0737848" lon="12.1832501"><ele>404.8571428571429</ele><time>2026-05-03T09:43:12.148Z</time></trkpt><trkpt lat="43.0738581" lon="12.1832413"><ele>407.0</ele><time>2026-05-03T09:43:13.143Z</time></trkpt><trkpt lat="43.0739305" lon="12.1832358"><ele>407.14285714285717</ele><time>2026-05-03T09:43:14.152Z</time></trkpt><trkpt lat="43.073999" lon="12.1832343"><ele>407.2857142857143</ele><time>2026-05-03T09:43:15.149Z</time></trkpt><trkpt lat="43.0740691" lon="12.1832274"><ele>407.42857142857144</ele><time>2026-05-03T09:43:16.152Z</time></trkpt><trkpt lat="43.0741448" lon="12.1832182"><ele>407.57142857142856</ele><time>2026-05-03T09:43:17.15Z</time></trkpt><trkpt lat="43.0742138" lon="12.1832061"><ele>407.7142857142857</ele><time>2026-05-03T09:43:18.152Z</time></trkpt><trkpt lat="43.0742814" lon="12.1831882"><ele>407.8571428571429</ele><time>2026-05-03T09:43:19.154Z</time></trkpt><trkpt lat="43.0743466" lon="12.1831682"><ele>408.0</ele><time>2026-05-03T09:43:20.151Z</time></trkpt><trkpt lat="43.0744086" lon="12.1831471"><ele>410.8333333333333</ele><time>2026-05-03T09:43:21.151Z</time></trkpt><trkpt lat="43.0744721" lon="12.1831308"><ele>413.66666666666663</ele><time>2026-05-03T09:43:22.154Z</time></trkpt><trkpt lat="43.0745355" lon="12.1831267"><ele>416.5</ele><time>2026-05-03T09:43:23.149Z</time></trkpt><trkpt lat="43.0746233" lon="12.1831113"><ele>419.3333333333333</ele><time>2026-05-03T09:43:25.146Z</time></trkpt><trkpt lat="43.0746421" lon="12.1830227"><ele>422.16666666666663</ele><time>2026-05-03T09:43:27.16Z</time></trkpt><trkpt lat="43.0745917" lon="12.1828556"><ele>425.0</ele><time>2026-05-03T09:43:29.158Z</time></trkpt><trkpt lat="43.0745826" lon="12.1827674"><ele>424.99999999999994</ele><time>2026-05-03T09:43:30.147Z</time></trkpt><trkpt lat="43.0746227" lon="12.1826359"><ele>425.0</ele><time>2026-05-03T09:43:32.145Z</time></trkpt><trkpt lat="43.0746997" lon="12.1825427"><ele>425.0</ele><time>2026-05-03T09:43:34.147Z</time></trkpt><trkpt lat="43.0747977" lon="12.1824943"><ele>425.0</ele><time>2026-05-03T09:43:36.158Z</time></trkpt><trkpt lat="43.0748649" lon="12.1825029"><ele>424.99999999999994</ele><time>2026-05-03T09:43:37.148Z</time></trkpt><trkpt lat="43.0749298" lon="12.1825162"><ele>425.0</ele><time>2026-05-03T09:43:38.15Z</time></trkpt><trkpt lat="43.0749917" lon="12.182534"><ele>427.8333333333333</ele><time>2026-05-03T09:43:39.151Z</time></trkpt><trkpt lat="43.0750578" lon="12.1825643"><ele>430.66666666666663</ele><time>2026-05-03T09:43:40.155Z</time></trkpt><trkpt lat="43.0751264" lon="12.1825968"><ele>433.5</ele><time>2026-05-03T09:43:41.143Z</time></trkpt><trkpt lat="43.0752058" lon="12.1826095"><ele>436.33333333333337</ele><time>2026-05-03T09:43:42.15Z</time></trkpt><trkpt lat="43.0752922" lon="12.1825984"><ele>439.1666666666667</ele><time>2026-05-03T09:43:43.146Z</time></trkpt><trkpt lat="43.0753714" lon="12.182578"><ele>442.0</ele><time>2026-05-03T09:43:44.144Z</time></trkpt><trkpt lat="43.0754524" lon="12.1825444"><ele>442.00000000000006</ele><time>2026-05-03T09:43:45.145Z</time></trkpt><trkpt lat="43.0755243" lon="12.1824948"><ele>442.0</ele><time>2026-05-03T09:43:46.138Z</time></trkpt><trkpt lat="43.0755952" lon="12.1824474"><ele>442.0</ele><time>2026-05-03T09:43:47.138Z</time></trkpt><trkpt lat="43.0756655" lon="12.1823936"><ele>442.0</ele><time>2026-05-03T09:43:48.141Z</time></trkpt><trkpt lat="43.0757373" lon="12.1823341"><ele>442.00000000000006</ele><time>2026-05-03T09:43:49.141Z</time></trkpt><trkpt lat="43.0758148" lon="12.1822737"><ele>442.0</ele><time>2026-05-03T09:43:50.145Z</time></trkpt><trkpt lat="43.075898" lon="12.1822145"><ele>444.83333333333337</ele><time>2026-05-03T09:43:51.144Z</time></trkpt><trkpt lat="43.0759684" lon="12.1821638"><ele>447.6666666666667</ele><time>2026-05-03T09:43:52.151Z</time></trkpt><trkpt lat="43.0760911" lon="12.1821436"><ele>450.5</ele><time>2026-05-03T09:43:54.145Z</time></trkpt><trkpt lat="43.0761641" lon="12.1821598"><ele>453.33333333333337</ele><time>2026-05-03T09:43:55.155Z</time></trkpt><trkpt lat="43.0762426" lon="12.1821788"><ele>456.1666666666667</ele><time>2026-05-03T09:43:56.15Z</time></trkpt><trkpt lat="43.0763217" lon="12.1822016"><ele>459.0</ele><time>2026-05-03T09:43:57.152Z</time></trkpt><trkpt lat="43.0763902" lon="12.1822298"><ele>459.0</ele><time>2026-05-03T09:43:58.155Z</time></trkpt><trkpt lat="43.0764601" lon="12.1822575"><ele>459.0</ele><time>2026-05-03T09:43:59.159Z</time></trkpt><trkpt lat="43.076527" lon="12.1822826"><ele>459.0</ele><time>2026-05-03T09:44:00.156Z</time></trkpt><trkpt lat="43.0765877" lon="12.1823155"><ele>459.0</ele><time>2026-05-03T09:44:01.158Z</time></trkpt><trkpt lat="43.0766958" lon="12.1823904"><ele>459.0</ele><time>2026-05-03T09:44:03.153Z</time></trkpt><trkpt lat="43.0768082" lon="12.1824904"><ele>461.1666666666667</ele><time>2026-05-03T09:44:05.155Z</time></trkpt><trkpt lat="43.0768799" lon="12.1825326"><ele>463.33333333333337</ele><time>2026-05-03T09:44:06.151Z</time></trkpt><trkpt lat="43.076965" lon="12.1825599"><ele>465.5</ele><time>2026-05-03T09:44:07.158Z</time></trkpt><trkpt lat="43.0770462" lon="12.1825717"><ele>467.6666666666667</ele><time>2026-05-03T09:44:08.153Z</time></trkpt><trkpt lat="43.0771211" lon="12.1825748"><ele>469.83333333333337</ele><time>2026-05-03T09:44:09.146Z</time></trkpt><trkpt lat="43.0771946" lon="12.1825601"><ele>472.0</ele><time>2026-05-03T09:44:10.142Z</time></trkpt><trkpt lat="43.0772701" lon="12.1825356"><ele>472.00000000000006</ele><time>2026-05-03T09:44:11.14Z</time></trkpt><trkpt lat="43.0773327" lon="12.1825197"><ele>472.0</ele><time>2026-05-03T09:44:12.149Z</time></trkpt><trkpt lat="43.0773964" lon="12.1825339"><ele>472.0</ele><time>2026-05-03T09:44:14.148Z</time></trkpt><trkpt lat="43.0774121" lon="12.1826476"><ele>472.0</ele><time>2026-05-03T09:44:40.165Z</time></trkpt><trkpt lat="43.0774268" lon="12.1827326"><ele>472.00000000000006</ele><time>2026-05-03T09:44:41.155Z</time></trkpt><trkpt lat="43.0774585" lon="12.1828335"><ele>472.0</ele><time>2026-05-03T09:44:42.259Z</time></trkpt><trkpt lat="43.0775602" lon="12.1830266"><ele>472.50000000000006</ele><time>2026-05-03T09:44:44.141Z</time></trkpt><trkpt lat="43.077617" lon="12.1830996"><ele>473.0</ele><time>2026-05-03T09:44:45.141Z</time></trkpt><trkpt lat="43.0776875" lon="12.1831733"><ele>473.5</ele><time>2026-05-03T09:44:46.141Z</time></trkpt><trkpt lat="43.0777647" lon="12.1832355"><ele>474.0</ele><time>2026-05-03T09:44:47.146Z</time></trkpt><trkpt lat="43.0778433" lon="12.1832902"><ele>474.50000000000006</ele><time>2026-05-03T09:44:48.147Z</time></trkpt><trkpt lat="43.0779154" lon="12.1833348"><ele>475.0</ele><time>2026-05-03T09:44:49.145Z</time></trkpt><trkpt lat="43.0779854" lon="12.1833604"><ele>475.00000000000006</ele><time>2026-05-03T09:44:50.138Z</time></trkpt><trkpt lat="43.0780574" lon="12.1833603"><ele>475.0</ele><time>2026-05-03T09:44:51.138Z</time></trkpt><trkpt lat="43.0781232" lon="12.1833399"><ele>475.0</ele><time>2026-05-03T09:44:52.143Z</time></trkpt><trkpt lat="43.0782239" lon="12.1832641"><ele>475.0</ele><time>2026-05-03T09:44:54.141Z</time></trkpt><trkpt lat="43.0782924" lon="12.1831866"><ele>475.00000000000006</ele><time>2026-05-03T09:44:56.155Z</time></trkpt><trkpt lat="43.0783391" lon="12.183249"><ele>475.0</ele><time>2026-05-03T09:44:58.165Z</time></trkpt><trkpt lat="43.0783608" lon="12.1833358"><ele>475.00000000000006</ele><time>2026-05-03T09:44:59.169Z</time></trkpt><trkpt lat="43.0783881" lon="12.1834444"><ele>475.0</ele><time>2026-05-03T09:45:00.142Z</time></trkpt><trkpt lat="43.0784182" lon="12.1835748"><ele>475.0</ele><time>2026-05-03T09:45:01.128Z</time></trkpt><trkpt lat="43.0784555" lon="12.1836884"><ele>475.0</ele><time>2026-05-03T09:45:02.127Z</time></trkpt><trkpt lat="43.078487" lon="12.1837911"><ele>475.00000000000006</ele><time>2026-05-03T09:45:03.124Z</time></trkpt><trkpt lat="43.0785259" lon="12.1839002"><ele>475.0</ele><time>2026-05-03T09:45:04.136Z</time></trkpt><trkpt lat="43.0785587" lon="12.1840023"><ele>475.6666666666667</ele><time>2026-05-03T09:45:05.126Z</time></trkpt><trkpt lat="43.0785818" lon="12.1841489"><ele>476.33333333333337</ele><time>2026-05-03T09:45:07.126Z</time></trkpt><trkpt lat="43.0785576" lon="12.184272"><ele>477.0</ele><time>2026-05-03T09:45:09.154Z</time></trkpt><trkpt lat="43.0785135" lon="12.184403"><ele>477.66666666666663</ele><time>2026-05-03T09:45:11.135Z</time></trkpt><trkpt lat="43.0784757" lon="12.1844764"><ele>478.3333333333333</ele><time>2026-05-03T09:45:12.138Z</time></trkpt><trkpt lat="43.0784334" lon="12.1845472"><ele>479.0</ele><time>2026-05-03T09:45:13.14Z</time></trkpt><trkpt lat="43.0783873" lon="12.1846178"><ele>479.0</ele><time>2026-05-03T09:45:14.133Z</time></trkpt><trkpt lat="43.078335" lon="12.1846776"><ele>479.0</ele><time>2026-05-03T09:45:15.133Z</time></trkpt><trkpt lat="43.0782653" lon="12.1847259"><ele>479.0</ele><time>2026-05-03T09:45:16.139Z</time></trkpt><trkpt lat="43.0781926" lon="12.1847768"><ele>479.0</ele><time>2026-05-03T09:45:17.137Z</time></trkpt><trkpt lat="43.0781343" lon="12.184837"><ele>479.0</ele><time>2026-05-03T09:45:18.137Z</time></trkpt><trkpt lat="43.0780853" lon="12.1849022"><ele>479.0</ele><time>2026-05-03T09:45:19.143Z</time></trkpt><trkpt lat="43.0780487" lon="12.1849848"><ele>479.0</ele><time>2026-05-03T09:45:20.133Z</time></trkpt><trkpt lat="43.0780072" lon="12.1851367"><ele>478.49999999999994</ele><time>2026-05-03T09:45:22.143Z</time></trkpt><trkpt lat="43.0779562" lon="12.1852307"><ele>478.0</ele><time>2026-05-03T09:45:24.138Z</time></trkpt><trkpt lat="43.0778522" lon="12.1853081"><ele>477.5</ele><time>2026-05-03T09:45:26.137Z</time></trkpt><trkpt lat="43.0777785" lon="12.1853635"><ele>477.0</ele><time>2026-05-03T09:45:27.136Z</time></trkpt><trkpt lat="43.0777167" lon="12.1854277"><ele>476.49999999999994</ele><time>2026-05-03T09:45:28.134Z</time></trkpt><trkpt lat="43.0776747" lon="12.1854945"><ele>476.0</ele><time>2026-05-03T09:45:29.128Z</time></trkpt><trkpt lat="43.0776119" lon="12.1856469"><ele>477.20000000000005</ele><time>2026-05-03T09:45:31.128Z</time></trkpt><trkpt lat="43.0775616" lon="12.1857893"><ele>478.40000000000003</ele><time>2026-05-03T09:45:33.127Z</time></trkpt><trkpt lat="43.0775367" lon="12.1858691"><ele>479.6</ele><time>2026-05-03T09:45:34.13Z</time></trkpt><trkpt lat="43.0774665" lon="12.1860008"><ele>480.8</ele><time>2026-05-03T09:45:36.13Z</time></trkpt><trkpt lat="43.0773865" lon="12.1860997"><ele>482.0</ele><time>2026-05-03T09:45:38.136Z</time></trkpt><trkpt lat="43.0773417" lon="12.1862449"><ele>479.16666666666663</ele><time>2026-05-03T09:45:40.146Z</time></trkpt><trkpt lat="43.0773521" lon="12.1863302"><ele>476.3333333333333</ele><time>2026-05-03T09:45:41.137Z</time></trkpt><trkpt lat="43.077395" lon="12.1864559"><ele>473.5</ele><time>2026-05-03T09:45:43.142Z</time></trkpt><trkpt lat="43.0773995" lon="12.1865691"><ele>470.66666666666663</ele><time>2026-05-03T09:45:45.152Z</time></trkpt><trkpt lat="43.0773627" lon="12.1866803"><ele>467.8333333333333</ele><time>2026-05-03T09:45:47.147Z</time></trkpt><trkpt lat="43.0772984" lon="12.1867219"><ele>465.0</ele><time>2026-05-03T09:45:49.146Z</time></trkpt><trkpt lat="43.0773572" lon="12.1868165"><ele>467.2</ele><time>2026-05-03T09:45:53.144Z</time></trkpt><trkpt lat="43.077449" lon="12.1868621"><ele>469.4</ele><time>2026-05-03T09:45:55.152Z</time></trkpt><trkpt lat="43.0775293" lon="12.1869178"><ele>471.6</ele><time>2026-05-03T09:45:57.146Z</time></trkpt><trkpt lat="43.0776198" lon="12.1869808"><ele>473.8</ele><time>2026-05-03T09:45:59.145Z</time></trkpt><trkpt lat="43.0777135" lon="12.1870221"><ele>476.0</ele><time>2026-05-03T09:46:01.133Z</time></trkpt><trkpt lat="43.0778071" lon="12.1870819"><ele>476.0</ele><time>2026-05-03T09:46:03.132Z</time></trkpt><trkpt lat="43.0778995" lon="12.1871538"><ele>476.0</ele><time>2026-05-03T09:46:05.132Z</time></trkpt><trkpt lat="43.0779948" lon="12.1872199"><ele>476.0</ele><time>2026-05-03T09:46:07.131Z</time></trkpt><trkpt lat="43.0781107" lon="12.1872513"><ele>476.0</ele><time>2026-05-03T09:46:09.128Z</time></trkpt><trkpt lat="43.0781982" lon="12.1872811"><ele>476.0</ele><time>2026-05-03T09:46:11.152Z</time></trkpt><trkpt lat="43.0782824" lon="12.1873321"><ele>471.99999999999994</ele><time>2026-05-03T09:46:13.137Z</time></trkpt><trkpt lat="43.0783592" lon="12.1873549"><ele>468.0</ele><time>2026-05-03T09:46:15.138Z</time></trkpt><trkpt lat="43.0784304" lon="12.1873898"><ele>464.0</ele><time>2026-05-03T09:46:17.134Z</time></trkpt><trkpt lat="43.0785065" lon="12.1874376"><ele>460.0</ele><time>2026-05-03T09:46:19.136Z</time></trkpt><trkpt lat="43.0785755" lon="12.1874638"><ele>455.99999999999994</ele><time>2026-05-03T09:46:21.134Z</time></trkpt><trkpt lat="43.0786588" lon="12.1874924"><ele>452.0</ele><time>2026-05-03T09:46:23.138Z</time></trkpt><trkpt lat="43.078735" lon="12.1875135"><ele>451.99999999999994</ele><time>2026-05-03T09:46:25.141Z</time></trkpt><trkpt lat="43.078807" lon="12.1875304"><ele>452.0</ele><time>2026-05-03T09:46:27.14Z</time></trkpt><trkpt lat="43.0788924" lon="12.1875505"><ele>452.0</ele><time>2026-05-03T09:46:30.139Z</time></trkpt><trkpt lat="43.0789689" lon="12.18757"><ele>452.0</ele><time>2026-05-03T09:46:32.139Z</time></trkpt><trkpt lat="43.0790619" lon="12.1875912"><ele>451.99999999999994</ele><time>2026-05-03T09:46:35.14Z</time></trkpt><trkpt lat="43.0791233" lon="12.1876284"><ele>452.0</ele><time>2026-05-03T09:46:37.139Z</time></trkpt><trkpt lat="43.0791859" lon="12.1876748"><ele>450.99999999999994</ele><time>2026-05-03T09:46:39.14Z</time></trkpt><trkpt lat="43.0792472" lon="12.1877115"><ele>450.0</ele><time>2026-05-03T09:46:41.139Z</time></trkpt><trkpt lat="43.0793105" lon="12.1877385"><ele>449.0</ele><time>2026-05-03T09:46:43.139Z</time></trkpt><trkpt lat="43.0793729" lon="12.1877574"><ele>448.0</ele><time>2026-05-03T09:46:45.139Z</time></trkpt><trkpt lat="43.0794355" lon="12.1877865"><ele>446.99999999999994</ele><time>2026-05-03T09:46:47.137Z</time></trkpt><trkpt lat="43.0795218" lon="12.1878591"><ele>446.0</ele><time>2026-05-03T09:46:50.144Z</time></trkpt><trkpt lat="43.0795856" lon="12.1879563"><ele>446.0</ele><time>2026-05-03T09:46:52.147Z</time></trkpt><trkpt lat="43.0796819" lon="12.1880375"><ele>446.0</ele><time>2026-05-03T09:46:54.146Z</time></trkpt><trkpt lat="43.0797907" lon="12.1881139"><ele>446.0</ele><time>2026-05-03T09:46:56.154Z</time></trkpt><trkpt lat="43.0798873" lon="12.1882149"><ele>446.0</ele><time>2026-05-03T09:46:58.146Z</time></trkpt><trkpt lat="43.0799462" lon="12.1882765"><ele>446.0</ele><time>2026-05-03T09:46:59.141Z</time></trkpt><trkpt lat="43.0800083" lon="12.1883422"><ele>442.49999999999994</ele><time>2026-05-03T09:47:00.137Z</time></trkpt><trkpt lat="43.0800661" lon="12.1883873"><ele>439.0</ele><time>2026-05-03T09:47:01.143Z</time></trkpt><trkpt lat="43.0801393" lon="12.188465"><ele>435.5</ele><time>2026-05-03T09:47:03.158Z</time></trkpt><trkpt lat="43.0801829" lon="12.1885341"><ele>432.0</ele><time>2026-05-03T09:47:05.147Z</time></trkpt><trkpt lat="43.0802773" lon="12.1885392"><ele>428.49999999999994</ele><time>2026-05-03T09:47:08.149Z</time></trkpt><trkpt lat="43.0803391" lon="12.1885584"><ele>425.0</ele><time>2026-05-03T09:47:10.144Z</time></trkpt><trkpt lat="43.0804088" lon="12.1886292"><ele>424.99999999999994</ele><time>2026-05-03T09:48:28.162Z</time></trkpt><trkpt lat="43.0804665" lon="12.1887123"><ele>425.0</ele><time>2026-05-03T09:48:30.151Z</time></trkpt><trkpt lat="43.0805312" lon="12.1887812"><ele>425.0</ele><time>2026-05-03T09:48:32.147Z</time></trkpt><trkpt lat="43.0806381" lon="12.1888175"><ele>425.0</ele><time>2026-05-03T09:48:34.155Z</time></trkpt><trkpt lat="43.0807035" lon="12.1888178"><ele>424.99999999999994</ele><time>2026-05-03T09:48:35.133Z</time></trkpt><trkpt lat="43.0807712" lon="12.1888248"><ele>425.0</ele><time>2026-05-03T09:48:36.135Z</time></trkpt><trkpt lat="43.0808392" lon="12.1888447"><ele>423.0</ele><time>2026-05-03T09:48:37.139Z</time></trkpt><trkpt lat="43.0808979" lon="12.1888759"><ele>421.0</ele><time>2026-05-03T09:48:38.142Z</time></trkpt><trkpt lat="43.0809903" lon="12.1889559"><ele>419.0</ele><time>2026-05-03T09:48:40.136Z</time></trkpt><trkpt lat="43.0810726" lon="12.1890435"><ele>417.0</ele><time>2026-05-03T09:48:42.139Z</time></trkpt><trkpt lat="43.081164" lon="12.1890955"><ele>415.0</ele><time>2026-05-03T09:48:44.142Z</time></trkpt><trkpt lat="43.0812613" lon="12.1891564"><ele>414.7142857142857</ele><time>2026-05-03T09:48:46.139Z</time></trkpt><trkpt lat="43.0813204" lon="12.1892057"><ele>414.42857142857144</ele><time>2026-05-03T09:48:47.142Z</time></trkpt><trkpt lat="43.0813867" lon="12.1892519"><ele>414.1428571428571</ele><time>2026-05-03T09:48:48.138Z</time></trkpt><trkpt lat="43.0814562" lon="12.1892942"><ele>413.8571428571429</ele><time>2026-05-03T09:48:49.143Z</time></trkpt><trkpt lat="43.0815121" lon="12.1893472"><ele>413.57142857142856</ele><time>2026-05-03T09:48:50.139Z</time></trkpt><trkpt lat="43.0815603" lon="12.1894222"><ele>413.2857142857143</ele><time>2026-05-03T09:48:51.147Z</time></trkpt><trkpt lat="43.0815991" lon="12.189522"><ele>413.0</ele><time>2026-05-03T09:48:52.145Z</time></trkpt><trkpt lat="43.0816361" lon="12.1896344"><ele>410.59999999999997</ele><time>2026-05-03T09:48:53.139Z</time></trkpt><trkpt lat="43.081673" lon="12.189754"><ele>408.2</ele><time>2026-05-03T09:48:54.141Z</time></trkpt><trkpt lat="43.0817105" lon="12.1898723"><ele>405.8</ele><time>2026-05-03T09:48:55.143Z</time></trkpt><trkpt lat="43.0817559" lon="12.1899973"><ele>403.4</ele><time>2026-05-03T09:48:56.144Z</time></trkpt><trkpt lat="43.0818022" lon="12.1901032"><ele>401.0</ele><time>2026-05-03T09:48:57.139Z</time></trkpt><trkpt lat="43.0818477" lon="12.1901951"><ele>400.6</ele><time>2026-05-03T09:48:58.145Z</time></trkpt><trkpt lat="43.0818827" lon="12.1903088"><ele>400.20000000000005</ele><time>2026-05-03T09:48:59.14Z</time></trkpt><trkpt lat="43.0819058" lon="12.1904151"><ele>399.79999999999995</ele><time>2026-05-03T09:49:00.14Z</time></trkpt><trkpt lat="43.081944" lon="12.1905133"><ele>399.4</ele><time>2026-05-03T09:49:01.145Z</time></trkpt><trkpt lat="43.0819935" lon="12.1906383"><ele>399.0</ele><time>2026-05-03T09:49:02.145Z</time></trkpt><trkpt lat="43.0820492" lon="12.1907752"><ele>398.0</ele><time>2026-05-03T09:49:03.143Z</time></trkpt><trkpt lat="43.0821002" lon="12.1908911"><ele>397.0</ele><time>2026-05-03T09:49:04.145Z</time></trkpt><trkpt lat="43.0821443" lon="12.1909909"><ele>396.0</ele><time>2026-05-03T09:49:05.146Z</time></trkpt><trkpt lat="43.0821743" lon="12.1910792"><ele>395.0</ele><time>2026-05-03T09:49:06.14Z</time></trkpt><trkpt lat="43.0822268" lon="12.1912171"><ele>394.0</ele><time>2026-05-03T09:49:08.144Z</time></trkpt><trkpt lat="43.0822827" lon="12.1913356"><ele>394.00000000000006</ele><time>2026-05-03T09:49:10.144Z</time></trkpt><trkpt lat="43.0823422" lon="12.191473"><ele>394.0</ele><time>2026-05-03T09:49:12.143Z</time></trkpt><trkpt lat="43.0824329" lon="12.1915463"><ele>394.0</ele><time>2026-05-03T09:49:14.148Z</time></trkpt><trkpt lat="43.0825015" lon="12.1915673"><ele>394.0</ele><time>2026-05-03T09:49:15.135Z</time></trkpt><trkpt lat="43.0825736" lon="12.191601"><ele>394.00000000000006</ele><time>2026-05-03T09:49:16.157Z</time></trkpt><trkpt lat="43.082643" lon="12.1916435"><ele>394.0</ele><time>2026-05-03T09:49:17.135Z</time></trkpt><trkpt lat="43.0827126" lon="12.191688"><ele>393.50000000000006</ele><time>2026-05-03T09:49:18.143Z</time></trkpt><trkpt lat="43.0827806" lon="12.1917335"><ele>393.0</ele><time>2026-05-03T09:49:19.144Z</time></trkpt><trkpt lat="43.0828444" lon="12.1917707"><ele>392.5</ele><time>2026-05-03T09:49:20.141Z</time></trkpt><trkpt lat="43.082904" lon="12.1917992"><ele>392.0</ele><time>2026-05-03T09:49:21.145Z</time></trkpt><trkpt lat="43.0830135" lon="12.1918502"><ele>391.50000000000006</ele><time>2026-05-03T09:49:23.14Z</time></trkpt><trkpt lat="43.083111" lon="12.1919224"><ele>391.0</ele><time>2026-05-03T09:49:25.143Z</time></trkpt><trkpt lat="43.0831725" lon="12.1919531"><ele>391.00000000000006</ele><time>2026-05-03T09:49:26.14Z</time></trkpt><trkpt lat="43.0832405" lon="12.1919951"><ele>391.0</ele><time>2026-05-03T09:49:27.137Z</time></trkpt><trkpt lat="43.0833118" lon="12.1920466"><ele>391.0</ele><time>2026-05-03T09:49:28.139Z</time></trkpt><trkpt lat="43.0833809" lon="12.1921085"><ele>391.0</ele><time>2026-05-03T09:49:29.143Z</time></trkpt><trkpt lat="43.0834461" lon="12.1921924"><ele>391.00000000000006</ele><time>2026-05-03T09:49:30.142Z</time></trkpt><trkpt lat="43.083509" lon="12.1922862"><ele>391.0</ele><time>2026-05-03T09:49:31.138Z</time></trkpt><trkpt lat="43.0835587" lon="12.1923801"><ele>389.57142857142856</ele><time>2026-05-03T09:49:32.134Z</time></trkpt><trkpt lat="43.083599" lon="12.1924693"><ele>388.1428571428571</ele><time>2026-05-03T09:49:33.135Z</time></trkpt><trkpt lat="43.0836374" lon="12.1925565"><ele>386.71428571428567</ele><time>2026-05-03T09:49:34.138Z</time></trkpt><trkpt lat="43.0836786" lon="12.1926316"><ele>385.2857142857143</ele><time>2026-05-03T09:49:35.139Z</time></trkpt><trkpt lat="43.0837271" lon="12.1927161"><ele>383.8571428571429</ele><time>2026-05-03T09:49:36.137Z</time></trkpt><trkpt lat="43.0837692" lon="12.1927906"><ele>382.4285714285714</ele><time>2026-05-03T09:49:37.143Z</time></trkpt><trkpt lat="43.0838054" lon="12.1928681"><ele>381.0</ele><time>2026-05-03T09:49:38.139Z</time></trkpt><trkpt lat="43.0838514" lon="12.1930134"><ele>381.0</ele><time>2026-05-03T09:49:40.141Z</time></trkpt><trkpt lat="43.0838779" lon="12.1931034"><ele>381.0</ele><time>2026-05-03T09:49:41.141Z</time></trkpt><trkpt lat="43.0839084" lon="12.1932257"><ele>381.0</ele><time>2026-05-03T09:49:42.135Z</time></trkpt><trkpt lat="43.083934" lon="12.1933285"><ele>381.0</ele><time>2026-05-03T09:49:43.133Z</time></trkpt><trkpt lat="43.0839428" lon="12.193427"><ele>381.0</ele><time>2026-05-03T09:49:44.144Z</time></trkpt><trkpt lat="43.0839373" lon="12.1935255"><ele>381.0</ele><time>2026-05-03T09:49:45.137Z</time></trkpt><trkpt lat="43.0839307" lon="12.193634"><ele>379.1666666666667</ele><time>2026-05-03T09:49:46.136Z</time></trkpt><trkpt lat="43.0839189" lon="12.1937393"><ele>377.3333333333333</ele><time>2026-05-03T09:49:47.146Z</time></trkpt><trkpt lat="43.083901" lon="12.1938465"><ele>375.5</ele><time>2026-05-03T09:49:48.135Z</time></trkpt><trkpt lat="43.0838792" lon="12.1939658"><ele>373.66666666666663</ele><time>2026-05-03T09:49:49.144Z</time></trkpt><trkpt lat="43.083868" lon="12.1940889"><ele>371.8333333333333</ele><time>2026-05-03T09:49:50.137Z</time></trkpt><trkpt lat="43.0838575" lon="12.1942108"><ele>370.0</ele><time>2026-05-03T09:49:51.136Z</time></trkpt><trkpt lat="43.0838395" lon="12.1943207"><ele>367.6</ele><time>2026-05-03T09:49:52.135Z</time></trkpt><trkpt lat="43.0838319" lon="12.1944105"><ele>365.2</ele><time>2026-05-03T09:49:53.132Z</time></trkpt><trkpt lat="43.0838104" lon="12.1945506"><ele>362.79999999999995</ele><time>2026-05-03T09:49:55.139Z</time></trkpt><trkpt lat="43.0837762" lon="12.1947001"><ele>360.4</ele><time>2026-05-03T09:49:57.133Z</time></trkpt><trkpt lat="43.0837707" lon="12.1948423"><ele>358.0</ele><time>2026-05-03T09:49:59.135Z</time></trkpt><trkpt lat="43.0838037" lon="12.194942"><ele>358.66666666666663</ele><time>2026-05-03T09:50:01.145Z</time></trkpt><trkpt lat="43.0838533" lon="12.1950404"><ele>359.3333333333333</ele><time>2026-05-03T09:50:03.145Z</time></trkpt><trkpt lat="43.0839037" lon="12.1951055"><ele>360.0</ele><time>2026-05-03T09:50:04.137Z</time></trkpt><trkpt lat="43.083974" lon="12.1951789"><ele>360.6666666666667</ele><time>2026-05-03T09:50:05.135Z</time></trkpt><trkpt lat="43.0840463" lon="12.1952553"><ele>361.33333333333337</ele><time>2026-05-03T09:50:06.133Z</time></trkpt><trkpt lat="43.0841229" lon="12.1953378"><ele>362.0</ele><time>2026-05-03T09:50:07.128Z</time></trkpt><trkpt lat="43.08421" lon="12.1954352"><ele>362.0</ele><time>2026-05-03T09:50:08.134Z</time></trkpt><trkpt lat="43.0842918" lon="12.1955403"><ele>362.0</ele><time>2026-05-03T09:50:09.131Z</time></trkpt><trkpt lat="43.0843741" lon="12.1956484"><ele>362.0</ele><time>2026-05-03T09:50:10.124Z</time></trkpt><trkpt lat="43.0844498" lon="12.1957467"><ele>362.0</ele><time>2026-05-03T09:50:11.132Z</time></trkpt><trkpt lat="43.0845227" lon="12.1958418"><ele>362.0</ele><time>2026-05-03T09:50:12.13Z</time></trkpt><trkpt lat="43.0845843" lon="12.1959448"><ele>359.83333333333337</ele><time>2026-05-03T09:50:13.132Z</time></trkpt><trkpt lat="43.0846323" lon="12.1960437"><ele>357.6666666666667</ele><time>2026-05-03T09:50:14.141Z</time></trkpt><trkpt lat="43.0846799" lon="12.1961676"><ele>355.5</ele><time>2026-05-03T09:50:15.139Z</time></trkpt><trkpt lat="43.0847277" lon="12.196285"><ele>353.3333333333333</ele><time>2026-05-03T09:50:16.138Z</time></trkpt><trkpt lat="43.0847532" lon="12.1963877"><ele>351.16666666666663</ele><time>2026-05-03T09:50:17.136Z</time></trkpt><trkpt lat="43.0847611" lon="12.1964872"><ele>349.0</ele><time>2026-05-03T09:50:18.152Z</time></trkpt><trkpt lat="43.084745" lon="12.1965773"><ele>347.16666666666663</ele><time>2026-05-03T09:50:19.14Z</time></trkpt><trkpt lat="43.0846283" lon="12.1966677"><ele>345.3333333333333</ele><time>2026-05-03T09:50:21.139Z</time></trkpt><trkpt lat="43.0845578" lon="12.1966995"><ele>343.5</ele><time>2026-05-03T09:50:22.144Z</time></trkpt><trkpt lat="43.0844879" lon="12.1967032"><ele>341.6666666666667</ele><time>2026-05-03T09:50:23.136Z</time></trkpt><trkpt lat="43.0844223" lon="12.1966715"><ele>339.83333333333337</ele><time>2026-05-03T09:50:24.138Z</time></trkpt><trkpt lat="43.0843651" lon="12.1966024"><ele>338.0</ele><time>2026-05-03T09:50:25.138Z</time></trkpt><trkpt lat="43.0843172" lon="12.1965083"><ele>339.83333333333337</ele><time>2026-05-03T09:50:26.135Z</time></trkpt><trkpt lat="43.0842773" lon="12.1964319"><ele>341.6666666666667</ele><time>2026-05-03T09:50:27.133Z</time></trkpt><trkpt lat="43.0842001" lon="12.1963651"><ele>343.5</ele><time>2026-05-03T09:50:29.133Z</time></trkpt><trkpt lat="43.0841268" lon="12.1963847"><ele>345.3333333333333</ele><time>2026-05-03T09:50:31.15Z</time></trkpt><trkpt lat="43.0840547" lon="12.196536"><ele>347.16666666666663</ele><time>2026-05-03T09:50:33.128Z</time></trkpt><trkpt lat="43.084005" lon="12.1965982"><ele>349.0</ele><time>2026-05-03T09:50:34.119Z</time></trkpt><trkpt lat="43.08394" lon="12.1966624"><ele>344.8333333333333</ele><time>2026-05-03T09:50:35.139Z</time></trkpt><trkpt lat="43.083855" lon="12.1967052"><ele>340.66666666666663</ele><time>2026-05-03T09:50:36.129Z</time></trkpt><trkpt lat="43.0837614" lon="12.1967474"><ele>336.5</ele><time>2026-05-03T09:50:37.128Z</time></trkpt><trkpt lat="43.0836976" lon="12.1967853"><ele>332.3333333333333</ele><time>2026-05-03T09:50:38.135Z</time></trkpt><trkpt lat="43.0836523" lon="12.1969187"><ele>328.1666666666667</ele><time>2026-05-03T09:50:40.132Z</time></trkpt><trkpt lat="43.0836623" lon="12.1970135"><ele>324.0</ele><time>2026-05-03T09:50:41.13Z</time></trkpt><trkpt lat="43.0836877" lon="12.1971015"><ele>324.0</ele><time>2026-05-03T09:50:42.131Z</time></trkpt><trkpt lat="43.0837218" lon="12.1972384"><ele>324.0</ele><time>2026-05-03T09:50:44.135Z</time></trkpt><trkpt lat="43.0838098" lon="12.1973328"><ele>324.0</ele><time>2026-05-03T09:50:46.127Z</time></trkpt><trkpt lat="43.0838872" lon="12.1974059"><ele>324.0</ele><time>2026-05-03T09:50:48.127Z</time></trkpt><trkpt lat="43.0839624" lon="12.1974267"><ele>324.0</ele><time>2026-05-03T09:50:50.139Z</time></trkpt><trkpt lat="43.0840425" lon="12.1974527"><ele>323.4</ele><time>2026-05-03T09:50:52.138Z</time></trkpt><trkpt lat="43.0841424" lon="12.197496"><ele>322.79999999999995</ele><time>2026-05-03T09:50:54.137Z</time></trkpt><trkpt lat="43.0842554" lon="12.1975616"><ele>322.20000000000005</ele><time>2026-05-03T09:50:56.121Z</time></trkpt><trkpt lat="43.0843632" lon="12.1976425"><ele>321.6</ele><time>2026-05-03T09:50:58.123Z</time></trkpt><trkpt lat="43.0844191" lon="12.1976909"><ele>321.0</ele><time>2026-05-03T09:50:59.126Z</time></trkpt><trkpt lat="43.0845282" lon="12.1977582"><ele>321.0</ele><time>2026-05-03T09:51:01.125Z</time></trkpt><trkpt lat="43.0845968" lon="12.1978014"><ele>321.0</ele><time>2026-05-03T09:51:03.145Z</time></trkpt><trkpt lat="43.0846824" lon="12.1978245"><ele>321.0</ele><time>2026-05-03T09:51:06.141Z</time></trkpt><trkpt lat="43.0847783" lon="12.1978181"><ele>321.0</ele><time>2026-05-03T09:51:08.142Z</time></trkpt><trkpt lat="43.0848788" lon="12.1978053"><ele>321.0</ele><time>2026-05-03T09:51:10.144Z</time></trkpt><trkpt lat="43.0849698" lon="12.197826"><ele>321.20000000000005</ele><time>2026-05-03T09:51:12.144Z</time></trkpt><trkpt lat="43.0850619" lon="12.1978611"><ele>321.40000000000003</ele><time>2026-05-03T09:51:15.143Z</time></trkpt><trkpt lat="43.0851361" lon="12.1978732"><ele>321.6</ele><time>2026-05-03T09:51:17.147Z</time></trkpt><trkpt lat="43.0852066" lon="12.1978204"><ele>321.8</ele><time>2026-05-03T09:52:26.151Z</time></trkpt><trkpt lat="43.0852409" lon="12.1979134"><ele>322.0</ele><time>2026-05-03T09:52:28.144Z</time></trkpt><trkpt lat="43.0852177" lon="12.1981014"><ele>319.66666666666663</ele><time>2026-05-03T09:52:30.133Z</time></trkpt><trkpt lat="43.0851945" lon="12.1982285"><ele>317.3333333333333</ele><time>2026-05-03T09:52:31.137Z</time></trkpt><trkpt lat="43.0851788" lon="12.1983413"><ele>315.0</ele><time>2026-05-03T09:52:32.132Z</time></trkpt><trkpt lat="43.0851647" lon="12.1984479"><ele>312.6666666666667</ele><time>2026-05-03T09:52:33.133Z</time></trkpt><trkpt lat="43.0851539" lon="12.1985551"><ele>310.33333333333337</ele><time>2026-05-03T09:52:34.142Z</time></trkpt><trkpt lat="43.0851431" lon="12.1986657"><ele>308.0</ele><time>2026-05-03T09:52:35.129Z</time></trkpt><trkpt lat="43.0851339" lon="12.1987632"><ele>308.0</ele><time>2026-05-03T09:52:36.137Z</time></trkpt><trkpt lat="43.0851358" lon="12.1989101"><ele>308.0</ele><time>2026-05-03T09:52:38.134Z</time></trkpt><trkpt lat="43.0852433" lon="12.1989743"><ele>308.0</ele><time>2026-05-03T09:52:40.141Z</time></trkpt><trkpt lat="43.0853485" lon="12.1989714"><ele>308.0</ele><time>2026-05-03T09:52:41.143Z</time></trkpt><trkpt lat="43.0854715" lon="12.1989698"><ele>308.0</ele><time>2026-05-03T09:52:42.14Z</time></trkpt><trkpt lat="43.0856027" lon="12.1989801"><ele>308.0</ele><time>2026-05-03T09:52:43.137Z</time></trkpt><trkpt lat="43.0857391" lon="12.1989969"><ele>308.0</ele><time>2026-05-03T09:52:44.138Z</time></trkpt><trkpt lat="43.0858833" lon="12.1990086"><ele>308.0</ele><time>2026-05-03T09:52:45.141Z</time></trkpt><trkpt lat="43.0860347" lon="12.1990272"><ele>310.75</ele><time>2026-05-03T09:52:46.132Z</time></trkpt><trkpt lat="43.0861817" lon="12.1990483"><ele>313.5</ele><time>2026-05-03T09:52:47.137Z</time></trkpt><trkpt lat="43.086323" lon="12.1990614"><ele>316.25</ele><time>2026-05-03T09:52:48.133Z</time></trkpt><trkpt lat="43.0864715" lon="12.1990705"><ele>319.0</ele><time>2026-05-03T09:52:49.132Z</time></trkpt><trkpt lat="43.0866287" lon="12.1990555"><ele>322.75</ele><time>2026-05-03T09:52:50.132Z</time></trkpt><trkpt lat="43.0867814" lon="12.1990321"><ele>326.5</ele><time>2026-05-03T09:52:51.132Z</time></trkpt><trkpt lat="43.0869307" lon="12.1990217"><ele>330.25</ele><time>2026-05-03T09:52:52.131Z</time></trkpt><trkpt lat="43.0870544" lon="12.1990286"><ele>334.0</ele><time>2026-05-03T09:52:53.139Z</time></trkpt><trkpt lat="43.0871792" lon="12.1990328"><ele>334.0</ele><time>2026-05-03T09:52:54.131Z</time></trkpt><trkpt lat="43.0873015" lon="12.1990113"><ele>334.0</ele><time>2026-05-03T09:52:55.136Z</time></trkpt><trkpt lat="43.0874124" lon="12.1989991"><ele>334.0</ele><time>2026-05-03T09:52:56.132Z</time></trkpt><trkpt lat="43.0875215" lon="12.1989869"><ele>334.0</ele><time>2026-05-03T09:52:57.133Z</time></trkpt><trkpt lat="43.0876125" lon="12.1989853"><ele>334.0</ele><time>2026-05-03T09:52:58.134Z</time></trkpt><trkpt lat="43.0876801" lon="12.1989855"><ele>336.6</ele><time>2026-05-03T09:52:59.134Z</time></trkpt><trkpt lat="43.087783" lon="12.1990568"><ele>339.2</ele><time>2026-05-03T09:53:01.146Z</time></trkpt><trkpt lat="43.0878212" lon="12.1991458"><ele>341.8</ele><time>2026-05-03T09:53:02.142Z</time></trkpt><trkpt lat="43.0878505" lon="12.1992815"><ele>344.40000000000003</ele><time>2026-05-03T09:53:03.139Z</time></trkpt><trkpt lat="43.0878817" lon="12.1994081"><ele>347.0</ele><time>2026-05-03T09:53:04.14Z</time></trkpt><trkpt lat="43.0879232" lon="12.1995026"><ele>347.0</ele><time>2026-05-03T09:53:05.132Z</time></trkpt><trkpt lat="43.0879837" lon="12.199581"><ele>347.0</ele><time>2026-05-03T09:53:06.128Z</time></trkpt><trkpt lat="43.088038" lon="12.199675"><ele>347.0</ele><time>2026-05-03T09:53:07.135Z</time></trkpt><trkpt lat="43.0880731" lon="12.1997679"><ele>347.0</ele><time>2026-05-03T09:53:08.133Z</time></trkpt><trkpt lat="43.0880728" lon="12.1998598"><ele>347.0</ele><time>2026-05-03T09:53:09.136Z</time></trkpt><trkpt lat="43.0880363" lon="12.1999441"><ele>347.0</ele><time>2026-05-03T09:53:10.137Z</time></trkpt><trkpt lat="43.0879719" lon="12.2000136"><ele>348.20000000000005</ele><time>2026-05-03T09:53:11.135Z</time></trkpt><trkpt lat="43.0879144" lon="12.2000826"><ele>349.4</ele><time>2026-05-03T09:53:12.134Z</time></trkpt><trkpt lat="43.087898" lon="12.2002424"><ele>350.6</ele><time>2026-05-03T09:53:14.141Z</time></trkpt><trkpt lat="43.0879175" lon="12.2003738"><ele>351.79999999999995</ele><time>2026-05-03T09:53:15.143Z</time></trkpt><trkpt lat="43.087931" lon="12.2005599"><ele>353.0</ele><time>2026-05-03T09:53:16.135Z</time></trkpt><trkpt lat="43.0879479" lon="12.2007529"><ele>354.5</ele><time>2026-05-03T09:53:17.138Z</time></trkpt><trkpt lat="43.0879774" lon="12.2009335"><ele>356.0</ele><time>2026-05-03T09:53:18.142Z</time></trkpt><trkpt lat="43.0880029" lon="12.2010867"><ele>357.5</ele><time>2026-05-03T09:53:19.138Z</time></trkpt><trkpt lat="43.0880101" lon="12.201227"><ele>359.0</ele><time>2026-05-03T09:53:20.142Z</time></trkpt><trkpt lat="43.0880032" lon="12.2013671"><ele>359.0</ele><time>2026-05-03T09:53:21.132Z</time></trkpt><trkpt lat="43.0880044" lon="12.2014909"><ele>359.0</ele><time>2026-05-03T09:53:22.144Z</time></trkpt><trkpt lat="43.0880154" lon="12.2016012"><ele>359.0</ele><time>2026-05-03T09:53:23.141Z</time></trkpt><trkpt lat="43.0880433" lon="12.2016968"><ele>359.0</ele><time>2026-05-03T09:53:24.152Z</time></trkpt><trkpt lat="43.0880929" lon="12.2017776"><ele>359.0</ele><time>2026-05-03T09:53:25.132Z</time></trkpt><trkpt lat="43.0881667" lon="12.2018487"><ele>359.0</ele><time>2026-05-03T09:53:26.136Z</time></trkpt><trkpt lat="43.0882498" lon="12.2019075"><ele>358.83333333333337</ele><time>2026-05-03T09:53:27.131Z</time></trkpt><trkpt lat="43.0883235" lon="12.2019598"><ele>358.6666666666667</ele><time>2026-05-03T09:53:28.137Z</time></trkpt><trkpt lat="43.0883736" lon="12.2020361"><ele>358.5</ele><time>2026-05-03T09:53:29.139Z</time></trkpt><trkpt lat="43.0884006" lon="12.2021199"><ele>358.3333333333333</ele><time>2026-05-03T09:53:30.13Z</time></trkpt><trkpt lat="43.0884115" lon="12.2022099"><ele>358.16666666666663</ele><time>2026-05-03T09:53:31.131Z</time></trkpt><trkpt lat="43.0884135" lon="12.2023343"><ele>358.0</ele><time>2026-05-03T09:53:33.134Z</time></trkpt><trkpt lat="43.0885156" lon="12.2025213"><ele>359.4</ele><time>2026-05-03T09:53:37.89Z</time></trkpt><trkpt lat="43.0885417" lon="12.202773"><ele>360.79999999999995</ele><time>2026-05-03T09:53:39.702Z</time></trkpt><trkpt lat="43.088556" lon="12.2028781"><ele>362.2</ele><time>2026-05-03T09:53:40.72Z</time></trkpt><trkpt lat="43.0885735" lon="12.2029834"><ele>363.6</ele><time>2026-05-03T09:53:41.718Z</time></trkpt><trkpt lat="43.088595" lon="12.2030829"><ele>365.0</ele><time>2026-05-03T09:53:42.718Z</time></trkpt><trkpt lat="43.0886155" lon="12.2031758"><ele>367.8</ele><time>2026-05-03T09:53:43.727Z</time></trkpt><trkpt lat="43.0886331" lon="12.2032599"><ele>370.6</ele><time>2026-05-03T09:53:44.728Z</time></trkpt><trkpt lat="43.088658" lon="12.2034119"><ele>373.4</ele><time>2026-05-03T09:53:46.73Z</time></trkpt><trkpt lat="43.0887332" lon="12.2034414"><ele>376.2</ele><time>2026-05-03T09:53:48.736Z</time></trkpt><trkpt lat="43.0888211" lon="12.2033931"><ele>379.0</ele><time>2026-05-03T09:53:49.737Z</time></trkpt><trkpt lat="43.0889198" lon="12.2033461"><ele>379.0</ele><time>2026-05-03T09:53:50.724Z</time></trkpt><trkpt lat="43.0890181" lon="12.2033167"><ele>379.0</ele><time>2026-05-03T09:53:51.732Z</time></trkpt><trkpt lat="43.0891084" lon="12.2033193"><ele>379.0</ele><time>2026-05-03T09:53:52.733Z</time></trkpt><trkpt lat="43.0892059" lon="12.2033326"><ele>379.0</ele><time>2026-05-03T09:53:53.724Z</time></trkpt><trkpt lat="43.0893147" lon="12.2033525"><ele>379.0</ele><time>2026-05-03T09:53:54.724Z</time></trkpt><trkpt lat="43.0894202" lon="12.2033883"><ele>378.0</ele><time>2026-05-03T09:53:55.734Z</time></trkpt><trkpt lat="43.0895246" lon="12.2034262"><ele>377.0</ele><time>2026-05-03T09:53:56.735Z</time></trkpt><trkpt lat="43.0896262" lon="12.2034985"><ele>376.0</ele><time>2026-05-03T09:53:57.729Z</time></trkpt><trkpt lat="43.0897226" lon="12.2035863"><ele>375.0</ele><time>2026-05-03T09:53:58.737Z</time></trkpt><trkpt lat="43.0898178" lon="12.203683"><ele>375.0</ele><time>2026-05-03T09:53:59.743Z</time></trkpt><trkpt lat="43.0899163" lon="12.2037841"><ele>375.0</ele><time>2026-05-03T09:54:00.74Z</time></trkpt><trkpt lat="43.0900021" lon="12.2038803"><ele>375.0</ele><time>2026-05-03T09:54:01.735Z</time></trkpt><trkpt lat="43.0900653" lon="12.203962"><ele>375.0</ele><time>2026-05-03T09:54:02.736Z</time></trkpt><trkpt lat="43.0901429" lon="12.2040993"><ele>375.0</ele><time>2026-05-03T09:54:04.528Z</time></trkpt><trkpt lat="43.0901836" lon="12.2041718"><ele>376.8</ele><time>2026-05-03T09:54:05.44Z</time></trkpt><trkpt lat="43.0902865" lon="12.2043417"><ele>378.6</ele><time>2026-05-03T09:54:07.327Z</time></trkpt><trkpt lat="43.0903502" lon="12.204412"><ele>380.4</ele><time>2026-05-03T09:54:08.329Z</time></trkpt><trkpt lat="43.0904235" lon="12.2044528"><ele>382.2</ele><time>2026-05-03T09:54:09.357Z</time></trkpt><trkpt lat="43.0904977" lon="12.2044913"><ele>384.0</ele><time>2026-05-03T09:54:10.333Z</time></trkpt><trkpt lat="43.0905762" lon="12.2045457"><ele>384.0</ele><time>2026-05-03T09:54:11.324Z</time></trkpt><trkpt lat="43.0906616" lon="12.2046011"><ele>384.0</ele><time>2026-05-03T09:54:12.332Z</time></trkpt><trkpt lat="43.090755" lon="12.2046617"><ele>384.0</ele><time>2026-05-03T09:54:13.329Z</time></trkpt><trkpt lat="43.0908453" lon="12.2047142"><ele>384.0</ele><time>2026-05-03T09:54:14.332Z</time></trkpt><trkpt lat="43.0909393" lon="12.2047513"><ele>384.0</ele><time>2026-05-03T09:54:15.343Z</time></trkpt><trkpt lat="43.0910366" lon="12.2047761"><ele>382.3333333333333</ele><time>2026-05-03T09:54:16.329Z</time></trkpt><trkpt lat="43.0911343" lon="12.2048044"><ele>380.6666666666667</ele><time>2026-05-03T09:54:17.33Z</time></trkpt><trkpt lat="43.091217" lon="12.2048353"><ele>379.0</ele><time>2026-05-03T09:54:18.339Z</time></trkpt><trkpt lat="43.0912846" lon="12.2048899"><ele>377.33333333333337</ele><time>2026-05-03T09:54:19.334Z</time></trkpt><trkpt lat="43.0913359" lon="12.2049549"><ele>375.6666666666667</ele><time>2026-05-03T09:54:20.235Z</time></trkpt><trkpt lat="43.0913946" lon="12.2050438"><ele>374.0</ele><time>2026-05-03T09:54:21.24Z</time></trkpt><trkpt lat="43.0914478" lon="12.205133"><ele>374.83333333333337</ele><time>2026-05-03T09:54:22.231Z</time></trkpt><trkpt lat="43.0914985" lon="12.2052213"><ele>375.6666666666667</ele><time>2026-05-03T09:54:23.234Z</time></trkpt><trkpt lat="43.0915497" lon="12.2053095"><ele>376.5</ele><time>2026-05-03T09:54:24.232Z</time></trkpt><trkpt lat="43.0915989" lon="12.2054001"><ele>377.3333333333333</ele><time>2026-05-03T09:54:25.233Z</time></trkpt><trkpt lat="43.0916494" lon="12.2054932"><ele>378.16666666666663</ele><time>2026-05-03T09:54:26.237Z</time></trkpt><trkpt lat="43.0916954" lon="12.2055766"><ele>379.0</ele><time>2026-05-03T09:54:27.233Z</time></trkpt><trkpt lat="43.0917622" lon="12.205693"><ele>381.4</ele><time>2026-05-03T09:54:29.235Z</time></trkpt><trkpt lat="43.0918944" lon="12.2057784"><ele>383.79999999999995</ele><time>2026-05-03T09:54:31.228Z</time></trkpt><trkpt lat="43.0919749" lon="12.2058123"><ele>386.20000000000005</ele><time>2026-05-03T09:54:32.227Z</time></trkpt><trkpt lat="43.0920492" lon="12.2058493"><ele>388.6</ele><time>2026-05-03T09:54:33.23Z</time></trkpt><trkpt lat="43.092111" lon="12.2058989"><ele>391.0</ele><time>2026-05-03T09:54:34.23Z</time></trkpt><trkpt lat="43.0921765" lon="12.2059448"><ele>391.0</ele><time>2026-05-03T09:54:35.225Z</time></trkpt><trkpt lat="43.0922378" lon="12.2059893"><ele>391.0</ele><time>2026-05-03T09:54:36.233Z</time></trkpt><trkpt lat="43.0922897" lon="12.2060395"><ele>391.0</ele><time>2026-05-03T09:54:37.233Z</time></trkpt><trkpt lat="43.0923897" lon="12.206296"><ele>391.0</ele><time>2026-05-03T09:54:40.175Z</time></trkpt><trkpt lat="43.0924113" lon="12.2064092"><ele>391.0</ele><time>2026-05-03T09:54:41.138Z</time></trkpt><trkpt lat="43.0924261" lon="12.2065098"><ele>392.20000000000005</ele><time>2026-05-03T09:54:42.131Z</time></trkpt><trkpt lat="43.0924751" lon="12.2066443"><ele>393.40000000000003</ele><time>2026-05-03T09:54:44.139Z</time></trkpt><trkpt lat="43.0925583" lon="12.206769"><ele>394.6</ele><time>2026-05-03T09:54:46.145Z</time></trkpt><trkpt lat="43.0926377" lon="12.2068514"><ele>395.8</ele><time>2026-05-03T09:54:48.141Z</time></trkpt><trkpt lat="43.0926792" lon="12.2069319"><ele>397.0</ele><time>2026-05-03T09:54:50.154Z</time></trkpt><trkpt lat="43.0927472" lon="12.2069796"><ele>397.0</ele><time>2026-05-03T09:54:53.15Z</time></trkpt><trkpt lat="43.0928225" lon="12.2070319"><ele>397.0</ele><time>2026-05-03T09:54:55.144Z</time></trkpt><trkpt lat="43.0929163" lon="12.2070789"><ele>397.0</ele><time>2026-05-03T09:54:57.145Z</time></trkpt><trkpt lat="43.093019" lon="12.2070645"><ele>397.0</ele><time>2026-05-03T09:54:59.132Z</time></trkpt><trkpt lat="43.0930987" lon="12.2069709"><ele>397.0</ele><time>2026-05-03T09:55:01.13Z</time></trkpt><trkpt lat="43.0931384" lon="12.2068817"><ele>397.00000000000006</ele><time>2026-05-03T09:55:02.128Z</time></trkpt><trkpt lat="43.0931749" lon="12.2067758"><ele>397.0</ele><time>2026-05-03T09:55:03.13Z</time></trkpt><trkpt lat="43.0932153" lon="12.2066677"><ele>397.0</ele><time>2026-05-03T09:55:04.12Z</time></trkpt><trkpt lat="43.0932575" lon="12.2065535"><ele>397.0</ele><time>2026-05-03T09:55:05.131Z</time></trkpt><trkpt lat="43.0932957" lon="12.2064579"><ele>397.00000000000006</ele><time>2026-05-03T09:55:06.136Z</time></trkpt><trkpt lat="43.093339" lon="12.2063916"><ele>397.0</ele><time>2026-05-03T09:55:07.141Z</time></trkpt><trkpt lat="43.0934167" lon="12.2063105"><ele>394.6666666666667</ele><time>2026-05-03T09:55:09.143Z</time></trkpt><trkpt lat="43.093497" lon="12.2062458"><ele>392.33333333333337</ele><time>2026-05-03T09:55:11.156Z</time></trkpt><trkpt lat="43.0935748" lon="12.2061752"><ele>390.0</ele><time>2026-05-03T09:55:13.138Z</time></trkpt><trkpt lat="43.09366" lon="12.2060997"><ele>387.6666666666667</ele><time>2026-05-03T09:55:15.161Z</time></trkpt><trkpt lat="43.0937377" lon="12.2060667"><ele>385.33333333333337</ele><time>2026-05-03T09:55:17.152Z</time></trkpt><trkpt lat="43.0938051" lon="12.2061129"><ele>383.0</ele><time>2026-05-03T09:55:19.15Z</time></trkpt><trkpt lat="43.0938712" lon="12.2062034"><ele>383.0</ele><time>2026-05-03T09:55:21.152Z</time></trkpt><trkpt lat="43.0939519" lon="12.2063042"><ele>383.0</ele><time>2026-05-03T09:55:23.138Z</time></trkpt><trkpt lat="43.0940472" lon="12.2064122"><ele>383.0</ele><time>2026-05-03T09:55:25.132Z</time></trkpt><trkpt lat="43.0941324" lon="12.2064982"><ele>383.0</ele><time>2026-05-03T09:55:27.139Z</time></trkpt><trkpt lat="43.0942006" lon="12.206576"><ele>383.0</ele><time>2026-05-03T09:55:29.14Z</time></trkpt><trkpt lat="43.0942567" lon="12.2066409"><ele>386.5</ele><time>2026-05-03T09:55:31.15Z</time></trkpt><trkpt lat="43.0943239" lon="12.2066671"><ele>390.0</ele><time>2026-05-03T09:55:33.143Z</time></trkpt><trkpt lat="43.0944068" lon="12.2066648"><ele>393.5</ele><time>2026-05-03T09:55:35.145Z</time></trkpt><trkpt lat="43.0945037" lon="12.2066484"><ele>397.0</ele><time>2026-05-03T09:55:37.146Z</time></trkpt><trkpt lat="43.0945864" lon="12.2066622"><ele>400.49999999999994</ele><time>2026-05-03T09:55:39.146Z</time></trkpt><trkpt lat="43.0946562" lon="12.2066904"><ele>404.0</ele><time>2026-05-03T09:55:41.153Z</time></trkpt><trkpt lat="43.0947291" lon="12.2067257"><ele>403.99999999999994</ele><time>2026-05-03T09:55:43.148Z</time></trkpt><trkpt lat="43.0947895" lon="12.2067803"><ele>404.0</ele><time>2026-05-03T09:55:45.148Z</time></trkpt><trkpt lat="43.0948621" lon="12.2068278"><ele>404.0</ele><time>2026-05-03T09:55:47.155Z</time></trkpt><trkpt lat="43.0949448" lon="12.2068952"><ele>404.0</ele><time>2026-05-03T09:55:49.152Z</time></trkpt><trkpt lat="43.0950181" lon="12.2069673"><ele>403.99999999999994</ele><time>2026-05-03T09:55:51.155Z</time></trkpt><trkpt lat="43.0950919" lon="12.2070562"><ele>404.0</ele><time>2026-05-03T09:55:53.157Z</time></trkpt><trkpt lat="43.0951589" lon="12.2070909"><ele>400.79999999999995</ele><time>2026-05-03T09:55:55.153Z</time></trkpt><trkpt lat="43.0952612" lon="12.2070284"><ele>397.59999999999997</ele><time>2026-05-03T09:55:57.149Z</time></trkpt><trkpt lat="43.0953541" lon="12.2069445"><ele>394.4</ele><time>2026-05-03T09:55:59.151Z</time></trkpt><trkpt lat="43.0954242" lon="12.2068848"><ele>391.2</ele><time>2026-05-03T09:56:01.152Z</time></trkpt><trkpt lat="43.0955136" lon="12.2068215"><ele>388.0</ele><time>2026-05-03T09:56:03.145Z</time></trkpt><trkpt lat="43.0955777" lon="12.2067341"><ele>388.00000000000006</ele><time>2026-05-03T09:56:05.144Z</time></trkpt><trkpt lat="43.0956453" lon="12.2066101"><ele>388.0</ele><time>2026-05-03T09:56:07.148Z</time></trkpt><trkpt lat="43.0956888" lon="12.2065327"><ele>388.0</ele><time>2026-05-03T09:56:08.144Z</time></trkpt><trkpt lat="43.0957423" lon="12.2064575"><ele>388.0</ele><time>2026-05-03T09:56:09.142Z</time></trkpt><trkpt lat="43.0957868" lon="12.2063934"><ele>388.00000000000006</ele><time>2026-05-03T09:56:10.156Z</time></trkpt><trkpt lat="43.0958508" lon="12.2062774"><ele>388.0</ele><time>2026-05-03T09:56:12.144Z</time></trkpt><trkpt lat="43.0958878" lon="12.2061841"><ele>384.0</ele><time>2026-05-03T09:56:14.148Z</time></trkpt><trkpt lat="43.0959276" lon="12.2060851"><ele>380.0</ele><time>2026-05-03T09:56:16.153Z</time></trkpt><trkpt lat="43.0959585" lon="12.205961"><ele>376.0</ele><time>2026-05-03T09:56:18.16Z</time></trkpt><trkpt lat="43.0960082" lon="12.205831"><ele>372.0</ele><time>2026-05-03T09:56:20.148Z</time></trkpt><trkpt lat="43.09608" lon="12.2057426"><ele>368.0</ele><time>2026-05-03T09:56:22.156Z</time></trkpt><trkpt lat="43.0961688" lon="12.2056462"><ele>364.59999999999997</ele><time>2026-05-03T09:56:24.141Z</time></trkpt><trkpt lat="43.0962445" lon="12.2055366"><ele>361.2</ele><time>2026-05-03T09:56:26.14Z</time></trkpt><trkpt lat="43.0962939" lon="12.205424"><ele>357.8</ele><time>2026-05-03T09:56:28.147Z</time></trkpt><trkpt lat="43.0963533" lon="12.205342"><ele>354.4</ele><time>2026-05-03T09:56:30.154Z</time></trkpt><trkpt lat="43.0964273" lon="12.2052633"><ele>351.0</ele><time>2026-05-03T09:56:32.16Z</time></trkpt><trkpt lat="43.0965075" lon="12.2052027"><ele>351.0</ele><time>2026-05-03T09:56:34.154Z</time></trkpt><trkpt lat="43.096573" lon="12.2051801"><ele>351.0</ele><time>2026-05-03T09:56:36.163Z</time></trkpt><trkpt lat="43.0966369" lon="12.2052241"><ele>351.0</ele><time>2026-05-03T09:56:38.162Z</time></trkpt><trkpt lat="43.0966799" lon="12.2053491"><ele>351.0</ele><time>2026-05-03T09:56:40.17Z</time></trkpt><trkpt lat="43.0967141" lon="12.2055044"><ele>351.0</ele><time>2026-05-03T09:56:42.158Z</time></trkpt><trkpt lat="43.0967399" lon="12.2056798"><ele>352.3333333333333</ele><time>2026-05-03T09:56:44.168Z</time></trkpt><trkpt lat="43.0967649" lon="12.2057948"><ele>353.6666666666667</ele><time>2026-05-03T09:56:45.142Z</time></trkpt><trkpt lat="43.0967975" lon="12.2058906"><ele>355.0</ele><time>2026-05-03T09:56:46.142Z</time></trkpt><trkpt lat="43.0968182" lon="12.2059961"><ele>356.33333333333337</ele><time>2026-05-03T09:56:47.153Z</time></trkpt><trkpt lat="43.0968379" lon="12.2060949"><ele>357.6666666666667</ele><time>2026-05-03T09:56:48.144Z</time></trkpt><trkpt lat="43.0968656" lon="12.2061876"><ele>359.0</ele><time>2026-05-03T09:56:49.148Z</time></trkpt><trkpt lat="43.0968992" lon="12.206281"><ele>359.0</ele><time>2026-05-03T09:56:50.149Z</time></trkpt><trkpt lat="43.0969325" lon="12.2063579"><ele>359.0</ele><time>2026-05-03T09:56:51.148Z</time></trkpt><trkpt lat="43.0969701" lon="12.2065052"><ele>359.0</ele><time>2026-05-03T09:56:53.15Z</time></trkpt><trkpt lat="43.0969449" lon="12.2066433"><ele>359.0</ele><time>2026-05-03T09:56:55.145Z</time></trkpt><trkpt lat="43.096914" lon="12.2067229"><ele>359.0</ele><time>2026-05-03T09:56:56.139Z</time></trkpt><trkpt lat="43.0968908" lon="12.2068271"><ele>359.0</ele><time>2026-05-03T09:56:57.14Z</time></trkpt><trkpt lat="43.0968708" lon="12.2069365"><ele>360.1666666666667</ele><time>2026-05-03T09:56:58.14Z</time></trkpt><trkpt lat="43.096854" lon="12.2070562"><ele>361.33333333333337</ele><time>2026-05-03T09:56:59.143Z</time></trkpt><trkpt lat="43.0968478" lon="12.2071653"><ele>362.5</ele><time>2026-05-03T09:57:00.143Z</time></trkpt><trkpt lat="43.096849" lon="12.2072722"><ele>363.6666666666667</ele><time>2026-05-03T09:57:01.141Z</time></trkpt><trkpt lat="43.0968596" lon="12.2073754"><ele>364.8333333333333</ele><time>2026-05-03T09:57:02.139Z</time></trkpt><trkpt lat="43.0968756" lon="12.2074629"><ele>366.0</ele><time>2026-05-03T09:57:03.134Z</time></trkpt><trkpt lat="43.0969138" lon="12.2076059"><ele>367.3333333333333</ele><time>2026-05-03T09:57:05.132Z</time></trkpt><trkpt lat="43.0969523" lon="12.2076997"><ele>368.6666666666667</ele><time>2026-05-03T09:57:07.147Z</time></trkpt><trkpt lat="43.0969846" lon="12.2078128"><ele>370.0</ele><time>2026-05-03T09:57:09.143Z</time></trkpt><trkpt lat="43.0970035" lon="12.207927"><ele>371.33333333333337</ele><time>2026-05-03T09:57:11.148Z</time></trkpt><trkpt lat="43.097026" lon="12.2080107"><ele>372.6666666666667</ele><time>2026-05-03T09:57:13.148Z</time></trkpt><trkpt lat="43.0970858" lon="12.2080685"><ele>374.0</ele><time>2026-05-03T09:57:17.145Z</time></trkpt><trkpt lat="43.0971523" lon="12.2079748"><ele>374.0</ele><time>2026-05-03T09:57:20.14Z</time></trkpt><trkpt lat="43.0972472" lon="12.2078506"><ele>374.0</ele><time>2026-05-03T09:57:22.137Z</time></trkpt><trkpt lat="43.0973151" lon="12.2077612"><ele>374.0</ele><time>2026-05-03T09:57:23.128Z</time></trkpt><trkpt lat="43.0973776" lon="12.2076929"><ele>374.0</ele><time>2026-05-03T09:57:24.132Z</time></trkpt><trkpt lat="43.0974387" lon="12.2076493"><ele>374.0</ele><time>2026-05-03T09:57:25.13Z</time></trkpt><trkpt lat="43.0975321" lon="12.2075745"><ele>372.0</ele><time>2026-05-03T09:57:27.129Z</time></trkpt><trkpt lat="43.0976056" lon="12.2074861"><ele>370.0</ele><time>2026-05-03T09:57:29.137Z</time></trkpt><trkpt lat="43.0976872" lon="12.2073873"><ele>368.0</ele><time>2026-05-03T09:57:31.131Z</time></trkpt><trkpt lat="43.0977678" lon="12.2072853"><ele>366.0</ele><time>2026-05-03T09:57:33.136Z</time></trkpt><trkpt lat="43.097833" lon="12.20722"><ele>364.0</ele><time>2026-05-03T09:57:35.146Z</time></trkpt><trkpt lat="43.0979142" lon="12.2071511"><ele>361.4</ele><time>2026-05-03T09:57:37.13Z</time></trkpt><trkpt lat="43.0980012" lon="12.2070775"><ele>358.79999999999995</ele><time>2026-05-03T09:57:39.134Z</time></trkpt><trkpt lat="43.0980777" lon="12.206982"><ele>356.20000000000005</ele><time>2026-05-03T09:57:41.133Z</time></trkpt><trkpt lat="43.0981432" lon="12.2068965"><ele>353.6</ele><time>2026-05-03T09:57:43.149Z</time></trkpt><trkpt lat="43.0982054" lon="12.2068384"><ele>351.0</ele><time>2026-05-03T09:57:45.165Z</time></trkpt><trkpt lat="43.0982865" lon="12.2067918"><ele>351.0</ele><time>2026-05-03T09:57:47.149Z</time></trkpt><trkpt lat="43.098363" lon="12.2067769"><ele>351.0</ele><time>2026-05-03T09:57:49.146Z</time></trkpt><trkpt lat="43.0984942" lon="12.2068182"><ele>351.0</ele><time>2026-05-03T09:57:51.154Z</time></trkpt><trkpt lat="43.0985628" lon="12.2068262"><ele>351.0</ele><time>2026-05-03T09:57:52.142Z</time></trkpt><trkpt lat="43.0986464" lon="12.2068254"><ele>351.0</ele><time>2026-05-03T09:57:53.143Z</time></trkpt><trkpt lat="43.0987289" lon="12.2068163"><ele>351.0</ele><time>2026-05-03T09:57:54.143Z</time></trkpt><trkpt lat="43.0987989" lon="12.2068021"><ele>351.0</ele><time>2026-05-03T09:57:55.137Z</time></trkpt><trkpt lat="43.0988633" lon="12.2067623"><ele>351.0</ele><time>2026-05-03T09:57:56.145Z</time></trkpt><trkpt lat="43.098929" lon="12.2067041"><ele>351.0</ele><time>2026-05-03T09:57:57.141Z</time></trkpt><trkpt lat="43.0990097" lon="12.2066368"><ele>351.0</ele><time>2026-05-03T09:57:58.133Z</time></trkpt><trkpt lat="43.0990913" lon="12.2065528"><ele>351.0</ele><time>2026-05-03T09:57:59.129Z</time></trkpt><trkpt lat="43.0991737" lon="12.2064681"><ele>351.0</ele><time>2026-05-03T09:58:00.133Z</time></trkpt><trkpt lat="43.0992346" lon="12.2063834"><ele>349.8333333333333</ele><time>2026-05-03T09:58:01.135Z</time></trkpt><trkpt lat="43.0992885" lon="12.2063114"><ele>348.6666666666667</ele><time>2026-05-03T09:58:02.14Z</time></trkpt><trkpt lat="43.0993392" lon="12.2062293"><ele>347.5</ele><time>2026-05-03T09:58:03.133Z</time></trkpt><trkpt lat="43.0993843" lon="12.2061437"><ele>346.33333333333337</ele><time>2026-05-03T09:58:04.14Z</time></trkpt><trkpt lat="43.099429" lon="12.2060286"><ele>345.1666666666667</ele><time>2026-05-03T09:58:05.133Z</time></trkpt><trkpt lat="43.0994616" lon="12.2059042"><ele>344.0</ele><time>2026-05-03T09:58:06.13Z</time></trkpt><trkpt lat="43.0994923" lon="12.2057779"><ele>344.0</ele><time>2026-05-03T09:58:07.13Z</time></trkpt><trkpt lat="43.099528" lon="12.2056656"><ele>344.0</ele><time>2026-05-03T09:58:08.139Z</time></trkpt><trkpt lat="43.0995791" lon="12.2055704"><ele>344.0</ele><time>2026-05-03T09:58:09.129Z</time></trkpt><trkpt lat="43.099629" lon="12.2054787"><ele>344.0</ele><time>2026-05-03T09:58:10.152Z</time></trkpt><trkpt lat="43.0996881" lon="12.2054052"><ele>344.0</ele><time>2026-05-03T09:58:11.134Z</time></trkpt><trkpt lat="43.0997594" lon="12.2053353"><ele>344.0</ele><time>2026-05-03T09:58:12.138Z</time></trkpt><trkpt lat="43.0998416" lon="12.2052892"><ele>344.33333333333337</ele><time>2026-05-03T09:58:13.136Z</time></trkpt><trkpt lat="43.0999139" lon="12.2052645"><ele>344.6666666666667</ele><time>2026-05-03T09:58:14.133Z</time></trkpt><trkpt lat="43.0999843" lon="12.2052676"><ele>345.0</ele><time>2026-05-03T09:58:15.137Z</time></trkpt><trkpt lat="43.1000557" lon="12.2052813"><ele>345.3333333333333</ele><time>2026-05-03T09:58:16.156Z</time></trkpt><trkpt lat="43.1001514" lon="12.2052718"><ele>345.66666666666663</ele><time>2026-05-03T09:58:17.136Z</time></trkpt><trkpt lat="43.1002574" lon="12.205281"><ele>346.0</ele><time>2026-05-03T09:58:18.137Z</time></trkpt><trkpt lat="43.1003613" lon="12.2052881"><ele>346.0</ele><time>2026-05-03T09:58:19.14Z</time></trkpt><trkpt lat="43.1004696" lon="12.2052966"><ele>346.0</ele><time>2026-05-03T09:58:20.138Z</time></trkpt><trkpt lat="43.1005797" lon="12.2052925"><ele>346.0</ele><time>2026-05-03T09:58:21.139Z</time></trkpt><trkpt lat="43.1006843" lon="12.2052697"><ele>346.0</ele><time>2026-05-03T09:58:22.131Z</time></trkpt><trkpt lat="43.1007773" lon="12.2052504"><ele>346.0</ele><time>2026-05-03T09:58:23.144Z</time></trkpt><trkpt lat="43.1008606" lon="12.2052458"><ele>346.16666666666663</ele><time>2026-05-03T09:58:24.137Z</time></trkpt><trkpt lat="43.1009294" lon="12.2052624"><ele>346.3333333333333</ele><time>2026-05-03T09:58:25.144Z</time></trkpt><trkpt lat="43.10098" lon="12.2053469"><ele>346.5</ele><time>2026-05-03T09:58:27.135Z</time></trkpt><trkpt lat="43.100941" lon="12.2054485"><ele>346.6666666666667</ele><time>2026-05-03T09:58:30.159Z</time></trkpt><trkpt lat="43.1008707" lon="12.2055853"><ele>346.83333333333337</ele><time>2026-05-03T09:58:32.154Z</time></trkpt><trkpt lat="43.1008204" lon="12.2056788"><ele>347.0</ele><time>2026-05-03T09:58:33.148Z</time></trkpt><trkpt lat="43.1007573" lon="12.205764"><ele>350.40000000000003</ele><time>2026-05-03T09:58:34.148Z</time></trkpt><trkpt lat="43.100687" lon="12.2058341"><ele>353.8</ele><time>2026-05-03T09:58:35.14Z</time></trkpt><trkpt lat="43.1006235" lon="12.2058992"><ele>357.2</ele><time>2026-05-03T09:58:36.141Z</time></trkpt><trkpt lat="43.1005612" lon="12.2060203"><ele>360.6</ele><time>2026-05-03T09:58:38.132Z</time></trkpt><trkpt lat="43.100556" lon="12.2061673"><ele>364.0</ele><time>2026-05-03T09:58:40.159Z</time></trkpt><trkpt lat="43.100586" lon="12.206301"><ele>364.0</ele><time>2026-05-03T09:58:42.144Z</time></trkpt><trkpt lat="43.100555" lon="12.2064327"><ele>364.0</ele><time>2026-05-03T09:58:44.138Z</time></trkpt><trkpt lat="43.1005221" lon="12.2065982"><ele>364.0</ele><time>2026-05-03T09:58:46.147Z</time></trkpt><trkpt lat="43.1005016" lon="12.2067066"><ele>364.0</ele><time>2026-05-03T09:58:47.155Z</time></trkpt><trkpt lat="43.1004709" lon="12.2068496"><ele>364.0</ele><time>2026-05-03T09:58:48.146Z</time></trkpt><trkpt lat="43.1004386" lon="12.2070208"><ele>366.75</ele><time>2026-05-03T09:58:49.145Z</time></trkpt><trkpt lat="43.100417" lon="12.2072229"><ele>369.5</ele><time>2026-05-03T09:58:50.138Z</time></trkpt><trkpt lat="43.1004031" lon="12.2073889"><ele>372.25</ele><time>2026-05-03T09:58:51.143Z</time></trkpt><trkpt lat="43.1003861" lon="12.2075215"><ele>375.0</ele><time>2026-05-03T09:58:52.143Z</time></trkpt><trkpt lat="43.100371" lon="12.2076548"><ele>376.6666666666667</ele><time>2026-05-03T09:58:53.144Z</time></trkpt><trkpt lat="43.1003524" lon="12.2077888"><ele>378.33333333333337</ele><time>2026-05-03T09:58:54.147Z</time></trkpt><trkpt lat="43.1003411" lon="12.207896"><ele>380.0</ele><time>2026-05-03T09:58:55.142Z</time></trkpt><trkpt lat="43.1003229" lon="12.2080033"><ele>381.6666666666667</ele><time>2026-05-03T09:58:57.137Z</time></trkpt><trkpt lat="43.1002418" lon="12.2080259"><ele>383.33333333333337</ele><time>2026-05-03T09:58:59.163Z</time></trkpt><trkpt lat="43.1001742" lon="12.2080052"><ele>385.0</ele><time>2026-05-03T09:59:00.158Z</time></trkpt><trkpt lat="43.1001054" lon="12.2079844"><ele>385.00000000000006</ele><time>2026-05-03T09:59:01.144Z</time></trkpt><trkpt lat="43.099987" lon="12.2080021"><ele>385.0</ele><time>2026-05-03T09:59:03.144Z</time></trkpt><trkpt lat="43.099931" lon="12.2080471"><ele>385.0</ele><time>2026-05-03T09:59:04.137Z</time></trkpt><trkpt lat="43.0998791" lon="12.2081235"><ele>385.0</ele><time>2026-05-03T09:59:05.146Z</time></trkpt><trkpt lat="43.0998276" lon="12.2082106"><ele>385.00000000000006</ele><time>2026-05-03T09:59:06.138Z</time></trkpt><trkpt lat="43.0997617" lon="12.2083218"><ele>385.0</ele><time>2026-05-03T09:59:07.135Z</time></trkpt><trkpt lat="43.099689" lon="12.2084397"><ele>386.75</ele><time>2026-05-03T09:59:08.142Z</time></trkpt><trkpt lat="43.099603" lon="12.2085735"><ele>388.5</ele><time>2026-05-03T09:59:09.14Z</time></trkpt><trkpt lat="43.099505" lon="12.208714"><ele>390.25</ele><time>2026-05-03T09:59:10.158Z</time></trkpt><trkpt lat="43.0994182" lon="12.2088302"><ele>392.0</ele><time>2026-05-03T09:59:11.139Z</time></trkpt><trkpt lat="43.0993379" lon="12.2089312"><ele>395.0</ele><time>2026-05-03T09:59:12.14Z</time></trkpt><trkpt lat="43.0992559" lon="12.2089952"><ele>398.0</ele><time>2026-05-03T09:59:13.144Z</time></trkpt><trkpt lat="43.0991529" lon="12.2090244"><ele>401.0</ele><time>2026-05-03T09:59:14.135Z</time></trkpt><trkpt lat="43.0990477" lon="12.2090338"><ele>404.0</ele><time>2026-05-03T09:59:15.139Z</time></trkpt><trkpt lat="43.0989381" lon="12.209029"><ele>407.0</ele><time>2026-05-03T09:59:16.145Z</time></trkpt><trkpt lat="43.0988403" lon="12.2090313"><ele>407.6</ele><time>2026-05-03T09:59:17.136Z</time></trkpt><trkpt lat="43.0987456" lon="12.209056"><ele>408.20000000000005</ele><time>2026-05-03T09:59:18.152Z</time></trkpt><trkpt lat="43.0986494" lon="12.2090819"><ele>408.8</ele><time>2026-05-03T09:59:19.14Z</time></trkpt><trkpt lat="43.0985512" lon="12.2091051"><ele>409.4</ele><time>2026-05-03T09:59:20.143Z</time></trkpt><trkpt lat="43.0984469" lon="12.2091079"><ele>410.0</ele><time>2026-05-03T09:59:21.145Z</time></trkpt><trkpt lat="43.0983366" lon="12.2090955"><ele>410.0</ele><time>2026-05-03T09:59:22.144Z</time></trkpt><trkpt lat="43.0982142" lon="12.209059"><ele>410.0</ele><time>2026-05-03T09:59:23.147Z</time></trkpt><trkpt lat="43.0981156" lon="12.2090197"><ele>410.0</ele><time>2026-05-03T09:59:24.15Z</time></trkpt><trkpt lat="43.0980389" lon="12.2089976"><ele>410.0</ele><time>2026-05-03T09:59:25.145Z</time></trkpt><trkpt lat="43.0979688" lon="12.2089912"><ele>410.0</ele><time>2026-05-03T09:59:26.147Z</time></trkpt><trkpt lat="43.0978936" lon="12.2090099"><ele>409.99999999999994</ele><time>2026-05-03T09:59:27.142Z</time></trkpt><trkpt lat="43.0978101" lon="12.20903"><ele>410.0</ele><time>2026-05-03T09:59:28.142Z</time></trkpt><trkpt lat="43.0977414" lon="12.2090489"><ele>410.0</ele><time>2026-05-03T09:59:29.145Z</time></trkpt><trkpt lat="43.0977039" lon="12.2091482"><ele>410.0</ele><time>2026-05-03T09:59:46.16Z</time></trkpt><trkpt lat="43.0976389" lon="12.2092902"><ele>409.99999999999994</ele><time>2026-05-03T09:59:48.15Z</time></trkpt><trkpt lat="43.0975874" lon="12.2093672"><ele>410.0</ele><time>2026-05-03T09:59:49.16Z</time></trkpt><trkpt lat="43.0975442" lon="12.2094506"><ele>410.0</ele><time>2026-05-03T09:59:50.141Z</time></trkpt><trkpt lat="43.0975282" lon="12.2095455"><ele>410.0</ele><time>2026-05-03T09:59:52.151Z</time></trkpt><trkpt lat="43.0976261" lon="12.2095786"><ele>410.0</ele><time>2026-05-03T09:59:54.147Z</time></trkpt><trkpt lat="43.0977031" lon="12.2096051"><ele>410.0</ele><time>2026-05-03T09:59:55.143Z</time></trkpt><trkpt lat="43.0978044" lon="12.2096507"><ele>410.0</ele><time>2026-05-03T09:59:56.129Z</time></trkpt><trkpt lat="43.0979211" lon="12.2096981"><ele>410.0</ele><time>2026-05-03T09:59:57.132Z</time></trkpt><trkpt lat="43.0980293" lon="12.2097482"><ele>410.0</ele><time>2026-05-03T09:59:58.137Z</time></trkpt><trkpt lat="43.0981257" lon="12.2098006"><ele>410.0</ele><time>2026-05-03T09:59:59.138Z</time></trkpt><trkpt lat="43.0981992" lon="12.2098636"><ele>410.0</ele><time>2026-05-03T10:00:00.142Z</time></trkpt><trkpt lat="43.0982497" lon="12.2099291"><ele>410.0</ele><time>2026-05-03T10:00:01.132Z</time></trkpt><trkpt lat="43.098245" lon="12.210074"><ele>412.16666666666663</ele><time>2026-05-03T10:00:03.154Z</time></trkpt><trkpt lat="43.0982372" lon="12.2101712"><ele>414.3333333333333</ele><time>2026-05-03T10:00:05.149Z</time></trkpt><trkpt lat="43.0982852" lon="12.2102318"><ele>416.5</ele><time>2026-05-03T10:00:07.142Z</time></trkpt><trkpt lat="43.0983553" lon="12.2103218"><ele>418.66666666666663</ele><time>2026-05-03T10:00:09.144Z</time></trkpt><trkpt lat="43.0984217" lon="12.2104428"><ele>420.8333333333333</ele><time>2026-05-03T10:00:11.134Z</time></trkpt><trkpt lat="43.0984721" lon="12.2105704"><ele>423.0</ele><time>2026-05-03T10:00:13.135Z</time></trkpt><trkpt lat="43.0985294" lon="12.2106651"><ele>426.2</ele><time>2026-05-03T10:00:15.146Z</time></trkpt><trkpt lat="43.0985866" lon="12.2108063"><ele>429.4</ele><time>2026-05-03T10:00:17.148Z</time></trkpt><trkpt lat="43.0985699" lon="12.2109441"><ele>432.59999999999997</ele><time>2026-05-03T10:00:19.157Z</time></trkpt><trkpt lat="43.0985437" lon="12.2110556"><ele>435.79999999999995</ele><time>2026-05-03T10:00:21.153Z</time></trkpt><trkpt lat="43.0985979" lon="12.2111795"><ele>439.0</ele><time>2026-05-03T10:00:24.167Z</time></trkpt><trkpt lat="43.0986152" lon="12.2113362"><ele>439.00000000000006</ele><time>2026-05-03T10:00:26.143Z</time></trkpt><trkpt lat="43.0986104" lon="12.2114747"><ele>439.0</ele><time>2026-05-03T10:00:28.158Z</time></trkpt><trkpt lat="43.0985973" lon="12.2115767"><ele>439.0</ele><time>2026-05-03T10:00:29.141Z</time></trkpt><trkpt lat="43.0985786" lon="12.2117008"><ele>439.0</ele><time>2026-05-03T10:00:30.139Z</time></trkpt><trkpt lat="43.0985526" lon="12.2118115"><ele>439.00000000000006</ele><time>2026-05-03T10:00:31.136Z</time></trkpt><trkpt lat="43.0985312" lon="12.2119157"><ele>439.0</ele><time>2026-05-03T10:00:32.14Z</time></trkpt><trkpt lat="43.0985105" lon="12.2120227"><ele>441.6</ele><time>2026-05-03T10:00:33.132Z</time></trkpt><trkpt lat="43.0984856" lon="12.2121908"><ele>444.2</ele><time>2026-05-03T10:00:35.138Z</time></trkpt><trkpt lat="43.0984739" lon="12.2123083"><ele>446.80000000000007</ele><time>2026-05-03T10:00:37.145Z</time></trkpt><trkpt lat="43.0985092" lon="12.2124556"><ele>449.40000000000003</ele><time>2026-05-03T10:00:40.17Z</time></trkpt><trkpt lat="43.0985553" lon="12.2126047"><ele>452.0</ele><time>2026-05-03T10:00:42.14Z</time></trkpt><trkpt lat="43.0986194" lon="12.2127089"><ele>454.40000000000003</ele><time>2026-05-03T10:00:44.148Z</time></trkpt><trkpt lat="43.0987063" lon="12.2128253"><ele>456.80000000000007</ele><time>2026-05-03T10:00:46.148Z</time></trkpt><trkpt lat="43.0987881" lon="12.2129155"><ele>459.2</ele><time>2026-05-03T10:00:48.133Z</time></trkpt><trkpt lat="43.0988808" lon="12.212961"><ele>461.6</ele><time>2026-05-03T10:00:50.149Z</time></trkpt><trkpt lat="43.0989749" lon="12.2129847"><ele>464.0</ele><time>2026-05-03T10:00:52.144Z</time></trkpt><trkpt lat="43.0990594" lon="12.2130185"><ele>465.99999999999994</ele><time>2026-05-03T10:00:54.149Z</time></trkpt><trkpt lat="43.0991323" lon="12.2130694"><ele>468.0</ele><time>2026-05-03T10:00:56.15Z</time></trkpt><trkpt lat="43.0992189" lon="12.2131303"><ele>470.0</ele><time>2026-05-03T10:00:58.142Z</time></trkpt><trkpt lat="43.0992704" lon="12.2131807"><ele>472.0</ele><time>2026-05-03T10:00:59.13Z</time></trkpt><trkpt lat="43.0993313" lon="12.2132324"><ele>473.99999999999994</ele><time>2026-05-03T10:01:00.139Z</time></trkpt><trkpt lat="43.0994188" lon="12.213321"><ele>476.0</ele><time>2026-05-03T10:01:02.142Z</time></trkpt><trkpt lat="43.0995112" lon="12.2134054"><ele>475.99999999999994</ele><time>2026-05-03T10:01:04.144Z</time></trkpt><trkpt lat="43.0995596" lon="12.2134723"><ele>476.0</ele><time>2026-05-03T10:01:05.137Z</time></trkpt><trkpt lat="43.0996083" lon="12.2135277"><ele>476.0</ele><time>2026-05-03T10:01:06.137Z</time></trkpt><trkpt lat="43.0997079" lon="12.2136103"><ele>476.0</ele><time>2026-05-03T10:01:08.142Z</time></trkpt><trkpt lat="43.0997854" lon="12.2137137"><ele>475.99999999999994</ele><time>2026-05-03T10:01:10.153Z</time></trkpt><trkpt lat="43.099825" lon="12.2138245"><ele>476.0</ele><time>2026-05-03T10:01:12.161Z</time></trkpt><trkpt lat="43.0998496" lon="12.2139755"><ele>476.99999999999994</ele><time>2026-05-03T10:01:14.141Z</time></trkpt><trkpt lat="43.099869" lon="12.2141081"><ele>478.0</ele><time>2026-05-03T10:01:16.151Z</time></trkpt><trkpt lat="43.0999044" lon="12.214202"><ele>479.0</ele><time>2026-05-03T10:01:18.157Z</time></trkpt><trkpt lat="43.0999768" lon="12.2142441"><ele>480.0</ele><time>2026-05-03T10:01:21.156Z</time></trkpt><trkpt lat="43.1000358" lon="12.2142923"><ele>480.99999999999994</ele><time>2026-05-03T10:01:23.152Z</time></trkpt><trkpt lat="43.1000824" lon="12.2143852"><ele>482.0</ele><time>2026-05-03T10:01:25.154Z</time></trkpt><trkpt lat="43.1001194" lon="12.2144876"><ele>481.99999999999994</ele><time>2026-05-03T10:01:27.159Z</time></trkpt><trkpt lat="43.1001367" lon="12.2145971"><ele>482.0</ele><time>2026-05-03T10:01:29.159Z</time></trkpt><trkpt lat="43.1001326" lon="12.2147346"><ele>482.0</ele><time>2026-05-03T10:01:31.172Z</time></trkpt><trkpt lat="43.1001305" lon="12.2148303"><ele>482.0</ele><time>2026-05-03T10:01:32.147Z</time></trkpt><trkpt lat="43.1001321" lon="12.2149215"><ele>481.99999999999994</ele><time>2026-05-03T10:01:33.151Z</time></trkpt><trkpt lat="43.1001384" lon="12.2150198"><ele>482.0</ele><time>2026-05-03T10:01:34.157Z</time></trkpt><trkpt lat="43.1001432" lon="12.2151212"><ele>484.6</ele><time>2026-05-03T10:01:35.147Z</time></trkpt><trkpt lat="43.1001668" lon="12.2152365"><ele>487.20000000000005</ele><time>2026-05-03T10:01:37.149Z</time></trkpt><trkpt lat="43.1002115" lon="12.2153462"><ele>489.8</ele><time>2026-05-03T10:01:39.168Z</time></trkpt><trkpt lat="43.1002757" lon="12.2154695"><ele>492.4</ele><time>2026-05-03T10:01:41.145Z</time></trkpt><trkpt lat="43.1003309" lon="12.2156144"><ele>495.0</ele><time>2026-05-03T10:01:43.151Z</time></trkpt><trkpt lat="43.100349" lon="12.2157045"><ele>496.2</ele><time>2026-05-03T10:01:44.142Z</time></trkpt><trkpt lat="43.1003921" lon="12.2158427"><ele>497.4</ele><time>2026-05-03T10:01:46.15Z</time></trkpt><trkpt lat="43.1004632" lon="12.2159476"><ele>498.6</ele><time>2026-05-03T10:01:48.152Z</time></trkpt><trkpt lat="43.1005497" lon="12.2160192"><ele>499.8</ele><time>2026-05-03T10:01:50.143Z</time></trkpt><trkpt lat="43.1006293" lon="12.2160555"><ele>501.0</ele><time>2026-05-03T10:01:51.138Z</time></trkpt><trkpt lat="43.1007037" lon="12.2160859"><ele>497.4</ele><time>2026-05-03T10:01:52.137Z</time></trkpt><trkpt lat="43.1008074" lon="12.2161214"><ele>493.8</ele><time>2026-05-03T10:01:54.135Z</time></trkpt><trkpt lat="43.1009262" lon="12.2161343"><ele>490.19999999999993</ele><time>2026-05-03T10:01:56.137Z</time></trkpt><trkpt lat="43.1010279" lon="12.2161612"><ele>486.59999999999997</ele><time>2026-05-03T10:01:58.145Z</time></trkpt><trkpt lat="43.1011046" lon="12.2161965"><ele>483.0</ele><time>2026-05-03T10:02:00.167Z</time></trkpt><trkpt lat="43.1011993" lon="12.2162768"><ele>483.0</ele><time>2026-05-03T10:02:02.148Z</time></trkpt><trkpt lat="43.1012823" lon="12.2163951"><ele>483.0</ele><time>2026-05-03T10:02:04.159Z</time></trkpt><trkpt lat="43.1013275" lon="12.2164561"><ele>483.0</ele><time>2026-05-03T10:02:05.147Z</time></trkpt><trkpt lat="43.1013776" lon="12.2165208"><ele>483.0</ele><time>2026-05-03T10:02:06.154Z</time></trkpt><trkpt lat="43.1014183" lon="12.2165898"><ele>483.0</ele><time>2026-05-03T10:02:07.162Z</time></trkpt><trkpt lat="43.1014691" lon="12.2167001"><ele>483.0</ele><time>2026-05-03T10:02:09.15Z</time></trkpt><trkpt lat="43.1014719" lon="12.2168378"><ele>484.0</ele><time>2026-05-03T10:02:14.177Z</time></trkpt><trkpt lat="43.1014928" lon="12.2169496"><ele>484.99999999999994</ele><time>2026-05-03T10:02:16.17Z</time></trkpt><trkpt lat="43.1015312" lon="12.2170489"><ele>485.99999999999994</ele><time>2026-05-03T10:02:18.172Z</time></trkpt><trkpt lat="43.1015474" lon="12.2171698"><ele>487.0</ele><time>2026-05-03T10:02:20.171Z</time></trkpt><trkpt lat="43.1015759" lon="12.2173419"><ele>488.0</ele><time>2026-05-03T10:02:22.153Z</time></trkpt><trkpt lat="43.1016046" lon="12.2174476"><ele>488.0</ele><time>2026-05-03T10:02:23.158Z</time></trkpt><trkpt lat="43.1016372" lon="12.217544"><ele>487.99999999999994</ele><time>2026-05-03T10:02:24.174Z</time></trkpt><trkpt lat="43.1016758" lon="12.2176263"><ele>487.99999999999994</ele><time>2026-05-03T10:02:25.16Z</time></trkpt><trkpt lat="43.1017492" lon="12.2177226"><ele>488.0</ele><time>2026-05-03T10:02:27.153Z</time></trkpt><trkpt lat="43.1018447" lon="12.2177912"><ele>488.0</ele><time>2026-05-03T10:02:29.153Z</time></trkpt><trkpt lat="43.1019555" lon="12.2178063"><ele>487.99999999999994</ele><time>2026-05-03T10:02:31.153Z</time></trkpt><trkpt lat="43.1020304" lon="12.2177824"><ele>488.0</ele><time>2026-05-03T10:02:32.147Z</time></trkpt><trkpt lat="43.1021116" lon="12.21776"><ele>487.99999999999994</ele><time>2026-05-03T10:02:33.151Z</time></trkpt><trkpt lat="43.102185" lon="12.2177464"><ele>487.99999999999994</ele><time>2026-05-03T10:02:34.16Z</time></trkpt><trkpt lat="43.1022546" lon="12.2177445"><ele>488.0</ele><time>2026-05-03T10:02:35.156Z</time></trkpt><trkpt lat="43.1023217" lon="12.2177516"><ele>487.99999999999994</ele><time>2026-05-03T10:02:36.162Z</time></trkpt><trkpt lat="43.1023859" lon="12.2177718"><ele>487.99999999999994</ele><time>2026-05-03T10:02:37.163Z</time></trkpt><trkpt lat="43.1024564" lon="12.2177868"><ele>485.79999999999995</ele><time>2026-05-03T10:02:38.16Z</time></trkpt><trkpt lat="43.1025384" lon="12.2177957"><ele>483.59999999999997</ele><time>2026-05-03T10:02:39.163Z</time></trkpt><trkpt lat="43.1026305" lon="12.2178083"><ele>481.40000000000003</ele><time>2026-05-03T10:02:40.178Z</time></trkpt><trkpt lat="43.1027241" lon="12.2178407"><ele>479.20000000000005</ele><time>2026-05-03T10:02:41.164Z</time></trkpt><trkpt lat="43.1028188" lon="12.2178881"><ele>477.0</ele><time>2026-05-03T10:02:42.164Z</time></trkpt><trkpt lat="43.1029147" lon="12.2179114"><ele>477.0</ele><time>2026-05-03T10:02:43.166Z</time></trkpt><trkpt lat="43.103014" lon="12.2179161"><ele>477.00000000000006</ele><time>2026-05-03T10:02:44.159Z</time></trkpt><trkpt lat="43.1031182" lon="12.2179178"><ele>477.00000000000006</ele><time>2026-05-03T10:02:45.164Z</time></trkpt><trkpt lat="43.1032196" lon="12.2179195"><ele>477.0</ele><time>2026-05-03T10:02:46.164Z</time></trkpt><trkpt lat="43.1033301" lon="12.2179164"><ele>477.0</ele><time>2026-05-03T10:02:47.164Z</time></trkpt><trkpt lat="43.1034326" lon="12.2179048"><ele>476.0</ele><time>2026-05-03T10:02:48.158Z</time></trkpt><trkpt lat="43.1035314" lon="12.2178901"><ele>475.00000000000006</ele><time>2026-05-03T10:02:49.169Z</time></trkpt><trkpt lat="43.1036358" lon="12.2178815"><ele>474.00000000000006</ele><time>2026-05-03T10:02:50.157Z</time></trkpt><trkpt lat="43.1037507" lon="12.217877"><ele>473.0</ele><time>2026-05-03T10:02:51.168Z</time></trkpt><trkpt lat="43.1038559" lon="12.2178817"><ele>472.0</ele><time>2026-05-03T10:02:52.156Z</time></trkpt><trkpt lat="43.1039516" lon="12.2178777"><ele>472.0</ele><time>2026-05-03T10:02:53.16Z</time></trkpt><trkpt lat="43.104043" lon="12.2178651"><ele>472.00000000000006</ele><time>2026-05-03T10:02:54.168Z</time></trkpt><trkpt lat="43.1041364" lon="12.2178219"><ele>472.00000000000006</ele><time>2026-05-03T10:02:55.178Z</time></trkpt><trkpt lat="43.1042311" lon="12.2177615"><ele>472.0</ele><time>2026-05-03T10:02:56.171Z</time></trkpt><trkpt lat="43.104319" lon="12.2177111"><ele>472.0</ele><time>2026-05-03T10:02:57.163Z</time></trkpt><trkpt lat="43.1044036" lon="12.2176797"><ele>471.20000000000005</ele><time>2026-05-03T10:02:58.169Z</time></trkpt><trkpt lat="43.1044939" lon="12.2176552"><ele>470.40000000000003</ele><time>2026-05-03T10:02:59.168Z</time></trkpt><trkpt lat="43.1045894" lon="12.21764"><ele>469.59999999999997</ele><time>2026-05-03T10:03:00.168Z</time></trkpt><trkpt lat="43.1046796" lon="12.2176233"><ele>468.79999999999995</ele><time>2026-05-03T10:03:01.166Z</time></trkpt><trkpt lat="43.1047694" lon="12.2175986"><ele>468.0</ele><time>2026-05-03T10:03:02.165Z</time></trkpt><trkpt lat="43.1048623" lon="12.2175666"><ele>468.59999999999997</ele><time>2026-05-03T10:03:03.166Z</time></trkpt><trkpt lat="43.1049559" lon="12.2175267"><ele>469.19999999999993</ele><time>2026-05-03T10:03:04.161Z</time></trkpt><trkpt lat="43.1050497" lon="12.2174829"><ele>469.8</ele><time>2026-05-03T10:03:05.163Z</time></trkpt><trkpt lat="43.1051394" lon="12.2174521"><ele>470.4</ele><time>2026-05-03T10:03:06.161Z</time></trkpt><trkpt lat="43.105221" lon="12.2174178"><ele>471.0</ele><time>2026-05-03T10:03:07.162Z</time></trkpt><trkpt lat="43.1053054" lon="12.2173808"><ele>471.0</ele><time>2026-05-03T10:03:08.153Z</time></trkpt><trkpt lat="43.1053858" lon="12.2173385"><ele>471.0</ele><time>2026-05-03T10:03:09.159Z</time></trkpt><trkpt lat="43.105472" lon="12.2172974"><ele>471.0</ele><time>2026-05-03T10:03:10.175Z</time></trkpt><trkpt lat="43.1055607" lon="12.2172548"><ele>471.0</ele><time>2026-05-03T10:03:11.152Z</time></trkpt><trkpt lat="43.1056529" lon="12.2172058"><ele>471.0</ele><time>2026-05-03T10:03:12.149Z</time></trkpt><trkpt lat="43.1057556" lon="12.2171627"><ele>470.6666666666667</ele><time>2026-05-03T10:03:13.154Z</time></trkpt><trkpt lat="43.1058476" lon="12.217133"><ele>470.33333333333337</ele><time>2026-05-03T10:03:14.15Z</time></trkpt><trkpt lat="43.1059237" lon="12.2171296"><ele>470.0</ele><time>2026-05-03T10:03:15.144Z</time></trkpt><trkpt lat="43.1059981" lon="12.2171476"><ele>469.6666666666667</ele><time>2026-05-03T10:03:16.144Z</time></trkpt><trkpt lat="43.1060823" lon="12.2171925"><ele>469.33333333333337</ele><time>2026-05-03T10:03:17.138Z</time></trkpt><trkpt lat="43.1061698" lon="12.2172483"><ele>469.0</ele><time>2026-05-03T10:03:18.149Z</time></trkpt><trkpt lat="43.1062457" lon="12.2173017"><ele>470.1666666666667</ele><time>2026-05-03T10:03:19.149Z</time></trkpt><trkpt lat="43.1063205" lon="12.2173477"><ele>471.33333333333337</ele><time>2026-05-03T10:03:20.148Z</time></trkpt><trkpt lat="43.1063998" lon="12.2173879"><ele>472.5</ele><time>2026-05-03T10:03:21.154Z</time></trkpt><trkpt lat="43.106481" lon="12.2174289"><ele>473.66666666666663</ele><time>2026-05-03T10:03:22.15Z</time></trkpt><trkpt lat="43.1065541" lon="12.2174587"><ele>474.8333333333333</ele><time>2026-05-03T10:03:23.147Z</time></trkpt><trkpt lat="43.1066213" lon="12.2174855"><ele>476.0</ele><time>2026-05-03T10:03:24.156Z</time></trkpt><trkpt lat="43.1066855" lon="12.2175065"><ele>475.99999999999994</ele><time>2026-05-03T10:03:25.158Z</time></trkpt><trkpt lat="43.1067975" lon="12.217513"><ele>476.0</ele><time>2026-05-03T10:03:27.151Z</time></trkpt><trkpt lat="43.1068724" lon="12.2175024"><ele>476.0</ele><time>2026-05-03T10:03:28.157Z</time></trkpt><trkpt lat="43.1069476" lon="12.2174989"><ele>476.0</ele><time>2026-05-03T10:03:29.156Z</time></trkpt><trkpt lat="43.1070126" lon="12.2175156"><ele>475.99999999999994</ele><time>2026-05-03T10:03:30.154Z</time></trkpt><trkpt lat="43.1070739" lon="12.2175409"><ele>476.0</ele><time>2026-05-03T10:03:31.156Z</time></trkpt><trkpt lat="43.1071383" lon="12.2175624"><ele>476.0</ele><time>2026-05-03T10:03:32.157Z</time></trkpt><trkpt lat="43.1072475" lon="12.2176153"><ele>476.0</ele><time>2026-05-03T10:03:34.156Z</time></trkpt><trkpt lat="43.1073498" lon="12.217706"><ele>476.0</ele><time>2026-05-03T10:03:36.153Z</time></trkpt><trkpt lat="43.1073996" lon="12.2177794"><ele>476.0</ele><time>2026-05-03T10:03:37.15Z</time></trkpt><trkpt lat="43.107464" lon="12.217871"><ele>476.0</ele><time>2026-05-03T10:03:38.146Z</time></trkpt><trkpt lat="43.1075445" lon="12.2179613"><ele>474.6</ele><time>2026-05-03T10:03:39.15Z</time></trkpt><trkpt lat="43.1076194" lon="12.2180361"><ele>473.20000000000005</ele><time>2026-05-03T10:03:40.167Z</time></trkpt><trkpt lat="43.1076864" lon="12.218106"><ele>471.79999999999995</ele><time>2026-05-03T10:03:41.155Z</time></trkpt><trkpt lat="43.107739" lon="12.2181615"><ele>470.4</ele><time>2026-05-03T10:03:42.149Z</time></trkpt><trkpt lat="43.1078162" lon="12.2182577"><ele>469.0</ele><time>2026-05-03T10:03:44.151Z</time></trkpt><trkpt lat="43.1078572" lon="12.2183894"><ele>469.00000000000006</ele><time>2026-05-03T10:03:46.16Z</time></trkpt><trkpt lat="43.1078604" lon="12.2184991"><ele>469.0</ele><time>2026-05-03T10:03:47.163Z</time></trkpt><trkpt lat="43.1078376" lon="12.2186068"><ele>469.0</ele><time>2026-05-03T10:03:48.153Z</time></trkpt><trkpt lat="43.1078053" lon="12.218732"><ele>469.0</ele><time>2026-05-03T10:03:49.163Z</time></trkpt><trkpt lat="43.1077791" lon="12.2188591"><ele>469.00000000000006</ele><time>2026-05-03T10:03:50.155Z</time></trkpt><trkpt lat="43.1077643" lon="12.2189752"><ele>469.0</ele><time>2026-05-03T10:03:51.15Z</time></trkpt><trkpt lat="43.1077613" lon="12.2190644"><ele>468.57142857142856</ele><time>2026-05-03T10:03:52.148Z</time></trkpt><trkpt lat="43.1077744" lon="12.2191493"><ele>468.1428571428571</ele><time>2026-05-03T10:03:53.16Z</time></trkpt><trkpt lat="43.1078048" lon="12.2192442"><ele>467.7142857142857</ele><time>2026-05-03T10:03:54.157Z</time></trkpt><trkpt lat="43.1078414" lon="12.2193334"><ele>467.2857142857143</ele><time>2026-05-03T10:03:55.159Z</time></trkpt><trkpt lat="43.1078821" lon="12.2194068"><ele>466.85714285714283</ele><time>2026-05-03T10:03:56.16Z</time></trkpt><trkpt lat="43.1079233" lon="12.2194764"><ele>466.42857142857144</ele><time>2026-05-03T10:03:57.169Z</time></trkpt><trkpt lat="43.1079777" lon="12.2195435"><ele>466.0</ele><time>2026-05-03T10:03:58.159Z</time></trkpt><trkpt lat="43.1080409" lon="12.2196205"><ele>466.00000000000006</ele><time>2026-05-03T10:03:59.165Z</time></trkpt><trkpt lat="43.108113" lon="12.2197115"><ele>466.0</ele><time>2026-05-03T10:04:00.16Z</time></trkpt><trkpt lat="43.1081783" lon="12.2197867"><ele>466.0</ele><time>2026-05-03T10:04:01.166Z</time></trkpt><trkpt lat="43.1082403" lon="12.2198403"><ele>466.0</ele><time>2026-05-03T10:04:02.158Z</time></trkpt><trkpt lat="43.1083022" lon="12.2198771"><ele>466.00000000000006</ele><time>2026-05-03T10:04:03.158Z</time></trkpt><trkpt lat="43.1083905" lon="12.2199479"><ele>466.0</ele><time>2026-05-03T10:04:05.149Z</time></trkpt><trkpt lat="43.1084366" lon="12.220047"><ele>463.6</ele><time>2026-05-03T10:04:07.166Z</time></trkpt><trkpt lat="43.1084717" lon="12.220149"><ele>461.20000000000005</ele><time>2026-05-03T10:04:09.174Z</time></trkpt><trkpt lat="43.1085484" lon="12.2202363"><ele>458.79999999999995</ele><time>2026-05-03T10:04:11.159Z</time></trkpt><trkpt lat="43.1086122" lon="12.2203845"><ele>456.4</ele><time>2026-05-03T10:04:13.157Z</time></trkpt><trkpt lat="43.1086595" lon="12.2204728"><ele>454.0</ele><time>2026-05-03T10:04:14.161Z</time></trkpt><trkpt lat="43.1087047" lon="12.2205443"><ele>454.00000000000006</ele><time>2026-05-03T10:04:15.161Z</time></trkpt><trkpt lat="43.1087645" lon="12.2206046"><ele>454.0</ele><time>2026-05-03T10:04:16.152Z</time></trkpt><trkpt lat="43.1088314" lon="12.2206586"><ele>454.0</ele><time>2026-05-03T10:04:17.16Z</time></trkpt><trkpt lat="43.1088973" lon="12.2207024"><ele>454.0</ele><time>2026-05-03T10:04:18.158Z</time></trkpt><trkpt lat="43.108967" lon="12.2207418"><ele>454.00000000000006</ele><time>2026-05-03T10:04:19.155Z</time></trkpt><trkpt lat="43.1090389" lon="12.2207808"><ele>454.0</ele><time>2026-05-03T10:04:20.15Z</time></trkpt><trkpt lat="43.1091089" lon="12.2208222"><ele>454.6666666666667</ele><time>2026-05-03T10:04:21.145Z</time></trkpt><trkpt lat="43.1091665" lon="12.2208749"><ele>455.33333333333337</ele><time>2026-05-03T10:04:22.151Z</time></trkpt><trkpt lat="43.1092087" lon="12.2209397"><ele>456.0</ele><time>2026-05-03T10:04:23.149Z</time></trkpt><trkpt lat="43.1092658" lon="12.221084"><ele>456.66666666666663</ele><time>2026-05-03T10:04:25.145Z</time></trkpt><trkpt lat="43.1093181" lon="12.2211878"><ele>457.3333333333333</ele><time>2026-05-03T10:04:27.146Z</time></trkpt><trkpt lat="43.1093837" lon="12.2212412"><ele>458.0</ele><time>2026-05-03T10:04:29.156Z</time></trkpt><trkpt lat="43.1094369" lon="12.2212987"><ele>458.0</ele><time>2026-05-03T10:04:31.154Z</time></trkpt><trkpt lat="43.1094565" lon="12.2214127"><ele>457.99999999999994</ele><time>2026-05-03T10:04:33.165Z</time></trkpt><trkpt lat="43.109487" lon="12.2215326"><ele>457.99999999999994</ele><time>2026-05-03T10:04:35.159Z</time></trkpt><trkpt lat="43.109554" lon="12.2216326"><ele>458.0</ele><time>2026-05-03T10:04:37.146Z</time></trkpt><trkpt lat="43.1095492" lon="12.22179"><ele>458.0</ele><time>2026-05-03T10:04:39.149Z</time></trkpt><trkpt lat="43.1095849" lon="12.2219312"><ele>458.59999999999997</ele><time>2026-05-03T10:04:41.161Z</time></trkpt><trkpt lat="43.1096415" lon="12.2220783"><ele>459.19999999999993</ele><time>2026-05-03T10:04:43.141Z</time></trkpt><trkpt lat="43.1097165" lon="12.2222092"><ele>459.8</ele><time>2026-05-03T10:04:45.14Z</time></trkpt><trkpt lat="43.1097891" lon="12.2223307"><ele>460.4</ele><time>2026-05-03T10:04:47.14Z</time></trkpt><trkpt lat="43.109824" lon="12.2224062"><ele>461.0</ele><time>2026-05-03T10:04:48.142Z</time></trkpt><trkpt lat="43.1098666" lon="12.2224895"><ele>463.3333333333333</ele><time>2026-05-03T10:04:49.142Z</time></trkpt><trkpt lat="43.1099161" lon="12.2225836"><ele>465.66666666666663</ele><time>2026-05-03T10:04:50.136Z</time></trkpt><trkpt lat="43.1099603" lon="12.2226753"><ele>468.0</ele><time>2026-05-03T10:04:51.137Z</time></trkpt><trkpt lat="43.1099983" lon="12.2227581"><ele>470.33333333333337</ele><time>2026-05-03T10:04:52.136Z</time></trkpt><trkpt lat="43.1100293" lon="12.2228537"><ele>472.6666666666667</ele><time>2026-05-03T10:04:53.136Z</time></trkpt><trkpt lat="43.1100789" lon="12.2230029"><ele>475.0</ele><time>2026-05-03T10:04:55.136Z</time></trkpt><trkpt lat="43.1101015" lon="12.2230943"><ele>476.0</ele><time>2026-05-03T10:04:56.134Z</time></trkpt><trkpt lat="43.1101339" lon="12.2231822"><ele>477.0</ele><time>2026-05-03T10:04:57.135Z</time></trkpt><trkpt lat="43.1102307" lon="12.2233078"><ele>478.0</ele><time>2026-05-03T10:04:59.152Z</time></trkpt><trkpt lat="43.1102849" lon="12.2233662"><ele>479.0</ele><time>2026-05-03T10:05:00.142Z</time></trkpt><trkpt lat="43.1103489" lon="12.223464"><ele>480.0</ele><time>2026-05-03T10:05:02.143Z</time></trkpt><trkpt lat="43.1104169" lon="12.223557"><ele>480.0</ele><time>2026-05-03T10:05:04.141Z</time></trkpt><trkpt lat="43.1105001" lon="12.2236591"><ele>480.0</ele><time>2026-05-03T10:05:06.14Z</time></trkpt><trkpt lat="43.1105546" lon="12.2237262"><ele>480.0</ele><time>2026-05-03T10:05:07.139Z</time></trkpt><trkpt lat="43.1106146" lon="12.2237856"><ele>480.0</ele><time>2026-05-03T10:05:08.135Z</time></trkpt><trkpt lat="43.1106749" lon="12.223904"><ele>480.0</ele><time>2026-05-03T10:05:10.151Z</time></trkpt><trkpt lat="43.1106877" lon="12.2240142"><ele>480.0</ele><time>2026-05-03T10:05:12.155Z</time></trkpt><trkpt lat="43.1107141" lon="12.2241203"><ele>481.6</ele><time>2026-05-03T10:05:13.137Z</time></trkpt><trkpt lat="43.1107464" lon="12.2242609"><ele>483.2</ele><time>2026-05-03T10:05:14.136Z</time></trkpt><trkpt lat="43.1107766" lon="12.2243712"><ele>484.79999999999995</ele><time>2026-05-03T10:05:15.139Z</time></trkpt><trkpt lat="43.1108091" lon="12.224457"><ele>486.4</ele><time>2026-05-03T10:05:16.14Z</time></trkpt><trkpt lat="43.1108715" lon="12.2246087"><ele>488.0</ele><time>2026-05-03T10:05:18.138Z</time></trkpt><trkpt lat="43.1109449" lon="12.2247355"><ele>487.99999999999994</ele><time>2026-05-03T10:05:20.149Z</time></trkpt><trkpt lat="43.1110127" lon="12.224754"><ele>488.0</ele><time>2026-05-03T10:05:21.147Z</time></trkpt><trkpt lat="43.1110856" lon="12.2247565"><ele>488.0</ele><time>2026-05-03T10:05:22.149Z</time></trkpt><trkpt lat="43.1111539" lon="12.2247344"><ele>488.0</ele><time>2026-05-03T10:05:23.151Z</time></trkpt><trkpt lat="43.1112108" lon="12.2246847"><ele>487.99999999999994</ele><time>2026-05-03T10:05:24.148Z</time></trkpt><trkpt lat="43.1112845" lon="12.2246038"><ele>488.0</ele><time>2026-05-03T10:05:26.146Z</time></trkpt><trkpt lat="43.1113748" lon="12.2245352"><ele>488.0</ele><time>2026-05-03T10:05:28.149Z</time></trkpt><trkpt lat="43.1114719" lon="12.2244437"><ele>487.99999999999994</ele><time>2026-05-03T10:05:30.164Z</time></trkpt><trkpt lat="43.11157" lon="12.2243613"><ele>487.99999999999994</ele><time>2026-05-03T10:05:32.148Z</time></trkpt><trkpt lat="43.1116549" lon="12.2242713"><ele>488.0</ele><time>2026-05-03T10:05:34.143Z</time></trkpt><trkpt lat="43.111732" lon="12.2241875"><ele>488.0</ele><time>2026-05-03T10:05:36.158Z</time></trkpt><trkpt lat="43.111814" lon="12.2241289"><ele>486.99999999999994</ele><time>2026-05-03T10:05:38.155Z</time></trkpt><trkpt lat="43.1118972" lon="12.2240829"><ele>486.0</ele><time>2026-05-03T10:05:40.163Z</time></trkpt><trkpt lat="43.1119795" lon="12.2240159"><ele>485.0</ele><time>2026-05-03T10:05:42.155Z</time></trkpt><trkpt lat="43.1120661" lon="12.2239652"><ele>484.0</ele><time>2026-05-03T10:05:44.15Z</time></trkpt><trkpt lat="43.1121253" lon="12.2239262"><ele>482.99999999999994</ele><time>2026-05-03T10:05:46.147Z</time></trkpt><trkpt lat="43.1121748" lon="12.2238646"><ele>482.0</ele><time>2026-05-03T10:05:48.152Z</time></trkpt><trkpt lat="43.1122363" lon="12.2238233"><ele>480.0</ele><time>2026-05-03T10:05:51.154Z</time></trkpt><trkpt lat="43.1123035" lon="12.2237644"><ele>478.00000000000006</ele><time>2026-05-03T10:05:54.152Z</time></trkpt><trkpt lat="43.1123565" lon="12.2236603"><ele>476.00000000000006</ele><time>2026-05-03T10:05:56.149Z</time></trkpt><trkpt lat="43.1124061" lon="12.2235546"><ele>474.0</ele><time>2026-05-03T10:05:58.144Z</time></trkpt><trkpt lat="43.1124773" lon="12.2234317"><ele>472.0</ele><time>2026-05-03T10:06:00.142Z</time></trkpt><trkpt lat="43.1125645" lon="12.2233077"><ele>469.50000000000006</ele><time>2026-05-03T10:06:02.14Z</time></trkpt><trkpt lat="43.1126074" lon="12.2232407"><ele>467.0</ele><time>2026-05-03T10:06:03.14Z</time></trkpt><trkpt lat="43.112645" lon="12.2231686"><ele>464.5</ele><time>2026-05-03T10:06:04.141Z</time></trkpt><trkpt lat="43.1127132" lon="12.2230637"><ele>462.0</ele><time>2026-05-03T10:06:06.139Z</time></trkpt><trkpt lat="43.1127858" lon="12.2230612"><ele>459.50000000000006</ele><time>2026-05-03T10:06:08.152Z</time></trkpt><trkpt lat="43.1128684" lon="12.2231874"><ele>457.0</ele><time>2026-05-03T10:06:10.161Z</time></trkpt><trkpt lat="43.1128995" lon="12.2233407"><ele>457.0</ele><time>2026-05-03T10:06:12.147Z</time></trkpt><trkpt lat="43.1129557" lon="12.2234907"><ele>457.00000000000006</ele><time>2026-05-03T10:06:14.149Z</time></trkpt><trkpt lat="43.1129838" lon="12.2235768"><ele>457.00000000000006</ele><time>2026-05-03T10:06:15.13Z</time></trkpt><trkpt lat="43.1130207" lon="12.2237303"><ele>457.0</ele><time>2026-05-03T10:06:17.137Z</time></trkpt><trkpt lat="43.1130513" lon="12.22388"><ele>457.0</ele><time>2026-05-03T10:06:19.141Z</time></trkpt><trkpt lat="43.1130865" lon="12.2240053"><ele>458.0</ele><time>2026-05-03T10:06:21.146Z</time></trkpt><trkpt lat="43.1131521" lon="12.2240926"><ele>459.00000000000006</ele><time>2026-05-03T10:06:23.153Z</time></trkpt><trkpt lat="43.1132112" lon="12.2242197"><ele>460.00000000000006</ele><time>2026-05-03T10:06:25.14Z</time></trkpt><trkpt lat="43.1132473" lon="12.2243561"><ele>461.0</ele><time>2026-05-03T10:06:27.142Z</time></trkpt><trkpt lat="43.113272" lon="12.2244493"><ele>462.0</ele><time>2026-05-03T10:06:29.153Z</time></trkpt><trkpt lat="43.1133353" lon="12.2244967"><ele>459.20000000000005</ele><time>2026-05-03T10:06:31.154Z</time></trkpt><trkpt lat="43.1134149" lon="12.2245102"><ele>456.40000000000003</ele><time>2026-05-03T10:06:33.156Z</time></trkpt><trkpt lat="43.1134847" lon="12.2245925"><ele>453.59999999999997</ele><time>2026-05-03T10:06:35.155Z</time></trkpt><trkpt lat="43.1135763" lon="12.224662"><ele>450.79999999999995</ele><time>2026-05-03T10:06:37.155Z</time></trkpt><trkpt lat="43.1136834" lon="12.2246996"><ele>448.0</ele><time>2026-05-03T10:06:39.144Z</time></trkpt><trkpt lat="43.1137723" lon="12.2247146"><ele>448.00000000000006</ele><time>2026-05-03T10:06:41.157Z</time></trkpt><trkpt lat="43.1138665" lon="12.2247121"><ele>448.0</ele><time>2026-05-03T10:06:43.156Z</time></trkpt><trkpt lat="43.1139402" lon="12.2247539"><ele>448.0</ele><time>2026-05-03T10:06:45.16Z</time></trkpt><trkpt lat="43.1139596" lon="12.2248621"><ele>448.0</ele><time>2026-05-03T10:06:47.154Z</time></trkpt><trkpt lat="43.1140003" lon="12.2249282"><ele>448.00000000000006</ele><time>2026-05-03T10:06:49.154Z</time></trkpt><trkpt lat="43.1140558" lon="12.2249707"><ele>448.0</ele><time>2026-05-03T10:06:51.151Z</time></trkpt><trkpt lat="43.1141473" lon="12.2250356"><ele>446.33333333333337</ele><time>2026-05-03T10:06:53.148Z</time></trkpt><trkpt lat="43.1142384" lon="12.2250915"><ele>444.6666666666667</ele><time>2026-05-03T10:06:55.149Z</time></trkpt><trkpt lat="43.1143054" lon="12.225106"><ele>443.0</ele><time>2026-05-03T10:06:56.149Z</time></trkpt><trkpt lat="43.1144205" lon="12.2251342"><ele>441.33333333333337</ele><time>2026-05-03T10:06:58.154Z</time></trkpt><trkpt lat="43.1145" lon="12.2251462"><ele>439.6666666666667</ele><time>2026-05-03T10:07:00.156Z</time></trkpt><trkpt lat="43.114577" lon="12.2251348"><ele>438.0</ele><time>2026-05-03T10:07:02.157Z</time></trkpt><trkpt lat="43.114663" lon="12.225079"><ele>438.0</ele><time>2026-05-03T10:07:04.155Z</time></trkpt><trkpt lat="43.114721" lon="12.2250143"><ele>438.0</ele><time>2026-05-03T10:07:06.158Z</time></trkpt><trkpt lat="43.114795" lon="12.2249306"><ele>438.0</ele><time>2026-05-03T10:07:09.159Z</time></trkpt><trkpt lat="43.1148662" lon="12.2248744"><ele>438.0</ele><time>2026-05-03T10:07:11.156Z</time></trkpt><trkpt lat="43.1149381" lon="12.2248066"><ele>438.0</ele><time>2026-05-03T10:07:13.156Z</time></trkpt><trkpt lat="43.1150166" lon="12.2247461"><ele>438.0</ele><time>2026-05-03T10:07:15.157Z</time></trkpt><trkpt lat="43.1150688" lon="12.2246879"><ele>434.8333333333333</ele><time>2026-05-03T10:07:17.16Z</time></trkpt><trkpt lat="43.1151083" lon="12.2246039"><ele>431.66666666666663</ele><time>2026-05-03T10:07:19.158Z</time></trkpt><trkpt lat="43.1151562" lon="12.2245089"><ele>428.5</ele><time>2026-05-03T10:07:21.155Z</time></trkpt><trkpt lat="43.1152289" lon="12.2244716"><ele>425.3333333333333</ele><time>2026-05-03T10:07:23.153Z</time></trkpt><trkpt lat="43.1152993" lon="12.2245538"><ele>422.16666666666663</ele><time>2026-05-03T10:07:25.16Z</time></trkpt><trkpt lat="43.1153808" lon="12.2246043"><ele>419.0</ele><time>2026-05-03T10:07:27.16Z</time></trkpt><trkpt lat="43.1154481" lon="12.224593"><ele>418.99999999999994</ele><time>2026-05-03T10:07:28.158Z</time></trkpt><trkpt lat="43.1155416" lon="12.2245659"><ele>419.0</ele><time>2026-05-03T10:07:29.145Z</time></trkpt><trkpt lat="43.1156372" lon="12.2245552"><ele>419.0</ele><time>2026-05-03T10:07:30.151Z</time></trkpt><trkpt lat="43.1157166" lon="12.2245349"><ele>419.0</ele><time>2026-05-03T10:07:31.145Z</time></trkpt><trkpt lat="43.1157907" lon="12.2245149"><ele>418.99999999999994</ele><time>2026-05-03T10:07:32.147Z</time></trkpt><trkpt lat="43.1158646" lon="12.2244945"><ele>419.0</ele><time>2026-05-03T10:07:33.148Z</time></trkpt><trkpt lat="43.1159348" lon="12.2244787"><ele>417.49999999999994</ele><time>2026-05-03T10:07:34.162Z</time></trkpt><trkpt lat="43.1160085" lon="12.2244667"><ele>416.0</ele><time>2026-05-03T10:07:35.149Z</time></trkpt><trkpt lat="43.1160755" lon="12.2244484"><ele>414.5</ele><time>2026-05-03T10:07:36.145Z</time></trkpt><trkpt lat="43.1161706" lon="12.2243749"><ele>413.0</ele><time>2026-05-03T10:07:38.146Z</time></trkpt><trkpt lat="43.1161211" lon="12.2242355"><ele>411.49999999999994</ele><time>2026-05-03T10:08:36.164Z</time></trkpt><trkpt lat="43.1160709" lon="12.2241796"><ele>410.0</ele><time>2026-05-03T10:08:37.148Z</time></trkpt><trkpt lat="43.115991" lon="12.2241041"><ele>410.0</ele><time>2026-05-03T10:08:39.145Z</time></trkpt><trkpt lat="43.1159395" lon="12.2240085"><ele>410.0</ele><time>2026-05-03T10:08:41.142Z</time></trkpt><trkpt lat="43.1159766" lon="12.2238772"><ele>410.0</ele><time>2026-05-03T10:08:43.151Z</time></trkpt><trkpt lat="43.1160703" lon="12.2237955"><ele>410.0</ele><time>2026-05-03T10:08:45.134Z</time></trkpt><trkpt lat="43.1161791" lon="12.2237251"><ele>410.0</ele><time>2026-05-03T10:08:47.133Z</time></trkpt><trkpt lat="43.1163037" lon="12.2236969"><ele>407.5714285714286</ele><time>2026-05-03T10:08:49.127Z</time></trkpt><trkpt lat="43.1163694" lon="12.2236691"><ele>405.1428571428571</ele><time>2026-05-03T10:08:50.118Z</time></trkpt><trkpt lat="43.1164344" lon="12.2236334"><ele>402.7142857142857</ele><time>2026-05-03T10:08:51.134Z</time></trkpt><trkpt lat="43.1165005" lon="12.2235928"><ele>400.28571428571433</ele><time>2026-05-03T10:08:52.128Z</time></trkpt><trkpt lat="43.1165718" lon="12.2235554"><ele>397.8571428571429</ele><time>2026-05-03T10:08:53.123Z</time></trkpt><trkpt lat="43.1166408" lon="12.2235217"><ele>395.42857142857144</ele><time>2026-05-03T10:08:54.127Z</time></trkpt><trkpt lat="43.1167033" lon="12.2234974"><ele>393.0</ele><time>2026-05-03T10:08:55.127Z</time></trkpt><trkpt lat="43.1168146" lon="12.2234457"><ele>392.2</ele><time>2026-05-03T10:08:57.131Z</time></trkpt><trkpt lat="43.116905" lon="12.2233907"><ele>391.4</ele><time>2026-05-03T10:08:59.129Z</time></trkpt><trkpt lat="43.1169569" lon="12.2232919"><ele>390.59999999999997</ele><time>2026-05-03T10:09:01.131Z</time></trkpt><trkpt lat="43.1169947" lon="12.2231566"><ele>389.79999999999995</ele><time>2026-05-03T10:09:03.126Z</time></trkpt><trkpt lat="43.1170713" lon="12.2230508"><ele>389.0</ele><time>2026-05-03T10:09:05.129Z</time></trkpt><trkpt lat="43.1171766" lon="12.2229928"><ele>385.3333333333333</ele><time>2026-05-03T10:09:07.141Z</time></trkpt><trkpt lat="43.1172326" lon="12.222948"><ele>381.66666666666663</ele><time>2026-05-03T10:09:08.131Z</time></trkpt><trkpt lat="43.1172947" lon="12.2229102"><ele>378.0</ele><time>2026-05-03T10:09:09.127Z</time></trkpt><trkpt lat="43.117409" lon="12.2229003"><ele>374.3333333333333</ele><time>2026-05-03T10:09:11.125Z</time></trkpt><trkpt lat="43.1174836" lon="12.2229158"><ele>370.66666666666663</ele><time>2026-05-03T10:09:12.127Z</time></trkpt><trkpt lat="43.117581" lon="12.2229387"><ele>367.0</ele><time>2026-05-03T10:09:13.128Z</time></trkpt><trkpt lat="43.1176861" lon="12.2229269"><ele>367.0</ele><time>2026-05-03T10:09:14.129Z</time></trkpt><trkpt lat="43.1177859" lon="12.222912"><ele>367.0</ele><time>2026-05-03T10:09:15.125Z</time></trkpt><trkpt lat="43.1178676" lon="12.222906"><ele>367.0</ele><time>2026-05-03T10:09:16.127Z</time></trkpt><trkpt lat="43.1179425" lon="12.2229213"><ele>367.0</ele><time>2026-05-03T10:09:17.135Z</time></trkpt><trkpt lat="43.1180184" lon="12.2229666"><ele>367.0</ele><time>2026-05-03T10:09:18.132Z</time></trkpt><trkpt lat="43.1181003" lon="12.2230169"><ele>367.0</ele><time>2026-05-03T10:09:19.133Z</time></trkpt><trkpt lat="43.1181867" lon="12.2230746"><ele>365.0</ele><time>2026-05-03T10:09:20.134Z</time></trkpt><trkpt lat="43.1182661" lon="12.2231413"><ele>363.0</ele><time>2026-05-03T10:09:21.368Z</time></trkpt><trkpt lat="43.1184002" lon="12.2233486"><ele>361.0</ele><time>2026-05-03T10:09:23.147Z</time></trkpt><trkpt lat="43.1184571" lon="12.2234718"><ele>359.0</ele><time>2026-05-03T10:09:24.146Z</time></trkpt><trkpt lat="43.1185158" lon="12.2235853"><ele>362.2</ele><time>2026-05-03T10:09:25.149Z</time></trkpt><trkpt lat="43.1185732" lon="12.2236889"><ele>365.4</ele><time>2026-05-03T10:09:26.152Z</time></trkpt><trkpt lat="43.1186332" lon="12.2237918"><ele>368.6</ele><time>2026-05-03T10:09:27.15Z</time></trkpt><trkpt lat="43.1187016" lon="12.223892"><ele>371.8</ele><time>2026-05-03T10:09:28.154Z</time></trkpt><trkpt lat="43.118781" lon="12.2239948"><ele>375.0</ele><time>2026-05-03T10:09:29.154Z</time></trkpt><trkpt lat="43.1188632" lon="12.2240887"><ele>376.6</ele><time>2026-05-03T10:09:30.153Z</time></trkpt><trkpt lat="43.1189422" lon="12.2241773"><ele>378.2</ele><time>2026-05-03T10:09:31.155Z</time></trkpt><trkpt lat="43.1190147" lon="12.2242706"><ele>379.79999999999995</ele><time>2026-05-03T10:09:32.149Z</time></trkpt><trkpt lat="43.1190759" lon="12.2243675"><ele>381.4</ele><time>2026-05-03T10:09:33.15Z</time></trkpt><trkpt lat="43.1191331" lon="12.2244673"><ele>383.0</ele><time>2026-05-03T10:09:34.149Z</time></trkpt><trkpt lat="43.1191881" lon="12.2245714"><ele>379.83333333333337</ele><time>2026-05-03T10:09:35.148Z</time></trkpt><trkpt lat="43.1192444" lon="12.2246709"><ele>376.6666666666667</ele><time>2026-05-03T10:09:36.151Z</time></trkpt><trkpt lat="43.1192936" lon="12.2247601"><ele>373.5</ele><time>2026-05-03T10:09:37.149Z</time></trkpt><trkpt lat="43.1193395" lon="12.2248397"><ele>370.3333333333333</ele><time>2026-05-03T10:09:38.164Z</time></trkpt><trkpt lat="43.119386" lon="12.2249113"><ele>367.16666666666663</ele><time>2026-05-03T10:09:39.15Z</time></trkpt><trkpt lat="43.119462" lon="12.2250245"><ele>364.0</ele><time>2026-05-03T10:09:41.152Z</time></trkpt><trkpt lat="43.1195295" lon="12.2251412"><ele>364.0</ele><time>2026-05-03T10:09:43.152Z</time></trkpt><trkpt lat="43.1196011" lon="12.2252738"><ele>364.0</ele><time>2026-05-03T10:09:45.149Z</time></trkpt><trkpt lat="43.1196302" lon="12.2253572"><ele>364.0</ele><time>2026-05-03T10:09:46.154Z</time></trkpt><trkpt lat="43.1196666" lon="12.2254531"><ele>364.0</ele><time>2026-05-03T10:09:47.156Z</time></trkpt><trkpt lat="43.1196945" lon="12.2255703"><ele>364.0</ele><time>2026-05-03T10:09:48.15Z</time></trkpt><trkpt lat="43.1197222" lon="12.2256814"><ele>364.0</ele><time>2026-05-03T10:09:49.148Z</time></trkpt><trkpt lat="43.1197572" lon="12.2257847"><ele>362.8333333333333</ele><time>2026-05-03T10:09:50.155Z</time></trkpt><trkpt lat="43.1198056" lon="12.2258731"><ele>361.66666666666663</ele><time>2026-05-03T10:09:51.159Z</time></trkpt><trkpt lat="43.1198667" lon="12.2259629"><ele>360.5</ele><time>2026-05-03T10:09:52.151Z</time></trkpt><trkpt lat="43.1199382" lon="12.2260484"><ele>359.3333333333333</ele><time>2026-05-03T10:09:53.153Z</time></trkpt><trkpt lat="43.1200056" lon="12.2261379"><ele>358.1666666666667</ele><time>2026-05-03T10:09:54.154Z</time></trkpt><trkpt lat="43.1200702" lon="12.226216"><ele>357.0</ele><time>2026-05-03T10:09:55.149Z</time></trkpt><trkpt lat="43.1201471" lon="12.2262867"><ele>351.0</ele><time>2026-05-03T10:09:56.155Z</time></trkpt><trkpt lat="43.1202523" lon="12.2263639"><ele>345.0</ele><time>2026-05-03T10:09:57.151Z</time></trkpt><trkpt lat="43.1203883" lon="12.2264609"><ele>339.0</ele><time>2026-05-03T10:09:58.149Z</time></trkpt><trkpt lat="43.1205569" lon="12.2265744"><ele>338.0</ele><time>2026-05-03T10:09:59.152Z</time></trkpt><trkpt lat="43.1207285" lon="12.226693"><ele>337.0</ele><time>2026-05-03T10:10:00.156Z</time></trkpt><trkpt lat="43.1208757" lon="12.2268053"><ele>336.0</ele><time>2026-05-03T10:10:01.153Z</time></trkpt><trkpt lat="43.1210101" lon="12.2269032"><ele>333.25</ele><time>2026-05-03T10:10:02.153Z</time></trkpt><trkpt lat="43.1211331" lon="12.2270026"><ele>330.5</ele><time>2026-05-03T10:10:03.157Z</time></trkpt><trkpt lat="43.1212616" lon="12.2271082"><ele>327.75</ele><time>2026-05-03T10:10:04.156Z</time></trkpt><trkpt lat="43.1213834" lon="12.2271999"><ele>325.0</ele><time>2026-05-03T10:10:05.156Z</time></trkpt><trkpt lat="43.1214847" lon="12.2272866"><ele>323.5</ele><time>2026-05-03T10:10:06.154Z</time></trkpt><trkpt lat="43.1215901" lon="12.2273725"><ele>322.0</ele><time>2026-05-03T10:10:07.157Z</time></trkpt><trkpt lat="43.1217" lon="12.2274589"><ele>320.5</ele><time>2026-05-03T10:10:08.16Z</time></trkpt><trkpt lat="43.1218252" lon="12.2275513"><ele>319.0</ele><time>2026-05-03T10:10:09.172Z</time></trkpt><trkpt lat="43.121943" lon="12.2276338"><ele>319.0</ele><time>2026-05-03T10:10:10.16Z</time></trkpt><trkpt lat="43.122039" lon="12.2277058"><ele>319.0</ele><time>2026-05-03T10:10:11.157Z</time></trkpt><trkpt lat="43.1221289" lon="12.2277753"><ele>319.0</ele><time>2026-05-03T10:10:12.156Z</time></trkpt><trkpt lat="43.1222129" lon="12.2278372"><ele>319.0</ele><time>2026-05-03T10:10:13.155Z</time></trkpt><trkpt lat="43.1222996" lon="12.2278902"><ele>319.0</ele><time>2026-05-03T10:10:14.157Z</time></trkpt><trkpt lat="43.1223767" lon="12.2279389"><ele>318.16666666666663</ele><time>2026-05-03T10:10:15.158Z</time></trkpt><trkpt lat="43.1224418" lon="12.2279836"><ele>317.3333333333333</ele><time>2026-05-03T10:10:16.158Z</time></trkpt><trkpt lat="43.1224984" lon="12.2280341"><ele>316.5</ele><time>2026-05-03T10:10:17.156Z</time></trkpt><trkpt lat="43.1225958" lon="12.2280816"><ele>315.6666666666667</ele><time>2026-05-03T10:10:19.155Z</time></trkpt><trkpt lat="43.1226668" lon="12.2280421"><ele>314.83333333333337</ele><time>2026-05-03T10:10:21.171Z</time></trkpt><trkpt lat="43.1226534" lon="12.2279017"><ele>314.0</ele><time>2026-05-03T10:10:23.159Z</time></trkpt><trkpt lat="43.1226347" lon="12.2278055"><ele>314.0</ele><time>2026-05-03T10:10:24.159Z</time></trkpt><trkpt lat="43.1226381" lon="12.2276973"><ele>314.0</ele><time>2026-05-03T10:10:25.154Z</time></trkpt><trkpt lat="43.1226533" lon="12.2275764"><ele>314.0</ele><time>2026-05-03T10:10:26.146Z</time></trkpt><trkpt lat="43.1226657" lon="12.2274522"><ele>314.0</ele><time>2026-05-03T10:10:27.145Z</time></trkpt><trkpt lat="43.1226688" lon="12.2273355"><ele>314.0</ele><time>2026-05-03T10:10:28.144Z</time></trkpt><trkpt lat="43.1226601" lon="12.2272224"><ele>314.0</ele><time>2026-05-03T10:10:29.142Z</time></trkpt><trkpt lat="43.1226346" lon="12.2271063"><ele>312.0</ele><time>2026-05-03T10:10:30.147Z</time></trkpt><trkpt lat="43.1225768" lon="12.2269706"><ele>310.0</ele><time>2026-05-03T10:10:31.146Z</time></trkpt><trkpt lat="43.1225151" lon="12.2268305"><ele>308.0</ele><time>2026-05-03T10:10:32.137Z</time></trkpt><trkpt lat="43.1224584" lon="12.2267055"><ele>306.0</ele><time>2026-05-03T10:10:33.139Z</time></trkpt><trkpt lat="43.1224073" lon="12.2265803"><ele>304.0</ele><time>2026-05-03T10:10:34.145Z</time></trkpt><trkpt lat="43.1223633" lon="12.2264588"><ele>303.16666666666663</ele><time>2026-05-03T10:10:35.146Z</time></trkpt><trkpt lat="43.1223152" lon="12.2263488"><ele>302.3333333333333</ele><time>2026-05-03T10:10:36.145Z</time></trkpt><trkpt lat="43.1222661" lon="12.2262428"><ele>301.5</ele><time>2026-05-03T10:10:37.144Z</time></trkpt><trkpt lat="43.1222207" lon="12.2261374"><ele>300.6666666666667</ele><time>2026-05-03T10:10:38.143Z</time></trkpt><trkpt lat="43.1221728" lon="12.2260387"><ele>299.83333333333337</ele><time>2026-05-03T10:10:39.14Z</time></trkpt><trkpt lat="43.1221217" lon="12.2259574"><ele>299.0</ele><time>2026-05-03T10:10:40.185Z</time></trkpt><trkpt lat="43.1220733" lon="12.2258942"><ele>299.0</ele><time>2026-05-03T10:10:41.143Z</time></trkpt><trkpt lat="43.1220207" lon="12.2257856"><ele>299.0</ele><time>2026-05-03T10:10:43.149Z</time></trkpt><trkpt lat="43.1220879" lon="12.2256694"><ele>299.0</ele><time>2026-05-03T10:10:45.145Z</time></trkpt><trkpt lat="43.1221503" lon="12.225625"><ele>299.0</ele><time>2026-05-03T10:10:46.145Z</time></trkpt><trkpt lat="43.1222073" lon="12.2255773"><ele>299.0</ele><time>2026-05-03T10:10:47.142Z</time></trkpt><trkpt lat="43.1222389" lon="12.225456"><ele>299.0</ele><time>2026-05-03T10:10:49.146Z</time></trkpt><trkpt lat="43.122144" lon="12.225393"><ele>296.0</ele><time>2026-05-03T10:10:51.159Z</time></trkpt><trkpt lat="43.1220595" lon="12.2253914"><ele>293.0</ele><time>2026-05-03T10:10:52.146Z</time></trkpt><trkpt lat="43.1219803" lon="12.2253859"><ele>290.0</ele><time>2026-05-03T10:10:53.148Z</time></trkpt><trkpt lat="43.1218891" lon="12.2253137"><ele>287.0</ele><time>2026-05-03T10:10:55.147Z</time></trkpt><trkpt lat="43.1219451" lon="12.2251775"><ele>284.0</ele><time>2026-05-03T10:10:57.143Z</time></trkpt><trkpt lat="43.1220143" lon="12.225107"><ele>284.0</ele><time>2026-05-03T10:10:58.144Z</time></trkpt><trkpt lat="43.1220955" lon="12.2250276"><ele>284.0</ele><time>2026-05-03T10:10:59.144Z</time></trkpt><trkpt lat="43.1221879" lon="12.2249385"><ele>284.0</ele><time>2026-05-03T10:11:00.14Z</time></trkpt><trkpt lat="43.1222846" lon="12.2248801"><ele>284.0</ele><time>2026-05-03T10:11:01.148Z</time></trkpt><trkpt lat="43.1223875" lon="12.2248528"><ele>284.0</ele><time>2026-05-03T10:11:02.14Z</time></trkpt><trkpt lat="43.1224993" lon="12.2248364"><ele>282.2</ele><time>2026-05-03T10:11:03.14Z</time></trkpt><trkpt lat="43.1226146" lon="12.2248299"><ele>280.4</ele><time>2026-05-03T10:11:04.146Z</time></trkpt><trkpt lat="43.1227159" lon="12.224834"><ele>278.6</ele><time>2026-05-03T10:11:05.147Z</time></trkpt><trkpt lat="43.1228069" lon="12.2248511"><ele>276.8</ele><time>2026-05-03T10:11:06.144Z</time></trkpt><trkpt lat="43.1228898" lon="12.2248928"><ele>275.0</ele><time>2026-05-03T10:11:07.147Z</time></trkpt><trkpt lat="43.1229655" lon="12.2249507"><ele>275.0</ele><time>2026-05-03T10:11:08.141Z</time></trkpt><trkpt lat="43.1230441" lon="12.2250221"><ele>275.0</ele><time>2026-05-03T10:11:09.141Z</time></trkpt><trkpt lat="43.1231297" lon="12.225108"><ele>275.0</ele><time>2026-05-03T10:11:10.16Z</time></trkpt><trkpt lat="43.12322" lon="12.2251965"><ele>275.0</ele><time>2026-05-03T10:11:11.137Z</time></trkpt><trkpt lat="43.1233084" lon="12.2252684"><ele>275.0</ele><time>2026-05-03T10:11:12.13Z</time></trkpt><trkpt lat="43.1233879" lon="12.2253117"><ele>272.4</ele><time>2026-05-03T10:11:13.132Z</time></trkpt><trkpt lat="43.1234687" lon="12.22533"><ele>269.8</ele><time>2026-05-03T10:11:14.141Z</time></trkpt><trkpt lat="43.1235417" lon="12.2253001"><ele>267.2</ele><time>2026-05-03T10:11:15.139Z</time></trkpt><trkpt lat="43.1236026" lon="12.2252034"><ele>264.6</ele><time>2026-05-03T10:11:16.138Z</time></trkpt><trkpt lat="43.1236388" lon="12.2250419"><ele>262.0</ele><time>2026-05-03T10:11:17.133Z</time></trkpt><trkpt lat="43.1236811" lon="12.2248776"><ele>260.2</ele><time>2026-05-03T10:11:18.138Z</time></trkpt><trkpt lat="43.1237381" lon="12.2247211"><ele>258.4</ele><time>2026-05-03T10:11:19.141Z</time></trkpt><trkpt lat="43.1238041" lon="12.2245824"><ele>256.6</ele><time>2026-05-03T10:11:20.138Z</time></trkpt><trkpt lat="43.1238671" lon="12.2244744"><ele>254.8</ele><time>2026-05-03T10:11:21.135Z</time></trkpt><trkpt lat="43.1239356" lon="12.2243878"><ele>253.0</ele><time>2026-05-03T10:11:22.134Z</time></trkpt><trkpt lat="43.1240124" lon="12.2243229"><ele>250.75</ele><time>2026-05-03T10:11:23.142Z</time></trkpt><trkpt lat="43.1241094" lon="12.2243027"><ele>248.5</ele><time>2026-05-03T10:11:24.138Z</time></trkpt><trkpt lat="43.1242359" lon="12.224319"><ele>246.25</ele><time>2026-05-03T10:11:25.133Z</time></trkpt><trkpt lat="43.1243741" lon="12.2243658"><ele>244.0</ele><time>2026-05-03T10:11:26.137Z</time></trkpt><trkpt lat="43.1245092" lon="12.2244175"><ele>244.0</ele><time>2026-05-03T10:11:27.14Z</time></trkpt><trkpt lat="43.1246351" lon="12.2244627"><ele>243.99999999999997</ele><time>2026-05-03T10:11:28.14Z</time></trkpt><trkpt lat="43.1247452" lon="12.2244962"><ele>243.99999999999997</ele><time>2026-05-03T10:11:29.142Z</time></trkpt><trkpt lat="43.1248489" lon="12.2245064"><ele>244.0</ele><time>2026-05-03T10:11:30.149Z</time></trkpt><trkpt lat="43.1249464" lon="12.2244948"><ele>244.0</ele><time>2026-05-03T10:11:31.143Z</time></trkpt><trkpt lat="43.1250385" lon="12.2244744"><ele>243.39999999999998</ele><time>2026-05-03T10:11:32.141Z</time></trkpt><trkpt lat="43.1251216" lon="12.22443"><ele>242.79999999999998</ele><time>2026-05-03T10:11:33.145Z</time></trkpt><trkpt lat="43.1252108" lon="12.2243409"><ele>242.20000000000002</ele><time>2026-05-03T10:11:34.139Z</time></trkpt><trkpt lat="43.1253062" lon="12.2242469"><ele>241.60000000000002</ele><time>2026-05-03T10:11:35.145Z</time></trkpt><trkpt lat="43.1254028" lon="12.2241611"><ele>241.0</ele><time>2026-05-03T10:11:36.139Z</time></trkpt><trkpt lat="43.1254878" lon="12.2240699"><ele>241.0</ele><time>2026-05-03T10:11:37.138Z</time></trkpt><trkpt lat="43.1255709" lon="12.2239907"><ele>241.00000000000003</ele><time>2026-05-03T10:11:38.144Z</time></trkpt><trkpt lat="43.1256576" lon="12.2239272"><ele>241.00000000000003</ele><time>2026-05-03T10:11:39.145Z</time></trkpt><trkpt lat="43.1257457" lon="12.2238695"><ele>241.0</ele><time>2026-05-03T10:11:40.156Z</time></trkpt><trkpt lat="43.1258379" lon="12.2238074"><ele>241.0</ele><time>2026-05-03T10:11:41.162Z</time></trkpt><trkpt lat="43.1259424" lon="12.2237317"><ele>239.0</ele><time>2026-05-03T10:11:42.149Z</time></trkpt><trkpt lat="43.1260738" lon="12.2236348"><ele>237.0</ele><time>2026-05-03T10:11:43.146Z</time></trkpt><trkpt lat="43.1262251" lon="12.2235254"><ele>235.0</ele><time>2026-05-03T10:11:44.152Z</time></trkpt><trkpt lat="43.1263738" lon="12.2234161"><ele>235.0</ele><time>2026-05-03T10:11:45.156Z</time></trkpt><trkpt lat="43.1265068" lon="12.2233075"><ele>235.0</ele><time>2026-05-03T10:11:46.153Z</time></trkpt><trkpt lat="43.1266319" lon="12.2232046"><ele>235.0</ele><time>2026-05-03T10:11:47.155Z</time></trkpt><trkpt lat="43.1267402" lon="12.2231265"><ele>235.0</ele><time>2026-05-03T10:11:48.155Z</time></trkpt><trkpt lat="43.1268203" lon="12.2230485"><ele>234.8</ele><time>2026-05-03T10:11:49.155Z</time></trkpt><trkpt lat="43.1268696" lon="12.2229446"><ele>234.6</ele><time>2026-05-03T10:11:50.156Z</time></trkpt><trkpt lat="43.1268985" lon="12.2228081"><ele>234.39999999999998</ele><time>2026-05-03T10:11:51.154Z</time></trkpt><trkpt lat="43.1269019" lon="12.2226387"><ele>234.2</ele><time>2026-05-03T10:11:52.151Z</time></trkpt><trkpt lat="43.1268813" lon="12.2224624"><ele>234.0</ele><time>2026-05-03T10:11:53.15Z</time></trkpt><trkpt lat="43.1268422" lon="12.2222654"><ele>234.0</ele><time>2026-05-03T10:11:54.15Z</time></trkpt><trkpt lat="43.1267894" lon="12.2220693"><ele>234.0</ele><time>2026-05-03T10:11:55.154Z</time></trkpt><trkpt lat="43.1267479" lon="12.2218855"><ele>234.0</ele><time>2026-05-03T10:11:56.153Z</time></trkpt><trkpt lat="43.1267191" lon="12.2217079"><ele>234.0</ele><time>2026-05-03T10:11:57.152Z</time></trkpt><trkpt lat="43.1266881" lon="12.2215449"><ele>234.0</ele><time>2026-05-03T10:11:58.153Z</time></trkpt><trkpt lat="43.1266725" lon="12.2214068"><ele>233.99999999999997</ele><time>2026-05-03T10:11:59.156Z</time></trkpt><trkpt lat="43.1266849" lon="12.2212771"><ele>233.99999999999997</ele><time>2026-05-03T10:12:00.155Z</time></trkpt><trkpt lat="43.1267437" lon="12.2211535"><ele>234.0</ele><time>2026-05-03T10:12:01.154Z</time></trkpt><trkpt lat="43.1268344" lon="12.2210546"><ele>234.0</ele><time>2026-05-03T10:12:02.154Z</time></trkpt><trkpt lat="43.1269493" lon="12.2209644"><ele>234.0</ele><time>2026-05-03T10:12:03.156Z</time></trkpt><trkpt lat="43.1270773" lon="12.2208759"><ele>234.0</ele><time>2026-05-03T10:12:04.158Z</time></trkpt><trkpt lat="43.1271955" lon="12.2207846"><ele>234.0</ele><time>2026-05-03T10:12:05.15Z</time></trkpt><trkpt lat="43.1272998" lon="12.2206992"><ele>234.0</ele><time>2026-05-03T10:12:06.157Z</time></trkpt><trkpt lat="43.1273938" lon="12.2206297"><ele>234.39999999999998</ele><time>2026-05-03T10:12:07.155Z</time></trkpt><trkpt lat="43.1274833" lon="12.2205904"><ele>234.79999999999998</ele><time>2026-05-03T10:12:08.144Z</time></trkpt><trkpt lat="43.1275794" lon="12.2205854"><ele>235.20000000000002</ele><time>2026-05-03T10:12:09.152Z</time></trkpt><trkpt lat="43.127674" lon="12.2205872"><ele>235.60000000000002</ele><time>2026-05-03T10:12:10.154Z</time></trkpt><trkpt lat="43.1277563" lon="12.2205476"><ele>236.0</ele><time>2026-05-03T10:12:11.152Z</time></trkpt><trkpt lat="43.1278303" lon="12.2204411"><ele>236.0</ele><time>2026-05-03T10:12:12.167Z</time></trkpt><trkpt lat="43.1278849" lon="12.2202692"><ele>236.0</ele><time>2026-05-03T10:12:13.15Z</time></trkpt><trkpt lat="43.1279267" lon="12.2200571"><ele>236.0</ele><time>2026-05-03T10:12:14.146Z</time></trkpt><trkpt lat="43.1279585" lon="12.2198455"><ele>235.5</ele><time>2026-05-03T10:12:15.147Z</time></trkpt><trkpt lat="43.1279874" lon="12.219674"><ele>235.0</ele><time>2026-05-03T10:12:16.145Z</time></trkpt><trkpt lat="43.1280333" lon="12.2195286"><ele>234.5</ele><time>2026-05-03T10:12:17.151Z</time></trkpt><trkpt lat="43.1281048" lon="12.2194068"><ele>234.0</ele><time>2026-05-03T10:12:18.15Z</time></trkpt><trkpt lat="43.1282021" lon="12.2193293"><ele>233.5</ele><time>2026-05-03T10:12:19.153Z</time></trkpt><trkpt lat="43.128312" lon="12.2192657"><ele>233.0</ele><time>2026-05-03T10:12:20.147Z</time></trkpt><trkpt lat="43.1284426" lon="12.2192389"><ele>232.5</ele><time>2026-05-03T10:12:21.148Z</time></trkpt><trkpt lat="43.1285791" lon="12.2192208"><ele>232.0</ele><time>2026-05-03T10:12:22.153Z</time></trkpt><trkpt lat="43.1287225" lon="12.2192161"><ele>232.0</ele><time>2026-05-03T10:12:23.147Z</time></trkpt><trkpt lat="43.1288561" lon="12.2192166"><ele>232.0</ele><time>2026-05-03T10:12:24.15Z</time></trkpt><trkpt lat="43.1289732" lon="12.2192077"><ele>232.0</ele><time>2026-05-03T10:12:25.15Z</time></trkpt><trkpt lat="43.1290733" lon="12.2191576"><ele>232.0</ele><time>2026-05-03T10:12:26.148Z</time></trkpt><trkpt lat="43.1291673" lon="12.2190484"><ele>232.33333333333331</ele><time>2026-05-03T10:12:27.148Z</time></trkpt><trkpt lat="43.1292661" lon="12.2188869"><ele>232.66666666666669</ele><time>2026-05-03T10:12:28.15Z</time></trkpt><trkpt lat="43.1293817" lon="12.2186891"><ele>233.0</ele><time>2026-05-03T10:12:29.148Z</time></trkpt><trkpt lat="43.1295004" lon="12.2184754"><ele>233.0</ele><time>2026-05-03T10:12:30.145Z</time></trkpt><trkpt lat="43.1296208" lon="12.2182542"><ele>233.0</ele><time>2026-05-03T10:12:31.153Z</time></trkpt><trkpt lat="43.1297524" lon="12.2180203"><ele>233.0</ele><time>2026-05-03T10:12:32.151Z</time></trkpt><trkpt lat="43.1298611" lon="12.2177985"><ele>233.0</ele><time>2026-05-03T10:12:33.151Z</time></trkpt><trkpt lat="43.1299608" lon="12.2175697"><ele>233.0</ele><time>2026-05-03T10:12:34.149Z</time></trkpt><trkpt lat="43.1300688" lon="12.2173266"><ele>233.0</ele><time>2026-05-03T10:12:35.15Z</time></trkpt><trkpt lat="43.1301783" lon="12.217095"><ele>233.0</ele><time>2026-05-03T10:12:36.148Z</time></trkpt><trkpt lat="43.1302904" lon="12.2168923"><ele>233.0</ele><time>2026-05-03T10:12:37.148Z</time></trkpt><trkpt lat="43.1304266" lon="12.2166911"><ele>233.0</ele><time>2026-05-03T10:12:38.153Z</time></trkpt><trkpt lat="43.1305768" lon="12.216481"><ele>233.5</ele><time>2026-05-03T10:12:39.153Z</time></trkpt><trkpt lat="43.130746" lon="12.2162618"><ele>234.0</ele><time>2026-05-03T10:12:40.158Z</time></trkpt><trkpt lat="43.130901" lon="12.2160534"><ele>234.0</ele><time>2026-05-03T10:12:41.148Z</time></trkpt><trkpt lat="43.1310369" lon="12.2158766"><ele>234.0</ele><time>2026-05-03T10:12:42.155Z</time></trkpt><trkpt lat="43.1311638" lon="12.2157205"><ele>234.0</ele><time>2026-05-03T10:12:43.168Z</time></trkpt><trkpt lat="43.1312976" lon="12.2155627"><ele>233.66666666666669</ele><time>2026-05-03T10:12:44.151Z</time></trkpt><trkpt lat="43.131437" lon="12.2153875"><ele>233.33333333333334</ele><time>2026-05-03T10:12:45.149Z</time></trkpt><trkpt lat="43.131585" lon="12.2151981"><ele>233.0</ele><time>2026-05-03T10:12:46.15Z</time></trkpt><trkpt lat="43.1317302" lon="12.2149955"><ele>232.66666666666669</ele><time>2026-05-03T10:12:47.152Z</time></trkpt><trkpt lat="43.1318601" lon="12.2147986"><ele>232.33333333333331</ele><time>2026-05-03T10:12:48.152Z</time></trkpt><trkpt lat="43.131991" lon="12.2146066"><ele>232.0</ele><time>2026-05-03T10:12:49.152Z</time></trkpt><trkpt lat="43.1321168" lon="12.2144033"><ele>232.0</ele><time>2026-05-03T10:12:50.153Z</time></trkpt><trkpt lat="43.1322492" lon="12.2141512"><ele>232.0</ele><time>2026-05-03T10:12:51.156Z</time></trkpt><trkpt lat="43.1323713" lon="12.21392"><ele>232.0</ele><time>2026-05-03T10:12:52.156Z</time></trkpt><trkpt lat="43.1324865" lon="12.2137287"><ele>232.0</ele><time>2026-05-03T10:12:53.154Z</time></trkpt><trkpt lat="43.1326005" lon="12.2135387"><ele>232.0</ele><time>2026-05-03T10:12:54.154Z</time></trkpt><trkpt lat="43.1327208" lon="12.213359"><ele>232.0</ele><time>2026-05-03T10:12:55.157Z</time></trkpt><trkpt lat="43.1328403" lon="12.2131787"><ele>232.66666666666666</ele><time>2026-05-03T10:12:56.151Z</time></trkpt><trkpt lat="43.132954" lon="12.2130087"><ele>233.33333333333331</ele><time>2026-05-03T10:12:57.155Z</time></trkpt><trkpt lat="43.1330652" lon="12.2128475"><ele>234.0</ele><time>2026-05-03T10:12:58.151Z</time></trkpt><trkpt lat="43.1331769" lon="12.2126978"><ele>234.0</ele><time>2026-05-03T10:12:59.151Z</time></trkpt><trkpt lat="43.1332925" lon="12.2125448"><ele>234.0</ele><time>2026-05-03T10:13:00.153Z</time></trkpt><trkpt lat="43.1334148" lon="12.2123946"><ele>234.0</ele><time>2026-05-03T10:13:01.154Z</time></trkpt><trkpt lat="43.1335386" lon="12.2122332"><ele>233.66666666666669</ele><time>2026-05-03T10:13:02.151Z</time></trkpt><trkpt lat="43.1336647" lon="12.212078"><ele>233.33333333333334</ele><time>2026-05-03T10:13:03.151Z</time></trkpt><trkpt lat="43.1337829" lon="12.2119133"><ele>233.0</ele><time>2026-05-03T10:13:04.149Z</time></trkpt><trkpt lat="43.1338929" lon="12.2117665"><ele>233.0</ele><time>2026-05-03T10:13:05.15Z</time></trkpt><trkpt lat="43.1340003" lon="12.2116256"><ele>233.0</ele><time>2026-05-03T10:13:06.148Z</time></trkpt><trkpt lat="43.134096" lon="12.2114626"><ele>233.0</ele><time>2026-05-03T10:13:07.142Z</time></trkpt><trkpt lat="43.1341703" lon="12.2112786"><ele>233.5</ele><time>2026-05-03T10:13:08.136Z</time></trkpt><trkpt lat="43.134231" lon="12.2110959"><ele>234.0</ele><time>2026-05-03T10:13:09.141Z</time></trkpt><trkpt lat="43.1342912" lon="12.2109111"><ele>234.5</ele><time>2026-05-03T10:13:10.146Z</time></trkpt><trkpt lat="43.1343476" lon="12.2107239"><ele>235.0</ele><time>2026-05-03T10:13:11.139Z</time></trkpt><trkpt lat="43.1343976" lon="12.2105634"><ele>235.0</ele><time>2026-05-03T10:13:12.139Z</time></trkpt><trkpt lat="43.1344492" lon="12.2104158"><ele>235.0</ele><time>2026-05-03T10:13:13.144Z</time></trkpt><trkpt lat="43.1344949" lon="12.2102723"><ele>235.0</ele><time>2026-05-03T10:13:14.151Z</time></trkpt><trkpt lat="43.1345354" lon="12.2101354"><ele>235.0</ele><time>2026-05-03T10:13:15.136Z</time></trkpt><trkpt lat="43.1345661" lon="12.210018"><ele>235.0</ele><time>2026-05-03T10:13:16.137Z</time></trkpt><trkpt lat="43.1345838" lon="12.2099214"><ele>235.16666666666666</ele><time>2026-05-03T10:13:17.136Z</time></trkpt><trkpt lat="43.1346034" lon="12.2097977"><ele>235.33333333333331</ele><time>2026-05-03T10:13:19.142Z</time></trkpt><trkpt lat="43.1346194" lon="12.2097052"><ele>235.5</ele><time>2026-05-03T10:13:40.167Z</time></trkpt><trkpt lat="43.1346274" lon="12.2095776"><ele>235.66666666666669</ele><time>2026-05-03T10:13:42.162Z</time></trkpt><trkpt lat="43.1346392" lon="12.2094675"><ele>235.83333333333334</ele><time>2026-05-03T10:13:43.148Z</time></trkpt><trkpt lat="43.1346659" lon="12.2093638"><ele>236.0</ele><time>2026-05-03T10:13:44.148Z</time></trkpt><trkpt lat="43.1346982" lon="12.2092815"><ele>236.0</ele><time>2026-05-03T10:13:45.161Z</time></trkpt><trkpt lat="43.1348188" lon="12.2092442"><ele>236.0</ele><time>2026-05-03T10:13:47.149Z</time></trkpt><trkpt lat="43.1349071" lon="12.2092958"><ele>236.0</ele><time>2026-05-03T10:13:48.147Z</time></trkpt><trkpt lat="43.1350187" lon="12.209383"><ele>236.0</ele><time>2026-05-03T10:13:49.15Z</time></trkpt><trkpt lat="43.1351418" lon="12.2094564"><ele>237.33333333333334</ele><time>2026-05-03T10:13:50.157Z</time></trkpt><trkpt lat="43.1352761" lon="12.2095593"><ele>238.66666666666669</ele><time>2026-05-03T10:13:51.155Z</time></trkpt><trkpt lat="43.1354321" lon="12.2096691"><ele>240.0</ele><time>2026-05-03T10:13:52.147Z</time></trkpt><trkpt lat="43.1356287" lon="12.209795"><ele>239.33333333333331</ele><time>2026-05-03T10:13:53.153Z</time></trkpt><trkpt lat="43.1358152" lon="12.2099107"><ele>238.66666666666666</ele><time>2026-05-03T10:13:54.154Z</time></trkpt><trkpt lat="43.1359895" lon="12.2100221"><ele>238.0</ele><time>2026-05-03T10:13:55.155Z</time></trkpt><trkpt lat="43.1361711" lon="12.2101354"><ele>238.0</ele><time>2026-05-03T10:13:56.151Z</time></trkpt><trkpt lat="43.1363469" lon="12.2102549"><ele>238.0</ele><time>2026-05-03T10:13:57.151Z</time></trkpt><trkpt lat="43.1364941" lon="12.2103512"><ele>238.0</ele><time>2026-05-03T10:13:58.159Z</time></trkpt><trkpt lat="43.1366476" lon="12.2104428"><ele>238.0</ele><time>2026-05-03T10:13:59.158Z</time></trkpt><trkpt lat="43.136797" lon="12.2105362"><ele>238.0</ele><time>2026-05-03T10:14:00.149Z</time></trkpt><trkpt lat="43.1369454" lon="12.2106252"><ele>238.0</ele><time>2026-05-03T10:14:01.148Z</time></trkpt><trkpt lat="43.1370868" lon="12.2106997"><ele>238.0</ele><time>2026-05-03T10:14:02.152Z</time></trkpt><trkpt lat="43.137227" lon="12.2107609"><ele>238.0</ele><time>2026-05-03T10:14:03.148Z</time></trkpt><trkpt lat="43.1373765" lon="12.2108176"><ele>238.0</ele><time>2026-05-03T10:14:04.147Z</time></trkpt><trkpt lat="43.1375348" lon="12.2108724"><ele>237.66666666666666</ele><time>2026-05-03T10:14:05.151Z</time></trkpt><trkpt lat="43.1376954" lon="12.210921"><ele>237.33333333333331</ele><time>2026-05-03T10:14:06.151Z</time></trkpt><trkpt lat="43.1378582" lon="12.210967"><ele>237.0</ele><time>2026-05-03T10:14:07.154Z</time></trkpt><trkpt lat="43.1380202" lon="12.2109967"><ele>237.0</ele><time>2026-05-03T10:14:08.154Z</time></trkpt><trkpt lat="43.1381838" lon="12.2110397"><ele>237.0</ele><time>2026-05-03T10:14:09.158Z</time></trkpt><trkpt lat="43.1383553" lon="12.2110819"><ele>237.0</ele><time>2026-05-03T10:14:10.166Z</time></trkpt><trkpt lat="43.1385362" lon="12.21113"><ele>237.66666666666669</ele><time>2026-05-03T10:14:11.151Z</time></trkpt><trkpt lat="43.1387163" lon="12.2111699"><ele>238.33333333333334</ele><time>2026-05-03T10:14:12.15Z</time></trkpt><trkpt lat="43.1388842" lon="12.2111877"><ele>239.0</ele><time>2026-05-03T10:14:13.154Z</time></trkpt><trkpt lat="43.1390515" lon="12.2112062"><ele>239.0</ele><time>2026-05-03T10:14:14.152Z</time></trkpt><trkpt lat="43.139223" lon="12.2111993"><ele>239.0</ele><time>2026-05-03T10:14:15.151Z</time></trkpt><trkpt lat="43.1393947" lon="12.211168"><ele>239.0</ele><time>2026-05-03T10:14:16.165Z</time></trkpt><trkpt lat="43.1395691" lon="12.2111235"><ele>239.0</ele><time>2026-05-03T10:14:17.154Z</time></trkpt><trkpt lat="43.1397497" lon="12.2110806"><ele>239.0</ele><time>2026-05-03T10:14:18.155Z</time></trkpt><trkpt lat="43.1399267" lon="12.2110331"><ele>239.0</ele><time>2026-05-03T10:14:19.159Z</time></trkpt><trkpt lat="43.1400832" lon="12.2109924"><ele>238.33333333333334</ele><time>2026-05-03T10:14:20.157Z</time></trkpt><trkpt lat="43.1402374" lon="12.2109647"><ele>237.66666666666669</ele><time>2026-05-03T10:14:21.155Z</time></trkpt><trkpt lat="43.1403958" lon="12.2109356"><ele>237.0</ele><time>2026-05-03T10:14:22.151Z</time></trkpt><trkpt lat="43.140552" lon="12.2109225"><ele>237.0</ele><time>2026-05-03T10:14:23.151Z</time></trkpt><trkpt lat="43.1407136" lon="12.2109445"><ele>237.0</ele><time>2026-05-03T10:14:24.151Z</time></trkpt><trkpt lat="43.1408806" lon="12.210989"><ele>237.0</ele><time>2026-05-03T10:14:25.154Z</time></trkpt><trkpt lat="43.1410448" lon="12.2110462"><ele>237.66666666666669</ele><time>2026-05-03T10:14:26.151Z</time></trkpt><trkpt lat="43.1412064" lon="12.2111038"><ele>238.33333333333334</ele><time>2026-05-03T10:14:27.151Z</time></trkpt><trkpt lat="43.1413575" lon="12.2111552"><ele>239.0</ele><time>2026-05-03T10:14:28.158Z</time></trkpt><trkpt lat="43.1415" lon="12.2112021"><ele>240.33333333333334</ele><time>2026-05-03T10:14:29.159Z</time></trkpt><trkpt lat="43.1416467" lon="12.2112563"><ele>241.66666666666669</ele><time>2026-05-03T10:14:30.158Z</time></trkpt><trkpt lat="43.1417989" lon="12.2113029"><ele>243.0</ele><time>2026-05-03T10:14:31.158Z</time></trkpt><trkpt lat="43.141943" lon="12.2113481"><ele>243.0</ele><time>2026-05-03T10:14:32.153Z</time></trkpt><trkpt lat="43.1420717" lon="12.2113906"><ele>243.0</ele><time>2026-05-03T10:14:33.155Z</time></trkpt><trkpt lat="43.1422066" lon="12.21143"><ele>243.0</ele><time>2026-05-03T10:14:34.151Z</time></trkpt><trkpt lat="43.142344" lon="12.2114851"><ele>243.0</ele><time>2026-05-03T10:14:35.152Z</time></trkpt><trkpt lat="43.1424786" lon="12.2115263"><ele>243.0</ele><time>2026-05-03T10:14:36.151Z</time></trkpt><trkpt lat="43.142601" lon="12.2115681"><ele>243.0</ele><time>2026-05-03T10:14:37.152Z</time></trkpt><trkpt lat="43.1427253" lon="12.2116128"><ele>243.0</ele><time>2026-05-03T10:14:38.149Z</time></trkpt><trkpt lat="43.1428539" lon="12.2116638"><ele>243.0</ele><time>2026-05-03T10:14:39.149Z</time></trkpt><trkpt lat="43.1429639" lon="12.2117319"><ele>243.0</ele><time>2026-05-03T10:14:40.16Z</time></trkpt><trkpt lat="43.1430625" lon="12.2118065"><ele>243.0</ele><time>2026-05-03T10:14:41.149Z</time></trkpt><trkpt lat="43.1431633" lon="12.2118915"><ele>243.0</ele><time>2026-05-03T10:14:42.15Z</time></trkpt><trkpt lat="43.1432546" lon="12.2119835"><ele>243.0</ele><time>2026-05-03T10:14:43.151Z</time></trkpt><trkpt lat="43.1433412" lon="12.2120716"><ele>243.0</ele><time>2026-05-03T10:14:44.154Z</time></trkpt><trkpt lat="43.143422" lon="12.2121579"><ele>243.0</ele><time>2026-05-03T10:14:45.154Z</time></trkpt><trkpt lat="43.1434981" lon="12.2122475"><ele>243.0</ele><time>2026-05-03T10:14:46.156Z</time></trkpt><trkpt lat="43.1435635" lon="12.2123294"><ele>243.0</ele><time>2026-05-03T10:14:47.172Z</time></trkpt><trkpt lat="43.1436175" lon="12.2124035"><ele>243.0</ele><time>2026-05-03T10:14:48.151Z</time></trkpt><trkpt lat="43.1436695" lon="12.2124695"><ele>243.0</ele><time>2026-05-03T10:14:49.154Z</time></trkpt><trkpt lat="43.1437131" lon="12.2125332"><ele>239.0</ele><time>2026-05-03T10:14:50.152Z</time></trkpt><trkpt lat="43.1437625" lon="12.2126555"><ele>239.0</ele><time>2026-05-03T10:14:52.158Z</time></trkpt><trkpt lat="43.1437479" lon="12.2127766"><ele>239.0</ele><time>2026-05-03T10:14:54.154Z</time></trkpt><trkpt lat="43.1437245" lon="12.21286"><ele>239.0</ele><time>2026-05-03T10:15:46.173Z</time></trkpt></trkseg></trk></gpx>